<?xml version="1.0" encoding="UTF-8"?>
<gpx version="1.1" creator="https://www.youtrack.es" xsi:schemaLocation="http://www.topografix.com/GPX/1/1 http://www.topografix.com/GPX/1/1/gpx.xsd http://www.garmin.com/xmlschemas/GpxExtensions/v3 http://www.garmin.com/xmlschemas/GpxExtensionsv3.xsd http://www.garmin.com/xmlschemas/TrackPointExtension/v1 http://www.garmin.com/xmlschemas/TrackPointExtensionv1.xsd" xmlns:gpxtpx="http://www.garmin.com/xmlschemas/TrackPointExtension/v1" xmlns:gpxx="http://www.garmin.com/xmlschemas/GpxExtensions/v3" xmlns:xsi="http://www.w3.org/2001/XMLSchema-instance">
  <metadata>
    <author>
      <name>Dani Alus</name>
      <email id="danialusti" domain="gmail.com"/>
    </author>
    <link href="https://www.youtrack.es">
      <text>YouTrack.es</text>
    </link>
    <time>2026-05-08T08:47:30Z</time>
  </metadata>
  <trk>
    <src>https://www.youtrack.es</src>
    <link href="https://www.youtrack.es/ruta/39626-villanua">
      <text>YouTrack.es</text>
    </link>
    <trkseg>
      <trkpt lat="42.6815470" lon="-0.5356740">
        <ele>992.0</ele>
        <time>2023-01-14T12:45:08Z</time>
      </trkpt>
      <trkpt lat="42.6815470" lon="-0.5356800">
        <ele>992.0</ele>
        <time>2023-01-14T12:45:09Z</time>
      </trkpt>
      <trkpt lat="42.6815460" lon="-0.5356840">
        <ele>992.0</ele>
        <time>2023-01-14T12:45:10Z</time>
      </trkpt>
      <trkpt lat="42.6815490" lon="-0.5356870">
        <ele>992.0</ele>
        <time>2023-01-14T12:45:11Z</time>
      </trkpt>
      <trkpt lat="42.6815510" lon="-0.5356920">
        <ele>992.2</ele>
        <time>2023-01-14T12:45:12Z</time>
      </trkpt>
      <trkpt lat="42.6815520" lon="-0.5356960">
        <ele>992.2</ele>
        <time>2023-01-14T12:45:13Z</time>
      </trkpt>
      <trkpt lat="42.6815530" lon="-0.5356980">
        <ele>992.4</ele>
        <time>2023-01-14T12:45:14Z</time>
      </trkpt>
      <trkpt lat="42.6815530" lon="-0.5356990">
        <ele>992.4</ele>
        <time>2023-01-14T12:45:15Z</time>
      </trkpt>
      <trkpt lat="42.6815550" lon="-0.5357030">
        <ele>992.2</ele>
        <time>2023-01-14T12:45:16Z</time>
      </trkpt>
      <trkpt lat="42.6815520" lon="-0.5357070">
        <ele>992.2</ele>
        <time>2023-01-14T12:45:17Z</time>
      </trkpt>
      <trkpt lat="42.6815540" lon="-0.5357030">
        <ele>992.0</ele>
        <time>2023-01-14T12:45:18Z</time>
      </trkpt>
      <trkpt lat="42.6815550" lon="-0.5357010">
        <ele>992.0</ele>
        <time>2023-01-14T12:45:19Z</time>
      </trkpt>
      <trkpt lat="42.6815570" lon="-0.5357040">
        <ele>991.8</ele>
        <time>2023-01-14T12:45:20Z</time>
      </trkpt>
      <trkpt lat="42.6815600" lon="-0.5357080">
        <ele>991.8</ele>
        <time>2023-01-14T12:45:21Z</time>
      </trkpt>
      <trkpt lat="42.6815640" lon="-0.5357140">
        <ele>991.8</ele>
        <time>2023-01-14T12:45:22Z</time>
      </trkpt>
      <trkpt lat="42.6815700" lon="-0.5357200">
        <ele>991.8</ele>
        <time>2023-01-14T12:45:23Z</time>
      </trkpt>
      <trkpt lat="42.6815720" lon="-0.5357230">
        <ele>991.8</ele>
        <time>2023-01-14T12:45:24Z</time>
      </trkpt>
      <trkpt lat="42.6815740" lon="-0.5357250">
        <ele>991.8</ele>
        <time>2023-01-14T12:45:25Z</time>
      </trkpt>
      <trkpt lat="42.6815760" lon="-0.5357300">
        <ele>991.8</ele>
        <time>2023-01-14T12:45:26Z</time>
      </trkpt>
      <trkpt lat="42.6815700" lon="-0.5357350">
        <ele>991.6</ele>
        <time>2023-01-14T12:45:27Z</time>
      </trkpt>
      <trkpt lat="42.6815630" lon="-0.5357440">
        <ele>991.8</ele>
        <time>2023-01-14T12:45:28Z</time>
      </trkpt>
      <trkpt lat="42.6815630" lon="-0.5357630">
        <ele>991.8</ele>
        <time>2023-01-14T12:45:29Z</time>
      </trkpt>
      <trkpt lat="42.6815730" lon="-0.5357900">
        <ele>991.6</ele>
        <time>2023-01-14T12:45:30Z</time>
      </trkpt>
      <trkpt lat="42.6815790" lon="-0.5358110">
        <ele>991.6</ele>
        <time>2023-01-14T12:45:31Z</time>
      </trkpt>
      <trkpt lat="42.6815920" lon="-0.5358300">
        <ele>991.8</ele>
        <time>2023-01-14T12:45:32Z</time>
      </trkpt>
      <trkpt lat="42.6816060" lon="-0.5358390">
        <ele>991.8</ele>
        <time>2023-01-14T12:45:33Z</time>
      </trkpt>
      <trkpt lat="42.6816250" lon="-0.5358420">
        <ele>992.0</ele>
        <time>2023-01-14T12:45:34Z</time>
      </trkpt>
      <trkpt lat="42.6816490" lon="-0.5358460">
        <ele>992.2</ele>
        <time>2023-01-14T12:45:35Z</time>
      </trkpt>
      <trkpt lat="42.6816760" lon="-0.5358480">
        <ele>992.2</ele>
        <time>2023-01-14T12:45:36Z</time>
      </trkpt>
      <trkpt lat="42.6817020" lon="-0.5358420">
        <ele>992.2</ele>
        <time>2023-01-14T12:45:37Z</time>
      </trkpt>
      <trkpt lat="42.6817270" lon="-0.5358280">
        <ele>992.2</ele>
        <time>2023-01-14T12:45:38Z</time>
      </trkpt>
      <trkpt lat="42.6817550" lon="-0.5358150">
        <ele>992.4</ele>
        <time>2023-01-14T12:45:39Z</time>
      </trkpt>
      <trkpt lat="42.6817830" lon="-0.5358020">
        <ele>992.6</ele>
        <time>2023-01-14T12:45:40Z</time>
      </trkpt>
      <trkpt lat="42.6818140" lon="-0.5357930">
        <ele>992.8</ele>
        <time>2023-01-14T12:45:41Z</time>
      </trkpt>
      <trkpt lat="42.6818450" lon="-0.5357870">
        <ele>992.8</ele>
        <time>2023-01-14T12:45:42Z</time>
      </trkpt>
      <trkpt lat="42.6818780" lon="-0.5357850">
        <ele>993.0</ele>
        <time>2023-01-14T12:45:43Z</time>
      </trkpt>
      <trkpt lat="42.6819140" lon="-0.5357870">
        <ele>993.0</ele>
        <time>2023-01-14T12:45:44Z</time>
      </trkpt>
      <trkpt lat="42.6819520" lon="-0.5357850">
        <ele>993.0</ele>
        <time>2023-01-14T12:45:45Z</time>
      </trkpt>
      <trkpt lat="42.6819890" lon="-0.5357710">
        <ele>993.2</ele>
        <time>2023-01-14T12:45:46Z</time>
      </trkpt>
      <trkpt lat="42.6820230" lon="-0.5357520">
        <ele>993.0</ele>
        <time>2023-01-14T12:45:47Z</time>
      </trkpt>
      <trkpt lat="42.6820530" lon="-0.5357270">
        <ele>993.0</ele>
        <time>2023-01-14T12:45:48Z</time>
      </trkpt>
      <trkpt lat="42.6820820" lon="-0.5357050">
        <ele>993.0</ele>
        <time>2023-01-14T12:45:49Z</time>
      </trkpt>
      <trkpt lat="42.6821120" lon="-0.5356890">
        <ele>993.0</ele>
        <time>2023-01-14T12:45:50Z</time>
      </trkpt>
      <trkpt lat="42.6821410" lon="-0.5356700">
        <ele>992.8</ele>
        <time>2023-01-14T12:45:51Z</time>
      </trkpt>
      <trkpt lat="42.6821690" lon="-0.5356490">
        <ele>992.6</ele>
        <time>2023-01-14T12:45:52Z</time>
      </trkpt>
      <trkpt lat="42.6821960" lon="-0.5356260">
        <ele>992.4</ele>
        <time>2023-01-14T12:45:53Z</time>
      </trkpt>
      <trkpt lat="42.6822230" lon="-0.5356100">
        <ele>992.4</ele>
        <time>2023-01-14T12:45:54Z</time>
      </trkpt>
      <trkpt lat="42.6822520" lon="-0.5355950">
        <ele>992.2</ele>
        <time>2023-01-14T12:45:55Z</time>
      </trkpt>
      <trkpt lat="42.6822870" lon="-0.5355760">
        <ele>992.2</ele>
        <time>2023-01-14T12:45:56Z</time>
      </trkpt>
      <trkpt lat="42.6823160" lon="-0.5355530">
        <ele>992.2</ele>
        <time>2023-01-14T12:45:57Z</time>
      </trkpt>
      <trkpt lat="42.6823420" lon="-0.5355310">
        <ele>992.2</ele>
        <time>2023-01-14T12:45:58Z</time>
      </trkpt>
      <trkpt lat="42.6823660" lon="-0.5355110">
        <ele>992.2</ele>
        <time>2023-01-14T12:45:59Z</time>
      </trkpt>
      <trkpt lat="42.6823930" lon="-0.5355010">
        <ele>992.2</ele>
        <time>2023-01-14T12:46:00Z</time>
      </trkpt>
      <trkpt lat="42.6824170" lon="-0.5355120">
        <ele>992.4</ele>
        <time>2023-01-14T12:46:01Z</time>
      </trkpt>
      <trkpt lat="42.6824340" lon="-0.5355400">
        <ele>992.4</ele>
        <time>2023-01-14T12:46:02Z</time>
      </trkpt>
      <trkpt lat="42.6824450" lon="-0.5355750">
        <ele>992.6</ele>
        <time>2023-01-14T12:46:03Z</time>
      </trkpt>
      <trkpt lat="42.6824510" lon="-0.5356120">
        <ele>992.6</ele>
        <time>2023-01-14T12:46:04Z</time>
      </trkpt>
      <trkpt lat="42.6824530" lon="-0.5356460">
        <ele>993.0</ele>
        <time>2023-01-14T12:46:05Z</time>
      </trkpt>
      <trkpt lat="42.6824520" lon="-0.5356830">
        <ele>993.2</ele>
        <time>2023-01-14T12:46:06Z</time>
      </trkpt>
      <trkpt lat="42.6824550" lon="-0.5357260">
        <ele>993.4</ele>
        <time>2023-01-14T12:46:07Z</time>
      </trkpt>
      <trkpt lat="42.6824580" lon="-0.5357720">
        <ele>993.4</ele>
        <time>2023-01-14T12:46:08Z</time>
      </trkpt>
      <trkpt lat="42.6824620" lon="-0.5358160">
        <ele>993.6</ele>
        <time>2023-01-14T12:46:09Z</time>
      </trkpt>
      <trkpt lat="42.6824660" lon="-0.5358590">
        <ele>993.6</ele>
        <time>2023-01-14T12:46:10Z</time>
      </trkpt>
      <trkpt lat="42.6824670" lon="-0.5359010">
        <ele>993.6</ele>
        <time>2023-01-14T12:46:11Z</time>
      </trkpt>
      <trkpt lat="42.6824660" lon="-0.5359450">
        <ele>994.2</ele>
        <time>2023-01-14T12:46:12Z</time>
      </trkpt>
      <trkpt lat="42.6824640" lon="-0.5359870">
        <ele>994.4</ele>
        <time>2023-01-14T12:46:13Z</time>
      </trkpt>
      <trkpt lat="42.6824630" lon="-0.5360280">
        <ele>994.6</ele>
        <time>2023-01-14T12:46:14Z</time>
      </trkpt>
      <trkpt lat="42.6824630" lon="-0.5360680">
        <ele>995.0</ele>
        <time>2023-01-14T12:46:15Z</time>
      </trkpt>
      <trkpt lat="42.6824610" lon="-0.5361070">
        <ele>995.4</ele>
        <time>2023-01-14T12:46:16Z</time>
      </trkpt>
      <trkpt lat="42.6824580" lon="-0.5361450">
        <ele>995.6</ele>
        <time>2023-01-14T12:46:17Z</time>
      </trkpt>
      <trkpt lat="42.6824560" lon="-0.5361860">
        <ele>995.6</ele>
        <time>2023-01-14T12:46:18Z</time>
      </trkpt>
      <trkpt lat="42.6824540" lon="-0.5362270">
        <ele>995.8</ele>
        <time>2023-01-14T12:46:19Z</time>
      </trkpt>
      <trkpt lat="42.6824520" lon="-0.5362710">
        <ele>996.0</ele>
        <time>2023-01-14T12:46:20Z</time>
      </trkpt>
      <trkpt lat="42.6824490" lon="-0.5363150">
        <ele>996.0</ele>
        <time>2023-01-14T12:46:21Z</time>
      </trkpt>
      <trkpt lat="42.6824440" lon="-0.5363600">
        <ele>996.2</ele>
        <time>2023-01-14T12:46:22Z</time>
      </trkpt>
      <trkpt lat="42.6824380" lon="-0.5364040">
        <ele>996.4</ele>
        <time>2023-01-14T12:46:23Z</time>
      </trkpt>
      <trkpt lat="42.6824320" lon="-0.5364470">
        <ele>996.4</ele>
        <time>2023-01-14T12:46:24Z</time>
      </trkpt>
      <trkpt lat="42.6824240" lon="-0.5364880">
        <ele>996.8</ele>
        <time>2023-01-14T12:46:25Z</time>
      </trkpt>
      <trkpt lat="42.6824150" lon="-0.5365280">
        <ele>997.2</ele>
        <time>2023-01-14T12:46:26Z</time>
      </trkpt>
      <trkpt lat="42.6824080" lon="-0.5365680">
        <ele>997.6</ele>
        <time>2023-01-14T12:46:27Z</time>
      </trkpt>
      <trkpt lat="42.6824000" lon="-0.5366070">
        <ele>998.0</ele>
        <time>2023-01-14T12:46:28Z</time>
      </trkpt>
      <trkpt lat="42.6823900" lon="-0.5366460">
        <ele>998.2</ele>
        <time>2023-01-14T12:46:29Z</time>
      </trkpt>
      <trkpt lat="42.6823810" lon="-0.5366840">
        <ele>998.4</ele>
        <time>2023-01-14T12:46:30Z</time>
      </trkpt>
      <trkpt lat="42.6823740" lon="-0.5367220">
        <ele>998.6</ele>
        <time>2023-01-14T12:46:31Z</time>
      </trkpt>
      <trkpt lat="42.6823690" lon="-0.5367610">
        <ele>998.8</ele>
        <time>2023-01-14T12:46:32Z</time>
      </trkpt>
      <trkpt lat="42.6823610" lon="-0.5367990">
        <ele>999.2</ele>
        <time>2023-01-14T12:46:33Z</time>
      </trkpt>
      <trkpt lat="42.6823500" lon="-0.5368370">
        <ele>999.4</ele>
        <time>2023-01-14T12:46:34Z</time>
      </trkpt>
      <trkpt lat="42.6823380" lon="-0.5368730">
        <ele>1000.0</ele>
        <time>2023-01-14T12:46:35Z</time>
      </trkpt>
      <trkpt lat="42.6823240" lon="-0.5369090">
        <ele>1000.2</ele>
        <time>2023-01-14T12:46:36Z</time>
      </trkpt>
      <trkpt lat="42.6823100" lon="-0.5369460">
        <ele>1000.2</ele>
        <time>2023-01-14T12:46:37Z</time>
      </trkpt>
      <trkpt lat="42.6822940" lon="-0.5369840">
        <ele>1000.4</ele>
        <time>2023-01-14T12:46:38Z</time>
      </trkpt>
      <trkpt lat="42.6822800" lon="-0.5370250">
        <ele>1000.8</ele>
        <time>2023-01-14T12:46:39Z</time>
      </trkpt>
      <trkpt lat="42.6822670" lon="-0.5370650">
        <ele>1001.2</ele>
        <time>2023-01-14T12:46:40Z</time>
      </trkpt>
      <trkpt lat="42.6822520" lon="-0.5371060">
        <ele>1001.4</ele>
        <time>2023-01-14T12:46:41Z</time>
      </trkpt>
      <trkpt lat="42.6822390" lon="-0.5371450">
        <ele>1001.4</ele>
        <time>2023-01-14T12:46:42Z</time>
      </trkpt>
      <trkpt lat="42.6822230" lon="-0.5371860">
        <ele>1001.4</ele>
        <time>2023-01-14T12:46:43Z</time>
      </trkpt>
      <trkpt lat="42.6822070" lon="-0.5372270">
        <ele>1001.6</ele>
        <time>2023-01-14T12:46:44Z</time>
      </trkpt>
      <trkpt lat="42.6821890" lon="-0.5372680">
        <ele>1001.6</ele>
        <time>2023-01-14T12:46:45Z</time>
      </trkpt>
      <trkpt lat="42.6821690" lon="-0.5373080">
        <ele>1001.6</ele>
        <time>2023-01-14T12:46:46Z</time>
      </trkpt>
      <trkpt lat="42.6821480" lon="-0.5373460">
        <ele>1001.8</ele>
        <time>2023-01-14T12:46:47Z</time>
      </trkpt>
      <trkpt lat="42.6821270" lon="-0.5373850">
        <ele>1002.0</ele>
        <time>2023-01-14T12:46:48Z</time>
      </trkpt>
      <trkpt lat="42.6821070" lon="-0.5374240">
        <ele>1002.2</ele>
        <time>2023-01-14T12:46:49Z</time>
      </trkpt>
      <trkpt lat="42.6820850" lon="-0.5374640">
        <ele>1002.4</ele>
        <time>2023-01-14T12:46:50Z</time>
      </trkpt>
      <trkpt lat="42.6820640" lon="-0.5375060">
        <ele>1002.6</ele>
        <time>2023-01-14T12:46:51Z</time>
      </trkpt>
      <trkpt lat="42.6820410" lon="-0.5375430">
        <ele>1002.8</ele>
        <time>2023-01-14T12:46:52Z</time>
      </trkpt>
      <trkpt lat="42.6820170" lon="-0.5375770">
        <ele>1003.0</ele>
        <time>2023-01-14T12:46:53Z</time>
      </trkpt>
      <trkpt lat="42.6819930" lon="-0.5376110">
        <ele>1003.2</ele>
        <time>2023-01-14T12:46:54Z</time>
      </trkpt>
      <trkpt lat="42.6819700" lon="-0.5376450">
        <ele>1003.4</ele>
        <time>2023-01-14T12:46:55Z</time>
      </trkpt>
      <trkpt lat="42.6819470" lon="-0.5376780">
        <ele>1003.4</ele>
        <time>2023-01-14T12:46:56Z</time>
      </trkpt>
      <trkpt lat="42.6819260" lon="-0.5377140">
        <ele>1003.4</ele>
        <time>2023-01-14T12:46:57Z</time>
      </trkpt>
      <trkpt lat="42.6819070" lon="-0.5377520">
        <ele>1003.4</ele>
        <time>2023-01-14T12:46:58Z</time>
      </trkpt>
      <trkpt lat="42.6818980" lon="-0.5377940">
        <ele>1003.6</ele>
        <time>2023-01-14T12:46:59Z</time>
      </trkpt>
      <trkpt lat="42.6818970" lon="-0.5378380">
        <ele>1003.8</ele>
        <time>2023-01-14T12:47:00Z</time>
      </trkpt>
      <trkpt lat="42.6819040" lon="-0.5378820">
        <ele>1004.4</ele>
        <time>2023-01-14T12:47:01Z</time>
      </trkpt>
      <trkpt lat="42.6819140" lon="-0.5379230">
        <ele>1004.8</ele>
        <time>2023-01-14T12:47:02Z</time>
      </trkpt>
      <trkpt lat="42.6819250" lon="-0.5379630">
        <ele>1005.0</ele>
        <time>2023-01-14T12:47:03Z</time>
      </trkpt>
      <trkpt lat="42.6819340" lon="-0.5380040">
        <ele>1005.0</ele>
        <time>2023-01-14T12:47:04Z</time>
      </trkpt>
      <trkpt lat="42.6819450" lon="-0.5380460">
        <ele>1005.4</ele>
        <time>2023-01-14T12:47:05Z</time>
      </trkpt>
      <trkpt lat="42.6819560" lon="-0.5380870">
        <ele>1005.6</ele>
        <time>2023-01-14T12:47:06Z</time>
      </trkpt>
      <trkpt lat="42.6819660" lon="-0.5381270">
        <ele>1005.8</ele>
        <time>2023-01-14T12:47:07Z</time>
      </trkpt>
      <trkpt lat="42.6819760" lon="-0.5381680">
        <ele>1006.2</ele>
        <time>2023-01-14T12:47:08Z</time>
      </trkpt>
      <trkpt lat="42.6819850" lon="-0.5382080">
        <ele>1006.8</ele>
        <time>2023-01-14T12:47:09Z</time>
      </trkpt>
      <trkpt lat="42.6819940" lon="-0.5382480">
        <ele>1007.0</ele>
        <time>2023-01-14T12:47:10Z</time>
      </trkpt>
      <trkpt lat="42.6820030" lon="-0.5382890">
        <ele>1007.2</ele>
        <time>2023-01-14T12:47:11Z</time>
      </trkpt>
      <trkpt lat="42.6820110" lon="-0.5383300">
        <ele>1007.4</ele>
        <time>2023-01-14T12:47:12Z</time>
      </trkpt>
      <trkpt lat="42.6820200" lon="-0.5383710">
        <ele>1007.8</ele>
        <time>2023-01-14T12:47:13Z</time>
      </trkpt>
      <trkpt lat="42.6820280" lon="-0.5384120">
        <ele>1008.0</ele>
        <time>2023-01-14T12:47:14Z</time>
      </trkpt>
      <trkpt lat="42.6820360" lon="-0.5384540">
        <ele>1008.2</ele>
        <time>2023-01-14T12:47:15Z</time>
      </trkpt>
      <trkpt lat="42.6820430" lon="-0.5384950">
        <ele>1008.8</ele>
        <time>2023-01-14T12:47:16Z</time>
      </trkpt>
      <trkpt lat="42.6820500" lon="-0.5385370">
        <ele>1009.2</ele>
        <time>2023-01-14T12:47:17Z</time>
      </trkpt>
      <trkpt lat="42.6820570" lon="-0.5385790">
        <ele>1009.6</ele>
        <time>2023-01-14T12:47:18Z</time>
      </trkpt>
      <trkpt lat="42.6820650" lon="-0.5386210">
        <ele>1010.0</ele>
        <time>2023-01-14T12:47:19Z</time>
      </trkpt>
      <trkpt lat="42.6820750" lon="-0.5386610">
        <ele>1010.2</ele>
        <time>2023-01-14T12:47:20Z</time>
      </trkpt>
      <trkpt lat="42.6820860" lon="-0.5387020">
        <ele>1010.2</ele>
        <time>2023-01-14T12:47:21Z</time>
      </trkpt>
      <trkpt lat="42.6820960" lon="-0.5387430">
        <ele>1010.2</ele>
        <time>2023-01-14T12:47:22Z</time>
      </trkpt>
      <trkpt lat="42.6821050" lon="-0.5387840">
        <ele>1010.8</ele>
        <time>2023-01-14T12:47:23Z</time>
      </trkpt>
      <trkpt lat="42.6821140" lon="-0.5388250">
        <ele>1011.0</ele>
        <time>2023-01-14T12:47:24Z</time>
      </trkpt>
      <trkpt lat="42.6821230" lon="-0.5388670">
        <ele>1011.4</ele>
        <time>2023-01-14T12:47:25Z</time>
      </trkpt>
      <trkpt lat="42.6821340" lon="-0.5389090">
        <ele>1011.8</ele>
        <time>2023-01-14T12:47:26Z</time>
      </trkpt>
      <trkpt lat="42.6821450" lon="-0.5389520">
        <ele>1012.2</ele>
        <time>2023-01-14T12:47:27Z</time>
      </trkpt>
      <trkpt lat="42.6821540" lon="-0.5389950">
        <ele>1012.6</ele>
        <time>2023-01-14T12:47:28Z</time>
      </trkpt>
      <trkpt lat="42.6821640" lon="-0.5390370">
        <ele>1013.0</ele>
        <time>2023-01-14T12:47:29Z</time>
      </trkpt>
      <trkpt lat="42.6821730" lon="-0.5390800">
        <ele>1013.2</ele>
        <time>2023-01-14T12:47:30Z</time>
      </trkpt>
      <trkpt lat="42.6821820" lon="-0.5391230">
        <ele>1013.6</ele>
        <time>2023-01-14T12:47:31Z</time>
      </trkpt>
      <trkpt lat="42.6821900" lon="-0.5391650">
        <ele>1014.0</ele>
        <time>2023-01-14T12:47:32Z</time>
      </trkpt>
      <trkpt lat="42.6821990" lon="-0.5392070">
        <ele>1014.2</ele>
        <time>2023-01-14T12:47:33Z</time>
      </trkpt>
      <trkpt lat="42.6822080" lon="-0.5392480">
        <ele>1014.4</ele>
        <time>2023-01-14T12:47:34Z</time>
      </trkpt>
      <trkpt lat="42.6822180" lon="-0.5392890">
        <ele>1015.0</ele>
        <time>2023-01-14T12:47:35Z</time>
      </trkpt>
      <trkpt lat="42.6822280" lon="-0.5393300">
        <ele>1015.2</ele>
        <time>2023-01-14T12:47:36Z</time>
      </trkpt>
      <trkpt lat="42.6822380" lon="-0.5393710">
        <ele>1015.6</ele>
        <time>2023-01-14T12:47:37Z</time>
      </trkpt>
      <trkpt lat="42.6822480" lon="-0.5394120">
        <ele>1016.2</ele>
        <time>2023-01-14T12:47:38Z</time>
      </trkpt>
      <trkpt lat="42.6822590" lon="-0.5394520">
        <ele>1016.6</ele>
        <time>2023-01-14T12:47:39Z</time>
      </trkpt>
      <trkpt lat="42.6822690" lon="-0.5394920">
        <ele>1017.0</ele>
        <time>2023-01-14T12:47:40Z</time>
      </trkpt>
      <trkpt lat="42.6822780" lon="-0.5395330">
        <ele>1017.2</ele>
        <time>2023-01-14T12:47:41Z</time>
      </trkpt>
      <trkpt lat="42.6822880" lon="-0.5395720">
        <ele>1017.6</ele>
        <time>2023-01-14T12:47:42Z</time>
      </trkpt>
      <trkpt lat="42.6822980" lon="-0.5396110">
        <ele>1018.0</ele>
        <time>2023-01-14T12:47:43Z</time>
      </trkpt>
      <trkpt lat="42.6823090" lon="-0.5396520">
        <ele>1018.4</ele>
        <time>2023-01-14T12:47:44Z</time>
      </trkpt>
      <trkpt lat="42.6823180" lon="-0.5396920">
        <ele>1018.8</ele>
        <time>2023-01-14T12:47:45Z</time>
      </trkpt>
      <trkpt lat="42.6823260" lon="-0.5397340">
        <ele>1019.0</ele>
        <time>2023-01-14T12:47:46Z</time>
      </trkpt>
      <trkpt lat="42.6823330" lon="-0.5397750">
        <ele>1019.2</ele>
        <time>2023-01-14T12:47:47Z</time>
      </trkpt>
      <trkpt lat="42.6823400" lon="-0.5398160">
        <ele>1019.2</ele>
        <time>2023-01-14T12:47:48Z</time>
      </trkpt>
      <trkpt lat="42.6823510" lon="-0.5398550">
        <ele>1019.4</ele>
        <time>2023-01-14T12:47:49Z</time>
      </trkpt>
      <trkpt lat="42.6823610" lon="-0.5398940">
        <ele>1019.8</ele>
        <time>2023-01-14T12:47:50Z</time>
      </trkpt>
      <trkpt lat="42.6823710" lon="-0.5399340">
        <ele>1020.2</ele>
        <time>2023-01-14T12:47:51Z</time>
      </trkpt>
      <trkpt lat="42.6823800" lon="-0.5399740">
        <ele>1020.4</ele>
        <time>2023-01-14T12:47:52Z</time>
      </trkpt>
      <trkpt lat="42.6823880" lon="-0.5400130">
        <ele>1021.0</ele>
        <time>2023-01-14T12:47:53Z</time>
      </trkpt>
      <trkpt lat="42.6823960" lon="-0.5400530">
        <ele>1021.4</ele>
        <time>2023-01-14T12:47:54Z</time>
      </trkpt>
      <trkpt lat="42.6824050" lon="-0.5400930">
        <ele>1021.6</ele>
        <time>2023-01-14T12:47:55Z</time>
      </trkpt>
      <trkpt lat="42.6824140" lon="-0.5401330">
        <ele>1022.0</ele>
        <time>2023-01-14T12:47:56Z</time>
      </trkpt>
      <trkpt lat="42.6824220" lon="-0.5401730">
        <ele>1022.2</ele>
        <time>2023-01-14T12:47:57Z</time>
      </trkpt>
      <trkpt lat="42.6824290" lon="-0.5402140">
        <ele>1022.8</ele>
        <time>2023-01-14T12:47:58Z</time>
      </trkpt>
      <trkpt lat="42.6824360" lon="-0.5402550">
        <ele>1023.2</ele>
        <time>2023-01-14T12:47:59Z</time>
      </trkpt>
      <trkpt lat="42.6824420" lon="-0.5402960">
        <ele>1023.4</ele>
        <time>2023-01-14T12:48:00Z</time>
      </trkpt>
      <trkpt lat="42.6824500" lon="-0.5403360">
        <ele>1023.8</ele>
        <time>2023-01-14T12:48:01Z</time>
      </trkpt>
      <trkpt lat="42.6824590" lon="-0.5403760">
        <ele>1024.0</ele>
        <time>2023-01-14T12:48:02Z</time>
      </trkpt>
      <trkpt lat="42.6824680" lon="-0.5404150">
        <ele>1024.4</ele>
        <time>2023-01-14T12:48:03Z</time>
      </trkpt>
      <trkpt lat="42.6824770" lon="-0.5404540">
        <ele>1024.6</ele>
        <time>2023-01-14T12:48:04Z</time>
      </trkpt>
      <trkpt lat="42.6824870" lon="-0.5404920">
        <ele>1024.8</ele>
        <time>2023-01-14T12:48:05Z</time>
      </trkpt>
      <trkpt lat="42.6824980" lon="-0.5405310">
        <ele>1025.2</ele>
        <time>2023-01-14T12:48:06Z</time>
      </trkpt>
      <trkpt lat="42.6825060" lon="-0.5405680">
        <ele>1025.4</ele>
        <time>2023-01-14T12:48:07Z</time>
      </trkpt>
      <trkpt lat="42.6825140" lon="-0.5406070">
        <ele>1025.6</ele>
        <time>2023-01-14T12:48:08Z</time>
      </trkpt>
      <trkpt lat="42.6825230" lon="-0.5406440">
        <ele>1025.8</ele>
        <time>2023-01-14T12:48:09Z</time>
      </trkpt>
      <trkpt lat="42.6825330" lon="-0.5406790">
        <ele>1026.0</ele>
        <time>2023-01-14T12:48:10Z</time>
      </trkpt>
      <trkpt lat="42.6825460" lon="-0.5407120">
        <ele>1026.4</ele>
        <time>2023-01-14T12:48:11Z</time>
      </trkpt>
      <trkpt lat="42.6825610" lon="-0.5407390">
        <ele>1026.6</ele>
        <time>2023-01-14T12:48:12Z</time>
      </trkpt>
      <trkpt lat="42.6825830" lon="-0.5407560">
        <ele>1027.0</ele>
        <time>2023-01-14T12:48:13Z</time>
      </trkpt>
      <trkpt lat="42.6826090" lon="-0.5407570">
        <ele>1027.2</ele>
        <time>2023-01-14T12:48:14Z</time>
      </trkpt>
      <trkpt lat="42.6826350" lon="-0.5407510">
        <ele>1027.4</ele>
        <time>2023-01-14T12:48:15Z</time>
      </trkpt>
      <trkpt lat="42.6826610" lon="-0.5407590">
        <ele>1027.4</ele>
        <time>2023-01-14T12:48:16Z</time>
      </trkpt>
      <trkpt lat="42.6826780" lon="-0.5407800">
        <ele>1027.6</ele>
        <time>2023-01-14T12:48:17Z</time>
      </trkpt>
      <trkpt lat="42.6826850" lon="-0.5408080">
        <ele>1027.6</ele>
        <time>2023-01-14T12:48:18Z</time>
      </trkpt>
      <trkpt lat="42.6826840" lon="-0.5408400">
        <ele>1027.8</ele>
        <time>2023-01-14T12:48:19Z</time>
      </trkpt>
      <trkpt lat="42.6826750" lon="-0.5408730">
        <ele>1028.0</ele>
        <time>2023-01-14T12:48:20Z</time>
      </trkpt>
      <trkpt lat="42.6826590" lon="-0.5409030">
        <ele>1028.2</ele>
        <time>2023-01-14T12:48:21Z</time>
      </trkpt>
      <trkpt lat="42.6826410" lon="-0.5409310">
        <ele>1028.4</ele>
        <time>2023-01-14T12:48:22Z</time>
      </trkpt>
      <trkpt lat="42.6826240" lon="-0.5409590">
        <ele>1028.8</ele>
        <time>2023-01-14T12:48:23Z</time>
      </trkpt>
      <trkpt lat="42.6826060" lon="-0.5409890">
        <ele>1029.0</ele>
        <time>2023-01-14T12:48:24Z</time>
      </trkpt>
      <trkpt lat="42.6825880" lon="-0.5410170">
        <ele>1029.4</ele>
        <time>2023-01-14T12:48:25Z</time>
      </trkpt>
      <trkpt lat="42.6825690" lon="-0.5410470">
        <ele>1029.8</ele>
        <time>2023-01-14T12:48:26Z</time>
      </trkpt>
      <trkpt lat="42.6825480" lon="-0.5410770">
        <ele>1030.0</ele>
        <time>2023-01-14T12:48:27Z</time>
      </trkpt>
      <trkpt lat="42.6825280" lon="-0.5411070">
        <ele>1030.2</ele>
        <time>2023-01-14T12:48:28Z</time>
      </trkpt>
      <trkpt lat="42.6825080" lon="-0.5411380">
        <ele>1030.4</ele>
        <time>2023-01-14T12:48:29Z</time>
      </trkpt>
      <trkpt lat="42.6824870" lon="-0.5411700">
        <ele>1031.0</ele>
        <time>2023-01-14T12:48:30Z</time>
      </trkpt>
      <trkpt lat="42.6824660" lon="-0.5412020">
        <ele>1031.4</ele>
        <time>2023-01-14T12:48:31Z</time>
      </trkpt>
      <trkpt lat="42.6824430" lon="-0.5412290">
        <ele>1031.6</ele>
        <time>2023-01-14T12:48:32Z</time>
      </trkpt>
      <trkpt lat="42.6824180" lon="-0.5412540">
        <ele>1031.8</ele>
        <time>2023-01-14T12:48:33Z</time>
      </trkpt>
      <trkpt lat="42.6823910" lon="-0.5412770">
        <ele>1032.0</ele>
        <time>2023-01-14T12:48:34Z</time>
      </trkpt>
      <trkpt lat="42.6823650" lon="-0.5413010">
        <ele>1032.2</ele>
        <time>2023-01-14T12:48:35Z</time>
      </trkpt>
      <trkpt lat="42.6823370" lon="-0.5413220">
        <ele>1032.4</ele>
        <time>2023-01-14T12:48:36Z</time>
      </trkpt>
      <trkpt lat="42.6823090" lon="-0.5413380">
        <ele>1032.6</ele>
        <time>2023-01-14T12:48:37Z</time>
      </trkpt>
      <trkpt lat="42.6822820" lon="-0.5413510">
        <ele>1033.0</ele>
        <time>2023-01-14T12:48:38Z</time>
      </trkpt>
      <trkpt lat="42.6822540" lon="-0.5413610">
        <ele>1033.2</ele>
        <time>2023-01-14T12:48:39Z</time>
      </trkpt>
      <trkpt lat="42.6822240" lon="-0.5413680">
        <ele>1033.4</ele>
        <time>2023-01-14T12:48:40Z</time>
      </trkpt>
      <trkpt lat="42.6821950" lon="-0.5413770">
        <ele>1033.8</ele>
        <time>2023-01-14T12:48:41Z</time>
      </trkpt>
      <trkpt lat="42.6821660" lon="-0.5413890">
        <ele>1034.6</ele>
        <time>2023-01-14T12:48:42Z</time>
      </trkpt>
      <trkpt lat="42.6821370" lon="-0.5414030">
        <ele>1035.0</ele>
        <time>2023-01-14T12:48:43Z</time>
      </trkpt>
      <trkpt lat="42.6821080" lon="-0.5414170">
        <ele>1035.2</ele>
        <time>2023-01-14T12:48:44Z</time>
      </trkpt>
      <trkpt lat="42.6820800" lon="-0.5414320">
        <ele>1035.4</ele>
        <time>2023-01-14T12:48:45Z</time>
      </trkpt>
      <trkpt lat="42.6820520" lon="-0.5414480">
        <ele>1035.6</ele>
        <time>2023-01-14T12:48:46Z</time>
      </trkpt>
      <trkpt lat="42.6820230" lon="-0.5414630">
        <ele>1035.8</ele>
        <time>2023-01-14T12:48:47Z</time>
      </trkpt>
      <trkpt lat="42.6819930" lon="-0.5414770">
        <ele>1036.2</ele>
        <time>2023-01-14T12:48:48Z</time>
      </trkpt>
      <trkpt lat="42.6819620" lon="-0.5414890">
        <ele>1036.4</ele>
        <time>2023-01-14T12:48:49Z</time>
      </trkpt>
      <trkpt lat="42.6819310" lon="-0.5415030">
        <ele>1036.8</ele>
        <time>2023-01-14T12:48:50Z</time>
      </trkpt>
      <trkpt lat="42.6819020" lon="-0.5415210">
        <ele>1037.2</ele>
        <time>2023-01-14T12:48:51Z</time>
      </trkpt>
      <trkpt lat="42.6818760" lon="-0.5415460">
        <ele>1037.2</ele>
        <time>2023-01-14T12:48:52Z</time>
      </trkpt>
      <trkpt lat="42.6818550" lon="-0.5415800">
        <ele>1037.6</ele>
        <time>2023-01-14T12:48:53Z</time>
      </trkpt>
      <trkpt lat="42.6818430" lon="-0.5416210">
        <ele>1037.8</ele>
        <time>2023-01-14T12:48:54Z</time>
      </trkpt>
      <trkpt lat="42.6818430" lon="-0.5416660">
        <ele>1037.8</ele>
        <time>2023-01-14T12:48:55Z</time>
      </trkpt>
      <trkpt lat="42.6818530" lon="-0.5417090">
        <ele>1038.2</ele>
        <time>2023-01-14T12:48:56Z</time>
      </trkpt>
      <trkpt lat="42.6818700" lon="-0.5417470">
        <ele>1038.6</ele>
        <time>2023-01-14T12:48:57Z</time>
      </trkpt>
      <trkpt lat="42.6818940" lon="-0.5417800">
        <ele>1038.8</ele>
        <time>2023-01-14T12:48:58Z</time>
      </trkpt>
      <trkpt lat="42.6819190" lon="-0.5418100">
        <ele>1039.0</ele>
        <time>2023-01-14T12:48:59Z</time>
      </trkpt>
      <trkpt lat="42.6819440" lon="-0.5418370">
        <ele>1039.0</ele>
        <time>2023-01-14T12:49:00Z</time>
      </trkpt>
      <trkpt lat="42.6819720" lon="-0.5418650">
        <ele>1039.8</ele>
        <time>2023-01-14T12:49:01Z</time>
      </trkpt>
      <trkpt lat="42.6819970" lon="-0.5418900">
        <ele>1040.0</ele>
        <time>2023-01-14T12:49:02Z</time>
      </trkpt>
      <trkpt lat="42.6820240" lon="-0.5419140">
        <ele>1040.2</ele>
        <time>2023-01-14T12:49:03Z</time>
      </trkpt>
      <trkpt lat="42.6820540" lon="-0.5419370">
        <ele>1040.6</ele>
        <time>2023-01-14T12:49:04Z</time>
      </trkpt>
      <trkpt lat="42.6820850" lon="-0.5419540">
        <ele>1041.2</ele>
        <time>2023-01-14T12:49:05Z</time>
      </trkpt>
      <trkpt lat="42.6821180" lon="-0.5419640">
        <ele>1041.8</ele>
        <time>2023-01-14T12:49:06Z</time>
      </trkpt>
      <trkpt lat="42.6821510" lon="-0.5419710">
        <ele>1042.0</ele>
        <time>2023-01-14T12:49:07Z</time>
      </trkpt>
      <trkpt lat="42.6821840" lon="-0.5419760">
        <ele>1042.4</ele>
        <time>2023-01-14T12:49:08Z</time>
      </trkpt>
      <trkpt lat="42.6822180" lon="-0.5419820">
        <ele>1042.4</ele>
        <time>2023-01-14T12:49:09Z</time>
      </trkpt>
      <trkpt lat="42.6822520" lon="-0.5419850">
        <ele>1042.8</ele>
        <time>2023-01-14T12:49:10Z</time>
      </trkpt>
      <trkpt lat="42.6822880" lon="-0.5419870">
        <ele>1043.0</ele>
        <time>2023-01-14T12:49:11Z</time>
      </trkpt>
      <trkpt lat="42.6823240" lon="-0.5419870">
        <ele>1043.2</ele>
        <time>2023-01-14T12:49:12Z</time>
      </trkpt>
      <trkpt lat="42.6823600" lon="-0.5419880">
        <ele>1043.2</ele>
        <time>2023-01-14T12:49:13Z</time>
      </trkpt>
      <trkpt lat="42.6823950" lon="-0.5419870">
        <ele>1043.4</ele>
        <time>2023-01-14T12:49:14Z</time>
      </trkpt>
      <trkpt lat="42.6824300" lon="-0.5419850">
        <ele>1044.2</ele>
        <time>2023-01-14T12:49:15Z</time>
      </trkpt>
      <trkpt lat="42.6824650" lon="-0.5419830">
        <ele>1044.6</ele>
        <time>2023-01-14T12:49:16Z</time>
      </trkpt>
      <trkpt lat="42.6824980" lon="-0.5419810">
        <ele>1045.0</ele>
        <time>2023-01-14T12:49:17Z</time>
      </trkpt>
      <trkpt lat="42.6825330" lon="-0.5419750">
        <ele>1045.4</ele>
        <time>2023-01-14T12:49:18Z</time>
      </trkpt>
      <trkpt lat="42.6825670" lon="-0.5419660">
        <ele>1046.0</ele>
        <time>2023-01-14T12:49:19Z</time>
      </trkpt>
      <trkpt lat="42.6826010" lon="-0.5419540">
        <ele>1046.2</ele>
        <time>2023-01-14T12:49:20Z</time>
      </trkpt>
      <trkpt lat="42.6826330" lon="-0.5419370">
        <ele>1046.4</ele>
        <time>2023-01-14T12:49:21Z</time>
      </trkpt>
      <trkpt lat="42.6826650" lon="-0.5419180">
        <ele>1046.8</ele>
        <time>2023-01-14T12:49:22Z</time>
      </trkpt>
      <trkpt lat="42.6826940" lon="-0.5418980">
        <ele>1047.0</ele>
        <time>2023-01-14T12:49:23Z</time>
      </trkpt>
      <trkpt lat="42.6827260" lon="-0.5418840">
        <ele>1047.4</ele>
        <time>2023-01-14T12:49:24Z</time>
      </trkpt>
      <trkpt lat="42.6827560" lon="-0.5418680">
        <ele>1048.0</ele>
        <time>2023-01-14T12:49:25Z</time>
      </trkpt>
      <trkpt lat="42.6827860" lon="-0.5418530">
        <ele>1048.2</ele>
        <time>2023-01-14T12:49:26Z</time>
      </trkpt>
      <trkpt lat="42.6828150" lon="-0.5418340">
        <ele>1048.4</ele>
        <time>2023-01-14T12:49:27Z</time>
      </trkpt>
      <trkpt lat="42.6828440" lon="-0.5418180">
        <ele>1048.8</ele>
        <time>2023-01-14T12:49:28Z</time>
      </trkpt>
      <trkpt lat="42.6828730" lon="-0.5418020">
        <ele>1049.2</ele>
        <time>2023-01-14T12:49:29Z</time>
      </trkpt>
      <trkpt lat="42.6829030" lon="-0.5417880">
        <ele>1049.8</ele>
        <time>2023-01-14T12:49:30Z</time>
      </trkpt>
      <trkpt lat="42.6829350" lon="-0.5417780">
        <ele>1050.0</ele>
        <time>2023-01-14T12:49:31Z</time>
      </trkpt>
      <trkpt lat="42.6829680" lon="-0.5417670">
        <ele>1050.2</ele>
        <time>2023-01-14T12:49:32Z</time>
      </trkpt>
      <trkpt lat="42.6830010" lon="-0.5417550">
        <ele>1050.6</ele>
        <time>2023-01-14T12:49:33Z</time>
      </trkpt>
      <trkpt lat="42.6830350" lon="-0.5417420">
        <ele>1051.0</ele>
        <time>2023-01-14T12:49:34Z</time>
      </trkpt>
      <trkpt lat="42.6830700" lon="-0.5417250">
        <ele>1051.2</ele>
        <time>2023-01-14T12:49:35Z</time>
      </trkpt>
      <trkpt lat="42.6831030" lon="-0.5417060">
        <ele>1051.6</ele>
        <time>2023-01-14T12:49:36Z</time>
      </trkpt>
      <trkpt lat="42.6831360" lon="-0.5416900">
        <ele>1052.0</ele>
        <time>2023-01-14T12:49:37Z</time>
      </trkpt>
      <trkpt lat="42.6831670" lon="-0.5416690">
        <ele>1052.2</ele>
        <time>2023-01-14T12:49:38Z</time>
      </trkpt>
      <trkpt lat="42.6832000" lon="-0.5416460">
        <ele>1052.2</ele>
        <time>2023-01-14T12:49:39Z</time>
      </trkpt>
      <trkpt lat="42.6832300" lon="-0.5416190">
        <ele>1052.4</ele>
        <time>2023-01-14T12:49:40Z</time>
      </trkpt>
      <trkpt lat="42.6832600" lon="-0.5415890">
        <ele>1052.6</ele>
        <time>2023-01-14T12:49:41Z</time>
      </trkpt>
      <trkpt lat="42.6832910" lon="-0.5415590">
        <ele>1052.8</ele>
        <time>2023-01-14T12:49:42Z</time>
      </trkpt>
      <trkpt lat="42.6833220" lon="-0.5415260">
        <ele>1053.0</ele>
        <time>2023-01-14T12:49:43Z</time>
      </trkpt>
      <trkpt lat="42.6833540" lon="-0.5414930">
        <ele>1053.2</ele>
        <time>2023-01-14T12:49:44Z</time>
      </trkpt>
      <trkpt lat="42.6833850" lon="-0.5414580">
        <ele>1053.6</ele>
        <time>2023-01-14T12:49:45Z</time>
      </trkpt>
      <trkpt lat="42.6834150" lon="-0.5414220">
        <ele>1053.8</ele>
        <time>2023-01-14T12:49:46Z</time>
      </trkpt>
      <trkpt lat="42.6834440" lon="-0.5413840">
        <ele>1054.2</ele>
        <time>2023-01-14T12:49:47Z</time>
      </trkpt>
      <trkpt lat="42.6834690" lon="-0.5413420">
        <ele>1054.8</ele>
        <time>2023-01-14T12:49:48Z</time>
      </trkpt>
      <trkpt lat="42.6834950" lon="-0.5413010">
        <ele>1055.2</ele>
        <time>2023-01-14T12:49:49Z</time>
      </trkpt>
      <trkpt lat="42.6835190" lon="-0.5412600">
        <ele>1055.4</ele>
        <time>2023-01-14T12:49:50Z</time>
      </trkpt>
      <trkpt lat="42.6835430" lon="-0.5412190">
        <ele>1055.4</ele>
        <time>2023-01-14T12:49:51Z</time>
      </trkpt>
      <trkpt lat="42.6835640" lon="-0.5411730">
        <ele>1055.6</ele>
        <time>2023-01-14T12:49:52Z</time>
      </trkpt>
      <trkpt lat="42.6835840" lon="-0.5411260">
        <ele>1055.8</ele>
        <time>2023-01-14T12:49:53Z</time>
      </trkpt>
      <trkpt lat="42.6836040" lon="-0.5410770">
        <ele>1056.0</ele>
        <time>2023-01-14T12:49:54Z</time>
      </trkpt>
      <trkpt lat="42.6836220" lon="-0.5410300">
        <ele>1056.2</ele>
        <time>2023-01-14T12:49:55Z</time>
      </trkpt>
      <trkpt lat="42.6836390" lon="-0.5409840">
        <ele>1056.4</ele>
        <time>2023-01-14T12:49:56Z</time>
      </trkpt>
      <trkpt lat="42.6836570" lon="-0.5409400">
        <ele>1056.6</ele>
        <time>2023-01-14T12:49:57Z</time>
      </trkpt>
      <trkpt lat="42.6836750" lon="-0.5408980">
        <ele>1056.6</ele>
        <time>2023-01-14T12:49:58Z</time>
      </trkpt>
      <trkpt lat="42.6836950" lon="-0.5408570">
        <ele>1056.8</ele>
        <time>2023-01-14T12:49:59Z</time>
      </trkpt>
      <trkpt lat="42.6837150" lon="-0.5408160">
        <ele>1057.0</ele>
        <time>2023-01-14T12:50:00Z</time>
      </trkpt>
      <trkpt lat="42.6837340" lon="-0.5407730">
        <ele>1057.8</ele>
        <time>2023-01-14T12:50:01Z</time>
      </trkpt>
      <trkpt lat="42.6837500" lon="-0.5407280">
        <ele>1058.2</ele>
        <time>2023-01-14T12:50:02Z</time>
      </trkpt>
      <trkpt lat="42.6837620" lon="-0.5406800">
        <ele>1058.6</ele>
        <time>2023-01-14T12:50:03Z</time>
      </trkpt>
      <trkpt lat="42.6837690" lon="-0.5406310">
        <ele>1059.0</ele>
        <time>2023-01-14T12:50:04Z</time>
      </trkpt>
      <trkpt lat="42.6837730" lon="-0.5405800">
        <ele>1059.2</ele>
        <time>2023-01-14T12:50:05Z</time>
      </trkpt>
      <trkpt lat="42.6837760" lon="-0.5405300">
        <ele>1059.8</ele>
        <time>2023-01-14T12:50:06Z</time>
      </trkpt>
      <trkpt lat="42.6837780" lon="-0.5404820">
        <ele>1060.0</ele>
        <time>2023-01-14T12:50:07Z</time>
      </trkpt>
      <trkpt lat="42.6837790" lon="-0.5404360">
        <ele>1060.2</ele>
        <time>2023-01-14T12:50:08Z</time>
      </trkpt>
      <trkpt lat="42.6837800" lon="-0.5403880">
        <ele>1060.6</ele>
        <time>2023-01-14T12:50:09Z</time>
      </trkpt>
      <trkpt lat="42.6837820" lon="-0.5403410">
        <ele>1061.0</ele>
        <time>2023-01-14T12:50:10Z</time>
      </trkpt>
      <trkpt lat="42.6837810" lon="-0.5402940">
        <ele>1061.2</ele>
        <time>2023-01-14T12:50:11Z</time>
      </trkpt>
      <trkpt lat="42.6837870" lon="-0.5402520">
        <ele>1061.6</ele>
        <time>2023-01-14T12:50:12Z</time>
      </trkpt>
      <trkpt lat="42.6837930" lon="-0.5402070">
        <ele>1062.2</ele>
        <time>2023-01-14T12:50:13Z</time>
      </trkpt>
      <trkpt lat="42.6838050" lon="-0.5401640">
        <ele>1062.8</ele>
        <time>2023-01-14T12:50:14Z</time>
      </trkpt>
      <trkpt lat="42.6838200" lon="-0.5401230">
        <ele>1063.0</ele>
        <time>2023-01-14T12:50:15Z</time>
      </trkpt>
      <trkpt lat="42.6838380" lon="-0.5400860">
        <ele>1063.4</ele>
        <time>2023-01-14T12:50:16Z</time>
      </trkpt>
      <trkpt lat="42.6838630" lon="-0.5400560">
        <ele>1063.6</ele>
        <time>2023-01-14T12:50:17Z</time>
      </trkpt>
      <trkpt lat="42.6838900" lon="-0.5400310">
        <ele>1063.8</ele>
        <time>2023-01-14T12:50:18Z</time>
      </trkpt>
      <trkpt lat="42.6839210" lon="-0.5400150">
        <ele>1064.0</ele>
        <time>2023-01-14T12:50:19Z</time>
      </trkpt>
      <trkpt lat="42.6839560" lon="-0.5400020">
        <ele>1064.2</ele>
        <time>2023-01-14T12:50:20Z</time>
      </trkpt>
      <trkpt lat="42.6839900" lon="-0.5399880">
        <ele>1064.4</ele>
        <time>2023-01-14T12:50:21Z</time>
      </trkpt>
      <trkpt lat="42.6840240" lon="-0.5399740">
        <ele>1064.6</ele>
        <time>2023-01-14T12:50:22Z</time>
      </trkpt>
      <trkpt lat="42.6840560" lon="-0.5399580">
        <ele>1064.8</ele>
        <time>2023-01-14T12:50:23Z</time>
      </trkpt>
      <trkpt lat="42.6840880" lon="-0.5399460">
        <ele>1065.2</ele>
        <time>2023-01-14T12:50:24Z</time>
      </trkpt>
      <trkpt lat="42.6841200" lon="-0.5399350">
        <ele>1065.6</ele>
        <time>2023-01-14T12:50:25Z</time>
      </trkpt>
      <trkpt lat="42.6841540" lon="-0.5399240">
        <ele>1065.8</ele>
        <time>2023-01-14T12:50:26Z</time>
      </trkpt>
      <trkpt lat="42.6841880" lon="-0.5399130">
        <ele>1066.4</ele>
        <time>2023-01-14T12:50:27Z</time>
      </trkpt>
      <trkpt lat="42.6842210" lon="-0.5399020">
        <ele>1066.8</ele>
        <time>2023-01-14T12:50:28Z</time>
      </trkpt>
      <trkpt lat="42.6842540" lon="-0.5398900">
        <ele>1067.2</ele>
        <time>2023-01-14T12:50:29Z</time>
      </trkpt>
      <trkpt lat="42.6842870" lon="-0.5398770">
        <ele>1067.8</ele>
        <time>2023-01-14T12:50:30Z</time>
      </trkpt>
      <trkpt lat="42.6843200" lon="-0.5398680">
        <ele>1068.2</ele>
        <time>2023-01-14T12:50:31Z</time>
      </trkpt>
      <trkpt lat="42.6843530" lon="-0.5398590">
        <ele>1068.8</ele>
        <time>2023-01-14T12:50:32Z</time>
      </trkpt>
      <trkpt lat="42.6843860" lon="-0.5398460">
        <ele>1069.6</ele>
        <time>2023-01-14T12:50:33Z</time>
      </trkpt>
      <trkpt lat="42.6844210" lon="-0.5398340">
        <ele>1070.0</ele>
        <time>2023-01-14T12:50:34Z</time>
      </trkpt>
      <trkpt lat="42.6844550" lon="-0.5398230">
        <ele>1070.4</ele>
        <time>2023-01-14T12:50:35Z</time>
      </trkpt>
      <trkpt lat="42.6844890" lon="-0.5398140">
        <ele>1070.8</ele>
        <time>2023-01-14T12:50:36Z</time>
      </trkpt>
      <trkpt lat="42.6845240" lon="-0.5398070">
        <ele>1071.2</ele>
        <time>2023-01-14T12:50:37Z</time>
      </trkpt>
      <trkpt lat="42.6845600" lon="-0.5398030">
        <ele>1071.6</ele>
        <time>2023-01-14T12:50:38Z</time>
      </trkpt>
      <trkpt lat="42.6845970" lon="-0.5397970">
        <ele>1072.2</ele>
        <time>2023-01-14T12:50:39Z</time>
      </trkpt>
      <trkpt lat="42.6846340" lon="-0.5397910">
        <ele>1072.6</ele>
        <time>2023-01-14T12:50:40Z</time>
      </trkpt>
      <trkpt lat="42.6846710" lon="-0.5397870">
        <ele>1073.0</ele>
        <time>2023-01-14T12:50:41Z</time>
      </trkpt>
      <trkpt lat="42.6847070" lon="-0.5397810">
        <ele>1073.6</ele>
        <time>2023-01-14T12:50:42Z</time>
      </trkpt>
      <trkpt lat="42.6847410" lon="-0.5397750">
        <ele>1074.0</ele>
        <time>2023-01-14T12:50:43Z</time>
      </trkpt>
      <trkpt lat="42.6847790" lon="-0.5397720">
        <ele>1074.2</ele>
        <time>2023-01-14T12:50:44Z</time>
      </trkpt>
      <trkpt lat="42.6848160" lon="-0.5397680">
        <ele>1074.8</ele>
        <time>2023-01-14T12:50:45Z</time>
      </trkpt>
      <trkpt lat="42.6848530" lon="-0.5397670">
        <ele>1075.0</ele>
        <time>2023-01-14T12:50:46Z</time>
      </trkpt>
      <trkpt lat="42.6848890" lon="-0.5397670">
        <ele>1075.4</ele>
        <time>2023-01-14T12:50:47Z</time>
      </trkpt>
      <trkpt lat="42.6849240" lon="-0.5397700">
        <ele>1075.8</ele>
        <time>2023-01-14T12:50:48Z</time>
      </trkpt>
      <trkpt lat="42.6849580" lon="-0.5397720">
        <ele>1076.2</ele>
        <time>2023-01-14T12:50:49Z</time>
      </trkpt>
      <trkpt lat="42.6849900" lon="-0.5397770">
        <ele>1076.4</ele>
        <time>2023-01-14T12:50:50Z</time>
      </trkpt>
      <trkpt lat="42.6850230" lon="-0.5397840">
        <ele>1077.0</ele>
        <time>2023-01-14T12:50:51Z</time>
      </trkpt>
      <trkpt lat="42.6850560" lon="-0.5397940">
        <ele>1077.4</ele>
        <time>2023-01-14T12:50:52Z</time>
      </trkpt>
      <trkpt lat="42.6850880" lon="-0.5398020">
        <ele>1077.8</ele>
        <time>2023-01-14T12:50:53Z</time>
      </trkpt>
      <trkpt lat="42.6851240" lon="-0.5398090">
        <ele>1078.0</ele>
        <time>2023-01-14T12:50:54Z</time>
      </trkpt>
      <trkpt lat="42.6851600" lon="-0.5398130">
        <ele>1078.2</ele>
        <time>2023-01-14T12:50:55Z</time>
      </trkpt>
      <trkpt lat="42.6851950" lon="-0.5398140">
        <ele>1079.2</ele>
        <time>2023-01-14T12:50:56Z</time>
      </trkpt>
      <trkpt lat="42.6852280" lon="-0.5398150">
        <ele>1079.8</ele>
        <time>2023-01-14T12:50:57Z</time>
      </trkpt>
      <trkpt lat="42.6852600" lon="-0.5398160">
        <ele>1080.2</ele>
        <time>2023-01-14T12:50:58Z</time>
      </trkpt>
      <trkpt lat="42.6852910" lon="-0.5398140">
        <ele>1080.6</ele>
        <time>2023-01-14T12:50:59Z</time>
      </trkpt>
      <trkpt lat="42.6853230" lon="-0.5398100">
        <ele>1080.8</ele>
        <time>2023-01-14T12:51:00Z</time>
      </trkpt>
      <trkpt lat="42.6853540" lon="-0.5398050">
        <ele>1081.2</ele>
        <time>2023-01-14T12:51:01Z</time>
      </trkpt>
      <trkpt lat="42.6853880" lon="-0.5398030">
        <ele>1081.4</ele>
        <time>2023-01-14T12:51:02Z</time>
      </trkpt>
      <trkpt lat="42.6854200" lon="-0.5397990">
        <ele>1081.8</ele>
        <time>2023-01-14T12:51:03Z</time>
      </trkpt>
      <trkpt lat="42.6854520" lon="-0.5397950">
        <ele>1082.4</ele>
        <time>2023-01-14T12:51:04Z</time>
      </trkpt>
      <trkpt lat="42.6854840" lon="-0.5397940">
        <ele>1082.8</ele>
        <time>2023-01-14T12:51:05Z</time>
      </trkpt>
      <trkpt lat="42.6855150" lon="-0.5397950">
        <ele>1083.4</ele>
        <time>2023-01-14T12:51:06Z</time>
      </trkpt>
      <trkpt lat="42.6855440" lon="-0.5397960">
        <ele>1083.8</ele>
        <time>2023-01-14T12:51:07Z</time>
      </trkpt>
      <trkpt lat="42.6855730" lon="-0.5397990">
        <ele>1084.2</ele>
        <time>2023-01-14T12:51:08Z</time>
      </trkpt>
      <trkpt lat="42.6856030" lon="-0.5398040">
        <ele>1084.8</ele>
        <time>2023-01-14T12:51:09Z</time>
      </trkpt>
      <trkpt lat="42.6856310" lon="-0.5398100">
        <ele>1085.4</ele>
        <time>2023-01-14T12:51:10Z</time>
      </trkpt>
      <trkpt lat="42.6856600" lon="-0.5398190">
        <ele>1085.8</ele>
        <time>2023-01-14T12:51:11Z</time>
      </trkpt>
      <trkpt lat="42.6856870" lon="-0.5398310">
        <ele>1086.2</ele>
        <time>2023-01-14T12:51:12Z</time>
      </trkpt>
      <trkpt lat="42.6857140" lon="-0.5398420">
        <ele>1086.8</ele>
        <time>2023-01-14T12:51:13Z</time>
      </trkpt>
      <trkpt lat="42.6857390" lon="-0.5398500">
        <ele>1087.0</ele>
        <time>2023-01-14T12:51:14Z</time>
      </trkpt>
      <trkpt lat="42.6857640" lon="-0.5398600">
        <ele>1087.6</ele>
        <time>2023-01-14T12:51:15Z</time>
      </trkpt>
      <trkpt lat="42.6857910" lon="-0.5398730">
        <ele>1088.4</ele>
        <time>2023-01-14T12:51:16Z</time>
      </trkpt>
      <trkpt lat="42.6858180" lon="-0.5398860">
        <ele>1089.0</ele>
        <time>2023-01-14T12:51:17Z</time>
      </trkpt>
      <trkpt lat="42.6858460" lon="-0.5399000">
        <ele>1089.4</ele>
        <time>2023-01-14T12:51:18Z</time>
      </trkpt>
      <trkpt lat="42.6858740" lon="-0.5399120">
        <ele>1090.0</ele>
        <time>2023-01-14T12:51:19Z</time>
      </trkpt>
      <trkpt lat="42.6859030" lon="-0.5399230">
        <ele>1090.8</ele>
        <time>2023-01-14T12:51:20Z</time>
      </trkpt>
      <trkpt lat="42.6859330" lon="-0.5399320">
        <ele>1091.2</ele>
        <time>2023-01-14T12:51:21Z</time>
      </trkpt>
      <trkpt lat="42.6859630" lon="-0.5399430">
        <ele>1091.6</ele>
        <time>2023-01-14T12:51:22Z</time>
      </trkpt>
      <trkpt lat="42.6859930" lon="-0.5399540">
        <ele>1091.8</ele>
        <time>2023-01-14T12:51:23Z</time>
      </trkpt>
      <trkpt lat="42.6860230" lon="-0.5399640">
        <ele>1092.4</ele>
        <time>2023-01-14T12:51:24Z</time>
      </trkpt>
      <trkpt lat="42.6860540" lon="-0.5399740">
        <ele>1092.8</ele>
        <time>2023-01-14T12:51:25Z</time>
      </trkpt>
      <trkpt lat="42.6860840" lon="-0.5399840">
        <ele>1093.4</ele>
        <time>2023-01-14T12:51:26Z</time>
      </trkpt>
      <trkpt lat="42.6861140" lon="-0.5399940">
        <ele>1093.8</ele>
        <time>2023-01-14T12:51:27Z</time>
      </trkpt>
      <trkpt lat="42.6861460" lon="-0.5400050">
        <ele>1094.0</ele>
        <time>2023-01-14T12:51:28Z</time>
      </trkpt>
      <trkpt lat="42.6861760" lon="-0.5400160">
        <ele>1094.6</ele>
        <time>2023-01-14T12:51:29Z</time>
      </trkpt>
      <trkpt lat="42.6862050" lon="-0.5400260">
        <ele>1095.2</ele>
        <time>2023-01-14T12:51:30Z</time>
      </trkpt>
      <trkpt lat="42.6862350" lon="-0.5400350">
        <ele>1095.6</ele>
        <time>2023-01-14T12:51:31Z</time>
      </trkpt>
      <trkpt lat="42.6862640" lon="-0.5400440">
        <ele>1096.2</ele>
        <time>2023-01-14T12:51:32Z</time>
      </trkpt>
      <trkpt lat="42.6862950" lon="-0.5400510">
        <ele>1096.4</ele>
        <time>2023-01-14T12:51:33Z</time>
      </trkpt>
      <trkpt lat="42.6863260" lon="-0.5400530">
        <ele>1097.2</ele>
        <time>2023-01-14T12:51:34Z</time>
      </trkpt>
      <trkpt lat="42.6863560" lon="-0.5400550">
        <ele>1097.6</ele>
        <time>2023-01-14T12:51:35Z</time>
      </trkpt>
      <trkpt lat="42.6863840" lon="-0.5400570">
        <ele>1098.0</ele>
        <time>2023-01-14T12:51:36Z</time>
      </trkpt>
      <trkpt lat="42.6864160" lon="-0.5400580">
        <ele>1098.8</ele>
        <time>2023-01-14T12:51:37Z</time>
      </trkpt>
      <trkpt lat="42.6864470" lon="-0.5400560">
        <ele>1099.2</ele>
        <time>2023-01-14T12:51:38Z</time>
      </trkpt>
      <trkpt lat="42.6864790" lon="-0.5400520">
        <ele>1099.4</ele>
        <time>2023-01-14T12:51:39Z</time>
      </trkpt>
      <trkpt lat="42.6865120" lon="-0.5400490">
        <ele>1099.6</ele>
        <time>2023-01-14T12:51:40Z</time>
      </trkpt>
      <trkpt lat="42.6865470" lon="-0.5400470">
        <ele>1099.8</ele>
        <time>2023-01-14T12:51:41Z</time>
      </trkpt>
      <trkpt lat="42.6865830" lon="-0.5400480">
        <ele>1100.4</ele>
        <time>2023-01-14T12:51:42Z</time>
      </trkpt>
      <trkpt lat="42.6866190" lon="-0.5400450">
        <ele>1100.6</ele>
        <time>2023-01-14T12:51:43Z</time>
      </trkpt>
      <trkpt lat="42.6866550" lon="-0.5400420">
        <ele>1101.0</ele>
        <time>2023-01-14T12:51:44Z</time>
      </trkpt>
      <trkpt lat="42.6866920" lon="-0.5400400">
        <ele>1101.4</ele>
        <time>2023-01-14T12:51:45Z</time>
      </trkpt>
      <trkpt lat="42.6867290" lon="-0.5400360">
        <ele>1101.8</ele>
        <time>2023-01-14T12:51:46Z</time>
      </trkpt>
      <trkpt lat="42.6867650" lon="-0.5400310">
        <ele>1102.0</ele>
        <time>2023-01-14T12:51:47Z</time>
      </trkpt>
      <trkpt lat="42.6868020" lon="-0.5400290">
        <ele>1102.0</ele>
        <time>2023-01-14T12:51:48Z</time>
      </trkpt>
      <trkpt lat="42.6868380" lon="-0.5400290">
        <ele>1102.2</ele>
        <time>2023-01-14T12:51:49Z</time>
      </trkpt>
      <trkpt lat="42.6868760" lon="-0.5400310">
        <ele>1102.4</ele>
        <time>2023-01-14T12:51:50Z</time>
      </trkpt>
      <trkpt lat="42.6869130" lon="-0.5400310">
        <ele>1102.6</ele>
        <time>2023-01-14T12:51:51Z</time>
      </trkpt>
      <trkpt lat="42.6869520" lon="-0.5400290">
        <ele>1102.8</ele>
        <time>2023-01-14T12:51:52Z</time>
      </trkpt>
      <trkpt lat="42.6869900" lon="-0.5400250">
        <ele>1103.0</ele>
        <time>2023-01-14T12:51:53Z</time>
      </trkpt>
      <trkpt lat="42.6870300" lon="-0.5400230">
        <ele>1103.2</ele>
        <time>2023-01-14T12:51:54Z</time>
      </trkpt>
      <trkpt lat="42.6870680" lon="-0.5400180">
        <ele>1103.4</ele>
        <time>2023-01-14T12:51:55Z</time>
      </trkpt>
      <trkpt lat="42.6871050" lon="-0.5400140">
        <ele>1103.6</ele>
        <time>2023-01-14T12:51:56Z</time>
      </trkpt>
      <trkpt lat="42.6871420" lon="-0.5400120">
        <ele>1103.6</ele>
        <time>2023-01-14T12:51:57Z</time>
      </trkpt>
      <trkpt lat="42.6871770" lon="-0.5400140">
        <ele>1103.8</ele>
        <time>2023-01-14T12:51:58Z</time>
      </trkpt>
      <trkpt lat="42.6872130" lon="-0.5400170">
        <ele>1104.0</ele>
        <time>2023-01-14T12:51:59Z</time>
      </trkpt>
      <trkpt lat="42.6872490" lon="-0.5400200">
        <ele>1104.0</ele>
        <time>2023-01-14T12:52:00Z</time>
      </trkpt>
      <trkpt lat="42.6872830" lon="-0.5400240">
        <ele>1104.4</ele>
        <time>2023-01-14T12:52:01Z</time>
      </trkpt>
      <trkpt lat="42.6873160" lon="-0.5400300">
        <ele>1104.6</ele>
        <time>2023-01-14T12:52:02Z</time>
      </trkpt>
      <trkpt lat="42.6873490" lon="-0.5400380">
        <ele>1105.0</ele>
        <time>2023-01-14T12:52:03Z</time>
      </trkpt>
      <trkpt lat="42.6873830" lon="-0.5400460">
        <ele>1105.2</ele>
        <time>2023-01-14T12:52:04Z</time>
      </trkpt>
      <trkpt lat="42.6874150" lon="-0.5400520">
        <ele>1105.4</ele>
        <time>2023-01-14T12:52:05Z</time>
      </trkpt>
      <trkpt lat="42.6874450" lon="-0.5400580">
        <ele>1105.8</ele>
        <time>2023-01-14T12:52:06Z</time>
      </trkpt>
      <trkpt lat="42.6874740" lon="-0.5400640">
        <ele>1106.0</ele>
        <time>2023-01-14T12:52:07Z</time>
      </trkpt>
      <trkpt lat="42.6875030" lon="-0.5400700">
        <ele>1106.6</ele>
        <time>2023-01-14T12:52:08Z</time>
      </trkpt>
      <trkpt lat="42.6875310" lon="-0.5400750">
        <ele>1107.0</ele>
        <time>2023-01-14T12:52:09Z</time>
      </trkpt>
      <trkpt lat="42.6875620" lon="-0.5400770">
        <ele>1107.2</ele>
        <time>2023-01-14T12:52:10Z</time>
      </trkpt>
      <trkpt lat="42.6875900" lon="-0.5400720">
        <ele>1107.8</ele>
        <time>2023-01-14T12:52:11Z</time>
      </trkpt>
      <trkpt lat="42.6876210" lon="-0.5400690">
        <ele>1108.2</ele>
        <time>2023-01-14T12:52:12Z</time>
      </trkpt>
      <trkpt lat="42.6876500" lon="-0.5400620">
        <ele>1108.4</ele>
        <time>2023-01-14T12:52:13Z</time>
      </trkpt>
      <trkpt lat="42.6876760" lon="-0.5400450">
        <ele>1108.6</ele>
        <time>2023-01-14T12:52:14Z</time>
      </trkpt>
      <trkpt lat="42.6876970" lon="-0.5400220">
        <ele>1108.8</ele>
        <time>2023-01-14T12:52:15Z</time>
      </trkpt>
      <trkpt lat="42.6877220" lon="-0.5400010">
        <ele>1109.4</ele>
        <time>2023-01-14T12:52:16Z</time>
      </trkpt>
      <trkpt lat="42.6877460" lon="-0.5399790">
        <ele>1109.8</ele>
        <time>2023-01-14T12:52:17Z</time>
      </trkpt>
      <trkpt lat="42.6877700" lon="-0.5399500">
        <ele>1110.0</ele>
        <time>2023-01-14T12:52:18Z</time>
      </trkpt>
      <trkpt lat="42.6877940" lon="-0.5399200">
        <ele>1110.2</ele>
        <time>2023-01-14T12:52:19Z</time>
      </trkpt>
      <trkpt lat="42.6878200" lon="-0.5398940">
        <ele>1110.6</ele>
        <time>2023-01-14T12:52:20Z</time>
      </trkpt>
      <trkpt lat="42.6878490" lon="-0.5398700">
        <ele>1111.2</ele>
        <time>2023-01-14T12:52:21Z</time>
      </trkpt>
      <trkpt lat="42.6878800" lon="-0.5398450">
        <ele>1111.6</ele>
        <time>2023-01-14T12:52:22Z</time>
      </trkpt>
      <trkpt lat="42.6879010" lon="-0.5398120">
        <ele>1112.0</ele>
        <time>2023-01-14T12:52:23Z</time>
      </trkpt>
      <trkpt lat="42.6879320" lon="-0.5397910">
        <ele>1112.2</ele>
        <time>2023-01-14T12:52:24Z</time>
      </trkpt>
      <trkpt lat="42.6879640" lon="-0.5397680">
        <ele>1112.8</ele>
        <time>2023-01-14T12:52:25Z</time>
      </trkpt>
      <trkpt lat="42.6880040" lon="-0.5397540">
        <ele>1113.2</ele>
        <time>2023-01-14T12:52:26Z</time>
      </trkpt>
      <trkpt lat="42.6880420" lon="-0.5397400">
        <ele>1113.8</ele>
        <time>2023-01-14T12:52:27Z</time>
      </trkpt>
      <trkpt lat="42.6880780" lon="-0.5397250">
        <ele>1114.2</ele>
        <time>2023-01-14T12:52:28Z</time>
      </trkpt>
      <trkpt lat="42.6881140" lon="-0.5397100">
        <ele>1114.6</ele>
        <time>2023-01-14T12:52:29Z</time>
      </trkpt>
      <trkpt lat="42.6881510" lon="-0.5397020">
        <ele>1115.0</ele>
        <time>2023-01-14T12:52:30Z</time>
      </trkpt>
      <trkpt lat="42.6881860" lon="-0.5396920">
        <ele>1115.2</ele>
        <time>2023-01-14T12:52:31Z</time>
      </trkpt>
      <trkpt lat="42.6882150" lon="-0.5396790">
        <ele>1115.4</ele>
        <time>2023-01-14T12:52:32Z</time>
      </trkpt>
      <trkpt lat="42.6882480" lon="-0.5396640">
        <ele>1116.0</ele>
        <time>2023-01-14T12:52:33Z</time>
      </trkpt>
      <trkpt lat="42.6882840" lon="-0.5396450">
        <ele>1116.4</ele>
        <time>2023-01-14T12:52:34Z</time>
      </trkpt>
      <trkpt lat="42.6883200" lon="-0.5396260">
        <ele>1116.6</ele>
        <time>2023-01-14T12:52:35Z</time>
      </trkpt>
      <trkpt lat="42.6883570" lon="-0.5396140">
        <ele>1116.8</ele>
        <time>2023-01-14T12:52:36Z</time>
      </trkpt>
      <trkpt lat="42.6883900" lon="-0.5395920">
        <ele>1117.2</ele>
        <time>2023-01-14T12:52:37Z</time>
      </trkpt>
      <trkpt lat="42.6884260" lon="-0.5395740">
        <ele>1117.8</ele>
        <time>2023-01-14T12:52:38Z</time>
      </trkpt>
      <trkpt lat="42.6884620" lon="-0.5395590">
        <ele>1118.0</ele>
        <time>2023-01-14T12:52:39Z</time>
      </trkpt>
      <trkpt lat="42.6884990" lon="-0.5395430">
        <ele>1118.4</ele>
        <time>2023-01-14T12:52:40Z</time>
      </trkpt>
      <trkpt lat="42.6885330" lon="-0.5395240">
        <ele>1119.2</ele>
        <time>2023-01-14T12:52:41Z</time>
      </trkpt>
      <trkpt lat="42.6885650" lon="-0.5395000">
        <ele>1119.6</ele>
        <time>2023-01-14T12:52:42Z</time>
      </trkpt>
      <trkpt lat="42.6886020" lon="-0.5394790">
        <ele>1120.0</ele>
        <time>2023-01-14T12:52:43Z</time>
      </trkpt>
      <trkpt lat="42.6886350" lon="-0.5394530">
        <ele>1120.2</ele>
        <time>2023-01-14T12:52:44Z</time>
      </trkpt>
      <trkpt lat="42.6886670" lon="-0.5394260">
        <ele>1120.6</ele>
        <time>2023-01-14T12:52:45Z</time>
      </trkpt>
      <trkpt lat="42.6887010" lon="-0.5394010">
        <ele>1121.0</ele>
        <time>2023-01-14T12:52:46Z</time>
      </trkpt>
      <trkpt lat="42.6887340" lon="-0.5393750">
        <ele>1121.4</ele>
        <time>2023-01-14T12:52:47Z</time>
      </trkpt>
      <trkpt lat="42.6887650" lon="-0.5393490">
        <ele>1121.6</ele>
        <time>2023-01-14T12:52:48Z</time>
      </trkpt>
      <trkpt lat="42.6887930" lon="-0.5393180">
        <ele>1122.0</ele>
        <time>2023-01-14T12:52:49Z</time>
      </trkpt>
      <trkpt lat="42.6888210" lon="-0.5392860">
        <ele>1122.4</ele>
        <time>2023-01-14T12:52:50Z</time>
      </trkpt>
      <trkpt lat="42.6888490" lon="-0.5392560">
        <ele>1122.8</ele>
        <time>2023-01-14T12:52:51Z</time>
      </trkpt>
      <trkpt lat="42.6888760" lon="-0.5392210">
        <ele>1123.4</ele>
        <time>2023-01-14T12:52:52Z</time>
      </trkpt>
      <trkpt lat="42.6889010" lon="-0.5391840">
        <ele>1123.8</ele>
        <time>2023-01-14T12:52:53Z</time>
      </trkpt>
      <trkpt lat="42.6889230" lon="-0.5391440">
        <ele>1124.2</ele>
        <time>2023-01-14T12:52:54Z</time>
      </trkpt>
      <trkpt lat="42.6889440" lon="-0.5391030">
        <ele>1124.4</ele>
        <time>2023-01-14T12:52:55Z</time>
      </trkpt>
      <trkpt lat="42.6889610" lon="-0.5390570">
        <ele>1125.0</ele>
        <time>2023-01-14T12:52:56Z</time>
      </trkpt>
      <trkpt lat="42.6889810" lon="-0.5390160">
        <ele>1125.4</ele>
        <time>2023-01-14T12:52:57Z</time>
      </trkpt>
      <trkpt lat="42.6890000" lon="-0.5389750">
        <ele>1125.8</ele>
        <time>2023-01-14T12:52:58Z</time>
      </trkpt>
      <trkpt lat="42.6890180" lon="-0.5389310">
        <ele>1126.0</ele>
        <time>2023-01-14T12:52:59Z</time>
      </trkpt>
      <trkpt lat="42.6890350" lon="-0.5388870">
        <ele>1126.2</ele>
        <time>2023-01-14T12:53:00Z</time>
      </trkpt>
      <trkpt lat="42.6890540" lon="-0.5388480">
        <ele>1126.4</ele>
        <time>2023-01-14T12:53:01Z</time>
      </trkpt>
      <trkpt lat="42.6890750" lon="-0.5388110">
        <ele>1126.8</ele>
        <time>2023-01-14T12:53:02Z</time>
      </trkpt>
      <trkpt lat="42.6890950" lon="-0.5387750">
        <ele>1127.0</ele>
        <time>2023-01-14T12:53:03Z</time>
      </trkpt>
      <trkpt lat="42.6891130" lon="-0.5387390">
        <ele>1127.0</ele>
        <time>2023-01-14T12:53:04Z</time>
      </trkpt>
      <trkpt lat="42.6891320" lon="-0.5387020">
        <ele>1127.6</ele>
        <time>2023-01-14T12:53:05Z</time>
      </trkpt>
      <trkpt lat="42.6891540" lon="-0.5386670">
        <ele>1127.8</ele>
        <time>2023-01-14T12:53:06Z</time>
      </trkpt>
      <trkpt lat="42.6891780" lon="-0.5386320">
        <ele>1128.2</ele>
        <time>2023-01-14T12:53:07Z</time>
      </trkpt>
      <trkpt lat="42.6892050" lon="-0.5385980">
        <ele>1128.4</ele>
        <time>2023-01-14T12:53:08Z</time>
      </trkpt>
      <trkpt lat="42.6892320" lon="-0.5385670">
        <ele>1128.6</ele>
        <time>2023-01-14T12:53:09Z</time>
      </trkpt>
      <trkpt lat="42.6892600" lon="-0.5385360">
        <ele>1128.8</ele>
        <time>2023-01-14T12:53:10Z</time>
      </trkpt>
      <trkpt lat="42.6892900" lon="-0.5385080">
        <ele>1128.8</ele>
        <time>2023-01-14T12:53:11Z</time>
      </trkpt>
      <trkpt lat="42.6893200" lon="-0.5384780">
        <ele>1129.2</ele>
        <time>2023-01-14T12:53:12Z</time>
      </trkpt>
      <trkpt lat="42.6893530" lon="-0.5384520">
        <ele>1129.4</ele>
        <time>2023-01-14T12:53:13Z</time>
      </trkpt>
      <trkpt lat="42.6893850" lon="-0.5384280">
        <ele>1129.8</ele>
        <time>2023-01-14T12:53:14Z</time>
      </trkpt>
      <trkpt lat="42.6894180" lon="-0.5384040">
        <ele>1129.8</ele>
        <time>2023-01-14T12:53:15Z</time>
      </trkpt>
      <trkpt lat="42.6894510" lon="-0.5383810">
        <ele>1130.0</ele>
        <time>2023-01-14T12:53:16Z</time>
      </trkpt>
      <trkpt lat="42.6894820" lon="-0.5383560">
        <ele>1130.6</ele>
        <time>2023-01-14T12:53:17Z</time>
      </trkpt>
      <trkpt lat="42.6895110" lon="-0.5383300">
        <ele>1131.0</ele>
        <time>2023-01-14T12:53:18Z</time>
      </trkpt>
      <trkpt lat="42.6895410" lon="-0.5383040">
        <ele>1131.2</ele>
        <time>2023-01-14T12:53:19Z</time>
      </trkpt>
      <trkpt lat="42.6895710" lon="-0.5382760">
        <ele>1131.6</ele>
        <time>2023-01-14T12:53:20Z</time>
      </trkpt>
      <trkpt lat="42.6896020" lon="-0.5382460">
        <ele>1131.8</ele>
        <time>2023-01-14T12:53:21Z</time>
      </trkpt>
      <trkpt lat="42.6896340" lon="-0.5382180">
        <ele>1132.2</ele>
        <time>2023-01-14T12:53:22Z</time>
      </trkpt>
      <trkpt lat="42.6896660" lon="-0.5381910">
        <ele>1132.8</ele>
        <time>2023-01-14T12:53:23Z</time>
      </trkpt>
      <trkpt lat="42.6896940" lon="-0.5381610">
        <ele>1133.0</ele>
        <time>2023-01-14T12:53:24Z</time>
      </trkpt>
      <trkpt lat="42.6897230" lon="-0.5381300">
        <ele>1133.6</ele>
        <time>2023-01-14T12:53:25Z</time>
      </trkpt>
      <trkpt lat="42.6897540" lon="-0.5381030">
        <ele>1133.8</ele>
        <time>2023-01-14T12:53:26Z</time>
      </trkpt>
      <trkpt lat="42.6897850" lon="-0.5380770">
        <ele>1134.0</ele>
        <time>2023-01-14T12:53:27Z</time>
      </trkpt>
      <trkpt lat="42.6898160" lon="-0.5380520">
        <ele>1134.2</ele>
        <time>2023-01-14T12:53:28Z</time>
      </trkpt>
      <trkpt lat="42.6898460" lon="-0.5380270">
        <ele>1134.6</ele>
        <time>2023-01-14T12:53:29Z</time>
      </trkpt>
      <trkpt lat="42.6898750" lon="-0.5380020">
        <ele>1135.0</ele>
        <time>2023-01-14T12:53:30Z</time>
      </trkpt>
      <trkpt lat="42.6899050" lon="-0.5379780">
        <ele>1135.4</ele>
        <time>2023-01-14T12:53:31Z</time>
      </trkpt>
      <trkpt lat="42.6899340" lon="-0.5379530">
        <ele>1135.8</ele>
        <time>2023-01-14T12:53:32Z</time>
      </trkpt>
      <trkpt lat="42.6899610" lon="-0.5379260">
        <ele>1136.4</ele>
        <time>2023-01-14T12:53:33Z</time>
      </trkpt>
      <trkpt lat="42.6899900" lon="-0.5378980">
        <ele>1136.8</ele>
        <time>2023-01-14T12:53:34Z</time>
      </trkpt>
      <trkpt lat="42.6900190" lon="-0.5378660">
        <ele>1137.0</ele>
        <time>2023-01-14T12:53:35Z</time>
      </trkpt>
      <trkpt lat="42.6900460" lon="-0.5378320">
        <ele>1137.4</ele>
        <time>2023-01-14T12:53:36Z</time>
      </trkpt>
      <trkpt lat="42.6900680" lon="-0.5377910">
        <ele>1137.8</ele>
        <time>2023-01-14T12:53:37Z</time>
      </trkpt>
      <trkpt lat="42.6900870" lon="-0.5377480">
        <ele>1138.0</ele>
        <time>2023-01-14T12:53:38Z</time>
      </trkpt>
      <trkpt lat="42.6901050" lon="-0.5377040">
        <ele>1138.0</ele>
        <time>2023-01-14T12:53:39Z</time>
      </trkpt>
      <trkpt lat="42.6901210" lon="-0.5376610">
        <ele>1138.2</ele>
        <time>2023-01-14T12:53:40Z</time>
      </trkpt>
      <trkpt lat="42.6901350" lon="-0.5376170">
        <ele>1138.4</ele>
        <time>2023-01-14T12:53:41Z</time>
      </trkpt>
      <trkpt lat="42.6901490" lon="-0.5375730">
        <ele>1139.0</ele>
        <time>2023-01-14T12:53:42Z</time>
      </trkpt>
      <trkpt lat="42.6901620" lon="-0.5375280">
        <ele>1139.2</ele>
        <time>2023-01-14T12:53:43Z</time>
      </trkpt>
      <trkpt lat="42.6901750" lon="-0.5374850">
        <ele>1139.6</ele>
        <time>2023-01-14T12:53:44Z</time>
      </trkpt>
      <trkpt lat="42.6901920" lon="-0.5374470">
        <ele>1140.0</ele>
        <time>2023-01-14T12:53:45Z</time>
      </trkpt>
      <trkpt lat="42.6902110" lon="-0.5374140">
        <ele>1140.2</ele>
        <time>2023-01-14T12:53:46Z</time>
      </trkpt>
      <trkpt lat="42.6902340" lon="-0.5373890">
        <ele>1140.6</ele>
        <time>2023-01-14T12:53:47Z</time>
      </trkpt>
      <trkpt lat="42.6902590" lon="-0.5373680">
        <ele>1140.8</ele>
        <time>2023-01-14T12:53:48Z</time>
      </trkpt>
      <trkpt lat="42.6902850" lon="-0.5373520">
        <ele>1141.6</ele>
        <time>2023-01-14T12:53:49Z</time>
      </trkpt>
      <trkpt lat="42.6903130" lon="-0.5373390">
        <ele>1142.0</ele>
        <time>2023-01-14T12:53:50Z</time>
      </trkpt>
      <trkpt lat="42.6903420" lon="-0.5373300">
        <ele>1142.4</ele>
        <time>2023-01-14T12:53:51Z</time>
      </trkpt>
      <trkpt lat="42.6903730" lon="-0.5373260">
        <ele>1142.8</ele>
        <time>2023-01-14T12:53:52Z</time>
      </trkpt>
      <trkpt lat="42.6904040" lon="-0.5373250">
        <ele>1143.2</ele>
        <time>2023-01-14T12:53:53Z</time>
      </trkpt>
      <trkpt lat="42.6904370" lon="-0.5373260">
        <ele>1143.6</ele>
        <time>2023-01-14T12:53:54Z</time>
      </trkpt>
      <trkpt lat="42.6904680" lon="-0.5373260">
        <ele>1144.2</ele>
        <time>2023-01-14T12:53:55Z</time>
      </trkpt>
      <trkpt lat="42.6904990" lon="-0.5373220">
        <ele>1144.6</ele>
        <time>2023-01-14T12:53:56Z</time>
      </trkpt>
      <trkpt lat="42.6905310" lon="-0.5373200">
        <ele>1145.0</ele>
        <time>2023-01-14T12:53:57Z</time>
      </trkpt>
      <trkpt lat="42.6905630" lon="-0.5373180">
        <ele>1145.4</ele>
        <time>2023-01-14T12:53:58Z</time>
      </trkpt>
      <trkpt lat="42.6905970" lon="-0.5373160">
        <ele>1146.0</ele>
        <time>2023-01-14T12:53:59Z</time>
      </trkpt>
      <trkpt lat="42.6906290" lon="-0.5373110">
        <ele>1146.4</ele>
        <time>2023-01-14T12:54:00Z</time>
      </trkpt>
      <trkpt lat="42.6906600" lon="-0.5373040">
        <ele>1146.6</ele>
        <time>2023-01-14T12:54:01Z</time>
      </trkpt>
      <trkpt lat="42.6906920" lon="-0.5372980">
        <ele>1146.8</ele>
        <time>2023-01-14T12:54:02Z</time>
      </trkpt>
      <trkpt lat="42.6907250" lon="-0.5372950">
        <ele>1147.0</ele>
        <time>2023-01-14T12:54:03Z</time>
      </trkpt>
      <trkpt lat="42.6907590" lon="-0.5372900">
        <ele>1147.4</ele>
        <time>2023-01-14T12:54:04Z</time>
      </trkpt>
      <trkpt lat="42.6907890" lon="-0.5372880">
        <ele>1147.6</ele>
        <time>2023-01-14T12:54:05Z</time>
      </trkpt>
      <trkpt lat="42.6908190" lon="-0.5372910">
        <ele>1148.2</ele>
        <time>2023-01-14T12:54:06Z</time>
      </trkpt>
      <trkpt lat="42.6908510" lon="-0.5373010">
        <ele>1148.8</ele>
        <time>2023-01-14T12:54:07Z</time>
      </trkpt>
      <trkpt lat="42.6908840" lon="-0.5373180">
        <ele>1149.6</ele>
        <time>2023-01-14T12:54:08Z</time>
      </trkpt>
      <trkpt lat="42.6909100" lon="-0.5373440">
        <ele>1150.4</ele>
        <time>2023-01-14T12:54:09Z</time>
      </trkpt>
      <trkpt lat="42.6909350" lon="-0.5373750">
        <ele>1150.8</ele>
        <time>2023-01-14T12:54:10Z</time>
      </trkpt>
      <trkpt lat="42.6909620" lon="-0.5374030">
        <ele>1151.6</ele>
        <time>2023-01-14T12:54:11Z</time>
      </trkpt>
      <trkpt lat="42.6909900" lon="-0.5374230">
        <ele>1152.0</ele>
        <time>2023-01-14T12:54:12Z</time>
      </trkpt>
      <trkpt lat="42.6910180" lon="-0.5374420">
        <ele>1152.4</ele>
        <time>2023-01-14T12:54:13Z</time>
      </trkpt>
      <trkpt lat="42.6910460" lon="-0.5374600">
        <ele>1152.8</ele>
        <time>2023-01-14T12:54:14Z</time>
      </trkpt>
      <trkpt lat="42.6910740" lon="-0.5374730">
        <ele>1153.4</ele>
        <time>2023-01-14T12:54:15Z</time>
      </trkpt>
      <trkpt lat="42.6911000" lon="-0.5374820">
        <ele>1154.0</ele>
        <time>2023-01-14T12:54:16Z</time>
      </trkpt>
      <trkpt lat="42.6911250" lon="-0.5374880">
        <ele>1154.6</ele>
        <time>2023-01-14T12:54:17Z</time>
      </trkpt>
      <trkpt lat="42.6911540" lon="-0.5374960">
        <ele>1155.2</ele>
        <time>2023-01-14T12:54:18Z</time>
      </trkpt>
      <trkpt lat="42.6911830" lon="-0.5375000">
        <ele>1155.6</ele>
        <time>2023-01-14T12:54:19Z</time>
      </trkpt>
      <trkpt lat="42.6912120" lon="-0.5374970">
        <ele>1156.0</ele>
        <time>2023-01-14T12:54:20Z</time>
      </trkpt>
      <trkpt lat="42.6912420" lon="-0.5374920">
        <ele>1156.2</ele>
        <time>2023-01-14T12:54:21Z</time>
      </trkpt>
      <trkpt lat="42.6912730" lon="-0.5374840">
        <ele>1156.6</ele>
        <time>2023-01-14T12:54:22Z</time>
      </trkpt>
      <trkpt lat="42.6913040" lon="-0.5374710">
        <ele>1157.0</ele>
        <time>2023-01-14T12:54:23Z</time>
      </trkpt>
      <trkpt lat="42.6913360" lon="-0.5374550">
        <ele>1157.2</ele>
        <time>2023-01-14T12:54:24Z</time>
      </trkpt>
      <trkpt lat="42.6913670" lon="-0.5374340">
        <ele>1158.0</ele>
        <time>2023-01-14T12:54:25Z</time>
      </trkpt>
      <trkpt lat="42.6914000" lon="-0.5374140">
        <ele>1158.4</ele>
        <time>2023-01-14T12:54:26Z</time>
      </trkpt>
      <trkpt lat="42.6914290" lon="-0.5373890">
        <ele>1158.8</ele>
        <time>2023-01-14T12:54:27Z</time>
      </trkpt>
      <trkpt lat="42.6914560" lon="-0.5373650">
        <ele>1159.2</ele>
        <time>2023-01-14T12:54:28Z</time>
      </trkpt>
      <trkpt lat="42.6914810" lon="-0.5373380">
        <ele>1159.6</ele>
        <time>2023-01-14T12:54:29Z</time>
      </trkpt>
      <trkpt lat="42.6915050" lon="-0.5373120">
        <ele>1160.0</ele>
        <time>2023-01-14T12:54:30Z</time>
      </trkpt>
      <trkpt lat="42.6915230" lon="-0.5372740">
        <ele>1160.2</ele>
        <time>2023-01-14T12:54:31Z</time>
      </trkpt>
      <trkpt lat="42.6915440" lon="-0.5372360">
        <ele>1160.6</ele>
        <time>2023-01-14T12:54:32Z</time>
      </trkpt>
      <trkpt lat="42.6915690" lon="-0.5372010">
        <ele>1160.8</ele>
        <time>2023-01-14T12:54:33Z</time>
      </trkpt>
      <trkpt lat="42.6915950" lon="-0.5371660">
        <ele>1161.0</ele>
        <time>2023-01-14T12:54:34Z</time>
      </trkpt>
      <trkpt lat="42.6916230" lon="-0.5371350">
        <ele>1161.2</ele>
        <time>2023-01-14T12:54:35Z</time>
      </trkpt>
      <trkpt lat="42.6916510" lon="-0.5371040">
        <ele>1161.4</ele>
        <time>2023-01-14T12:54:36Z</time>
      </trkpt>
      <trkpt lat="42.6916740" lon="-0.5370660">
        <ele>1161.6</ele>
        <time>2023-01-14T12:54:37Z</time>
      </trkpt>
      <trkpt lat="42.6916970" lon="-0.5370300">
        <ele>1162.4</ele>
        <time>2023-01-14T12:54:38Z</time>
      </trkpt>
      <trkpt lat="42.6917180" lon="-0.5369940">
        <ele>1163.0</ele>
        <time>2023-01-14T12:54:39Z</time>
      </trkpt>
      <trkpt lat="42.6917420" lon="-0.5369610">
        <ele>1163.4</ele>
        <time>2023-01-14T12:54:40Z</time>
      </trkpt>
      <trkpt lat="42.6917670" lon="-0.5369300">
        <ele>1163.6</ele>
        <time>2023-01-14T12:54:41Z</time>
      </trkpt>
      <trkpt lat="42.6917930" lon="-0.5369020">
        <ele>1163.8</ele>
        <time>2023-01-14T12:54:42Z</time>
      </trkpt>
      <trkpt lat="42.6918150" lon="-0.5368710">
        <ele>1164.0</ele>
        <time>2023-01-14T12:54:43Z</time>
      </trkpt>
      <trkpt lat="42.6918390" lon="-0.5368400">
        <ele>1164.2</ele>
        <time>2023-01-14T12:54:44Z</time>
      </trkpt>
      <trkpt lat="42.6918630" lon="-0.5368110">
        <ele>1164.4</ele>
        <time>2023-01-14T12:54:45Z</time>
      </trkpt>
      <trkpt lat="42.6918870" lon="-0.5367860">
        <ele>1164.8</ele>
        <time>2023-01-14T12:54:46Z</time>
      </trkpt>
      <trkpt lat="42.6919130" lon="-0.5367640">
        <ele>1165.4</ele>
        <time>2023-01-14T12:54:47Z</time>
      </trkpt>
      <trkpt lat="42.6919420" lon="-0.5367510">
        <ele>1165.8</ele>
        <time>2023-01-14T12:54:48Z</time>
      </trkpt>
      <trkpt lat="42.6919740" lon="-0.5367440">
        <ele>1166.0</ele>
        <time>2023-01-14T12:54:49Z</time>
      </trkpt>
      <trkpt lat="42.6920050" lon="-0.5367380">
        <ele>1166.4</ele>
        <time>2023-01-14T12:54:50Z</time>
      </trkpt>
      <trkpt lat="42.6920360" lon="-0.5367400">
        <ele>1166.6</ele>
        <time>2023-01-14T12:54:51Z</time>
      </trkpt>
      <trkpt lat="42.6920640" lon="-0.5367600">
        <ele>1167.0</ele>
        <time>2023-01-14T12:54:52Z</time>
      </trkpt>
      <trkpt lat="42.6920820" lon="-0.5367940">
        <ele>1167.4</ele>
        <time>2023-01-14T12:54:53Z</time>
      </trkpt>
      <trkpt lat="42.6920860" lon="-0.5368280">
        <ele>1167.6</ele>
        <time>2023-01-14T12:54:54Z</time>
      </trkpt>
      <trkpt lat="42.6920800" lon="-0.5368620">
        <ele>1168.2</ele>
        <time>2023-01-14T12:54:55Z</time>
      </trkpt>
      <trkpt lat="42.6920650" lon="-0.5368940">
        <ele>1168.8</ele>
        <time>2023-01-14T12:54:56Z</time>
      </trkpt>
      <trkpt lat="42.6920470" lon="-0.5369270">
        <ele>1169.0</ele>
        <time>2023-01-14T12:54:57Z</time>
      </trkpt>
      <trkpt lat="42.6920250" lon="-0.5369600">
        <ele>1169.4</ele>
        <time>2023-01-14T12:54:58Z</time>
      </trkpt>
      <trkpt lat="42.6920030" lon="-0.5369930">
        <ele>1169.6</ele>
        <time>2023-01-14T12:54:59Z</time>
      </trkpt>
      <trkpt lat="42.6919820" lon="-0.5370250">
        <ele>1169.8</ele>
        <time>2023-01-14T12:55:00Z</time>
      </trkpt>
      <trkpt lat="42.6919630" lon="-0.5370570">
        <ele>1170.0</ele>
        <time>2023-01-14T12:55:01Z</time>
      </trkpt>
      <trkpt lat="42.6919470" lon="-0.5370870">
        <ele>1170.2</ele>
        <time>2023-01-14T12:55:02Z</time>
      </trkpt>
      <trkpt lat="42.6919300" lon="-0.5371130">
        <ele>1170.2</ele>
        <time>2023-01-14T12:55:03Z</time>
      </trkpt>
      <trkpt lat="42.6919140" lon="-0.5371350">
        <ele>1170.2</ele>
        <time>2023-01-14T12:55:04Z</time>
      </trkpt>
      <trkpt lat="42.6918980" lon="-0.5371580">
        <ele>1170.2</ele>
        <time>2023-01-14T12:55:05Z</time>
      </trkpt>
      <trkpt lat="42.6918800" lon="-0.5371840">
        <ele>1170.2</ele>
        <time>2023-01-14T12:55:06Z</time>
      </trkpt>
      <trkpt lat="42.6918620" lon="-0.5372160">
        <ele>1170.2</ele>
        <time>2023-01-14T12:55:07Z</time>
      </trkpt>
      <trkpt lat="42.6918450" lon="-0.5372480">
        <ele>1170.0</ele>
        <time>2023-01-14T12:55:08Z</time>
      </trkpt>
      <trkpt lat="42.6918260" lon="-0.5372800">
        <ele>1170.0</ele>
        <time>2023-01-14T12:55:09Z</time>
      </trkpt>
      <trkpt lat="42.6918060" lon="-0.5373110">
        <ele>1169.8</ele>
        <time>2023-01-14T12:55:10Z</time>
      </trkpt>
      <trkpt lat="42.6917850" lon="-0.5373410">
        <ele>1170.0</ele>
        <time>2023-01-14T12:55:11Z</time>
      </trkpt>
      <trkpt lat="42.6917660" lon="-0.5373720">
        <ele>1170.0</ele>
        <time>2023-01-14T12:55:12Z</time>
      </trkpt>
      <trkpt lat="42.6917470" lon="-0.5374050">
        <ele>1170.0</ele>
        <time>2023-01-14T12:55:13Z</time>
      </trkpt>
      <trkpt lat="42.6917280" lon="-0.5374380">
        <ele>1169.8</ele>
        <time>2023-01-14T12:55:14Z</time>
      </trkpt>
      <trkpt lat="42.6917080" lon="-0.5374730">
        <ele>1169.8</ele>
        <time>2023-01-14T12:55:15Z</time>
      </trkpt>
      <trkpt lat="42.6916870" lon="-0.5375060">
        <ele>1170.0</ele>
        <time>2023-01-14T12:55:16Z</time>
      </trkpt>
      <trkpt lat="42.6916650" lon="-0.5375340">
        <ele>1170.0</ele>
        <time>2023-01-14T12:55:17Z</time>
      </trkpt>
      <trkpt lat="42.6916460" lon="-0.5375590">
        <ele>1170.0</ele>
        <time>2023-01-14T12:55:18Z</time>
      </trkpt>
      <trkpt lat="42.6916290" lon="-0.5375830">
        <ele>1170.0</ele>
        <time>2023-01-14T12:55:19Z</time>
      </trkpt>
      <trkpt lat="42.6916140" lon="-0.5376080">
        <ele>1170.0</ele>
        <time>2023-01-14T12:55:20Z</time>
      </trkpt>
      <trkpt lat="42.6915940" lon="-0.5376330">
        <ele>1170.2</ele>
        <time>2023-01-14T12:55:21Z</time>
      </trkpt>
      <trkpt lat="42.6915740" lon="-0.5376580">
        <ele>1170.2</ele>
        <time>2023-01-14T12:55:22Z</time>
      </trkpt>
      <trkpt lat="42.6915540" lon="-0.5376800">
        <ele>1170.4</ele>
        <time>2023-01-14T12:55:23Z</time>
      </trkpt>
      <trkpt lat="42.6915340" lon="-0.5377030">
        <ele>1170.6</ele>
        <time>2023-01-14T12:55:24Z</time>
      </trkpt>
      <trkpt lat="42.6915150" lon="-0.5377270">
        <ele>1170.6</ele>
        <time>2023-01-14T12:55:25Z</time>
      </trkpt>
      <trkpt lat="42.6914960" lon="-0.5377500">
        <ele>1170.6</ele>
        <time>2023-01-14T12:55:26Z</time>
      </trkpt>
      <trkpt lat="42.6914770" lon="-0.5377730">
        <ele>1170.6</ele>
        <time>2023-01-14T12:55:27Z</time>
      </trkpt>
      <trkpt lat="42.6914560" lon="-0.5377950">
        <ele>1171.0</ele>
        <time>2023-01-14T12:55:28Z</time>
      </trkpt>
      <trkpt lat="42.6914390" lon="-0.5378180">
        <ele>1171.2</ele>
        <time>2023-01-14T12:55:29Z</time>
      </trkpt>
      <trkpt lat="42.6914270" lon="-0.5378350">
        <ele>1171.4</ele>
        <time>2023-01-14T12:55:30Z</time>
      </trkpt>
      <trkpt lat="42.6914140" lon="-0.5378540">
        <ele>1171.6</ele>
        <time>2023-01-14T12:55:31Z</time>
      </trkpt>
      <trkpt lat="42.6914010" lon="-0.5378780">
        <ele>1171.6</ele>
        <time>2023-01-14T12:55:32Z</time>
      </trkpt>
      <trkpt lat="42.6913860" lon="-0.5379030">
        <ele>1171.6</ele>
        <time>2023-01-14T12:55:33Z</time>
      </trkpt>
      <trkpt lat="42.6913670" lon="-0.5379260">
        <ele>1171.8</ele>
        <time>2023-01-14T12:55:34Z</time>
      </trkpt>
      <trkpt lat="42.6913440" lon="-0.5379480">
        <ele>1172.0</ele>
        <time>2023-01-14T12:55:35Z</time>
      </trkpt>
      <trkpt lat="42.6913250" lon="-0.5379720">
        <ele>1172.2</ele>
        <time>2023-01-14T12:55:36Z</time>
      </trkpt>
      <trkpt lat="42.6913040" lon="-0.5379960">
        <ele>1172.4</ele>
        <time>2023-01-14T12:55:37Z</time>
      </trkpt>
      <trkpt lat="42.6912820" lon="-0.5380190">
        <ele>1172.4</ele>
        <time>2023-01-14T12:55:38Z</time>
      </trkpt>
      <trkpt lat="42.6912600" lon="-0.5380430">
        <ele>1172.6</ele>
        <time>2023-01-14T12:55:39Z</time>
      </trkpt>
      <trkpt lat="42.6912410" lon="-0.5380640">
        <ele>1172.6</ele>
        <time>2023-01-14T12:55:40Z</time>
      </trkpt>
      <trkpt lat="42.6912230" lon="-0.5380810">
        <ele>1172.6</ele>
        <time>2023-01-14T12:55:41Z</time>
      </trkpt>
      <trkpt lat="42.6911990" lon="-0.5380940">
        <ele>1173.0</ele>
        <time>2023-01-14T12:55:42Z</time>
      </trkpt>
      <trkpt lat="42.6911730" lon="-0.5381060">
        <ele>1173.2</ele>
        <time>2023-01-14T12:55:43Z</time>
      </trkpt>
      <trkpt lat="42.6911500" lon="-0.5381210">
        <ele>1173.4</ele>
        <time>2023-01-14T12:55:44Z</time>
      </trkpt>
      <trkpt lat="42.6911270" lon="-0.5381390">
        <ele>1173.6</ele>
        <time>2023-01-14T12:55:45Z</time>
      </trkpt>
      <trkpt lat="42.6911030" lon="-0.5381590">
        <ele>1173.8</ele>
        <time>2023-01-14T12:55:46Z</time>
      </trkpt>
      <trkpt lat="42.6910750" lon="-0.5381740">
        <ele>1174.0</ele>
        <time>2023-01-14T12:55:47Z</time>
      </trkpt>
      <trkpt lat="42.6910480" lon="-0.5381900">
        <ele>1174.2</ele>
        <time>2023-01-14T12:55:48Z</time>
      </trkpt>
      <trkpt lat="42.6910230" lon="-0.5382090">
        <ele>1174.4</ele>
        <time>2023-01-14T12:55:49Z</time>
      </trkpt>
      <trkpt lat="42.6909970" lon="-0.5382290">
        <ele>1174.6</ele>
        <time>2023-01-14T12:55:50Z</time>
      </trkpt>
      <trkpt lat="42.6909680" lon="-0.5382440">
        <ele>1174.8</ele>
        <time>2023-01-14T12:55:51Z</time>
      </trkpt>
      <trkpt lat="42.6909400" lon="-0.5382590">
        <ele>1175.0</ele>
        <time>2023-01-14T12:55:52Z</time>
      </trkpt>
      <trkpt lat="42.6909150" lon="-0.5382740">
        <ele>1175.2</ele>
        <time>2023-01-14T12:55:53Z</time>
      </trkpt>
      <trkpt lat="42.6908920" lon="-0.5382910">
        <ele>1175.4</ele>
        <time>2023-01-14T12:55:54Z</time>
      </trkpt>
      <trkpt lat="42.6908680" lon="-0.5383020">
        <ele>1175.4</ele>
        <time>2023-01-14T12:55:55Z</time>
      </trkpt>
      <trkpt lat="42.6908430" lon="-0.5383150">
        <ele>1175.6</ele>
        <time>2023-01-14T12:55:56Z</time>
      </trkpt>
      <trkpt lat="42.6908190" lon="-0.5383290">
        <ele>1175.8</ele>
        <time>2023-01-14T12:55:57Z</time>
      </trkpt>
      <trkpt lat="42.6907970" lon="-0.5383450">
        <ele>1176.0</ele>
        <time>2023-01-14T12:55:58Z</time>
      </trkpt>
      <trkpt lat="42.6907750" lon="-0.5383630">
        <ele>1176.2</ele>
        <time>2023-01-14T12:55:59Z</time>
      </trkpt>
      <trkpt lat="42.6907560" lon="-0.5383820">
        <ele>1176.6</ele>
        <time>2023-01-14T12:56:00Z</time>
      </trkpt>
      <trkpt lat="42.6907370" lon="-0.5384000">
        <ele>1176.8</ele>
        <time>2023-01-14T12:56:01Z</time>
      </trkpt>
      <trkpt lat="42.6907190" lon="-0.5384200">
        <ele>1177.0</ele>
        <time>2023-01-14T12:56:02Z</time>
      </trkpt>
      <trkpt lat="42.6907000" lon="-0.5384420">
        <ele>1177.2</ele>
        <time>2023-01-14T12:56:03Z</time>
      </trkpt>
      <trkpt lat="42.6906810" lon="-0.5384640">
        <ele>1177.4</ele>
        <time>2023-01-14T12:56:04Z</time>
      </trkpt>
      <trkpt lat="42.6906640" lon="-0.5384850">
        <ele>1177.6</ele>
        <time>2023-01-14T12:56:05Z</time>
      </trkpt>
      <trkpt lat="42.6906460" lon="-0.5385070">
        <ele>1177.8</ele>
        <time>2023-01-14T12:56:06Z</time>
      </trkpt>
      <trkpt lat="42.6906310" lon="-0.5385320">
        <ele>1177.8</ele>
        <time>2023-01-14T12:56:07Z</time>
      </trkpt>
      <trkpt lat="42.6906170" lon="-0.5385600">
        <ele>1178.2</ele>
        <time>2023-01-14T12:56:08Z</time>
      </trkpt>
      <trkpt lat="42.6906040" lon="-0.5385880">
        <ele>1178.4</ele>
        <time>2023-01-14T12:56:09Z</time>
      </trkpt>
      <trkpt lat="42.6905940" lon="-0.5386190">
        <ele>1178.6</ele>
        <time>2023-01-14T12:56:10Z</time>
      </trkpt>
      <trkpt lat="42.6905890" lon="-0.5386520">
        <ele>1178.8</ele>
        <time>2023-01-14T12:56:11Z</time>
      </trkpt>
      <trkpt lat="42.6905910" lon="-0.5386850">
        <ele>1179.0</ele>
        <time>2023-01-14T12:56:12Z</time>
      </trkpt>
      <trkpt lat="42.6905980" lon="-0.5387160">
        <ele>1179.2</ele>
        <time>2023-01-14T12:56:13Z</time>
      </trkpt>
      <trkpt lat="42.6906110" lon="-0.5387440">
        <ele>1179.4</ele>
        <time>2023-01-14T12:56:14Z</time>
      </trkpt>
      <trkpt lat="42.6906280" lon="-0.5387650">
        <ele>1179.8</ele>
        <time>2023-01-14T12:56:15Z</time>
      </trkpt>
      <trkpt lat="42.6906490" lon="-0.5387830">
        <ele>1180.0</ele>
        <time>2023-01-14T12:56:16Z</time>
      </trkpt>
      <trkpt lat="42.6906710" lon="-0.5387960">
        <ele>1180.2</ele>
        <time>2023-01-14T12:56:17Z</time>
      </trkpt>
      <trkpt lat="42.6906940" lon="-0.5388010">
        <ele>1180.6</ele>
        <time>2023-01-14T12:56:18Z</time>
      </trkpt>
      <trkpt lat="42.6907130" lon="-0.5387960">
        <ele>1181.0</ele>
        <time>2023-01-14T12:56:19Z</time>
      </trkpt>
      <trkpt lat="42.6907330" lon="-0.5387860">
        <ele>1181.2</ele>
        <time>2023-01-14T12:56:20Z</time>
      </trkpt>
      <trkpt lat="42.6907500" lon="-0.5387780">
        <ele>1181.6</ele>
        <time>2023-01-14T12:56:21Z</time>
      </trkpt>
      <trkpt lat="42.6907670" lon="-0.5387720">
        <ele>1181.6</ele>
        <time>2023-01-14T12:56:22Z</time>
      </trkpt>
      <trkpt lat="42.6907820" lon="-0.5387620">
        <ele>1181.8</ele>
        <time>2023-01-14T12:56:23Z</time>
      </trkpt>
      <trkpt lat="42.6907960" lon="-0.5387490">
        <ele>1182.2</ele>
        <time>2023-01-14T12:56:24Z</time>
      </trkpt>
      <trkpt lat="42.6908110" lon="-0.5387340">
        <ele>1182.4</ele>
        <time>2023-01-14T12:56:25Z</time>
      </trkpt>
      <trkpt lat="42.6908250" lon="-0.5387200">
        <ele>1182.8</ele>
        <time>2023-01-14T12:56:26Z</time>
      </trkpt>
      <trkpt lat="42.6908410" lon="-0.5387120">
        <ele>1183.0</ele>
        <time>2023-01-14T12:56:27Z</time>
      </trkpt>
      <trkpt lat="42.6908570" lon="-0.5387040">
        <ele>1183.2</ele>
        <time>2023-01-14T12:56:28Z</time>
      </trkpt>
      <trkpt lat="42.6908720" lon="-0.5386940">
        <ele>1183.6</ele>
        <time>2023-01-14T12:56:29Z</time>
      </trkpt>
      <trkpt lat="42.6908850" lon="-0.5386830">
        <ele>1183.6</ele>
        <time>2023-01-14T12:56:30Z</time>
      </trkpt>
      <trkpt lat="42.6908990" lon="-0.5386730">
        <ele>1184.0</ele>
        <time>2023-01-14T12:56:31Z</time>
      </trkpt>
      <trkpt lat="42.6909110" lon="-0.5386640">
        <ele>1184.2</ele>
        <time>2023-01-14T12:56:32Z</time>
      </trkpt>
      <trkpt lat="42.6909270" lon="-0.5386580">
        <ele>1184.4</ele>
        <time>2023-01-14T12:56:33Z</time>
      </trkpt>
      <trkpt lat="42.6909430" lon="-0.5386490">
        <ele>1184.6</ele>
        <time>2023-01-14T12:56:34Z</time>
      </trkpt>
      <trkpt lat="42.6909590" lon="-0.5386400">
        <ele>1184.6</ele>
        <time>2023-01-14T12:56:35Z</time>
      </trkpt>
      <trkpt lat="42.6909770" lon="-0.5386340">
        <ele>1184.8</ele>
        <time>2023-01-14T12:56:36Z</time>
      </trkpt>
      <trkpt lat="42.6909950" lon="-0.5386300">
        <ele>1185.2</ele>
        <time>2023-01-14T12:56:37Z</time>
      </trkpt>
      <trkpt lat="42.6910120" lon="-0.5386250">
        <ele>1185.6</ele>
        <time>2023-01-14T12:56:38Z</time>
      </trkpt>
      <trkpt lat="42.6910270" lon="-0.5386170">
        <ele>1185.8</ele>
        <time>2023-01-14T12:56:39Z</time>
      </trkpt>
      <trkpt lat="42.6910410" lon="-0.5386070">
        <ele>1186.0</ele>
        <time>2023-01-14T12:56:40Z</time>
      </trkpt>
      <trkpt lat="42.6910570" lon="-0.5385960">
        <ele>1186.0</ele>
        <time>2023-01-14T12:56:41Z</time>
      </trkpt>
      <trkpt lat="42.6910740" lon="-0.5385870">
        <ele>1186.0</ele>
        <time>2023-01-14T12:56:42Z</time>
      </trkpt>
      <trkpt lat="42.6910920" lon="-0.5385800">
        <ele>1186.4</ele>
        <time>2023-01-14T12:56:43Z</time>
      </trkpt>
      <trkpt lat="42.6911060" lon="-0.5385730">
        <ele>1186.6</ele>
        <time>2023-01-14T12:56:44Z</time>
      </trkpt>
      <trkpt lat="42.6911220" lon="-0.5385700">
        <ele>1186.8</ele>
        <time>2023-01-14T12:56:45Z</time>
      </trkpt>
      <trkpt lat="42.6911370" lon="-0.5385670">
        <ele>1187.0</ele>
        <time>2023-01-14T12:56:46Z</time>
      </trkpt>
      <trkpt lat="42.6911580" lon="-0.5385670">
        <ele>1187.2</ele>
        <time>2023-01-14T12:56:47Z</time>
      </trkpt>
      <trkpt lat="42.6911760" lon="-0.5385630">
        <ele>1187.4</ele>
        <time>2023-01-14T12:56:48Z</time>
      </trkpt>
      <trkpt lat="42.6911960" lon="-0.5385540">
        <ele>1187.4</ele>
        <time>2023-01-14T12:56:49Z</time>
      </trkpt>
      <trkpt lat="42.6912160" lon="-0.5385460">
        <ele>1187.4</ele>
        <time>2023-01-14T12:56:50Z</time>
      </trkpt>
      <trkpt lat="42.6912380" lon="-0.5385380">
        <ele>1187.8</ele>
        <time>2023-01-14T12:56:51Z</time>
      </trkpt>
      <trkpt lat="42.6912600" lon="-0.5385300">
        <ele>1188.0</ele>
        <time>2023-01-14T12:56:52Z</time>
      </trkpt>
      <trkpt lat="42.6912820" lon="-0.5385220">
        <ele>1188.0</ele>
        <time>2023-01-14T12:56:53Z</time>
      </trkpt>
      <trkpt lat="42.6913040" lon="-0.5385130">
        <ele>1188.2</ele>
        <time>2023-01-14T12:56:54Z</time>
      </trkpt>
      <trkpt lat="42.6913240" lon="-0.5385030">
        <ele>1188.4</ele>
        <time>2023-01-14T12:56:55Z</time>
      </trkpt>
      <trkpt lat="42.6913400" lon="-0.5384890">
        <ele>1188.6</ele>
        <time>2023-01-14T12:56:56Z</time>
      </trkpt>
      <trkpt lat="42.6913560" lon="-0.5384740">
        <ele>1188.8</ele>
        <time>2023-01-14T12:56:57Z</time>
      </trkpt>
      <trkpt lat="42.6913720" lon="-0.5384590">
        <ele>1189.0</ele>
        <time>2023-01-14T12:56:58Z</time>
      </trkpt>
      <trkpt lat="42.6913880" lon="-0.5384410">
        <ele>1189.4</ele>
        <time>2023-01-14T12:56:59Z</time>
      </trkpt>
      <trkpt lat="42.6914050" lon="-0.5384210">
        <ele>1189.6</ele>
        <time>2023-01-14T12:57:00Z</time>
      </trkpt>
      <trkpt lat="42.6914240" lon="-0.5384040">
        <ele>1189.8</ele>
        <time>2023-01-14T12:57:01Z</time>
      </trkpt>
      <trkpt lat="42.6914400" lon="-0.5383840">
        <ele>1190.0</ele>
        <time>2023-01-14T12:57:02Z</time>
      </trkpt>
      <trkpt lat="42.6914550" lon="-0.5383640">
        <ele>1190.0</ele>
        <time>2023-01-14T12:57:03Z</time>
      </trkpt>
      <trkpt lat="42.6914710" lon="-0.5383470">
        <ele>1190.2</ele>
        <time>2023-01-14T12:57:04Z</time>
      </trkpt>
      <trkpt lat="42.6914860" lon="-0.5383280">
        <ele>1190.2</ele>
        <time>2023-01-14T12:57:05Z</time>
      </trkpt>
      <trkpt lat="42.6915010" lon="-0.5383100">
        <ele>1190.4</ele>
        <time>2023-01-14T12:57:06Z</time>
      </trkpt>
      <trkpt lat="42.6915160" lon="-0.5382920">
        <ele>1190.6</ele>
        <time>2023-01-14T12:57:07Z</time>
      </trkpt>
      <trkpt lat="42.6915300" lon="-0.5382710">
        <ele>1190.8</ele>
        <time>2023-01-14T12:57:08Z</time>
      </trkpt>
      <trkpt lat="42.6915450" lon="-0.5382520">
        <ele>1191.0</ele>
        <time>2023-01-14T12:57:09Z</time>
      </trkpt>
      <trkpt lat="42.6915620" lon="-0.5382360">
        <ele>1191.2</ele>
        <time>2023-01-14T12:57:10Z</time>
      </trkpt>
      <trkpt lat="42.6915780" lon="-0.5382190">
        <ele>1191.2</ele>
        <time>2023-01-14T12:57:11Z</time>
      </trkpt>
      <trkpt lat="42.6915940" lon="-0.5382010">
        <ele>1191.4</ele>
        <time>2023-01-14T12:57:12Z</time>
      </trkpt>
      <trkpt lat="42.6916110" lon="-0.5381850">
        <ele>1191.8</ele>
        <time>2023-01-14T12:57:13Z</time>
      </trkpt>
      <trkpt lat="42.6916280" lon="-0.5381690">
        <ele>1192.0</ele>
        <time>2023-01-14T12:57:14Z</time>
      </trkpt>
      <trkpt lat="42.6916450" lon="-0.5381550">
        <ele>1192.2</ele>
        <time>2023-01-14T12:57:15Z</time>
      </trkpt>
      <trkpt lat="42.6916640" lon="-0.5381410">
        <ele>1192.2</ele>
        <time>2023-01-14T12:57:16Z</time>
      </trkpt>
      <trkpt lat="42.6916820" lon="-0.5381260">
        <ele>1192.4</ele>
        <time>2023-01-14T12:57:17Z</time>
      </trkpt>
      <trkpt lat="42.6916980" lon="-0.5381110">
        <ele>1192.4</ele>
        <time>2023-01-14T12:57:18Z</time>
      </trkpt>
      <trkpt lat="42.6917150" lon="-0.5380960">
        <ele>1192.6</ele>
        <time>2023-01-14T12:57:19Z</time>
      </trkpt>
      <trkpt lat="42.6917320" lon="-0.5380810">
        <ele>1192.8</ele>
        <time>2023-01-14T12:57:20Z</time>
      </trkpt>
      <trkpt lat="42.6917490" lon="-0.5380720">
        <ele>1192.8</ele>
        <time>2023-01-14T12:57:21Z</time>
      </trkpt>
      <trkpt lat="42.6917630" lon="-0.5380660">
        <ele>1193.0</ele>
        <time>2023-01-14T12:57:22Z</time>
      </trkpt>
      <trkpt lat="42.6917760" lon="-0.5380600">
        <ele>1193.2</ele>
        <time>2023-01-14T12:57:23Z</time>
      </trkpt>
      <trkpt lat="42.6917920" lon="-0.5380540">
        <ele>1193.2</ele>
        <time>2023-01-14T12:57:24Z</time>
      </trkpt>
      <trkpt lat="42.6918080" lon="-0.5380470">
        <ele>1193.4</ele>
        <time>2023-01-14T12:57:25Z</time>
      </trkpt>
      <trkpt lat="42.6918240" lon="-0.5380450">
        <ele>1193.6</ele>
        <time>2023-01-14T12:57:26Z</time>
      </trkpt>
      <trkpt lat="42.6918390" lon="-0.5380430">
        <ele>1193.8</ele>
        <time>2023-01-14T12:57:27Z</time>
      </trkpt>
      <trkpt lat="42.6918520" lon="-0.5380370">
        <ele>1194.0</ele>
        <time>2023-01-14T12:57:28Z</time>
      </trkpt>
      <trkpt lat="42.6918660" lon="-0.5380290">
        <ele>1194.0</ele>
        <time>2023-01-14T12:57:29Z</time>
      </trkpt>
      <trkpt lat="42.6918800" lon="-0.5380220">
        <ele>1194.0</ele>
        <time>2023-01-14T12:57:30Z</time>
      </trkpt>
      <trkpt lat="42.6918960" lon="-0.5380160">
        <ele>1194.0</ele>
        <time>2023-01-14T12:57:31Z</time>
      </trkpt>
      <trkpt lat="42.6919140" lon="-0.5380090">
        <ele>1194.0</ele>
        <time>2023-01-14T12:57:32Z</time>
      </trkpt>
      <trkpt lat="42.6919340" lon="-0.5380030">
        <ele>1194.2</ele>
        <time>2023-01-14T12:57:33Z</time>
      </trkpt>
      <trkpt lat="42.6919540" lon="-0.5379960">
        <ele>1194.4</ele>
        <time>2023-01-14T12:57:34Z</time>
      </trkpt>
      <trkpt lat="42.6919730" lon="-0.5379880">
        <ele>1194.4</ele>
        <time>2023-01-14T12:57:35Z</time>
      </trkpt>
      <trkpt lat="42.6919920" lon="-0.5379790">
        <ele>1194.4</ele>
        <time>2023-01-14T12:57:36Z</time>
      </trkpt>
      <trkpt lat="42.6920110" lon="-0.5379700">
        <ele>1194.4</ele>
        <time>2023-01-14T12:57:37Z</time>
      </trkpt>
      <trkpt lat="42.6920310" lon="-0.5379600">
        <ele>1194.6</ele>
        <time>2023-01-14T12:57:38Z</time>
      </trkpt>
      <trkpt lat="42.6920500" lon="-0.5379470">
        <ele>1194.6</ele>
        <time>2023-01-14T12:57:39Z</time>
      </trkpt>
      <trkpt lat="42.6920690" lon="-0.5379320">
        <ele>1194.8</ele>
        <time>2023-01-14T12:57:40Z</time>
      </trkpt>
      <trkpt lat="42.6920870" lon="-0.5379190">
        <ele>1194.8</ele>
        <time>2023-01-14T12:57:41Z</time>
      </trkpt>
      <trkpt lat="42.6921020" lon="-0.5379050">
        <ele>1194.8</ele>
        <time>2023-01-14T12:57:42Z</time>
      </trkpt>
      <trkpt lat="42.6921190" lon="-0.5378910">
        <ele>1194.8</ele>
        <time>2023-01-14T12:57:43Z</time>
      </trkpt>
      <trkpt lat="42.6921340" lon="-0.5378720">
        <ele>1194.8</ele>
        <time>2023-01-14T12:57:44Z</time>
      </trkpt>
      <trkpt lat="42.6921490" lon="-0.5378500">
        <ele>1194.8</ele>
        <time>2023-01-14T12:57:45Z</time>
      </trkpt>
      <trkpt lat="42.6921640" lon="-0.5378230">
        <ele>1194.8</ele>
        <time>2023-01-14T12:57:46Z</time>
      </trkpt>
      <trkpt lat="42.6921800" lon="-0.5378000">
        <ele>1194.8</ele>
        <time>2023-01-14T12:57:47Z</time>
      </trkpt>
      <trkpt lat="42.6921980" lon="-0.5377820">
        <ele>1195.0</ele>
        <time>2023-01-14T12:57:48Z</time>
      </trkpt>
      <trkpt lat="42.6922150" lon="-0.5377600">
        <ele>1195.0</ele>
        <time>2023-01-14T12:57:49Z</time>
      </trkpt>
      <trkpt lat="42.6922300" lon="-0.5377380">
        <ele>1195.2</ele>
        <time>2023-01-14T12:57:50Z</time>
      </trkpt>
      <trkpt lat="42.6922490" lon="-0.5377200">
        <ele>1195.6</ele>
        <time>2023-01-14T12:57:51Z</time>
      </trkpt>
      <trkpt lat="42.6922670" lon="-0.5376990">
        <ele>1195.8</ele>
        <time>2023-01-14T12:57:52Z</time>
      </trkpt>
      <trkpt lat="42.6922850" lon="-0.5376800">
        <ele>1196.0</ele>
        <time>2023-01-14T12:57:53Z</time>
      </trkpt>
      <trkpt lat="42.6923020" lon="-0.5376610">
        <ele>1196.2</ele>
        <time>2023-01-14T12:57:54Z</time>
      </trkpt>
      <trkpt lat="42.6923200" lon="-0.5376410">
        <ele>1196.2</ele>
        <time>2023-01-14T12:57:55Z</time>
      </trkpt>
      <trkpt lat="42.6923380" lon="-0.5376220">
        <ele>1196.4</ele>
        <time>2023-01-14T12:57:56Z</time>
      </trkpt>
      <trkpt lat="42.6923590" lon="-0.5376070">
        <ele>1196.4</ele>
        <time>2023-01-14T12:57:57Z</time>
      </trkpt>
      <trkpt lat="42.6923780" lon="-0.5375940">
        <ele>1196.6</ele>
        <time>2023-01-14T12:57:58Z</time>
      </trkpt>
      <trkpt lat="42.6923960" lon="-0.5375760">
        <ele>1196.6</ele>
        <time>2023-01-14T12:57:59Z</time>
      </trkpt>
      <trkpt lat="42.6924140" lon="-0.5375590">
        <ele>1196.6</ele>
        <time>2023-01-14T12:58:00Z</time>
      </trkpt>
      <trkpt lat="42.6924330" lon="-0.5375420">
        <ele>1196.8</ele>
        <time>2023-01-14T12:58:01Z</time>
      </trkpt>
      <trkpt lat="42.6924520" lon="-0.5375270">
        <ele>1196.8</ele>
        <time>2023-01-14T12:58:02Z</time>
      </trkpt>
      <trkpt lat="42.6924720" lon="-0.5375100">
        <ele>1196.8</ele>
        <time>2023-01-14T12:58:03Z</time>
      </trkpt>
      <trkpt lat="42.6924910" lon="-0.5374930">
        <ele>1197.0</ele>
        <time>2023-01-14T12:58:04Z</time>
      </trkpt>
      <trkpt lat="42.6925120" lon="-0.5374800">
        <ele>1197.2</ele>
        <time>2023-01-14T12:58:05Z</time>
      </trkpt>
      <trkpt lat="42.6925320" lon="-0.5374660">
        <ele>1197.4</ele>
        <time>2023-01-14T12:58:06Z</time>
      </trkpt>
      <trkpt lat="42.6925460" lon="-0.5374530">
        <ele>1197.4</ele>
        <time>2023-01-14T12:58:07Z</time>
      </trkpt>
      <trkpt lat="42.6925620" lon="-0.5374460">
        <ele>1197.6</ele>
        <time>2023-01-14T12:58:08Z</time>
      </trkpt>
      <trkpt lat="42.6925810" lon="-0.5374400">
        <ele>1197.6</ele>
        <time>2023-01-14T12:58:09Z</time>
      </trkpt>
      <trkpt lat="42.6925990" lon="-0.5374290">
        <ele>1197.6</ele>
        <time>2023-01-14T12:58:10Z</time>
      </trkpt>
      <trkpt lat="42.6926180" lon="-0.5374170">
        <ele>1197.6</ele>
        <time>2023-01-14T12:58:11Z</time>
      </trkpt>
      <trkpt lat="42.6926350" lon="-0.5374090">
        <ele>1197.6</ele>
        <time>2023-01-14T12:58:12Z</time>
      </trkpt>
      <trkpt lat="42.6926480" lon="-0.5374030">
        <ele>1197.8</ele>
        <time>2023-01-14T12:58:13Z</time>
      </trkpt>
      <trkpt lat="42.6926650" lon="-0.5373980">
        <ele>1198.0</ele>
        <time>2023-01-14T12:58:14Z</time>
      </trkpt>
      <trkpt lat="42.6926820" lon="-0.5373850">
        <ele>1198.2</ele>
        <time>2023-01-14T12:58:15Z</time>
      </trkpt>
      <trkpt lat="42.6927010" lon="-0.5373700">
        <ele>1198.4</ele>
        <time>2023-01-14T12:58:16Z</time>
      </trkpt>
      <trkpt lat="42.6927200" lon="-0.5373580">
        <ele>1198.6</ele>
        <time>2023-01-14T12:58:17Z</time>
      </trkpt>
      <trkpt lat="42.6927390" lon="-0.5373450">
        <ele>1198.8</ele>
        <time>2023-01-14T12:58:18Z</time>
      </trkpt>
      <trkpt lat="42.6927570" lon="-0.5373280">
        <ele>1199.0</ele>
        <time>2023-01-14T12:58:19Z</time>
      </trkpt>
      <trkpt lat="42.6927760" lon="-0.5373150">
        <ele>1199.2</ele>
        <time>2023-01-14T12:58:20Z</time>
      </trkpt>
      <trkpt lat="42.6927960" lon="-0.5373060">
        <ele>1199.4</ele>
        <time>2023-01-14T12:58:21Z</time>
      </trkpt>
      <trkpt lat="42.6928160" lon="-0.5372980">
        <ele>1199.6</ele>
        <time>2023-01-14T12:58:22Z</time>
      </trkpt>
      <trkpt lat="42.6928370" lon="-0.5372940">
        <ele>1199.8</ele>
        <time>2023-01-14T12:58:23Z</time>
      </trkpt>
      <trkpt lat="42.6928560" lon="-0.5372850">
        <ele>1200.2</ele>
        <time>2023-01-14T12:58:24Z</time>
      </trkpt>
      <trkpt lat="42.6928760" lon="-0.5372680">
        <ele>1200.6</ele>
        <time>2023-01-14T12:58:25Z</time>
      </trkpt>
      <trkpt lat="42.6928970" lon="-0.5372560">
        <ele>1200.8</ele>
        <time>2023-01-14T12:58:26Z</time>
      </trkpt>
      <trkpt lat="42.6929170" lon="-0.5372420">
        <ele>1200.8</ele>
        <time>2023-01-14T12:58:27Z</time>
      </trkpt>
      <trkpt lat="42.6929370" lon="-0.5372290">
        <ele>1201.0</ele>
        <time>2023-01-14T12:58:28Z</time>
      </trkpt>
      <trkpt lat="42.6929560" lon="-0.5372140">
        <ele>1201.2</ele>
        <time>2023-01-14T12:58:29Z</time>
      </trkpt>
      <trkpt lat="42.6929750" lon="-0.5371980">
        <ele>1201.4</ele>
        <time>2023-01-14T12:58:30Z</time>
      </trkpt>
      <trkpt lat="42.6929920" lon="-0.5371800">
        <ele>1201.6</ele>
        <time>2023-01-14T12:58:31Z</time>
      </trkpt>
      <trkpt lat="42.6930090" lon="-0.5371630">
        <ele>1201.8</ele>
        <time>2023-01-14T12:58:32Z</time>
      </trkpt>
      <trkpt lat="42.6930310" lon="-0.5371480">
        <ele>1201.8</ele>
        <time>2023-01-14T12:58:33Z</time>
      </trkpt>
      <trkpt lat="42.6930500" lon="-0.5371300">
        <ele>1201.8</ele>
        <time>2023-01-14T12:58:34Z</time>
      </trkpt>
      <trkpt lat="42.6930720" lon="-0.5371130">
        <ele>1202.0</ele>
        <time>2023-01-14T12:58:35Z</time>
      </trkpt>
      <trkpt lat="42.6930930" lon="-0.5371010">
        <ele>1202.0</ele>
        <time>2023-01-14T12:58:36Z</time>
      </trkpt>
      <trkpt lat="42.6931170" lon="-0.5370950">
        <ele>1202.2</ele>
        <time>2023-01-14T12:58:37Z</time>
      </trkpt>
      <trkpt lat="42.6931390" lon="-0.5370890">
        <ele>1202.4</ele>
        <time>2023-01-14T12:58:38Z</time>
      </trkpt>
      <trkpt lat="42.6931610" lon="-0.5370840">
        <ele>1202.6</ele>
        <time>2023-01-14T12:58:39Z</time>
      </trkpt>
      <trkpt lat="42.6931820" lon="-0.5370760">
        <ele>1202.6</ele>
        <time>2023-01-14T12:58:40Z</time>
      </trkpt>
      <trkpt lat="42.6932030" lon="-0.5370710">
        <ele>1202.6</ele>
        <time>2023-01-14T12:58:41Z</time>
      </trkpt>
      <trkpt lat="42.6932250" lon="-0.5370650">
        <ele>1202.6</ele>
        <time>2023-01-14T12:58:42Z</time>
      </trkpt>
      <trkpt lat="42.6932470" lon="-0.5370600">
        <ele>1202.8</ele>
        <time>2023-01-14T12:58:43Z</time>
      </trkpt>
      <trkpt lat="42.6932700" lon="-0.5370540">
        <ele>1203.2</ele>
        <time>2023-01-14T12:58:44Z</time>
      </trkpt>
      <trkpt lat="42.6932930" lon="-0.5370460">
        <ele>1203.4</ele>
        <time>2023-01-14T12:58:45Z</time>
      </trkpt>
      <trkpt lat="42.6933130" lon="-0.5370360">
        <ele>1203.4</ele>
        <time>2023-01-14T12:58:46Z</time>
      </trkpt>
      <trkpt lat="42.6933300" lon="-0.5370290">
        <ele>1203.6</ele>
        <time>2023-01-14T12:58:47Z</time>
      </trkpt>
      <trkpt lat="42.6933440" lon="-0.5370190">
        <ele>1203.8</ele>
        <time>2023-01-14T12:58:48Z</time>
      </trkpt>
      <trkpt lat="42.6933560" lon="-0.5370060">
        <ele>1203.8</ele>
        <time>2023-01-14T12:58:49Z</time>
      </trkpt>
      <trkpt lat="42.6933690" lon="-0.5369920">
        <ele>1203.8</ele>
        <time>2023-01-14T12:58:50Z</time>
      </trkpt>
      <trkpt lat="42.6933860" lon="-0.5369790">
        <ele>1203.8</ele>
        <time>2023-01-14T12:58:51Z</time>
      </trkpt>
      <trkpt lat="42.6934060" lon="-0.5369660">
        <ele>1204.0</ele>
        <time>2023-01-14T12:58:52Z</time>
      </trkpt>
      <trkpt lat="42.6934240" lon="-0.5369470">
        <ele>1204.0</ele>
        <time>2023-01-14T12:58:53Z</time>
      </trkpt>
      <trkpt lat="42.6934420" lon="-0.5369310">
        <ele>1204.2</ele>
        <time>2023-01-14T12:58:54Z</time>
      </trkpt>
      <trkpt lat="42.6934590" lon="-0.5369180">
        <ele>1204.2</ele>
        <time>2023-01-14T12:58:55Z</time>
      </trkpt>
      <trkpt lat="42.6934760" lon="-0.5369040">
        <ele>1204.4</ele>
        <time>2023-01-14T12:58:56Z</time>
      </trkpt>
      <trkpt lat="42.6934920" lon="-0.5368880">
        <ele>1204.6</ele>
        <time>2023-01-14T12:58:57Z</time>
      </trkpt>
      <trkpt lat="42.6935100" lon="-0.5368700">
        <ele>1204.6</ele>
        <time>2023-01-14T12:58:58Z</time>
      </trkpt>
      <trkpt lat="42.6935280" lon="-0.5368450">
        <ele>1204.6</ele>
        <time>2023-01-14T12:58:59Z</time>
      </trkpt>
      <trkpt lat="42.6935460" lon="-0.5368240">
        <ele>1204.8</ele>
        <time>2023-01-14T12:59:00Z</time>
      </trkpt>
      <trkpt lat="42.6935660" lon="-0.5368030">
        <ele>1205.0</ele>
        <time>2023-01-14T12:59:01Z</time>
      </trkpt>
      <trkpt lat="42.6935850" lon="-0.5367820">
        <ele>1205.2</ele>
        <time>2023-01-14T12:59:02Z</time>
      </trkpt>
      <trkpt lat="42.6936070" lon="-0.5367630">
        <ele>1205.6</ele>
        <time>2023-01-14T12:59:03Z</time>
      </trkpt>
      <trkpt lat="42.6936340" lon="-0.5367530">
        <ele>1205.8</ele>
        <time>2023-01-14T12:59:04Z</time>
      </trkpt>
      <trkpt lat="42.6936580" lon="-0.5367400">
        <ele>1205.8</ele>
        <time>2023-01-14T12:59:05Z</time>
      </trkpt>
      <trkpt lat="42.6936750" lon="-0.5367180">
        <ele>1206.2</ele>
        <time>2023-01-14T12:59:06Z</time>
      </trkpt>
      <trkpt lat="42.6936920" lon="-0.5367010">
        <ele>1206.4</ele>
        <time>2023-01-14T12:59:07Z</time>
      </trkpt>
      <trkpt lat="42.6937110" lon="-0.5366850">
        <ele>1206.6</ele>
        <time>2023-01-14T12:59:08Z</time>
      </trkpt>
      <trkpt lat="42.6937290" lon="-0.5366680">
        <ele>1206.8</ele>
        <time>2023-01-14T12:59:09Z</time>
      </trkpt>
      <trkpt lat="42.6937470" lon="-0.5366430">
        <ele>1206.8</ele>
        <time>2023-01-14T12:59:10Z</time>
      </trkpt>
      <trkpt lat="42.6937680" lon="-0.5366200">
        <ele>1206.8</ele>
        <time>2023-01-14T12:59:11Z</time>
      </trkpt>
      <trkpt lat="42.6937880" lon="-0.5365970">
        <ele>1207.0</ele>
        <time>2023-01-14T12:59:12Z</time>
      </trkpt>
      <trkpt lat="42.6938060" lon="-0.5365780">
        <ele>1207.4</ele>
        <time>2023-01-14T12:59:13Z</time>
      </trkpt>
      <trkpt lat="42.6938240" lon="-0.5365610">
        <ele>1207.6</ele>
        <time>2023-01-14T12:59:14Z</time>
      </trkpt>
      <trkpt lat="42.6938420" lon="-0.5365390">
        <ele>1207.8</ele>
        <time>2023-01-14T12:59:15Z</time>
      </trkpt>
      <trkpt lat="42.6938610" lon="-0.5365190">
        <ele>1207.8</ele>
        <time>2023-01-14T12:59:16Z</time>
      </trkpt>
      <trkpt lat="42.6938790" lon="-0.5364960">
        <ele>1207.8</ele>
        <time>2023-01-14T12:59:17Z</time>
      </trkpt>
      <trkpt lat="42.6938950" lon="-0.5364730">
        <ele>1208.0</ele>
        <time>2023-01-14T12:59:18Z</time>
      </trkpt>
      <trkpt lat="42.6939110" lon="-0.5364530">
        <ele>1208.2</ele>
        <time>2023-01-14T12:59:19Z</time>
      </trkpt>
      <trkpt lat="42.6939280" lon="-0.5364340">
        <ele>1208.2</ele>
        <time>2023-01-14T12:59:20Z</time>
      </trkpt>
      <trkpt lat="42.6939460" lon="-0.5364150">
        <ele>1208.4</ele>
        <time>2023-01-14T12:59:21Z</time>
      </trkpt>
      <trkpt lat="42.6939650" lon="-0.5363940">
        <ele>1208.4</ele>
        <time>2023-01-14T12:59:22Z</time>
      </trkpt>
      <trkpt lat="42.6939850" lon="-0.5363740">
        <ele>1208.4</ele>
        <time>2023-01-14T12:59:23Z</time>
      </trkpt>
      <trkpt lat="42.6940030" lon="-0.5363560">
        <ele>1208.6</ele>
        <time>2023-01-14T12:59:24Z</time>
      </trkpt>
      <trkpt lat="42.6940220" lon="-0.5363360">
        <ele>1208.8</ele>
        <time>2023-01-14T12:59:25Z</time>
      </trkpt>
      <trkpt lat="42.6940410" lon="-0.5363170">
        <ele>1209.0</ele>
        <time>2023-01-14T12:59:26Z</time>
      </trkpt>
      <trkpt lat="42.6940590" lon="-0.5362980">
        <ele>1209.4</ele>
        <time>2023-01-14T12:59:27Z</time>
      </trkpt>
      <trkpt lat="42.6940780" lon="-0.5362810">
        <ele>1209.6</ele>
        <time>2023-01-14T12:59:28Z</time>
      </trkpt>
      <trkpt lat="42.6941000" lon="-0.5362670">
        <ele>1209.8</ele>
        <time>2023-01-14T12:59:29Z</time>
      </trkpt>
      <trkpt lat="42.6941210" lon="-0.5362540">
        <ele>1210.0</ele>
        <time>2023-01-14T12:59:30Z</time>
      </trkpt>
      <trkpt lat="42.6941420" lon="-0.5362430">
        <ele>1210.2</ele>
        <time>2023-01-14T12:59:31Z</time>
      </trkpt>
      <trkpt lat="42.6941640" lon="-0.5362370">
        <ele>1210.2</ele>
        <time>2023-01-14T12:59:32Z</time>
      </trkpt>
      <trkpt lat="42.6941870" lon="-0.5362340">
        <ele>1210.6</ele>
        <time>2023-01-14T12:59:33Z</time>
      </trkpt>
      <trkpt lat="42.6942110" lon="-0.5362370">
        <ele>1211.0</ele>
        <time>2023-01-14T12:59:34Z</time>
      </trkpt>
      <trkpt lat="42.6942330" lon="-0.5362460">
        <ele>1211.4</ele>
        <time>2023-01-14T12:59:35Z</time>
      </trkpt>
      <trkpt lat="42.6942520" lon="-0.5362620">
        <ele>1211.6</ele>
        <time>2023-01-14T12:59:36Z</time>
      </trkpt>
      <trkpt lat="42.6942680" lon="-0.5362820">
        <ele>1212.0</ele>
        <time>2023-01-14T12:59:37Z</time>
      </trkpt>
      <trkpt lat="42.6942790" lon="-0.5363070">
        <ele>1212.4</ele>
        <time>2023-01-14T12:59:38Z</time>
      </trkpt>
      <trkpt lat="42.6942820" lon="-0.5363370">
        <ele>1212.8</ele>
        <time>2023-01-14T12:59:39Z</time>
      </trkpt>
      <trkpt lat="42.6942850" lon="-0.5363680">
        <ele>1213.2</ele>
        <time>2023-01-14T12:59:40Z</time>
      </trkpt>
      <trkpt lat="42.6942760" lon="-0.5363990">
        <ele>1213.6</ele>
        <time>2023-01-14T12:59:41Z</time>
      </trkpt>
      <trkpt lat="42.6942630" lon="-0.5364280">
        <ele>1214.0</ele>
        <time>2023-01-14T12:59:42Z</time>
      </trkpt>
      <trkpt lat="42.6942480" lon="-0.5364570">
        <ele>1214.2</ele>
        <time>2023-01-14T12:59:43Z</time>
      </trkpt>
      <trkpt lat="42.6942330" lon="-0.5364830">
        <ele>1214.2</ele>
        <time>2023-01-14T12:59:44Z</time>
      </trkpt>
      <trkpt lat="42.6942160" lon="-0.5365080">
        <ele>1214.4</ele>
        <time>2023-01-14T12:59:45Z</time>
      </trkpt>
      <trkpt lat="42.6941980" lon="-0.5365300">
        <ele>1214.4</ele>
        <time>2023-01-14T12:59:46Z</time>
      </trkpt>
      <trkpt lat="42.6941800" lon="-0.5365540">
        <ele>1214.4</ele>
        <time>2023-01-14T12:59:47Z</time>
      </trkpt>
      <trkpt lat="42.6941800" lon="-0.5365540">
        <ele>1214.6</ele>
        <time>2023-01-14T12:59:48Z</time>
      </trkpt>
      <trkpt lat="42.6941650" lon="-0.5365800">
        <ele>1214.8</ele>
        <time>2023-01-14T12:59:49Z</time>
      </trkpt>
      <trkpt lat="42.6941360" lon="-0.5366310">
        <ele>1215.2</ele>
        <time>2023-01-14T12:59:50Z</time>
      </trkpt>
      <trkpt lat="42.6941210" lon="-0.5366570">
        <ele>1215.6</ele>
        <time>2023-01-14T12:59:51Z</time>
      </trkpt>
      <trkpt lat="42.6941050" lon="-0.5366810">
        <ele>1215.8</ele>
        <time>2023-01-14T12:59:52Z</time>
      </trkpt>
      <trkpt lat="42.6940890" lon="-0.5367050">
        <ele>1216.0</ele>
        <time>2023-01-14T12:59:53Z</time>
      </trkpt>
      <trkpt lat="42.6940720" lon="-0.5367280">
        <ele>1216.2</ele>
        <time>2023-01-14T12:59:54Z</time>
      </trkpt>
      <trkpt lat="42.6940560" lon="-0.5367530">
        <ele>1216.2</ele>
        <time>2023-01-14T12:59:55Z</time>
      </trkpt>
      <trkpt lat="42.6940400" lon="-0.5367770">
        <ele>1216.4</ele>
        <time>2023-01-14T12:59:56Z</time>
      </trkpt>
      <trkpt lat="42.6940400" lon="-0.5367770">
        <ele>1216.6</ele>
        <time>2023-01-14T12:59:57Z</time>
      </trkpt>
      <trkpt lat="42.6940250" lon="-0.5368020">
        <ele>1216.6</ele>
        <time>2023-01-14T12:59:58Z</time>
      </trkpt>
      <trkpt lat="42.6940090" lon="-0.5368270">
        <ele>1216.6</ele>
        <time>2023-01-14T12:59:59Z</time>
      </trkpt>
      <trkpt lat="42.6939720" lon="-0.5368750">
        <ele>1216.8</ele>
        <time>2023-01-14T13:00:00Z</time>
      </trkpt>
      <trkpt lat="42.6939560" lon="-0.5369010">
        <ele>1216.8</ele>
        <time>2023-01-14T13:00:01Z</time>
      </trkpt>
      <trkpt lat="42.6939390" lon="-0.5369290">
        <ele>1216.8</ele>
        <time>2023-01-14T13:00:02Z</time>
      </trkpt>
      <trkpt lat="42.6939390" lon="-0.5369290">
        <ele>1217.0</ele>
        <time>2023-01-14T13:00:03Z</time>
      </trkpt>
      <trkpt lat="42.6939200" lon="-0.5369510">
        <ele>1217.0</ele>
        <time>2023-01-14T13:00:04Z</time>
      </trkpt>
      <trkpt lat="42.6938800" lon="-0.5369890">
        <ele>1217.2</ele>
        <time>2023-01-14T13:00:05Z</time>
      </trkpt>
      <trkpt lat="42.6938800" lon="-0.5369890">
        <ele>1217.4</ele>
        <time>2023-01-14T13:00:06Z</time>
      </trkpt>
      <trkpt lat="42.6938660" lon="-0.5370210">
        <ele>1217.4</ele>
        <time>2023-01-14T13:00:07Z</time>
      </trkpt>
      <trkpt lat="42.6938490" lon="-0.5370530">
        <ele>1217.4</ele>
        <time>2023-01-14T13:00:08Z</time>
      </trkpt>
      <trkpt lat="42.6938270" lon="-0.5370770">
        <ele>1217.6</ele>
        <time>2023-01-14T13:00:09Z</time>
      </trkpt>
      <trkpt lat="42.6938020" lon="-0.5371030">
        <ele>1217.6</ele>
        <time>2023-01-14T13:00:10Z</time>
      </trkpt>
      <trkpt lat="42.6937530" lon="-0.5371510">
        <ele>1217.8</ele>
        <time>2023-01-14T13:00:11Z</time>
      </trkpt>
      <trkpt lat="42.6937270" lon="-0.5371750">
        <ele>1218.0</ele>
        <time>2023-01-14T13:00:12Z</time>
      </trkpt>
      <trkpt lat="42.6937020" lon="-0.5372010">
        <ele>1218.0</ele>
        <time>2023-01-14T13:00:13Z</time>
      </trkpt>
      <trkpt lat="42.6936730" lon="-0.5372210">
        <ele>1218.2</ele>
        <time>2023-01-14T13:00:14Z</time>
      </trkpt>
      <trkpt lat="42.6936430" lon="-0.5372410">
        <ele>1218.2</ele>
        <time>2023-01-14T13:00:15Z</time>
      </trkpt>
      <trkpt lat="42.6936160" lon="-0.5372610">
        <ele>1218.2</ele>
        <time>2023-01-14T13:00:16Z</time>
      </trkpt>
      <trkpt lat="42.6935920" lon="-0.5372790">
        <ele>1218.2</ele>
        <time>2023-01-14T13:00:17Z</time>
      </trkpt>
      <trkpt lat="42.6935680" lon="-0.5372980">
        <ele>1218.4</ele>
        <time>2023-01-14T13:00:18Z</time>
      </trkpt>
      <trkpt lat="42.6935480" lon="-0.5373110">
        <ele>1218.4</ele>
        <time>2023-01-14T13:00:19Z</time>
      </trkpt>
      <trkpt lat="42.6935290" lon="-0.5373310">
        <ele>1218.4</ele>
        <time>2023-01-14T13:00:20Z</time>
      </trkpt>
      <trkpt lat="42.6935050" lon="-0.5373490">
        <ele>1218.4</ele>
        <time>2023-01-14T13:00:21Z</time>
      </trkpt>
      <trkpt lat="42.6934810" lon="-0.5373660">
        <ele>1218.6</ele>
        <time>2023-01-14T13:00:22Z</time>
      </trkpt>
      <trkpt lat="42.6934590" lon="-0.5373860">
        <ele>1218.6</ele>
        <time>2023-01-14T13:00:23Z</time>
      </trkpt>
      <trkpt lat="42.6934370" lon="-0.5374050">
        <ele>1219.0</ele>
        <time>2023-01-14T13:00:24Z</time>
      </trkpt>
      <trkpt lat="42.6934140" lon="-0.5374250">
        <ele>1219.4</ele>
        <time>2023-01-14T13:00:25Z</time>
      </trkpt>
      <trkpt lat="42.6933930" lon="-0.5374460">
        <ele>1219.8</ele>
        <time>2023-01-14T13:00:26Z</time>
      </trkpt>
      <trkpt lat="42.6933680" lon="-0.5374680">
        <ele>1220.0</ele>
        <time>2023-01-14T13:00:27Z</time>
      </trkpt>
      <trkpt lat="42.6933410" lon="-0.5374830">
        <ele>1220.2</ele>
        <time>2023-01-14T13:00:28Z</time>
      </trkpt>
      <trkpt lat="42.6933410" lon="-0.5374830">
        <ele>1220.6</ele>
        <time>2023-01-14T13:00:29Z</time>
      </trkpt>
      <trkpt lat="42.6933190" lon="-0.5374980">
        <ele>1221.0</ele>
        <time>2023-01-14T13:00:30Z</time>
      </trkpt>
      <trkpt lat="42.6932810" lon="-0.5375410">
        <ele>1221.2</ele>
        <time>2023-01-14T13:00:31Z</time>
      </trkpt>
      <trkpt lat="42.6932570" lon="-0.5375570">
        <ele>1221.2</ele>
        <time>2023-01-14T13:00:32Z</time>
      </trkpt>
      <trkpt lat="42.6932330" lon="-0.5375730">
        <ele>1221.4</ele>
        <time>2023-01-14T13:00:33Z</time>
      </trkpt>
      <trkpt lat="42.6932100" lon="-0.5375910">
        <ele>1221.4</ele>
        <time>2023-01-14T13:00:34Z</time>
      </trkpt>
      <trkpt lat="42.6932100" lon="-0.5375910">
        <ele>1221.6</ele>
        <time>2023-01-14T13:00:35Z</time>
      </trkpt>
      <trkpt lat="42.6931900" lon="-0.5376150">
        <ele>1221.6</ele>
        <time>2023-01-14T13:00:36Z</time>
      </trkpt>
      <trkpt lat="42.6931670" lon="-0.5376330">
        <ele>1221.8</ele>
        <time>2023-01-14T13:00:37Z</time>
      </trkpt>
      <trkpt lat="42.6931430" lon="-0.5376500">
        <ele>1222.0</ele>
        <time>2023-01-14T13:00:38Z</time>
      </trkpt>
      <trkpt lat="42.6931210" lon="-0.5376710">
        <ele>1222.0</ele>
        <time>2023-01-14T13:00:39Z</time>
      </trkpt>
      <trkpt lat="42.6930780" lon="-0.5377180">
        <ele>1222.2</ele>
        <time>2023-01-14T13:00:40Z</time>
      </trkpt>
      <trkpt lat="42.6930600" lon="-0.5377470">
        <ele>1222.6</ele>
        <time>2023-01-14T13:00:41Z</time>
      </trkpt>
      <trkpt lat="42.6930390" lon="-0.5377730">
        <ele>1222.8</ele>
        <time>2023-01-14T13:00:42Z</time>
      </trkpt>
      <trkpt lat="42.6930170" lon="-0.5377990">
        <ele>1223.4</ele>
        <time>2023-01-14T13:00:43Z</time>
      </trkpt>
      <trkpt lat="42.6929960" lon="-0.5378240">
        <ele>1223.8</ele>
        <time>2023-01-14T13:00:44Z</time>
      </trkpt>
      <trkpt lat="42.6929750" lon="-0.5378470">
        <ele>1224.0</ele>
        <time>2023-01-14T13:00:45Z</time>
      </trkpt>
      <trkpt lat="42.6929540" lon="-0.5378700">
        <ele>1224.2</ele>
        <time>2023-01-14T13:00:46Z</time>
      </trkpt>
      <trkpt lat="42.6929330" lon="-0.5378970">
        <ele>1224.2</ele>
        <time>2023-01-14T13:00:47Z</time>
      </trkpt>
      <trkpt lat="42.6929130" lon="-0.5379220">
        <ele>1224.4</ele>
        <time>2023-01-14T13:00:48Z</time>
      </trkpt>
      <trkpt lat="42.6928940" lon="-0.5379480">
        <ele>1224.4</ele>
        <time>2023-01-14T13:00:49Z</time>
      </trkpt>
      <trkpt lat="42.6928740" lon="-0.5379750">
        <ele>1224.4</ele>
        <time>2023-01-14T13:00:50Z</time>
      </trkpt>
      <trkpt lat="42.6928560" lon="-0.5380010">
        <ele>1224.8</ele>
        <time>2023-01-14T13:00:51Z</time>
      </trkpt>
      <trkpt lat="42.6928370" lon="-0.5380270">
        <ele>1224.8</ele>
        <time>2023-01-14T13:00:52Z</time>
      </trkpt>
      <trkpt lat="42.6928180" lon="-0.5380520">
        <ele>1225.0</ele>
        <time>2023-01-14T13:00:53Z</time>
      </trkpt>
      <trkpt lat="42.6928000" lon="-0.5380750">
        <ele>1225.4</ele>
        <time>2023-01-14T13:00:54Z</time>
      </trkpt>
      <trkpt lat="42.6927820" lon="-0.5380970">
        <ele>1225.6</ele>
        <time>2023-01-14T13:00:55Z</time>
      </trkpt>
      <trkpt lat="42.6927660" lon="-0.5381210">
        <ele>1226.0</ele>
        <time>2023-01-14T13:00:56Z</time>
      </trkpt>
      <trkpt lat="42.6927470" lon="-0.5381460">
        <ele>1226.2</ele>
        <time>2023-01-14T13:00:57Z</time>
      </trkpt>
      <trkpt lat="42.6927310" lon="-0.5381710">
        <ele>1226.4</ele>
        <time>2023-01-14T13:00:58Z</time>
      </trkpt>
      <trkpt lat="42.6927120" lon="-0.5381950">
        <ele>1226.6</ele>
        <time>2023-01-14T13:00:59Z</time>
      </trkpt>
      <trkpt lat="42.6926930" lon="-0.5382170">
        <ele>1226.6</ele>
        <time>2023-01-14T13:01:00Z</time>
      </trkpt>
      <trkpt lat="42.6926760" lon="-0.5382400">
        <ele>1226.8</ele>
        <time>2023-01-14T13:01:01Z</time>
      </trkpt>
      <trkpt lat="42.6926590" lon="-0.5382620">
        <ele>1227.0</ele>
        <time>2023-01-14T13:01:02Z</time>
      </trkpt>
      <trkpt lat="42.6926410" lon="-0.5382860">
        <ele>1227.4</ele>
        <time>2023-01-14T13:01:03Z</time>
      </trkpt>
      <trkpt lat="42.6926250" lon="-0.5383130">
        <ele>1228.0</ele>
        <time>2023-01-14T13:01:04Z</time>
      </trkpt>
      <trkpt lat="42.6926090" lon="-0.5383360">
        <ele>1228.2</ele>
        <time>2023-01-14T13:01:05Z</time>
      </trkpt>
      <trkpt lat="42.6925890" lon="-0.5383560">
        <ele>1228.6</ele>
        <time>2023-01-14T13:01:06Z</time>
      </trkpt>
      <trkpt lat="42.6925710" lon="-0.5383820">
        <ele>1228.8</ele>
        <time>2023-01-14T13:01:07Z</time>
      </trkpt>
      <trkpt lat="42.6925500" lon="-0.5384050">
        <ele>1229.0</ele>
        <time>2023-01-14T13:01:08Z</time>
      </trkpt>
      <trkpt lat="42.6925290" lon="-0.5384290">
        <ele>1229.6</ele>
        <time>2023-01-14T13:01:09Z</time>
      </trkpt>
      <trkpt lat="42.6925100" lon="-0.5384560">
        <ele>1230.0</ele>
        <time>2023-01-14T13:01:10Z</time>
      </trkpt>
      <trkpt lat="42.6924910" lon="-0.5384820">
        <ele>1230.2</ele>
        <time>2023-01-14T13:01:11Z</time>
      </trkpt>
      <trkpt lat="42.6924680" lon="-0.5385030">
        <ele>1230.6</ele>
        <time>2023-01-14T13:01:12Z</time>
      </trkpt>
      <trkpt lat="42.6924470" lon="-0.5385250">
        <ele>1231.0</ele>
        <time>2023-01-14T13:01:13Z</time>
      </trkpt>
      <trkpt lat="42.6924280" lon="-0.5385480">
        <ele>1231.2</ele>
        <time>2023-01-14T13:01:14Z</time>
      </trkpt>
      <trkpt lat="42.6924060" lon="-0.5385680">
        <ele>1231.4</ele>
        <time>2023-01-14T13:01:15Z</time>
      </trkpt>
      <trkpt lat="42.6923890" lon="-0.5385930">
        <ele>1231.8</ele>
        <time>2023-01-14T13:01:16Z</time>
      </trkpt>
      <trkpt lat="42.6923700" lon="-0.5386140">
        <ele>1232.0</ele>
        <time>2023-01-14T13:01:17Z</time>
      </trkpt>
      <trkpt lat="42.6923510" lon="-0.5386340">
        <ele>1232.2</ele>
        <time>2023-01-14T13:01:18Z</time>
      </trkpt>
      <trkpt lat="42.6923280" lon="-0.5386530">
        <ele>1232.4</ele>
        <time>2023-01-14T13:01:19Z</time>
      </trkpt>
      <trkpt lat="42.6923090" lon="-0.5386750">
        <ele>1232.6</ele>
        <time>2023-01-14T13:01:20Z</time>
      </trkpt>
      <trkpt lat="42.6922880" lon="-0.5386980">
        <ele>1232.6</ele>
        <time>2023-01-14T13:01:21Z</time>
      </trkpt>
      <trkpt lat="42.6922720" lon="-0.5387250">
        <ele>1233.0</ele>
        <time>2023-01-14T13:01:22Z</time>
      </trkpt>
      <trkpt lat="42.6922560" lon="-0.5387530">
        <ele>1233.4</ele>
        <time>2023-01-14T13:01:23Z</time>
      </trkpt>
      <trkpt lat="42.6922380" lon="-0.5387780">
        <ele>1233.6</ele>
        <time>2023-01-14T13:01:24Z</time>
      </trkpt>
      <trkpt lat="42.6922170" lon="-0.5387990">
        <ele>1234.0</ele>
        <time>2023-01-14T13:01:25Z</time>
      </trkpt>
      <trkpt lat="42.6921990" lon="-0.5388240">
        <ele>1234.2</ele>
        <time>2023-01-14T13:01:26Z</time>
      </trkpt>
      <trkpt lat="42.6921840" lon="-0.5388510">
        <ele>1234.4</ele>
        <time>2023-01-14T13:01:27Z</time>
      </trkpt>
      <trkpt lat="42.6921640" lon="-0.5388750">
        <ele>1234.6</ele>
        <time>2023-01-14T13:01:28Z</time>
      </trkpt>
      <trkpt lat="42.6921460" lon="-0.5389000">
        <ele>1234.8</ele>
        <time>2023-01-14T13:01:29Z</time>
      </trkpt>
      <trkpt lat="42.6921290" lon="-0.5389270">
        <ele>1235.0</ele>
        <time>2023-01-14T13:01:30Z</time>
      </trkpt>
      <trkpt lat="42.6921110" lon="-0.5389550">
        <ele>1235.0</ele>
        <time>2023-01-14T13:01:31Z</time>
      </trkpt>
      <trkpt lat="42.6920910" lon="-0.5389810">
        <ele>1235.2</ele>
        <time>2023-01-14T13:01:32Z</time>
      </trkpt>
      <trkpt lat="42.6920730" lon="-0.5390110">
        <ele>1235.8</ele>
        <time>2023-01-14T13:01:33Z</time>
      </trkpt>
      <trkpt lat="42.6920560" lon="-0.5390420">
        <ele>1236.4</ele>
        <time>2023-01-14T13:01:34Z</time>
      </trkpt>
      <trkpt lat="42.6920400" lon="-0.5390730">
        <ele>1236.6</ele>
        <time>2023-01-14T13:01:35Z</time>
      </trkpt>
      <trkpt lat="42.6920240" lon="-0.5391050">
        <ele>1236.8</ele>
        <time>2023-01-14T13:01:36Z</time>
      </trkpt>
      <trkpt lat="42.6920090" lon="-0.5391390">
        <ele>1237.2</ele>
        <time>2023-01-14T13:01:37Z</time>
      </trkpt>
      <trkpt lat="42.6919920" lon="-0.5391700">
        <ele>1237.4</ele>
        <time>2023-01-14T13:01:38Z</time>
      </trkpt>
      <trkpt lat="42.6919730" lon="-0.5391980">
        <ele>1237.6</ele>
        <time>2023-01-14T13:01:39Z</time>
      </trkpt>
      <trkpt lat="42.6919560" lon="-0.5392250">
        <ele>1238.0</ele>
        <time>2023-01-14T13:01:40Z</time>
      </trkpt>
      <trkpt lat="42.6919350" lon="-0.5392500">
        <ele>1238.4</ele>
        <time>2023-01-14T13:01:41Z</time>
      </trkpt>
      <trkpt lat="42.6919150" lon="-0.5392770">
        <ele>1238.8</ele>
        <time>2023-01-14T13:01:42Z</time>
      </trkpt>
      <trkpt lat="42.6918940" lon="-0.5393050">
        <ele>1239.0</ele>
        <time>2023-01-14T13:01:43Z</time>
      </trkpt>
      <trkpt lat="42.6918740" lon="-0.5393330">
        <ele>1239.2</ele>
        <time>2023-01-14T13:01:44Z</time>
      </trkpt>
      <trkpt lat="42.6918510" lon="-0.5393590">
        <ele>1239.4</ele>
        <time>2023-01-14T13:01:45Z</time>
      </trkpt>
      <trkpt lat="42.6918270" lon="-0.5393810">
        <ele>1239.6</ele>
        <time>2023-01-14T13:01:46Z</time>
      </trkpt>
      <trkpt lat="42.6918040" lon="-0.5394040">
        <ele>1239.8</ele>
        <time>2023-01-14T13:01:47Z</time>
      </trkpt>
      <trkpt lat="42.6917800" lon="-0.5394280">
        <ele>1240.0</ele>
        <time>2023-01-14T13:01:48Z</time>
      </trkpt>
      <trkpt lat="42.6917550" lon="-0.5394500">
        <ele>1240.0</ele>
        <time>2023-01-14T13:01:49Z</time>
      </trkpt>
      <trkpt lat="42.6917300" lon="-0.5394720">
        <ele>1240.0</ele>
        <time>2023-01-14T13:01:50Z</time>
      </trkpt>
      <trkpt lat="42.6917060" lon="-0.5394970">
        <ele>1240.4</ele>
        <time>2023-01-14T13:01:51Z</time>
      </trkpt>
      <trkpt lat="42.6916820" lon="-0.5395230">
        <ele>1240.6</ele>
        <time>2023-01-14T13:01:52Z</time>
      </trkpt>
      <trkpt lat="42.6916570" lon="-0.5395490">
        <ele>1240.6</ele>
        <time>2023-01-14T13:01:53Z</time>
      </trkpt>
      <trkpt lat="42.6916330" lon="-0.5395750">
        <ele>1241.0</ele>
        <time>2023-01-14T13:01:54Z</time>
      </trkpt>
      <trkpt lat="42.6916110" lon="-0.5396030">
        <ele>1241.2</ele>
        <time>2023-01-14T13:01:55Z</time>
      </trkpt>
      <trkpt lat="42.6915870" lon="-0.5396290">
        <ele>1241.4</ele>
        <time>2023-01-14T13:01:56Z</time>
      </trkpt>
      <trkpt lat="42.6915640" lon="-0.5396550">
        <ele>1241.6</ele>
        <time>2023-01-14T13:01:57Z</time>
      </trkpt>
      <trkpt lat="42.6915390" lon="-0.5396790">
        <ele>1242.0</ele>
        <time>2023-01-14T13:01:58Z</time>
      </trkpt>
      <trkpt lat="42.6915150" lon="-0.5397050">
        <ele>1242.0</ele>
        <time>2023-01-14T13:01:59Z</time>
      </trkpt>
      <trkpt lat="42.6914930" lon="-0.5397310">
        <ele>1242.2</ele>
        <time>2023-01-14T13:02:00Z</time>
      </trkpt>
      <trkpt lat="42.6914700" lon="-0.5397580">
        <ele>1242.6</ele>
        <time>2023-01-14T13:02:01Z</time>
      </trkpt>
      <trkpt lat="42.6914470" lon="-0.5397840">
        <ele>1242.8</ele>
        <time>2023-01-14T13:02:02Z</time>
      </trkpt>
      <trkpt lat="42.6914240" lon="-0.5398110">
        <ele>1243.0</ele>
        <time>2023-01-14T13:02:03Z</time>
      </trkpt>
      <trkpt lat="42.6914010" lon="-0.5398390">
        <ele>1243.0</ele>
        <time>2023-01-14T13:02:04Z</time>
      </trkpt>
      <trkpt lat="42.6913770" lon="-0.5398670">
        <ele>1243.2</ele>
        <time>2023-01-14T13:02:05Z</time>
      </trkpt>
      <trkpt lat="42.6913540" lon="-0.5398970">
        <ele>1243.2</ele>
        <time>2023-01-14T13:02:06Z</time>
      </trkpt>
      <trkpt lat="42.6913320" lon="-0.5399260">
        <ele>1243.6</ele>
        <time>2023-01-14T13:02:07Z</time>
      </trkpt>
      <trkpt lat="42.6913110" lon="-0.5399570">
        <ele>1243.8</ele>
        <time>2023-01-14T13:02:08Z</time>
      </trkpt>
      <trkpt lat="42.6912910" lon="-0.5399900">
        <ele>1244.2</ele>
        <time>2023-01-14T13:02:09Z</time>
      </trkpt>
      <trkpt lat="42.6912690" lon="-0.5400220">
        <ele>1244.4</ele>
        <time>2023-01-14T13:02:10Z</time>
      </trkpt>
      <trkpt lat="42.6912500" lon="-0.5400560">
        <ele>1244.8</ele>
        <time>2023-01-14T13:02:11Z</time>
      </trkpt>
      <trkpt lat="42.6912320" lon="-0.5400920">
        <ele>1245.2</ele>
        <time>2023-01-14T13:02:12Z</time>
      </trkpt>
      <trkpt lat="42.6912130" lon="-0.5401270">
        <ele>1245.4</ele>
        <time>2023-01-14T13:02:13Z</time>
      </trkpt>
      <trkpt lat="42.6911930" lon="-0.5401600">
        <ele>1245.6</ele>
        <time>2023-01-14T13:02:14Z</time>
      </trkpt>
      <trkpt lat="42.6911730" lon="-0.5401960">
        <ele>1245.8</ele>
        <time>2023-01-14T13:02:15Z</time>
      </trkpt>
      <trkpt lat="42.6911540" lon="-0.5402320">
        <ele>1246.0</ele>
        <time>2023-01-14T13:02:16Z</time>
      </trkpt>
      <trkpt lat="42.6911380" lon="-0.5402660">
        <ele>1246.2</ele>
        <time>2023-01-14T13:02:17Z</time>
      </trkpt>
      <trkpt lat="42.6911210" lon="-0.5402990">
        <ele>1246.6</ele>
        <time>2023-01-14T13:02:18Z</time>
      </trkpt>
      <trkpt lat="42.6911030" lon="-0.5403330">
        <ele>1247.0</ele>
        <time>2023-01-14T13:02:19Z</time>
      </trkpt>
      <trkpt lat="42.6910860" lon="-0.5403650">
        <ele>1247.4</ele>
        <time>2023-01-14T13:02:20Z</time>
      </trkpt>
      <trkpt lat="42.6910690" lon="-0.5403960">
        <ele>1247.6</ele>
        <time>2023-01-14T13:02:21Z</time>
      </trkpt>
      <trkpt lat="42.6910510" lon="-0.5404260">
        <ele>1247.8</ele>
        <time>2023-01-14T13:02:22Z</time>
      </trkpt>
      <trkpt lat="42.6910330" lon="-0.5404560">
        <ele>1248.0</ele>
        <time>2023-01-14T13:02:23Z</time>
      </trkpt>
      <trkpt lat="42.6910130" lon="-0.5404850">
        <ele>1248.0</ele>
        <time>2023-01-14T13:02:24Z</time>
      </trkpt>
      <trkpt lat="42.6909910" lon="-0.5405120">
        <ele>1248.2</ele>
        <time>2023-01-14T13:02:25Z</time>
      </trkpt>
      <trkpt lat="42.6909690" lon="-0.5405390">
        <ele>1248.6</ele>
        <time>2023-01-14T13:02:26Z</time>
      </trkpt>
      <trkpt lat="42.6909480" lon="-0.5405690">
        <ele>1248.8</ele>
        <time>2023-01-14T13:02:27Z</time>
      </trkpt>
      <trkpt lat="42.6909260" lon="-0.5405960">
        <ele>1249.0</ele>
        <time>2023-01-14T13:02:28Z</time>
      </trkpt>
      <trkpt lat="42.6909030" lon="-0.5406220">
        <ele>1249.4</ele>
        <time>2023-01-14T13:02:29Z</time>
      </trkpt>
      <trkpt lat="42.6908820" lon="-0.5406510">
        <ele>1249.8</ele>
        <time>2023-01-14T13:02:30Z</time>
      </trkpt>
      <trkpt lat="42.6908600" lon="-0.5406790">
        <ele>1250.0</ele>
        <time>2023-01-14T13:02:31Z</time>
      </trkpt>
      <trkpt lat="42.6908360" lon="-0.5407080">
        <ele>1250.4</ele>
        <time>2023-01-14T13:02:32Z</time>
      </trkpt>
      <trkpt lat="42.6908120" lon="-0.5407380">
        <ele>1250.6</ele>
        <time>2023-01-14T13:02:33Z</time>
      </trkpt>
      <trkpt lat="42.6907880" lon="-0.5407690">
        <ele>1251.2</ele>
        <time>2023-01-14T13:02:34Z</time>
      </trkpt>
      <trkpt lat="42.6907660" lon="-0.5408020">
        <ele>1251.8</ele>
        <time>2023-01-14T13:02:35Z</time>
      </trkpt>
      <trkpt lat="42.6907430" lon="-0.5408350">
        <ele>1252.0</ele>
        <time>2023-01-14T13:02:36Z</time>
      </trkpt>
      <trkpt lat="42.6907240" lon="-0.5408680">
        <ele>1252.4</ele>
        <time>2023-01-14T13:02:37Z</time>
      </trkpt>
      <trkpt lat="42.6907030" lon="-0.5409000">
        <ele>1252.6</ele>
        <time>2023-01-14T13:02:38Z</time>
      </trkpt>
      <trkpt lat="42.6906820" lon="-0.5409310">
        <ele>1253.0</ele>
        <time>2023-01-14T13:02:39Z</time>
      </trkpt>
      <trkpt lat="42.6906600" lon="-0.5409600">
        <ele>1253.4</ele>
        <time>2023-01-14T13:02:40Z</time>
      </trkpt>
      <trkpt lat="42.6906380" lon="-0.5409910">
        <ele>1253.6</ele>
        <time>2023-01-14T13:02:41Z</time>
      </trkpt>
      <trkpt lat="42.6906150" lon="-0.5410200">
        <ele>1253.8</ele>
        <time>2023-01-14T13:02:42Z</time>
      </trkpt>
      <trkpt lat="42.6905880" lon="-0.5410460">
        <ele>1254.2</ele>
        <time>2023-01-14T13:02:43Z</time>
      </trkpt>
      <trkpt lat="42.6905610" lon="-0.5410700">
        <ele>1254.6</ele>
        <time>2023-01-14T13:02:44Z</time>
      </trkpt>
      <trkpt lat="42.6905320" lon="-0.5410890">
        <ele>1254.8</ele>
        <time>2023-01-14T13:02:45Z</time>
      </trkpt>
      <trkpt lat="42.6905030" lon="-0.5411040">
        <ele>1254.8</ele>
        <time>2023-01-14T13:02:46Z</time>
      </trkpt>
      <trkpt lat="42.6904720" lon="-0.5411160">
        <ele>1255.0</ele>
        <time>2023-01-14T13:02:47Z</time>
      </trkpt>
      <trkpt lat="42.6904390" lon="-0.5411260">
        <ele>1255.0</ele>
        <time>2023-01-14T13:02:48Z</time>
      </trkpt>
      <trkpt lat="42.6904050" lon="-0.5411350">
        <ele>1255.4</ele>
        <time>2023-01-14T13:02:49Z</time>
      </trkpt>
      <trkpt lat="42.6903710" lon="-0.5411410">
        <ele>1255.6</ele>
        <time>2023-01-14T13:02:50Z</time>
      </trkpt>
      <trkpt lat="42.6903360" lon="-0.5411470">
        <ele>1255.8</ele>
        <time>2023-01-14T13:02:51Z</time>
      </trkpt>
      <trkpt lat="42.6903030" lon="-0.5411540">
        <ele>1256.0</ele>
        <time>2023-01-14T13:02:52Z</time>
      </trkpt>
      <trkpt lat="42.6902710" lon="-0.5411640">
        <ele>1256.4</ele>
        <time>2023-01-14T13:02:53Z</time>
      </trkpt>
      <trkpt lat="42.6902400" lon="-0.5411770">
        <ele>1256.4</ele>
        <time>2023-01-14T13:02:54Z</time>
      </trkpt>
      <trkpt lat="42.6902110" lon="-0.5411940">
        <ele>1256.6</ele>
        <time>2023-01-14T13:02:55Z</time>
      </trkpt>
      <trkpt lat="42.6901830" lon="-0.5412140">
        <ele>1256.8</ele>
        <time>2023-01-14T13:02:56Z</time>
      </trkpt>
      <trkpt lat="42.6901560" lon="-0.5412390">
        <ele>1257.0</ele>
        <time>2023-01-14T13:02:57Z</time>
      </trkpt>
      <trkpt lat="42.6901290" lon="-0.5412690">
        <ele>1257.0</ele>
        <time>2023-01-14T13:02:58Z</time>
      </trkpt>
      <trkpt lat="42.6901040" lon="-0.5413040">
        <ele>1257.2</ele>
        <time>2023-01-14T13:02:59Z</time>
      </trkpt>
      <trkpt lat="42.6900800" lon="-0.5413400">
        <ele>1257.2</ele>
        <time>2023-01-14T13:03:00Z</time>
      </trkpt>
      <trkpt lat="42.6900580" lon="-0.5413750">
        <ele>1257.4</ele>
        <time>2023-01-14T13:03:01Z</time>
      </trkpt>
      <trkpt lat="42.6900370" lon="-0.5414130">
        <ele>1257.4</ele>
        <time>2023-01-14T13:03:02Z</time>
      </trkpt>
      <trkpt lat="42.6900140" lon="-0.5414550">
        <ele>1257.2</ele>
        <time>2023-01-14T13:03:03Z</time>
      </trkpt>
      <trkpt lat="42.6899910" lon="-0.5414960">
        <ele>1257.4</ele>
        <time>2023-01-14T13:03:04Z</time>
      </trkpt>
      <trkpt lat="42.6899700" lon="-0.5415380">
        <ele>1257.4</ele>
        <time>2023-01-14T13:03:05Z</time>
      </trkpt>
      <trkpt lat="42.6899520" lon="-0.5415820">
        <ele>1257.4</ele>
        <time>2023-01-14T13:03:06Z</time>
      </trkpt>
      <trkpt lat="42.6899330" lon="-0.5416240">
        <ele>1257.2</ele>
        <time>2023-01-14T13:03:07Z</time>
      </trkpt>
      <trkpt lat="42.6899130" lon="-0.5416650">
        <ele>1257.2</ele>
        <time>2023-01-14T13:03:08Z</time>
      </trkpt>
      <trkpt lat="42.6898920" lon="-0.5417040">
        <ele>1257.2</ele>
        <time>2023-01-14T13:03:09Z</time>
      </trkpt>
      <trkpt lat="42.6898710" lon="-0.5417440">
        <ele>1257.2</ele>
        <time>2023-01-14T13:03:10Z</time>
      </trkpt>
      <trkpt lat="42.6898490" lon="-0.5417820">
        <ele>1257.2</ele>
        <time>2023-01-14T13:03:11Z</time>
      </trkpt>
      <trkpt lat="42.6898290" lon="-0.5418180">
        <ele>1257.6</ele>
        <time>2023-01-14T13:03:12Z</time>
      </trkpt>
      <trkpt lat="42.6898110" lon="-0.5418530">
        <ele>1257.8</ele>
        <time>2023-01-14T13:03:13Z</time>
      </trkpt>
      <trkpt lat="42.6897930" lon="-0.5418890">
        <ele>1258.0</ele>
        <time>2023-01-14T13:03:14Z</time>
      </trkpt>
      <trkpt lat="42.6897750" lon="-0.5419240">
        <ele>1258.0</ele>
        <time>2023-01-14T13:03:15Z</time>
      </trkpt>
      <trkpt lat="42.6897560" lon="-0.5419570">
        <ele>1258.0</ele>
        <time>2023-01-14T13:03:16Z</time>
      </trkpt>
      <trkpt lat="42.6897370" lon="-0.5419920">
        <ele>1258.0</ele>
        <time>2023-01-14T13:03:17Z</time>
      </trkpt>
      <trkpt lat="42.6897210" lon="-0.5420280">
        <ele>1258.2</ele>
        <time>2023-01-14T13:03:18Z</time>
      </trkpt>
      <trkpt lat="42.6897050" lon="-0.5420660">
        <ele>1258.2</ele>
        <time>2023-01-14T13:03:19Z</time>
      </trkpt>
      <trkpt lat="42.6896950" lon="-0.5421060">
        <ele>1258.2</ele>
        <time>2023-01-14T13:03:20Z</time>
      </trkpt>
      <trkpt lat="42.6896870" lon="-0.5421510">
        <ele>1258.2</ele>
        <time>2023-01-14T13:03:21Z</time>
      </trkpt>
      <trkpt lat="42.6896750" lon="-0.5421870">
        <ele>1258.4</ele>
        <time>2023-01-14T13:03:22Z</time>
      </trkpt>
      <trkpt lat="42.6896650" lon="-0.5422190">
        <ele>1258.8</ele>
        <time>2023-01-14T13:03:23Z</time>
      </trkpt>
      <trkpt lat="42.6896570" lon="-0.5422500">
        <ele>1259.2</ele>
        <time>2023-01-14T13:03:24Z</time>
      </trkpt>
      <trkpt lat="42.6896500" lon="-0.5422760">
        <ele>1259.4</ele>
        <time>2023-01-14T13:03:25Z</time>
      </trkpt>
      <trkpt lat="42.6896450" lon="-0.5422960">
        <ele>1259.6</ele>
        <time>2023-01-14T13:03:26Z</time>
      </trkpt>
      <trkpt lat="42.6896420" lon="-0.5423100">
        <ele>1259.8</ele>
        <time>2023-01-14T13:03:27Z</time>
      </trkpt>
      <trkpt lat="42.6896410" lon="-0.5423210">
        <ele>1259.8</ele>
        <time>2023-01-14T13:03:28Z</time>
      </trkpt>
      <trkpt lat="42.6896370" lon="-0.5423290">
        <ele>1259.8</ele>
        <time>2023-01-14T13:03:29Z</time>
      </trkpt>
      <trkpt lat="42.6896370" lon="-0.5423250">
        <ele>1260.0</ele>
        <time>2023-01-14T13:03:30Z</time>
      </trkpt>
      <trkpt lat="42.6896360" lon="-0.5423160">
        <ele>1260.0</ele>
        <time>2023-01-14T13:03:31Z</time>
      </trkpt>
      <trkpt lat="42.6896370" lon="-0.5423150">
        <ele>1260.0</ele>
        <time>2023-01-14T13:03:32Z</time>
      </trkpt>
      <trkpt lat="42.6896380" lon="-0.5423130">
        <ele>1260.2</ele>
        <time>2023-01-14T13:03:33Z</time>
      </trkpt>
      <trkpt lat="42.6896380" lon="-0.5423120">
        <ele>1260.0</ele>
        <time>2023-01-14T13:03:34Z</time>
      </trkpt>
      <trkpt lat="42.6896380" lon="-0.5423120">
        <ele>1260.2</ele>
        <time>2023-01-14T13:03:35Z</time>
      </trkpt>
      <trkpt lat="42.6896380" lon="-0.5423120">
        <ele>1260.2</ele>
        <time>2023-01-14T13:03:36Z</time>
      </trkpt>
      <trkpt lat="42.6896380" lon="-0.5423110">
        <ele>1260.2</ele>
        <time>2023-01-14T13:03:37Z</time>
      </trkpt>
      <trkpt lat="42.6896390" lon="-0.5423100">
        <ele>1260.4</ele>
        <time>2023-01-14T13:03:38Z</time>
      </trkpt>
      <trkpt lat="42.6896390" lon="-0.5423100">
        <ele>1260.4</ele>
        <time>2023-01-14T13:03:39Z</time>
      </trkpt>
      <trkpt lat="42.6896390" lon="-0.5423090">
        <ele>1260.4</ele>
        <time>2023-01-14T13:03:40Z</time>
      </trkpt>
      <trkpt lat="42.6896390" lon="-0.5423090">
        <ele>1260.4</ele>
        <time>2023-01-14T13:03:41Z</time>
      </trkpt>
      <trkpt lat="42.6896390" lon="-0.5423080">
        <ele>1260.4</ele>
        <time>2023-01-14T13:03:42Z</time>
      </trkpt>
      <trkpt lat="42.6896390" lon="-0.5423080">
        <ele>1260.4</ele>
        <time>2023-01-14T13:03:43Z</time>
      </trkpt>
      <trkpt lat="42.6896390" lon="-0.5423080">
        <ele>1260.4</ele>
        <time>2023-01-14T13:03:44Z</time>
      </trkpt>
      <trkpt lat="42.6896400" lon="-0.5423080">
        <ele>1260.2</ele>
        <time>2023-01-14T13:03:45Z</time>
      </trkpt>
      <trkpt lat="42.6896400" lon="-0.5423080">
        <ele>1260.2</ele>
        <time>2023-01-14T13:03:46Z</time>
      </trkpt>
      <trkpt lat="42.6896390" lon="-0.5423090">
        <ele>1260.2</ele>
        <time>2023-01-14T13:03:47Z</time>
      </trkpt>
      <trkpt lat="42.6896390" lon="-0.5423100">
        <ele>1260.0</ele>
        <time>2023-01-14T13:03:48Z</time>
      </trkpt>
      <trkpt lat="42.6896390" lon="-0.5423100">
        <ele>1259.8</ele>
        <time>2023-01-14T13:03:49Z</time>
      </trkpt>
      <trkpt lat="42.6896380" lon="-0.5423070">
        <ele>1259.6</ele>
        <time>2023-01-14T13:03:50Z</time>
      </trkpt>
      <trkpt lat="42.6896390" lon="-0.5423030">
        <ele>1259.4</ele>
        <time>2023-01-14T13:03:51Z</time>
      </trkpt>
      <trkpt lat="42.6896390" lon="-0.5423040">
        <ele>1259.4</ele>
        <time>2023-01-14T13:03:52Z</time>
      </trkpt>
      <trkpt lat="42.6896390" lon="-0.5423040">
        <ele>1259.4</ele>
        <time>2023-01-14T13:03:53Z</time>
      </trkpt>
      <trkpt lat="42.6896400" lon="-0.5423050">
        <ele>1259.4</ele>
        <time>2023-01-14T13:03:54Z</time>
      </trkpt>
      <trkpt lat="42.6896400" lon="-0.5423050">
        <ele>1259.2</ele>
        <time>2023-01-14T13:03:55Z</time>
      </trkpt>
      <trkpt lat="42.6896400" lon="-0.5423050">
        <ele>1259.0</ele>
        <time>2023-01-14T13:03:56Z</time>
      </trkpt>
      <trkpt lat="42.6896400" lon="-0.5423040">
        <ele>1259.0</ele>
        <time>2023-01-14T13:03:57Z</time>
      </trkpt>
      <trkpt lat="42.6896400" lon="-0.5423040">
        <ele>1258.8</ele>
        <time>2023-01-14T13:03:58Z</time>
      </trkpt>
      <trkpt lat="42.6896400" lon="-0.5423040">
        <ele>1258.8</ele>
        <time>2023-01-14T13:03:59Z</time>
      </trkpt>
      <trkpt lat="42.6896400" lon="-0.5423040">
        <ele>1259.0</ele>
        <time>2023-01-14T13:04:00Z</time>
      </trkpt>
      <trkpt lat="42.6896400" lon="-0.5423040">
        <ele>1258.8</ele>
        <time>2023-01-14T13:04:01Z</time>
      </trkpt>
      <trkpt lat="42.6896400" lon="-0.5423040">
        <ele>1258.8</ele>
        <time>2023-01-14T13:04:02Z</time>
      </trkpt>
      <trkpt lat="42.6896400" lon="-0.5423050">
        <ele>1259.0</ele>
        <time>2023-01-14T13:04:03Z</time>
      </trkpt>
      <trkpt lat="42.6896400" lon="-0.5423050">
        <ele>1259.0</ele>
        <time>2023-01-14T13:04:04Z</time>
      </trkpt>
      <trkpt lat="42.6896400" lon="-0.5423050">
        <ele>1259.0</ele>
        <time>2023-01-14T13:04:05Z</time>
      </trkpt>
      <trkpt lat="42.6896410" lon="-0.5423050">
        <ele>1259.0</ele>
        <time>2023-01-14T13:04:06Z</time>
      </trkpt>
      <trkpt lat="42.6896410" lon="-0.5423050">
        <ele>1259.0</ele>
        <time>2023-01-14T13:04:07Z</time>
      </trkpt>
      <trkpt lat="42.6896410" lon="-0.5423050">
        <ele>1259.0</ele>
        <time>2023-01-14T13:04:08Z</time>
      </trkpt>
      <trkpt lat="42.6896410" lon="-0.5423050">
        <ele>1259.0</ele>
        <time>2023-01-14T13:04:09Z</time>
      </trkpt>
      <trkpt lat="42.6896410" lon="-0.5423040">
        <ele>1258.8</ele>
        <time>2023-01-14T13:04:10Z</time>
      </trkpt>
      <trkpt lat="42.6896410" lon="-0.5423040">
        <ele>1258.8</ele>
        <time>2023-01-14T13:04:11Z</time>
      </trkpt>
      <trkpt lat="42.6896410" lon="-0.5423040">
        <ele>1258.8</ele>
        <time>2023-01-14T13:04:12Z</time>
      </trkpt>
      <trkpt lat="42.6896420" lon="-0.5423040">
        <ele>1258.8</ele>
        <time>2023-01-14T13:04:13Z</time>
      </trkpt>
      <trkpt lat="42.6896420" lon="-0.5423030">
        <ele>1258.6</ele>
        <time>2023-01-14T13:04:14Z</time>
      </trkpt>
      <trkpt lat="42.6896420" lon="-0.5423030">
        <ele>1258.6</ele>
        <time>2023-01-14T13:04:15Z</time>
      </trkpt>
      <trkpt lat="42.6896420" lon="-0.5423030">
        <ele>1258.4</ele>
        <time>2023-01-14T13:04:16Z</time>
      </trkpt>
      <trkpt lat="42.6896420" lon="-0.5423030">
        <ele>1258.6</ele>
        <time>2023-01-14T13:04:17Z</time>
      </trkpt>
      <trkpt lat="42.6896420" lon="-0.5423020">
        <ele>1258.6</ele>
        <time>2023-01-14T13:04:18Z</time>
      </trkpt>
      <trkpt lat="42.6896420" lon="-0.5423020">
        <ele>1258.4</ele>
        <time>2023-01-14T13:04:19Z</time>
      </trkpt>
      <trkpt lat="42.6896420" lon="-0.5423020">
        <ele>1258.4</ele>
        <time>2023-01-14T13:04:20Z</time>
      </trkpt>
      <trkpt lat="42.6896420" lon="-0.5423010">
        <ele>1258.6</ele>
        <time>2023-01-14T13:04:21Z</time>
      </trkpt>
      <trkpt lat="42.6896420" lon="-0.5423010">
        <ele>1258.6</ele>
        <time>2023-01-14T13:04:22Z</time>
      </trkpt>
      <trkpt lat="42.6896420" lon="-0.5423000">
        <ele>1258.6</ele>
        <time>2023-01-14T13:04:23Z</time>
      </trkpt>
      <trkpt lat="42.6896420" lon="-0.5423000">
        <ele>1258.6</ele>
        <time>2023-01-14T13:04:24Z</time>
      </trkpt>
      <trkpt lat="42.6896420" lon="-0.5422990">
        <ele>1258.6</ele>
        <time>2023-01-14T13:04:25Z</time>
      </trkpt>
      <trkpt lat="42.6896410" lon="-0.5422980">
        <ele>1258.6</ele>
        <time>2023-01-14T13:04:26Z</time>
      </trkpt>
      <trkpt lat="42.6896410" lon="-0.5422980">
        <ele>1258.6</ele>
        <time>2023-01-14T13:04:27Z</time>
      </trkpt>
      <trkpt lat="42.6896410" lon="-0.5422970">
        <ele>1258.6</ele>
        <time>2023-01-14T13:04:28Z</time>
      </trkpt>
      <trkpt lat="42.6896410" lon="-0.5422970">
        <ele>1258.6</ele>
        <time>2023-01-14T13:04:29Z</time>
      </trkpt>
      <trkpt lat="42.6896410" lon="-0.5422960">
        <ele>1258.8</ele>
        <time>2023-01-14T13:04:30Z</time>
      </trkpt>
      <trkpt lat="42.6896410" lon="-0.5422950">
        <ele>1258.8</ele>
        <time>2023-01-14T13:04:31Z</time>
      </trkpt>
      <trkpt lat="42.6896410" lon="-0.5422950">
        <ele>1258.8</ele>
        <time>2023-01-14T13:04:32Z</time>
      </trkpt>
      <trkpt lat="42.6896410" lon="-0.5422940">
        <ele>1258.8</ele>
        <time>2023-01-14T13:04:33Z</time>
      </trkpt>
      <trkpt lat="42.6896410" lon="-0.5422940">
        <ele>1258.8</ele>
        <time>2023-01-14T13:04:34Z</time>
      </trkpt>
      <trkpt lat="42.6896410" lon="-0.5422930">
        <ele>1259.0</ele>
        <time>2023-01-14T13:04:35Z</time>
      </trkpt>
      <trkpt lat="42.6896410" lon="-0.5422930">
        <ele>1259.0</ele>
        <time>2023-01-14T13:04:36Z</time>
      </trkpt>
      <trkpt lat="42.6896400" lon="-0.5422920">
        <ele>1259.0</ele>
        <time>2023-01-14T13:04:37Z</time>
      </trkpt>
      <trkpt lat="42.6896400" lon="-0.5422920">
        <ele>1259.0</ele>
        <time>2023-01-14T13:04:38Z</time>
      </trkpt>
      <trkpt lat="42.6896400" lon="-0.5422910">
        <ele>1259.0</ele>
        <time>2023-01-14T13:04:39Z</time>
      </trkpt>
      <trkpt lat="42.6896400" lon="-0.5422910">
        <ele>1259.0</ele>
        <time>2023-01-14T13:04:40Z</time>
      </trkpt>
      <trkpt lat="42.6896400" lon="-0.5422910">
        <ele>1259.0</ele>
        <time>2023-01-14T13:04:41Z</time>
      </trkpt>
      <trkpt lat="42.6896400" lon="-0.5422910">
        <ele>1259.0</ele>
        <time>2023-01-14T13:04:42Z</time>
      </trkpt>
      <trkpt lat="42.6896390" lon="-0.5422910">
        <ele>1259.0</ele>
        <time>2023-01-14T13:04:43Z</time>
      </trkpt>
      <trkpt lat="42.6896390" lon="-0.5422910">
        <ele>1259.0</ele>
        <time>2023-01-14T13:04:44Z</time>
      </trkpt>
      <trkpt lat="42.6896390" lon="-0.5422910">
        <ele>1259.0</ele>
        <time>2023-01-14T13:04:45Z</time>
      </trkpt>
      <trkpt lat="42.6896390" lon="-0.5422910">
        <ele>1259.0</ele>
        <time>2023-01-14T13:04:46Z</time>
      </trkpt>
      <trkpt lat="42.6896390" lon="-0.5422910">
        <ele>1259.0</ele>
        <time>2023-01-14T13:04:47Z</time>
      </trkpt>
      <trkpt lat="42.6896390" lon="-0.5422910">
        <ele>1259.0</ele>
        <time>2023-01-14T13:04:48Z</time>
      </trkpt>
      <trkpt lat="42.6896390" lon="-0.5422910">
        <ele>1259.0</ele>
        <time>2023-01-14T13:04:49Z</time>
      </trkpt>
      <trkpt lat="42.6896390" lon="-0.5422910">
        <ele>1259.0</ele>
        <time>2023-01-14T13:04:50Z</time>
      </trkpt>
      <trkpt lat="42.6896390" lon="-0.5422910">
        <ele>1259.0</ele>
        <time>2023-01-14T13:04:51Z</time>
      </trkpt>
      <trkpt lat="42.6896390" lon="-0.5422910">
        <ele>1259.0</ele>
        <time>2023-01-14T13:04:52Z</time>
      </trkpt>
      <trkpt lat="42.6896390" lon="-0.5422910">
        <ele>1259.0</ele>
        <time>2023-01-14T13:04:53Z</time>
      </trkpt>
      <trkpt lat="42.6896390" lon="-0.5422910">
        <ele>1259.0</ele>
        <time>2023-01-14T13:04:54Z</time>
      </trkpt>
      <trkpt lat="42.6896390" lon="-0.5422910">
        <ele>1259.0</ele>
        <time>2023-01-14T13:04:55Z</time>
      </trkpt>
      <trkpt lat="42.6896390" lon="-0.5422910">
        <ele>1259.0</ele>
        <time>2023-01-14T13:04:56Z</time>
      </trkpt>
      <trkpt lat="42.6896390" lon="-0.5422910">
        <ele>1259.0</ele>
        <time>2023-01-14T13:04:57Z</time>
      </trkpt>
      <trkpt lat="42.6896390" lon="-0.5422900">
        <ele>1259.0</ele>
        <time>2023-01-14T13:04:58Z</time>
      </trkpt>
      <trkpt lat="42.6896390" lon="-0.5422900">
        <ele>1259.0</ele>
        <time>2023-01-14T13:04:59Z</time>
      </trkpt>
      <trkpt lat="42.6896390" lon="-0.5422900">
        <ele>1259.0</ele>
        <time>2023-01-14T13:05:00Z</time>
      </trkpt>
      <trkpt lat="42.6896390" lon="-0.5422900">
        <ele>1259.0</ele>
        <time>2023-01-14T13:05:01Z</time>
      </trkpt>
      <trkpt lat="42.6896390" lon="-0.5422900">
        <ele>1259.0</ele>
        <time>2023-01-14T13:05:02Z</time>
      </trkpt>
      <trkpt lat="42.6896390" lon="-0.5422900">
        <ele>1259.0</ele>
        <time>2023-01-14T13:05:03Z</time>
      </trkpt>
      <trkpt lat="42.6896390" lon="-0.5422900">
        <ele>1259.0</ele>
        <time>2023-01-14T13:05:04Z</time>
      </trkpt>
      <trkpt lat="42.6896390" lon="-0.5422900">
        <ele>1259.0</ele>
        <time>2023-01-14T13:05:05Z</time>
      </trkpt>
      <trkpt lat="42.6896390" lon="-0.5422950">
        <ele>1259.0</ele>
        <time>2023-01-14T13:05:06Z</time>
      </trkpt>
      <trkpt lat="42.6896400" lon="-0.5422990">
        <ele>1259.0</ele>
        <time>2023-01-14T13:05:07Z</time>
      </trkpt>
      <trkpt lat="42.6896410" lon="-0.5423020">
        <ele>1259.0</ele>
        <time>2023-01-14T13:05:08Z</time>
      </trkpt>
      <trkpt lat="42.6896420" lon="-0.5423030">
        <ele>1259.0</ele>
        <time>2023-01-14T13:05:09Z</time>
      </trkpt>
      <trkpt lat="42.6896410" lon="-0.5423050">
        <ele>1259.0</ele>
        <time>2023-01-14T13:05:10Z</time>
      </trkpt>
      <trkpt lat="42.6896410" lon="-0.5423050">
        <ele>1259.0</ele>
        <time>2023-01-14T13:05:11Z</time>
      </trkpt>
      <trkpt lat="42.6896410" lon="-0.5423050">
        <ele>1259.0</ele>
        <time>2023-01-14T13:05:12Z</time>
      </trkpt>
      <trkpt lat="42.6896410" lon="-0.5423060">
        <ele>1259.0</ele>
        <time>2023-01-14T13:05:13Z</time>
      </trkpt>
      <trkpt lat="42.6896410" lon="-0.5423060">
        <ele>1259.0</ele>
        <time>2023-01-14T13:05:14Z</time>
      </trkpt>
      <trkpt lat="42.6896410" lon="-0.5423060">
        <ele>1259.0</ele>
        <time>2023-01-14T13:05:15Z</time>
      </trkpt>
      <trkpt lat="42.6896410" lon="-0.5423070">
        <ele>1259.0</ele>
        <time>2023-01-14T13:05:16Z</time>
      </trkpt>
      <trkpt lat="42.6896410" lon="-0.5423070">
        <ele>1259.0</ele>
        <time>2023-01-14T13:05:17Z</time>
      </trkpt>
      <trkpt lat="42.6896400" lon="-0.5423070">
        <ele>1259.0</ele>
        <time>2023-01-14T13:05:18Z</time>
      </trkpt>
      <trkpt lat="42.6896400" lon="-0.5423070">
        <ele>1259.0</ele>
        <time>2023-01-14T13:05:19Z</time>
      </trkpt>
      <trkpt lat="42.6896400" lon="-0.5423070">
        <ele>1259.0</ele>
        <time>2023-01-14T13:05:20Z</time>
      </trkpt>
      <trkpt lat="42.6896410" lon="-0.5423070">
        <ele>1259.0</ele>
        <time>2023-01-14T13:05:21Z</time>
      </trkpt>
      <trkpt lat="42.6896410" lon="-0.5423070">
        <ele>1259.0</ele>
        <time>2023-01-14T13:05:22Z</time>
      </trkpt>
      <trkpt lat="42.6896400" lon="-0.5423070">
        <ele>1259.0</ele>
        <time>2023-01-14T13:05:23Z</time>
      </trkpt>
      <trkpt lat="42.6896400" lon="-0.5423070">
        <ele>1259.0</ele>
        <time>2023-01-14T13:05:24Z</time>
      </trkpt>
      <trkpt lat="42.6896400" lon="-0.5423070">
        <ele>1259.0</ele>
        <time>2023-01-14T13:05:25Z</time>
      </trkpt>
      <trkpt lat="42.6896400" lon="-0.5423070">
        <ele>1259.0</ele>
        <time>2023-01-14T13:05:26Z</time>
      </trkpt>
      <trkpt lat="42.6896400" lon="-0.5423070">
        <ele>1259.0</ele>
        <time>2023-01-14T13:05:27Z</time>
      </trkpt>
      <trkpt lat="42.6896400" lon="-0.5423070">
        <ele>1259.0</ele>
        <time>2023-01-14T13:05:28Z</time>
      </trkpt>
      <trkpt lat="42.6896400" lon="-0.5423070">
        <ele>1259.0</ele>
        <time>2023-01-14T13:05:29Z</time>
      </trkpt>
      <trkpt lat="42.6896400" lon="-0.5423070">
        <ele>1259.0</ele>
        <time>2023-01-14T13:05:30Z</time>
      </trkpt>
      <trkpt lat="42.6896400" lon="-0.5423070">
        <ele>1259.0</ele>
        <time>2023-01-14T13:05:31Z</time>
      </trkpt>
      <trkpt lat="42.6896400" lon="-0.5423070">
        <ele>1259.0</ele>
        <time>2023-01-14T13:05:32Z</time>
      </trkpt>
      <trkpt lat="42.6896400" lon="-0.5423070">
        <ele>1259.0</ele>
        <time>2023-01-14T13:05:33Z</time>
      </trkpt>
      <trkpt lat="42.6896400" lon="-0.5423070">
        <ele>1259.0</ele>
        <time>2023-01-14T13:05:34Z</time>
      </trkpt>
      <trkpt lat="42.6896400" lon="-0.5423070">
        <ele>1259.0</ele>
        <time>2023-01-14T13:05:35Z</time>
      </trkpt>
      <trkpt lat="42.6896400" lon="-0.5423070">
        <ele>1259.0</ele>
        <time>2023-01-14T13:05:36Z</time>
      </trkpt>
      <trkpt lat="42.6896400" lon="-0.5423080">
        <ele>1259.0</ele>
        <time>2023-01-14T13:05:37Z</time>
      </trkpt>
      <trkpt lat="42.6896400" lon="-0.5423080">
        <ele>1259.0</ele>
        <time>2023-01-14T13:05:38Z</time>
      </trkpt>
      <trkpt lat="42.6896400" lon="-0.5423080">
        <ele>1259.0</ele>
        <time>2023-01-14T13:05:39Z</time>
      </trkpt>
      <trkpt lat="42.6896400" lon="-0.5423090">
        <ele>1259.0</ele>
        <time>2023-01-14T13:05:40Z</time>
      </trkpt>
      <trkpt lat="42.6896390" lon="-0.5423090">
        <ele>1259.0</ele>
        <time>2023-01-14T13:05:41Z</time>
      </trkpt>
      <trkpt lat="42.6896390" lon="-0.5423090">
        <ele>1259.0</ele>
        <time>2023-01-14T13:05:42Z</time>
      </trkpt>
      <trkpt lat="42.6896390" lon="-0.5423090">
        <ele>1259.0</ele>
        <time>2023-01-14T13:05:43Z</time>
      </trkpt>
      <trkpt lat="42.6896390" lon="-0.5423090">
        <ele>1259.0</ele>
        <time>2023-01-14T13:05:44Z</time>
      </trkpt>
      <trkpt lat="42.6896380" lon="-0.5423100">
        <ele>1259.0</ele>
        <time>2023-01-14T13:05:45Z</time>
      </trkpt>
      <trkpt lat="42.6896360" lon="-0.5423110">
        <ele>1259.0</ele>
        <time>2023-01-14T13:05:46Z</time>
      </trkpt>
      <trkpt lat="42.6896320" lon="-0.5423110">
        <ele>1259.0</ele>
        <time>2023-01-14T13:05:47Z</time>
      </trkpt>
      <trkpt lat="42.6896290" lon="-0.5423100">
        <ele>1259.0</ele>
        <time>2023-01-14T13:05:48Z</time>
      </trkpt>
      <trkpt lat="42.6896290" lon="-0.5423100">
        <ele>1259.0</ele>
        <time>2023-01-14T13:05:49Z</time>
      </trkpt>
      <trkpt lat="42.6896290" lon="-0.5423090">
        <ele>1259.0</ele>
        <time>2023-01-14T13:05:50Z</time>
      </trkpt>
      <trkpt lat="42.6896290" lon="-0.5423090">
        <ele>1259.0</ele>
        <time>2023-01-14T13:05:51Z</time>
      </trkpt>
      <trkpt lat="42.6896290" lon="-0.5423090">
        <ele>1259.0</ele>
        <time>2023-01-14T13:05:52Z</time>
      </trkpt>
      <trkpt lat="42.6896290" lon="-0.5423090">
        <ele>1259.0</ele>
        <time>2023-01-14T13:05:53Z</time>
      </trkpt>
      <trkpt lat="42.6896300" lon="-0.5423090">
        <ele>1259.0</ele>
        <time>2023-01-14T13:05:54Z</time>
      </trkpt>
      <trkpt lat="42.6896300" lon="-0.5423090">
        <ele>1259.0</ele>
        <time>2023-01-14T13:05:55Z</time>
      </trkpt>
      <trkpt lat="42.6896300" lon="-0.5423090">
        <ele>1259.0</ele>
        <time>2023-01-14T13:05:56Z</time>
      </trkpt>
      <trkpt lat="42.6896300" lon="-0.5423090">
        <ele>1259.0</ele>
        <time>2023-01-14T13:05:57Z</time>
      </trkpt>
      <trkpt lat="42.6896300" lon="-0.5423090">
        <ele>1259.0</ele>
        <time>2023-01-14T13:05:58Z</time>
      </trkpt>
      <trkpt lat="42.6896300" lon="-0.5423090">
        <ele>1259.0</ele>
        <time>2023-01-14T13:05:59Z</time>
      </trkpt>
      <trkpt lat="42.6896300" lon="-0.5423100">
        <ele>1259.0</ele>
        <time>2023-01-14T13:06:00Z</time>
      </trkpt>
      <trkpt lat="42.6896300" lon="-0.5423100">
        <ele>1259.0</ele>
        <time>2023-01-14T13:06:01Z</time>
      </trkpt>
      <trkpt lat="42.6896300" lon="-0.5423090">
        <ele>1259.0</ele>
        <time>2023-01-14T13:06:02Z</time>
      </trkpt>
      <trkpt lat="42.6896300" lon="-0.5423090">
        <ele>1259.0</ele>
        <time>2023-01-14T13:06:03Z</time>
      </trkpt>
      <trkpt lat="42.6896300" lon="-0.5423090">
        <ele>1259.0</ele>
        <time>2023-01-14T13:06:04Z</time>
      </trkpt>
      <trkpt lat="42.6896300" lon="-0.5423090">
        <ele>1259.0</ele>
        <time>2023-01-14T13:06:05Z</time>
      </trkpt>
      <trkpt lat="42.6896300" lon="-0.5423090">
        <ele>1259.0</ele>
        <time>2023-01-14T13:06:06Z</time>
      </trkpt>
      <trkpt lat="42.6896300" lon="-0.5423090">
        <ele>1259.0</ele>
        <time>2023-01-14T13:06:07Z</time>
      </trkpt>
      <trkpt lat="42.6896300" lon="-0.5423090">
        <ele>1259.0</ele>
        <time>2023-01-14T13:06:08Z</time>
      </trkpt>
      <trkpt lat="42.6896300" lon="-0.5423090">
        <ele>1259.0</ele>
        <time>2023-01-14T13:06:09Z</time>
      </trkpt>
      <trkpt lat="42.6896300" lon="-0.5423090">
        <ele>1259.0</ele>
        <time>2023-01-14T13:06:10Z</time>
      </trkpt>
      <trkpt lat="42.6896300" lon="-0.5423090">
        <ele>1259.0</ele>
        <time>2023-01-14T13:06:11Z</time>
      </trkpt>
      <trkpt lat="42.6896300" lon="-0.5423090">
        <ele>1259.0</ele>
        <time>2023-01-14T13:06:12Z</time>
      </trkpt>
      <trkpt lat="42.6896300" lon="-0.5423090">
        <ele>1259.0</ele>
        <time>2023-01-14T13:06:13Z</time>
      </trkpt>
      <trkpt lat="42.6896290" lon="-0.5423090">
        <ele>1259.0</ele>
        <time>2023-01-14T13:06:14Z</time>
      </trkpt>
      <trkpt lat="42.6896290" lon="-0.5423090">
        <ele>1259.0</ele>
        <time>2023-01-14T13:06:15Z</time>
      </trkpt>
      <trkpt lat="42.6896290" lon="-0.5423090">
        <ele>1259.0</ele>
        <time>2023-01-14T13:06:16Z</time>
      </trkpt>
      <trkpt lat="42.6896290" lon="-0.5423090">
        <ele>1259.0</ele>
        <time>2023-01-14T13:06:17Z</time>
      </trkpt>
      <trkpt lat="42.6896290" lon="-0.5423090">
        <ele>1259.0</ele>
        <time>2023-01-14T13:06:18Z</time>
      </trkpt>
      <trkpt lat="42.6896280" lon="-0.5423100">
        <ele>1259.0</ele>
        <time>2023-01-14T13:06:19Z</time>
      </trkpt>
      <trkpt lat="42.6896280" lon="-0.5423100">
        <ele>1259.0</ele>
        <time>2023-01-14T13:06:20Z</time>
      </trkpt>
      <trkpt lat="42.6896280" lon="-0.5423100">
        <ele>1259.0</ele>
        <time>2023-01-14T13:06:21Z</time>
      </trkpt>
      <trkpt lat="42.6896280" lon="-0.5423100">
        <ele>1259.0</ele>
        <time>2023-01-14T13:06:22Z</time>
      </trkpt>
      <trkpt lat="42.6896280" lon="-0.5423100">
        <ele>1259.0</ele>
        <time>2023-01-14T13:06:23Z</time>
      </trkpt>
      <trkpt lat="42.6896280" lon="-0.5423100">
        <ele>1259.0</ele>
        <time>2023-01-14T13:06:24Z</time>
      </trkpt>
      <trkpt lat="42.6896280" lon="-0.5423100">
        <ele>1259.0</ele>
        <time>2023-01-14T13:06:25Z</time>
      </trkpt>
      <trkpt lat="42.6896280" lon="-0.5423100">
        <ele>1259.0</ele>
        <time>2023-01-14T13:06:26Z</time>
      </trkpt>
      <trkpt lat="42.6896280" lon="-0.5423110">
        <ele>1259.0</ele>
        <time>2023-01-14T13:06:27Z</time>
      </trkpt>
      <trkpt lat="42.6896280" lon="-0.5423110">
        <ele>1259.0</ele>
        <time>2023-01-14T13:06:28Z</time>
      </trkpt>
      <trkpt lat="42.6896290" lon="-0.5423110">
        <ele>1259.0</ele>
        <time>2023-01-14T13:06:29Z</time>
      </trkpt>
      <trkpt lat="42.6896290" lon="-0.5423110">
        <ele>1259.0</ele>
        <time>2023-01-14T13:06:30Z</time>
      </trkpt>
      <trkpt lat="42.6896290" lon="-0.5423110">
        <ele>1259.0</ele>
        <time>2023-01-14T13:06:31Z</time>
      </trkpt>
      <trkpt lat="42.6896290" lon="-0.5423110">
        <ele>1259.0</ele>
        <time>2023-01-14T13:06:32Z</time>
      </trkpt>
      <trkpt lat="42.6896290" lon="-0.5423110">
        <ele>1259.0</ele>
        <time>2023-01-14T13:06:33Z</time>
      </trkpt>
      <trkpt lat="42.6896290" lon="-0.5423110">
        <ele>1259.0</ele>
        <time>2023-01-14T13:06:34Z</time>
      </trkpt>
      <trkpt lat="42.6896290" lon="-0.5423110">
        <ele>1259.0</ele>
        <time>2023-01-14T13:06:35Z</time>
      </trkpt>
      <trkpt lat="42.6896290" lon="-0.5423110">
        <ele>1259.0</ele>
        <time>2023-01-14T13:06:36Z</time>
      </trkpt>
      <trkpt lat="42.6896300" lon="-0.5423110">
        <ele>1259.0</ele>
        <time>2023-01-14T13:06:37Z</time>
      </trkpt>
      <trkpt lat="42.6896300" lon="-0.5423110">
        <ele>1259.0</ele>
        <time>2023-01-14T13:06:38Z</time>
      </trkpt>
      <trkpt lat="42.6896300" lon="-0.5423110">
        <ele>1259.0</ele>
        <time>2023-01-14T13:06:39Z</time>
      </trkpt>
      <trkpt lat="42.6896300" lon="-0.5423110">
        <ele>1259.0</ele>
        <time>2023-01-14T13:06:40Z</time>
      </trkpt>
      <trkpt lat="42.6896300" lon="-0.5423110">
        <ele>1259.0</ele>
        <time>2023-01-14T13:06:41Z</time>
      </trkpt>
      <trkpt lat="42.6896300" lon="-0.5423110">
        <ele>1259.0</ele>
        <time>2023-01-14T13:06:42Z</time>
      </trkpt>
      <trkpt lat="42.6896300" lon="-0.5423110">
        <ele>1259.0</ele>
        <time>2023-01-14T13:06:43Z</time>
      </trkpt>
      <trkpt lat="42.6896300" lon="-0.5423100">
        <ele>1259.0</ele>
        <time>2023-01-14T13:06:44Z</time>
      </trkpt>
      <trkpt lat="42.6896300" lon="-0.5423100">
        <ele>1259.0</ele>
        <time>2023-01-14T13:06:45Z</time>
      </trkpt>
      <trkpt lat="42.6896300" lon="-0.5423100">
        <ele>1259.0</ele>
        <time>2023-01-14T13:06:46Z</time>
      </trkpt>
      <trkpt lat="42.6896300" lon="-0.5423090">
        <ele>1259.0</ele>
        <time>2023-01-14T13:06:47Z</time>
      </trkpt>
      <trkpt lat="42.6896300" lon="-0.5423090">
        <ele>1259.0</ele>
        <time>2023-01-14T13:06:48Z</time>
      </trkpt>
      <trkpt lat="42.6896290" lon="-0.5423090">
        <ele>1259.0</ele>
        <time>2023-01-14T13:06:49Z</time>
      </trkpt>
      <trkpt lat="42.6896290" lon="-0.5423080">
        <ele>1259.0</ele>
        <time>2023-01-14T13:06:50Z</time>
      </trkpt>
      <trkpt lat="42.6896290" lon="-0.5423080">
        <ele>1259.0</ele>
        <time>2023-01-14T13:06:51Z</time>
      </trkpt>
      <trkpt lat="42.6896290" lon="-0.5423080">
        <ele>1259.0</ele>
        <time>2023-01-14T13:06:52Z</time>
      </trkpt>
      <trkpt lat="42.6896280" lon="-0.5423080">
        <ele>1259.0</ele>
        <time>2023-01-14T13:06:53Z</time>
      </trkpt>
      <trkpt lat="42.6896280" lon="-0.5423080">
        <ele>1259.0</ele>
        <time>2023-01-14T13:06:54Z</time>
      </trkpt>
      <trkpt lat="42.6896280" lon="-0.5423090">
        <ele>1259.0</ele>
        <time>2023-01-14T13:06:55Z</time>
      </trkpt>
      <trkpt lat="42.6896280" lon="-0.5423090">
        <ele>1259.0</ele>
        <time>2023-01-14T13:06:56Z</time>
      </trkpt>
      <trkpt lat="42.6896280" lon="-0.5423090">
        <ele>1259.0</ele>
        <time>2023-01-14T13:06:57Z</time>
      </trkpt>
      <trkpt lat="42.6896280" lon="-0.5423090">
        <ele>1259.0</ele>
        <time>2023-01-14T13:06:58Z</time>
      </trkpt>
      <trkpt lat="42.6896280" lon="-0.5423090">
        <ele>1259.0</ele>
        <time>2023-01-14T13:06:59Z</time>
      </trkpt>
      <trkpt lat="42.6896280" lon="-0.5423090">
        <ele>1259.0</ele>
        <time>2023-01-14T13:07:00Z</time>
      </trkpt>
      <trkpt lat="42.6896280" lon="-0.5423090">
        <ele>1259.0</ele>
        <time>2023-01-14T13:07:01Z</time>
      </trkpt>
      <trkpt lat="42.6896280" lon="-0.5423090">
        <ele>1259.0</ele>
        <time>2023-01-14T13:07:02Z</time>
      </trkpt>
      <trkpt lat="42.6896270" lon="-0.5423090">
        <ele>1259.0</ele>
        <time>2023-01-14T13:07:03Z</time>
      </trkpt>
      <trkpt lat="42.6896270" lon="-0.5423090">
        <ele>1259.0</ele>
        <time>2023-01-14T13:07:04Z</time>
      </trkpt>
      <trkpt lat="42.6896270" lon="-0.5423100">
        <ele>1259.0</ele>
        <time>2023-01-14T13:07:05Z</time>
      </trkpt>
      <trkpt lat="42.6896270" lon="-0.5423100">
        <ele>1259.0</ele>
        <time>2023-01-14T13:07:06Z</time>
      </trkpt>
      <trkpt lat="42.6896270" lon="-0.5423100">
        <ele>1259.0</ele>
        <time>2023-01-14T13:07:07Z</time>
      </trkpt>
      <trkpt lat="42.6896270" lon="-0.5423100">
        <ele>1259.0</ele>
        <time>2023-01-14T13:07:08Z</time>
      </trkpt>
      <trkpt lat="42.6896270" lon="-0.5423110">
        <ele>1259.0</ele>
        <time>2023-01-14T13:07:09Z</time>
      </trkpt>
      <trkpt lat="42.6896270" lon="-0.5423110">
        <ele>1259.0</ele>
        <time>2023-01-14T13:07:10Z</time>
      </trkpt>
      <trkpt lat="42.6896260" lon="-0.5423110">
        <ele>1259.0</ele>
        <time>2023-01-14T13:07:11Z</time>
      </trkpt>
      <trkpt lat="42.6896260" lon="-0.5423110">
        <ele>1259.0</ele>
        <time>2023-01-14T13:07:12Z</time>
      </trkpt>
      <trkpt lat="42.6896260" lon="-0.5423110">
        <ele>1259.0</ele>
        <time>2023-01-14T13:07:13Z</time>
      </trkpt>
      <trkpt lat="42.6896260" lon="-0.5423120">
        <ele>1259.0</ele>
        <time>2023-01-14T13:07:14Z</time>
      </trkpt>
      <trkpt lat="42.6896260" lon="-0.5423120">
        <ele>1259.0</ele>
        <time>2023-01-14T13:07:15Z</time>
      </trkpt>
      <trkpt lat="42.6896260" lon="-0.5423120">
        <ele>1259.0</ele>
        <time>2023-01-14T13:07:16Z</time>
      </trkpt>
      <trkpt lat="42.6896260" lon="-0.5423120">
        <ele>1259.0</ele>
        <time>2023-01-14T13:07:17Z</time>
      </trkpt>
      <trkpt lat="42.6896260" lon="-0.5423120">
        <ele>1259.0</ele>
        <time>2023-01-14T13:07:18Z</time>
      </trkpt>
      <trkpt lat="42.6896260" lon="-0.5423120">
        <ele>1259.0</ele>
        <time>2023-01-14T13:07:19Z</time>
      </trkpt>
      <trkpt lat="42.6896260" lon="-0.5423120">
        <ele>1259.0</ele>
        <time>2023-01-14T13:07:20Z</time>
      </trkpt>
      <trkpt lat="42.6896260" lon="-0.5423120">
        <ele>1259.0</ele>
        <time>2023-01-14T13:07:21Z</time>
      </trkpt>
      <trkpt lat="42.6896260" lon="-0.5423120">
        <ele>1259.0</ele>
        <time>2023-01-14T13:07:22Z</time>
      </trkpt>
      <trkpt lat="42.6896260" lon="-0.5423110">
        <ele>1259.0</ele>
        <time>2023-01-14T13:07:23Z</time>
      </trkpt>
      <trkpt lat="42.6896260" lon="-0.5423110">
        <ele>1259.0</ele>
        <time>2023-01-14T13:07:24Z</time>
      </trkpt>
      <trkpt lat="42.6896250" lon="-0.5423110">
        <ele>1259.0</ele>
        <time>2023-01-14T13:07:25Z</time>
      </trkpt>
      <trkpt lat="42.6896250" lon="-0.5423110">
        <ele>1259.0</ele>
        <time>2023-01-14T13:07:26Z</time>
      </trkpt>
      <trkpt lat="42.6896250" lon="-0.5423110">
        <ele>1259.0</ele>
        <time>2023-01-14T13:07:27Z</time>
      </trkpt>
      <trkpt lat="42.6896250" lon="-0.5423110">
        <ele>1259.0</ele>
        <time>2023-01-14T13:07:28Z</time>
      </trkpt>
      <trkpt lat="42.6896250" lon="-0.5423110">
        <ele>1259.0</ele>
        <time>2023-01-14T13:07:29Z</time>
      </trkpt>
      <trkpt lat="42.6896250" lon="-0.5423110">
        <ele>1259.0</ele>
        <time>2023-01-14T13:07:30Z</time>
      </trkpt>
      <trkpt lat="42.6896240" lon="-0.5423100">
        <ele>1259.0</ele>
        <time>2023-01-14T13:07:31Z</time>
      </trkpt>
      <trkpt lat="42.6896240" lon="-0.5423100">
        <ele>1259.0</ele>
        <time>2023-01-14T13:07:32Z</time>
      </trkpt>
      <trkpt lat="42.6896240" lon="-0.5423100">
        <ele>1259.0</ele>
        <time>2023-01-14T13:07:33Z</time>
      </trkpt>
      <trkpt lat="42.6896240" lon="-0.5423100">
        <ele>1259.0</ele>
        <time>2023-01-14T13:07:34Z</time>
      </trkpt>
      <trkpt lat="42.6896240" lon="-0.5423100">
        <ele>1259.0</ele>
        <time>2023-01-14T13:07:35Z</time>
      </trkpt>
      <trkpt lat="42.6896240" lon="-0.5423100">
        <ele>1259.0</ele>
        <time>2023-01-14T13:07:36Z</time>
      </trkpt>
      <trkpt lat="42.6896250" lon="-0.5423100">
        <ele>1259.0</ele>
        <time>2023-01-14T13:07:37Z</time>
      </trkpt>
      <trkpt lat="42.6896250" lon="-0.5423110">
        <ele>1259.0</ele>
        <time>2023-01-14T13:07:38Z</time>
      </trkpt>
      <trkpt lat="42.6896250" lon="-0.5423100">
        <ele>1259.0</ele>
        <time>2023-01-14T13:07:39Z</time>
      </trkpt>
      <trkpt lat="42.6896250" lon="-0.5423100">
        <ele>1259.0</ele>
        <time>2023-01-14T13:07:40Z</time>
      </trkpt>
      <trkpt lat="42.6896250" lon="-0.5423100">
        <ele>1259.0</ele>
        <time>2023-01-14T13:07:41Z</time>
      </trkpt>
      <trkpt lat="42.6896260" lon="-0.5423100">
        <ele>1259.0</ele>
        <time>2023-01-14T13:07:42Z</time>
      </trkpt>
      <trkpt lat="42.6896260" lon="-0.5423100">
        <ele>1259.0</ele>
        <time>2023-01-14T13:07:43Z</time>
      </trkpt>
      <trkpt lat="42.6896260" lon="-0.5423110">
        <ele>1259.0</ele>
        <time>2023-01-14T13:07:44Z</time>
      </trkpt>
      <trkpt lat="42.6896260" lon="-0.5423110">
        <ele>1259.0</ele>
        <time>2023-01-14T13:07:45Z</time>
      </trkpt>
      <trkpt lat="42.6896270" lon="-0.5423110">
        <ele>1259.0</ele>
        <time>2023-01-14T13:07:46Z</time>
      </trkpt>
      <trkpt lat="42.6896270" lon="-0.5423110">
        <ele>1259.0</ele>
        <time>2023-01-14T13:07:47Z</time>
      </trkpt>
      <trkpt lat="42.6896270" lon="-0.5423110">
        <ele>1259.0</ele>
        <time>2023-01-14T13:07:48Z</time>
      </trkpt>
      <trkpt lat="42.6896270" lon="-0.5423110">
        <ele>1259.0</ele>
        <time>2023-01-14T13:07:49Z</time>
      </trkpt>
      <trkpt lat="42.6896280" lon="-0.5423110">
        <ele>1259.0</ele>
        <time>2023-01-14T13:07:50Z</time>
      </trkpt>
      <trkpt lat="42.6896280" lon="-0.5423110">
        <ele>1259.0</ele>
        <time>2023-01-14T13:07:51Z</time>
      </trkpt>
      <trkpt lat="42.6896280" lon="-0.5423110">
        <ele>1259.0</ele>
        <time>2023-01-14T13:07:52Z</time>
      </trkpt>
      <trkpt lat="42.6896280" lon="-0.5423110">
        <ele>1259.0</ele>
        <time>2023-01-14T13:07:53Z</time>
      </trkpt>
      <trkpt lat="42.6896290" lon="-0.5423110">
        <ele>1259.0</ele>
        <time>2023-01-14T13:07:54Z</time>
      </trkpt>
      <trkpt lat="42.6896290" lon="-0.5423110">
        <ele>1259.0</ele>
        <time>2023-01-14T13:07:55Z</time>
      </trkpt>
      <trkpt lat="42.6896290" lon="-0.5423110">
        <ele>1259.0</ele>
        <time>2023-01-14T13:07:56Z</time>
      </trkpt>
      <trkpt lat="42.6896290" lon="-0.5423110">
        <ele>1259.0</ele>
        <time>2023-01-14T13:07:57Z</time>
      </trkpt>
      <trkpt lat="42.6896290" lon="-0.5423110">
        <ele>1259.0</ele>
        <time>2023-01-14T13:07:58Z</time>
      </trkpt>
      <trkpt lat="42.6896290" lon="-0.5423110">
        <ele>1259.0</ele>
        <time>2023-01-14T13:07:59Z</time>
      </trkpt>
      <trkpt lat="42.6896290" lon="-0.5423110">
        <ele>1259.0</ele>
        <time>2023-01-14T13:08:00Z</time>
      </trkpt>
      <trkpt lat="42.6896290" lon="-0.5423110">
        <ele>1259.0</ele>
        <time>2023-01-14T13:08:01Z</time>
      </trkpt>
      <trkpt lat="42.6896290" lon="-0.5423110">
        <ele>1259.0</ele>
        <time>2023-01-14T13:08:02Z</time>
      </trkpt>
      <trkpt lat="42.6896290" lon="-0.5423110">
        <ele>1259.0</ele>
        <time>2023-01-14T13:08:03Z</time>
      </trkpt>
      <trkpt lat="42.6896290" lon="-0.5423110">
        <ele>1259.0</ele>
        <time>2023-01-14T13:08:04Z</time>
      </trkpt>
      <trkpt lat="42.6896290" lon="-0.5423120">
        <ele>1259.0</ele>
        <time>2023-01-14T13:08:05Z</time>
      </trkpt>
      <trkpt lat="42.6896290" lon="-0.5423120">
        <ele>1259.0</ele>
        <time>2023-01-14T13:08:06Z</time>
      </trkpt>
      <trkpt lat="42.6896290" lon="-0.5423120">
        <ele>1259.0</ele>
        <time>2023-01-14T13:08:07Z</time>
      </trkpt>
      <trkpt lat="42.6896290" lon="-0.5423120">
        <ele>1259.0</ele>
        <time>2023-01-14T13:08:08Z</time>
      </trkpt>
      <trkpt lat="42.6896290" lon="-0.5423130">
        <ele>1259.0</ele>
        <time>2023-01-14T13:08:09Z</time>
      </trkpt>
      <trkpt lat="42.6896290" lon="-0.5423130">
        <ele>1259.0</ele>
        <time>2023-01-14T13:08:10Z</time>
      </trkpt>
      <trkpt lat="42.6896290" lon="-0.5423130">
        <ele>1259.0</ele>
        <time>2023-01-14T13:08:11Z</time>
      </trkpt>
      <trkpt lat="42.6896290" lon="-0.5423140">
        <ele>1259.0</ele>
        <time>2023-01-14T13:08:12Z</time>
      </trkpt>
      <trkpt lat="42.6896290" lon="-0.5423140">
        <ele>1259.0</ele>
        <time>2023-01-14T13:08:13Z</time>
      </trkpt>
      <trkpt lat="42.6896280" lon="-0.5423140">
        <ele>1259.0</ele>
        <time>2023-01-14T13:08:14Z</time>
      </trkpt>
      <trkpt lat="42.6896280" lon="-0.5423140">
        <ele>1259.0</ele>
        <time>2023-01-14T13:08:15Z</time>
      </trkpt>
      <trkpt lat="42.6896280" lon="-0.5423150">
        <ele>1259.0</ele>
        <time>2023-01-14T13:08:16Z</time>
      </trkpt>
      <trkpt lat="42.6896280" lon="-0.5423150">
        <ele>1259.0</ele>
        <time>2023-01-14T13:08:17Z</time>
      </trkpt>
      <trkpt lat="42.6896280" lon="-0.5423150">
        <ele>1259.0</ele>
        <time>2023-01-14T13:08:18Z</time>
      </trkpt>
      <trkpt lat="42.6896280" lon="-0.5423150">
        <ele>1259.0</ele>
        <time>2023-01-14T13:08:19Z</time>
      </trkpt>
      <trkpt lat="42.6896280" lon="-0.5423150">
        <ele>1259.0</ele>
        <time>2023-01-14T13:08:20Z</time>
      </trkpt>
      <trkpt lat="42.6896280" lon="-0.5423150">
        <ele>1259.0</ele>
        <time>2023-01-14T13:08:21Z</time>
      </trkpt>
      <trkpt lat="42.6896280" lon="-0.5423150">
        <ele>1259.0</ele>
        <time>2023-01-14T13:08:22Z</time>
      </trkpt>
      <trkpt lat="42.6896280" lon="-0.5423150">
        <ele>1259.0</ele>
        <time>2023-01-14T13:08:23Z</time>
      </trkpt>
      <trkpt lat="42.6896280" lon="-0.5423150">
        <ele>1259.0</ele>
        <time>2023-01-14T13:08:24Z</time>
      </trkpt>
      <trkpt lat="42.6896280" lon="-0.5423150">
        <ele>1259.0</ele>
        <time>2023-01-14T13:08:25Z</time>
      </trkpt>
      <trkpt lat="42.6896280" lon="-0.5423150">
        <ele>1259.0</ele>
        <time>2023-01-14T13:08:26Z</time>
      </trkpt>
      <trkpt lat="42.6896280" lon="-0.5423150">
        <ele>1259.0</ele>
        <time>2023-01-14T13:08:27Z</time>
      </trkpt>
      <trkpt lat="42.6896280" lon="-0.5423150">
        <ele>1259.0</ele>
        <time>2023-01-14T13:08:28Z</time>
      </trkpt>
      <trkpt lat="42.6896280" lon="-0.5423150">
        <ele>1259.0</ele>
        <time>2023-01-14T13:08:29Z</time>
      </trkpt>
      <trkpt lat="42.6896280" lon="-0.5423140">
        <ele>1259.0</ele>
        <time>2023-01-14T13:08:30Z</time>
      </trkpt>
      <trkpt lat="42.6896290" lon="-0.5423140">
        <ele>1259.0</ele>
        <time>2023-01-14T13:08:31Z</time>
      </trkpt>
      <trkpt lat="42.6896290" lon="-0.5423140">
        <ele>1259.0</ele>
        <time>2023-01-14T13:08:32Z</time>
      </trkpt>
      <trkpt lat="42.6896290" lon="-0.5423140">
        <ele>1259.0</ele>
        <time>2023-01-14T13:08:33Z</time>
      </trkpt>
      <trkpt lat="42.6896290" lon="-0.5423140">
        <ele>1259.0</ele>
        <time>2023-01-14T13:08:34Z</time>
      </trkpt>
      <trkpt lat="42.6896290" lon="-0.5423140">
        <ele>1259.0</ele>
        <time>2023-01-14T13:08:35Z</time>
      </trkpt>
      <trkpt lat="42.6896300" lon="-0.5423140">
        <ele>1259.0</ele>
        <time>2023-01-14T13:08:36Z</time>
      </trkpt>
      <trkpt lat="42.6896300" lon="-0.5423140">
        <ele>1259.0</ele>
        <time>2023-01-14T13:08:37Z</time>
      </trkpt>
      <trkpt lat="42.6896300" lon="-0.5423140">
        <ele>1259.0</ele>
        <time>2023-01-14T13:08:38Z</time>
      </trkpt>
      <trkpt lat="42.6896300" lon="-0.5423140">
        <ele>1259.0</ele>
        <time>2023-01-14T13:08:39Z</time>
      </trkpt>
      <trkpt lat="42.6896300" lon="-0.5423140">
        <ele>1259.0</ele>
        <time>2023-01-14T13:08:40Z</time>
      </trkpt>
      <trkpt lat="42.6896300" lon="-0.5423140">
        <ele>1259.0</ele>
        <time>2023-01-14T13:08:41Z</time>
      </trkpt>
      <trkpt lat="42.6896300" lon="-0.5423150">
        <ele>1259.0</ele>
        <time>2023-01-14T13:08:42Z</time>
      </trkpt>
      <trkpt lat="42.6896300" lon="-0.5423150">
        <ele>1259.0</ele>
        <time>2023-01-14T13:08:43Z</time>
      </trkpt>
      <trkpt lat="42.6896300" lon="-0.5423150">
        <ele>1259.0</ele>
        <time>2023-01-14T13:08:44Z</time>
      </trkpt>
      <trkpt lat="42.6896300" lon="-0.5423150">
        <ele>1259.0</ele>
        <time>2023-01-14T13:08:45Z</time>
      </trkpt>
      <trkpt lat="42.6896300" lon="-0.5423160">
        <ele>1259.0</ele>
        <time>2023-01-14T13:08:46Z</time>
      </trkpt>
      <trkpt lat="42.6896300" lon="-0.5423170">
        <ele>1259.0</ele>
        <time>2023-01-14T13:08:47Z</time>
      </trkpt>
      <trkpt lat="42.6896300" lon="-0.5423170">
        <ele>1259.0</ele>
        <time>2023-01-14T13:08:48Z</time>
      </trkpt>
      <trkpt lat="42.6896300" lon="-0.5423170">
        <ele>1259.0</ele>
        <time>2023-01-14T13:08:49Z</time>
      </trkpt>
      <trkpt lat="42.6896300" lon="-0.5423160">
        <ele>1259.0</ele>
        <time>2023-01-14T13:08:50Z</time>
      </trkpt>
      <trkpt lat="42.6896300" lon="-0.5423160">
        <ele>1259.0</ele>
        <time>2023-01-14T13:08:51Z</time>
      </trkpt>
      <trkpt lat="42.6896300" lon="-0.5423160">
        <ele>1259.0</ele>
        <time>2023-01-14T13:08:52Z</time>
      </trkpt>
      <trkpt lat="42.6896300" lon="-0.5423150">
        <ele>1259.0</ele>
        <time>2023-01-14T13:08:53Z</time>
      </trkpt>
      <trkpt lat="42.6896300" lon="-0.5423150">
        <ele>1259.0</ele>
        <time>2023-01-14T13:08:54Z</time>
      </trkpt>
      <trkpt lat="42.6896300" lon="-0.5423140">
        <ele>1259.0</ele>
        <time>2023-01-14T13:08:55Z</time>
      </trkpt>
      <trkpt lat="42.6896300" lon="-0.5423140">
        <ele>1259.0</ele>
        <time>2023-01-14T13:08:56Z</time>
      </trkpt>
      <trkpt lat="42.6896300" lon="-0.5423140">
        <ele>1259.0</ele>
        <time>2023-01-14T13:08:57Z</time>
      </trkpt>
      <trkpt lat="42.6896300" lon="-0.5423140">
        <ele>1259.0</ele>
        <time>2023-01-14T13:08:58Z</time>
      </trkpt>
      <trkpt lat="42.6896300" lon="-0.5423140">
        <ele>1259.0</ele>
        <time>2023-01-14T13:08:59Z</time>
      </trkpt>
      <trkpt lat="42.6896300" lon="-0.5423130">
        <ele>1259.0</ele>
        <time>2023-01-14T13:09:00Z</time>
      </trkpt>
      <trkpt lat="42.6896290" lon="-0.5423130">
        <ele>1259.0</ele>
        <time>2023-01-14T13:09:01Z</time>
      </trkpt>
      <trkpt lat="42.6896290" lon="-0.5423130">
        <ele>1259.0</ele>
        <time>2023-01-14T13:09:02Z</time>
      </trkpt>
      <trkpt lat="42.6896290" lon="-0.5423120">
        <ele>1259.0</ele>
        <time>2023-01-14T13:09:03Z</time>
      </trkpt>
      <trkpt lat="42.6896290" lon="-0.5423120">
        <ele>1259.0</ele>
        <time>2023-01-14T13:09:04Z</time>
      </trkpt>
      <trkpt lat="42.6896290" lon="-0.5423110">
        <ele>1259.0</ele>
        <time>2023-01-14T13:09:05Z</time>
      </trkpt>
      <trkpt lat="42.6896290" lon="-0.5423110">
        <ele>1259.0</ele>
        <time>2023-01-14T13:09:06Z</time>
      </trkpt>
      <trkpt lat="42.6896290" lon="-0.5423110">
        <ele>1259.0</ele>
        <time>2023-01-14T13:09:07Z</time>
      </trkpt>
      <trkpt lat="42.6896290" lon="-0.5423100">
        <ele>1259.0</ele>
        <time>2023-01-14T13:09:08Z</time>
      </trkpt>
      <trkpt lat="42.6896290" lon="-0.5423100">
        <ele>1259.0</ele>
        <time>2023-01-14T13:09:09Z</time>
      </trkpt>
      <trkpt lat="42.6896290" lon="-0.5423100">
        <ele>1259.0</ele>
        <time>2023-01-14T13:09:10Z</time>
      </trkpt>
      <trkpt lat="42.6896290" lon="-0.5423090">
        <ele>1259.0</ele>
        <time>2023-01-14T13:09:11Z</time>
      </trkpt>
      <trkpt lat="42.6896290" lon="-0.5423090">
        <ele>1259.0</ele>
        <time>2023-01-14T13:09:12Z</time>
      </trkpt>
      <trkpt lat="42.6896280" lon="-0.5423090">
        <ele>1259.0</ele>
        <time>2023-01-14T13:09:13Z</time>
      </trkpt>
      <trkpt lat="42.6896280" lon="-0.5423090">
        <ele>1259.0</ele>
        <time>2023-01-14T13:09:14Z</time>
      </trkpt>
      <trkpt lat="42.6896280" lon="-0.5423090">
        <ele>1259.0</ele>
        <time>2023-01-14T13:09:15Z</time>
      </trkpt>
      <trkpt lat="42.6896280" lon="-0.5423090">
        <ele>1259.0</ele>
        <time>2023-01-14T13:09:16Z</time>
      </trkpt>
      <trkpt lat="42.6896280" lon="-0.5423090">
        <ele>1259.0</ele>
        <time>2023-01-14T13:09:17Z</time>
      </trkpt>
      <trkpt lat="42.6896280" lon="-0.5423090">
        <ele>1259.0</ele>
        <time>2023-01-14T13:09:18Z</time>
      </trkpt>
      <trkpt lat="42.6896280" lon="-0.5423090">
        <ele>1259.0</ele>
        <time>2023-01-14T13:09:19Z</time>
      </trkpt>
      <trkpt lat="42.6896280" lon="-0.5423090">
        <ele>1259.0</ele>
        <time>2023-01-14T13:09:20Z</time>
      </trkpt>
      <trkpt lat="42.6896280" lon="-0.5423090">
        <ele>1259.0</ele>
        <time>2023-01-14T13:09:21Z</time>
      </trkpt>
      <trkpt lat="42.6896280" lon="-0.5423090">
        <ele>1259.0</ele>
        <time>2023-01-14T13:09:22Z</time>
      </trkpt>
      <trkpt lat="42.6896280" lon="-0.5423090">
        <ele>1259.0</ele>
        <time>2023-01-14T13:09:23Z</time>
      </trkpt>
      <trkpt lat="42.6896280" lon="-0.5423080">
        <ele>1259.0</ele>
        <time>2023-01-14T13:09:24Z</time>
      </trkpt>
      <trkpt lat="42.6896280" lon="-0.5423080">
        <ele>1259.0</ele>
        <time>2023-01-14T13:09:25Z</time>
      </trkpt>
      <trkpt lat="42.6896280" lon="-0.5423080">
        <ele>1259.0</ele>
        <time>2023-01-14T13:09:26Z</time>
      </trkpt>
      <trkpt lat="42.6896280" lon="-0.5423080">
        <ele>1259.0</ele>
        <time>2023-01-14T13:09:27Z</time>
      </trkpt>
      <trkpt lat="42.6896280" lon="-0.5423080">
        <ele>1259.0</ele>
        <time>2023-01-14T13:09:28Z</time>
      </trkpt>
      <trkpt lat="42.6896280" lon="-0.5423070">
        <ele>1259.0</ele>
        <time>2023-01-14T13:09:29Z</time>
      </trkpt>
      <trkpt lat="42.6896280" lon="-0.5423070">
        <ele>1259.0</ele>
        <time>2023-01-14T13:09:30Z</time>
      </trkpt>
      <trkpt lat="42.6896280" lon="-0.5423070">
        <ele>1259.0</ele>
        <time>2023-01-14T13:09:31Z</time>
      </trkpt>
      <trkpt lat="42.6896280" lon="-0.5423070">
        <ele>1259.0</ele>
        <time>2023-01-14T13:09:32Z</time>
      </trkpt>
      <trkpt lat="42.6896280" lon="-0.5423070">
        <ele>1259.0</ele>
        <time>2023-01-14T13:09:33Z</time>
      </trkpt>
      <trkpt lat="42.6896280" lon="-0.5423070">
        <ele>1259.0</ele>
        <time>2023-01-14T13:09:34Z</time>
      </trkpt>
      <trkpt lat="42.6896280" lon="-0.5423070">
        <ele>1259.0</ele>
        <time>2023-01-14T13:09:35Z</time>
      </trkpt>
      <trkpt lat="42.6896280" lon="-0.5423070">
        <ele>1259.0</ele>
        <time>2023-01-14T13:09:36Z</time>
      </trkpt>
      <trkpt lat="42.6896280" lon="-0.5423070">
        <ele>1259.0</ele>
        <time>2023-01-14T13:09:37Z</time>
      </trkpt>
      <trkpt lat="42.6896280" lon="-0.5423070">
        <ele>1259.0</ele>
        <time>2023-01-14T13:09:38Z</time>
      </trkpt>
      <trkpt lat="42.6896280" lon="-0.5423070">
        <ele>1259.0</ele>
        <time>2023-01-14T13:09:39Z</time>
      </trkpt>
      <trkpt lat="42.6896280" lon="-0.5423070">
        <ele>1259.0</ele>
        <time>2023-01-14T13:09:40Z</time>
      </trkpt>
      <trkpt lat="42.6896280" lon="-0.5423070">
        <ele>1259.0</ele>
        <time>2023-01-14T13:09:41Z</time>
      </trkpt>
      <trkpt lat="42.6896280" lon="-0.5423070">
        <ele>1259.0</ele>
        <time>2023-01-14T13:09:42Z</time>
      </trkpt>
      <trkpt lat="42.6896270" lon="-0.5423080">
        <ele>1259.0</ele>
        <time>2023-01-14T13:09:43Z</time>
      </trkpt>
      <trkpt lat="42.6896270" lon="-0.5423070">
        <ele>1259.0</ele>
        <time>2023-01-14T13:09:44Z</time>
      </trkpt>
      <trkpt lat="42.6896270" lon="-0.5423070">
        <ele>1259.0</ele>
        <time>2023-01-14T13:09:45Z</time>
      </trkpt>
      <trkpt lat="42.6896270" lon="-0.5423080">
        <ele>1259.0</ele>
        <time>2023-01-14T13:09:46Z</time>
      </trkpt>
      <trkpt lat="42.6896260" lon="-0.5423080">
        <ele>1259.0</ele>
        <time>2023-01-14T13:09:47Z</time>
      </trkpt>
      <trkpt lat="42.6896260" lon="-0.5423080">
        <ele>1259.0</ele>
        <time>2023-01-14T13:09:48Z</time>
      </trkpt>
      <trkpt lat="42.6896260" lon="-0.5423080">
        <ele>1259.0</ele>
        <time>2023-01-14T13:09:49Z</time>
      </trkpt>
      <trkpt lat="42.6896260" lon="-0.5423080">
        <ele>1259.0</ele>
        <time>2023-01-14T13:09:50Z</time>
      </trkpt>
      <trkpt lat="42.6896260" lon="-0.5423080">
        <ele>1259.0</ele>
        <time>2023-01-14T13:09:51Z</time>
      </trkpt>
      <trkpt lat="42.6896260" lon="-0.5423080">
        <ele>1259.0</ele>
        <time>2023-01-14T13:09:52Z</time>
      </trkpt>
      <trkpt lat="42.6896260" lon="-0.5423070">
        <ele>1259.0</ele>
        <time>2023-01-14T13:09:53Z</time>
      </trkpt>
      <trkpt lat="42.6896260" lon="-0.5423070">
        <ele>1259.0</ele>
        <time>2023-01-14T13:09:54Z</time>
      </trkpt>
      <trkpt lat="42.6896260" lon="-0.5423070">
        <ele>1259.0</ele>
        <time>2023-01-14T13:09:55Z</time>
      </trkpt>
      <trkpt lat="42.6896260" lon="-0.5423060">
        <ele>1259.0</ele>
        <time>2023-01-14T13:09:56Z</time>
      </trkpt>
      <trkpt lat="42.6896260" lon="-0.5423060">
        <ele>1259.0</ele>
        <time>2023-01-14T13:09:57Z</time>
      </trkpt>
      <trkpt lat="42.6896260" lon="-0.5423060">
        <ele>1259.0</ele>
        <time>2023-01-14T13:09:58Z</time>
      </trkpt>
      <trkpt lat="42.6896260" lon="-0.5423060">
        <ele>1259.0</ele>
        <time>2023-01-14T13:09:59Z</time>
      </trkpt>
      <trkpt lat="42.6896260" lon="-0.5423060">
        <ele>1259.0</ele>
        <time>2023-01-14T13:10:00Z</time>
      </trkpt>
      <trkpt lat="42.6896260" lon="-0.5423060">
        <ele>1259.0</ele>
        <time>2023-01-14T13:10:01Z</time>
      </trkpt>
      <trkpt lat="42.6896260" lon="-0.5423060">
        <ele>1259.0</ele>
        <time>2023-01-14T13:10:02Z</time>
      </trkpt>
      <trkpt lat="42.6896260" lon="-0.5423060">
        <ele>1259.0</ele>
        <time>2023-01-14T13:10:03Z</time>
      </trkpt>
      <trkpt lat="42.6896260" lon="-0.5423060">
        <ele>1259.0</ele>
        <time>2023-01-14T13:10:04Z</time>
      </trkpt>
      <trkpt lat="42.6896260" lon="-0.5423060">
        <ele>1259.0</ele>
        <time>2023-01-14T13:10:05Z</time>
      </trkpt>
      <trkpt lat="42.6896260" lon="-0.5423070">
        <ele>1259.0</ele>
        <time>2023-01-14T13:10:06Z</time>
      </trkpt>
      <trkpt lat="42.6896260" lon="-0.5423070">
        <ele>1259.0</ele>
        <time>2023-01-14T13:10:07Z</time>
      </trkpt>
      <trkpt lat="42.6896260" lon="-0.5423070">
        <ele>1259.0</ele>
        <time>2023-01-14T13:10:08Z</time>
      </trkpt>
      <trkpt lat="42.6896260" lon="-0.5423070">
        <ele>1259.0</ele>
        <time>2023-01-14T13:10:09Z</time>
      </trkpt>
      <trkpt lat="42.6896260" lon="-0.5423080">
        <ele>1259.0</ele>
        <time>2023-01-14T13:10:10Z</time>
      </trkpt>
      <trkpt lat="42.6896260" lon="-0.5423080">
        <ele>1259.0</ele>
        <time>2023-01-14T13:10:11Z</time>
      </trkpt>
      <trkpt lat="42.6896260" lon="-0.5423080">
        <ele>1259.0</ele>
        <time>2023-01-14T13:10:12Z</time>
      </trkpt>
      <trkpt lat="42.6896270" lon="-0.5423080">
        <ele>1259.0</ele>
        <time>2023-01-14T13:10:13Z</time>
      </trkpt>
      <trkpt lat="42.6896270" lon="-0.5423090">
        <ele>1259.0</ele>
        <time>2023-01-14T13:10:14Z</time>
      </trkpt>
      <trkpt lat="42.6896270" lon="-0.5423090">
        <ele>1259.0</ele>
        <time>2023-01-14T13:10:15Z</time>
      </trkpt>
      <trkpt lat="42.6896270" lon="-0.5423090">
        <ele>1259.0</ele>
        <time>2023-01-14T13:10:16Z</time>
      </trkpt>
      <trkpt lat="42.6896270" lon="-0.5423090">
        <ele>1259.0</ele>
        <time>2023-01-14T13:10:17Z</time>
      </trkpt>
      <trkpt lat="42.6896270" lon="-0.5423090">
        <ele>1259.0</ele>
        <time>2023-01-14T13:10:18Z</time>
      </trkpt>
      <trkpt lat="42.6896270" lon="-0.5423090">
        <ele>1259.0</ele>
        <time>2023-01-14T13:10:19Z</time>
      </trkpt>
      <trkpt lat="42.6896270" lon="-0.5423090">
        <ele>1259.0</ele>
        <time>2023-01-14T13:10:20Z</time>
      </trkpt>
      <trkpt lat="42.6896270" lon="-0.5423090">
        <ele>1259.0</ele>
        <time>2023-01-14T13:10:21Z</time>
      </trkpt>
      <trkpt lat="42.6896270" lon="-0.5423090">
        <ele>1259.0</ele>
        <time>2023-01-14T13:10:22Z</time>
      </trkpt>
      <trkpt lat="42.6896270" lon="-0.5423090">
        <ele>1259.0</ele>
        <time>2023-01-14T13:10:23Z</time>
      </trkpt>
      <trkpt lat="42.6896270" lon="-0.5423090">
        <ele>1259.0</ele>
        <time>2023-01-14T13:10:24Z</time>
      </trkpt>
      <trkpt lat="42.6896270" lon="-0.5423090">
        <ele>1259.0</ele>
        <time>2023-01-14T13:10:25Z</time>
      </trkpt>
      <trkpt lat="42.6896270" lon="-0.5423090">
        <ele>1259.0</ele>
        <time>2023-01-14T13:10:26Z</time>
      </trkpt>
      <trkpt lat="42.6896270" lon="-0.5423090">
        <ele>1259.0</ele>
        <time>2023-01-14T13:10:27Z</time>
      </trkpt>
      <trkpt lat="42.6896270" lon="-0.5423090">
        <ele>1259.0</ele>
        <time>2023-01-14T13:10:28Z</time>
      </trkpt>
      <trkpt lat="42.6896270" lon="-0.5423090">
        <ele>1259.0</ele>
        <time>2023-01-14T13:10:29Z</time>
      </trkpt>
      <trkpt lat="42.6896270" lon="-0.5423090">
        <ele>1259.0</ele>
        <time>2023-01-14T13:10:30Z</time>
      </trkpt>
      <trkpt lat="42.6896270" lon="-0.5423100">
        <ele>1259.0</ele>
        <time>2023-01-14T13:10:31Z</time>
      </trkpt>
      <trkpt lat="42.6896270" lon="-0.5423100">
        <ele>1259.0</ele>
        <time>2023-01-14T13:10:32Z</time>
      </trkpt>
      <trkpt lat="42.6896270" lon="-0.5423100">
        <ele>1259.0</ele>
        <time>2023-01-14T13:10:33Z</time>
      </trkpt>
      <trkpt lat="42.6896270" lon="-0.5423100">
        <ele>1259.0</ele>
        <time>2023-01-14T13:10:34Z</time>
      </trkpt>
      <trkpt lat="42.6896260" lon="-0.5423100">
        <ele>1259.0</ele>
        <time>2023-01-14T13:10:35Z</time>
      </trkpt>
      <trkpt lat="42.6896260" lon="-0.5423100">
        <ele>1259.0</ele>
        <time>2023-01-14T13:10:36Z</time>
      </trkpt>
      <trkpt lat="42.6896260" lon="-0.5423100">
        <ele>1259.0</ele>
        <time>2023-01-14T13:10:37Z</time>
      </trkpt>
      <trkpt lat="42.6896260" lon="-0.5423100">
        <ele>1259.0</ele>
        <time>2023-01-14T13:10:38Z</time>
      </trkpt>
      <trkpt lat="42.6896260" lon="-0.5423100">
        <ele>1259.0</ele>
        <time>2023-01-14T13:10:39Z</time>
      </trkpt>
      <trkpt lat="42.6896260" lon="-0.5423100">
        <ele>1259.0</ele>
        <time>2023-01-14T13:10:40Z</time>
      </trkpt>
      <trkpt lat="42.6896260" lon="-0.5423100">
        <ele>1259.0</ele>
        <time>2023-01-14T13:10:41Z</time>
      </trkpt>
      <trkpt lat="42.6896260" lon="-0.5423100">
        <ele>1259.0</ele>
        <time>2023-01-14T13:10:42Z</time>
      </trkpt>
      <trkpt lat="42.6896260" lon="-0.5423100">
        <ele>1259.0</ele>
        <time>2023-01-14T13:10:43Z</time>
      </trkpt>
      <trkpt lat="42.6896260" lon="-0.5423100">
        <ele>1259.0</ele>
        <time>2023-01-14T13:10:44Z</time>
      </trkpt>
      <trkpt lat="42.6896250" lon="-0.5423100">
        <ele>1259.0</ele>
        <time>2023-01-14T13:10:45Z</time>
      </trkpt>
      <trkpt lat="42.6896250" lon="-0.5423100">
        <ele>1259.0</ele>
        <time>2023-01-14T13:10:46Z</time>
      </trkpt>
      <trkpt lat="42.6896250" lon="-0.5423100">
        <ele>1259.0</ele>
        <time>2023-01-14T13:10:47Z</time>
      </trkpt>
      <trkpt lat="42.6896250" lon="-0.5423100">
        <ele>1259.0</ele>
        <time>2023-01-14T13:10:48Z</time>
      </trkpt>
      <trkpt lat="42.6896250" lon="-0.5423100">
        <ele>1259.0</ele>
        <time>2023-01-14T13:10:49Z</time>
      </trkpt>
      <trkpt lat="42.6896250" lon="-0.5423100">
        <ele>1259.0</ele>
        <time>2023-01-14T13:10:50Z</time>
      </trkpt>
      <trkpt lat="42.6896240" lon="-0.5423100">
        <ele>1259.0</ele>
        <time>2023-01-14T13:10:51Z</time>
      </trkpt>
      <trkpt lat="42.6896240" lon="-0.5423090">
        <ele>1259.0</ele>
        <time>2023-01-14T13:10:52Z</time>
      </trkpt>
      <trkpt lat="42.6896240" lon="-0.5423090">
        <ele>1259.0</ele>
        <time>2023-01-14T13:10:53Z</time>
      </trkpt>
      <trkpt lat="42.6896240" lon="-0.5423090">
        <ele>1259.0</ele>
        <time>2023-01-14T13:10:54Z</time>
      </trkpt>
      <trkpt lat="42.6896240" lon="-0.5423090">
        <ele>1259.0</ele>
        <time>2023-01-14T13:10:55Z</time>
      </trkpt>
      <trkpt lat="42.6896240" lon="-0.5423090">
        <ele>1259.0</ele>
        <time>2023-01-14T13:10:56Z</time>
      </trkpt>
      <trkpt lat="42.6896240" lon="-0.5423080">
        <ele>1259.0</ele>
        <time>2023-01-14T13:10:57Z</time>
      </trkpt>
      <trkpt lat="42.6896240" lon="-0.5423080">
        <ele>1259.0</ele>
        <time>2023-01-14T13:10:58Z</time>
      </trkpt>
      <trkpt lat="42.6896240" lon="-0.5423080">
        <ele>1259.0</ele>
        <time>2023-01-14T13:10:59Z</time>
      </trkpt>
      <trkpt lat="42.6896240" lon="-0.5423070">
        <ele>1259.0</ele>
        <time>2023-01-14T13:11:00Z</time>
      </trkpt>
      <trkpt lat="42.6896240" lon="-0.5423070">
        <ele>1259.0</ele>
        <time>2023-01-14T13:11:01Z</time>
      </trkpt>
      <trkpt lat="42.6896240" lon="-0.5423060">
        <ele>1259.0</ele>
        <time>2023-01-14T13:11:02Z</time>
      </trkpt>
      <trkpt lat="42.6896240" lon="-0.5423060">
        <ele>1259.0</ele>
        <time>2023-01-14T13:11:03Z</time>
      </trkpt>
      <trkpt lat="42.6896240" lon="-0.5423060">
        <ele>1259.0</ele>
        <time>2023-01-14T13:11:04Z</time>
      </trkpt>
      <trkpt lat="42.6896240" lon="-0.5423050">
        <ele>1259.0</ele>
        <time>2023-01-14T13:11:05Z</time>
      </trkpt>
      <trkpt lat="42.6896240" lon="-0.5423050">
        <ele>1259.0</ele>
        <time>2023-01-14T13:11:06Z</time>
      </trkpt>
      <trkpt lat="42.6896240" lon="-0.5423050">
        <ele>1259.0</ele>
        <time>2023-01-14T13:11:07Z</time>
      </trkpt>
      <trkpt lat="42.6896240" lon="-0.5423040">
        <ele>1259.0</ele>
        <time>2023-01-14T13:11:08Z</time>
      </trkpt>
      <trkpt lat="42.6896240" lon="-0.5423040">
        <ele>1259.0</ele>
        <time>2023-01-14T13:11:09Z</time>
      </trkpt>
      <trkpt lat="42.6896230" lon="-0.5423040">
        <ele>1259.0</ele>
        <time>2023-01-14T13:11:10Z</time>
      </trkpt>
      <trkpt lat="42.6896230" lon="-0.5423040">
        <ele>1259.0</ele>
        <time>2023-01-14T13:11:11Z</time>
      </trkpt>
      <trkpt lat="42.6896230" lon="-0.5423040">
        <ele>1259.0</ele>
        <time>2023-01-14T13:11:12Z</time>
      </trkpt>
      <trkpt lat="42.6896230" lon="-0.5423040">
        <ele>1259.0</ele>
        <time>2023-01-14T13:11:13Z</time>
      </trkpt>
      <trkpt lat="42.6896230" lon="-0.5423040">
        <ele>1259.0</ele>
        <time>2023-01-14T13:11:14Z</time>
      </trkpt>
      <trkpt lat="42.6896230" lon="-0.5423040">
        <ele>1259.0</ele>
        <time>2023-01-14T13:11:15Z</time>
      </trkpt>
      <trkpt lat="42.6896160" lon="-0.5423050">
        <ele>1259.0</ele>
        <time>2023-01-14T13:11:16Z</time>
      </trkpt>
      <trkpt lat="42.6896070" lon="-0.5423060">
        <ele>1259.0</ele>
        <time>2023-01-14T13:11:17Z</time>
      </trkpt>
      <trkpt lat="42.6895940" lon="-0.5423040">
        <ele>1259.0</ele>
        <time>2023-01-14T13:11:18Z</time>
      </trkpt>
      <trkpt lat="42.6895770" lon="-0.5422970">
        <ele>1259.0</ele>
        <time>2023-01-14T13:11:19Z</time>
      </trkpt>
      <trkpt lat="42.6895560" lon="-0.5422910">
        <ele>1259.0</ele>
        <time>2023-01-14T13:11:20Z</time>
      </trkpt>
      <trkpt lat="42.6895300" lon="-0.5422860">
        <ele>1261.8</ele>
        <time>2023-01-14T13:11:21Z</time>
      </trkpt>
      <trkpt lat="42.6894960" lon="-0.5422830">
        <ele>1263.2</ele>
        <time>2023-01-14T13:11:22Z</time>
      </trkpt>
      <trkpt lat="42.6894470" lon="-0.5422880">
        <ele>1264.2</ele>
        <time>2023-01-14T13:11:23Z</time>
      </trkpt>
      <trkpt lat="42.6893870" lon="-0.5422980">
        <ele>1264.8</ele>
        <time>2023-01-14T13:11:24Z</time>
      </trkpt>
      <trkpt lat="42.6893190" lon="-0.5423090">
        <ele>1265.0</ele>
        <time>2023-01-14T13:11:25Z</time>
      </trkpt>
      <trkpt lat="42.6892450" lon="-0.5423180">
        <ele>1265.2</ele>
        <time>2023-01-14T13:11:26Z</time>
      </trkpt>
      <trkpt lat="42.6891730" lon="-0.5423300">
        <ele>1264.8</ele>
        <time>2023-01-14T13:11:27Z</time>
      </trkpt>
      <trkpt lat="42.6891080" lon="-0.5423470">
        <ele>1264.6</ele>
        <time>2023-01-14T13:11:28Z</time>
      </trkpt>
      <trkpt lat="42.6890500" lon="-0.5423590">
        <ele>1263.8</ele>
        <time>2023-01-14T13:11:29Z</time>
      </trkpt>
      <trkpt lat="42.6889850" lon="-0.5423610">
        <ele>1262.8</ele>
        <time>2023-01-14T13:11:30Z</time>
      </trkpt>
      <trkpt lat="42.6889190" lon="-0.5423720">
        <ele>1262.0</ele>
        <time>2023-01-14T13:11:31Z</time>
      </trkpt>
      <trkpt lat="42.6888510" lon="-0.5423980">
        <ele>1260.6</ele>
        <time>2023-01-14T13:11:32Z</time>
      </trkpt>
      <trkpt lat="42.6887780" lon="-0.5424130">
        <ele>1259.2</ele>
        <time>2023-01-14T13:11:33Z</time>
      </trkpt>
      <trkpt lat="42.6887010" lon="-0.5424230">
        <ele>1258.4</ele>
        <time>2023-01-14T13:11:34Z</time>
      </trkpt>
      <trkpt lat="42.6886180" lon="-0.5424260">
        <ele>1257.8</ele>
        <time>2023-01-14T13:11:35Z</time>
      </trkpt>
      <trkpt lat="42.6885360" lon="-0.5424380">
        <ele>1256.8</ele>
        <time>2023-01-14T13:11:36Z</time>
      </trkpt>
      <trkpt lat="42.6884510" lon="-0.5424480">
        <ele>1255.8</ele>
        <time>2023-01-14T13:11:37Z</time>
      </trkpt>
      <trkpt lat="42.6883650" lon="-0.5424580">
        <ele>1255.0</ele>
        <time>2023-01-14T13:11:38Z</time>
      </trkpt>
      <trkpt lat="42.6882840" lon="-0.5424680">
        <ele>1253.6</ele>
        <time>2023-01-14T13:11:39Z</time>
      </trkpt>
      <trkpt lat="42.6882060" lon="-0.5424860">
        <ele>1251.6</ele>
        <time>2023-01-14T13:11:40Z</time>
      </trkpt>
      <trkpt lat="42.6881270" lon="-0.5425100">
        <ele>1249.6</ele>
        <time>2023-01-14T13:11:41Z</time>
      </trkpt>
      <trkpt lat="42.6880440" lon="-0.5425370">
        <ele>1247.2</ele>
        <time>2023-01-14T13:11:42Z</time>
      </trkpt>
      <trkpt lat="42.6879800" lon="-0.5425470">
        <ele>1246.0</ele>
        <time>2023-01-14T13:11:43Z</time>
      </trkpt>
      <trkpt lat="42.6879160" lon="-0.5425570">
        <ele>1245.4</ele>
        <time>2023-01-14T13:11:44Z</time>
      </trkpt>
      <trkpt lat="42.6877890" lon="-0.5425780">
        <ele>1243.8</ele>
        <time>2023-01-14T13:11:45Z</time>
      </trkpt>
      <trkpt lat="42.6877090" lon="-0.5425900">
        <ele>1243.2</ele>
        <time>2023-01-14T13:11:46Z</time>
      </trkpt>
      <trkpt lat="42.6876450" lon="-0.5426170">
        <ele>1241.2</ele>
        <time>2023-01-14T13:11:47Z</time>
      </trkpt>
      <trkpt lat="42.6875890" lon="-0.5426420">
        <ele>1240.0</ele>
        <time>2023-01-14T13:11:48Z</time>
      </trkpt>
      <trkpt lat="42.6875400" lon="-0.5426410">
        <ele>1238.8</ele>
        <time>2023-01-14T13:11:49Z</time>
      </trkpt>
      <trkpt lat="42.6874990" lon="-0.5426270">
        <ele>1238.4</ele>
        <time>2023-01-14T13:11:50Z</time>
      </trkpt>
      <trkpt lat="42.6874630" lon="-0.5426270">
        <ele>1238.0</ele>
        <time>2023-01-14T13:11:51Z</time>
      </trkpt>
      <trkpt lat="42.6874060" lon="-0.5426530">
        <ele>1237.4</ele>
        <time>2023-01-14T13:11:52Z</time>
      </trkpt>
      <trkpt lat="42.6873390" lon="-0.5426970">
        <ele>1236.0</ele>
        <time>2023-01-14T13:11:53Z</time>
      </trkpt>
      <trkpt lat="42.6872670" lon="-0.5427200">
        <ele>1235.0</ele>
        <time>2023-01-14T13:11:54Z</time>
      </trkpt>
      <trkpt lat="42.6871970" lon="-0.5427240">
        <ele>1234.2</ele>
        <time>2023-01-14T13:11:55Z</time>
      </trkpt>
      <trkpt lat="42.6871230" lon="-0.5427270">
        <ele>1233.6</ele>
        <time>2023-01-14T13:11:56Z</time>
      </trkpt>
      <trkpt lat="42.6870410" lon="-0.5427360">
        <ele>1232.2</ele>
        <time>2023-01-14T13:11:57Z</time>
      </trkpt>
      <trkpt lat="42.6869670" lon="-0.5427450">
        <ele>1231.4</ele>
        <time>2023-01-14T13:11:58Z</time>
      </trkpt>
      <trkpt lat="42.6868930" lon="-0.5427670">
        <ele>1230.6</ele>
        <time>2023-01-14T13:11:59Z</time>
      </trkpt>
      <trkpt lat="42.6868230" lon="-0.5427830">
        <ele>1229.8</ele>
        <time>2023-01-14T13:12:00Z</time>
      </trkpt>
      <trkpt lat="42.6867530" lon="-0.5428060">
        <ele>1228.4</ele>
        <time>2023-01-14T13:12:01Z</time>
      </trkpt>
      <trkpt lat="42.6866730" lon="-0.5428260">
        <ele>1227.0</ele>
        <time>2023-01-14T13:12:02Z</time>
      </trkpt>
      <trkpt lat="42.6865930" lon="-0.5428410">
        <ele>1225.6</ele>
        <time>2023-01-14T13:12:03Z</time>
      </trkpt>
      <trkpt lat="42.6865170" lon="-0.5428640">
        <ele>1224.6</ele>
        <time>2023-01-14T13:12:04Z</time>
      </trkpt>
      <trkpt lat="42.6864840" lon="-0.5428680">
        <ele>1223.2</ele>
        <time>2023-01-14T13:12:05Z</time>
      </trkpt>
      <trkpt lat="42.6864510" lon="-0.5428720">
        <ele>1222.0</ele>
        <time>2023-01-14T13:12:06Z</time>
      </trkpt>
      <trkpt lat="42.6863850" lon="-0.5428800">
        <ele>1220.0</ele>
        <time>2023-01-14T13:12:07Z</time>
      </trkpt>
      <trkpt lat="42.6863850" lon="-0.5428800">
        <ele>1218.2</ele>
        <time>2023-01-14T13:12:08Z</time>
      </trkpt>
      <trkpt lat="42.6863810" lon="-0.5428710">
        <ele>1217.2</ele>
        <time>2023-01-14T13:12:09Z</time>
      </trkpt>
      <trkpt lat="42.6863750" lon="-0.5428760">
        <ele>1216.6</ele>
        <time>2023-01-14T13:12:10Z</time>
      </trkpt>
      <trkpt lat="42.6863710" lon="-0.5428760">
        <ele>1216.2</ele>
        <time>2023-01-14T13:12:11Z</time>
      </trkpt>
      <trkpt lat="42.6863700" lon="-0.5428760">
        <ele>1216.0</ele>
        <time>2023-01-14T13:12:12Z</time>
      </trkpt>
      <trkpt lat="42.6863710" lon="-0.5428750">
        <ele>1215.8</ele>
        <time>2023-01-14T13:12:13Z</time>
      </trkpt>
      <trkpt lat="42.6863710" lon="-0.5428750">
        <ele>1215.8</ele>
        <time>2023-01-14T13:12:14Z</time>
      </trkpt>
      <trkpt lat="42.6863720" lon="-0.5428710">
        <ele>1215.8</ele>
        <time>2023-01-14T13:12:15Z</time>
      </trkpt>
      <trkpt lat="42.6863710" lon="-0.5428690">
        <ele>1215.8</ele>
        <time>2023-01-14T13:12:16Z</time>
      </trkpt>
      <trkpt lat="42.6863680" lon="-0.5428670">
        <ele>1215.8</ele>
        <time>2023-01-14T13:12:17Z</time>
      </trkpt>
      <trkpt lat="42.6863680" lon="-0.5428670">
        <ele>1215.8</ele>
        <time>2023-01-14T13:12:18Z</time>
      </trkpt>
      <trkpt lat="42.6863670" lon="-0.5428650">
        <ele>1216.0</ele>
        <time>2023-01-14T13:12:19Z</time>
      </trkpt>
      <trkpt lat="42.6863650" lon="-0.5428620">
        <ele>1216.0</ele>
        <time>2023-01-14T13:12:20Z</time>
      </trkpt>
      <trkpt lat="42.6863620" lon="-0.5428630">
        <ele>1216.0</ele>
        <time>2023-01-14T13:12:21Z</time>
      </trkpt>
      <trkpt lat="42.6863610" lon="-0.5428600">
        <ele>1216.2</ele>
        <time>2023-01-14T13:12:22Z</time>
      </trkpt>
      <trkpt lat="42.6863580" lon="-0.5428570">
        <ele>1216.2</ele>
        <time>2023-01-14T13:12:23Z</time>
      </trkpt>
      <trkpt lat="42.6863570" lon="-0.5428540">
        <ele>1216.2</ele>
        <time>2023-01-14T13:12:24Z</time>
      </trkpt>
      <trkpt lat="42.6863550" lon="-0.5428540">
        <ele>1216.2</ele>
        <time>2023-01-14T13:12:25Z</time>
      </trkpt>
      <trkpt lat="42.6863540" lon="-0.5428540">
        <ele>1216.4</ele>
        <time>2023-01-14T13:12:26Z</time>
      </trkpt>
      <trkpt lat="42.6863540" lon="-0.5428550">
        <ele>1216.4</ele>
        <time>2023-01-14T13:12:27Z</time>
      </trkpt>
      <trkpt lat="42.6863550" lon="-0.5428570">
        <ele>1216.4</ele>
        <time>2023-01-14T13:12:28Z</time>
      </trkpt>
      <trkpt lat="42.6863580" lon="-0.5428560">
        <ele>1216.4</ele>
        <time>2023-01-14T13:12:29Z</time>
      </trkpt>
      <trkpt lat="42.6863600" lon="-0.5428560">
        <ele>1216.4</ele>
        <time>2023-01-14T13:12:30Z</time>
      </trkpt>
      <trkpt lat="42.6863600" lon="-0.5428540">
        <ele>1216.4</ele>
        <time>2023-01-14T13:12:31Z</time>
      </trkpt>
      <trkpt lat="42.6863620" lon="-0.5428520">
        <ele>1216.4</ele>
        <time>2023-01-14T13:12:32Z</time>
      </trkpt>
      <trkpt lat="42.6863630" lon="-0.5428490">
        <ele>1216.4</ele>
        <time>2023-01-14T13:12:33Z</time>
      </trkpt>
      <trkpt lat="42.6863630" lon="-0.5428490">
        <ele>1216.4</ele>
        <time>2023-01-14T13:12:34Z</time>
      </trkpt>
      <trkpt lat="42.6863620" lon="-0.5428500">
        <ele>1216.4</ele>
        <time>2023-01-14T13:12:35Z</time>
      </trkpt>
      <trkpt lat="42.6863620" lon="-0.5428500">
        <ele>1216.2</ele>
        <time>2023-01-14T13:12:36Z</time>
      </trkpt>
      <trkpt lat="42.6863620" lon="-0.5428510">
        <ele>1216.4</ele>
        <time>2023-01-14T13:12:37Z</time>
      </trkpt>
      <trkpt lat="42.6863620" lon="-0.5428500">
        <ele>1216.4</ele>
        <time>2023-01-14T13:12:38Z</time>
      </trkpt>
      <trkpt lat="42.6863610" lon="-0.5428500">
        <ele>1216.4</ele>
        <time>2023-01-14T13:12:39Z</time>
      </trkpt>
      <trkpt lat="42.6863610" lon="-0.5428490">
        <ele>1216.4</ele>
        <time>2023-01-14T13:12:40Z</time>
      </trkpt>
      <trkpt lat="42.6863610" lon="-0.5428470">
        <ele>1216.4</ele>
        <time>2023-01-14T13:12:41Z</time>
      </trkpt>
      <trkpt lat="42.6863640" lon="-0.5428460">
        <ele>1216.4</ele>
        <time>2023-01-14T13:12:42Z</time>
      </trkpt>
      <trkpt lat="42.6863670" lon="-0.5428470">
        <ele>1216.4</ele>
        <time>2023-01-14T13:12:43Z</time>
      </trkpt>
      <trkpt lat="42.6863680" lon="-0.5428460">
        <ele>1216.4</ele>
        <time>2023-01-14T13:12:44Z</time>
      </trkpt>
      <trkpt lat="42.6863690" lon="-0.5428440">
        <ele>1216.4</ele>
        <time>2023-01-14T13:12:45Z</time>
      </trkpt>
      <trkpt lat="42.6863710" lon="-0.5428440">
        <ele>1216.4</ele>
        <time>2023-01-14T13:12:46Z</time>
      </trkpt>
      <trkpt lat="42.6863720" lon="-0.5428460">
        <ele>1216.6</ele>
        <time>2023-01-14T13:12:47Z</time>
      </trkpt>
      <trkpt lat="42.6863730" lon="-0.5428470">
        <ele>1216.4</ele>
        <time>2023-01-14T13:12:48Z</time>
      </trkpt>
      <trkpt lat="42.6863730" lon="-0.5428500">
        <ele>1216.4</ele>
        <time>2023-01-14T13:12:49Z</time>
      </trkpt>
      <trkpt lat="42.6863720" lon="-0.5428500">
        <ele>1216.4</ele>
        <time>2023-01-14T13:12:50Z</time>
      </trkpt>
      <trkpt lat="42.6863710" lon="-0.5428500">
        <ele>1216.4</ele>
        <time>2023-01-14T13:12:51Z</time>
      </trkpt>
      <trkpt lat="42.6863740" lon="-0.5428530">
        <ele>1216.4</ele>
        <time>2023-01-14T13:12:52Z</time>
      </trkpt>
      <trkpt lat="42.6863790" lon="-0.5428550">
        <ele>1216.2</ele>
        <time>2023-01-14T13:12:53Z</time>
      </trkpt>
      <trkpt lat="42.6863820" lon="-0.5428550">
        <ele>1216.2</ele>
        <time>2023-01-14T13:12:54Z</time>
      </trkpt>
      <trkpt lat="42.6863880" lon="-0.5428500">
        <ele>1216.4</ele>
        <time>2023-01-14T13:12:55Z</time>
      </trkpt>
      <trkpt lat="42.6863960" lon="-0.5428490">
        <ele>1216.6</ele>
        <time>2023-01-14T13:12:56Z</time>
      </trkpt>
      <trkpt lat="42.6864060" lon="-0.5428470">
        <ele>1216.8</ele>
        <time>2023-01-14T13:12:57Z</time>
      </trkpt>
      <trkpt lat="42.6864140" lon="-0.5428480">
        <ele>1217.0</ele>
        <time>2023-01-14T13:12:58Z</time>
      </trkpt>
      <trkpt lat="42.6864230" lon="-0.5428430">
        <ele>1217.6</ele>
        <time>2023-01-14T13:12:59Z</time>
      </trkpt>
      <trkpt lat="42.6864330" lon="-0.5428340">
        <ele>1217.8</ele>
        <time>2023-01-14T13:13:00Z</time>
      </trkpt>
      <trkpt lat="42.6864470" lon="-0.5428340">
        <ele>1218.0</ele>
        <time>2023-01-14T13:13:01Z</time>
      </trkpt>
      <trkpt lat="42.6864580" lon="-0.5428330">
        <ele>1218.2</ele>
        <time>2023-01-14T13:13:02Z</time>
      </trkpt>
      <trkpt lat="42.6864630" lon="-0.5428360">
        <ele>1218.4</ele>
        <time>2023-01-14T13:13:03Z</time>
      </trkpt>
      <trkpt lat="42.6864720" lon="-0.5428370">
        <ele>1218.8</ele>
        <time>2023-01-14T13:13:04Z</time>
      </trkpt>
      <trkpt lat="42.6864840" lon="-0.5428330">
        <ele>1219.2</ele>
        <time>2023-01-14T13:13:05Z</time>
      </trkpt>
      <trkpt lat="42.6864960" lon="-0.5428280">
        <ele>1219.6</ele>
        <time>2023-01-14T13:13:06Z</time>
      </trkpt>
      <trkpt lat="42.6865080" lon="-0.5428250">
        <ele>1220.0</ele>
        <time>2023-01-14T13:13:07Z</time>
      </trkpt>
      <trkpt lat="42.6865250" lon="-0.5428200">
        <ele>1220.4</ele>
        <time>2023-01-14T13:13:08Z</time>
      </trkpt>
      <trkpt lat="42.6865390" lon="-0.5428100">
        <ele>1220.6</ele>
        <time>2023-01-14T13:13:09Z</time>
      </trkpt>
      <trkpt lat="42.6865550" lon="-0.5428010">
        <ele>1220.8</ele>
        <time>2023-01-14T13:13:10Z</time>
      </trkpt>
      <trkpt lat="42.6865670" lon="-0.5427920">
        <ele>1221.0</ele>
        <time>2023-01-14T13:13:11Z</time>
      </trkpt>
      <trkpt lat="42.6865770" lon="-0.5427880">
        <ele>1221.2</ele>
        <time>2023-01-14T13:13:12Z</time>
      </trkpt>
      <trkpt lat="42.6865810" lon="-0.5427850">
        <ele>1221.2</ele>
        <time>2023-01-14T13:13:13Z</time>
      </trkpt>
      <trkpt lat="42.6866030" lon="-0.5427770">
        <ele>1221.6</ele>
        <time>2023-01-14T13:13:14Z</time>
      </trkpt>
      <trkpt lat="42.6866300" lon="-0.5427730">
        <ele>1222.0</ele>
        <time>2023-01-14T13:13:15Z</time>
      </trkpt>
      <trkpt lat="42.6866470" lon="-0.5427670">
        <ele>1222.2</ele>
        <time>2023-01-14T13:13:16Z</time>
      </trkpt>
      <trkpt lat="42.6866560" lon="-0.5427650">
        <ele>1222.2</ele>
        <time>2023-01-14T13:13:17Z</time>
      </trkpt>
      <trkpt lat="42.6866670" lon="-0.5427630">
        <ele>1222.4</ele>
        <time>2023-01-14T13:13:18Z</time>
      </trkpt>
      <trkpt lat="42.6866820" lon="-0.5427560">
        <ele>1222.6</ele>
        <time>2023-01-14T13:13:19Z</time>
      </trkpt>
      <trkpt lat="42.6866950" lon="-0.5427510">
        <ele>1223.0</ele>
        <time>2023-01-14T13:13:20Z</time>
      </trkpt>
      <trkpt lat="42.6867020" lon="-0.5427520">
        <ele>1223.2</ele>
        <time>2023-01-14T13:13:21Z</time>
      </trkpt>
      <trkpt lat="42.6867130" lon="-0.5427560">
        <ele>1223.4</ele>
        <time>2023-01-14T13:13:22Z</time>
      </trkpt>
      <trkpt lat="42.6867270" lon="-0.5427590">
        <ele>1223.6</ele>
        <time>2023-01-14T13:13:23Z</time>
      </trkpt>
      <trkpt lat="42.6867450" lon="-0.5427670">
        <ele>1223.6</ele>
        <time>2023-01-14T13:13:24Z</time>
      </trkpt>
      <trkpt lat="42.6867660" lon="-0.5427690">
        <ele>1223.8</ele>
        <time>2023-01-14T13:13:25Z</time>
      </trkpt>
      <trkpt lat="42.6867900" lon="-0.5427770">
        <ele>1223.8</ele>
        <time>2023-01-14T13:13:26Z</time>
      </trkpt>
      <trkpt lat="42.6868150" lon="-0.5427760">
        <ele>1224.0</ele>
        <time>2023-01-14T13:13:27Z</time>
      </trkpt>
      <trkpt lat="42.6868370" lon="-0.5427720">
        <ele>1224.0</ele>
        <time>2023-01-14T13:13:28Z</time>
      </trkpt>
      <trkpt lat="42.6868550" lon="-0.5427730">
        <ele>1224.2</ele>
        <time>2023-01-14T13:13:29Z</time>
      </trkpt>
      <trkpt lat="42.6868700" lon="-0.5427690">
        <ele>1224.6</ele>
        <time>2023-01-14T13:13:30Z</time>
      </trkpt>
      <trkpt lat="42.6868800" lon="-0.5427660">
        <ele>1225.4</ele>
        <time>2023-01-14T13:13:31Z</time>
      </trkpt>
      <trkpt lat="42.6868910" lon="-0.5427570">
        <ele>1225.8</ele>
        <time>2023-01-14T13:13:32Z</time>
      </trkpt>
      <trkpt lat="42.6869070" lon="-0.5427510">
        <ele>1226.2</ele>
        <time>2023-01-14T13:13:33Z</time>
      </trkpt>
      <trkpt lat="42.6869280" lon="-0.5427510">
        <ele>1226.4</ele>
        <time>2023-01-14T13:13:34Z</time>
      </trkpt>
      <trkpt lat="42.6869510" lon="-0.5427550">
        <ele>1226.6</ele>
        <time>2023-01-14T13:13:35Z</time>
      </trkpt>
      <trkpt lat="42.6869700" lon="-0.5427540">
        <ele>1227.0</ele>
        <time>2023-01-14T13:13:36Z</time>
      </trkpt>
      <trkpt lat="42.6869950" lon="-0.5427460">
        <ele>1227.2</ele>
        <time>2023-01-14T13:13:37Z</time>
      </trkpt>
      <trkpt lat="42.6870150" lon="-0.5427450">
        <ele>1227.4</ele>
        <time>2023-01-14T13:13:38Z</time>
      </trkpt>
      <trkpt lat="42.6870300" lon="-0.5427400">
        <ele>1227.6</ele>
        <time>2023-01-14T13:13:39Z</time>
      </trkpt>
      <trkpt lat="42.6870430" lon="-0.5427440">
        <ele>1227.8</ele>
        <time>2023-01-14T13:13:40Z</time>
      </trkpt>
      <trkpt lat="42.6870570" lon="-0.5427370">
        <ele>1228.0</ele>
        <time>2023-01-14T13:13:41Z</time>
      </trkpt>
      <trkpt lat="42.6870800" lon="-0.5427310">
        <ele>1228.4</ele>
        <time>2023-01-14T13:13:42Z</time>
      </trkpt>
      <trkpt lat="42.6870980" lon="-0.5427250">
        <ele>1228.8</ele>
        <time>2023-01-14T13:13:43Z</time>
      </trkpt>
      <trkpt lat="42.6871130" lon="-0.5427240">
        <ele>1229.2</ele>
        <time>2023-01-14T13:13:44Z</time>
      </trkpt>
      <trkpt lat="42.6871250" lon="-0.5427220">
        <ele>1229.4</ele>
        <time>2023-01-14T13:13:45Z</time>
      </trkpt>
      <trkpt lat="42.6871380" lon="-0.5427180">
        <ele>1229.6</ele>
        <time>2023-01-14T13:13:46Z</time>
      </trkpt>
      <trkpt lat="42.6871510" lon="-0.5427100">
        <ele>1230.0</ele>
        <time>2023-01-14T13:13:47Z</time>
      </trkpt>
      <trkpt lat="42.6871710" lon="-0.5427120">
        <ele>1230.0</ele>
        <time>2023-01-14T13:13:48Z</time>
      </trkpt>
      <trkpt lat="42.6871880" lon="-0.5427120">
        <ele>1230.2</ele>
        <time>2023-01-14T13:13:49Z</time>
      </trkpt>
      <trkpt lat="42.6871970" lon="-0.5427100">
        <ele>1230.2</ele>
        <time>2023-01-14T13:13:50Z</time>
      </trkpt>
      <trkpt lat="42.6872060" lon="-0.5427100">
        <ele>1230.2</ele>
        <time>2023-01-14T13:13:51Z</time>
      </trkpt>
      <trkpt lat="42.6872140" lon="-0.5427120">
        <ele>1230.2</ele>
        <time>2023-01-14T13:13:52Z</time>
      </trkpt>
      <trkpt lat="42.6872260" lon="-0.5427180">
        <ele>1230.2</ele>
        <time>2023-01-14T13:13:53Z</time>
      </trkpt>
      <trkpt lat="42.6872360" lon="-0.5427250">
        <ele>1230.2</ele>
        <time>2023-01-14T13:13:54Z</time>
      </trkpt>
      <trkpt lat="42.6872380" lon="-0.5427260">
        <ele>1230.0</ele>
        <time>2023-01-14T13:13:55Z</time>
      </trkpt>
      <trkpt lat="42.6872390" lon="-0.5427270">
        <ele>1230.0</ele>
        <time>2023-01-14T13:13:56Z</time>
      </trkpt>
      <trkpt lat="42.6872400" lon="-0.5427260">
        <ele>1229.8</ele>
        <time>2023-01-14T13:13:57Z</time>
      </trkpt>
      <trkpt lat="42.6872410" lon="-0.5427260">
        <ele>1229.8</ele>
        <time>2023-01-14T13:13:58Z</time>
      </trkpt>
      <trkpt lat="42.6872430" lon="-0.5427250">
        <ele>1229.8</ele>
        <time>2023-01-14T13:13:59Z</time>
      </trkpt>
      <trkpt lat="42.6872440" lon="-0.5427260">
        <ele>1229.8</ele>
        <time>2023-01-14T13:14:00Z</time>
      </trkpt>
      <trkpt lat="42.6872450" lon="-0.5427260">
        <ele>1229.8</ele>
        <time>2023-01-14T13:14:01Z</time>
      </trkpt>
      <trkpt lat="42.6872470" lon="-0.5427270">
        <ele>1229.8</ele>
        <time>2023-01-14T13:14:02Z</time>
      </trkpt>
      <trkpt lat="42.6872470" lon="-0.5427280">
        <ele>1229.8</ele>
        <time>2023-01-14T13:14:03Z</time>
      </trkpt>
      <trkpt lat="42.6872480" lon="-0.5427290">
        <ele>1229.6</ele>
        <time>2023-01-14T13:14:04Z</time>
      </trkpt>
      <trkpt lat="42.6872490" lon="-0.5427300">
        <ele>1229.6</ele>
        <time>2023-01-14T13:14:05Z</time>
      </trkpt>
      <trkpt lat="42.6872490" lon="-0.5427310">
        <ele>1229.6</ele>
        <time>2023-01-14T13:14:06Z</time>
      </trkpt>
      <trkpt lat="42.6872500" lon="-0.5427310">
        <ele>1229.6</ele>
        <time>2023-01-14T13:14:07Z</time>
      </trkpt>
      <trkpt lat="42.6872500" lon="-0.5427320">
        <ele>1229.4</ele>
        <time>2023-01-14T13:14:08Z</time>
      </trkpt>
      <trkpt lat="42.6872510" lon="-0.5427320">
        <ele>1229.4</ele>
        <time>2023-01-14T13:14:09Z</time>
      </trkpt>
      <trkpt lat="42.6872510" lon="-0.5427330">
        <ele>1229.4</ele>
        <time>2023-01-14T13:14:10Z</time>
      </trkpt>
      <trkpt lat="42.6872510" lon="-0.5427330">
        <ele>1229.4</ele>
        <time>2023-01-14T13:14:11Z</time>
      </trkpt>
      <trkpt lat="42.6872510" lon="-0.5427330">
        <ele>1229.4</ele>
        <time>2023-01-14T13:14:12Z</time>
      </trkpt>
      <trkpt lat="42.6872520" lon="-0.5427340">
        <ele>1229.4</ele>
        <time>2023-01-14T13:14:13Z</time>
      </trkpt>
      <trkpt lat="42.6872520" lon="-0.5427340">
        <ele>1229.4</ele>
        <time>2023-01-14T13:14:14Z</time>
      </trkpt>
      <trkpt lat="42.6872520" lon="-0.5427350">
        <ele>1229.6</ele>
        <time>2023-01-14T13:14:15Z</time>
      </trkpt>
      <trkpt lat="42.6872520" lon="-0.5427360">
        <ele>1229.6</ele>
        <time>2023-01-14T13:14:16Z</time>
      </trkpt>
      <trkpt lat="42.6872530" lon="-0.5427370">
        <ele>1229.6</ele>
        <time>2023-01-14T13:14:17Z</time>
      </trkpt>
      <trkpt lat="42.6872530" lon="-0.5427380">
        <ele>1229.6</ele>
        <time>2023-01-14T13:14:18Z</time>
      </trkpt>
      <trkpt lat="42.6872530" lon="-0.5427380">
        <ele>1229.6</ele>
        <time>2023-01-14T13:14:19Z</time>
      </trkpt>
      <trkpt lat="42.6872540" lon="-0.5427390">
        <ele>1229.6</ele>
        <time>2023-01-14T13:14:20Z</time>
      </trkpt>
      <trkpt lat="42.6872540" lon="-0.5427390">
        <ele>1229.6</ele>
        <time>2023-01-14T13:14:21Z</time>
      </trkpt>
      <trkpt lat="42.6872540" lon="-0.5427390">
        <ele>1229.4</ele>
        <time>2023-01-14T13:14:22Z</time>
      </trkpt>
      <trkpt lat="42.6872550" lon="-0.5427400">
        <ele>1229.4</ele>
        <time>2023-01-14T13:14:23Z</time>
      </trkpt>
      <trkpt lat="42.6872550" lon="-0.5427400">
        <ele>1229.4</ele>
        <time>2023-01-14T13:14:24Z</time>
      </trkpt>
      <trkpt lat="42.6872560" lon="-0.5427410">
        <ele>1229.4</ele>
        <time>2023-01-14T13:14:25Z</time>
      </trkpt>
      <trkpt lat="42.6872560" lon="-0.5427410">
        <ele>1229.4</ele>
        <time>2023-01-14T13:14:26Z</time>
      </trkpt>
      <trkpt lat="42.6872570" lon="-0.5427420">
        <ele>1229.4</ele>
        <time>2023-01-14T13:14:27Z</time>
      </trkpt>
      <trkpt lat="42.6872570" lon="-0.5427410">
        <ele>1229.4</ele>
        <time>2023-01-14T13:14:28Z</time>
      </trkpt>
      <trkpt lat="42.6872570" lon="-0.5427410">
        <ele>1229.6</ele>
        <time>2023-01-14T13:14:29Z</time>
      </trkpt>
      <trkpt lat="42.6872570" lon="-0.5427410">
        <ele>1229.6</ele>
        <time>2023-01-14T13:14:30Z</time>
      </trkpt>
      <trkpt lat="42.6872570" lon="-0.5427410">
        <ele>1229.6</ele>
        <time>2023-01-14T13:14:31Z</time>
      </trkpt>
      <trkpt lat="42.6872580" lon="-0.5427420">
        <ele>1229.4</ele>
        <time>2023-01-14T13:14:32Z</time>
      </trkpt>
      <trkpt lat="42.6872580" lon="-0.5427420">
        <ele>1229.4</ele>
        <time>2023-01-14T13:14:33Z</time>
      </trkpt>
      <trkpt lat="42.6872590" lon="-0.5427420">
        <ele>1229.4</ele>
        <time>2023-01-14T13:14:34Z</time>
      </trkpt>
      <trkpt lat="42.6872590" lon="-0.5427420">
        <ele>1229.4</ele>
        <time>2023-01-14T13:14:35Z</time>
      </trkpt>
      <trkpt lat="42.6872590" lon="-0.5427420">
        <ele>1229.2</ele>
        <time>2023-01-14T13:14:36Z</time>
      </trkpt>
      <trkpt lat="42.6872600" lon="-0.5427410">
        <ele>1229.2</ele>
        <time>2023-01-14T13:14:37Z</time>
      </trkpt>
      <trkpt lat="42.6872600" lon="-0.5427410">
        <ele>1229.0</ele>
        <time>2023-01-14T13:14:38Z</time>
      </trkpt>
      <trkpt lat="42.6872600" lon="-0.5427410">
        <ele>1229.0</ele>
        <time>2023-01-14T13:14:39Z</time>
      </trkpt>
      <trkpt lat="42.6872600" lon="-0.5427410">
        <ele>1228.8</ele>
        <time>2023-01-14T13:14:40Z</time>
      </trkpt>
      <trkpt lat="42.6872600" lon="-0.5427400">
        <ele>1229.0</ele>
        <time>2023-01-14T13:14:41Z</time>
      </trkpt>
      <trkpt lat="42.6872600" lon="-0.5427400">
        <ele>1229.0</ele>
        <time>2023-01-14T13:14:42Z</time>
      </trkpt>
      <trkpt lat="42.6872610" lon="-0.5427400">
        <ele>1229.0</ele>
        <time>2023-01-14T13:14:43Z</time>
      </trkpt>
      <trkpt lat="42.6872610" lon="-0.5427400">
        <ele>1229.0</ele>
        <time>2023-01-14T13:14:44Z</time>
      </trkpt>
      <trkpt lat="42.6872610" lon="-0.5427400">
        <ele>1229.0</ele>
        <time>2023-01-14T13:14:45Z</time>
      </trkpt>
      <trkpt lat="42.6872620" lon="-0.5427390">
        <ele>1229.0</ele>
        <time>2023-01-14T13:14:46Z</time>
      </trkpt>
      <trkpt lat="42.6872620" lon="-0.5427390">
        <ele>1229.0</ele>
        <time>2023-01-14T13:14:47Z</time>
      </trkpt>
      <trkpt lat="42.6872620" lon="-0.5427390">
        <ele>1228.8</ele>
        <time>2023-01-14T13:14:48Z</time>
      </trkpt>
      <trkpt lat="42.6872620" lon="-0.5427390">
        <ele>1229.0</ele>
        <time>2023-01-14T13:14:49Z</time>
      </trkpt>
      <trkpt lat="42.6872630" lon="-0.5427390">
        <ele>1229.0</ele>
        <time>2023-01-14T13:14:50Z</time>
      </trkpt>
      <trkpt lat="42.6872630" lon="-0.5427390">
        <ele>1229.0</ele>
        <time>2023-01-14T13:14:51Z</time>
      </trkpt>
      <trkpt lat="42.6872630" lon="-0.5427380">
        <ele>1228.8</ele>
        <time>2023-01-14T13:14:52Z</time>
      </trkpt>
      <trkpt lat="42.6872630" lon="-0.5427380">
        <ele>1228.8</ele>
        <time>2023-01-14T13:14:53Z</time>
      </trkpt>
      <trkpt lat="42.6872640" lon="-0.5427380">
        <ele>1228.8</ele>
        <time>2023-01-14T13:14:54Z</time>
      </trkpt>
      <trkpt lat="42.6872640" lon="-0.5427380">
        <ele>1229.0</ele>
        <time>2023-01-14T13:14:55Z</time>
      </trkpt>
      <trkpt lat="42.6872640" lon="-0.5427380">
        <ele>1229.0</ele>
        <time>2023-01-14T13:14:56Z</time>
      </trkpt>
      <trkpt lat="42.6872650" lon="-0.5427380">
        <ele>1229.0</ele>
        <time>2023-01-14T13:14:57Z</time>
      </trkpt>
      <trkpt lat="42.6872650" lon="-0.5427380">
        <ele>1229.0</ele>
        <time>2023-01-14T13:14:58Z</time>
      </trkpt>
      <trkpt lat="42.6872660" lon="-0.5427380">
        <ele>1229.0</ele>
        <time>2023-01-14T13:14:59Z</time>
      </trkpt>
      <trkpt lat="42.6872660" lon="-0.5427380">
        <ele>1229.2</ele>
        <time>2023-01-14T13:15:00Z</time>
      </trkpt>
      <trkpt lat="42.6872660" lon="-0.5427380">
        <ele>1229.2</ele>
        <time>2023-01-14T13:15:01Z</time>
      </trkpt>
      <trkpt lat="42.6872660" lon="-0.5427380">
        <ele>1229.2</ele>
        <time>2023-01-14T13:15:02Z</time>
      </trkpt>
      <trkpt lat="42.6872650" lon="-0.5427370">
        <ele>1229.0</ele>
        <time>2023-01-14T13:15:03Z</time>
      </trkpt>
      <trkpt lat="42.6872650" lon="-0.5427370">
        <ele>1229.0</ele>
        <time>2023-01-14T13:15:04Z</time>
      </trkpt>
      <trkpt lat="42.6872650" lon="-0.5427370">
        <ele>1229.0</ele>
        <time>2023-01-14T13:15:05Z</time>
      </trkpt>
      <trkpt lat="42.6872650" lon="-0.5427370">
        <ele>1229.0</ele>
        <time>2023-01-14T13:15:06Z</time>
      </trkpt>
      <trkpt lat="42.6872650" lon="-0.5427370">
        <ele>1229.0</ele>
        <time>2023-01-14T13:15:07Z</time>
      </trkpt>
      <trkpt lat="42.6872660" lon="-0.5427370">
        <ele>1229.0</ele>
        <time>2023-01-14T13:15:08Z</time>
      </trkpt>
      <trkpt lat="42.6872660" lon="-0.5427370">
        <ele>1229.0</ele>
        <time>2023-01-14T13:15:09Z</time>
      </trkpt>
      <trkpt lat="42.6872660" lon="-0.5427370">
        <ele>1229.0</ele>
        <time>2023-01-14T13:15:10Z</time>
      </trkpt>
      <trkpt lat="42.6872670" lon="-0.5427370">
        <ele>1229.0</ele>
        <time>2023-01-14T13:15:11Z</time>
      </trkpt>
      <trkpt lat="42.6872680" lon="-0.5427370">
        <ele>1228.8</ele>
        <time>2023-01-14T13:15:12Z</time>
      </trkpt>
      <trkpt lat="42.6872680" lon="-0.5427360">
        <ele>1228.8</ele>
        <time>2023-01-14T13:15:13Z</time>
      </trkpt>
      <trkpt lat="42.6872680" lon="-0.5427360">
        <ele>1228.8</ele>
        <time>2023-01-14T13:15:14Z</time>
      </trkpt>
      <trkpt lat="42.6872680" lon="-0.5427360">
        <ele>1228.8</ele>
        <time>2023-01-14T13:15:15Z</time>
      </trkpt>
      <trkpt lat="42.6872690" lon="-0.5427360">
        <ele>1228.8</ele>
        <time>2023-01-14T13:15:16Z</time>
      </trkpt>
      <trkpt lat="42.6872690" lon="-0.5427360">
        <ele>1228.8</ele>
        <time>2023-01-14T13:15:17Z</time>
      </trkpt>
      <trkpt lat="42.6872690" lon="-0.5427370">
        <ele>1229.0</ele>
        <time>2023-01-14T13:15:18Z</time>
      </trkpt>
      <trkpt lat="42.6872690" lon="-0.5427370">
        <ele>1229.0</ele>
        <time>2023-01-14T13:15:19Z</time>
      </trkpt>
      <trkpt lat="42.6872690" lon="-0.5427370">
        <ele>1229.0</ele>
        <time>2023-01-14T13:15:20Z</time>
      </trkpt>
      <trkpt lat="42.6872710" lon="-0.5427370">
        <ele>1229.0</ele>
        <time>2023-01-14T13:15:21Z</time>
      </trkpt>
      <trkpt lat="42.6872720" lon="-0.5427370">
        <ele>1229.0</ele>
        <time>2023-01-14T13:15:22Z</time>
      </trkpt>
      <trkpt lat="42.6872720" lon="-0.5427360">
        <ele>1229.0</ele>
        <time>2023-01-14T13:15:23Z</time>
      </trkpt>
      <trkpt lat="42.6872720" lon="-0.5427360">
        <ele>1229.0</ele>
        <time>2023-01-14T13:15:24Z</time>
      </trkpt>
      <trkpt lat="42.6872720" lon="-0.5427350">
        <ele>1229.0</ele>
        <time>2023-01-14T13:15:25Z</time>
      </trkpt>
      <trkpt lat="42.6872720" lon="-0.5427340">
        <ele>1229.0</ele>
        <time>2023-01-14T13:15:26Z</time>
      </trkpt>
      <trkpt lat="42.6872720" lon="-0.5427340">
        <ele>1229.0</ele>
        <time>2023-01-14T13:15:27Z</time>
      </trkpt>
      <trkpt lat="42.6872720" lon="-0.5427340">
        <ele>1229.0</ele>
        <time>2023-01-14T13:15:28Z</time>
      </trkpt>
      <trkpt lat="42.6872740" lon="-0.5427340">
        <ele>1229.0</ele>
        <time>2023-01-14T13:15:29Z</time>
      </trkpt>
      <trkpt lat="42.6872750" lon="-0.5427350">
        <ele>1229.0</ele>
        <time>2023-01-14T13:15:30Z</time>
      </trkpt>
      <trkpt lat="42.6872760" lon="-0.5427350">
        <ele>1229.0</ele>
        <time>2023-01-14T13:15:31Z</time>
      </trkpt>
      <trkpt lat="42.6872760" lon="-0.5427340">
        <ele>1229.0</ele>
        <time>2023-01-14T13:15:32Z</time>
      </trkpt>
      <trkpt lat="42.6872760" lon="-0.5427340">
        <ele>1229.0</ele>
        <time>2023-01-14T13:15:33Z</time>
      </trkpt>
      <trkpt lat="42.6872760" lon="-0.5427340">
        <ele>1229.0</ele>
        <time>2023-01-14T13:15:34Z</time>
      </trkpt>
      <trkpt lat="42.6872770" lon="-0.5427340">
        <ele>1229.0</ele>
        <time>2023-01-14T13:15:35Z</time>
      </trkpt>
      <trkpt lat="42.6872760" lon="-0.5427330">
        <ele>1228.8</ele>
        <time>2023-01-14T13:15:36Z</time>
      </trkpt>
      <trkpt lat="42.6872760" lon="-0.5427330">
        <ele>1229.0</ele>
        <time>2023-01-14T13:15:37Z</time>
      </trkpt>
      <trkpt lat="42.6872750" lon="-0.5427330">
        <ele>1229.0</ele>
        <time>2023-01-14T13:15:38Z</time>
      </trkpt>
      <trkpt lat="42.6872750" lon="-0.5427330">
        <ele>1229.0</ele>
        <time>2023-01-14T13:15:39Z</time>
      </trkpt>
      <trkpt lat="42.6872750" lon="-0.5427330">
        <ele>1229.0</ele>
        <time>2023-01-14T13:15:40Z</time>
      </trkpt>
      <trkpt lat="42.6872740" lon="-0.5427330">
        <ele>1229.0</ele>
        <time>2023-01-14T13:15:41Z</time>
      </trkpt>
      <trkpt lat="42.6872740" lon="-0.5427330">
        <ele>1228.8</ele>
        <time>2023-01-14T13:15:42Z</time>
      </trkpt>
      <trkpt lat="42.6872740" lon="-0.5427330">
        <ele>1228.8</ele>
        <time>2023-01-14T13:15:43Z</time>
      </trkpt>
      <trkpt lat="42.6872740" lon="-0.5427330">
        <ele>1228.8</ele>
        <time>2023-01-14T13:15:44Z</time>
      </trkpt>
      <trkpt lat="42.6872730" lon="-0.5427320">
        <ele>1228.8</ele>
        <time>2023-01-14T13:15:45Z</time>
      </trkpt>
      <trkpt lat="42.6872720" lon="-0.5427320">
        <ele>1228.6</ele>
        <time>2023-01-14T13:15:46Z</time>
      </trkpt>
      <trkpt lat="42.6872720" lon="-0.5427320">
        <ele>1228.4</ele>
        <time>2023-01-14T13:15:47Z</time>
      </trkpt>
      <trkpt lat="42.6872710" lon="-0.5427320">
        <ele>1228.4</ele>
        <time>2023-01-14T13:15:48Z</time>
      </trkpt>
      <trkpt lat="42.6872710" lon="-0.5427310">
        <ele>1228.4</ele>
        <time>2023-01-14T13:15:49Z</time>
      </trkpt>
      <trkpt lat="42.6872700" lon="-0.5427310">
        <ele>1228.6</ele>
        <time>2023-01-14T13:15:50Z</time>
      </trkpt>
      <trkpt lat="42.6872690" lon="-0.5427300">
        <ele>1228.6</ele>
        <time>2023-01-14T13:15:51Z</time>
      </trkpt>
      <trkpt lat="42.6872700" lon="-0.5427310">
        <ele>1228.6</ele>
        <time>2023-01-14T13:15:52Z</time>
      </trkpt>
      <trkpt lat="42.6872710" lon="-0.5427310">
        <ele>1228.8</ele>
        <time>2023-01-14T13:15:53Z</time>
      </trkpt>
      <trkpt lat="42.6872710" lon="-0.5427310">
        <ele>1228.8</ele>
        <time>2023-01-14T13:15:54Z</time>
      </trkpt>
      <trkpt lat="42.6872700" lon="-0.5427310">
        <ele>1228.8</ele>
        <time>2023-01-14T13:15:55Z</time>
      </trkpt>
      <trkpt lat="42.6872700" lon="-0.5427310">
        <ele>1228.8</ele>
        <time>2023-01-14T13:15:56Z</time>
      </trkpt>
      <trkpt lat="42.6872710" lon="-0.5427310">
        <ele>1228.8</ele>
        <time>2023-01-14T13:15:57Z</time>
      </trkpt>
      <trkpt lat="42.6872720" lon="-0.5427310">
        <ele>1228.8</ele>
        <time>2023-01-14T13:15:58Z</time>
      </trkpt>
      <trkpt lat="42.6872720" lon="-0.5427310">
        <ele>1228.8</ele>
        <time>2023-01-14T13:15:59Z</time>
      </trkpt>
      <trkpt lat="42.6872720" lon="-0.5427320">
        <ele>1228.8</ele>
        <time>2023-01-14T13:16:00Z</time>
      </trkpt>
      <trkpt lat="42.6872730" lon="-0.5427320">
        <ele>1228.8</ele>
        <time>2023-01-14T13:16:01Z</time>
      </trkpt>
      <trkpt lat="42.6872730" lon="-0.5427320">
        <ele>1228.8</ele>
        <time>2023-01-14T13:16:02Z</time>
      </trkpt>
      <trkpt lat="42.6872730" lon="-0.5427320">
        <ele>1228.8</ele>
        <time>2023-01-14T13:16:03Z</time>
      </trkpt>
      <trkpt lat="42.6872730" lon="-0.5427320">
        <ele>1228.8</ele>
        <time>2023-01-14T13:16:04Z</time>
      </trkpt>
      <trkpt lat="42.6872730" lon="-0.5427320">
        <ele>1228.8</ele>
        <time>2023-01-14T13:16:05Z</time>
      </trkpt>
      <trkpt lat="42.6872730" lon="-0.5427320">
        <ele>1228.8</ele>
        <time>2023-01-14T13:16:06Z</time>
      </trkpt>
      <trkpt lat="42.6872730" lon="-0.5427320">
        <ele>1228.8</ele>
        <time>2023-01-14T13:16:07Z</time>
      </trkpt>
      <trkpt lat="42.6872730" lon="-0.5427320">
        <ele>1228.8</ele>
        <time>2023-01-14T13:16:08Z</time>
      </trkpt>
      <trkpt lat="42.6872740" lon="-0.5427320">
        <ele>1228.8</ele>
        <time>2023-01-14T13:16:09Z</time>
      </trkpt>
      <trkpt lat="42.6872740" lon="-0.5427320">
        <ele>1228.8</ele>
        <time>2023-01-14T13:16:10Z</time>
      </trkpt>
      <trkpt lat="42.6872740" lon="-0.5427320">
        <ele>1228.8</ele>
        <time>2023-01-14T13:16:11Z</time>
      </trkpt>
      <trkpt lat="42.6872740" lon="-0.5427320">
        <ele>1228.8</ele>
        <time>2023-01-14T13:16:12Z</time>
      </trkpt>
      <trkpt lat="42.6872740" lon="-0.5427320">
        <ele>1228.8</ele>
        <time>2023-01-14T13:16:13Z</time>
      </trkpt>
      <trkpt lat="42.6872740" lon="-0.5427320">
        <ele>1228.8</ele>
        <time>2023-01-14T13:16:14Z</time>
      </trkpt>
      <trkpt lat="42.6872740" lon="-0.5427320">
        <ele>1228.8</ele>
        <time>2023-01-14T13:16:15Z</time>
      </trkpt>
      <trkpt lat="42.6872740" lon="-0.5427310">
        <ele>1228.8</ele>
        <time>2023-01-14T13:16:16Z</time>
      </trkpt>
      <trkpt lat="42.6872740" lon="-0.5427310">
        <ele>1228.8</ele>
        <time>2023-01-14T13:16:17Z</time>
      </trkpt>
      <trkpt lat="42.6872740" lon="-0.5427310">
        <ele>1228.8</ele>
        <time>2023-01-14T13:16:18Z</time>
      </trkpt>
      <trkpt lat="42.6872740" lon="-0.5427310">
        <ele>1228.8</ele>
        <time>2023-01-14T13:16:19Z</time>
      </trkpt>
      <trkpt lat="42.6872740" lon="-0.5427310">
        <ele>1228.8</ele>
        <time>2023-01-14T13:16:20Z</time>
      </trkpt>
      <trkpt lat="42.6872740" lon="-0.5427310">
        <ele>1228.8</ele>
        <time>2023-01-14T13:16:21Z</time>
      </trkpt>
      <trkpt lat="42.6872740" lon="-0.5427310">
        <ele>1228.8</ele>
        <time>2023-01-14T13:16:22Z</time>
      </trkpt>
      <trkpt lat="42.6872740" lon="-0.5427310">
        <ele>1228.8</ele>
        <time>2023-01-14T13:16:23Z</time>
      </trkpt>
      <trkpt lat="42.6872740" lon="-0.5427310">
        <ele>1228.8</ele>
        <time>2023-01-14T13:16:24Z</time>
      </trkpt>
      <trkpt lat="42.6872740" lon="-0.5427310">
        <ele>1228.8</ele>
        <time>2023-01-14T13:16:25Z</time>
      </trkpt>
      <trkpt lat="42.6872740" lon="-0.5427310">
        <ele>1228.8</ele>
        <time>2023-01-14T13:16:26Z</time>
      </trkpt>
      <trkpt lat="42.6872740" lon="-0.5427310">
        <ele>1228.8</ele>
        <time>2023-01-14T13:16:27Z</time>
      </trkpt>
      <trkpt lat="42.6872750" lon="-0.5427310">
        <ele>1228.8</ele>
        <time>2023-01-14T13:16:28Z</time>
      </trkpt>
      <trkpt lat="42.6872740" lon="-0.5427300">
        <ele>1228.8</ele>
        <time>2023-01-14T13:16:29Z</time>
      </trkpt>
      <trkpt lat="42.6872760" lon="-0.5427290">
        <ele>1228.8</ele>
        <time>2023-01-14T13:16:30Z</time>
      </trkpt>
      <trkpt lat="42.6872800" lon="-0.5427290">
        <ele>1228.8</ele>
        <time>2023-01-14T13:16:31Z</time>
      </trkpt>
      <trkpt lat="42.6872820" lon="-0.5427310">
        <ele>1228.8</ele>
        <time>2023-01-14T13:16:32Z</time>
      </trkpt>
      <trkpt lat="42.6872840" lon="-0.5427300">
        <ele>1228.8</ele>
        <time>2023-01-14T13:16:33Z</time>
      </trkpt>
      <trkpt lat="42.6872860" lon="-0.5427280">
        <ele>1228.8</ele>
        <time>2023-01-14T13:16:34Z</time>
      </trkpt>
      <trkpt lat="42.6872880" lon="-0.5427270">
        <ele>1228.8</ele>
        <time>2023-01-14T13:16:35Z</time>
      </trkpt>
      <trkpt lat="42.6872910" lon="-0.5427280">
        <ele>1228.8</ele>
        <time>2023-01-14T13:16:36Z</time>
      </trkpt>
      <trkpt lat="42.6872920" lon="-0.5427280">
        <ele>1228.8</ele>
        <time>2023-01-14T13:16:37Z</time>
      </trkpt>
      <trkpt lat="42.6872930" lon="-0.5427290">
        <ele>1228.8</ele>
        <time>2023-01-14T13:16:38Z</time>
      </trkpt>
      <trkpt lat="42.6872940" lon="-0.5427270">
        <ele>1228.8</ele>
        <time>2023-01-14T13:16:39Z</time>
      </trkpt>
      <trkpt lat="42.6872950" lon="-0.5427260">
        <ele>1228.8</ele>
        <time>2023-01-14T13:16:40Z</time>
      </trkpt>
      <trkpt lat="42.6872950" lon="-0.5427260">
        <ele>1228.8</ele>
        <time>2023-01-14T13:16:41Z</time>
      </trkpt>
      <trkpt lat="42.6872950" lon="-0.5427270">
        <ele>1228.8</ele>
        <time>2023-01-14T13:16:42Z</time>
      </trkpt>
      <trkpt lat="42.6872970" lon="-0.5427270">
        <ele>1228.8</ele>
        <time>2023-01-14T13:16:43Z</time>
      </trkpt>
      <trkpt lat="42.6872980" lon="-0.5427260">
        <ele>1228.8</ele>
        <time>2023-01-14T13:16:44Z</time>
      </trkpt>
      <trkpt lat="42.6872980" lon="-0.5427260">
        <ele>1228.8</ele>
        <time>2023-01-14T13:16:45Z</time>
      </trkpt>
      <trkpt lat="42.6872970" lon="-0.5427270">
        <ele>1228.8</ele>
        <time>2023-01-14T13:16:46Z</time>
      </trkpt>
      <trkpt lat="42.6872980" lon="-0.5427270">
        <ele>1228.8</ele>
        <time>2023-01-14T13:16:47Z</time>
      </trkpt>
      <trkpt lat="42.6872980" lon="-0.5427270">
        <ele>1228.8</ele>
        <time>2023-01-14T13:16:48Z</time>
      </trkpt>
      <trkpt lat="42.6872980" lon="-0.5427270">
        <ele>1228.8</ele>
        <time>2023-01-14T13:16:49Z</time>
      </trkpt>
      <trkpt lat="42.6872980" lon="-0.5427270">
        <ele>1228.8</ele>
        <time>2023-01-14T13:16:50Z</time>
      </trkpt>
      <trkpt lat="42.6872980" lon="-0.5427270">
        <ele>1228.8</ele>
        <time>2023-01-14T13:16:51Z</time>
      </trkpt>
      <trkpt lat="42.6872980" lon="-0.5427270">
        <ele>1228.8</ele>
        <time>2023-01-14T13:16:52Z</time>
      </trkpt>
      <trkpt lat="42.6872980" lon="-0.5427270">
        <ele>1228.8</ele>
        <time>2023-01-14T13:16:53Z</time>
      </trkpt>
      <trkpt lat="42.6872980" lon="-0.5427270">
        <ele>1228.8</ele>
        <time>2023-01-14T13:16:54Z</time>
      </trkpt>
      <trkpt lat="42.6872980" lon="-0.5427270">
        <ele>1228.8</ele>
        <time>2023-01-14T13:16:55Z</time>
      </trkpt>
      <trkpt lat="42.6872990" lon="-0.5427270">
        <ele>1228.8</ele>
        <time>2023-01-14T13:16:56Z</time>
      </trkpt>
      <trkpt lat="42.6872990" lon="-0.5427270">
        <ele>1228.8</ele>
        <time>2023-01-14T13:16:57Z</time>
      </trkpt>
      <trkpt lat="42.6872990" lon="-0.5427280">
        <ele>1228.8</ele>
        <time>2023-01-14T13:16:58Z</time>
      </trkpt>
      <trkpt lat="42.6872980" lon="-0.5427280">
        <ele>1228.8</ele>
        <time>2023-01-14T13:16:59Z</time>
      </trkpt>
      <trkpt lat="42.6872980" lon="-0.5427280">
        <ele>1228.8</ele>
        <time>2023-01-14T13:17:00Z</time>
      </trkpt>
      <trkpt lat="42.6872980" lon="-0.5427280">
        <ele>1228.8</ele>
        <time>2023-01-14T13:17:01Z</time>
      </trkpt>
      <trkpt lat="42.6872980" lon="-0.5427280">
        <ele>1228.8</ele>
        <time>2023-01-14T13:17:02Z</time>
      </trkpt>
      <trkpt lat="42.6872990" lon="-0.5427280">
        <ele>1228.8</ele>
        <time>2023-01-14T13:17:03Z</time>
      </trkpt>
      <trkpt lat="42.6872990" lon="-0.5427280">
        <ele>1228.8</ele>
        <time>2023-01-14T13:17:04Z</time>
      </trkpt>
      <trkpt lat="42.6872990" lon="-0.5427280">
        <ele>1228.8</ele>
        <time>2023-01-14T13:17:05Z</time>
      </trkpt>
      <trkpt lat="42.6872990" lon="-0.5427280">
        <ele>1228.8</ele>
        <time>2023-01-14T13:17:06Z</time>
      </trkpt>
      <trkpt lat="42.6872990" lon="-0.5427280">
        <ele>1228.8</ele>
        <time>2023-01-14T13:17:07Z</time>
      </trkpt>
      <trkpt lat="42.6872990" lon="-0.5427280">
        <ele>1228.8</ele>
        <time>2023-01-14T13:17:08Z</time>
      </trkpt>
      <trkpt lat="42.6872990" lon="-0.5427280">
        <ele>1228.8</ele>
        <time>2023-01-14T13:17:09Z</time>
      </trkpt>
      <trkpt lat="42.6872990" lon="-0.5427280">
        <ele>1228.8</ele>
        <time>2023-01-14T13:17:10Z</time>
      </trkpt>
      <trkpt lat="42.6872990" lon="-0.5427280">
        <ele>1228.8</ele>
        <time>2023-01-14T13:17:11Z</time>
      </trkpt>
      <trkpt lat="42.6873000" lon="-0.5427280">
        <ele>1228.8</ele>
        <time>2023-01-14T13:17:12Z</time>
      </trkpt>
      <trkpt lat="42.6873000" lon="-0.5427280">
        <ele>1228.8</ele>
        <time>2023-01-14T13:17:13Z</time>
      </trkpt>
      <trkpt lat="42.6873000" lon="-0.5427270">
        <ele>1228.8</ele>
        <time>2023-01-14T13:17:14Z</time>
      </trkpt>
      <trkpt lat="42.6873000" lon="-0.5427270">
        <ele>1228.8</ele>
        <time>2023-01-14T13:17:15Z</time>
      </trkpt>
      <trkpt lat="42.6873000" lon="-0.5427270">
        <ele>1228.8</ele>
        <time>2023-01-14T13:17:16Z</time>
      </trkpt>
      <trkpt lat="42.6873000" lon="-0.5427270">
        <ele>1228.8</ele>
        <time>2023-01-14T13:17:17Z</time>
      </trkpt>
      <trkpt lat="42.6873000" lon="-0.5427270">
        <ele>1228.8</ele>
        <time>2023-01-14T13:17:18Z</time>
      </trkpt>
      <trkpt lat="42.6873000" lon="-0.5427270">
        <ele>1228.8</ele>
        <time>2023-01-14T13:17:19Z</time>
      </trkpt>
      <trkpt lat="42.6873000" lon="-0.5427270">
        <ele>1228.8</ele>
        <time>2023-01-14T13:17:20Z</time>
      </trkpt>
      <trkpt lat="42.6873000" lon="-0.5427260">
        <ele>1228.8</ele>
        <time>2023-01-14T13:17:21Z</time>
      </trkpt>
      <trkpt lat="42.6873000" lon="-0.5427260">
        <ele>1228.8</ele>
        <time>2023-01-14T13:17:22Z</time>
      </trkpt>
      <trkpt lat="42.6873000" lon="-0.5427260">
        <ele>1228.8</ele>
        <time>2023-01-14T13:17:23Z</time>
      </trkpt>
      <trkpt lat="42.6873000" lon="-0.5427260">
        <ele>1228.8</ele>
        <time>2023-01-14T13:17:24Z</time>
      </trkpt>
      <trkpt lat="42.6873010" lon="-0.5427250">
        <ele>1228.8</ele>
        <time>2023-01-14T13:17:25Z</time>
      </trkpt>
      <trkpt lat="42.6873010" lon="-0.5427250">
        <ele>1228.8</ele>
        <time>2023-01-14T13:17:26Z</time>
      </trkpt>
      <trkpt lat="42.6873010" lon="-0.5427250">
        <ele>1228.8</ele>
        <time>2023-01-14T13:17:27Z</time>
      </trkpt>
      <trkpt lat="42.6873010" lon="-0.5427240">
        <ele>1228.8</ele>
        <time>2023-01-14T13:17:28Z</time>
      </trkpt>
      <trkpt lat="42.6873010" lon="-0.5427240">
        <ele>1228.8</ele>
        <time>2023-01-14T13:17:29Z</time>
      </trkpt>
      <trkpt lat="42.6873010" lon="-0.5427240">
        <ele>1228.8</ele>
        <time>2023-01-14T13:17:30Z</time>
      </trkpt>
      <trkpt lat="42.6873010" lon="-0.5427230">
        <ele>1228.8</ele>
        <time>2023-01-14T13:17:31Z</time>
      </trkpt>
      <trkpt lat="42.6873010" lon="-0.5427230">
        <ele>1228.8</ele>
        <time>2023-01-14T13:17:32Z</time>
      </trkpt>
      <trkpt lat="42.6873010" lon="-0.5427230">
        <ele>1228.8</ele>
        <time>2023-01-14T13:17:33Z</time>
      </trkpt>
      <trkpt lat="42.6873010" lon="-0.5427230">
        <ele>1228.8</ele>
        <time>2023-01-14T13:17:34Z</time>
      </trkpt>
      <trkpt lat="42.6873010" lon="-0.5427230">
        <ele>1228.8</ele>
        <time>2023-01-14T13:17:35Z</time>
      </trkpt>
      <trkpt lat="42.6873010" lon="-0.5427240">
        <ele>1228.8</ele>
        <time>2023-01-14T13:17:36Z</time>
      </trkpt>
      <trkpt lat="42.6873010" lon="-0.5427240">
        <ele>1228.8</ele>
        <time>2023-01-14T13:17:37Z</time>
      </trkpt>
      <trkpt lat="42.6873010" lon="-0.5427240">
        <ele>1228.8</ele>
        <time>2023-01-14T13:17:38Z</time>
      </trkpt>
      <trkpt lat="42.6873000" lon="-0.5427240">
        <ele>1228.8</ele>
        <time>2023-01-14T13:17:39Z</time>
      </trkpt>
      <trkpt lat="42.6873000" lon="-0.5427250">
        <ele>1228.8</ele>
        <time>2023-01-14T13:17:40Z</time>
      </trkpt>
      <trkpt lat="42.6873000" lon="-0.5427250">
        <ele>1228.8</ele>
        <time>2023-01-14T13:17:41Z</time>
      </trkpt>
      <trkpt lat="42.6873000" lon="-0.5427260">
        <ele>1228.8</ele>
        <time>2023-01-14T13:17:42Z</time>
      </trkpt>
      <trkpt lat="42.6873000" lon="-0.5427260">
        <ele>1228.8</ele>
        <time>2023-01-14T13:17:43Z</time>
      </trkpt>
      <trkpt lat="42.6873000" lon="-0.5427270">
        <ele>1228.8</ele>
        <time>2023-01-14T13:17:44Z</time>
      </trkpt>
      <trkpt lat="42.6873000" lon="-0.5427270">
        <ele>1228.8</ele>
        <time>2023-01-14T13:17:45Z</time>
      </trkpt>
      <trkpt lat="42.6873000" lon="-0.5427270">
        <ele>1228.8</ele>
        <time>2023-01-14T13:17:46Z</time>
      </trkpt>
      <trkpt lat="42.6872990" lon="-0.5427280">
        <ele>1228.8</ele>
        <time>2023-01-14T13:17:47Z</time>
      </trkpt>
      <trkpt lat="42.6872990" lon="-0.5427280">
        <ele>1228.8</ele>
        <time>2023-01-14T13:17:48Z</time>
      </trkpt>
      <trkpt lat="42.6872990" lon="-0.5427290">
        <ele>1228.8</ele>
        <time>2023-01-14T13:17:49Z</time>
      </trkpt>
      <trkpt lat="42.6872990" lon="-0.5427290">
        <ele>1228.8</ele>
        <time>2023-01-14T13:17:50Z</time>
      </trkpt>
      <trkpt lat="42.6872990" lon="-0.5427300">
        <ele>1228.8</ele>
        <time>2023-01-14T13:17:51Z</time>
      </trkpt>
      <trkpt lat="42.6872980" lon="-0.5427300">
        <ele>1228.8</ele>
        <time>2023-01-14T13:17:52Z</time>
      </trkpt>
      <trkpt lat="42.6872980" lon="-0.5427310">
        <ele>1228.8</ele>
        <time>2023-01-14T13:17:53Z</time>
      </trkpt>
      <trkpt lat="42.6872980" lon="-0.5427310">
        <ele>1228.8</ele>
        <time>2023-01-14T13:17:54Z</time>
      </trkpt>
      <trkpt lat="42.6872980" lon="-0.5427320">
        <ele>1228.8</ele>
        <time>2023-01-14T13:17:55Z</time>
      </trkpt>
      <trkpt lat="42.6872980" lon="-0.5427320">
        <ele>1228.8</ele>
        <time>2023-01-14T13:17:56Z</time>
      </trkpt>
      <trkpt lat="42.6872970" lon="-0.5427320">
        <ele>1228.8</ele>
        <time>2023-01-14T13:17:57Z</time>
      </trkpt>
      <trkpt lat="42.6872970" lon="-0.5427330">
        <ele>1228.8</ele>
        <time>2023-01-14T13:17:58Z</time>
      </trkpt>
      <trkpt lat="42.6872970" lon="-0.5427330">
        <ele>1228.8</ele>
        <time>2023-01-14T13:17:59Z</time>
      </trkpt>
      <trkpt lat="42.6872970" lon="-0.5427340">
        <ele>1228.8</ele>
        <time>2023-01-14T13:18:00Z</time>
      </trkpt>
      <trkpt lat="42.6872970" lon="-0.5427340">
        <ele>1228.8</ele>
        <time>2023-01-14T13:18:01Z</time>
      </trkpt>
      <trkpt lat="42.6872970" lon="-0.5427340">
        <ele>1228.8</ele>
        <time>2023-01-14T13:18:02Z</time>
      </trkpt>
      <trkpt lat="42.6872960" lon="-0.5427350">
        <ele>1228.8</ele>
        <time>2023-01-14T13:18:03Z</time>
      </trkpt>
      <trkpt lat="42.6872960" lon="-0.5427350">
        <ele>1228.8</ele>
        <time>2023-01-14T13:18:04Z</time>
      </trkpt>
      <trkpt lat="42.6872960" lon="-0.5427350">
        <ele>1228.8</ele>
        <time>2023-01-14T13:18:05Z</time>
      </trkpt>
      <trkpt lat="42.6872960" lon="-0.5427360">
        <ele>1228.8</ele>
        <time>2023-01-14T13:18:06Z</time>
      </trkpt>
      <trkpt lat="42.6872960" lon="-0.5427360">
        <ele>1228.8</ele>
        <time>2023-01-14T13:18:07Z</time>
      </trkpt>
      <trkpt lat="42.6872960" lon="-0.5427360">
        <ele>1228.8</ele>
        <time>2023-01-14T13:18:08Z</time>
      </trkpt>
      <trkpt lat="42.6872960" lon="-0.5427360">
        <ele>1228.8</ele>
        <time>2023-01-14T13:18:09Z</time>
      </trkpt>
      <trkpt lat="42.6872960" lon="-0.5427360">
        <ele>1228.8</ele>
        <time>2023-01-14T13:18:10Z</time>
      </trkpt>
      <trkpt lat="42.6872960" lon="-0.5427360">
        <ele>1228.8</ele>
        <time>2023-01-14T13:18:11Z</time>
      </trkpt>
      <trkpt lat="42.6872950" lon="-0.5427360">
        <ele>1228.8</ele>
        <time>2023-01-14T13:18:12Z</time>
      </trkpt>
      <trkpt lat="42.6872950" lon="-0.5427360">
        <ele>1228.8</ele>
        <time>2023-01-14T13:18:13Z</time>
      </trkpt>
      <trkpt lat="42.6872950" lon="-0.5427360">
        <ele>1228.8</ele>
        <time>2023-01-14T13:18:14Z</time>
      </trkpt>
      <trkpt lat="42.6872950" lon="-0.5427360">
        <ele>1228.8</ele>
        <time>2023-01-14T13:18:15Z</time>
      </trkpt>
      <trkpt lat="42.6872950" lon="-0.5427360">
        <ele>1228.8</ele>
        <time>2023-01-14T13:18:16Z</time>
      </trkpt>
      <trkpt lat="42.6872950" lon="-0.5427350">
        <ele>1228.8</ele>
        <time>2023-01-14T13:18:17Z</time>
      </trkpt>
      <trkpt lat="42.6872950" lon="-0.5427350">
        <ele>1228.8</ele>
        <time>2023-01-14T13:18:18Z</time>
      </trkpt>
      <trkpt lat="42.6872950" lon="-0.5427350">
        <ele>1228.8</ele>
        <time>2023-01-14T13:18:19Z</time>
      </trkpt>
      <trkpt lat="42.6872950" lon="-0.5427340">
        <ele>1228.8</ele>
        <time>2023-01-14T13:18:20Z</time>
      </trkpt>
      <trkpt lat="42.6872950" lon="-0.5427340">
        <ele>1228.8</ele>
        <time>2023-01-14T13:18:21Z</time>
      </trkpt>
      <trkpt lat="42.6872950" lon="-0.5427340">
        <ele>1228.8</ele>
        <time>2023-01-14T13:18:22Z</time>
      </trkpt>
      <trkpt lat="42.6872950" lon="-0.5427340">
        <ele>1228.8</ele>
        <time>2023-01-14T13:18:23Z</time>
      </trkpt>
      <trkpt lat="42.6872950" lon="-0.5427330">
        <ele>1228.8</ele>
        <time>2023-01-14T13:18:24Z</time>
      </trkpt>
      <trkpt lat="42.6872950" lon="-0.5427330">
        <ele>1228.8</ele>
        <time>2023-01-14T13:18:25Z</time>
      </trkpt>
      <trkpt lat="42.6872950" lon="-0.5427330">
        <ele>1228.8</ele>
        <time>2023-01-14T13:18:26Z</time>
      </trkpt>
      <trkpt lat="42.6872950" lon="-0.5427330">
        <ele>1228.8</ele>
        <time>2023-01-14T13:18:27Z</time>
      </trkpt>
      <trkpt lat="42.6872950" lon="-0.5427330">
        <ele>1228.8</ele>
        <time>2023-01-14T13:18:28Z</time>
      </trkpt>
      <trkpt lat="42.6872950" lon="-0.5427320">
        <ele>1228.8</ele>
        <time>2023-01-14T13:18:29Z</time>
      </trkpt>
      <trkpt lat="42.6872940" lon="-0.5427320">
        <ele>1228.8</ele>
        <time>2023-01-14T13:18:30Z</time>
      </trkpt>
      <trkpt lat="42.6872940" lon="-0.5427320">
        <ele>1228.8</ele>
        <time>2023-01-14T13:18:31Z</time>
      </trkpt>
      <trkpt lat="42.6872940" lon="-0.5427320">
        <ele>1228.8</ele>
        <time>2023-01-14T13:18:32Z</time>
      </trkpt>
      <trkpt lat="42.6872940" lon="-0.5427320">
        <ele>1228.8</ele>
        <time>2023-01-14T13:18:33Z</time>
      </trkpt>
      <trkpt lat="42.6872940" lon="-0.5427320">
        <ele>1228.8</ele>
        <time>2023-01-14T13:18:34Z</time>
      </trkpt>
      <trkpt lat="42.6872940" lon="-0.5427320">
        <ele>1228.8</ele>
        <time>2023-01-14T13:18:35Z</time>
      </trkpt>
      <trkpt lat="42.6872940" lon="-0.5427310">
        <ele>1228.8</ele>
        <time>2023-01-14T13:18:36Z</time>
      </trkpt>
      <trkpt lat="42.6872940" lon="-0.5427310">
        <ele>1228.8</ele>
        <time>2023-01-14T13:18:37Z</time>
      </trkpt>
      <trkpt lat="42.6872940" lon="-0.5427310">
        <ele>1228.8</ele>
        <time>2023-01-14T13:18:38Z</time>
      </trkpt>
      <trkpt lat="42.6872940" lon="-0.5427310">
        <ele>1228.8</ele>
        <time>2023-01-14T13:18:39Z</time>
      </trkpt>
      <trkpt lat="42.6872940" lon="-0.5427310">
        <ele>1228.8</ele>
        <time>2023-01-14T13:18:40Z</time>
      </trkpt>
      <trkpt lat="42.6872930" lon="-0.5427310">
        <ele>1228.8</ele>
        <time>2023-01-14T13:18:41Z</time>
      </trkpt>
      <trkpt lat="42.6872930" lon="-0.5427310">
        <ele>1228.8</ele>
        <time>2023-01-14T13:18:42Z</time>
      </trkpt>
      <trkpt lat="42.6872930" lon="-0.5427310">
        <ele>1228.8</ele>
        <time>2023-01-14T13:18:43Z</time>
      </trkpt>
      <trkpt lat="42.6872930" lon="-0.5427310">
        <ele>1228.8</ele>
        <time>2023-01-14T13:18:44Z</time>
      </trkpt>
      <trkpt lat="42.6872930" lon="-0.5427300">
        <ele>1228.8</ele>
        <time>2023-01-14T13:18:45Z</time>
      </trkpt>
      <trkpt lat="42.6872930" lon="-0.5427300">
        <ele>1228.8</ele>
        <time>2023-01-14T13:18:46Z</time>
      </trkpt>
      <trkpt lat="42.6872930" lon="-0.5427300">
        <ele>1228.8</ele>
        <time>2023-01-14T13:18:47Z</time>
      </trkpt>
      <trkpt lat="42.6872930" lon="-0.5427300">
        <ele>1228.8</ele>
        <time>2023-01-14T13:18:48Z</time>
      </trkpt>
      <trkpt lat="42.6872930" lon="-0.5427300">
        <ele>1228.8</ele>
        <time>2023-01-14T13:18:49Z</time>
      </trkpt>
      <trkpt lat="42.6872930" lon="-0.5427300">
        <ele>1228.8</ele>
        <time>2023-01-14T13:18:50Z</time>
      </trkpt>
      <trkpt lat="42.6872930" lon="-0.5427300">
        <ele>1228.8</ele>
        <time>2023-01-14T13:18:51Z</time>
      </trkpt>
      <trkpt lat="42.6872930" lon="-0.5427300">
        <ele>1228.8</ele>
        <time>2023-01-14T13:18:52Z</time>
      </trkpt>
      <trkpt lat="42.6872930" lon="-0.5427300">
        <ele>1228.8</ele>
        <time>2023-01-14T13:18:53Z</time>
      </trkpt>
      <trkpt lat="42.6872930" lon="-0.5427310">
        <ele>1228.8</ele>
        <time>2023-01-14T13:18:54Z</time>
      </trkpt>
      <trkpt lat="42.6872930" lon="-0.5427310">
        <ele>1228.8</ele>
        <time>2023-01-14T13:18:55Z</time>
      </trkpt>
      <trkpt lat="42.6872930" lon="-0.5427310">
        <ele>1228.8</ele>
        <time>2023-01-14T13:18:56Z</time>
      </trkpt>
      <trkpt lat="42.6872930" lon="-0.5427310">
        <ele>1228.8</ele>
        <time>2023-01-14T13:18:57Z</time>
      </trkpt>
      <trkpt lat="42.6872930" lon="-0.5427310">
        <ele>1228.8</ele>
        <time>2023-01-14T13:18:58Z</time>
      </trkpt>
      <trkpt lat="42.6872930" lon="-0.5427310">
        <ele>1228.8</ele>
        <time>2023-01-14T13:18:59Z</time>
      </trkpt>
      <trkpt lat="42.6872930" lon="-0.5427320">
        <ele>1228.8</ele>
        <time>2023-01-14T13:19:00Z</time>
      </trkpt>
      <trkpt lat="42.6872930" lon="-0.5427320">
        <ele>1228.8</ele>
        <time>2023-01-14T13:19:01Z</time>
      </trkpt>
      <trkpt lat="42.6872930" lon="-0.5427320">
        <ele>1228.8</ele>
        <time>2023-01-14T13:19:02Z</time>
      </trkpt>
      <trkpt lat="42.6872930" lon="-0.5427320">
        <ele>1228.8</ele>
        <time>2023-01-14T13:19:03Z</time>
      </trkpt>
      <trkpt lat="42.6872940" lon="-0.5427320">
        <ele>1228.8</ele>
        <time>2023-01-14T13:19:04Z</time>
      </trkpt>
      <trkpt lat="42.6872940" lon="-0.5427320">
        <ele>1228.8</ele>
        <time>2023-01-14T13:19:05Z</time>
      </trkpt>
      <trkpt lat="42.6872940" lon="-0.5427320">
        <ele>1228.8</ele>
        <time>2023-01-14T13:19:06Z</time>
      </trkpt>
      <trkpt lat="42.6872950" lon="-0.5427320">
        <ele>1228.8</ele>
        <time>2023-01-14T13:19:07Z</time>
      </trkpt>
      <trkpt lat="42.6872950" lon="-0.5427320">
        <ele>1228.8</ele>
        <time>2023-01-14T13:19:08Z</time>
      </trkpt>
      <trkpt lat="42.6872950" lon="-0.5427320">
        <ele>1228.8</ele>
        <time>2023-01-14T13:19:09Z</time>
      </trkpt>
      <trkpt lat="42.6872950" lon="-0.5427330">
        <ele>1228.8</ele>
        <time>2023-01-14T13:19:10Z</time>
      </trkpt>
      <trkpt lat="42.6872960" lon="-0.5427330">
        <ele>1228.8</ele>
        <time>2023-01-14T13:19:11Z</time>
      </trkpt>
      <trkpt lat="42.6872960" lon="-0.5427330">
        <ele>1228.8</ele>
        <time>2023-01-14T13:19:12Z</time>
      </trkpt>
      <trkpt lat="42.6872960" lon="-0.5427330">
        <ele>1228.8</ele>
        <time>2023-01-14T13:19:13Z</time>
      </trkpt>
      <trkpt lat="42.6872960" lon="-0.5427330">
        <ele>1228.8</ele>
        <time>2023-01-14T13:19:14Z</time>
      </trkpt>
      <trkpt lat="42.6872960" lon="-0.5427330">
        <ele>1228.8</ele>
        <time>2023-01-14T13:19:15Z</time>
      </trkpt>
      <trkpt lat="42.6872970" lon="-0.5427330">
        <ele>1228.8</ele>
        <time>2023-01-14T13:19:16Z</time>
      </trkpt>
      <trkpt lat="42.6872980" lon="-0.5427340">
        <ele>1228.8</ele>
        <time>2023-01-14T13:19:17Z</time>
      </trkpt>
      <trkpt lat="42.6872980" lon="-0.5427340">
        <ele>1228.8</ele>
        <time>2023-01-14T13:19:18Z</time>
      </trkpt>
      <trkpt lat="42.6872990" lon="-0.5427340">
        <ele>1228.8</ele>
        <time>2023-01-14T13:19:19Z</time>
      </trkpt>
      <trkpt lat="42.6873000" lon="-0.5427340">
        <ele>1228.8</ele>
        <time>2023-01-14T13:19:20Z</time>
      </trkpt>
      <trkpt lat="42.6873000" lon="-0.5427340">
        <ele>1228.8</ele>
        <time>2023-01-14T13:19:21Z</time>
      </trkpt>
      <trkpt lat="42.6873000" lon="-0.5427340">
        <ele>1228.8</ele>
        <time>2023-01-14T13:19:22Z</time>
      </trkpt>
      <trkpt lat="42.6873010" lon="-0.5427340">
        <ele>1228.8</ele>
        <time>2023-01-14T13:19:23Z</time>
      </trkpt>
      <trkpt lat="42.6873010" lon="-0.5427340">
        <ele>1228.8</ele>
        <time>2023-01-14T13:19:24Z</time>
      </trkpt>
      <trkpt lat="42.6873010" lon="-0.5427340">
        <ele>1228.8</ele>
        <time>2023-01-14T13:19:25Z</time>
      </trkpt>
      <trkpt lat="42.6873010" lon="-0.5427340">
        <ele>1228.8</ele>
        <time>2023-01-14T13:19:26Z</time>
      </trkpt>
      <trkpt lat="42.6873010" lon="-0.5427340">
        <ele>1228.8</ele>
        <time>2023-01-14T13:19:27Z</time>
      </trkpt>
      <trkpt lat="42.6873020" lon="-0.5427340">
        <ele>1228.8</ele>
        <time>2023-01-14T13:19:28Z</time>
      </trkpt>
      <trkpt lat="42.6873020" lon="-0.5427340">
        <ele>1228.8</ele>
        <time>2023-01-14T13:19:29Z</time>
      </trkpt>
      <trkpt lat="42.6873020" lon="-0.5427340">
        <ele>1228.8</ele>
        <time>2023-01-14T13:19:30Z</time>
      </trkpt>
      <trkpt lat="42.6873020" lon="-0.5427340">
        <ele>1228.8</ele>
        <time>2023-01-14T13:19:31Z</time>
      </trkpt>
      <trkpt lat="42.6873020" lon="-0.5427340">
        <ele>1228.8</ele>
        <time>2023-01-14T13:19:32Z</time>
      </trkpt>
      <trkpt lat="42.6873020" lon="-0.5427340">
        <ele>1228.8</ele>
        <time>2023-01-14T13:19:33Z</time>
      </trkpt>
      <trkpt lat="42.6873020" lon="-0.5427340">
        <ele>1228.8</ele>
        <time>2023-01-14T13:19:34Z</time>
      </trkpt>
      <trkpt lat="42.6873020" lon="-0.5427340">
        <ele>1228.8</ele>
        <time>2023-01-14T13:19:35Z</time>
      </trkpt>
      <trkpt lat="42.6873010" lon="-0.5427340">
        <ele>1228.8</ele>
        <time>2023-01-14T13:19:36Z</time>
      </trkpt>
      <trkpt lat="42.6873010" lon="-0.5427340">
        <ele>1228.8</ele>
        <time>2023-01-14T13:19:37Z</time>
      </trkpt>
      <trkpt lat="42.6873000" lon="-0.5427330">
        <ele>1228.8</ele>
        <time>2023-01-14T13:19:38Z</time>
      </trkpt>
      <trkpt lat="42.6873000" lon="-0.5427330">
        <ele>1228.8</ele>
        <time>2023-01-14T13:19:39Z</time>
      </trkpt>
      <trkpt lat="42.6872990" lon="-0.5427330">
        <ele>1228.8</ele>
        <time>2023-01-14T13:19:40Z</time>
      </trkpt>
      <trkpt lat="42.6872990" lon="-0.5427330">
        <ele>1228.8</ele>
        <time>2023-01-14T13:19:41Z</time>
      </trkpt>
      <trkpt lat="42.6872990" lon="-0.5427320">
        <ele>1228.8</ele>
        <time>2023-01-14T13:19:42Z</time>
      </trkpt>
      <trkpt lat="42.6872990" lon="-0.5427320">
        <ele>1228.8</ele>
        <time>2023-01-14T13:19:43Z</time>
      </trkpt>
      <trkpt lat="42.6873000" lon="-0.5427320">
        <ele>1228.8</ele>
        <time>2023-01-14T13:19:44Z</time>
      </trkpt>
      <trkpt lat="42.6873000" lon="-0.5427310">
        <ele>1228.8</ele>
        <time>2023-01-14T13:19:45Z</time>
      </trkpt>
      <trkpt lat="42.6872990" lon="-0.5427320">
        <ele>1228.8</ele>
        <time>2023-01-14T13:19:46Z</time>
      </trkpt>
      <trkpt lat="42.6872980" lon="-0.5427320">
        <ele>1228.8</ele>
        <time>2023-01-14T13:19:47Z</time>
      </trkpt>
      <trkpt lat="42.6872960" lon="-0.5427300">
        <ele>1228.8</ele>
        <time>2023-01-14T13:19:48Z</time>
      </trkpt>
      <trkpt lat="42.6872960" lon="-0.5427320">
        <ele>1228.8</ele>
        <time>2023-01-14T13:19:49Z</time>
      </trkpt>
      <trkpt lat="42.6872960" lon="-0.5427320">
        <ele>1228.8</ele>
        <time>2023-01-14T13:19:50Z</time>
      </trkpt>
      <trkpt lat="42.6872950" lon="-0.5427310">
        <ele>1228.8</ele>
        <time>2023-01-14T13:19:51Z</time>
      </trkpt>
      <trkpt lat="42.6872950" lon="-0.5427310">
        <ele>1228.8</ele>
        <time>2023-01-14T13:19:52Z</time>
      </trkpt>
      <trkpt lat="42.6872950" lon="-0.5427310">
        <ele>1228.8</ele>
        <time>2023-01-14T13:19:53Z</time>
      </trkpt>
      <trkpt lat="42.6872940" lon="-0.5427310">
        <ele>1228.8</ele>
        <time>2023-01-14T13:19:54Z</time>
      </trkpt>
      <trkpt lat="42.6872940" lon="-0.5427320">
        <ele>1228.8</ele>
        <time>2023-01-14T13:19:55Z</time>
      </trkpt>
      <trkpt lat="42.6872940" lon="-0.5427320">
        <ele>1228.8</ele>
        <time>2023-01-14T13:19:56Z</time>
      </trkpt>
      <trkpt lat="42.6872940" lon="-0.5427320">
        <ele>1228.8</ele>
        <time>2023-01-14T13:19:57Z</time>
      </trkpt>
      <trkpt lat="42.6872940" lon="-0.5427320">
        <ele>1228.8</ele>
        <time>2023-01-14T13:19:58Z</time>
      </trkpt>
      <trkpt lat="42.6872940" lon="-0.5427330">
        <ele>1228.8</ele>
        <time>2023-01-14T13:19:59Z</time>
      </trkpt>
      <trkpt lat="42.6872930" lon="-0.5427330">
        <ele>1228.8</ele>
        <time>2023-01-14T13:20:00Z</time>
      </trkpt>
      <trkpt lat="42.6872930" lon="-0.5427330">
        <ele>1228.8</ele>
        <time>2023-01-14T13:20:01Z</time>
      </trkpt>
      <trkpt lat="42.6872940" lon="-0.5427330">
        <ele>1228.8</ele>
        <time>2023-01-14T13:20:02Z</time>
      </trkpt>
      <trkpt lat="42.6872940" lon="-0.5427340">
        <ele>1228.8</ele>
        <time>2023-01-14T13:20:03Z</time>
      </trkpt>
      <trkpt lat="42.6872950" lon="-0.5427340">
        <ele>1228.8</ele>
        <time>2023-01-14T13:20:04Z</time>
      </trkpt>
      <trkpt lat="42.6872960" lon="-0.5427360">
        <ele>1228.8</ele>
        <time>2023-01-14T13:20:05Z</time>
      </trkpt>
      <trkpt lat="42.6872960" lon="-0.5427350">
        <ele>1228.8</ele>
        <time>2023-01-14T13:20:06Z</time>
      </trkpt>
      <trkpt lat="42.6872970" lon="-0.5427360">
        <ele>1228.8</ele>
        <time>2023-01-14T13:20:07Z</time>
      </trkpt>
      <trkpt lat="42.6872980" lon="-0.5427370">
        <ele>1228.8</ele>
        <time>2023-01-14T13:20:08Z</time>
      </trkpt>
      <trkpt lat="42.6872960" lon="-0.5427370">
        <ele>1228.8</ele>
        <time>2023-01-14T13:20:09Z</time>
      </trkpt>
      <trkpt lat="42.6872980" lon="-0.5427390">
        <ele>1228.8</ele>
        <time>2023-01-14T13:20:10Z</time>
      </trkpt>
      <trkpt lat="42.6872970" lon="-0.5427390">
        <ele>1228.8</ele>
        <time>2023-01-14T13:20:11Z</time>
      </trkpt>
      <trkpt lat="42.6872970" lon="-0.5427380">
        <ele>1228.8</ele>
        <time>2023-01-14T13:20:12Z</time>
      </trkpt>
      <trkpt lat="42.6872970" lon="-0.5427380">
        <ele>1228.8</ele>
        <time>2023-01-14T13:20:13Z</time>
      </trkpt>
      <trkpt lat="42.6872970" lon="-0.5427380">
        <ele>1228.8</ele>
        <time>2023-01-14T13:20:14Z</time>
      </trkpt>
      <trkpt lat="42.6872980" lon="-0.5427370">
        <ele>1228.8</ele>
        <time>2023-01-14T13:20:15Z</time>
      </trkpt>
      <trkpt lat="42.6872980" lon="-0.5427360">
        <ele>1228.8</ele>
        <time>2023-01-14T13:20:16Z</time>
      </trkpt>
      <trkpt lat="42.6872990" lon="-0.5427350">
        <ele>1228.8</ele>
        <time>2023-01-14T13:20:17Z</time>
      </trkpt>
      <trkpt lat="42.6872990" lon="-0.5427350">
        <ele>1228.8</ele>
        <time>2023-01-14T13:20:18Z</time>
      </trkpt>
      <trkpt lat="42.6872990" lon="-0.5427340">
        <ele>1228.8</ele>
        <time>2023-01-14T13:20:19Z</time>
      </trkpt>
      <trkpt lat="42.6872990" lon="-0.5427340">
        <ele>1228.8</ele>
        <time>2023-01-14T13:20:20Z</time>
      </trkpt>
      <trkpt lat="42.6872990" lon="-0.5427330">
        <ele>1228.8</ele>
        <time>2023-01-14T13:20:21Z</time>
      </trkpt>
      <trkpt lat="42.6872990" lon="-0.5427330">
        <ele>1228.8</ele>
        <time>2023-01-14T13:20:22Z</time>
      </trkpt>
      <trkpt lat="42.6872990" lon="-0.5427330">
        <ele>1228.8</ele>
        <time>2023-01-14T13:20:23Z</time>
      </trkpt>
      <trkpt lat="42.6872990" lon="-0.5427330">
        <ele>1228.8</ele>
        <time>2023-01-14T13:20:24Z</time>
      </trkpt>
      <trkpt lat="42.6872990" lon="-0.5427320">
        <ele>1228.8</ele>
        <time>2023-01-14T13:20:25Z</time>
      </trkpt>
      <trkpt lat="42.6872990" lon="-0.5427320">
        <ele>1228.8</ele>
        <time>2023-01-14T13:20:26Z</time>
      </trkpt>
      <trkpt lat="42.6872990" lon="-0.5427320">
        <ele>1228.8</ele>
        <time>2023-01-14T13:20:27Z</time>
      </trkpt>
      <trkpt lat="42.6873000" lon="-0.5427320">
        <ele>1228.8</ele>
        <time>2023-01-14T13:20:28Z</time>
      </trkpt>
      <trkpt lat="42.6873000" lon="-0.5427320">
        <ele>1228.8</ele>
        <time>2023-01-14T13:20:29Z</time>
      </trkpt>
      <trkpt lat="42.6873010" lon="-0.5427320">
        <ele>1228.8</ele>
        <time>2023-01-14T13:20:30Z</time>
      </trkpt>
      <trkpt lat="42.6873010" lon="-0.5427320">
        <ele>1228.8</ele>
        <time>2023-01-14T13:20:31Z</time>
      </trkpt>
      <trkpt lat="42.6873010" lon="-0.5427310">
        <ele>1228.8</ele>
        <time>2023-01-14T13:20:32Z</time>
      </trkpt>
      <trkpt lat="42.6873020" lon="-0.5427310">
        <ele>1228.8</ele>
        <time>2023-01-14T13:20:33Z</time>
      </trkpt>
      <trkpt lat="42.6873020" lon="-0.5427310">
        <ele>1228.8</ele>
        <time>2023-01-14T13:20:34Z</time>
      </trkpt>
      <trkpt lat="42.6873020" lon="-0.5427310">
        <ele>1228.8</ele>
        <time>2023-01-14T13:20:35Z</time>
      </trkpt>
      <trkpt lat="42.6873020" lon="-0.5427310">
        <ele>1228.8</ele>
        <time>2023-01-14T13:20:36Z</time>
      </trkpt>
      <trkpt lat="42.6873030" lon="-0.5427300">
        <ele>1228.8</ele>
        <time>2023-01-14T13:20:37Z</time>
      </trkpt>
      <trkpt lat="42.6873030" lon="-0.5427290">
        <ele>1228.8</ele>
        <time>2023-01-14T13:20:38Z</time>
      </trkpt>
      <trkpt lat="42.6873030" lon="-0.5427270">
        <ele>1228.8</ele>
        <time>2023-01-14T13:20:39Z</time>
      </trkpt>
      <trkpt lat="42.6873020" lon="-0.5427260">
        <ele>1228.8</ele>
        <time>2023-01-14T13:20:40Z</time>
      </trkpt>
      <trkpt lat="42.6873020" lon="-0.5427250">
        <ele>1228.8</ele>
        <time>2023-01-14T13:20:41Z</time>
      </trkpt>
      <trkpt lat="42.6873030" lon="-0.5427240">
        <ele>1228.8</ele>
        <time>2023-01-14T13:20:42Z</time>
      </trkpt>
      <trkpt lat="42.6873050" lon="-0.5427220">
        <ele>1228.8</ele>
        <time>2023-01-14T13:20:43Z</time>
      </trkpt>
      <trkpt lat="42.6873050" lon="-0.5427220">
        <ele>1228.8</ele>
        <time>2023-01-14T13:20:44Z</time>
      </trkpt>
      <trkpt lat="42.6873050" lon="-0.5427210">
        <ele>1228.8</ele>
        <time>2023-01-14T13:20:45Z</time>
      </trkpt>
      <trkpt lat="42.6873040" lon="-0.5427220">
        <ele>1228.8</ele>
        <time>2023-01-14T13:20:46Z</time>
      </trkpt>
      <trkpt lat="42.6873040" lon="-0.5427210">
        <ele>1228.8</ele>
        <time>2023-01-14T13:20:47Z</time>
      </trkpt>
      <trkpt lat="42.6873060" lon="-0.5427210">
        <ele>1228.8</ele>
        <time>2023-01-14T13:20:48Z</time>
      </trkpt>
      <trkpt lat="42.6873090" lon="-0.5427200">
        <ele>1228.8</ele>
        <time>2023-01-14T13:20:49Z</time>
      </trkpt>
      <trkpt lat="42.6873110" lon="-0.5427200">
        <ele>1228.8</ele>
        <time>2023-01-14T13:20:50Z</time>
      </trkpt>
      <trkpt lat="42.6873130" lon="-0.5427210">
        <ele>1228.8</ele>
        <time>2023-01-14T13:20:51Z</time>
      </trkpt>
      <trkpt lat="42.6873150" lon="-0.5427220">
        <ele>1228.8</ele>
        <time>2023-01-14T13:20:52Z</time>
      </trkpt>
      <trkpt lat="42.6873180" lon="-0.5427230">
        <ele>1228.8</ele>
        <time>2023-01-14T13:20:53Z</time>
      </trkpt>
      <trkpt lat="42.6873200" lon="-0.5427210">
        <ele>1228.8</ele>
        <time>2023-01-14T13:20:54Z</time>
      </trkpt>
      <trkpt lat="42.6873220" lon="-0.5427190">
        <ele>1228.8</ele>
        <time>2023-01-14T13:20:55Z</time>
      </trkpt>
      <trkpt lat="42.6873210" lon="-0.5427210">
        <ele>1228.8</ele>
        <time>2023-01-14T13:20:56Z</time>
      </trkpt>
      <trkpt lat="42.6873210" lon="-0.5427220">
        <ele>1228.8</ele>
        <time>2023-01-14T13:20:57Z</time>
      </trkpt>
      <trkpt lat="42.6873220" lon="-0.5427230">
        <ele>1228.8</ele>
        <time>2023-01-14T13:20:58Z</time>
      </trkpt>
      <trkpt lat="42.6873220" lon="-0.5427230">
        <ele>1228.8</ele>
        <time>2023-01-14T13:20:59Z</time>
      </trkpt>
      <trkpt lat="42.6873230" lon="-0.5427230">
        <ele>1228.8</ele>
        <time>2023-01-14T13:21:00Z</time>
      </trkpt>
      <trkpt lat="42.6873230" lon="-0.5427230">
        <ele>1228.8</ele>
        <time>2023-01-14T13:21:01Z</time>
      </trkpt>
      <trkpt lat="42.6873240" lon="-0.5427230">
        <ele>1228.8</ele>
        <time>2023-01-14T13:21:02Z</time>
      </trkpt>
      <trkpt lat="42.6873230" lon="-0.5427220">
        <ele>1228.8</ele>
        <time>2023-01-14T13:21:03Z</time>
      </trkpt>
      <trkpt lat="42.6873240" lon="-0.5427220">
        <ele>1228.8</ele>
        <time>2023-01-14T13:21:04Z</time>
      </trkpt>
      <trkpt lat="42.6873230" lon="-0.5427220">
        <ele>1228.8</ele>
        <time>2023-01-14T13:21:05Z</time>
      </trkpt>
      <trkpt lat="42.6873230" lon="-0.5427220">
        <ele>1228.8</ele>
        <time>2023-01-14T13:21:06Z</time>
      </trkpt>
      <trkpt lat="42.6873230" lon="-0.5427230">
        <ele>1228.8</ele>
        <time>2023-01-14T13:21:07Z</time>
      </trkpt>
      <trkpt lat="42.6873230" lon="-0.5427220">
        <ele>1228.8</ele>
        <time>2023-01-14T13:21:08Z</time>
      </trkpt>
      <trkpt lat="42.6873230" lon="-0.5427220">
        <ele>1228.8</ele>
        <time>2023-01-14T13:21:09Z</time>
      </trkpt>
      <trkpt lat="42.6873230" lon="-0.5427210">
        <ele>1228.8</ele>
        <time>2023-01-14T13:21:10Z</time>
      </trkpt>
      <trkpt lat="42.6873230" lon="-0.5427210">
        <ele>1228.8</ele>
        <time>2023-01-14T13:21:11Z</time>
      </trkpt>
      <trkpt lat="42.6873230" lon="-0.5427200">
        <ele>1228.8</ele>
        <time>2023-01-14T13:21:12Z</time>
      </trkpt>
      <trkpt lat="42.6873210" lon="-0.5427170">
        <ele>1228.8</ele>
        <time>2023-01-14T13:21:13Z</time>
      </trkpt>
      <trkpt lat="42.6873210" lon="-0.5427170">
        <ele>1228.8</ele>
        <time>2023-01-14T13:21:14Z</time>
      </trkpt>
      <trkpt lat="42.6873210" lon="-0.5427170">
        <ele>1228.8</ele>
        <time>2023-01-14T13:21:15Z</time>
      </trkpt>
      <trkpt lat="42.6873200" lon="-0.5427170">
        <ele>1228.8</ele>
        <time>2023-01-14T13:21:16Z</time>
      </trkpt>
      <trkpt lat="42.6873190" lon="-0.5427180">
        <ele>1228.8</ele>
        <time>2023-01-14T13:21:17Z</time>
      </trkpt>
      <trkpt lat="42.6873190" lon="-0.5427180">
        <ele>1228.8</ele>
        <time>2023-01-14T13:21:18Z</time>
      </trkpt>
      <trkpt lat="42.6873190" lon="-0.5427180">
        <ele>1228.8</ele>
        <time>2023-01-14T13:21:19Z</time>
      </trkpt>
      <trkpt lat="42.6873190" lon="-0.5427180">
        <ele>1228.8</ele>
        <time>2023-01-14T13:21:20Z</time>
      </trkpt>
      <trkpt lat="42.6873180" lon="-0.5427180">
        <ele>1228.8</ele>
        <time>2023-01-14T13:21:21Z</time>
      </trkpt>
      <trkpt lat="42.6873180" lon="-0.5427180">
        <ele>1228.8</ele>
        <time>2023-01-14T13:21:22Z</time>
      </trkpt>
      <trkpt lat="42.6873190" lon="-0.5427190">
        <ele>1228.8</ele>
        <time>2023-01-14T13:21:23Z</time>
      </trkpt>
      <trkpt lat="42.6873200" lon="-0.5427190">
        <ele>1228.8</ele>
        <time>2023-01-14T13:21:24Z</time>
      </trkpt>
      <trkpt lat="42.6873190" lon="-0.5427190">
        <ele>1228.8</ele>
        <time>2023-01-14T13:21:25Z</time>
      </trkpt>
      <trkpt lat="42.6873200" lon="-0.5427190">
        <ele>1228.8</ele>
        <time>2023-01-14T13:21:26Z</time>
      </trkpt>
      <trkpt lat="42.6873200" lon="-0.5427200">
        <ele>1228.8</ele>
        <time>2023-01-14T13:21:27Z</time>
      </trkpt>
      <trkpt lat="42.6873200" lon="-0.5427200">
        <ele>1228.8</ele>
        <time>2023-01-14T13:21:28Z</time>
      </trkpt>
      <trkpt lat="42.6873200" lon="-0.5427200">
        <ele>1228.8</ele>
        <time>2023-01-14T13:21:29Z</time>
      </trkpt>
      <trkpt lat="42.6873200" lon="-0.5427200">
        <ele>1228.8</ele>
        <time>2023-01-14T13:21:30Z</time>
      </trkpt>
      <trkpt lat="42.6873200" lon="-0.5427210">
        <ele>1228.8</ele>
        <time>2023-01-14T13:21:31Z</time>
      </trkpt>
      <trkpt lat="42.6873200" lon="-0.5427210">
        <ele>1228.8</ele>
        <time>2023-01-14T13:21:32Z</time>
      </trkpt>
      <trkpt lat="42.6873200" lon="-0.5427210">
        <ele>1228.8</ele>
        <time>2023-01-14T13:21:33Z</time>
      </trkpt>
      <trkpt lat="42.6873200" lon="-0.5427220">
        <ele>1228.8</ele>
        <time>2023-01-14T13:21:34Z</time>
      </trkpt>
      <trkpt lat="42.6873190" lon="-0.5427220">
        <ele>1228.8</ele>
        <time>2023-01-14T13:21:35Z</time>
      </trkpt>
      <trkpt lat="42.6873190" lon="-0.5427220">
        <ele>1228.8</ele>
        <time>2023-01-14T13:21:36Z</time>
      </trkpt>
      <trkpt lat="42.6873190" lon="-0.5427220">
        <ele>1228.8</ele>
        <time>2023-01-14T13:21:37Z</time>
      </trkpt>
      <trkpt lat="42.6873190" lon="-0.5427220">
        <ele>1228.8</ele>
        <time>2023-01-14T13:21:38Z</time>
      </trkpt>
      <trkpt lat="42.6873190" lon="-0.5427230">
        <ele>1228.8</ele>
        <time>2023-01-14T13:21:39Z</time>
      </trkpt>
      <trkpt lat="42.6873190" lon="-0.5427230">
        <ele>1228.8</ele>
        <time>2023-01-14T13:21:40Z</time>
      </trkpt>
      <trkpt lat="42.6873190" lon="-0.5427230">
        <ele>1228.8</ele>
        <time>2023-01-14T13:21:41Z</time>
      </trkpt>
      <trkpt lat="42.6873190" lon="-0.5427240">
        <ele>1228.8</ele>
        <time>2023-01-14T13:21:42Z</time>
      </trkpt>
      <trkpt lat="42.6873190" lon="-0.5427240">
        <ele>1228.8</ele>
        <time>2023-01-14T13:21:43Z</time>
      </trkpt>
      <trkpt lat="42.6873190" lon="-0.5427240">
        <ele>1228.8</ele>
        <time>2023-01-14T13:21:44Z</time>
      </trkpt>
      <trkpt lat="42.6873190" lon="-0.5427250">
        <ele>1228.8</ele>
        <time>2023-01-14T13:21:45Z</time>
      </trkpt>
      <trkpt lat="42.6873180" lon="-0.5427250">
        <ele>1228.8</ele>
        <time>2023-01-14T13:21:46Z</time>
      </trkpt>
      <trkpt lat="42.6873180" lon="-0.5427250">
        <ele>1228.8</ele>
        <time>2023-01-14T13:21:47Z</time>
      </trkpt>
      <trkpt lat="42.6873180" lon="-0.5427260">
        <ele>1228.8</ele>
        <time>2023-01-14T13:21:48Z</time>
      </trkpt>
      <trkpt lat="42.6873180" lon="-0.5427260">
        <ele>1228.8</ele>
        <time>2023-01-14T13:21:49Z</time>
      </trkpt>
      <trkpt lat="42.6873180" lon="-0.5427260">
        <ele>1228.8</ele>
        <time>2023-01-14T13:21:50Z</time>
      </trkpt>
      <trkpt lat="42.6873180" lon="-0.5427270">
        <ele>1228.8</ele>
        <time>2023-01-14T13:21:51Z</time>
      </trkpt>
      <trkpt lat="42.6873180" lon="-0.5427280">
        <ele>1228.8</ele>
        <time>2023-01-14T13:21:52Z</time>
      </trkpt>
      <trkpt lat="42.6873180" lon="-0.5427280">
        <ele>1228.8</ele>
        <time>2023-01-14T13:21:53Z</time>
      </trkpt>
      <trkpt lat="42.6873180" lon="-0.5427290">
        <ele>1228.8</ele>
        <time>2023-01-14T13:21:54Z</time>
      </trkpt>
      <trkpt lat="42.6873180" lon="-0.5427290">
        <ele>1228.8</ele>
        <time>2023-01-14T13:21:55Z</time>
      </trkpt>
      <trkpt lat="42.6873180" lon="-0.5427290">
        <ele>1228.8</ele>
        <time>2023-01-14T13:21:56Z</time>
      </trkpt>
      <trkpt lat="42.6873180" lon="-0.5427300">
        <ele>1228.8</ele>
        <time>2023-01-14T13:21:57Z</time>
      </trkpt>
      <trkpt lat="42.6873160" lon="-0.5427300">
        <ele>1228.8</ele>
        <time>2023-01-14T13:21:58Z</time>
      </trkpt>
      <trkpt lat="42.6873170" lon="-0.5427300">
        <ele>1228.8</ele>
        <time>2023-01-14T13:21:59Z</time>
      </trkpt>
      <trkpt lat="42.6873180" lon="-0.5427290">
        <ele>1228.8</ele>
        <time>2023-01-14T13:22:00Z</time>
      </trkpt>
      <trkpt lat="42.6873250" lon="-0.5427280">
        <ele>1228.8</ele>
        <time>2023-01-14T13:22:01Z</time>
      </trkpt>
      <trkpt lat="42.6873280" lon="-0.5427270">
        <ele>1228.8</ele>
        <time>2023-01-14T13:22:02Z</time>
      </trkpt>
      <trkpt lat="42.6873380" lon="-0.5427270">
        <ele>1228.8</ele>
        <time>2023-01-14T13:22:03Z</time>
      </trkpt>
      <trkpt lat="42.6873440" lon="-0.5427250">
        <ele>1228.8</ele>
        <time>2023-01-14T13:22:04Z</time>
      </trkpt>
      <trkpt lat="42.6873520" lon="-0.5427200">
        <ele>1228.8</ele>
        <time>2023-01-14T13:22:05Z</time>
      </trkpt>
      <trkpt lat="42.6873600" lon="-0.5427130">
        <ele>1228.8</ele>
        <time>2023-01-14T13:22:06Z</time>
      </trkpt>
      <trkpt lat="42.6873680" lon="-0.5427090">
        <ele>1228.8</ele>
        <time>2023-01-14T13:22:07Z</time>
      </trkpt>
      <trkpt lat="42.6873780" lon="-0.5427020">
        <ele>1228.8</ele>
        <time>2023-01-14T13:22:08Z</time>
      </trkpt>
      <trkpt lat="42.6873850" lon="-0.5426930">
        <ele>1228.4</ele>
        <time>2023-01-14T13:22:09Z</time>
      </trkpt>
      <trkpt lat="42.6873940" lon="-0.5426870">
        <ele>1228.2</ele>
        <time>2023-01-14T13:22:10Z</time>
      </trkpt>
      <trkpt lat="42.6874030" lon="-0.5426870">
        <ele>1228.0</ele>
        <time>2023-01-14T13:22:11Z</time>
      </trkpt>
      <trkpt lat="42.6874000" lon="-0.5426850">
        <ele>1228.0</ele>
        <time>2023-01-14T13:22:12Z</time>
      </trkpt>
      <trkpt lat="42.6873950" lon="-0.5426820">
        <ele>1228.0</ele>
        <time>2023-01-14T13:22:13Z</time>
      </trkpt>
      <trkpt lat="42.6873950" lon="-0.5426840">
        <ele>1228.0</ele>
        <time>2023-01-14T13:22:14Z</time>
      </trkpt>
      <trkpt lat="42.6873920" lon="-0.5426860">
        <ele>1228.0</ele>
        <time>2023-01-14T13:22:15Z</time>
      </trkpt>
      <trkpt lat="42.6873850" lon="-0.5426880">
        <ele>1228.2</ele>
        <time>2023-01-14T13:22:16Z</time>
      </trkpt>
      <trkpt lat="42.6873800" lon="-0.5426880">
        <ele>1228.2</ele>
        <time>2023-01-14T13:22:17Z</time>
      </trkpt>
      <trkpt lat="42.6873780" lon="-0.5426890">
        <ele>1228.2</ele>
        <time>2023-01-14T13:22:18Z</time>
      </trkpt>
      <trkpt lat="42.6873760" lon="-0.5426870">
        <ele>1228.2</ele>
        <time>2023-01-14T13:22:19Z</time>
      </trkpt>
      <trkpt lat="42.6873740" lon="-0.5426860">
        <ele>1228.4</ele>
        <time>2023-01-14T13:22:20Z</time>
      </trkpt>
      <trkpt lat="42.6873720" lon="-0.5426860">
        <ele>1228.4</ele>
        <time>2023-01-14T13:22:21Z</time>
      </trkpt>
      <trkpt lat="42.6873710" lon="-0.5426870">
        <ele>1228.2</ele>
        <time>2023-01-14T13:22:22Z</time>
      </trkpt>
      <trkpt lat="42.6873690" lon="-0.5426890">
        <ele>1228.0</ele>
        <time>2023-01-14T13:22:23Z</time>
      </trkpt>
      <trkpt lat="42.6873670" lon="-0.5426920">
        <ele>1228.0</ele>
        <time>2023-01-14T13:22:24Z</time>
      </trkpt>
      <trkpt lat="42.6873670" lon="-0.5426960">
        <ele>1227.8</ele>
        <time>2023-01-14T13:22:25Z</time>
      </trkpt>
      <trkpt lat="42.6873690" lon="-0.5427000">
        <ele>1227.8</ele>
        <time>2023-01-14T13:22:26Z</time>
      </trkpt>
      <trkpt lat="42.6873730" lon="-0.5427040">
        <ele>1227.8</ele>
        <time>2023-01-14T13:22:27Z</time>
      </trkpt>
      <trkpt lat="42.6873750" lon="-0.5427040">
        <ele>1227.8</ele>
        <time>2023-01-14T13:22:28Z</time>
      </trkpt>
      <trkpt lat="42.6873780" lon="-0.5427040">
        <ele>1228.0</ele>
        <time>2023-01-14T13:22:29Z</time>
      </trkpt>
      <trkpt lat="42.6873820" lon="-0.5427050">
        <ele>1228.0</ele>
        <time>2023-01-14T13:22:30Z</time>
      </trkpt>
      <trkpt lat="42.6873850" lon="-0.5427030">
        <ele>1228.2</ele>
        <time>2023-01-14T13:22:31Z</time>
      </trkpt>
      <trkpt lat="42.6873890" lon="-0.5427040">
        <ele>1228.2</ele>
        <time>2023-01-14T13:22:32Z</time>
      </trkpt>
      <trkpt lat="42.6873890" lon="-0.5427040">
        <ele>1228.2</ele>
        <time>2023-01-14T13:22:33Z</time>
      </trkpt>
      <trkpt lat="42.6873890" lon="-0.5427020">
        <ele>1228.2</ele>
        <time>2023-01-14T13:22:34Z</time>
      </trkpt>
      <trkpt lat="42.6873910" lon="-0.5427000">
        <ele>1228.2</ele>
        <time>2023-01-14T13:22:35Z</time>
      </trkpt>
      <trkpt lat="42.6873940" lon="-0.5427010">
        <ele>1228.2</ele>
        <time>2023-01-14T13:22:36Z</time>
      </trkpt>
      <trkpt lat="42.6874020" lon="-0.5427020">
        <ele>1228.0</ele>
        <time>2023-01-14T13:22:37Z</time>
      </trkpt>
      <trkpt lat="42.6874090" lon="-0.5426980">
        <ele>1228.0</ele>
        <time>2023-01-14T13:22:38Z</time>
      </trkpt>
      <trkpt lat="42.6874150" lon="-0.5426950">
        <ele>1228.2</ele>
        <time>2023-01-14T13:22:39Z</time>
      </trkpt>
      <trkpt lat="42.6874230" lon="-0.5426910">
        <ele>1228.2</ele>
        <time>2023-01-14T13:22:40Z</time>
      </trkpt>
      <trkpt lat="42.6874290" lon="-0.5426870">
        <ele>1228.4</ele>
        <time>2023-01-14T13:22:41Z</time>
      </trkpt>
      <trkpt lat="42.6874350" lon="-0.5426830">
        <ele>1228.6</ele>
        <time>2023-01-14T13:22:42Z</time>
      </trkpt>
      <trkpt lat="42.6874420" lon="-0.5426820">
        <ele>1228.8</ele>
        <time>2023-01-14T13:22:43Z</time>
      </trkpt>
      <trkpt lat="42.6874530" lon="-0.5426820">
        <ele>1228.8</ele>
        <time>2023-01-14T13:22:44Z</time>
      </trkpt>
      <trkpt lat="42.6874600" lon="-0.5426860">
        <ele>1229.0</ele>
        <time>2023-01-14T13:22:45Z</time>
      </trkpt>
      <trkpt lat="42.6874650" lon="-0.5426840">
        <ele>1229.0</ele>
        <time>2023-01-14T13:22:46Z</time>
      </trkpt>
      <trkpt lat="42.6874700" lon="-0.5426790">
        <ele>1229.2</ele>
        <time>2023-01-14T13:22:47Z</time>
      </trkpt>
      <trkpt lat="42.6874710" lon="-0.5426750">
        <ele>1229.2</ele>
        <time>2023-01-14T13:22:48Z</time>
      </trkpt>
      <trkpt lat="42.6874690" lon="-0.5426670">
        <ele>1229.2</ele>
        <time>2023-01-14T13:22:49Z</time>
      </trkpt>
      <trkpt lat="42.6874690" lon="-0.5426660">
        <ele>1229.4</ele>
        <time>2023-01-14T13:22:50Z</time>
      </trkpt>
      <trkpt lat="42.6874700" lon="-0.5426670">
        <ele>1229.4</ele>
        <time>2023-01-14T13:22:51Z</time>
      </trkpt>
      <trkpt lat="42.6874720" lon="-0.5426630">
        <ele>1229.6</ele>
        <time>2023-01-14T13:22:52Z</time>
      </trkpt>
      <trkpt lat="42.6874730" lon="-0.5426600">
        <ele>1229.6</ele>
        <time>2023-01-14T13:22:53Z</time>
      </trkpt>
      <trkpt lat="42.6874750" lon="-0.5426610">
        <ele>1229.6</ele>
        <time>2023-01-14T13:22:54Z</time>
      </trkpt>
      <trkpt lat="42.6874760" lon="-0.5426600">
        <ele>1229.6</ele>
        <time>2023-01-14T13:22:55Z</time>
      </trkpt>
      <trkpt lat="42.6874760" lon="-0.5426590">
        <ele>1229.6</ele>
        <time>2023-01-14T13:22:56Z</time>
      </trkpt>
      <trkpt lat="42.6874780" lon="-0.5426580">
        <ele>1229.6</ele>
        <time>2023-01-14T13:22:57Z</time>
      </trkpt>
      <trkpt lat="42.6874800" lon="-0.5426560">
        <ele>1229.6</ele>
        <time>2023-01-14T13:22:58Z</time>
      </trkpt>
      <trkpt lat="42.6874810" lon="-0.5426550">
        <ele>1229.6</ele>
        <time>2023-01-14T13:22:59Z</time>
      </trkpt>
      <trkpt lat="42.6874820" lon="-0.5426550">
        <ele>1229.6</ele>
        <time>2023-01-14T13:23:00Z</time>
      </trkpt>
      <trkpt lat="42.6874820" lon="-0.5426540">
        <ele>1229.6</ele>
        <time>2023-01-14T13:23:01Z</time>
      </trkpt>
      <trkpt lat="42.6874820" lon="-0.5426540">
        <ele>1229.6</ele>
        <time>2023-01-14T13:23:02Z</time>
      </trkpt>
      <trkpt lat="42.6874830" lon="-0.5426530">
        <ele>1229.6</ele>
        <time>2023-01-14T13:23:03Z</time>
      </trkpt>
      <trkpt lat="42.6874820" lon="-0.5426540">
        <ele>1229.6</ele>
        <time>2023-01-14T13:23:04Z</time>
      </trkpt>
      <trkpt lat="42.6874820" lon="-0.5426540">
        <ele>1229.6</ele>
        <time>2023-01-14T13:23:05Z</time>
      </trkpt>
      <trkpt lat="42.6874830" lon="-0.5426530">
        <ele>1229.8</ele>
        <time>2023-01-14T13:23:06Z</time>
      </trkpt>
      <trkpt lat="42.6874830" lon="-0.5426530">
        <ele>1230.0</ele>
        <time>2023-01-14T13:23:07Z</time>
      </trkpt>
      <trkpt lat="42.6874840" lon="-0.5426540">
        <ele>1230.2</ele>
        <time>2023-01-14T13:23:08Z</time>
      </trkpt>
      <trkpt lat="42.6874840" lon="-0.5426550">
        <ele>1230.2</ele>
        <time>2023-01-14T13:23:09Z</time>
      </trkpt>
      <trkpt lat="42.6874830" lon="-0.5426570">
        <ele>1230.2</ele>
        <time>2023-01-14T13:23:10Z</time>
      </trkpt>
      <trkpt lat="42.6874820" lon="-0.5426590">
        <ele>1230.2</ele>
        <time>2023-01-14T13:23:11Z</time>
      </trkpt>
      <trkpt lat="42.6874820" lon="-0.5426600">
        <ele>1230.0</ele>
        <time>2023-01-14T13:23:12Z</time>
      </trkpt>
      <trkpt lat="42.6874830" lon="-0.5426610">
        <ele>1230.0</ele>
        <time>2023-01-14T13:23:13Z</time>
      </trkpt>
      <trkpt lat="42.6874830" lon="-0.5426620">
        <ele>1230.0</ele>
        <time>2023-01-14T13:23:14Z</time>
      </trkpt>
      <trkpt lat="42.6874830" lon="-0.5426620">
        <ele>1230.0</ele>
        <time>2023-01-14T13:23:15Z</time>
      </trkpt>
      <trkpt lat="42.6874830" lon="-0.5426620">
        <ele>1230.0</ele>
        <time>2023-01-14T13:23:16Z</time>
      </trkpt>
      <trkpt lat="42.6874830" lon="-0.5426620">
        <ele>1229.8</ele>
        <time>2023-01-14T13:23:17Z</time>
      </trkpt>
      <trkpt lat="42.6874830" lon="-0.5426620">
        <ele>1229.8</ele>
        <time>2023-01-14T13:23:18Z</time>
      </trkpt>
      <trkpt lat="42.6874830" lon="-0.5426620">
        <ele>1229.8</ele>
        <time>2023-01-14T13:23:19Z</time>
      </trkpt>
      <trkpt lat="42.6874840" lon="-0.5426620">
        <ele>1229.8</ele>
        <time>2023-01-14T13:23:20Z</time>
      </trkpt>
      <trkpt lat="42.6874840" lon="-0.5426620">
        <ele>1229.8</ele>
        <time>2023-01-14T13:23:21Z</time>
      </trkpt>
      <trkpt lat="42.6874840" lon="-0.5426620">
        <ele>1229.8</ele>
        <time>2023-01-14T13:23:22Z</time>
      </trkpt>
      <trkpt lat="42.6874840" lon="-0.5426620">
        <ele>1229.8</ele>
        <time>2023-01-14T13:23:23Z</time>
      </trkpt>
      <trkpt lat="42.6874850" lon="-0.5426620">
        <ele>1229.6</ele>
        <time>2023-01-14T13:23:24Z</time>
      </trkpt>
      <trkpt lat="42.6874850" lon="-0.5426620">
        <ele>1229.6</ele>
        <time>2023-01-14T13:23:25Z</time>
      </trkpt>
      <trkpt lat="42.6874850" lon="-0.5426620">
        <ele>1229.6</ele>
        <time>2023-01-14T13:23:26Z</time>
      </trkpt>
      <trkpt lat="42.6874850" lon="-0.5426620">
        <ele>1229.6</ele>
        <time>2023-01-14T13:23:27Z</time>
      </trkpt>
      <trkpt lat="42.6874850" lon="-0.5426620">
        <ele>1229.6</ele>
        <time>2023-01-14T13:23:28Z</time>
      </trkpt>
      <trkpt lat="42.6874850" lon="-0.5426610">
        <ele>1229.6</ele>
        <time>2023-01-14T13:23:29Z</time>
      </trkpt>
      <trkpt lat="42.6874860" lon="-0.5426610">
        <ele>1229.6</ele>
        <time>2023-01-14T13:23:30Z</time>
      </trkpt>
      <trkpt lat="42.6874860" lon="-0.5426610">
        <ele>1229.6</ele>
        <time>2023-01-14T13:23:31Z</time>
      </trkpt>
      <trkpt lat="42.6874860" lon="-0.5426610">
        <ele>1229.6</ele>
        <time>2023-01-14T13:23:32Z</time>
      </trkpt>
      <trkpt lat="42.6874860" lon="-0.5426610">
        <ele>1229.6</ele>
        <time>2023-01-14T13:23:33Z</time>
      </trkpt>
      <trkpt lat="42.6874860" lon="-0.5426610">
        <ele>1229.8</ele>
        <time>2023-01-14T13:23:34Z</time>
      </trkpt>
      <trkpt lat="42.6874870" lon="-0.5426600">
        <ele>1229.8</ele>
        <time>2023-01-14T13:23:35Z</time>
      </trkpt>
      <trkpt lat="42.6874870" lon="-0.5426600">
        <ele>1229.8</ele>
        <time>2023-01-14T13:23:36Z</time>
      </trkpt>
      <trkpt lat="42.6874870" lon="-0.5426600">
        <ele>1229.8</ele>
        <time>2023-01-14T13:23:37Z</time>
      </trkpt>
      <trkpt lat="42.6874870" lon="-0.5426600">
        <ele>1229.8</ele>
        <time>2023-01-14T13:23:38Z</time>
      </trkpt>
      <trkpt lat="42.6874880" lon="-0.5426600">
        <ele>1229.8</ele>
        <time>2023-01-14T13:23:39Z</time>
      </trkpt>
      <trkpt lat="42.6874880" lon="-0.5426600">
        <ele>1229.8</ele>
        <time>2023-01-14T13:23:40Z</time>
      </trkpt>
      <trkpt lat="42.6874880" lon="-0.5426600">
        <ele>1229.8</ele>
        <time>2023-01-14T13:23:41Z</time>
      </trkpt>
      <trkpt lat="42.6874880" lon="-0.5426590">
        <ele>1229.4</ele>
        <time>2023-01-14T13:23:42Z</time>
      </trkpt>
      <trkpt lat="42.6874890" lon="-0.5426590">
        <ele>1229.2</ele>
        <time>2023-01-14T13:23:43Z</time>
      </trkpt>
      <trkpt lat="42.6874890" lon="-0.5426590">
        <ele>1229.6</ele>
        <time>2023-01-14T13:23:44Z</time>
      </trkpt>
      <trkpt lat="42.6874890" lon="-0.5426590">
        <ele>1229.8</ele>
        <time>2023-01-14T13:23:45Z</time>
      </trkpt>
      <trkpt lat="42.6874890" lon="-0.5426590">
        <ele>1230.0</ele>
        <time>2023-01-14T13:23:46Z</time>
      </trkpt>
      <trkpt lat="42.6874890" lon="-0.5426600">
        <ele>1230.0</ele>
        <time>2023-01-14T13:23:47Z</time>
      </trkpt>
      <trkpt lat="42.6874890" lon="-0.5426600">
        <ele>1230.0</ele>
        <time>2023-01-14T13:23:48Z</time>
      </trkpt>
      <trkpt lat="42.6874900" lon="-0.5426600">
        <ele>1230.0</ele>
        <time>2023-01-14T13:23:49Z</time>
      </trkpt>
      <trkpt lat="42.6874900" lon="-0.5426600">
        <ele>1230.0</ele>
        <time>2023-01-14T13:23:50Z</time>
      </trkpt>
      <trkpt lat="42.6874900" lon="-0.5426610">
        <ele>1229.8</ele>
        <time>2023-01-14T13:23:51Z</time>
      </trkpt>
      <trkpt lat="42.6874900" lon="-0.5426610">
        <ele>1229.8</ele>
        <time>2023-01-14T13:23:52Z</time>
      </trkpt>
      <trkpt lat="42.6874900" lon="-0.5426610">
        <ele>1229.8</ele>
        <time>2023-01-14T13:23:53Z</time>
      </trkpt>
      <trkpt lat="42.6874900" lon="-0.5426610">
        <ele>1229.8</ele>
        <time>2023-01-14T13:23:54Z</time>
      </trkpt>
      <trkpt lat="42.6874900" lon="-0.5426620">
        <ele>1229.6</ele>
        <time>2023-01-14T13:23:55Z</time>
      </trkpt>
      <trkpt lat="42.6874900" lon="-0.5426620">
        <ele>1229.6</ele>
        <time>2023-01-14T13:23:56Z</time>
      </trkpt>
      <trkpt lat="42.6874900" lon="-0.5426620">
        <ele>1229.6</ele>
        <time>2023-01-14T13:23:57Z</time>
      </trkpt>
      <trkpt lat="42.6874900" lon="-0.5426630">
        <ele>1229.6</ele>
        <time>2023-01-14T13:23:58Z</time>
      </trkpt>
      <trkpt lat="42.6874900" lon="-0.5426630">
        <ele>1229.6</ele>
        <time>2023-01-14T13:23:59Z</time>
      </trkpt>
      <trkpt lat="42.6874900" lon="-0.5426630">
        <ele>1229.6</ele>
        <time>2023-01-14T13:24:00Z</time>
      </trkpt>
      <trkpt lat="42.6874900" lon="-0.5426640">
        <ele>1229.6</ele>
        <time>2023-01-14T13:24:01Z</time>
      </trkpt>
      <trkpt lat="42.6874890" lon="-0.5426640">
        <ele>1229.8</ele>
        <time>2023-01-14T13:24:02Z</time>
      </trkpt>
      <trkpt lat="42.6874890" lon="-0.5426650">
        <ele>1229.8</ele>
        <time>2023-01-14T13:24:03Z</time>
      </trkpt>
      <trkpt lat="42.6874890" lon="-0.5426650">
        <ele>1229.8</ele>
        <time>2023-01-14T13:24:04Z</time>
      </trkpt>
      <trkpt lat="42.6874890" lon="-0.5426660">
        <ele>1229.8</ele>
        <time>2023-01-14T13:24:05Z</time>
      </trkpt>
      <trkpt lat="42.6874890" lon="-0.5426660">
        <ele>1229.8</ele>
        <time>2023-01-14T13:24:06Z</time>
      </trkpt>
      <trkpt lat="42.6874890" lon="-0.5426670">
        <ele>1229.8</ele>
        <time>2023-01-14T13:24:07Z</time>
      </trkpt>
      <trkpt lat="42.6874890" lon="-0.5426670">
        <ele>1229.8</ele>
        <time>2023-01-14T13:24:08Z</time>
      </trkpt>
      <trkpt lat="42.6874890" lon="-0.5426680">
        <ele>1229.6</ele>
        <time>2023-01-14T13:24:09Z</time>
      </trkpt>
      <trkpt lat="42.6874890" lon="-0.5426680">
        <ele>1229.6</ele>
        <time>2023-01-14T13:24:10Z</time>
      </trkpt>
      <trkpt lat="42.6874890" lon="-0.5426680">
        <ele>1229.6</ele>
        <time>2023-01-14T13:24:11Z</time>
      </trkpt>
      <trkpt lat="42.6874890" lon="-0.5426690">
        <ele>1229.6</ele>
        <time>2023-01-14T13:24:12Z</time>
      </trkpt>
      <trkpt lat="42.6874880" lon="-0.5426690">
        <ele>1229.8</ele>
        <time>2023-01-14T13:24:13Z</time>
      </trkpt>
      <trkpt lat="42.6874880" lon="-0.5426690">
        <ele>1229.8</ele>
        <time>2023-01-14T13:24:14Z</time>
      </trkpt>
      <trkpt lat="42.6874880" lon="-0.5426700">
        <ele>1229.6</ele>
        <time>2023-01-14T13:24:15Z</time>
      </trkpt>
      <trkpt lat="42.6874880" lon="-0.5426710">
        <ele>1229.6</ele>
        <time>2023-01-14T13:24:16Z</time>
      </trkpt>
      <trkpt lat="42.6874880" lon="-0.5426710">
        <ele>1229.6</ele>
        <time>2023-01-14T13:24:17Z</time>
      </trkpt>
      <trkpt lat="42.6874880" lon="-0.5426710">
        <ele>1229.6</ele>
        <time>2023-01-14T13:24:18Z</time>
      </trkpt>
      <trkpt lat="42.6874880" lon="-0.5426710">
        <ele>1229.6</ele>
        <time>2023-01-14T13:24:19Z</time>
      </trkpt>
      <trkpt lat="42.6874880" lon="-0.5426710">
        <ele>1229.6</ele>
        <time>2023-01-14T13:24:20Z</time>
      </trkpt>
      <trkpt lat="42.6874880" lon="-0.5426710">
        <ele>1229.6</ele>
        <time>2023-01-14T13:24:21Z</time>
      </trkpt>
      <trkpt lat="42.6874890" lon="-0.5426710">
        <ele>1230.0</ele>
        <time>2023-01-14T13:24:22Z</time>
      </trkpt>
      <trkpt lat="42.6874880" lon="-0.5426710">
        <ele>1230.0</ele>
        <time>2023-01-14T13:24:23Z</time>
      </trkpt>
      <trkpt lat="42.6874890" lon="-0.5426710">
        <ele>1230.0</ele>
        <time>2023-01-14T13:24:24Z</time>
      </trkpt>
      <trkpt lat="42.6874890" lon="-0.5426710">
        <ele>1230.0</ele>
        <time>2023-01-14T13:24:25Z</time>
      </trkpt>
      <trkpt lat="42.6874890" lon="-0.5426710">
        <ele>1230.0</ele>
        <time>2023-01-14T13:24:26Z</time>
      </trkpt>
      <trkpt lat="42.6874890" lon="-0.5426710">
        <ele>1230.0</ele>
        <time>2023-01-14T13:24:27Z</time>
      </trkpt>
      <trkpt lat="42.6874890" lon="-0.5426710">
        <ele>1230.0</ele>
        <time>2023-01-14T13:24:28Z</time>
      </trkpt>
      <trkpt lat="42.6874890" lon="-0.5426710">
        <ele>1230.0</ele>
        <time>2023-01-14T13:24:29Z</time>
      </trkpt>
      <trkpt lat="42.6874890" lon="-0.5426710">
        <ele>1230.0</ele>
        <time>2023-01-14T13:24:30Z</time>
      </trkpt>
      <trkpt lat="42.6874890" lon="-0.5426710">
        <ele>1230.0</ele>
        <time>2023-01-14T13:24:31Z</time>
      </trkpt>
      <trkpt lat="42.6874890" lon="-0.5426710">
        <ele>1230.0</ele>
        <time>2023-01-14T13:24:32Z</time>
      </trkpt>
      <trkpt lat="42.6874890" lon="-0.5426700">
        <ele>1230.0</ele>
        <time>2023-01-14T13:24:33Z</time>
      </trkpt>
      <trkpt lat="42.6874890" lon="-0.5426700">
        <ele>1230.0</ele>
        <time>2023-01-14T13:24:34Z</time>
      </trkpt>
      <trkpt lat="42.6874890" lon="-0.5426700">
        <ele>1230.0</ele>
        <time>2023-01-14T13:24:35Z</time>
      </trkpt>
      <trkpt lat="42.6874900" lon="-0.5426700">
        <ele>1230.0</ele>
        <time>2023-01-14T13:24:36Z</time>
      </trkpt>
      <trkpt lat="42.6874900" lon="-0.5426690">
        <ele>1230.0</ele>
        <time>2023-01-14T13:24:37Z</time>
      </trkpt>
      <trkpt lat="42.6874900" lon="-0.5426690">
        <ele>1230.0</ele>
        <time>2023-01-14T13:24:38Z</time>
      </trkpt>
      <trkpt lat="42.6874900" lon="-0.5426690">
        <ele>1230.0</ele>
        <time>2023-01-14T13:24:39Z</time>
      </trkpt>
      <trkpt lat="42.6874900" lon="-0.5426680">
        <ele>1230.0</ele>
        <time>2023-01-14T13:24:40Z</time>
      </trkpt>
      <trkpt lat="42.6874900" lon="-0.5426680">
        <ele>1230.0</ele>
        <time>2023-01-14T13:24:41Z</time>
      </trkpt>
      <trkpt lat="42.6874900" lon="-0.5426680">
        <ele>1230.0</ele>
        <time>2023-01-14T13:24:42Z</time>
      </trkpt>
      <trkpt lat="42.6874910" lon="-0.5426670">
        <ele>1230.0</ele>
        <time>2023-01-14T13:24:43Z</time>
      </trkpt>
      <trkpt lat="42.6874910" lon="-0.5426670">
        <ele>1230.0</ele>
        <time>2023-01-14T13:24:44Z</time>
      </trkpt>
      <trkpt lat="42.6874910" lon="-0.5426670">
        <ele>1230.0</ele>
        <time>2023-01-14T13:24:45Z</time>
      </trkpt>
      <trkpt lat="42.6874870" lon="-0.5426660">
        <ele>1230.0</ele>
        <time>2023-01-14T13:24:46Z</time>
      </trkpt>
      <trkpt lat="42.6874820" lon="-0.5426690">
        <ele>1230.0</ele>
        <time>2023-01-14T13:24:47Z</time>
      </trkpt>
      <trkpt lat="42.6874730" lon="-0.5426710">
        <ele>1230.0</ele>
        <time>2023-01-14T13:24:48Z</time>
      </trkpt>
      <trkpt lat="42.6874610" lon="-0.5426850">
        <ele>1230.0</ele>
        <time>2023-01-14T13:24:49Z</time>
      </trkpt>
      <trkpt lat="42.6874320" lon="-0.5427040">
        <ele>1230.0</ele>
        <time>2023-01-14T13:24:50Z</time>
      </trkpt>
      <trkpt lat="42.6873970" lon="-0.5427190">
        <ele>1230.0</ele>
        <time>2023-01-14T13:24:51Z</time>
      </trkpt>
      <trkpt lat="42.6873460" lon="-0.5427290">
        <ele>1230.0</ele>
        <time>2023-01-14T13:24:52Z</time>
      </trkpt>
      <trkpt lat="42.6872840" lon="-0.5427340">
        <ele>1230.0</ele>
        <time>2023-01-14T13:24:53Z</time>
      </trkpt>
      <trkpt lat="42.6872270" lon="-0.5427350">
        <ele>1229.4</ele>
        <time>2023-01-14T13:24:54Z</time>
      </trkpt>
      <trkpt lat="42.6871460" lon="-0.5427390">
        <ele>1228.2</ele>
        <time>2023-01-14T13:24:55Z</time>
      </trkpt>
      <trkpt lat="42.6870440" lon="-0.5427400">
        <ele>1227.2</ele>
        <time>2023-01-14T13:24:56Z</time>
      </trkpt>
      <trkpt lat="42.6869540" lon="-0.5427480">
        <ele>1226.2</ele>
        <time>2023-01-14T13:24:57Z</time>
      </trkpt>
      <trkpt lat="42.6868710" lon="-0.5427610">
        <ele>1225.4</ele>
        <time>2023-01-14T13:24:58Z</time>
      </trkpt>
      <trkpt lat="42.6867880" lon="-0.5427800">
        <ele>1224.6</ele>
        <time>2023-01-14T13:24:59Z</time>
      </trkpt>
      <trkpt lat="42.6866980" lon="-0.5428040">
        <ele>1224.6</ele>
        <time>2023-01-14T13:25:00Z</time>
      </trkpt>
      <trkpt lat="42.6866090" lon="-0.5428270">
        <ele>1224.6</ele>
        <time>2023-01-14T13:25:01Z</time>
      </trkpt>
      <trkpt lat="42.6865270" lon="-0.5428400">
        <ele>1224.6</ele>
        <time>2023-01-14T13:25:02Z</time>
      </trkpt>
      <trkpt lat="42.6864750" lon="-0.5428580">
        <ele>1224.4</ele>
        <time>2023-01-14T13:25:03Z</time>
      </trkpt>
      <trkpt lat="42.6864430" lon="-0.5428660">
        <ele>1223.2</ele>
        <time>2023-01-14T13:25:04Z</time>
      </trkpt>
      <trkpt lat="42.6864200" lon="-0.5428710">
        <ele>1221.4</ele>
        <time>2023-01-14T13:25:05Z</time>
      </trkpt>
      <trkpt lat="42.6864110" lon="-0.5428730">
        <ele>1220.0</ele>
        <time>2023-01-14T13:25:06Z</time>
      </trkpt>
      <trkpt lat="42.6864040" lon="-0.5428700">
        <ele>1219.2</ele>
        <time>2023-01-14T13:25:07Z</time>
      </trkpt>
      <trkpt lat="42.6864050" lon="-0.5428730">
        <ele>1218.6</ele>
        <time>2023-01-14T13:25:08Z</time>
      </trkpt>
      <trkpt lat="42.6864060" lon="-0.5428770">
        <ele>1218.4</ele>
        <time>2023-01-14T13:25:09Z</time>
      </trkpt>
      <trkpt lat="42.6864100" lon="-0.5428750">
        <ele>1218.0</ele>
        <time>2023-01-14T13:25:10Z</time>
      </trkpt>
      <trkpt lat="42.6864140" lon="-0.5428750">
        <ele>1217.8</ele>
        <time>2023-01-14T13:25:11Z</time>
      </trkpt>
      <trkpt lat="42.6864200" lon="-0.5428740">
        <ele>1217.8</ele>
        <time>2023-01-14T13:25:12Z</time>
      </trkpt>
      <trkpt lat="42.6864270" lon="-0.5428730">
        <ele>1218.0</ele>
        <time>2023-01-14T13:25:13Z</time>
      </trkpt>
      <trkpt lat="42.6864350" lon="-0.5428700">
        <ele>1218.0</ele>
        <time>2023-01-14T13:25:14Z</time>
      </trkpt>
      <trkpt lat="42.6864510" lon="-0.5428690">
        <ele>1218.2</ele>
        <time>2023-01-14T13:25:15Z</time>
      </trkpt>
      <trkpt lat="42.6864700" lon="-0.5428670">
        <ele>1218.2</ele>
        <time>2023-01-14T13:25:16Z</time>
      </trkpt>
      <trkpt lat="42.6864880" lon="-0.5428670">
        <ele>1218.6</ele>
        <time>2023-01-14T13:25:17Z</time>
      </trkpt>
      <trkpt lat="42.6865080" lon="-0.5428670">
        <ele>1219.2</ele>
        <time>2023-01-14T13:25:18Z</time>
      </trkpt>
      <trkpt lat="42.6865210" lon="-0.5428650">
        <ele>1219.6</ele>
        <time>2023-01-14T13:25:19Z</time>
      </trkpt>
      <trkpt lat="42.6865370" lon="-0.5428610">
        <ele>1220.2</ele>
        <time>2023-01-14T13:25:20Z</time>
      </trkpt>
      <trkpt lat="42.6865520" lon="-0.5428570">
        <ele>1220.8</ele>
        <time>2023-01-14T13:25:21Z</time>
      </trkpt>
      <trkpt lat="42.6865720" lon="-0.5428520">
        <ele>1221.2</ele>
        <time>2023-01-14T13:25:22Z</time>
      </trkpt>
      <trkpt lat="42.6865980" lon="-0.5428380">
        <ele>1221.6</ele>
        <time>2023-01-14T13:25:23Z</time>
      </trkpt>
      <trkpt lat="42.6866210" lon="-0.5428280">
        <ele>1222.4</ele>
        <time>2023-01-14T13:25:24Z</time>
      </trkpt>
      <trkpt lat="42.6866420" lon="-0.5428210">
        <ele>1222.6</ele>
        <time>2023-01-14T13:25:25Z</time>
      </trkpt>
      <trkpt lat="42.6866660" lon="-0.5428170">
        <ele>1223.2</ele>
        <time>2023-01-14T13:25:26Z</time>
      </trkpt>
      <trkpt lat="42.6866930" lon="-0.5428160">
        <ele>1223.6</ele>
        <time>2023-01-14T13:25:27Z</time>
      </trkpt>
      <trkpt lat="42.6867150" lon="-0.5428200">
        <ele>1223.8</ele>
        <time>2023-01-14T13:25:28Z</time>
      </trkpt>
      <trkpt lat="42.6867270" lon="-0.5428190">
        <ele>1224.0</ele>
        <time>2023-01-14T13:25:29Z</time>
      </trkpt>
      <trkpt lat="42.6867320" lon="-0.5428150">
        <ele>1224.4</ele>
        <time>2023-01-14T13:25:30Z</time>
      </trkpt>
      <trkpt lat="42.6867360" lon="-0.5428120">
        <ele>1225.0</ele>
        <time>2023-01-14T13:25:31Z</time>
      </trkpt>
      <trkpt lat="42.6867390" lon="-0.5428090">
        <ele>1225.4</ele>
        <time>2023-01-14T13:25:32Z</time>
      </trkpt>
      <trkpt lat="42.6867470" lon="-0.5428060">
        <ele>1225.6</ele>
        <time>2023-01-14T13:25:33Z</time>
      </trkpt>
      <trkpt lat="42.6867540" lon="-0.5428030">
        <ele>1225.8</ele>
        <time>2023-01-14T13:25:34Z</time>
      </trkpt>
      <trkpt lat="42.6867670" lon="-0.5428020">
        <ele>1225.8</ele>
        <time>2023-01-14T13:25:35Z</time>
      </trkpt>
      <trkpt lat="42.6867810" lon="-0.5427970">
        <ele>1226.0</ele>
        <time>2023-01-14T13:25:36Z</time>
      </trkpt>
      <trkpt lat="42.6867970" lon="-0.5427930">
        <ele>1226.0</ele>
        <time>2023-01-14T13:25:37Z</time>
      </trkpt>
      <trkpt lat="42.6868160" lon="-0.5427900">
        <ele>1226.0</ele>
        <time>2023-01-14T13:25:38Z</time>
      </trkpt>
      <trkpt lat="42.6868350" lon="-0.5427850">
        <ele>1226.0</ele>
        <time>2023-01-14T13:25:39Z</time>
      </trkpt>
      <trkpt lat="42.6868540" lon="-0.5427790">
        <ele>1226.4</ele>
        <time>2023-01-14T13:25:40Z</time>
      </trkpt>
      <trkpt lat="42.6868710" lon="-0.5427710">
        <ele>1226.6</ele>
        <time>2023-01-14T13:25:41Z</time>
      </trkpt>
      <trkpt lat="42.6868890" lon="-0.5427680">
        <ele>1227.0</ele>
        <time>2023-01-14T13:25:42Z</time>
      </trkpt>
      <trkpt lat="42.6869020" lon="-0.5427610">
        <ele>1227.4</ele>
        <time>2023-01-14T13:25:43Z</time>
      </trkpt>
      <trkpt lat="42.6869100" lon="-0.5427540">
        <ele>1227.8</ele>
        <time>2023-01-14T13:25:44Z</time>
      </trkpt>
      <trkpt lat="42.6869160" lon="-0.5427480">
        <ele>1228.4</ele>
        <time>2023-01-14T13:25:45Z</time>
      </trkpt>
      <trkpt lat="42.6869250" lon="-0.5427460">
        <ele>1228.8</ele>
        <time>2023-01-14T13:25:46Z</time>
      </trkpt>
      <trkpt lat="42.6869310" lon="-0.5427460">
        <ele>1229.0</ele>
        <time>2023-01-14T13:25:47Z</time>
      </trkpt>
      <trkpt lat="42.6869380" lon="-0.5427440">
        <ele>1229.2</ele>
        <time>2023-01-14T13:25:48Z</time>
      </trkpt>
      <trkpt lat="42.6869400" lon="-0.5427430">
        <ele>1229.4</ele>
        <time>2023-01-14T13:25:49Z</time>
      </trkpt>
      <trkpt lat="42.6869410" lon="-0.5427430">
        <ele>1229.4</ele>
        <time>2023-01-14T13:25:50Z</time>
      </trkpt>
      <trkpt lat="42.6869420" lon="-0.5427420">
        <ele>1229.4</ele>
        <time>2023-01-14T13:25:51Z</time>
      </trkpt>
      <trkpt lat="42.6869450" lon="-0.5427410">
        <ele>1229.4</ele>
        <time>2023-01-14T13:25:52Z</time>
      </trkpt>
      <trkpt lat="42.6869530" lon="-0.5427400">
        <ele>1229.4</ele>
        <time>2023-01-14T13:25:53Z</time>
      </trkpt>
      <trkpt lat="42.6869690" lon="-0.5427420">
        <ele>1229.6</ele>
        <time>2023-01-14T13:25:54Z</time>
      </trkpt>
      <trkpt lat="42.6869860" lon="-0.5427380">
        <ele>1229.6</ele>
        <time>2023-01-14T13:25:55Z</time>
      </trkpt>
      <trkpt lat="42.6870000" lon="-0.5427320">
        <ele>1229.6</ele>
        <time>2023-01-14T13:25:56Z</time>
      </trkpt>
      <trkpt lat="42.6870150" lon="-0.5427270">
        <ele>1229.6</ele>
        <time>2023-01-14T13:25:57Z</time>
      </trkpt>
      <trkpt lat="42.6870300" lon="-0.5427230">
        <ele>1229.8</ele>
        <time>2023-01-14T13:25:58Z</time>
      </trkpt>
      <trkpt lat="42.6870450" lon="-0.5427200">
        <ele>1229.8</ele>
        <time>2023-01-14T13:25:59Z</time>
      </trkpt>
      <trkpt lat="42.6870630" lon="-0.5427170">
        <ele>1230.2</ele>
        <time>2023-01-14T13:26:00Z</time>
      </trkpt>
      <trkpt lat="42.6870810" lon="-0.5427130">
        <ele>1230.8</ele>
        <time>2023-01-14T13:26:01Z</time>
      </trkpt>
      <trkpt lat="42.6871020" lon="-0.5427120">
        <ele>1231.2</ele>
        <time>2023-01-14T13:26:02Z</time>
      </trkpt>
      <trkpt lat="42.6871220" lon="-0.5427160">
        <ele>1231.6</ele>
        <time>2023-01-14T13:26:03Z</time>
      </trkpt>
      <trkpt lat="42.6871390" lon="-0.5427190">
        <ele>1231.8</ele>
        <time>2023-01-14T13:26:04Z</time>
      </trkpt>
      <trkpt lat="42.6871610" lon="-0.5427150">
        <ele>1232.0</ele>
        <time>2023-01-14T13:26:05Z</time>
      </trkpt>
      <trkpt lat="42.6871800" lon="-0.5427050">
        <ele>1232.2</ele>
        <time>2023-01-14T13:26:06Z</time>
      </trkpt>
      <trkpt lat="42.6872020" lon="-0.5426960">
        <ele>1232.4</ele>
        <time>2023-01-14T13:26:07Z</time>
      </trkpt>
      <trkpt lat="42.6872190" lon="-0.5426870">
        <ele>1232.8</ele>
        <time>2023-01-14T13:26:08Z</time>
      </trkpt>
      <trkpt lat="42.6872370" lon="-0.5426830">
        <ele>1233.4</ele>
        <time>2023-01-14T13:26:09Z</time>
      </trkpt>
      <trkpt lat="42.6872560" lon="-0.5426810">
        <ele>1233.8</ele>
        <time>2023-01-14T13:26:10Z</time>
      </trkpt>
      <trkpt lat="42.6872780" lon="-0.5426780">
        <ele>1234.4</ele>
        <time>2023-01-14T13:26:11Z</time>
      </trkpt>
      <trkpt lat="42.6872990" lon="-0.5426710">
        <ele>1234.8</ele>
        <time>2023-01-14T13:26:12Z</time>
      </trkpt>
      <trkpt lat="42.6873210" lon="-0.5426660">
        <ele>1235.0</ele>
        <time>2023-01-14T13:26:13Z</time>
      </trkpt>
      <trkpt lat="42.6873380" lon="-0.5426680">
        <ele>1235.4</ele>
        <time>2023-01-14T13:26:14Z</time>
      </trkpt>
      <trkpt lat="42.6873470" lon="-0.5426650">
        <ele>1235.4</ele>
        <time>2023-01-14T13:26:15Z</time>
      </trkpt>
      <trkpt lat="42.6873510" lon="-0.5426640">
        <ele>1235.6</ele>
        <time>2023-01-14T13:26:16Z</time>
      </trkpt>
      <trkpt lat="42.6873540" lon="-0.5426670">
        <ele>1235.8</ele>
        <time>2023-01-14T13:26:17Z</time>
      </trkpt>
      <trkpt lat="42.6873620" lon="-0.5426690">
        <ele>1235.8</ele>
        <time>2023-01-14T13:26:18Z</time>
      </trkpt>
      <trkpt lat="42.6873680" lon="-0.5426730">
        <ele>1236.0</ele>
        <time>2023-01-14T13:26:19Z</time>
      </trkpt>
      <trkpt lat="42.6873710" lon="-0.5426730">
        <ele>1236.0</ele>
        <time>2023-01-14T13:26:20Z</time>
      </trkpt>
      <trkpt lat="42.6873750" lon="-0.5426740">
        <ele>1235.8</ele>
        <time>2023-01-14T13:26:21Z</time>
      </trkpt>
      <trkpt lat="42.6873770" lon="-0.5426750">
        <ele>1235.8</ele>
        <time>2023-01-14T13:26:22Z</time>
      </trkpt>
      <trkpt lat="42.6873770" lon="-0.5426750">
        <ele>1236.0</ele>
        <time>2023-01-14T13:26:23Z</time>
      </trkpt>
      <trkpt lat="42.6873770" lon="-0.5426750">
        <ele>1235.8</ele>
        <time>2023-01-14T13:26:24Z</time>
      </trkpt>
      <trkpt lat="42.6873780" lon="-0.5426750">
        <ele>1236.0</ele>
        <time>2023-01-14T13:26:25Z</time>
      </trkpt>
      <trkpt lat="42.6873790" lon="-0.5426740">
        <ele>1235.8</ele>
        <time>2023-01-14T13:26:26Z</time>
      </trkpt>
      <trkpt lat="42.6873790" lon="-0.5426740">
        <ele>1235.8</ele>
        <time>2023-01-14T13:26:27Z</time>
      </trkpt>
      <trkpt lat="42.6873800" lon="-0.5426740">
        <ele>1235.8</ele>
        <time>2023-01-14T13:26:28Z</time>
      </trkpt>
      <trkpt lat="42.6873800" lon="-0.5426740">
        <ele>1235.8</ele>
        <time>2023-01-14T13:26:29Z</time>
      </trkpt>
      <trkpt lat="42.6873810" lon="-0.5426730">
        <ele>1235.8</ele>
        <time>2023-01-14T13:26:30Z</time>
      </trkpt>
      <trkpt lat="42.6873810" lon="-0.5426730">
        <ele>1235.8</ele>
        <time>2023-01-14T13:26:31Z</time>
      </trkpt>
      <trkpt lat="42.6873810" lon="-0.5426730">
        <ele>1235.8</ele>
        <time>2023-01-14T13:26:32Z</time>
      </trkpt>
      <trkpt lat="42.6873830" lon="-0.5426740">
        <ele>1235.6</ele>
        <time>2023-01-14T13:26:33Z</time>
      </trkpt>
      <trkpt lat="42.6873830" lon="-0.5426730">
        <ele>1235.6</ele>
        <time>2023-01-14T13:26:34Z</time>
      </trkpt>
      <trkpt lat="42.6873830" lon="-0.5426710">
        <ele>1235.8</ele>
        <time>2023-01-14T13:26:35Z</time>
      </trkpt>
      <trkpt lat="42.6873770" lon="-0.5426780">
        <ele>1235.6</ele>
        <time>2023-01-14T13:26:36Z</time>
      </trkpt>
      <trkpt lat="42.6873670" lon="-0.5426890">
        <ele>1235.6</ele>
        <time>2023-01-14T13:26:37Z</time>
      </trkpt>
      <trkpt lat="42.6873470" lon="-0.5427010">
        <ele>1235.6</ele>
        <time>2023-01-14T13:26:38Z</time>
      </trkpt>
      <trkpt lat="42.6873150" lon="-0.5427140">
        <ele>1235.6</ele>
        <time>2023-01-14T13:26:39Z</time>
      </trkpt>
      <trkpt lat="42.6872780" lon="-0.5427260">
        <ele>1235.4</ele>
        <time>2023-01-14T13:26:40Z</time>
      </trkpt>
      <trkpt lat="42.6872330" lon="-0.5427350">
        <ele>1235.0</ele>
        <time>2023-01-14T13:26:41Z</time>
      </trkpt>
      <trkpt lat="42.6871830" lon="-0.5427410">
        <ele>1234.6</ele>
        <time>2023-01-14T13:26:42Z</time>
      </trkpt>
      <trkpt lat="42.6871110" lon="-0.5427580">
        <ele>1234.0</ele>
        <time>2023-01-14T13:26:43Z</time>
      </trkpt>
      <trkpt lat="42.6870340" lon="-0.5427700">
        <ele>1233.4</ele>
        <time>2023-01-14T13:26:44Z</time>
      </trkpt>
      <trkpt lat="42.6869620" lon="-0.5427770">
        <ele>1232.4</ele>
        <time>2023-01-14T13:26:45Z</time>
      </trkpt>
      <trkpt lat="42.6868810" lon="-0.5427880">
        <ele>1231.8</ele>
        <time>2023-01-14T13:26:46Z</time>
      </trkpt>
      <trkpt lat="42.6867920" lon="-0.5427990">
        <ele>1230.6</ele>
        <time>2023-01-14T13:26:47Z</time>
      </trkpt>
      <trkpt lat="42.6866980" lon="-0.5428130">
        <ele>1229.6</ele>
        <time>2023-01-14T13:26:48Z</time>
      </trkpt>
      <trkpt lat="42.6866120" lon="-0.5428320">
        <ele>1227.2</ele>
        <time>2023-01-14T13:26:49Z</time>
      </trkpt>
      <trkpt lat="42.6865350" lon="-0.5428480">
        <ele>1226.0</ele>
        <time>2023-01-14T13:26:50Z</time>
      </trkpt>
      <trkpt lat="42.6864770" lon="-0.5428620">
        <ele>1225.0</ele>
        <time>2023-01-14T13:26:51Z</time>
      </trkpt>
      <trkpt lat="42.6864370" lon="-0.5428730">
        <ele>1222.8</ele>
        <time>2023-01-14T13:26:52Z</time>
      </trkpt>
      <trkpt lat="42.6864100" lon="-0.5428820">
        <ele>1221.6</ele>
        <time>2023-01-14T13:26:53Z</time>
      </trkpt>
      <trkpt lat="42.6863940" lon="-0.5428850">
        <ele>1220.2</ele>
        <time>2023-01-14T13:26:54Z</time>
      </trkpt>
      <trkpt lat="42.6863790" lon="-0.5428880">
        <ele>1219.4</ele>
        <time>2023-01-14T13:26:55Z</time>
      </trkpt>
      <trkpt lat="42.6863910" lon="-0.5429050">
        <ele>1218.8</ele>
        <time>2023-01-14T13:26:56Z</time>
      </trkpt>
      <trkpt lat="42.6863950" lon="-0.5429170">
        <ele>1218.6</ele>
        <time>2023-01-14T13:26:57Z</time>
      </trkpt>
      <trkpt lat="42.6863970" lon="-0.5429250">
        <ele>1218.6</ele>
        <time>2023-01-14T13:26:58Z</time>
      </trkpt>
      <trkpt lat="42.6863920" lon="-0.5429280">
        <ele>1218.6</ele>
        <time>2023-01-14T13:26:59Z</time>
      </trkpt>
      <trkpt lat="42.6863880" lon="-0.5429280">
        <ele>1218.6</ele>
        <time>2023-01-14T13:27:00Z</time>
      </trkpt>
      <trkpt lat="42.6863860" lon="-0.5429270">
        <ele>1218.6</ele>
        <time>2023-01-14T13:27:01Z</time>
      </trkpt>
      <trkpt lat="42.6863850" lon="-0.5429260">
        <ele>1218.6</ele>
        <time>2023-01-14T13:27:02Z</time>
      </trkpt>
      <trkpt lat="42.6863850" lon="-0.5429250">
        <ele>1218.6</ele>
        <time>2023-01-14T13:27:03Z</time>
      </trkpt>
      <trkpt lat="42.6863840" lon="-0.5429240">
        <ele>1218.6</ele>
        <time>2023-01-14T13:27:04Z</time>
      </trkpt>
      <trkpt lat="42.6863840" lon="-0.5429250">
        <ele>1218.6</ele>
        <time>2023-01-14T13:27:05Z</time>
      </trkpt>
      <trkpt lat="42.6863830" lon="-0.5429230">
        <ele>1218.4</ele>
        <time>2023-01-14T13:27:06Z</time>
      </trkpt>
      <trkpt lat="42.6863820" lon="-0.5429220">
        <ele>1218.4</ele>
        <time>2023-01-14T13:27:07Z</time>
      </trkpt>
      <trkpt lat="42.6863810" lon="-0.5429210">
        <ele>1218.2</ele>
        <time>2023-01-14T13:27:08Z</time>
      </trkpt>
      <trkpt lat="42.6863800" lon="-0.5429200">
        <ele>1218.2</ele>
        <time>2023-01-14T13:27:09Z</time>
      </trkpt>
      <trkpt lat="42.6863790" lon="-0.5429180">
        <ele>1218.2</ele>
        <time>2023-01-14T13:27:10Z</time>
      </trkpt>
      <trkpt lat="42.6863780" lon="-0.5429170">
        <ele>1218.2</ele>
        <time>2023-01-14T13:27:11Z</time>
      </trkpt>
      <trkpt lat="42.6863780" lon="-0.5429160">
        <ele>1218.2</ele>
        <time>2023-01-14T13:27:12Z</time>
      </trkpt>
      <trkpt lat="42.6863760" lon="-0.5429170">
        <ele>1218.2</ele>
        <time>2023-01-14T13:27:13Z</time>
      </trkpt>
      <trkpt lat="42.6863760" lon="-0.5429170">
        <ele>1218.0</ele>
        <time>2023-01-14T13:27:14Z</time>
      </trkpt>
      <trkpt lat="42.6863750" lon="-0.5429160">
        <ele>1218.0</ele>
        <time>2023-01-14T13:27:15Z</time>
      </trkpt>
      <trkpt lat="42.6863750" lon="-0.5429150">
        <ele>1218.0</ele>
        <time>2023-01-14T13:27:16Z</time>
      </trkpt>
      <trkpt lat="42.6863750" lon="-0.5429140">
        <ele>1218.0</ele>
        <time>2023-01-14T13:27:17Z</time>
      </trkpt>
      <trkpt lat="42.6863750" lon="-0.5429140">
        <ele>1218.0</ele>
        <time>2023-01-14T13:27:18Z</time>
      </trkpt>
      <trkpt lat="42.6863740" lon="-0.5429140">
        <ele>1218.0</ele>
        <time>2023-01-14T13:27:19Z</time>
      </trkpt>
      <trkpt lat="42.6863710" lon="-0.5429140">
        <ele>1218.0</ele>
        <time>2023-01-14T13:27:20Z</time>
      </trkpt>
      <trkpt lat="42.6863700" lon="-0.5429120">
        <ele>1218.0</ele>
        <time>2023-01-14T13:27:21Z</time>
      </trkpt>
      <trkpt lat="42.6863690" lon="-0.5429130">
        <ele>1218.0</ele>
        <time>2023-01-14T13:27:22Z</time>
      </trkpt>
      <trkpt lat="42.6863680" lon="-0.5429140">
        <ele>1218.0</ele>
        <time>2023-01-14T13:27:23Z</time>
      </trkpt>
      <trkpt lat="42.6863680" lon="-0.5429140">
        <ele>1217.8</ele>
        <time>2023-01-14T13:27:24Z</time>
      </trkpt>
      <trkpt lat="42.6863670" lon="-0.5429140">
        <ele>1217.6</ele>
        <time>2023-01-14T13:27:25Z</time>
      </trkpt>
      <trkpt lat="42.6863660" lon="-0.5429150">
        <ele>1217.6</ele>
        <time>2023-01-14T13:27:26Z</time>
      </trkpt>
      <trkpt lat="42.6863650" lon="-0.5429150">
        <ele>1217.4</ele>
        <time>2023-01-14T13:27:27Z</time>
      </trkpt>
      <trkpt lat="42.6863650" lon="-0.5429150">
        <ele>1217.4</ele>
        <time>2023-01-14T13:27:28Z</time>
      </trkpt>
      <trkpt lat="42.6863650" lon="-0.5429150">
        <ele>1217.4</ele>
        <time>2023-01-14T13:27:29Z</time>
      </trkpt>
      <trkpt lat="42.6863640" lon="-0.5429160">
        <ele>1217.6</ele>
        <time>2023-01-14T13:27:30Z</time>
      </trkpt>
      <trkpt lat="42.6863640" lon="-0.5429160">
        <ele>1217.8</ele>
        <time>2023-01-14T13:27:31Z</time>
      </trkpt>
      <trkpt lat="42.6863640" lon="-0.5429170">
        <ele>1217.8</ele>
        <time>2023-01-14T13:27:32Z</time>
      </trkpt>
      <trkpt lat="42.6863640" lon="-0.5429170">
        <ele>1217.8</ele>
        <time>2023-01-14T13:27:33Z</time>
      </trkpt>
      <trkpt lat="42.6863640" lon="-0.5429170">
        <ele>1217.8</ele>
        <time>2023-01-14T13:27:34Z</time>
      </trkpt>
      <trkpt lat="42.6863630" lon="-0.5429170">
        <ele>1217.8</ele>
        <time>2023-01-14T13:27:35Z</time>
      </trkpt>
      <trkpt lat="42.6863620" lon="-0.5429170">
        <ele>1217.8</ele>
        <time>2023-01-14T13:27:36Z</time>
      </trkpt>
      <trkpt lat="42.6863610" lon="-0.5429170">
        <ele>1217.6</ele>
        <time>2023-01-14T13:27:37Z</time>
      </trkpt>
      <trkpt lat="42.6863600" lon="-0.5429160">
        <ele>1217.6</ele>
        <time>2023-01-14T13:27:38Z</time>
      </trkpt>
      <trkpt lat="42.6863590" lon="-0.5429170">
        <ele>1217.6</ele>
        <time>2023-01-14T13:27:39Z</time>
      </trkpt>
      <trkpt lat="42.6863580" lon="-0.5429170">
        <ele>1217.6</ele>
        <time>2023-01-14T13:27:40Z</time>
      </trkpt>
      <trkpt lat="42.6863580" lon="-0.5429170">
        <ele>1217.6</ele>
        <time>2023-01-14T13:27:41Z</time>
      </trkpt>
      <trkpt lat="42.6863580" lon="-0.5429160">
        <ele>1217.6</ele>
        <time>2023-01-14T13:27:42Z</time>
      </trkpt>
      <trkpt lat="42.6863580" lon="-0.5429160">
        <ele>1217.8</ele>
        <time>2023-01-14T13:27:43Z</time>
      </trkpt>
      <trkpt lat="42.6863570" lon="-0.5429170">
        <ele>1218.0</ele>
        <time>2023-01-14T13:27:44Z</time>
      </trkpt>
      <trkpt lat="42.6863570" lon="-0.5429170">
        <ele>1218.0</ele>
        <time>2023-01-14T13:27:45Z</time>
      </trkpt>
      <trkpt lat="42.6863560" lon="-0.5429170">
        <ele>1218.0</ele>
        <time>2023-01-14T13:27:46Z</time>
      </trkpt>
      <trkpt lat="42.6863560" lon="-0.5429160">
        <ele>1218.0</ele>
        <time>2023-01-14T13:27:47Z</time>
      </trkpt>
      <trkpt lat="42.6863550" lon="-0.5429160">
        <ele>1218.0</ele>
        <time>2023-01-14T13:27:48Z</time>
      </trkpt>
      <trkpt lat="42.6863540" lon="-0.5429160">
        <ele>1218.0</ele>
        <time>2023-01-14T13:27:49Z</time>
      </trkpt>
      <trkpt lat="42.6863540" lon="-0.5429160">
        <ele>1218.0</ele>
        <time>2023-01-14T13:27:50Z</time>
      </trkpt>
      <trkpt lat="42.6863530" lon="-0.5429160">
        <ele>1217.8</ele>
        <time>2023-01-14T13:27:51Z</time>
      </trkpt>
      <trkpt lat="42.6863530" lon="-0.5429160">
        <ele>1217.8</ele>
        <time>2023-01-14T13:27:52Z</time>
      </trkpt>
      <trkpt lat="42.6863530" lon="-0.5429160">
        <ele>1217.8</ele>
        <time>2023-01-14T13:27:53Z</time>
      </trkpt>
      <trkpt lat="42.6863520" lon="-0.5429160">
        <ele>1217.8</ele>
        <time>2023-01-14T13:27:54Z</time>
      </trkpt>
      <trkpt lat="42.6863510" lon="-0.5429160">
        <ele>1217.8</ele>
        <time>2023-01-14T13:27:55Z</time>
      </trkpt>
      <trkpt lat="42.6863510" lon="-0.5429150">
        <ele>1217.6</ele>
        <time>2023-01-14T13:27:56Z</time>
      </trkpt>
      <trkpt lat="42.6863500" lon="-0.5429150">
        <ele>1217.4</ele>
        <time>2023-01-14T13:27:57Z</time>
      </trkpt>
      <trkpt lat="42.6863500" lon="-0.5429140">
        <ele>1217.4</ele>
        <time>2023-01-14T13:27:58Z</time>
      </trkpt>
      <trkpt lat="42.6863490" lon="-0.5429130">
        <ele>1217.2</ele>
        <time>2023-01-14T13:27:59Z</time>
      </trkpt>
      <trkpt lat="42.6863480" lon="-0.5429120">
        <ele>1217.2</ele>
        <time>2023-01-14T13:28:00Z</time>
      </trkpt>
      <trkpt lat="42.6863480" lon="-0.5429110">
        <ele>1217.2</ele>
        <time>2023-01-14T13:28:01Z</time>
      </trkpt>
      <trkpt lat="42.6863480" lon="-0.5429100">
        <ele>1217.4</ele>
        <time>2023-01-14T13:28:02Z</time>
      </trkpt>
      <trkpt lat="42.6863480" lon="-0.5429090">
        <ele>1217.6</ele>
        <time>2023-01-14T13:28:03Z</time>
      </trkpt>
      <trkpt lat="42.6863480" lon="-0.5429090">
        <ele>1217.6</ele>
        <time>2023-01-14T13:28:04Z</time>
      </trkpt>
      <trkpt lat="42.6863480" lon="-0.5429080">
        <ele>1217.6</ele>
        <time>2023-01-14T13:28:05Z</time>
      </trkpt>
      <trkpt lat="42.6863480" lon="-0.5429070">
        <ele>1217.6</ele>
        <time>2023-01-14T13:28:06Z</time>
      </trkpt>
      <trkpt lat="42.6863470" lon="-0.5429060">
        <ele>1217.4</ele>
        <time>2023-01-14T13:28:07Z</time>
      </trkpt>
      <trkpt lat="42.6863470" lon="-0.5429060">
        <ele>1217.2</ele>
        <time>2023-01-14T13:28:08Z</time>
      </trkpt>
      <trkpt lat="42.6863470" lon="-0.5429050">
        <ele>1217.2</ele>
        <time>2023-01-14T13:28:09Z</time>
      </trkpt>
      <trkpt lat="42.6863470" lon="-0.5429050">
        <ele>1217.0</ele>
        <time>2023-01-14T13:28:10Z</time>
      </trkpt>
      <trkpt lat="42.6863460" lon="-0.5429050">
        <ele>1217.0</ele>
        <time>2023-01-14T13:28:11Z</time>
      </trkpt>
      <trkpt lat="42.6863460" lon="-0.5429040">
        <ele>1217.2</ele>
        <time>2023-01-14T13:28:12Z</time>
      </trkpt>
      <trkpt lat="42.6863460" lon="-0.5429040">
        <ele>1217.2</ele>
        <time>2023-01-14T13:28:13Z</time>
      </trkpt>
      <trkpt lat="42.6863450" lon="-0.5429040">
        <ele>1217.4</ele>
        <time>2023-01-14T13:28:14Z</time>
      </trkpt>
      <trkpt lat="42.6863450" lon="-0.5429030">
        <ele>1217.6</ele>
        <time>2023-01-14T13:28:15Z</time>
      </trkpt>
      <trkpt lat="42.6863450" lon="-0.5429030">
        <ele>1217.6</ele>
        <time>2023-01-14T13:28:16Z</time>
      </trkpt>
      <trkpt lat="42.6863440" lon="-0.5429020">
        <ele>1217.4</ele>
        <time>2023-01-14T13:28:17Z</time>
      </trkpt>
      <trkpt lat="42.6863440" lon="-0.5429020">
        <ele>1217.4</ele>
        <time>2023-01-14T13:28:18Z</time>
      </trkpt>
      <trkpt lat="42.6863440" lon="-0.5429010">
        <ele>1217.4</ele>
        <time>2023-01-14T13:28:19Z</time>
      </trkpt>
      <trkpt lat="42.6863430" lon="-0.5429010">
        <ele>1217.4</ele>
        <time>2023-01-14T13:28:20Z</time>
      </trkpt>
      <trkpt lat="42.6863420" lon="-0.5429000">
        <ele>1217.4</ele>
        <time>2023-01-14T13:28:21Z</time>
      </trkpt>
      <trkpt lat="42.6863410" lon="-0.5428990">
        <ele>1217.4</ele>
        <time>2023-01-14T13:28:22Z</time>
      </trkpt>
      <trkpt lat="42.6863410" lon="-0.5428980">
        <ele>1217.4</ele>
        <time>2023-01-14T13:28:23Z</time>
      </trkpt>
      <trkpt lat="42.6863400" lon="-0.5428970">
        <ele>1217.4</ele>
        <time>2023-01-14T13:28:24Z</time>
      </trkpt>
      <trkpt lat="42.6863390" lon="-0.5428950">
        <ele>1217.4</ele>
        <time>2023-01-14T13:28:25Z</time>
      </trkpt>
      <trkpt lat="42.6863390" lon="-0.5428950">
        <ele>1217.4</ele>
        <time>2023-01-14T13:28:26Z</time>
      </trkpt>
      <trkpt lat="42.6863380" lon="-0.5428940">
        <ele>1217.4</ele>
        <time>2023-01-14T13:28:27Z</time>
      </trkpt>
      <trkpt lat="42.6863380" lon="-0.5428930">
        <ele>1217.4</ele>
        <time>2023-01-14T13:28:28Z</time>
      </trkpt>
      <trkpt lat="42.6863370" lon="-0.5428920">
        <ele>1217.4</ele>
        <time>2023-01-14T13:28:29Z</time>
      </trkpt>
      <trkpt lat="42.6863370" lon="-0.5428910">
        <ele>1217.4</ele>
        <time>2023-01-14T13:28:30Z</time>
      </trkpt>
      <trkpt lat="42.6863360" lon="-0.5428900">
        <ele>1217.4</ele>
        <time>2023-01-14T13:28:31Z</time>
      </trkpt>
      <trkpt lat="42.6863360" lon="-0.5428900">
        <ele>1217.4</ele>
        <time>2023-01-14T13:28:32Z</time>
      </trkpt>
      <trkpt lat="42.6863360" lon="-0.5428890">
        <ele>1217.4</ele>
        <time>2023-01-14T13:28:33Z</time>
      </trkpt>
      <trkpt lat="42.6863360" lon="-0.5428890">
        <ele>1217.6</ele>
        <time>2023-01-14T13:28:34Z</time>
      </trkpt>
      <trkpt lat="42.6863350" lon="-0.5428880">
        <ele>1217.6</ele>
        <time>2023-01-14T13:28:35Z</time>
      </trkpt>
      <trkpt lat="42.6863350" lon="-0.5428880">
        <ele>1217.6</ele>
        <time>2023-01-14T13:28:36Z</time>
      </trkpt>
      <trkpt lat="42.6863350" lon="-0.5428870">
        <ele>1217.6</ele>
        <time>2023-01-14T13:28:37Z</time>
      </trkpt>
      <trkpt lat="42.6863340" lon="-0.5428870">
        <ele>1217.6</ele>
        <time>2023-01-14T13:28:38Z</time>
      </trkpt>
      <trkpt lat="42.6863340" lon="-0.5428860">
        <ele>1217.4</ele>
        <time>2023-01-14T13:28:39Z</time>
      </trkpt>
      <trkpt lat="42.6863330" lon="-0.5428860">
        <ele>1217.4</ele>
        <time>2023-01-14T13:28:40Z</time>
      </trkpt>
      <trkpt lat="42.6863330" lon="-0.5428850">
        <ele>1217.2</ele>
        <time>2023-01-14T13:28:41Z</time>
      </trkpt>
      <trkpt lat="42.6863330" lon="-0.5428850">
        <ele>1217.2</ele>
        <time>2023-01-14T13:28:42Z</time>
      </trkpt>
      <trkpt lat="42.6863330" lon="-0.5428840">
        <ele>1217.0</ele>
        <time>2023-01-14T13:28:43Z</time>
      </trkpt>
      <trkpt lat="42.6863340" lon="-0.5428830">
        <ele>1217.0</ele>
        <time>2023-01-14T13:28:44Z</time>
      </trkpt>
      <trkpt lat="42.6863340" lon="-0.5428830">
        <ele>1217.0</ele>
        <time>2023-01-14T13:28:45Z</time>
      </trkpt>
      <trkpt lat="42.6863340" lon="-0.5428820">
        <ele>1217.0</ele>
        <time>2023-01-14T13:28:46Z</time>
      </trkpt>
      <trkpt lat="42.6863330" lon="-0.5428810">
        <ele>1217.0</ele>
        <time>2023-01-14T13:28:47Z</time>
      </trkpt>
      <trkpt lat="42.6863330" lon="-0.5428800">
        <ele>1217.0</ele>
        <time>2023-01-14T13:28:48Z</time>
      </trkpt>
      <trkpt lat="42.6863330" lon="-0.5428800">
        <ele>1217.0</ele>
        <time>2023-01-14T13:28:49Z</time>
      </trkpt>
      <trkpt lat="42.6863320" lon="-0.5428790">
        <ele>1216.8</ele>
        <time>2023-01-14T13:28:50Z</time>
      </trkpt>
      <trkpt lat="42.6863320" lon="-0.5428790">
        <ele>1217.0</ele>
        <time>2023-01-14T13:28:51Z</time>
      </trkpt>
      <trkpt lat="42.6863320" lon="-0.5428790">
        <ele>1217.0</ele>
        <time>2023-01-14T13:28:52Z</time>
      </trkpt>
      <trkpt lat="42.6863320" lon="-0.5428790">
        <ele>1217.0</ele>
        <time>2023-01-14T13:28:53Z</time>
      </trkpt>
      <trkpt lat="42.6863320" lon="-0.5428790">
        <ele>1217.0</ele>
        <time>2023-01-14T13:28:54Z</time>
      </trkpt>
      <trkpt lat="42.6863320" lon="-0.5428780">
        <ele>1217.0</ele>
        <time>2023-01-14T13:28:55Z</time>
      </trkpt>
      <trkpt lat="42.6863330" lon="-0.5428780">
        <ele>1217.0</ele>
        <time>2023-01-14T13:28:56Z</time>
      </trkpt>
      <trkpt lat="42.6863330" lon="-0.5428770">
        <ele>1217.2</ele>
        <time>2023-01-14T13:28:57Z</time>
      </trkpt>
      <trkpt lat="42.6863330" lon="-0.5428770">
        <ele>1217.2</ele>
        <time>2023-01-14T13:28:58Z</time>
      </trkpt>
      <trkpt lat="42.6863330" lon="-0.5428770">
        <ele>1217.0</ele>
        <time>2023-01-14T13:28:59Z</time>
      </trkpt>
      <trkpt lat="42.6863330" lon="-0.5428760">
        <ele>1217.0</ele>
        <time>2023-01-14T13:29:00Z</time>
      </trkpt>
      <trkpt lat="42.6863330" lon="-0.5428760">
        <ele>1217.0</ele>
        <time>2023-01-14T13:29:01Z</time>
      </trkpt>
      <trkpt lat="42.6863330" lon="-0.5428760">
        <ele>1217.0</ele>
        <time>2023-01-14T13:29:02Z</time>
      </trkpt>
      <trkpt lat="42.6863340" lon="-0.5428760">
        <ele>1217.0</ele>
        <time>2023-01-14T13:29:03Z</time>
      </trkpt>
      <trkpt lat="42.6863340" lon="-0.5428760">
        <ele>1217.0</ele>
        <time>2023-01-14T13:29:04Z</time>
      </trkpt>
      <trkpt lat="42.6863340" lon="-0.5428760">
        <ele>1217.0</ele>
        <time>2023-01-14T13:29:05Z</time>
      </trkpt>
      <trkpt lat="42.6863340" lon="-0.5428760">
        <ele>1217.0</ele>
        <time>2023-01-14T13:29:06Z</time>
      </trkpt>
      <trkpt lat="42.6863340" lon="-0.5428770">
        <ele>1217.2</ele>
        <time>2023-01-14T13:29:07Z</time>
      </trkpt>
      <trkpt lat="42.6863330" lon="-0.5428770">
        <ele>1217.2</ele>
        <time>2023-01-14T13:29:08Z</time>
      </trkpt>
      <trkpt lat="42.6863330" lon="-0.5428770">
        <ele>1217.2</ele>
        <time>2023-01-14T13:29:09Z</time>
      </trkpt>
      <trkpt lat="42.6863330" lon="-0.5428770">
        <ele>1217.2</ele>
        <time>2023-01-14T13:29:10Z</time>
      </trkpt>
      <trkpt lat="42.6863330" lon="-0.5428770">
        <ele>1217.2</ele>
        <time>2023-01-14T13:29:11Z</time>
      </trkpt>
      <trkpt lat="42.6863330" lon="-0.5428770">
        <ele>1217.2</ele>
        <time>2023-01-14T13:29:12Z</time>
      </trkpt>
      <trkpt lat="42.6863330" lon="-0.5428770">
        <ele>1217.0</ele>
        <time>2023-01-14T13:29:13Z</time>
      </trkpt>
      <trkpt lat="42.6863330" lon="-0.5428780">
        <ele>1217.0</ele>
        <time>2023-01-14T13:29:14Z</time>
      </trkpt>
      <trkpt lat="42.6863320" lon="-0.5428780">
        <ele>1217.0</ele>
        <time>2023-01-14T13:29:15Z</time>
      </trkpt>
      <trkpt lat="42.6863320" lon="-0.5428780">
        <ele>1217.0</ele>
        <time>2023-01-14T13:29:16Z</time>
      </trkpt>
      <trkpt lat="42.6863310" lon="-0.5428780">
        <ele>1217.0</ele>
        <time>2023-01-14T13:29:17Z</time>
      </trkpt>
      <trkpt lat="42.6863310" lon="-0.5428780">
        <ele>1217.0</ele>
        <time>2023-01-14T13:29:18Z</time>
      </trkpt>
      <trkpt lat="42.6863310" lon="-0.5428780">
        <ele>1217.0</ele>
        <time>2023-01-14T13:29:19Z</time>
      </trkpt>
      <trkpt lat="42.6863310" lon="-0.5428780">
        <ele>1217.0</ele>
        <time>2023-01-14T13:29:20Z</time>
      </trkpt>
      <trkpt lat="42.6863310" lon="-0.5428780">
        <ele>1217.0</ele>
        <time>2023-01-14T13:29:21Z</time>
      </trkpt>
      <trkpt lat="42.6863310" lon="-0.5428780">
        <ele>1217.0</ele>
        <time>2023-01-14T13:29:22Z</time>
      </trkpt>
      <trkpt lat="42.6863310" lon="-0.5428770">
        <ele>1217.0</ele>
        <time>2023-01-14T13:29:23Z</time>
      </trkpt>
      <trkpt lat="42.6863310" lon="-0.5428770">
        <ele>1217.0</ele>
        <time>2023-01-14T13:29:24Z</time>
      </trkpt>
      <trkpt lat="42.6863300" lon="-0.5428770">
        <ele>1217.0</ele>
        <time>2023-01-14T13:29:25Z</time>
      </trkpt>
      <trkpt lat="42.6863300" lon="-0.5428760">
        <ele>1217.0</ele>
        <time>2023-01-14T13:29:26Z</time>
      </trkpt>
      <trkpt lat="42.6863300" lon="-0.5428760">
        <ele>1216.8</ele>
        <time>2023-01-14T13:29:27Z</time>
      </trkpt>
      <trkpt lat="42.6863290" lon="-0.5428760">
        <ele>1216.8</ele>
        <time>2023-01-14T13:29:28Z</time>
      </trkpt>
      <trkpt lat="42.6863290" lon="-0.5428760">
        <ele>1216.8</ele>
        <time>2023-01-14T13:29:29Z</time>
      </trkpt>
      <trkpt lat="42.6863290" lon="-0.5428750">
        <ele>1217.0</ele>
        <time>2023-01-14T13:29:30Z</time>
      </trkpt>
      <trkpt lat="42.6863300" lon="-0.5428750">
        <ele>1217.0</ele>
        <time>2023-01-14T13:29:31Z</time>
      </trkpt>
      <trkpt lat="42.6863300" lon="-0.5428750">
        <ele>1217.2</ele>
        <time>2023-01-14T13:29:32Z</time>
      </trkpt>
      <trkpt lat="42.6863300" lon="-0.5428740">
        <ele>1217.2</ele>
        <time>2023-01-14T13:29:33Z</time>
      </trkpt>
      <trkpt lat="42.6863300" lon="-0.5428740">
        <ele>1217.0</ele>
        <time>2023-01-14T13:29:34Z</time>
      </trkpt>
      <trkpt lat="42.6863300" lon="-0.5428730">
        <ele>1217.0</ele>
        <time>2023-01-14T13:29:35Z</time>
      </trkpt>
      <trkpt lat="42.6863300" lon="-0.5428730">
        <ele>1217.0</ele>
        <time>2023-01-14T13:29:36Z</time>
      </trkpt>
      <trkpt lat="42.6863300" lon="-0.5428720">
        <ele>1217.0</ele>
        <time>2023-01-14T13:29:37Z</time>
      </trkpt>
      <trkpt lat="42.6863290" lon="-0.5428720">
        <ele>1216.8</ele>
        <time>2023-01-14T13:29:38Z</time>
      </trkpt>
      <trkpt lat="42.6863290" lon="-0.5428710">
        <ele>1216.8</ele>
        <time>2023-01-14T13:29:39Z</time>
      </trkpt>
      <trkpt lat="42.6863290" lon="-0.5428700">
        <ele>1216.8</ele>
        <time>2023-01-14T13:29:40Z</time>
      </trkpt>
      <trkpt lat="42.6863300" lon="-0.5428700">
        <ele>1217.0</ele>
        <time>2023-01-14T13:29:41Z</time>
      </trkpt>
      <trkpt lat="42.6863300" lon="-0.5428690">
        <ele>1217.0</ele>
        <time>2023-01-14T13:29:42Z</time>
      </trkpt>
      <trkpt lat="42.6863300" lon="-0.5428680">
        <ele>1216.8</ele>
        <time>2023-01-14T13:29:43Z</time>
      </trkpt>
      <trkpt lat="42.6863300" lon="-0.5428680">
        <ele>1216.8</ele>
        <time>2023-01-14T13:29:44Z</time>
      </trkpt>
      <trkpt lat="42.6863300" lon="-0.5428680">
        <ele>1216.8</ele>
        <time>2023-01-14T13:29:45Z</time>
      </trkpt>
      <trkpt lat="42.6863300" lon="-0.5428670">
        <ele>1216.6</ele>
        <time>2023-01-14T13:29:46Z</time>
      </trkpt>
      <trkpt lat="42.6863300" lon="-0.5428670">
        <ele>1216.6</ele>
        <time>2023-01-14T13:29:47Z</time>
      </trkpt>
      <trkpt lat="42.6863300" lon="-0.5428670">
        <ele>1216.4</ele>
        <time>2023-01-14T13:29:48Z</time>
      </trkpt>
      <trkpt lat="42.6863300" lon="-0.5428670">
        <ele>1216.4</ele>
        <time>2023-01-14T13:29:49Z</time>
      </trkpt>
      <trkpt lat="42.6863290" lon="-0.5428670">
        <ele>1216.4</ele>
        <time>2023-01-14T13:29:50Z</time>
      </trkpt>
      <trkpt lat="42.6863290" lon="-0.5428670">
        <ele>1216.4</ele>
        <time>2023-01-14T13:29:51Z</time>
      </trkpt>
      <trkpt lat="42.6863300" lon="-0.5428680">
        <ele>1216.6</ele>
        <time>2023-01-14T13:29:52Z</time>
      </trkpt>
      <trkpt lat="42.6863310" lon="-0.5428680">
        <ele>1216.8</ele>
        <time>2023-01-14T13:29:53Z</time>
      </trkpt>
      <trkpt lat="42.6863320" lon="-0.5428680">
        <ele>1216.8</ele>
        <time>2023-01-14T13:29:54Z</time>
      </trkpt>
      <trkpt lat="42.6863330" lon="-0.5428690">
        <ele>1216.8</ele>
        <time>2023-01-14T13:29:55Z</time>
      </trkpt>
      <trkpt lat="42.6863340" lon="-0.5428720">
        <ele>1216.8</ele>
        <time>2023-01-14T13:29:56Z</time>
      </trkpt>
      <trkpt lat="42.6863330" lon="-0.5428740">
        <ele>1216.8</ele>
        <time>2023-01-14T13:29:57Z</time>
      </trkpt>
      <trkpt lat="42.6863330" lon="-0.5428760">
        <ele>1216.8</ele>
        <time>2023-01-14T13:29:58Z</time>
      </trkpt>
      <trkpt lat="42.6863330" lon="-0.5428770">
        <ele>1216.6</ele>
        <time>2023-01-14T13:29:59Z</time>
      </trkpt>
      <trkpt lat="42.6863330" lon="-0.5428780">
        <ele>1216.4</ele>
        <time>2023-01-14T13:30:00Z</time>
      </trkpt>
      <trkpt lat="42.6863320" lon="-0.5428790">
        <ele>1216.6</ele>
        <time>2023-01-14T13:30:01Z</time>
      </trkpt>
      <trkpt lat="42.6863320" lon="-0.5428800">
        <ele>1216.4</ele>
        <time>2023-01-14T13:30:02Z</time>
      </trkpt>
      <trkpt lat="42.6863320" lon="-0.5428820">
        <ele>1216.6</ele>
        <time>2023-01-14T13:30:03Z</time>
      </trkpt>
      <trkpt lat="42.6863330" lon="-0.5428820">
        <ele>1216.4</ele>
        <time>2023-01-14T13:30:04Z</time>
      </trkpt>
      <trkpt lat="42.6863330" lon="-0.5428830">
        <ele>1216.2</ele>
        <time>2023-01-14T13:30:05Z</time>
      </trkpt>
      <trkpt lat="42.6863350" lon="-0.5428850">
        <ele>1216.6</ele>
        <time>2023-01-14T13:30:06Z</time>
      </trkpt>
      <trkpt lat="42.6863350" lon="-0.5428860">
        <ele>1216.6</ele>
        <time>2023-01-14T13:30:07Z</time>
      </trkpt>
      <trkpt lat="42.6863350" lon="-0.5428860">
        <ele>1216.4</ele>
        <time>2023-01-14T13:30:08Z</time>
      </trkpt>
      <trkpt lat="42.6863350" lon="-0.5428860">
        <ele>1216.4</ele>
        <time>2023-01-14T13:30:09Z</time>
      </trkpt>
      <trkpt lat="42.6863350" lon="-0.5428870">
        <ele>1216.4</ele>
        <time>2023-01-14T13:30:10Z</time>
      </trkpt>
      <trkpt lat="42.6863350" lon="-0.5428870">
        <ele>1216.4</ele>
        <time>2023-01-14T13:30:11Z</time>
      </trkpt>
      <trkpt lat="42.6863350" lon="-0.5428870">
        <ele>1216.4</ele>
        <time>2023-01-14T13:30:12Z</time>
      </trkpt>
      <trkpt lat="42.6863360" lon="-0.5428860">
        <ele>1216.4</ele>
        <time>2023-01-14T13:30:13Z</time>
      </trkpt>
      <trkpt lat="42.6863360" lon="-0.5428860">
        <ele>1216.4</ele>
        <time>2023-01-14T13:30:14Z</time>
      </trkpt>
      <trkpt lat="42.6863360" lon="-0.5428870">
        <ele>1216.2</ele>
        <time>2023-01-14T13:30:15Z</time>
      </trkpt>
      <trkpt lat="42.6863360" lon="-0.5428870">
        <ele>1216.2</ele>
        <time>2023-01-14T13:30:16Z</time>
      </trkpt>
      <trkpt lat="42.6863360" lon="-0.5428880">
        <ele>1216.2</ele>
        <time>2023-01-14T13:30:17Z</time>
      </trkpt>
      <trkpt lat="42.6863360" lon="-0.5428880">
        <ele>1216.2</ele>
        <time>2023-01-14T13:30:18Z</time>
      </trkpt>
      <trkpt lat="42.6863360" lon="-0.5428880">
        <ele>1216.2</ele>
        <time>2023-01-14T13:30:19Z</time>
      </trkpt>
      <trkpt lat="42.6863360" lon="-0.5428880">
        <ele>1216.2</ele>
        <time>2023-01-14T13:30:20Z</time>
      </trkpt>
      <trkpt lat="42.6863360" lon="-0.5428880">
        <ele>1216.4</ele>
        <time>2023-01-14T13:30:21Z</time>
      </trkpt>
      <trkpt lat="42.6863360" lon="-0.5428880">
        <ele>1216.4</ele>
        <time>2023-01-14T13:30:22Z</time>
      </trkpt>
      <trkpt lat="42.6863360" lon="-0.5428880">
        <ele>1216.4</ele>
        <time>2023-01-14T13:30:23Z</time>
      </trkpt>
      <trkpt lat="42.6863360" lon="-0.5428880">
        <ele>1216.4</ele>
        <time>2023-01-14T13:30:24Z</time>
      </trkpt>
      <trkpt lat="42.6863360" lon="-0.5428890">
        <ele>1216.4</ele>
        <time>2023-01-14T13:30:25Z</time>
      </trkpt>
      <trkpt lat="42.6863360" lon="-0.5428890">
        <ele>1216.4</ele>
        <time>2023-01-14T13:30:26Z</time>
      </trkpt>
      <trkpt lat="42.6863360" lon="-0.5428890">
        <ele>1216.4</ele>
        <time>2023-01-14T13:30:27Z</time>
      </trkpt>
      <trkpt lat="42.6863370" lon="-0.5428890">
        <ele>1216.4</ele>
        <time>2023-01-14T13:30:28Z</time>
      </trkpt>
      <trkpt lat="42.6863370" lon="-0.5428890">
        <ele>1216.4</ele>
        <time>2023-01-14T13:30:29Z</time>
      </trkpt>
      <trkpt lat="42.6863370" lon="-0.5428900">
        <ele>1216.4</ele>
        <time>2023-01-14T13:30:30Z</time>
      </trkpt>
      <trkpt lat="42.6863370" lon="-0.5428900">
        <ele>1216.4</ele>
        <time>2023-01-14T13:30:31Z</time>
      </trkpt>
      <trkpt lat="42.6863370" lon="-0.5428910">
        <ele>1216.4</ele>
        <time>2023-01-14T13:30:32Z</time>
      </trkpt>
      <trkpt lat="42.6863370" lon="-0.5428920">
        <ele>1216.4</ele>
        <time>2023-01-14T13:30:33Z</time>
      </trkpt>
      <trkpt lat="42.6863370" lon="-0.5428930">
        <ele>1216.4</ele>
        <time>2023-01-14T13:30:34Z</time>
      </trkpt>
      <trkpt lat="42.6863370" lon="-0.5428940">
        <ele>1216.4</ele>
        <time>2023-01-14T13:30:35Z</time>
      </trkpt>
      <trkpt lat="42.6863380" lon="-0.5428950">
        <ele>1216.4</ele>
        <time>2023-01-14T13:30:36Z</time>
      </trkpt>
      <trkpt lat="42.6863380" lon="-0.5428960">
        <ele>1216.4</ele>
        <time>2023-01-14T13:30:37Z</time>
      </trkpt>
      <trkpt lat="42.6863380" lon="-0.5428970">
        <ele>1216.4</ele>
        <time>2023-01-14T13:30:38Z</time>
      </trkpt>
      <trkpt lat="42.6863380" lon="-0.5428980">
        <ele>1216.4</ele>
        <time>2023-01-14T13:30:39Z</time>
      </trkpt>
      <trkpt lat="42.6863380" lon="-0.5428990">
        <ele>1216.4</ele>
        <time>2023-01-14T13:30:40Z</time>
      </trkpt>
      <trkpt lat="42.6863380" lon="-0.5428990">
        <ele>1216.4</ele>
        <time>2023-01-14T13:30:41Z</time>
      </trkpt>
      <trkpt lat="42.6863380" lon="-0.5428990">
        <ele>1216.4</ele>
        <time>2023-01-14T13:30:42Z</time>
      </trkpt>
      <trkpt lat="42.6863380" lon="-0.5429000">
        <ele>1216.4</ele>
        <time>2023-01-14T13:30:43Z</time>
      </trkpt>
      <trkpt lat="42.6863380" lon="-0.5429000">
        <ele>1216.4</ele>
        <time>2023-01-14T13:30:44Z</time>
      </trkpt>
      <trkpt lat="42.6863380" lon="-0.5429000">
        <ele>1216.4</ele>
        <time>2023-01-14T13:30:45Z</time>
      </trkpt>
      <trkpt lat="42.6863380" lon="-0.5429000">
        <ele>1216.4</ele>
        <time>2023-01-14T13:30:46Z</time>
      </trkpt>
      <trkpt lat="42.6863380" lon="-0.5429000">
        <ele>1216.4</ele>
        <time>2023-01-14T13:30:47Z</time>
      </trkpt>
      <trkpt lat="42.6863380" lon="-0.5429000">
        <ele>1216.4</ele>
        <time>2023-01-14T13:30:48Z</time>
      </trkpt>
      <trkpt lat="42.6863390" lon="-0.5429000">
        <ele>1216.4</ele>
        <time>2023-01-14T13:30:49Z</time>
      </trkpt>
      <trkpt lat="42.6863390" lon="-0.5429000">
        <ele>1216.4</ele>
        <time>2023-01-14T13:30:50Z</time>
      </trkpt>
      <trkpt lat="42.6863390" lon="-0.5429010">
        <ele>1216.4</ele>
        <time>2023-01-14T13:30:51Z</time>
      </trkpt>
      <trkpt lat="42.6863390" lon="-0.5429010">
        <ele>1216.4</ele>
        <time>2023-01-14T13:30:52Z</time>
      </trkpt>
      <trkpt lat="42.6863390" lon="-0.5429010">
        <ele>1216.4</ele>
        <time>2023-01-14T13:30:53Z</time>
      </trkpt>
      <trkpt lat="42.6863390" lon="-0.5429010">
        <ele>1216.4</ele>
        <time>2023-01-14T13:30:54Z</time>
      </trkpt>
      <trkpt lat="42.6863400" lon="-0.5429010">
        <ele>1216.4</ele>
        <time>2023-01-14T13:30:55Z</time>
      </trkpt>
      <trkpt lat="42.6863400" lon="-0.5429010">
        <ele>1216.4</ele>
        <time>2023-01-14T13:30:56Z</time>
      </trkpt>
      <trkpt lat="42.6863400" lon="-0.5429010">
        <ele>1216.4</ele>
        <time>2023-01-14T13:30:57Z</time>
      </trkpt>
      <trkpt lat="42.6863400" lon="-0.5429010">
        <ele>1216.4</ele>
        <time>2023-01-14T13:30:58Z</time>
      </trkpt>
      <trkpt lat="42.6863400" lon="-0.5429010">
        <ele>1216.4</ele>
        <time>2023-01-14T13:30:59Z</time>
      </trkpt>
      <trkpt lat="42.6863400" lon="-0.5429010">
        <ele>1216.4</ele>
        <time>2023-01-14T13:31:00Z</time>
      </trkpt>
      <trkpt lat="42.6863400" lon="-0.5429010">
        <ele>1216.4</ele>
        <time>2023-01-14T13:31:01Z</time>
      </trkpt>
      <trkpt lat="42.6863400" lon="-0.5429000">
        <ele>1216.4</ele>
        <time>2023-01-14T13:31:02Z</time>
      </trkpt>
      <trkpt lat="42.6863400" lon="-0.5429000">
        <ele>1216.4</ele>
        <time>2023-01-14T13:31:03Z</time>
      </trkpt>
      <trkpt lat="42.6863410" lon="-0.5429000">
        <ele>1216.4</ele>
        <time>2023-01-14T13:31:04Z</time>
      </trkpt>
      <trkpt lat="42.6863400" lon="-0.5429000">
        <ele>1216.4</ele>
        <time>2023-01-14T13:31:05Z</time>
      </trkpt>
      <trkpt lat="42.6863400" lon="-0.5428990">
        <ele>1216.4</ele>
        <time>2023-01-14T13:31:06Z</time>
      </trkpt>
      <trkpt lat="42.6863400" lon="-0.5428990">
        <ele>1216.4</ele>
        <time>2023-01-14T13:31:07Z</time>
      </trkpt>
      <trkpt lat="42.6863400" lon="-0.5428990">
        <ele>1216.4</ele>
        <time>2023-01-14T13:31:08Z</time>
      </trkpt>
      <trkpt lat="42.6863410" lon="-0.5428990">
        <ele>1216.4</ele>
        <time>2023-01-14T13:31:09Z</time>
      </trkpt>
      <trkpt lat="42.6863410" lon="-0.5428990">
        <ele>1216.4</ele>
        <time>2023-01-14T13:31:10Z</time>
      </trkpt>
      <trkpt lat="42.6863410" lon="-0.5428980">
        <ele>1216.4</ele>
        <time>2023-01-14T13:31:11Z</time>
      </trkpt>
      <trkpt lat="42.6863410" lon="-0.5428980">
        <ele>1216.4</ele>
        <time>2023-01-14T13:31:12Z</time>
      </trkpt>
      <trkpt lat="42.6863410" lon="-0.5428980">
        <ele>1216.4</ele>
        <time>2023-01-14T13:31:13Z</time>
      </trkpt>
      <trkpt lat="42.6863410" lon="-0.5428980">
        <ele>1216.4</ele>
        <time>2023-01-14T13:31:14Z</time>
      </trkpt>
      <trkpt lat="42.6863410" lon="-0.5428970">
        <ele>1216.4</ele>
        <time>2023-01-14T13:31:15Z</time>
      </trkpt>
      <trkpt lat="42.6863410" lon="-0.5428970">
        <ele>1216.4</ele>
        <time>2023-01-14T13:31:16Z</time>
      </trkpt>
      <trkpt lat="42.6863410" lon="-0.5428970">
        <ele>1216.4</ele>
        <time>2023-01-14T13:31:17Z</time>
      </trkpt>
      <trkpt lat="42.6863410" lon="-0.5428960">
        <ele>1216.4</ele>
        <time>2023-01-14T13:31:18Z</time>
      </trkpt>
      <trkpt lat="42.6863410" lon="-0.5428960">
        <ele>1216.4</ele>
        <time>2023-01-14T13:31:19Z</time>
      </trkpt>
      <trkpt lat="42.6863410" lon="-0.5428950">
        <ele>1216.4</ele>
        <time>2023-01-14T13:31:20Z</time>
      </trkpt>
      <trkpt lat="42.6863410" lon="-0.5428950">
        <ele>1216.4</ele>
        <time>2023-01-14T13:31:21Z</time>
      </trkpt>
      <trkpt lat="42.6863410" lon="-0.5428950">
        <ele>1216.4</ele>
        <time>2023-01-14T13:31:22Z</time>
      </trkpt>
      <trkpt lat="42.6863410" lon="-0.5428940">
        <ele>1216.4</ele>
        <time>2023-01-14T13:31:23Z</time>
      </trkpt>
      <trkpt lat="42.6863410" lon="-0.5428940">
        <ele>1216.4</ele>
        <time>2023-01-14T13:31:24Z</time>
      </trkpt>
      <trkpt lat="42.6863410" lon="-0.5428940">
        <ele>1216.4</ele>
        <time>2023-01-14T13:31:25Z</time>
      </trkpt>
      <trkpt lat="42.6863410" lon="-0.5428930">
        <ele>1216.4</ele>
        <time>2023-01-14T13:31:26Z</time>
      </trkpt>
      <trkpt lat="42.6863410" lon="-0.5428930">
        <ele>1216.4</ele>
        <time>2023-01-14T13:31:27Z</time>
      </trkpt>
      <trkpt lat="42.6863410" lon="-0.5428930">
        <ele>1216.4</ele>
        <time>2023-01-14T13:31:28Z</time>
      </trkpt>
      <trkpt lat="42.6863410" lon="-0.5428920">
        <ele>1216.4</ele>
        <time>2023-01-14T13:31:29Z</time>
      </trkpt>
      <trkpt lat="42.6863410" lon="-0.5428920">
        <ele>1216.4</ele>
        <time>2023-01-14T13:31:30Z</time>
      </trkpt>
      <trkpt lat="42.6863400" lon="-0.5428910">
        <ele>1216.4</ele>
        <time>2023-01-14T13:31:31Z</time>
      </trkpt>
      <trkpt lat="42.6863400" lon="-0.5428910">
        <ele>1216.4</ele>
        <time>2023-01-14T13:31:32Z</time>
      </trkpt>
      <trkpt lat="42.6863400" lon="-0.5428910">
        <ele>1216.4</ele>
        <time>2023-01-14T13:31:33Z</time>
      </trkpt>
      <trkpt lat="42.6863400" lon="-0.5428900">
        <ele>1216.4</ele>
        <time>2023-01-14T13:31:34Z</time>
      </trkpt>
      <trkpt lat="42.6863400" lon="-0.5428900">
        <ele>1216.4</ele>
        <time>2023-01-14T13:31:35Z</time>
      </trkpt>
      <trkpt lat="42.6863400" lon="-0.5428890">
        <ele>1216.4</ele>
        <time>2023-01-14T13:31:36Z</time>
      </trkpt>
      <trkpt lat="42.6863400" lon="-0.5428890">
        <ele>1216.4</ele>
        <time>2023-01-14T13:31:37Z</time>
      </trkpt>
      <trkpt lat="42.6863390" lon="-0.5428890">
        <ele>1216.4</ele>
        <time>2023-01-14T13:31:38Z</time>
      </trkpt>
      <trkpt lat="42.6863390" lon="-0.5428880">
        <ele>1216.4</ele>
        <time>2023-01-14T13:31:39Z</time>
      </trkpt>
      <trkpt lat="42.6863390" lon="-0.5428880">
        <ele>1216.4</ele>
        <time>2023-01-14T13:31:40Z</time>
      </trkpt>
      <trkpt lat="42.6863390" lon="-0.5428880">
        <ele>1216.4</ele>
        <time>2023-01-14T13:31:41Z</time>
      </trkpt>
      <trkpt lat="42.6863390" lon="-0.5428870">
        <ele>1216.4</ele>
        <time>2023-01-14T13:31:42Z</time>
      </trkpt>
      <trkpt lat="42.6863390" lon="-0.5428870">
        <ele>1216.4</ele>
        <time>2023-01-14T13:31:43Z</time>
      </trkpt>
      <trkpt lat="42.6863390" lon="-0.5428860">
        <ele>1216.4</ele>
        <time>2023-01-14T13:31:44Z</time>
      </trkpt>
      <trkpt lat="42.6863390" lon="-0.5428860">
        <ele>1216.4</ele>
        <time>2023-01-14T13:31:45Z</time>
      </trkpt>
      <trkpt lat="42.6863390" lon="-0.5428860">
        <ele>1216.4</ele>
        <time>2023-01-14T13:31:46Z</time>
      </trkpt>
      <trkpt lat="42.6863390" lon="-0.5428850">
        <ele>1216.4</ele>
        <time>2023-01-14T13:31:47Z</time>
      </trkpt>
      <trkpt lat="42.6863380" lon="-0.5428850">
        <ele>1216.4</ele>
        <time>2023-01-14T13:31:48Z</time>
      </trkpt>
      <trkpt lat="42.6863380" lon="-0.5428850">
        <ele>1216.4</ele>
        <time>2023-01-14T13:31:49Z</time>
      </trkpt>
      <trkpt lat="42.6863380" lon="-0.5428850">
        <ele>1216.4</ele>
        <time>2023-01-14T13:31:50Z</time>
      </trkpt>
      <trkpt lat="42.6863380" lon="-0.5428840">
        <ele>1216.4</ele>
        <time>2023-01-14T13:31:51Z</time>
      </trkpt>
      <trkpt lat="42.6863380" lon="-0.5428840">
        <ele>1216.4</ele>
        <time>2023-01-14T13:31:52Z</time>
      </trkpt>
      <trkpt lat="42.6863380" lon="-0.5428840">
        <ele>1216.4</ele>
        <time>2023-01-14T13:31:53Z</time>
      </trkpt>
      <trkpt lat="42.6863380" lon="-0.5428840">
        <ele>1216.4</ele>
        <time>2023-01-14T13:31:54Z</time>
      </trkpt>
      <trkpt lat="42.6863380" lon="-0.5428840">
        <ele>1216.4</ele>
        <time>2023-01-14T13:31:55Z</time>
      </trkpt>
      <trkpt lat="42.6863380" lon="-0.5428840">
        <ele>1216.4</ele>
        <time>2023-01-14T13:31:56Z</time>
      </trkpt>
      <trkpt lat="42.6863380" lon="-0.5428840">
        <ele>1216.4</ele>
        <time>2023-01-14T13:31:57Z</time>
      </trkpt>
      <trkpt lat="42.6863370" lon="-0.5428840">
        <ele>1216.4</ele>
        <time>2023-01-14T13:31:58Z</time>
      </trkpt>
      <trkpt lat="42.6863370" lon="-0.5428840">
        <ele>1216.4</ele>
        <time>2023-01-14T13:31:59Z</time>
      </trkpt>
      <trkpt lat="42.6863370" lon="-0.5428840">
        <ele>1216.4</ele>
        <time>2023-01-14T13:32:00Z</time>
      </trkpt>
      <trkpt lat="42.6863370" lon="-0.5428840">
        <ele>1216.4</ele>
        <time>2023-01-14T13:32:01Z</time>
      </trkpt>
      <trkpt lat="42.6863370" lon="-0.5428840">
        <ele>1216.4</ele>
        <time>2023-01-14T13:32:02Z</time>
      </trkpt>
      <trkpt lat="42.6863360" lon="-0.5428840">
        <ele>1216.4</ele>
        <time>2023-01-14T13:32:03Z</time>
      </trkpt>
      <trkpt lat="42.6863360" lon="-0.5428840">
        <ele>1216.4</ele>
        <time>2023-01-14T13:32:04Z</time>
      </trkpt>
      <trkpt lat="42.6863360" lon="-0.5428850">
        <ele>1216.4</ele>
        <time>2023-01-14T13:32:05Z</time>
      </trkpt>
      <trkpt lat="42.6863360" lon="-0.5428850">
        <ele>1216.4</ele>
        <time>2023-01-14T13:32:06Z</time>
      </trkpt>
      <trkpt lat="42.6863350" lon="-0.5428850">
        <ele>1216.4</ele>
        <time>2023-01-14T13:32:07Z</time>
      </trkpt>
      <trkpt lat="42.6863350" lon="-0.5428850">
        <ele>1216.4</ele>
        <time>2023-01-14T13:32:08Z</time>
      </trkpt>
      <trkpt lat="42.6863350" lon="-0.5428850">
        <ele>1216.4</ele>
        <time>2023-01-14T13:32:09Z</time>
      </trkpt>
      <trkpt lat="42.6863340" lon="-0.5428850">
        <ele>1216.4</ele>
        <time>2023-01-14T13:32:10Z</time>
      </trkpt>
      <trkpt lat="42.6863340" lon="-0.5428850">
        <ele>1216.4</ele>
        <time>2023-01-14T13:32:11Z</time>
      </trkpt>
      <trkpt lat="42.6863340" lon="-0.5428850">
        <ele>1216.4</ele>
        <time>2023-01-14T13:32:12Z</time>
      </trkpt>
      <trkpt lat="42.6863340" lon="-0.5428860">
        <ele>1216.4</ele>
        <time>2023-01-14T13:32:13Z</time>
      </trkpt>
      <trkpt lat="42.6863340" lon="-0.5428860">
        <ele>1216.4</ele>
        <time>2023-01-14T13:32:14Z</time>
      </trkpt>
      <trkpt lat="42.6863340" lon="-0.5428860">
        <ele>1216.4</ele>
        <time>2023-01-14T13:32:15Z</time>
      </trkpt>
      <trkpt lat="42.6863340" lon="-0.5428860">
        <ele>1216.4</ele>
        <time>2023-01-14T13:32:16Z</time>
      </trkpt>
      <trkpt lat="42.6863340" lon="-0.5428860">
        <ele>1216.4</ele>
        <time>2023-01-14T13:32:17Z</time>
      </trkpt>
      <trkpt lat="42.6863340" lon="-0.5428860">
        <ele>1216.4</ele>
        <time>2023-01-14T13:32:18Z</time>
      </trkpt>
      <trkpt lat="42.6863340" lon="-0.5428860">
        <ele>1216.4</ele>
        <time>2023-01-14T13:32:19Z</time>
      </trkpt>
      <trkpt lat="42.6863340" lon="-0.5428860">
        <ele>1216.4</ele>
        <time>2023-01-14T13:32:20Z</time>
      </trkpt>
      <trkpt lat="42.6863340" lon="-0.5428860">
        <ele>1216.4</ele>
        <time>2023-01-14T13:32:21Z</time>
      </trkpt>
      <trkpt lat="42.6863330" lon="-0.5428860">
        <ele>1216.4</ele>
        <time>2023-01-14T13:32:22Z</time>
      </trkpt>
      <trkpt lat="42.6863330" lon="-0.5428860">
        <ele>1216.4</ele>
        <time>2023-01-14T13:32:23Z</time>
      </trkpt>
      <trkpt lat="42.6863330" lon="-0.5428860">
        <ele>1216.4</ele>
        <time>2023-01-14T13:32:24Z</time>
      </trkpt>
      <trkpt lat="42.6863330" lon="-0.5428860">
        <ele>1216.4</ele>
        <time>2023-01-14T13:32:25Z</time>
      </trkpt>
      <trkpt lat="42.6863330" lon="-0.5428860">
        <ele>1216.4</ele>
        <time>2023-01-14T13:32:26Z</time>
      </trkpt>
      <trkpt lat="42.6863330" lon="-0.5428850">
        <ele>1216.4</ele>
        <time>2023-01-14T13:32:27Z</time>
      </trkpt>
      <trkpt lat="42.6863330" lon="-0.5428850">
        <ele>1216.4</ele>
        <time>2023-01-14T13:32:28Z</time>
      </trkpt>
      <trkpt lat="42.6863330" lon="-0.5428850">
        <ele>1216.4</ele>
        <time>2023-01-14T13:32:29Z</time>
      </trkpt>
      <trkpt lat="42.6863330" lon="-0.5428850">
        <ele>1216.4</ele>
        <time>2023-01-14T13:32:30Z</time>
      </trkpt>
      <trkpt lat="42.6863330" lon="-0.5428850">
        <ele>1216.4</ele>
        <time>2023-01-14T13:32:31Z</time>
      </trkpt>
      <trkpt lat="42.6863330" lon="-0.5428850">
        <ele>1216.4</ele>
        <time>2023-01-14T13:32:32Z</time>
      </trkpt>
      <trkpt lat="42.6863330" lon="-0.5428840">
        <ele>1216.4</ele>
        <time>2023-01-14T13:32:33Z</time>
      </trkpt>
      <trkpt lat="42.6863330" lon="-0.5428840">
        <ele>1216.4</ele>
        <time>2023-01-14T13:32:34Z</time>
      </trkpt>
      <trkpt lat="42.6863330" lon="-0.5428840">
        <ele>1216.4</ele>
        <time>2023-01-14T13:32:35Z</time>
      </trkpt>
      <trkpt lat="42.6863330" lon="-0.5428840">
        <ele>1216.4</ele>
        <time>2023-01-14T13:32:36Z</time>
      </trkpt>
      <trkpt lat="42.6863330" lon="-0.5428840">
        <ele>1216.4</ele>
        <time>2023-01-14T13:32:37Z</time>
      </trkpt>
      <trkpt lat="42.6863320" lon="-0.5428840">
        <ele>1216.4</ele>
        <time>2023-01-14T13:32:38Z</time>
      </trkpt>
      <trkpt lat="42.6863320" lon="-0.5428840">
        <ele>1216.4</ele>
        <time>2023-01-14T13:32:39Z</time>
      </trkpt>
      <trkpt lat="42.6863320" lon="-0.5428840">
        <ele>1216.4</ele>
        <time>2023-01-14T13:32:40Z</time>
      </trkpt>
      <trkpt lat="42.6863320" lon="-0.5428840">
        <ele>1216.4</ele>
        <time>2023-01-14T13:32:41Z</time>
      </trkpt>
      <trkpt lat="42.6863320" lon="-0.5428840">
        <ele>1216.4</ele>
        <time>2023-01-14T13:32:42Z</time>
      </trkpt>
      <trkpt lat="42.6863320" lon="-0.5428840">
        <ele>1216.4</ele>
        <time>2023-01-14T13:32:43Z</time>
      </trkpt>
      <trkpt lat="42.6863320" lon="-0.5428840">
        <ele>1216.4</ele>
        <time>2023-01-14T13:32:44Z</time>
      </trkpt>
      <trkpt lat="42.6863320" lon="-0.5428840">
        <ele>1216.4</ele>
        <time>2023-01-14T13:32:45Z</time>
      </trkpt>
      <trkpt lat="42.6863320" lon="-0.5428840">
        <ele>1216.4</ele>
        <time>2023-01-14T13:32:46Z</time>
      </trkpt>
      <trkpt lat="42.6863320" lon="-0.5428840">
        <ele>1216.4</ele>
        <time>2023-01-14T13:32:47Z</time>
      </trkpt>
      <trkpt lat="42.6863320" lon="-0.5428840">
        <ele>1216.4</ele>
        <time>2023-01-14T13:32:48Z</time>
      </trkpt>
      <trkpt lat="42.6863320" lon="-0.5428840">
        <ele>1216.4</ele>
        <time>2023-01-14T13:32:49Z</time>
      </trkpt>
      <trkpt lat="42.6863320" lon="-0.5428840">
        <ele>1216.4</ele>
        <time>2023-01-14T13:32:50Z</time>
      </trkpt>
      <trkpt lat="42.6863320" lon="-0.5428840">
        <ele>1216.4</ele>
        <time>2023-01-14T13:32:51Z</time>
      </trkpt>
      <trkpt lat="42.6863320" lon="-0.5428840">
        <ele>1216.4</ele>
        <time>2023-01-14T13:32:52Z</time>
      </trkpt>
      <trkpt lat="42.6863320" lon="-0.5428840">
        <ele>1216.4</ele>
        <time>2023-01-14T13:32:53Z</time>
      </trkpt>
      <trkpt lat="42.6863320" lon="-0.5428840">
        <ele>1216.4</ele>
        <time>2023-01-14T13:32:54Z</time>
      </trkpt>
      <trkpt lat="42.6863320" lon="-0.5428840">
        <ele>1216.4</ele>
        <time>2023-01-14T13:32:55Z</time>
      </trkpt>
      <trkpt lat="42.6863310" lon="-0.5428840">
        <ele>1216.4</ele>
        <time>2023-01-14T13:32:56Z</time>
      </trkpt>
      <trkpt lat="42.6863310" lon="-0.5428840">
        <ele>1216.4</ele>
        <time>2023-01-14T13:32:57Z</time>
      </trkpt>
      <trkpt lat="42.6863310" lon="-0.5428840">
        <ele>1216.4</ele>
        <time>2023-01-14T13:32:58Z</time>
      </trkpt>
      <trkpt lat="42.6863310" lon="-0.5428840">
        <ele>1216.4</ele>
        <time>2023-01-14T13:32:59Z</time>
      </trkpt>
      <trkpt lat="42.6863310" lon="-0.5428840">
        <ele>1216.4</ele>
        <time>2023-01-14T13:33:00Z</time>
      </trkpt>
      <trkpt lat="42.6863310" lon="-0.5428840">
        <ele>1216.4</ele>
        <time>2023-01-14T13:33:01Z</time>
      </trkpt>
      <trkpt lat="42.6863310" lon="-0.5428840">
        <ele>1216.4</ele>
        <time>2023-01-14T13:33:02Z</time>
      </trkpt>
      <trkpt lat="42.6863310" lon="-0.5428840">
        <ele>1216.4</ele>
        <time>2023-01-14T13:33:03Z</time>
      </trkpt>
      <trkpt lat="42.6863300" lon="-0.5428840">
        <ele>1216.4</ele>
        <time>2023-01-14T13:33:04Z</time>
      </trkpt>
      <trkpt lat="42.6863300" lon="-0.5428840">
        <ele>1216.4</ele>
        <time>2023-01-14T13:33:05Z</time>
      </trkpt>
      <trkpt lat="42.6863300" lon="-0.5428840">
        <ele>1216.4</ele>
        <time>2023-01-14T13:33:06Z</time>
      </trkpt>
      <trkpt lat="42.6863300" lon="-0.5428840">
        <ele>1216.4</ele>
        <time>2023-01-14T13:33:07Z</time>
      </trkpt>
      <trkpt lat="42.6863300" lon="-0.5428840">
        <ele>1216.4</ele>
        <time>2023-01-14T13:33:08Z</time>
      </trkpt>
      <trkpt lat="42.6863300" lon="-0.5428840">
        <ele>1216.4</ele>
        <time>2023-01-14T13:33:09Z</time>
      </trkpt>
      <trkpt lat="42.6863300" lon="-0.5428840">
        <ele>1216.4</ele>
        <time>2023-01-14T13:33:10Z</time>
      </trkpt>
      <trkpt lat="42.6863300" lon="-0.5428840">
        <ele>1216.4</ele>
        <time>2023-01-14T13:33:11Z</time>
      </trkpt>
      <trkpt lat="42.6863300" lon="-0.5428840">
        <ele>1216.4</ele>
        <time>2023-01-14T13:33:12Z</time>
      </trkpt>
      <trkpt lat="42.6863300" lon="-0.5428840">
        <ele>1216.4</ele>
        <time>2023-01-14T13:33:13Z</time>
      </trkpt>
      <trkpt lat="42.6863300" lon="-0.5428840">
        <ele>1216.4</ele>
        <time>2023-01-14T13:33:14Z</time>
      </trkpt>
      <trkpt lat="42.6863300" lon="-0.5428830">
        <ele>1216.4</ele>
        <time>2023-01-14T13:33:15Z</time>
      </trkpt>
      <trkpt lat="42.6863300" lon="-0.5428830">
        <ele>1216.4</ele>
        <time>2023-01-14T13:33:16Z</time>
      </trkpt>
      <trkpt lat="42.6863300" lon="-0.5428760">
        <ele>1216.4</ele>
        <time>2023-01-14T13:33:17Z</time>
      </trkpt>
      <trkpt lat="42.6863300" lon="-0.5428710">
        <ele>1216.4</ele>
        <time>2023-01-14T13:33:18Z</time>
      </trkpt>
      <trkpt lat="42.6863320" lon="-0.5428670">
        <ele>1216.4</ele>
        <time>2023-01-14T13:33:19Z</time>
      </trkpt>
      <trkpt lat="42.6863320" lon="-0.5428670">
        <ele>1216.4</ele>
        <time>2023-01-14T13:33:20Z</time>
      </trkpt>
      <trkpt lat="42.6863280" lon="-0.5428670">
        <ele>1216.4</ele>
        <time>2023-01-14T13:33:21Z</time>
      </trkpt>
      <trkpt lat="42.6863280" lon="-0.5428670">
        <ele>1216.4</ele>
        <time>2023-01-14T13:33:22Z</time>
      </trkpt>
      <trkpt lat="42.6863250" lon="-0.5428660">
        <ele>1216.4</ele>
        <time>2023-01-14T13:33:23Z</time>
      </trkpt>
      <trkpt lat="42.6863250" lon="-0.5428660">
        <ele>1216.4</ele>
        <time>2023-01-14T13:33:24Z</time>
      </trkpt>
      <trkpt lat="42.6863250" lon="-0.5428670">
        <ele>1216.4</ele>
        <time>2023-01-14T13:33:25Z</time>
      </trkpt>
      <trkpt lat="42.6863240" lon="-0.5428660">
        <ele>1216.4</ele>
        <time>2023-01-14T13:33:26Z</time>
      </trkpt>
      <trkpt lat="42.6863240" lon="-0.5428650">
        <ele>1216.4</ele>
        <time>2023-01-14T13:33:27Z</time>
      </trkpt>
      <trkpt lat="42.6863240" lon="-0.5428650">
        <ele>1216.4</ele>
        <time>2023-01-14T13:33:28Z</time>
      </trkpt>
      <trkpt lat="42.6863230" lon="-0.5428650">
        <ele>1216.4</ele>
        <time>2023-01-14T13:33:29Z</time>
      </trkpt>
      <trkpt lat="42.6863230" lon="-0.5428640">
        <ele>1216.4</ele>
        <time>2023-01-14T13:33:30Z</time>
      </trkpt>
      <trkpt lat="42.6863190" lon="-0.5428610">
        <ele>1216.4</ele>
        <time>2023-01-14T13:33:31Z</time>
      </trkpt>
      <trkpt lat="42.6863190" lon="-0.5428610">
        <ele>1216.4</ele>
        <time>2023-01-14T13:33:32Z</time>
      </trkpt>
      <trkpt lat="42.6863180" lon="-0.5428600">
        <ele>1216.4</ele>
        <time>2023-01-14T13:33:33Z</time>
      </trkpt>
      <trkpt lat="42.6863170" lon="-0.5428590">
        <ele>1216.4</ele>
        <time>2023-01-14T13:33:34Z</time>
      </trkpt>
      <trkpt lat="42.6863170" lon="-0.5428590">
        <ele>1216.4</ele>
        <time>2023-01-14T13:33:35Z</time>
      </trkpt>
      <trkpt lat="42.6863120" lon="-0.5428630">
        <ele>1216.4</ele>
        <time>2023-01-14T13:33:36Z</time>
      </trkpt>
      <trkpt lat="42.6862800" lon="-0.5428730">
        <ele>1216.4</ele>
        <time>2023-01-14T13:33:37Z</time>
      </trkpt>
      <trkpt lat="42.6862440" lon="-0.5428810">
        <ele>1216.4</ele>
        <time>2023-01-14T13:33:38Z</time>
      </trkpt>
      <trkpt lat="42.6861960" lon="-0.5428690">
        <ele>1216.4</ele>
        <time>2023-01-14T13:33:39Z</time>
      </trkpt>
      <trkpt lat="42.6861480" lon="-0.5428560">
        <ele>1216.4</ele>
        <time>2023-01-14T13:33:40Z</time>
      </trkpt>
      <trkpt lat="42.6861190" lon="-0.5428500">
        <ele>1216.4</ele>
        <time>2023-01-14T13:33:41Z</time>
      </trkpt>
      <trkpt lat="42.6860910" lon="-0.5428430">
        <ele>1216.0</ele>
        <time>2023-01-14T13:33:42Z</time>
      </trkpt>
      <trkpt lat="42.6860060" lon="-0.5428360">
        <ele>1215.6</ele>
        <time>2023-01-14T13:33:43Z</time>
      </trkpt>
      <trkpt lat="42.6859790" lon="-0.5428420">
        <ele>1214.0</ele>
        <time>2023-01-14T13:33:44Z</time>
      </trkpt>
      <trkpt lat="42.6859290" lon="-0.5428560">
        <ele>1213.0</ele>
        <time>2023-01-14T13:33:45Z</time>
      </trkpt>
      <trkpt lat="42.6858880" lon="-0.5428590">
        <ele>1212.0</ele>
        <time>2023-01-14T13:33:46Z</time>
      </trkpt>
      <trkpt lat="42.6858290" lon="-0.5428630">
        <ele>1211.0</ele>
        <time>2023-01-14T13:33:47Z</time>
      </trkpt>
      <trkpt lat="42.6858180" lon="-0.5428620">
        <ele>1209.4</ele>
        <time>2023-01-14T13:33:48Z</time>
      </trkpt>
      <trkpt lat="42.6858180" lon="-0.5428620">
        <ele>1207.8</ele>
        <time>2023-01-14T13:33:49Z</time>
      </trkpt>
      <trkpt lat="42.6858080" lon="-0.5428620">
        <ele>1207.0</ele>
        <time>2023-01-14T13:33:50Z</time>
      </trkpt>
      <trkpt lat="42.6858080" lon="-0.5428620">
        <ele>1206.6</ele>
        <time>2023-01-14T13:33:51Z</time>
      </trkpt>
      <trkpt lat="42.6858030" lon="-0.5428640">
        <ele>1206.4</ele>
        <time>2023-01-14T13:33:52Z</time>
      </trkpt>
      <trkpt lat="42.6857980" lon="-0.5428690">
        <ele>1206.4</ele>
        <time>2023-01-14T13:33:53Z</time>
      </trkpt>
      <trkpt lat="42.6857950" lon="-0.5428750">
        <ele>1206.2</ele>
        <time>2023-01-14T13:33:54Z</time>
      </trkpt>
      <trkpt lat="42.6857940" lon="-0.5428770">
        <ele>1206.2</ele>
        <time>2023-01-14T13:33:55Z</time>
      </trkpt>
      <trkpt lat="42.6857930" lon="-0.5428770">
        <ele>1206.2</ele>
        <time>2023-01-14T13:33:56Z</time>
      </trkpt>
      <trkpt lat="42.6857920" lon="-0.5428770">
        <ele>1206.4</ele>
        <time>2023-01-14T13:33:57Z</time>
      </trkpt>
      <trkpt lat="42.6857910" lon="-0.5428780">
        <ele>1206.4</ele>
        <time>2023-01-14T13:33:58Z</time>
      </trkpt>
      <trkpt lat="42.6857910" lon="-0.5428790">
        <ele>1206.4</ele>
        <time>2023-01-14T13:33:59Z</time>
      </trkpt>
      <trkpt lat="42.6857910" lon="-0.5428790">
        <ele>1206.4</ele>
        <time>2023-01-14T13:34:00Z</time>
      </trkpt>
      <trkpt lat="42.6857900" lon="-0.5428790">
        <ele>1206.2</ele>
        <time>2023-01-14T13:34:01Z</time>
      </trkpt>
      <trkpt lat="42.6857900" lon="-0.5428790">
        <ele>1206.0</ele>
        <time>2023-01-14T13:34:02Z</time>
      </trkpt>
      <trkpt lat="42.6857900" lon="-0.5428790">
        <ele>1206.0</ele>
        <time>2023-01-14T13:34:03Z</time>
      </trkpt>
      <trkpt lat="42.6857900" lon="-0.5428790">
        <ele>1206.0</ele>
        <time>2023-01-14T13:34:04Z</time>
      </trkpt>
      <trkpt lat="42.6857900" lon="-0.5428790">
        <ele>1205.8</ele>
        <time>2023-01-14T13:34:05Z</time>
      </trkpt>
      <trkpt lat="42.6857900" lon="-0.5428790">
        <ele>1205.8</ele>
        <time>2023-01-14T13:34:06Z</time>
      </trkpt>
      <trkpt lat="42.6857890" lon="-0.5428790">
        <ele>1205.8</ele>
        <time>2023-01-14T13:34:07Z</time>
      </trkpt>
      <trkpt lat="42.6857900" lon="-0.5428790">
        <ele>1205.8</ele>
        <time>2023-01-14T13:34:08Z</time>
      </trkpt>
      <trkpt lat="42.6857900" lon="-0.5428790">
        <ele>1206.0</ele>
        <time>2023-01-14T13:34:09Z</time>
      </trkpt>
      <trkpt lat="42.6857900" lon="-0.5428790">
        <ele>1205.8</ele>
        <time>2023-01-14T13:34:10Z</time>
      </trkpt>
      <trkpt lat="42.6857900" lon="-0.5428790">
        <ele>1206.0</ele>
        <time>2023-01-14T13:34:11Z</time>
      </trkpt>
      <trkpt lat="42.6857890" lon="-0.5428790">
        <ele>1206.0</ele>
        <time>2023-01-14T13:34:12Z</time>
      </trkpt>
      <trkpt lat="42.6857890" lon="-0.5428790">
        <ele>1206.2</ele>
        <time>2023-01-14T13:34:13Z</time>
      </trkpt>
      <trkpt lat="42.6857890" lon="-0.5428790">
        <ele>1206.2</ele>
        <time>2023-01-14T13:34:14Z</time>
      </trkpt>
      <trkpt lat="42.6857880" lon="-0.5428790">
        <ele>1206.2</ele>
        <time>2023-01-14T13:34:15Z</time>
      </trkpt>
      <trkpt lat="42.6857880" lon="-0.5428780">
        <ele>1206.4</ele>
        <time>2023-01-14T13:34:16Z</time>
      </trkpt>
      <trkpt lat="42.6857880" lon="-0.5428790">
        <ele>1206.6</ele>
        <time>2023-01-14T13:34:17Z</time>
      </trkpt>
      <trkpt lat="42.6857880" lon="-0.5428790">
        <ele>1206.6</ele>
        <time>2023-01-14T13:34:18Z</time>
      </trkpt>
      <trkpt lat="42.6857880" lon="-0.5428790">
        <ele>1206.6</ele>
        <time>2023-01-14T13:34:19Z</time>
      </trkpt>
      <trkpt lat="42.6857880" lon="-0.5428800">
        <ele>1206.6</ele>
        <time>2023-01-14T13:34:20Z</time>
      </trkpt>
      <trkpt lat="42.6857870" lon="-0.5428800">
        <ele>1206.6</ele>
        <time>2023-01-14T13:34:21Z</time>
      </trkpt>
      <trkpt lat="42.6857870" lon="-0.5428800">
        <ele>1206.6</ele>
        <time>2023-01-14T13:34:22Z</time>
      </trkpt>
      <trkpt lat="42.6857870" lon="-0.5428800">
        <ele>1206.8</ele>
        <time>2023-01-14T13:34:23Z</time>
      </trkpt>
      <trkpt lat="42.6857870" lon="-0.5428800">
        <ele>1206.8</ele>
        <time>2023-01-14T13:34:24Z</time>
      </trkpt>
      <trkpt lat="42.6857870" lon="-0.5428800">
        <ele>1206.6</ele>
        <time>2023-01-14T13:34:25Z</time>
      </trkpt>
      <trkpt lat="42.6857860" lon="-0.5428790">
        <ele>1206.4</ele>
        <time>2023-01-14T13:34:26Z</time>
      </trkpt>
      <trkpt lat="42.6857860" lon="-0.5428790">
        <ele>1206.4</ele>
        <time>2023-01-14T13:34:27Z</time>
      </trkpt>
      <trkpt lat="42.6857860" lon="-0.5428790">
        <ele>1206.4</ele>
        <time>2023-01-14T13:34:28Z</time>
      </trkpt>
      <trkpt lat="42.6857850" lon="-0.5428780">
        <ele>1206.4</ele>
        <time>2023-01-14T13:34:29Z</time>
      </trkpt>
      <trkpt lat="42.6857850" lon="-0.5428780">
        <ele>1206.2</ele>
        <time>2023-01-14T13:34:30Z</time>
      </trkpt>
      <trkpt lat="42.6857840" lon="-0.5428780">
        <ele>1206.2</ele>
        <time>2023-01-14T13:34:31Z</time>
      </trkpt>
      <trkpt lat="42.6857840" lon="-0.5428780">
        <ele>1206.2</ele>
        <time>2023-01-14T13:34:32Z</time>
      </trkpt>
      <trkpt lat="42.6857830" lon="-0.5428780">
        <ele>1206.2</ele>
        <time>2023-01-14T13:34:33Z</time>
      </trkpt>
      <trkpt lat="42.6857830" lon="-0.5428780">
        <ele>1206.2</ele>
        <time>2023-01-14T13:34:34Z</time>
      </trkpt>
      <trkpt lat="42.6857820" lon="-0.5428780">
        <ele>1206.2</ele>
        <time>2023-01-14T13:34:35Z</time>
      </trkpt>
      <trkpt lat="42.6857820" lon="-0.5428790">
        <ele>1206.2</ele>
        <time>2023-01-14T13:34:36Z</time>
      </trkpt>
      <trkpt lat="42.6857820" lon="-0.5428790">
        <ele>1206.0</ele>
        <time>2023-01-14T13:34:37Z</time>
      </trkpt>
      <trkpt lat="42.6857820" lon="-0.5428800">
        <ele>1206.2</ele>
        <time>2023-01-14T13:34:38Z</time>
      </trkpt>
      <trkpt lat="42.6857820" lon="-0.5428810">
        <ele>1206.2</ele>
        <time>2023-01-14T13:34:39Z</time>
      </trkpt>
      <trkpt lat="42.6857820" lon="-0.5428810">
        <ele>1206.2</ele>
        <time>2023-01-14T13:34:40Z</time>
      </trkpt>
      <trkpt lat="42.6857810" lon="-0.5428810">
        <ele>1206.2</ele>
        <time>2023-01-14T13:34:41Z</time>
      </trkpt>
      <trkpt lat="42.6857800" lon="-0.5428820">
        <ele>1206.0</ele>
        <time>2023-01-14T13:34:42Z</time>
      </trkpt>
      <trkpt lat="42.6857800" lon="-0.5428820">
        <ele>1206.0</ele>
        <time>2023-01-14T13:34:43Z</time>
      </trkpt>
      <trkpt lat="42.6857790" lon="-0.5428820">
        <ele>1206.2</ele>
        <time>2023-01-14T13:34:44Z</time>
      </trkpt>
      <trkpt lat="42.6857790" lon="-0.5428820">
        <ele>1206.2</ele>
        <time>2023-01-14T13:34:45Z</time>
      </trkpt>
      <trkpt lat="42.6857790" lon="-0.5428830">
        <ele>1206.0</ele>
        <time>2023-01-14T13:34:46Z</time>
      </trkpt>
      <trkpt lat="42.6857790" lon="-0.5428830">
        <ele>1206.2</ele>
        <time>2023-01-14T13:34:47Z</time>
      </trkpt>
      <trkpt lat="42.6857780" lon="-0.5428830">
        <ele>1206.2</ele>
        <time>2023-01-14T13:34:48Z</time>
      </trkpt>
      <trkpt lat="42.6857780" lon="-0.5428830">
        <ele>1206.2</ele>
        <time>2023-01-14T13:34:49Z</time>
      </trkpt>
      <trkpt lat="42.6857780" lon="-0.5428830">
        <ele>1206.2</ele>
        <time>2023-01-14T13:34:50Z</time>
      </trkpt>
      <trkpt lat="42.6857780" lon="-0.5428840">
        <ele>1206.4</ele>
        <time>2023-01-14T13:34:51Z</time>
      </trkpt>
      <trkpt lat="42.6857790" lon="-0.5428840">
        <ele>1206.4</ele>
        <time>2023-01-14T13:34:52Z</time>
      </trkpt>
      <trkpt lat="42.6857790" lon="-0.5428850">
        <ele>1206.4</ele>
        <time>2023-01-14T13:34:53Z</time>
      </trkpt>
      <trkpt lat="42.6857780" lon="-0.5428840">
        <ele>1206.4</ele>
        <time>2023-01-14T13:34:54Z</time>
      </trkpt>
      <trkpt lat="42.6857780" lon="-0.5428850">
        <ele>1206.4</ele>
        <time>2023-01-14T13:34:55Z</time>
      </trkpt>
      <trkpt lat="42.6857780" lon="-0.5428850">
        <ele>1206.4</ele>
        <time>2023-01-14T13:34:56Z</time>
      </trkpt>
      <trkpt lat="42.6857780" lon="-0.5428850">
        <ele>1206.4</ele>
        <time>2023-01-14T13:34:57Z</time>
      </trkpt>
      <trkpt lat="42.6857780" lon="-0.5428850">
        <ele>1206.4</ele>
        <time>2023-01-14T13:34:58Z</time>
      </trkpt>
      <trkpt lat="42.6857780" lon="-0.5428850">
        <ele>1206.4</ele>
        <time>2023-01-14T13:34:59Z</time>
      </trkpt>
      <trkpt lat="42.6857780" lon="-0.5428850">
        <ele>1206.4</ele>
        <time>2023-01-14T13:35:00Z</time>
      </trkpt>
      <trkpt lat="42.6857780" lon="-0.5428850">
        <ele>1206.4</ele>
        <time>2023-01-14T13:35:01Z</time>
      </trkpt>
      <trkpt lat="42.6857780" lon="-0.5428850">
        <ele>1206.4</ele>
        <time>2023-01-14T13:35:02Z</time>
      </trkpt>
      <trkpt lat="42.6857780" lon="-0.5428850">
        <ele>1206.4</ele>
        <time>2023-01-14T13:35:03Z</time>
      </trkpt>
      <trkpt lat="42.6857780" lon="-0.5428850">
        <ele>1206.4</ele>
        <time>2023-01-14T13:35:04Z</time>
      </trkpt>
      <trkpt lat="42.6857780" lon="-0.5428850">
        <ele>1206.4</ele>
        <time>2023-01-14T13:35:05Z</time>
      </trkpt>
      <trkpt lat="42.6857780" lon="-0.5428860">
        <ele>1206.4</ele>
        <time>2023-01-14T13:35:06Z</time>
      </trkpt>
      <trkpt lat="42.6857780" lon="-0.5428860">
        <ele>1206.4</ele>
        <time>2023-01-14T13:35:07Z</time>
      </trkpt>
      <trkpt lat="42.6857780" lon="-0.5428860">
        <ele>1206.4</ele>
        <time>2023-01-14T13:35:08Z</time>
      </trkpt>
      <trkpt lat="42.6857780" lon="-0.5428860">
        <ele>1206.4</ele>
        <time>2023-01-14T13:35:09Z</time>
      </trkpt>
      <trkpt lat="42.6857780" lon="-0.5428860">
        <ele>1206.4</ele>
        <time>2023-01-14T13:35:10Z</time>
      </trkpt>
      <trkpt lat="42.6857780" lon="-0.5428860">
        <ele>1206.4</ele>
        <time>2023-01-14T13:35:11Z</time>
      </trkpt>
      <trkpt lat="42.6857780" lon="-0.5428870">
        <ele>1206.4</ele>
        <time>2023-01-14T13:35:12Z</time>
      </trkpt>
      <trkpt lat="42.6857780" lon="-0.5428870">
        <ele>1206.4</ele>
        <time>2023-01-14T13:35:13Z</time>
      </trkpt>
      <trkpt lat="42.6857780" lon="-0.5428870">
        <ele>1206.4</ele>
        <time>2023-01-14T13:35:14Z</time>
      </trkpt>
      <trkpt lat="42.6857770" lon="-0.5428870">
        <ele>1206.4</ele>
        <time>2023-01-14T13:35:15Z</time>
      </trkpt>
      <trkpt lat="42.6857770" lon="-0.5428870">
        <ele>1206.4</ele>
        <time>2023-01-14T13:35:16Z</time>
      </trkpt>
      <trkpt lat="42.6857770" lon="-0.5428870">
        <ele>1206.4</ele>
        <time>2023-01-14T13:35:17Z</time>
      </trkpt>
      <trkpt lat="42.6857770" lon="-0.5428870">
        <ele>1206.4</ele>
        <time>2023-01-14T13:35:18Z</time>
      </trkpt>
      <trkpt lat="42.6857770" lon="-0.5428870">
        <ele>1206.4</ele>
        <time>2023-01-14T13:35:19Z</time>
      </trkpt>
      <trkpt lat="42.6857770" lon="-0.5428880">
        <ele>1206.4</ele>
        <time>2023-01-14T13:35:20Z</time>
      </trkpt>
      <trkpt lat="42.6857760" lon="-0.5428880">
        <ele>1206.4</ele>
        <time>2023-01-14T13:35:21Z</time>
      </trkpt>
      <trkpt lat="42.6857760" lon="-0.5428880">
        <ele>1206.4</ele>
        <time>2023-01-14T13:35:22Z</time>
      </trkpt>
      <trkpt lat="42.6857760" lon="-0.5428890">
        <ele>1206.4</ele>
        <time>2023-01-14T13:35:23Z</time>
      </trkpt>
      <trkpt lat="42.6857760" lon="-0.5428890">
        <ele>1206.4</ele>
        <time>2023-01-14T13:35:24Z</time>
      </trkpt>
      <trkpt lat="42.6857760" lon="-0.5428890">
        <ele>1206.4</ele>
        <time>2023-01-14T13:35:25Z</time>
      </trkpt>
      <trkpt lat="42.6857760" lon="-0.5428890">
        <ele>1206.4</ele>
        <time>2023-01-14T13:35:26Z</time>
      </trkpt>
      <trkpt lat="42.6857750" lon="-0.5428890">
        <ele>1206.4</ele>
        <time>2023-01-14T13:35:27Z</time>
      </trkpt>
      <trkpt lat="42.6857750" lon="-0.5428890">
        <ele>1206.4</ele>
        <time>2023-01-14T13:35:28Z</time>
      </trkpt>
      <trkpt lat="42.6857750" lon="-0.5428890">
        <ele>1206.4</ele>
        <time>2023-01-14T13:35:29Z</time>
      </trkpt>
      <trkpt lat="42.6857750" lon="-0.5428900">
        <ele>1206.4</ele>
        <time>2023-01-14T13:35:30Z</time>
      </trkpt>
      <trkpt lat="42.6857750" lon="-0.5428900">
        <ele>1206.4</ele>
        <time>2023-01-14T13:35:31Z</time>
      </trkpt>
      <trkpt lat="42.6857750" lon="-0.5428900">
        <ele>1206.4</ele>
        <time>2023-01-14T13:35:32Z</time>
      </trkpt>
      <trkpt lat="42.6857750" lon="-0.5428890">
        <ele>1206.4</ele>
        <time>2023-01-14T13:35:33Z</time>
      </trkpt>
      <trkpt lat="42.6857750" lon="-0.5428890">
        <ele>1206.4</ele>
        <time>2023-01-14T13:35:34Z</time>
      </trkpt>
      <trkpt lat="42.6857750" lon="-0.5428890">
        <ele>1206.4</ele>
        <time>2023-01-14T13:35:35Z</time>
      </trkpt>
      <trkpt lat="42.6857760" lon="-0.5428890">
        <ele>1206.4</ele>
        <time>2023-01-14T13:35:36Z</time>
      </trkpt>
      <trkpt lat="42.6857760" lon="-0.5428890">
        <ele>1206.4</ele>
        <time>2023-01-14T13:35:37Z</time>
      </trkpt>
      <trkpt lat="42.6857760" lon="-0.5428900">
        <ele>1206.4</ele>
        <time>2023-01-14T13:35:38Z</time>
      </trkpt>
      <trkpt lat="42.6857760" lon="-0.5428900">
        <ele>1206.4</ele>
        <time>2023-01-14T13:35:39Z</time>
      </trkpt>
      <trkpt lat="42.6857760" lon="-0.5428900">
        <ele>1206.4</ele>
        <time>2023-01-14T13:35:40Z</time>
      </trkpt>
      <trkpt lat="42.6857760" lon="-0.5428900">
        <ele>1206.4</ele>
        <time>2023-01-14T13:35:41Z</time>
      </trkpt>
      <trkpt lat="42.6857760" lon="-0.5428900">
        <ele>1206.4</ele>
        <time>2023-01-14T13:35:42Z</time>
      </trkpt>
      <trkpt lat="42.6857770" lon="-0.5428900">
        <ele>1206.4</ele>
        <time>2023-01-14T13:35:43Z</time>
      </trkpt>
      <trkpt lat="42.6857770" lon="-0.5428910">
        <ele>1206.4</ele>
        <time>2023-01-14T13:35:44Z</time>
      </trkpt>
      <trkpt lat="42.6857770" lon="-0.5428910">
        <ele>1206.4</ele>
        <time>2023-01-14T13:35:45Z</time>
      </trkpt>
      <trkpt lat="42.6857770" lon="-0.5428910">
        <ele>1206.4</ele>
        <time>2023-01-14T13:35:46Z</time>
      </trkpt>
      <trkpt lat="42.6857770" lon="-0.5428910">
        <ele>1206.4</ele>
        <time>2023-01-14T13:35:47Z</time>
      </trkpt>
      <trkpt lat="42.6857770" lon="-0.5428910">
        <ele>1206.4</ele>
        <time>2023-01-14T13:35:48Z</time>
      </trkpt>
      <trkpt lat="42.6857770" lon="-0.5428920">
        <ele>1206.4</ele>
        <time>2023-01-14T13:35:49Z</time>
      </trkpt>
      <trkpt lat="42.6857770" lon="-0.5428920">
        <ele>1206.4</ele>
        <time>2023-01-14T13:35:50Z</time>
      </trkpt>
      <trkpt lat="42.6857780" lon="-0.5428920">
        <ele>1206.4</ele>
        <time>2023-01-14T13:35:51Z</time>
      </trkpt>
      <trkpt lat="42.6857770" lon="-0.5428920">
        <ele>1206.4</ele>
        <time>2023-01-14T13:35:52Z</time>
      </trkpt>
      <trkpt lat="42.6857780" lon="-0.5428920">
        <ele>1206.4</ele>
        <time>2023-01-14T13:35:53Z</time>
      </trkpt>
      <trkpt lat="42.6857780" lon="-0.5428920">
        <ele>1206.4</ele>
        <time>2023-01-14T13:35:54Z</time>
      </trkpt>
      <trkpt lat="42.6857780" lon="-0.5428920">
        <ele>1206.4</ele>
        <time>2023-01-14T13:35:55Z</time>
      </trkpt>
      <trkpt lat="42.6857780" lon="-0.5428920">
        <ele>1206.4</ele>
        <time>2023-01-14T13:35:56Z</time>
      </trkpt>
      <trkpt lat="42.6857790" lon="-0.5428920">
        <ele>1206.4</ele>
        <time>2023-01-14T13:35:57Z</time>
      </trkpt>
      <trkpt lat="42.6857790" lon="-0.5428920">
        <ele>1206.4</ele>
        <time>2023-01-14T13:35:58Z</time>
      </trkpt>
      <trkpt lat="42.6857790" lon="-0.5428920">
        <ele>1206.4</ele>
        <time>2023-01-14T13:35:59Z</time>
      </trkpt>
      <trkpt lat="42.6857790" lon="-0.5428920">
        <ele>1206.4</ele>
        <time>2023-01-14T13:36:00Z</time>
      </trkpt>
      <trkpt lat="42.6857790" lon="-0.5428920">
        <ele>1206.4</ele>
        <time>2023-01-14T13:36:01Z</time>
      </trkpt>
      <trkpt lat="42.6857790" lon="-0.5428920">
        <ele>1206.4</ele>
        <time>2023-01-14T13:36:02Z</time>
      </trkpt>
      <trkpt lat="42.6857790" lon="-0.5428920">
        <ele>1206.4</ele>
        <time>2023-01-14T13:36:03Z</time>
      </trkpt>
      <trkpt lat="42.6857790" lon="-0.5428920">
        <ele>1206.4</ele>
        <time>2023-01-14T13:36:04Z</time>
      </trkpt>
      <trkpt lat="42.6857790" lon="-0.5428920">
        <ele>1206.4</ele>
        <time>2023-01-14T13:36:05Z</time>
      </trkpt>
      <trkpt lat="42.6857790" lon="-0.5428920">
        <ele>1206.4</ele>
        <time>2023-01-14T13:36:06Z</time>
      </trkpt>
      <trkpt lat="42.6857790" lon="-0.5428920">
        <ele>1206.4</ele>
        <time>2023-01-14T13:36:07Z</time>
      </trkpt>
      <trkpt lat="42.6857790" lon="-0.5428920">
        <ele>1206.4</ele>
        <time>2023-01-14T13:36:08Z</time>
      </trkpt>
      <trkpt lat="42.6857790" lon="-0.5428920">
        <ele>1206.4</ele>
        <time>2023-01-14T13:36:09Z</time>
      </trkpt>
      <trkpt lat="42.6857780" lon="-0.5428920">
        <ele>1206.4</ele>
        <time>2023-01-14T13:36:10Z</time>
      </trkpt>
      <trkpt lat="42.6857790" lon="-0.5428920">
        <ele>1206.4</ele>
        <time>2023-01-14T13:36:11Z</time>
      </trkpt>
      <trkpt lat="42.6857780" lon="-0.5428910">
        <ele>1206.4</ele>
        <time>2023-01-14T13:36:12Z</time>
      </trkpt>
      <trkpt lat="42.6857780" lon="-0.5428910">
        <ele>1206.4</ele>
        <time>2023-01-14T13:36:13Z</time>
      </trkpt>
      <trkpt lat="42.6857780" lon="-0.5428910">
        <ele>1206.4</ele>
        <time>2023-01-14T13:36:14Z</time>
      </trkpt>
      <trkpt lat="42.6857780" lon="-0.5428900">
        <ele>1206.4</ele>
        <time>2023-01-14T13:36:15Z</time>
      </trkpt>
      <trkpt lat="42.6857780" lon="-0.5428900">
        <ele>1206.4</ele>
        <time>2023-01-14T13:36:16Z</time>
      </trkpt>
      <trkpt lat="42.6857780" lon="-0.5428900">
        <ele>1206.4</ele>
        <time>2023-01-14T13:36:17Z</time>
      </trkpt>
      <trkpt lat="42.6857780" lon="-0.5428890">
        <ele>1206.4</ele>
        <time>2023-01-14T13:36:18Z</time>
      </trkpt>
      <trkpt lat="42.6857780" lon="-0.5428890">
        <ele>1206.4</ele>
        <time>2023-01-14T13:36:19Z</time>
      </trkpt>
      <trkpt lat="42.6857780" lon="-0.5428890">
        <ele>1206.4</ele>
        <time>2023-01-14T13:36:20Z</time>
      </trkpt>
      <trkpt lat="42.6857780" lon="-0.5428880">
        <ele>1206.4</ele>
        <time>2023-01-14T13:36:21Z</time>
      </trkpt>
      <trkpt lat="42.6857780" lon="-0.5428880">
        <ele>1206.4</ele>
        <time>2023-01-14T13:36:22Z</time>
      </trkpt>
      <trkpt lat="42.6857780" lon="-0.5428870">
        <ele>1206.4</ele>
        <time>2023-01-14T13:36:23Z</time>
      </trkpt>
      <trkpt lat="42.6857770" lon="-0.5428870">
        <ele>1206.4</ele>
        <time>2023-01-14T13:36:24Z</time>
      </trkpt>
      <trkpt lat="42.6857770" lon="-0.5428860">
        <ele>1206.4</ele>
        <time>2023-01-14T13:36:25Z</time>
      </trkpt>
      <trkpt lat="42.6857770" lon="-0.5428860">
        <ele>1206.4</ele>
        <time>2023-01-14T13:36:26Z</time>
      </trkpt>
      <trkpt lat="42.6857770" lon="-0.5428860">
        <ele>1206.4</ele>
        <time>2023-01-14T13:36:27Z</time>
      </trkpt>
      <trkpt lat="42.6857770" lon="-0.5428850">
        <ele>1206.4</ele>
        <time>2023-01-14T13:36:28Z</time>
      </trkpt>
      <trkpt lat="42.6857770" lon="-0.5428850">
        <ele>1206.4</ele>
        <time>2023-01-14T13:36:29Z</time>
      </trkpt>
      <trkpt lat="42.6857770" lon="-0.5428840">
        <ele>1206.4</ele>
        <time>2023-01-14T13:36:30Z</time>
      </trkpt>
      <trkpt lat="42.6857770" lon="-0.5428840">
        <ele>1206.4</ele>
        <time>2023-01-14T13:36:31Z</time>
      </trkpt>
      <trkpt lat="42.6857770" lon="-0.5428840">
        <ele>1206.4</ele>
        <time>2023-01-14T13:36:32Z</time>
      </trkpt>
      <trkpt lat="42.6857770" lon="-0.5428830">
        <ele>1206.4</ele>
        <time>2023-01-14T13:36:33Z</time>
      </trkpt>
      <trkpt lat="42.6857760" lon="-0.5428810">
        <ele>1206.4</ele>
        <time>2023-01-14T13:36:34Z</time>
      </trkpt>
      <trkpt lat="42.6857750" lon="-0.5428800">
        <ele>1206.4</ele>
        <time>2023-01-14T13:36:35Z</time>
      </trkpt>
      <trkpt lat="42.6857740" lon="-0.5428780">
        <ele>1206.4</ele>
        <time>2023-01-14T13:36:36Z</time>
      </trkpt>
      <trkpt lat="42.6857740" lon="-0.5428780">
        <ele>1206.4</ele>
        <time>2023-01-14T13:36:37Z</time>
      </trkpt>
      <trkpt lat="42.6857740" lon="-0.5428780">
        <ele>1206.4</ele>
        <time>2023-01-14T13:36:38Z</time>
      </trkpt>
      <trkpt lat="42.6857750" lon="-0.5428780">
        <ele>1206.4</ele>
        <time>2023-01-14T13:36:39Z</time>
      </trkpt>
      <trkpt lat="42.6857710" lon="-0.5428830">
        <ele>1206.4</ele>
        <time>2023-01-14T13:36:40Z</time>
      </trkpt>
      <trkpt lat="42.6857640" lon="-0.5428890">
        <ele>1206.4</ele>
        <time>2023-01-14T13:36:41Z</time>
      </trkpt>
      <trkpt lat="42.6857530" lon="-0.5428910">
        <ele>1206.4</ele>
        <time>2023-01-14T13:36:42Z</time>
      </trkpt>
      <trkpt lat="42.6857310" lon="-0.5428860">
        <ele>1206.4</ele>
        <time>2023-01-14T13:36:43Z</time>
      </trkpt>
      <trkpt lat="42.6857070" lon="-0.5428730">
        <ele>1206.4</ele>
        <time>2023-01-14T13:36:44Z</time>
      </trkpt>
      <trkpt lat="42.6856910" lon="-0.5428420">
        <ele>1206.4</ele>
        <time>2023-01-14T13:36:45Z</time>
      </trkpt>
      <trkpt lat="42.6856950" lon="-0.5428060">
        <ele>1206.4</ele>
        <time>2023-01-14T13:36:46Z</time>
      </trkpt>
      <trkpt lat="42.6857190" lon="-0.5427650">
        <ele>1206.4</ele>
        <time>2023-01-14T13:36:47Z</time>
      </trkpt>
      <trkpt lat="42.6857440" lon="-0.5427230">
        <ele>1206.4</ele>
        <time>2023-01-14T13:36:48Z</time>
      </trkpt>
      <trkpt lat="42.6857710" lon="-0.5426790">
        <ele>1206.4</ele>
        <time>2023-01-14T13:36:49Z</time>
      </trkpt>
      <trkpt lat="42.6858110" lon="-0.5426300">
        <ele>1205.8</ele>
        <time>2023-01-14T13:36:50Z</time>
      </trkpt>
      <trkpt lat="42.6858590" lon="-0.5425760">
        <ele>1204.8</ele>
        <time>2023-01-14T13:36:51Z</time>
      </trkpt>
      <trkpt lat="42.6859090" lon="-0.5425210">
        <ele>1204.0</ele>
        <time>2023-01-14T13:36:52Z</time>
      </trkpt>
      <trkpt lat="42.6859550" lon="-0.5424730">
        <ele>1203.0</ele>
        <time>2023-01-14T13:36:53Z</time>
      </trkpt>
      <trkpt lat="42.6859960" lon="-0.5424310">
        <ele>1202.0</ele>
        <time>2023-01-14T13:36:54Z</time>
      </trkpt>
      <trkpt lat="42.6860340" lon="-0.5423820">
        <ele>1201.0</ele>
        <time>2023-01-14T13:36:55Z</time>
      </trkpt>
      <trkpt lat="42.6860770" lon="-0.5423430">
        <ele>1200.2</ele>
        <time>2023-01-14T13:36:56Z</time>
      </trkpt>
      <trkpt lat="42.6861250" lon="-0.5423100">
        <ele>1199.8</ele>
        <time>2023-01-14T13:36:57Z</time>
      </trkpt>
      <trkpt lat="42.6861680" lon="-0.5422660">
        <ele>1198.0</ele>
        <time>2023-01-14T13:36:58Z</time>
      </trkpt>
      <trkpt lat="42.6862110" lon="-0.5422170">
        <ele>1196.6</ele>
        <time>2023-01-14T13:36:59Z</time>
      </trkpt>
      <trkpt lat="42.6862620" lon="-0.5421750">
        <ele>1195.8</ele>
        <time>2023-01-14T13:37:00Z</time>
      </trkpt>
      <trkpt lat="42.6863220" lon="-0.5421420">
        <ele>1194.4</ele>
        <time>2023-01-14T13:37:01Z</time>
      </trkpt>
      <trkpt lat="42.6863750" lon="-0.5421120">
        <ele>1193.4</ele>
        <time>2023-01-14T13:37:02Z</time>
      </trkpt>
      <trkpt lat="42.6864170" lon="-0.5420710">
        <ele>1192.6</ele>
        <time>2023-01-14T13:37:03Z</time>
      </trkpt>
      <trkpt lat="42.6864640" lon="-0.5420340">
        <ele>1191.2</ele>
        <time>2023-01-14T13:37:04Z</time>
      </trkpt>
      <trkpt lat="42.6865000" lon="-0.5420220">
        <ele>1189.8</ele>
        <time>2023-01-14T13:37:05Z</time>
      </trkpt>
      <trkpt lat="42.6865190" lon="-0.5420200">
        <ele>1189.0</ele>
        <time>2023-01-14T13:37:06Z</time>
      </trkpt>
      <trkpt lat="42.6865270" lon="-0.5420160">
        <ele>1187.8</ele>
        <time>2023-01-14T13:37:07Z</time>
      </trkpt>
      <trkpt lat="42.6865260" lon="-0.5420130">
        <ele>1187.2</ele>
        <time>2023-01-14T13:37:08Z</time>
      </trkpt>
      <trkpt lat="42.6865220" lon="-0.5420060">
        <ele>1186.8</ele>
        <time>2023-01-14T13:37:09Z</time>
      </trkpt>
      <trkpt lat="42.6865190" lon="-0.5419980">
        <ele>1186.4</ele>
        <time>2023-01-14T13:37:10Z</time>
      </trkpt>
      <trkpt lat="42.6865130" lon="-0.5419960">
        <ele>1186.2</ele>
        <time>2023-01-14T13:37:11Z</time>
      </trkpt>
      <trkpt lat="42.6865080" lon="-0.5419970">
        <ele>1186.2</ele>
        <time>2023-01-14T13:37:12Z</time>
      </trkpt>
      <trkpt lat="42.6865020" lon="-0.5419960">
        <ele>1186.2</ele>
        <time>2023-01-14T13:37:13Z</time>
      </trkpt>
      <trkpt lat="42.6865010" lon="-0.5419960">
        <ele>1186.2</ele>
        <time>2023-01-14T13:37:14Z</time>
      </trkpt>
      <trkpt lat="42.6864980" lon="-0.5419970">
        <ele>1186.2</ele>
        <time>2023-01-14T13:37:15Z</time>
      </trkpt>
      <trkpt lat="42.6864970" lon="-0.5419990">
        <ele>1186.0</ele>
        <time>2023-01-14T13:37:16Z</time>
      </trkpt>
      <trkpt lat="42.6864950" lon="-0.5419990">
        <ele>1186.2</ele>
        <time>2023-01-14T13:37:17Z</time>
      </trkpt>
      <trkpt lat="42.6864970" lon="-0.5419990">
        <ele>1186.2</ele>
        <time>2023-01-14T13:37:18Z</time>
      </trkpt>
      <trkpt lat="42.6864960" lon="-0.5419990">
        <ele>1186.2</ele>
        <time>2023-01-14T13:37:19Z</time>
      </trkpt>
      <trkpt lat="42.6864940" lon="-0.5420000">
        <ele>1186.6</ele>
        <time>2023-01-14T13:37:20Z</time>
      </trkpt>
      <trkpt lat="42.6864930" lon="-0.5420000">
        <ele>1186.4</ele>
        <time>2023-01-14T13:37:21Z</time>
      </trkpt>
      <trkpt lat="42.6864940" lon="-0.5419990">
        <ele>1186.4</ele>
        <time>2023-01-14T13:37:22Z</time>
      </trkpt>
      <trkpt lat="42.6864940" lon="-0.5420050">
        <ele>1186.4</ele>
        <time>2023-01-14T13:37:23Z</time>
      </trkpt>
      <trkpt lat="42.6864900" lon="-0.5420190">
        <ele>1186.8</ele>
        <time>2023-01-14T13:37:24Z</time>
      </trkpt>
      <trkpt lat="42.6864840" lon="-0.5420330">
        <ele>1187.0</ele>
        <time>2023-01-14T13:37:25Z</time>
      </trkpt>
      <trkpt lat="42.6864770" lon="-0.5420420">
        <ele>1187.2</ele>
        <time>2023-01-14T13:37:26Z</time>
      </trkpt>
      <trkpt lat="42.6864730" lon="-0.5420520">
        <ele>1187.2</ele>
        <time>2023-01-14T13:37:27Z</time>
      </trkpt>
      <trkpt lat="42.6864680" lon="-0.5420610">
        <ele>1187.4</ele>
        <time>2023-01-14T13:37:28Z</time>
      </trkpt>
      <trkpt lat="42.6864610" lon="-0.5420690">
        <ele>1187.6</ele>
        <time>2023-01-14T13:37:29Z</time>
      </trkpt>
      <trkpt lat="42.6864530" lon="-0.5420780">
        <ele>1188.0</ele>
        <time>2023-01-14T13:37:30Z</time>
      </trkpt>
      <trkpt lat="42.6864370" lon="-0.5420910">
        <ele>1188.4</ele>
        <time>2023-01-14T13:37:31Z</time>
      </trkpt>
      <trkpt lat="42.6864170" lon="-0.5420980">
        <ele>1188.6</ele>
        <time>2023-01-14T13:37:32Z</time>
      </trkpt>
      <trkpt lat="42.6864000" lon="-0.5420980">
        <ele>1188.8</ele>
        <time>2023-01-14T13:37:33Z</time>
      </trkpt>
      <trkpt lat="42.6864000" lon="-0.5420980">
        <ele>1189.2</ele>
        <time>2023-01-14T13:37:34Z</time>
      </trkpt>
      <trkpt lat="42.6863980" lon="-0.5420970">
        <ele>1189.2</ele>
        <time>2023-01-14T13:37:35Z</time>
      </trkpt>
      <trkpt lat="42.6863990" lon="-0.5421020">
        <ele>1189.2</ele>
        <time>2023-01-14T13:37:36Z</time>
      </trkpt>
      <trkpt lat="42.6863970" lon="-0.5421050">
        <ele>1189.4</ele>
        <time>2023-01-14T13:37:37Z</time>
      </trkpt>
      <trkpt lat="42.6863950" lon="-0.5421010">
        <ele>1189.2</ele>
        <time>2023-01-14T13:37:38Z</time>
      </trkpt>
      <trkpt lat="42.6863960" lon="-0.5421010">
        <ele>1189.4</ele>
        <time>2023-01-14T13:37:39Z</time>
      </trkpt>
      <trkpt lat="42.6864000" lon="-0.5420980">
        <ele>1189.4</ele>
        <time>2023-01-14T13:37:40Z</time>
      </trkpt>
      <trkpt lat="42.6864080" lon="-0.5420940">
        <ele>1189.4</ele>
        <time>2023-01-14T13:37:41Z</time>
      </trkpt>
      <trkpt lat="42.6864220" lon="-0.5420820">
        <ele>1189.4</ele>
        <time>2023-01-14T13:37:42Z</time>
      </trkpt>
      <trkpt lat="42.6864480" lon="-0.5420560">
        <ele>1189.6</ele>
        <time>2023-01-14T13:37:43Z</time>
      </trkpt>
      <trkpt lat="42.6864860" lon="-0.5420150">
        <ele>1189.6</ele>
        <time>2023-01-14T13:37:44Z</time>
      </trkpt>
      <trkpt lat="42.6865280" lon="-0.5419840">
        <ele>1189.6</ele>
        <time>2023-01-14T13:37:45Z</time>
      </trkpt>
      <trkpt lat="42.6865730" lon="-0.5419570">
        <ele>1188.8</ele>
        <time>2023-01-14T13:37:46Z</time>
      </trkpt>
      <trkpt lat="42.6866210" lon="-0.5419170">
        <ele>1187.8</ele>
        <time>2023-01-14T13:37:47Z</time>
      </trkpt>
      <trkpt lat="42.6866720" lon="-0.5418810">
        <ele>1187.2</ele>
        <time>2023-01-14T13:37:48Z</time>
      </trkpt>
      <trkpt lat="42.6867280" lon="-0.5418570">
        <ele>1186.4</ele>
        <time>2023-01-14T13:37:49Z</time>
      </trkpt>
      <trkpt lat="42.6867820" lon="-0.5418400">
        <ele>1185.2</ele>
        <time>2023-01-14T13:37:50Z</time>
      </trkpt>
      <trkpt lat="42.6868150" lon="-0.5418220">
        <ele>1184.4</ele>
        <time>2023-01-14T13:37:51Z</time>
      </trkpt>
      <trkpt lat="42.6868420" lon="-0.5417980">
        <ele>1184.0</ele>
        <time>2023-01-14T13:37:52Z</time>
      </trkpt>
      <trkpt lat="42.6868690" lon="-0.5417510">
        <ele>1183.6</ele>
        <time>2023-01-14T13:37:53Z</time>
      </trkpt>
      <trkpt lat="42.6869010" lon="-0.5416970">
        <ele>1183.2</ele>
        <time>2023-01-14T13:37:54Z</time>
      </trkpt>
      <trkpt lat="42.6869460" lon="-0.5416570">
        <ele>1182.0</ele>
        <time>2023-01-14T13:37:55Z</time>
      </trkpt>
      <trkpt lat="42.6869940" lon="-0.5416340">
        <ele>1180.6</ele>
        <time>2023-01-14T13:37:56Z</time>
      </trkpt>
      <trkpt lat="42.6870250" lon="-0.5416180">
        <ele>1180.0</ele>
        <time>2023-01-14T13:37:57Z</time>
      </trkpt>
      <trkpt lat="42.6870480" lon="-0.5416100">
        <ele>1179.6</ele>
        <time>2023-01-14T13:37:58Z</time>
      </trkpt>
      <trkpt lat="42.6870710" lon="-0.5416040">
        <ele>1179.4</ele>
        <time>2023-01-14T13:37:59Z</time>
      </trkpt>
      <trkpt lat="42.6870950" lon="-0.5415950">
        <ele>1179.2</ele>
        <time>2023-01-14T13:38:00Z</time>
      </trkpt>
      <trkpt lat="42.6871120" lon="-0.5415760">
        <ele>1179.2</ele>
        <time>2023-01-14T13:38:01Z</time>
      </trkpt>
      <trkpt lat="42.6871240" lon="-0.5415500">
        <ele>1179.2</ele>
        <time>2023-01-14T13:38:02Z</time>
      </trkpt>
      <trkpt lat="42.6871340" lon="-0.5415050">
        <ele>1179.2</ele>
        <time>2023-01-14T13:38:03Z</time>
      </trkpt>
      <trkpt lat="42.6871410" lon="-0.5414610">
        <ele>1178.8</ele>
        <time>2023-01-14T13:38:04Z</time>
      </trkpt>
      <trkpt lat="42.6871370" lon="-0.5414180">
        <ele>1177.6</ele>
        <time>2023-01-14T13:38:05Z</time>
      </trkpt>
      <trkpt lat="42.6871310" lon="-0.5413960">
        <ele>1176.4</ele>
        <time>2023-01-14T13:38:06Z</time>
      </trkpt>
      <trkpt lat="42.6871280" lon="-0.5413850">
        <ele>1175.8</ele>
        <time>2023-01-14T13:38:07Z</time>
      </trkpt>
      <trkpt lat="42.6871260" lon="-0.5413780">
        <ele>1175.4</ele>
        <time>2023-01-14T13:38:08Z</time>
      </trkpt>
      <trkpt lat="42.6871250" lon="-0.5413720">
        <ele>1175.0</ele>
        <time>2023-01-14T13:38:09Z</time>
      </trkpt>
      <trkpt lat="42.6871280" lon="-0.5413690">
        <ele>1174.8</ele>
        <time>2023-01-14T13:38:10Z</time>
      </trkpt>
      <trkpt lat="42.6871350" lon="-0.5413480">
        <ele>1174.6</ele>
        <time>2023-01-14T13:38:11Z</time>
      </trkpt>
      <trkpt lat="42.6871390" lon="-0.5413330">
        <ele>1174.4</ele>
        <time>2023-01-14T13:38:12Z</time>
      </trkpt>
      <trkpt lat="42.6871420" lon="-0.5413250">
        <ele>1174.4</ele>
        <time>2023-01-14T13:38:13Z</time>
      </trkpt>
      <trkpt lat="42.6871450" lon="-0.5413250">
        <ele>1174.2</ele>
        <time>2023-01-14T13:38:14Z</time>
      </trkpt>
      <trkpt lat="42.6871450" lon="-0.5413220">
        <ele>1174.0</ele>
        <time>2023-01-14T13:38:15Z</time>
      </trkpt>
      <trkpt lat="42.6871450" lon="-0.5413180">
        <ele>1174.0</ele>
        <time>2023-01-14T13:38:16Z</time>
      </trkpt>
      <trkpt lat="42.6871450" lon="-0.5413160">
        <ele>1174.0</ele>
        <time>2023-01-14T13:38:17Z</time>
      </trkpt>
      <trkpt lat="42.6871450" lon="-0.5413160">
        <ele>1174.0</ele>
        <time>2023-01-14T13:38:18Z</time>
      </trkpt>
      <trkpt lat="42.6871450" lon="-0.5413150">
        <ele>1174.2</ele>
        <time>2023-01-14T13:38:19Z</time>
      </trkpt>
      <trkpt lat="42.6871450" lon="-0.5413150">
        <ele>1174.2</ele>
        <time>2023-01-14T13:38:20Z</time>
      </trkpt>
      <trkpt lat="42.6871460" lon="-0.5413150">
        <ele>1174.2</ele>
        <time>2023-01-14T13:38:21Z</time>
      </trkpt>
      <trkpt lat="42.6871460" lon="-0.5413150">
        <ele>1174.2</ele>
        <time>2023-01-14T13:38:22Z</time>
      </trkpt>
      <trkpt lat="42.6871450" lon="-0.5413140">
        <ele>1174.2</ele>
        <time>2023-01-14T13:38:23Z</time>
      </trkpt>
      <trkpt lat="42.6871450" lon="-0.5413150">
        <ele>1174.2</ele>
        <time>2023-01-14T13:38:24Z</time>
      </trkpt>
      <trkpt lat="42.6871460" lon="-0.5413150">
        <ele>1174.2</ele>
        <time>2023-01-14T13:38:25Z</time>
      </trkpt>
      <trkpt lat="42.6871460" lon="-0.5413150">
        <ele>1174.2</ele>
        <time>2023-01-14T13:38:26Z</time>
      </trkpt>
      <trkpt lat="42.6871460" lon="-0.5413150">
        <ele>1174.2</ele>
        <time>2023-01-14T13:38:27Z</time>
      </trkpt>
      <trkpt lat="42.6871460" lon="-0.5413150">
        <ele>1174.2</ele>
        <time>2023-01-14T13:38:28Z</time>
      </trkpt>
      <trkpt lat="42.6871460" lon="-0.5413150">
        <ele>1174.2</ele>
        <time>2023-01-14T13:38:29Z</time>
      </trkpt>
      <trkpt lat="42.6871460" lon="-0.5413150">
        <ele>1174.2</ele>
        <time>2023-01-14T13:38:30Z</time>
      </trkpt>
      <trkpt lat="42.6871470" lon="-0.5413150">
        <ele>1174.2</ele>
        <time>2023-01-14T13:38:31Z</time>
      </trkpt>
      <trkpt lat="42.6871480" lon="-0.5413140">
        <ele>1174.2</ele>
        <time>2023-01-14T13:38:32Z</time>
      </trkpt>
      <trkpt lat="42.6871480" lon="-0.5413140">
        <ele>1174.2</ele>
        <time>2023-01-14T13:38:33Z</time>
      </trkpt>
      <trkpt lat="42.6871480" lon="-0.5413130">
        <ele>1174.2</ele>
        <time>2023-01-14T13:38:34Z</time>
      </trkpt>
      <trkpt lat="42.6871490" lon="-0.5413130">
        <ele>1174.2</ele>
        <time>2023-01-14T13:38:35Z</time>
      </trkpt>
      <trkpt lat="42.6871510" lon="-0.5413130">
        <ele>1174.2</ele>
        <time>2023-01-14T13:38:36Z</time>
      </trkpt>
      <trkpt lat="42.6871510" lon="-0.5413140">
        <ele>1174.2</ele>
        <time>2023-01-14T13:38:37Z</time>
      </trkpt>
      <trkpt lat="42.6871520" lon="-0.5413140">
        <ele>1174.0</ele>
        <time>2023-01-14T13:38:38Z</time>
      </trkpt>
      <trkpt lat="42.6871520" lon="-0.5413130">
        <ele>1174.0</ele>
        <time>2023-01-14T13:38:39Z</time>
      </trkpt>
      <trkpt lat="42.6871530" lon="-0.5413030">
        <ele>1174.0</ele>
        <time>2023-01-14T13:38:40Z</time>
      </trkpt>
      <trkpt lat="42.6871490" lon="-0.5412830">
        <ele>1174.0</ele>
        <time>2023-01-14T13:38:41Z</time>
      </trkpt>
      <trkpt lat="42.6871360" lon="-0.5412610">
        <ele>1174.0</ele>
        <time>2023-01-14T13:38:42Z</time>
      </trkpt>
      <trkpt lat="42.6871150" lon="-0.5412460">
        <ele>1174.0</ele>
        <time>2023-01-14T13:38:43Z</time>
      </trkpt>
      <trkpt lat="42.6870840" lon="-0.5412400">
        <ele>1172.8</ele>
        <time>2023-01-14T13:38:44Z</time>
      </trkpt>
      <trkpt lat="42.6870490" lon="-0.5412400">
        <ele>1171.2</ele>
        <time>2023-01-14T13:38:45Z</time>
      </trkpt>
      <trkpt lat="42.6870130" lon="-0.5412360">
        <ele>1169.8</ele>
        <time>2023-01-14T13:38:46Z</time>
      </trkpt>
      <trkpt lat="42.6869730" lon="-0.5412220">
        <ele>1169.0</ele>
        <time>2023-01-14T13:38:47Z</time>
      </trkpt>
      <trkpt lat="42.6869360" lon="-0.5412050">
        <ele>1168.2</ele>
        <time>2023-01-14T13:38:48Z</time>
      </trkpt>
      <trkpt lat="42.6868940" lon="-0.5411950">
        <ele>1166.6</ele>
        <time>2023-01-14T13:38:49Z</time>
      </trkpt>
      <trkpt lat="42.6868470" lon="-0.5411670">
        <ele>1165.6</ele>
        <time>2023-01-14T13:38:50Z</time>
      </trkpt>
      <trkpt lat="42.6868020" lon="-0.5411310">
        <ele>1163.8</ele>
        <time>2023-01-14T13:38:51Z</time>
      </trkpt>
      <trkpt lat="42.6867510" lon="-0.5410950">
        <ele>1161.8</ele>
        <time>2023-01-14T13:38:52Z</time>
      </trkpt>
      <trkpt lat="42.6867060" lon="-0.5410670">
        <ele>1159.8</ele>
        <time>2023-01-14T13:38:53Z</time>
      </trkpt>
      <trkpt lat="42.6866400" lon="-0.5410330">
        <ele>1158.4</ele>
        <time>2023-01-14T13:38:54Z</time>
      </trkpt>
      <trkpt lat="42.6865730" lon="-0.5409970">
        <ele>1156.2</ele>
        <time>2023-01-14T13:38:55Z</time>
      </trkpt>
      <trkpt lat="42.6865090" lon="-0.5409590">
        <ele>1155.0</ele>
        <time>2023-01-14T13:38:56Z</time>
      </trkpt>
      <trkpt lat="42.6864460" lon="-0.5409240">
        <ele>1153.0</ele>
        <time>2023-01-14T13:38:57Z</time>
      </trkpt>
      <trkpt lat="42.6863750" lon="-0.5409130">
        <ele>1152.0</ele>
        <time>2023-01-14T13:38:58Z</time>
      </trkpt>
      <trkpt lat="42.6862960" lon="-0.5408910">
        <ele>1149.4</ele>
        <time>2023-01-14T13:38:59Z</time>
      </trkpt>
      <trkpt lat="42.6862160" lon="-0.5408640">
        <ele>1146.6</ele>
        <time>2023-01-14T13:39:00Z</time>
      </trkpt>
      <trkpt lat="42.6861390" lon="-0.5408290">
        <ele>1145.2</ele>
        <time>2023-01-14T13:39:01Z</time>
      </trkpt>
      <trkpt lat="42.6860720" lon="-0.5407830">
        <ele>1144.2</ele>
        <time>2023-01-14T13:39:02Z</time>
      </trkpt>
      <trkpt lat="42.6859990" lon="-0.5407460">
        <ele>1142.2</ele>
        <time>2023-01-14T13:39:03Z</time>
      </trkpt>
      <trkpt lat="42.6859270" lon="-0.5407220">
        <ele>1140.6</ele>
        <time>2023-01-14T13:39:04Z</time>
      </trkpt>
      <trkpt lat="42.6858530" lon="-0.5407190">
        <ele>1139.0</ele>
        <time>2023-01-14T13:39:05Z</time>
      </trkpt>
      <trkpt lat="42.6857930" lon="-0.5407310">
        <ele>1138.0</ele>
        <time>2023-01-14T13:39:06Z</time>
      </trkpt>
      <trkpt lat="42.6857610" lon="-0.5407390">
        <ele>1136.8</ele>
        <time>2023-01-14T13:39:07Z</time>
      </trkpt>
      <trkpt lat="42.6857500" lon="-0.5407390">
        <ele>1135.0</ele>
        <time>2023-01-14T13:39:08Z</time>
      </trkpt>
      <trkpt lat="42.6857470" lon="-0.5407350">
        <ele>1134.0</ele>
        <time>2023-01-14T13:39:09Z</time>
      </trkpt>
      <trkpt lat="42.6857460" lon="-0.5407320">
        <ele>1133.4</ele>
        <time>2023-01-14T13:39:10Z</time>
      </trkpt>
      <trkpt lat="42.6857430" lon="-0.5407310">
        <ele>1133.0</ele>
        <time>2023-01-14T13:39:11Z</time>
      </trkpt>
      <trkpt lat="42.6857400" lon="-0.5407270">
        <ele>1132.8</ele>
        <time>2023-01-14T13:39:12Z</time>
      </trkpt>
      <trkpt lat="42.6857400" lon="-0.5407260">
        <ele>1132.8</ele>
        <time>2023-01-14T13:39:13Z</time>
      </trkpt>
      <trkpt lat="42.6857390" lon="-0.5407260">
        <ele>1132.6</ele>
        <time>2023-01-14T13:39:14Z</time>
      </trkpt>
      <trkpt lat="42.6857390" lon="-0.5407270">
        <ele>1132.6</ele>
        <time>2023-01-14T13:39:15Z</time>
      </trkpt>
      <trkpt lat="42.6857390" lon="-0.5407270">
        <ele>1132.6</ele>
        <time>2023-01-14T13:39:16Z</time>
      </trkpt>
      <trkpt lat="42.6857380" lon="-0.5407270">
        <ele>1132.4</ele>
        <time>2023-01-14T13:39:17Z</time>
      </trkpt>
      <trkpt lat="42.6857360" lon="-0.5407280">
        <ele>1132.2</ele>
        <time>2023-01-14T13:39:18Z</time>
      </trkpt>
      <trkpt lat="42.6857300" lon="-0.5407300">
        <ele>1132.2</ele>
        <time>2023-01-14T13:39:19Z</time>
      </trkpt>
      <trkpt lat="42.6857160" lon="-0.5407370">
        <ele>1132.2</ele>
        <time>2023-01-14T13:39:20Z</time>
      </trkpt>
      <trkpt lat="42.6856950" lon="-0.5407480">
        <ele>1132.0</ele>
        <time>2023-01-14T13:39:21Z</time>
      </trkpt>
      <trkpt lat="42.6856670" lon="-0.5407550">
        <ele>1131.8</ele>
        <time>2023-01-14T13:39:22Z</time>
      </trkpt>
      <trkpt lat="42.6856350" lon="-0.5407540">
        <ele>1131.8</ele>
        <time>2023-01-14T13:39:23Z</time>
      </trkpt>
      <trkpt lat="42.6855980" lon="-0.5407470">
        <ele>1131.4</ele>
        <time>2023-01-14T13:39:24Z</time>
      </trkpt>
      <trkpt lat="42.6855540" lon="-0.5407360">
        <ele>1131.0</ele>
        <time>2023-01-14T13:39:25Z</time>
      </trkpt>
      <trkpt lat="42.6855100" lon="-0.5407290">
        <ele>1130.4</ele>
        <time>2023-01-14T13:39:26Z</time>
      </trkpt>
      <trkpt lat="42.6854680" lon="-0.5407310">
        <ele>1130.0</ele>
        <time>2023-01-14T13:39:27Z</time>
      </trkpt>
      <trkpt lat="42.6854300" lon="-0.5407350">
        <ele>1129.6</ele>
        <time>2023-01-14T13:39:28Z</time>
      </trkpt>
      <trkpt lat="42.6854020" lon="-0.5407350">
        <ele>1129.0</ele>
        <time>2023-01-14T13:39:29Z</time>
      </trkpt>
      <trkpt lat="42.6853850" lon="-0.5407320">
        <ele>1128.4</ele>
        <time>2023-01-14T13:39:30Z</time>
      </trkpt>
      <trkpt lat="42.6853770" lon="-0.5407280">
        <ele>1128.0</ele>
        <time>2023-01-14T13:39:31Z</time>
      </trkpt>
      <trkpt lat="42.6853720" lon="-0.5407250">
        <ele>1127.6</ele>
        <time>2023-01-14T13:39:32Z</time>
      </trkpt>
      <trkpt lat="42.6853690" lon="-0.5407220">
        <ele>1127.4</ele>
        <time>2023-01-14T13:39:33Z</time>
      </trkpt>
      <trkpt lat="42.6853670" lon="-0.5407190">
        <ele>1127.2</ele>
        <time>2023-01-14T13:39:34Z</time>
      </trkpt>
      <trkpt lat="42.6853660" lon="-0.5407180">
        <ele>1127.2</ele>
        <time>2023-01-14T13:39:35Z</time>
      </trkpt>
      <trkpt lat="42.6853650" lon="-0.5407170">
        <ele>1127.2</ele>
        <time>2023-01-14T13:39:36Z</time>
      </trkpt>
      <trkpt lat="42.6853640" lon="-0.5407160">
        <ele>1127.2</ele>
        <time>2023-01-14T13:39:37Z</time>
      </trkpt>
      <trkpt lat="42.6853640" lon="-0.5407160">
        <ele>1127.2</ele>
        <time>2023-01-14T13:39:38Z</time>
      </trkpt>
      <trkpt lat="42.6853630" lon="-0.5407150">
        <ele>1127.2</ele>
        <time>2023-01-14T13:39:39Z</time>
      </trkpt>
      <trkpt lat="42.6853590" lon="-0.5407140">
        <ele>1127.2</ele>
        <time>2023-01-14T13:39:40Z</time>
      </trkpt>
      <trkpt lat="42.6853520" lon="-0.5407140">
        <ele>1127.2</ele>
        <time>2023-01-14T13:39:41Z</time>
      </trkpt>
      <trkpt lat="42.6853430" lon="-0.5407130">
        <ele>1127.2</ele>
        <time>2023-01-14T13:39:42Z</time>
      </trkpt>
      <trkpt lat="42.6853240" lon="-0.5407170">
        <ele>1127.4</ele>
        <time>2023-01-14T13:39:43Z</time>
      </trkpt>
      <trkpt lat="42.6852910" lon="-0.5407290">
        <ele>1127.6</ele>
        <time>2023-01-14T13:39:44Z</time>
      </trkpt>
      <trkpt lat="42.6852460" lon="-0.5407440">
        <ele>1127.8</ele>
        <time>2023-01-14T13:39:45Z</time>
      </trkpt>
      <trkpt lat="42.6851890" lon="-0.5407570">
        <ele>1127.8</ele>
        <time>2023-01-14T13:39:46Z</time>
      </trkpt>
      <trkpt lat="42.6851200" lon="-0.5407690">
        <ele>1127.8</ele>
        <time>2023-01-14T13:39:47Z</time>
      </trkpt>
      <trkpt lat="42.6850460" lon="-0.5407940">
        <ele>1127.8</ele>
        <time>2023-01-14T13:39:48Z</time>
      </trkpt>
      <trkpt lat="42.6849740" lon="-0.5408250">
        <ele>1126.2</ele>
        <time>2023-01-14T13:39:49Z</time>
      </trkpt>
      <trkpt lat="42.6849050" lon="-0.5408440">
        <ele>1124.2</ele>
        <time>2023-01-14T13:39:50Z</time>
      </trkpt>
      <trkpt lat="42.6848340" lon="-0.5408520">
        <ele>1122.2</ele>
        <time>2023-01-14T13:39:51Z</time>
      </trkpt>
      <trkpt lat="42.6847740" lon="-0.5408160">
        <ele>1120.4</ele>
        <time>2023-01-14T13:39:52Z</time>
      </trkpt>
      <trkpt lat="42.6847390" lon="-0.5407300">
        <ele>1118.4</ele>
        <time>2023-01-14T13:39:53Z</time>
      </trkpt>
      <trkpt lat="42.6847130" lon="-0.5406250">
        <ele>1116.8</ele>
        <time>2023-01-14T13:39:54Z</time>
      </trkpt>
      <trkpt lat="42.6846900" lon="-0.5405200">
        <ele>1115.8</ele>
        <time>2023-01-14T13:39:55Z</time>
      </trkpt>
      <trkpt lat="42.6846590" lon="-0.5404520">
        <ele>1113.6</ele>
        <time>2023-01-14T13:39:56Z</time>
      </trkpt>
      <trkpt lat="42.6846310" lon="-0.5404200">
        <ele>1111.6</ele>
        <time>2023-01-14T13:39:57Z</time>
      </trkpt>
      <trkpt lat="42.6846130" lon="-0.5403960">
        <ele>1110.0</ele>
        <time>2023-01-14T13:39:58Z</time>
      </trkpt>
      <trkpt lat="42.6846070" lon="-0.5403850">
        <ele>1108.4</ele>
        <time>2023-01-14T13:39:59Z</time>
      </trkpt>
      <trkpt lat="42.6846050" lon="-0.5403820">
        <ele>1107.2</ele>
        <time>2023-01-14T13:40:00Z</time>
      </trkpt>
      <trkpt lat="42.6846040" lon="-0.5403790">
        <ele>1106.6</ele>
        <time>2023-01-14T13:40:01Z</time>
      </trkpt>
      <trkpt lat="42.6846040" lon="-0.5403750">
        <ele>1106.2</ele>
        <time>2023-01-14T13:40:02Z</time>
      </trkpt>
      <trkpt lat="42.6846030" lon="-0.5403740">
        <ele>1106.0</ele>
        <time>2023-01-14T13:40:03Z</time>
      </trkpt>
      <trkpt lat="42.6846030" lon="-0.5403730">
        <ele>1105.8</ele>
        <time>2023-01-14T13:40:04Z</time>
      </trkpt>
      <trkpt lat="42.6846030" lon="-0.5403730">
        <ele>1105.6</ele>
        <time>2023-01-14T13:40:05Z</time>
      </trkpt>
      <trkpt lat="42.6846040" lon="-0.5403730">
        <ele>1105.6</ele>
        <time>2023-01-14T13:40:06Z</time>
      </trkpt>
      <trkpt lat="42.6846040" lon="-0.5403730">
        <ele>1105.6</ele>
        <time>2023-01-14T13:40:07Z</time>
      </trkpt>
      <trkpt lat="42.6846040" lon="-0.5403730">
        <ele>1105.6</ele>
        <time>2023-01-14T13:40:08Z</time>
      </trkpt>
      <trkpt lat="42.6846040" lon="-0.5403730">
        <ele>1105.4</ele>
        <time>2023-01-14T13:40:09Z</time>
      </trkpt>
      <trkpt lat="42.6846030" lon="-0.5403730">
        <ele>1105.4</ele>
        <time>2023-01-14T13:40:10Z</time>
      </trkpt>
      <trkpt lat="42.6845920" lon="-0.5403680">
        <ele>1105.4</ele>
        <time>2023-01-14T13:40:11Z</time>
      </trkpt>
      <trkpt lat="42.6845720" lon="-0.5403630">
        <ele>1105.2</ele>
        <time>2023-01-14T13:40:12Z</time>
      </trkpt>
      <trkpt lat="42.6845440" lon="-0.5403680">
        <ele>1105.2</ele>
        <time>2023-01-14T13:40:13Z</time>
      </trkpt>
      <trkpt lat="42.6845110" lon="-0.5403750">
        <ele>1105.0</ele>
        <time>2023-01-14T13:40:14Z</time>
      </trkpt>
      <trkpt lat="42.6844750" lon="-0.5403810">
        <ele>1104.6</ele>
        <time>2023-01-14T13:40:15Z</time>
      </trkpt>
      <trkpt lat="42.6844380" lon="-0.5403910">
        <ele>1104.2</ele>
        <time>2023-01-14T13:40:16Z</time>
      </trkpt>
      <trkpt lat="42.6844010" lon="-0.5404070">
        <ele>1103.0</ele>
        <time>2023-01-14T13:40:17Z</time>
      </trkpt>
      <trkpt lat="42.6843730" lon="-0.5404290">
        <ele>1101.8</ele>
        <time>2023-01-14T13:40:18Z</time>
      </trkpt>
      <trkpt lat="42.6843540" lon="-0.5404560">
        <ele>1100.6</ele>
        <time>2023-01-14T13:40:19Z</time>
      </trkpt>
      <trkpt lat="42.6843340" lon="-0.5404800">
        <ele>1099.8</ele>
        <time>2023-01-14T13:40:20Z</time>
      </trkpt>
      <trkpt lat="42.6843140" lon="-0.5405010">
        <ele>1098.4</ele>
        <time>2023-01-14T13:40:21Z</time>
      </trkpt>
      <trkpt lat="42.6842920" lon="-0.5405160">
        <ele>1097.4</ele>
        <time>2023-01-14T13:40:22Z</time>
      </trkpt>
      <trkpt lat="42.6842700" lon="-0.5405250">
        <ele>1096.2</ele>
        <time>2023-01-14T13:40:23Z</time>
      </trkpt>
      <trkpt lat="42.6842530" lon="-0.5405300">
        <ele>1095.2</ele>
        <time>2023-01-14T13:40:24Z</time>
      </trkpt>
      <trkpt lat="42.6842420" lon="-0.5405270">
        <ele>1094.4</ele>
        <time>2023-01-14T13:40:25Z</time>
      </trkpt>
      <trkpt lat="42.6842400" lon="-0.5405250">
        <ele>1093.4</ele>
        <time>2023-01-14T13:40:26Z</time>
      </trkpt>
      <trkpt lat="42.6842390" lon="-0.5405240">
        <ele>1092.6</ele>
        <time>2023-01-14T13:40:27Z</time>
      </trkpt>
      <trkpt lat="42.6842390" lon="-0.5405240">
        <ele>1092.0</ele>
        <time>2023-01-14T13:40:28Z</time>
      </trkpt>
      <trkpt lat="42.6842400" lon="-0.5405230">
        <ele>1091.6</ele>
        <time>2023-01-14T13:40:29Z</time>
      </trkpt>
      <trkpt lat="42.6842400" lon="-0.5405230">
        <ele>1091.4</ele>
        <time>2023-01-14T13:40:30Z</time>
      </trkpt>
      <trkpt lat="42.6842400" lon="-0.5405240">
        <ele>1091.2</ele>
        <time>2023-01-14T13:40:31Z</time>
      </trkpt>
      <trkpt lat="42.6842400" lon="-0.5405240">
        <ele>1091.2</ele>
        <time>2023-01-14T13:40:32Z</time>
      </trkpt>
      <trkpt lat="42.6842400" lon="-0.5405240">
        <ele>1091.2</ele>
        <time>2023-01-14T13:40:33Z</time>
      </trkpt>
      <trkpt lat="42.6842390" lon="-0.5405240">
        <ele>1091.4</ele>
        <time>2023-01-14T13:40:34Z</time>
      </trkpt>
      <trkpt lat="42.6842310" lon="-0.5405250">
        <ele>1091.4</ele>
        <time>2023-01-14T13:40:35Z</time>
      </trkpt>
      <trkpt lat="42.6842130" lon="-0.5405300">
        <ele>1091.6</ele>
        <time>2023-01-14T13:40:36Z</time>
      </trkpt>
      <trkpt lat="42.6841850" lon="-0.5405500">
        <ele>1091.6</ele>
        <time>2023-01-14T13:40:37Z</time>
      </trkpt>
      <trkpt lat="42.6841500" lon="-0.5405810">
        <ele>1091.6</ele>
        <time>2023-01-14T13:40:38Z</time>
      </trkpt>
      <trkpt lat="42.6841140" lon="-0.5406040">
        <ele>1090.8</ele>
        <time>2023-01-14T13:40:39Z</time>
      </trkpt>
      <trkpt lat="42.6840820" lon="-0.5406120">
        <ele>1089.2</ele>
        <time>2023-01-14T13:40:40Z</time>
      </trkpt>
      <trkpt lat="42.6840490" lon="-0.5406120">
        <ele>1087.6</ele>
        <time>2023-01-14T13:40:41Z</time>
      </trkpt>
      <trkpt lat="42.6840140" lon="-0.5406040">
        <ele>1086.0</ele>
        <time>2023-01-14T13:40:42Z</time>
      </trkpt>
      <trkpt lat="42.6839730" lon="-0.5405970">
        <ele>1085.0</ele>
        <time>2023-01-14T13:40:43Z</time>
      </trkpt>
      <trkpt lat="42.6839290" lon="-0.5405940">
        <ele>1083.8</ele>
        <time>2023-01-14T13:40:44Z</time>
      </trkpt>
      <trkpt lat="42.6838880" lon="-0.5405950">
        <ele>1082.2</ele>
        <time>2023-01-14T13:40:45Z</time>
      </trkpt>
      <trkpt lat="42.6838640" lon="-0.5406120">
        <ele>1080.6</ele>
        <time>2023-01-14T13:40:46Z</time>
      </trkpt>
      <trkpt lat="42.6838430" lon="-0.5406400">
        <ele>1079.2</ele>
        <time>2023-01-14T13:40:47Z</time>
      </trkpt>
      <trkpt lat="42.6838280" lon="-0.5406760">
        <ele>1078.0</ele>
        <time>2023-01-14T13:40:48Z</time>
      </trkpt>
      <trkpt lat="42.6838110" lon="-0.5407130">
        <ele>1076.8</ele>
        <time>2023-01-14T13:40:49Z</time>
      </trkpt>
      <trkpt lat="42.6837850" lon="-0.5407510">
        <ele>1076.0</ele>
        <time>2023-01-14T13:40:50Z</time>
      </trkpt>
      <trkpt lat="42.6837570" lon="-0.5407780">
        <ele>1075.6</ele>
        <time>2023-01-14T13:40:51Z</time>
      </trkpt>
      <trkpt lat="42.6837350" lon="-0.5407860">
        <ele>1075.2</ele>
        <time>2023-01-14T13:40:52Z</time>
      </trkpt>
      <trkpt lat="42.6837280" lon="-0.5407870">
        <ele>1074.0</ele>
        <time>2023-01-14T13:40:53Z</time>
      </trkpt>
      <trkpt lat="42.6837270" lon="-0.5407870">
        <ele>1073.2</ele>
        <time>2023-01-14T13:40:54Z</time>
      </trkpt>
      <trkpt lat="42.6837260" lon="-0.5407900">
        <ele>1072.6</ele>
        <time>2023-01-14T13:40:55Z</time>
      </trkpt>
      <trkpt lat="42.6837230" lon="-0.5407940">
        <ele>1072.4</ele>
        <time>2023-01-14T13:40:56Z</time>
      </trkpt>
      <trkpt lat="42.6837220" lon="-0.5407940">
        <ele>1072.0</ele>
        <time>2023-01-14T13:40:57Z</time>
      </trkpt>
      <trkpt lat="42.6837210" lon="-0.5407940">
        <ele>1072.0</ele>
        <time>2023-01-14T13:40:58Z</time>
      </trkpt>
      <trkpt lat="42.6837200" lon="-0.5407930">
        <ele>1071.8</ele>
        <time>2023-01-14T13:40:59Z</time>
      </trkpt>
      <trkpt lat="42.6837190" lon="-0.5407900">
        <ele>1071.8</ele>
        <time>2023-01-14T13:41:00Z</time>
      </trkpt>
      <trkpt lat="42.6837170" lon="-0.5407880">
        <ele>1071.8</ele>
        <time>2023-01-14T13:41:01Z</time>
      </trkpt>
      <trkpt lat="42.6837160" lon="-0.5407870">
        <ele>1071.8</ele>
        <time>2023-01-14T13:41:02Z</time>
      </trkpt>
      <trkpt lat="42.6837150" lon="-0.5407880">
        <ele>1071.8</ele>
        <time>2023-01-14T13:41:03Z</time>
      </trkpt>
      <trkpt lat="42.6837150" lon="-0.5407880">
        <ele>1071.8</ele>
        <time>2023-01-14T13:41:04Z</time>
      </trkpt>
      <trkpt lat="42.6837160" lon="-0.5407880">
        <ele>1071.8</ele>
        <time>2023-01-14T13:41:05Z</time>
      </trkpt>
      <trkpt lat="42.6837160" lon="-0.5407880">
        <ele>1071.8</ele>
        <time>2023-01-14T13:41:06Z</time>
      </trkpt>
      <trkpt lat="42.6837160" lon="-0.5407880">
        <ele>1071.8</ele>
        <time>2023-01-14T13:41:07Z</time>
      </trkpt>
      <trkpt lat="42.6837170" lon="-0.5407890">
        <ele>1071.8</ele>
        <time>2023-01-14T13:41:08Z</time>
      </trkpt>
      <trkpt lat="42.6837170" lon="-0.5407890">
        <ele>1071.8</ele>
        <time>2023-01-14T13:41:09Z</time>
      </trkpt>
      <trkpt lat="42.6837170" lon="-0.5407890">
        <ele>1071.8</ele>
        <time>2023-01-14T13:41:10Z</time>
      </trkpt>
      <trkpt lat="42.6837180" lon="-0.5407890">
        <ele>1071.8</ele>
        <time>2023-01-14T13:41:11Z</time>
      </trkpt>
      <trkpt lat="42.6837180" lon="-0.5407890">
        <ele>1071.8</ele>
        <time>2023-01-14T13:41:12Z</time>
      </trkpt>
      <trkpt lat="42.6837180" lon="-0.5407900">
        <ele>1071.8</ele>
        <time>2023-01-14T13:41:13Z</time>
      </trkpt>
      <trkpt lat="42.6837190" lon="-0.5407900">
        <ele>1071.8</ele>
        <time>2023-01-14T13:41:14Z</time>
      </trkpt>
      <trkpt lat="42.6837190" lon="-0.5407900">
        <ele>1071.8</ele>
        <time>2023-01-14T13:41:15Z</time>
      </trkpt>
      <trkpt lat="42.6837190" lon="-0.5407900">
        <ele>1071.8</ele>
        <time>2023-01-14T13:41:16Z</time>
      </trkpt>
      <trkpt lat="42.6837190" lon="-0.5407900">
        <ele>1071.8</ele>
        <time>2023-01-14T13:41:17Z</time>
      </trkpt>
      <trkpt lat="42.6837200" lon="-0.5407900">
        <ele>1071.6</ele>
        <time>2023-01-14T13:41:18Z</time>
      </trkpt>
      <trkpt lat="42.6837210" lon="-0.5407890">
        <ele>1071.6</ele>
        <time>2023-01-14T13:41:19Z</time>
      </trkpt>
      <trkpt lat="42.6837210" lon="-0.5407890">
        <ele>1071.6</ele>
        <time>2023-01-14T13:41:20Z</time>
      </trkpt>
      <trkpt lat="42.6837220" lon="-0.5407890">
        <ele>1071.6</ele>
        <time>2023-01-14T13:41:21Z</time>
      </trkpt>
      <trkpt lat="42.6837220" lon="-0.5407880">
        <ele>1071.6</ele>
        <time>2023-01-14T13:41:22Z</time>
      </trkpt>
      <trkpt lat="42.6837220" lon="-0.5407870">
        <ele>1071.6</ele>
        <time>2023-01-14T13:41:23Z</time>
      </trkpt>
      <trkpt lat="42.6837210" lon="-0.5407870">
        <ele>1071.6</ele>
        <time>2023-01-14T13:41:24Z</time>
      </trkpt>
      <trkpt lat="42.6837220" lon="-0.5407860">
        <ele>1071.4</ele>
        <time>2023-01-14T13:41:25Z</time>
      </trkpt>
      <trkpt lat="42.6837240" lon="-0.5407860">
        <ele>1071.4</ele>
        <time>2023-01-14T13:41:26Z</time>
      </trkpt>
      <trkpt lat="42.6837260" lon="-0.5407860">
        <ele>1071.2</ele>
        <time>2023-01-14T13:41:27Z</time>
      </trkpt>
      <trkpt lat="42.6837270" lon="-0.5407870">
        <ele>1071.2</ele>
        <time>2023-01-14T13:41:28Z</time>
      </trkpt>
      <trkpt lat="42.6837280" lon="-0.5407870">
        <ele>1071.0</ele>
        <time>2023-01-14T13:41:29Z</time>
      </trkpt>
      <trkpt lat="42.6837280" lon="-0.5407870">
        <ele>1070.8</ele>
        <time>2023-01-14T13:41:30Z</time>
      </trkpt>
      <trkpt lat="42.6837290" lon="-0.5407860">
        <ele>1070.8</ele>
        <time>2023-01-14T13:41:31Z</time>
      </trkpt>
      <trkpt lat="42.6837290" lon="-0.5407860">
        <ele>1070.6</ele>
        <time>2023-01-14T13:41:32Z</time>
      </trkpt>
      <trkpt lat="42.6837290" lon="-0.5407860">
        <ele>1070.6</ele>
        <time>2023-01-14T13:41:33Z</time>
      </trkpt>
      <trkpt lat="42.6837290" lon="-0.5407850">
        <ele>1070.6</ele>
        <time>2023-01-14T13:41:34Z</time>
      </trkpt>
      <trkpt lat="42.6837300" lon="-0.5407840">
        <ele>1070.6</ele>
        <time>2023-01-14T13:41:35Z</time>
      </trkpt>
      <trkpt lat="42.6837300" lon="-0.5407840">
        <ele>1070.6</ele>
        <time>2023-01-14T13:41:36Z</time>
      </trkpt>
      <trkpt lat="42.6837290" lon="-0.5407830">
        <ele>1070.4</ele>
        <time>2023-01-14T13:41:37Z</time>
      </trkpt>
      <trkpt lat="42.6837290" lon="-0.5407830">
        <ele>1070.4</ele>
        <time>2023-01-14T13:41:38Z</time>
      </trkpt>
      <trkpt lat="42.6837300" lon="-0.5407830">
        <ele>1070.4</ele>
        <time>2023-01-14T13:41:39Z</time>
      </trkpt>
      <trkpt lat="42.6837300" lon="-0.5407830">
        <ele>1070.4</ele>
        <time>2023-01-14T13:41:40Z</time>
      </trkpt>
      <trkpt lat="42.6837290" lon="-0.5407830">
        <ele>1070.2</ele>
        <time>2023-01-14T13:41:41Z</time>
      </trkpt>
      <trkpt lat="42.6837290" lon="-0.5407830">
        <ele>1070.2</ele>
        <time>2023-01-14T13:41:42Z</time>
      </trkpt>
      <trkpt lat="42.6837290" lon="-0.5407830">
        <ele>1070.2</ele>
        <time>2023-01-14T13:41:43Z</time>
      </trkpt>
      <trkpt lat="42.6837280" lon="-0.5407830">
        <ele>1070.2</ele>
        <time>2023-01-14T13:41:44Z</time>
      </trkpt>
      <trkpt lat="42.6837280" lon="-0.5407830">
        <ele>1070.2</ele>
        <time>2023-01-14T13:41:45Z</time>
      </trkpt>
      <trkpt lat="42.6837280" lon="-0.5407830">
        <ele>1070.0</ele>
        <time>2023-01-14T13:41:46Z</time>
      </trkpt>
      <trkpt lat="42.6837280" lon="-0.5407830">
        <ele>1069.8</ele>
        <time>2023-01-14T13:41:47Z</time>
      </trkpt>
      <trkpt lat="42.6837280" lon="-0.5407830">
        <ele>1069.6</ele>
        <time>2023-01-14T13:41:48Z</time>
      </trkpt>
      <trkpt lat="42.6837280" lon="-0.5407830">
        <ele>1069.6</ele>
        <time>2023-01-14T13:41:49Z</time>
      </trkpt>
      <trkpt lat="42.6837270" lon="-0.5407830">
        <ele>1069.4</ele>
        <time>2023-01-14T13:41:50Z</time>
      </trkpt>
      <trkpt lat="42.6837270" lon="-0.5407830">
        <ele>1069.4</ele>
        <time>2023-01-14T13:41:51Z</time>
      </trkpt>
      <trkpt lat="42.6837270" lon="-0.5407830">
        <ele>1069.4</ele>
        <time>2023-01-14T13:41:52Z</time>
      </trkpt>
      <trkpt lat="42.6837270" lon="-0.5407830">
        <ele>1069.4</ele>
        <time>2023-01-14T13:41:53Z</time>
      </trkpt>
      <trkpt lat="42.6837270" lon="-0.5407820">
        <ele>1069.4</ele>
        <time>2023-01-14T13:41:54Z</time>
      </trkpt>
      <trkpt lat="42.6837270" lon="-0.5407820">
        <ele>1069.4</ele>
        <time>2023-01-14T13:41:55Z</time>
      </trkpt>
      <trkpt lat="42.6837270" lon="-0.5407820">
        <ele>1069.4</ele>
        <time>2023-01-14T13:41:56Z</time>
      </trkpt>
      <trkpt lat="42.6837270" lon="-0.5407820">
        <ele>1069.4</ele>
        <time>2023-01-14T13:41:57Z</time>
      </trkpt>
      <trkpt lat="42.6837280" lon="-0.5407830">
        <ele>1069.4</ele>
        <time>2023-01-14T13:41:58Z</time>
      </trkpt>
      <trkpt lat="42.6837280" lon="-0.5407840">
        <ele>1069.6</ele>
        <time>2023-01-14T13:41:59Z</time>
      </trkpt>
      <trkpt lat="42.6837280" lon="-0.5407850">
        <ele>1069.6</ele>
        <time>2023-01-14T13:42:00Z</time>
      </trkpt>
      <trkpt lat="42.6837280" lon="-0.5407850">
        <ele>1069.6</ele>
        <time>2023-01-14T13:42:01Z</time>
      </trkpt>
      <trkpt lat="42.6837280" lon="-0.5407850">
        <ele>1069.6</ele>
        <time>2023-01-14T13:42:02Z</time>
      </trkpt>
      <trkpt lat="42.6837280" lon="-0.5407850">
        <ele>1069.6</ele>
        <time>2023-01-14T13:42:03Z</time>
      </trkpt>
      <trkpt lat="42.6837280" lon="-0.5407850">
        <ele>1069.6</ele>
        <time>2023-01-14T13:42:04Z</time>
      </trkpt>
      <trkpt lat="42.6837280" lon="-0.5407850">
        <ele>1069.6</ele>
        <time>2023-01-14T13:42:05Z</time>
      </trkpt>
      <trkpt lat="42.6837280" lon="-0.5407850">
        <ele>1069.8</ele>
        <time>2023-01-14T13:42:06Z</time>
      </trkpt>
      <trkpt lat="42.6837280" lon="-0.5407850">
        <ele>1070.0</ele>
        <time>2023-01-14T13:42:07Z</time>
      </trkpt>
      <trkpt lat="42.6837280" lon="-0.5407850">
        <ele>1070.0</ele>
        <time>2023-01-14T13:42:08Z</time>
      </trkpt>
      <trkpt lat="42.6837270" lon="-0.5407850">
        <ele>1070.0</ele>
        <time>2023-01-14T13:42:09Z</time>
      </trkpt>
      <trkpt lat="42.6837270" lon="-0.5407860">
        <ele>1070.0</ele>
        <time>2023-01-14T13:42:10Z</time>
      </trkpt>
      <trkpt lat="42.6837270" lon="-0.5407860">
        <ele>1070.0</ele>
        <time>2023-01-14T13:42:11Z</time>
      </trkpt>
      <trkpt lat="42.6837270" lon="-0.5407860">
        <ele>1070.0</ele>
        <time>2023-01-14T13:42:12Z</time>
      </trkpt>
      <trkpt lat="42.6837270" lon="-0.5407860">
        <ele>1069.8</ele>
        <time>2023-01-14T13:42:13Z</time>
      </trkpt>
      <trkpt lat="42.6837260" lon="-0.5407850">
        <ele>1069.8</ele>
        <time>2023-01-14T13:42:14Z</time>
      </trkpt>
      <trkpt lat="42.6837260" lon="-0.5407850">
        <ele>1069.8</ele>
        <time>2023-01-14T13:42:15Z</time>
      </trkpt>
      <trkpt lat="42.6837260" lon="-0.5407850">
        <ele>1069.8</ele>
        <time>2023-01-14T13:42:16Z</time>
      </trkpt>
      <trkpt lat="42.6837260" lon="-0.5407850">
        <ele>1069.8</ele>
        <time>2023-01-14T13:42:17Z</time>
      </trkpt>
      <trkpt lat="42.6837260" lon="-0.5407850">
        <ele>1069.8</ele>
        <time>2023-01-14T13:42:18Z</time>
      </trkpt>
      <trkpt lat="42.6837260" lon="-0.5407850">
        <ele>1069.8</ele>
        <time>2023-01-14T13:42:19Z</time>
      </trkpt>
      <trkpt lat="42.6837260" lon="-0.5407850">
        <ele>1070.0</ele>
        <time>2023-01-14T13:42:20Z</time>
      </trkpt>
      <trkpt lat="42.6837260" lon="-0.5407850">
        <ele>1070.0</ele>
        <time>2023-01-14T13:42:21Z</time>
      </trkpt>
      <trkpt lat="42.6837260" lon="-0.5407850">
        <ele>1070.0</ele>
        <time>2023-01-14T13:42:22Z</time>
      </trkpt>
      <trkpt lat="42.6837260" lon="-0.5407850">
        <ele>1070.0</ele>
        <time>2023-01-14T13:42:23Z</time>
      </trkpt>
      <trkpt lat="42.6837260" lon="-0.5407850">
        <ele>1070.0</ele>
        <time>2023-01-14T13:42:24Z</time>
      </trkpt>
      <trkpt lat="42.6837260" lon="-0.5407850">
        <ele>1070.0</ele>
        <time>2023-01-14T13:42:25Z</time>
      </trkpt>
      <trkpt lat="42.6837260" lon="-0.5407850">
        <ele>1070.0</ele>
        <time>2023-01-14T13:42:26Z</time>
      </trkpt>
      <trkpt lat="42.6837260" lon="-0.5407850">
        <ele>1070.2</ele>
        <time>2023-01-14T13:42:27Z</time>
      </trkpt>
      <trkpt lat="42.6837250" lon="-0.5407860">
        <ele>1070.4</ele>
        <time>2023-01-14T13:42:28Z</time>
      </trkpt>
      <trkpt lat="42.6837250" lon="-0.5407860">
        <ele>1070.6</ele>
        <time>2023-01-14T13:42:29Z</time>
      </trkpt>
      <trkpt lat="42.6837250" lon="-0.5407860">
        <ele>1070.4</ele>
        <time>2023-01-14T13:42:30Z</time>
      </trkpt>
      <trkpt lat="42.6837250" lon="-0.5407860">
        <ele>1070.4</ele>
        <time>2023-01-14T13:42:31Z</time>
      </trkpt>
      <trkpt lat="42.6837250" lon="-0.5407860">
        <ele>1070.4</ele>
        <time>2023-01-14T13:42:32Z</time>
      </trkpt>
      <trkpt lat="42.6837250" lon="-0.5407860">
        <ele>1070.4</ele>
        <time>2023-01-14T13:42:33Z</time>
      </trkpt>
      <trkpt lat="42.6837250" lon="-0.5407870">
        <ele>1070.4</ele>
        <time>2023-01-14T13:42:34Z</time>
      </trkpt>
      <trkpt lat="42.6837250" lon="-0.5407870">
        <ele>1070.4</ele>
        <time>2023-01-14T13:42:35Z</time>
      </trkpt>
      <trkpt lat="42.6837250" lon="-0.5407870">
        <ele>1070.4</ele>
        <time>2023-01-14T13:42:36Z</time>
      </trkpt>
      <trkpt lat="42.6837250" lon="-0.5407880">
        <ele>1070.4</ele>
        <time>2023-01-14T13:42:37Z</time>
      </trkpt>
      <trkpt lat="42.6837250" lon="-0.5407880">
        <ele>1070.4</ele>
        <time>2023-01-14T13:42:38Z</time>
      </trkpt>
      <trkpt lat="42.6837250" lon="-0.5407880">
        <ele>1070.4</ele>
        <time>2023-01-14T13:42:39Z</time>
      </trkpt>
      <trkpt lat="42.6837250" lon="-0.5407890">
        <ele>1070.4</ele>
        <time>2023-01-14T13:42:40Z</time>
      </trkpt>
      <trkpt lat="42.6837240" lon="-0.5407890">
        <ele>1070.4</ele>
        <time>2023-01-14T13:42:41Z</time>
      </trkpt>
      <trkpt lat="42.6837240" lon="-0.5407890">
        <ele>1070.4</ele>
        <time>2023-01-14T13:42:42Z</time>
      </trkpt>
      <trkpt lat="42.6837240" lon="-0.5407900">
        <ele>1070.4</ele>
        <time>2023-01-14T13:42:43Z</time>
      </trkpt>
      <trkpt lat="42.6837240" lon="-0.5407900">
        <ele>1070.4</ele>
        <time>2023-01-14T13:42:44Z</time>
      </trkpt>
      <trkpt lat="42.6837240" lon="-0.5407900">
        <ele>1070.4</ele>
        <time>2023-01-14T13:42:45Z</time>
      </trkpt>
      <trkpt lat="42.6837230" lon="-0.5407900">
        <ele>1070.4</ele>
        <time>2023-01-14T13:42:46Z</time>
      </trkpt>
      <trkpt lat="42.6837230" lon="-0.5407900">
        <ele>1070.4</ele>
        <time>2023-01-14T13:42:47Z</time>
      </trkpt>
      <trkpt lat="42.6837230" lon="-0.5407900">
        <ele>1070.4</ele>
        <time>2023-01-14T13:42:48Z</time>
      </trkpt>
      <trkpt lat="42.6837230" lon="-0.5407900">
        <ele>1070.4</ele>
        <time>2023-01-14T13:42:49Z</time>
      </trkpt>
      <trkpt lat="42.6837230" lon="-0.5407900">
        <ele>1070.4</ele>
        <time>2023-01-14T13:42:50Z</time>
      </trkpt>
      <trkpt lat="42.6837230" lon="-0.5407900">
        <ele>1070.4</ele>
        <time>2023-01-14T13:42:51Z</time>
      </trkpt>
      <trkpt lat="42.6837230" lon="-0.5407900">
        <ele>1070.4</ele>
        <time>2023-01-14T13:42:52Z</time>
      </trkpt>
      <trkpt lat="42.6837230" lon="-0.5407900">
        <ele>1070.4</ele>
        <time>2023-01-14T13:42:53Z</time>
      </trkpt>
      <trkpt lat="42.6837230" lon="-0.5407900">
        <ele>1070.4</ele>
        <time>2023-01-14T13:42:54Z</time>
      </trkpt>
      <trkpt lat="42.6837220" lon="-0.5407900">
        <ele>1070.4</ele>
        <time>2023-01-14T13:42:55Z</time>
      </trkpt>
      <trkpt lat="42.6837220" lon="-0.5407900">
        <ele>1070.4</ele>
        <time>2023-01-14T13:42:56Z</time>
      </trkpt>
      <trkpt lat="42.6837220" lon="-0.5407900">
        <ele>1070.4</ele>
        <time>2023-01-14T13:42:57Z</time>
      </trkpt>
      <trkpt lat="42.6837220" lon="-0.5407910">
        <ele>1070.4</ele>
        <time>2023-01-14T13:42:58Z</time>
      </trkpt>
      <trkpt lat="42.6837220" lon="-0.5407910">
        <ele>1070.4</ele>
        <time>2023-01-14T13:42:59Z</time>
      </trkpt>
      <trkpt lat="42.6837220" lon="-0.5407910">
        <ele>1070.4</ele>
        <time>2023-01-14T13:43:00Z</time>
      </trkpt>
      <trkpt lat="42.6837220" lon="-0.5407900">
        <ele>1070.4</ele>
        <time>2023-01-14T13:43:01Z</time>
      </trkpt>
      <trkpt lat="42.6837220" lon="-0.5407900">
        <ele>1070.4</ele>
        <time>2023-01-14T13:43:02Z</time>
      </trkpt>
      <trkpt lat="42.6837220" lon="-0.5407900">
        <ele>1070.4</ele>
        <time>2023-01-14T13:43:03Z</time>
      </trkpt>
      <trkpt lat="42.6837120" lon="-0.5407920">
        <ele>1070.4</ele>
        <time>2023-01-14T13:43:04Z</time>
      </trkpt>
      <trkpt lat="42.6836990" lon="-0.5407900">
        <ele>1070.4</ele>
        <time>2023-01-14T13:43:05Z</time>
      </trkpt>
      <trkpt lat="42.6836840" lon="-0.5407810">
        <ele>1070.4</ele>
        <time>2023-01-14T13:43:06Z</time>
      </trkpt>
      <trkpt lat="42.6836730" lon="-0.5407710">
        <ele>1070.4</ele>
        <time>2023-01-14T13:43:07Z</time>
      </trkpt>
      <trkpt lat="42.6836660" lon="-0.5407640">
        <ele>1070.4</ele>
        <time>2023-01-14T13:43:08Z</time>
      </trkpt>
      <trkpt lat="42.6836640" lon="-0.5407620">
        <ele>1070.4</ele>
        <time>2023-01-14T13:43:09Z</time>
      </trkpt>
      <trkpt lat="42.6836620" lon="-0.5407610">
        <ele>1070.4</ele>
        <time>2023-01-14T13:43:10Z</time>
      </trkpt>
      <trkpt lat="42.6836610" lon="-0.5407600">
        <ele>1070.4</ele>
        <time>2023-01-14T13:43:11Z</time>
      </trkpt>
      <trkpt lat="42.6836600" lon="-0.5407600">
        <ele>1070.4</ele>
        <time>2023-01-14T13:43:12Z</time>
      </trkpt>
      <trkpt lat="42.6836590" lon="-0.5407600">
        <ele>1070.4</ele>
        <time>2023-01-14T13:43:13Z</time>
      </trkpt>
      <trkpt lat="42.6836590" lon="-0.5407610">
        <ele>1070.2</ele>
        <time>2023-01-14T13:43:14Z</time>
      </trkpt>
      <trkpt lat="42.6836590" lon="-0.5407610">
        <ele>1070.2</ele>
        <time>2023-01-14T13:43:15Z</time>
      </trkpt>
      <trkpt lat="42.6836590" lon="-0.5407610">
        <ele>1070.0</ele>
        <time>2023-01-14T13:43:16Z</time>
      </trkpt>
      <trkpt lat="42.6836580" lon="-0.5407610">
        <ele>1070.0</ele>
        <time>2023-01-14T13:43:17Z</time>
      </trkpt>
      <trkpt lat="42.6836510" lon="-0.5407580">
        <ele>1070.0</ele>
        <time>2023-01-14T13:43:18Z</time>
      </trkpt>
      <trkpt lat="42.6836350" lon="-0.5407520">
        <ele>1070.0</ele>
        <time>2023-01-14T13:43:19Z</time>
      </trkpt>
      <trkpt lat="42.6836140" lon="-0.5407460">
        <ele>1070.0</ele>
        <time>2023-01-14T13:43:20Z</time>
      </trkpt>
      <trkpt lat="42.6835890" lon="-0.5407430">
        <ele>1070.0</ele>
        <time>2023-01-14T13:43:21Z</time>
      </trkpt>
      <trkpt lat="42.6835610" lon="-0.5407360">
        <ele>1070.0</ele>
        <time>2023-01-14T13:43:22Z</time>
      </trkpt>
      <trkpt lat="42.6835260" lon="-0.5407290">
        <ele>1068.8</ele>
        <time>2023-01-14T13:43:23Z</time>
      </trkpt>
      <trkpt lat="42.6834830" lon="-0.5407340">
        <ele>1067.4</ele>
        <time>2023-01-14T13:43:24Z</time>
      </trkpt>
      <trkpt lat="42.6834350" lon="-0.5407520">
        <ele>1065.6</ele>
        <time>2023-01-14T13:43:25Z</time>
      </trkpt>
      <trkpt lat="42.6833910" lon="-0.5407670">
        <ele>1064.4</ele>
        <time>2023-01-14T13:43:26Z</time>
      </trkpt>
      <trkpt lat="42.6833430" lon="-0.5407730">
        <ele>1063.0</ele>
        <time>2023-01-14T13:43:27Z</time>
      </trkpt>
      <trkpt lat="42.6832880" lon="-0.5407790">
        <ele>1061.4</ele>
        <time>2023-01-14T13:43:28Z</time>
      </trkpt>
      <trkpt lat="42.6832280" lon="-0.5407960">
        <ele>1059.4</ele>
        <time>2023-01-14T13:43:29Z</time>
      </trkpt>
      <trkpt lat="42.6831630" lon="-0.5408230">
        <ele>1057.8</ele>
        <time>2023-01-14T13:43:30Z</time>
      </trkpt>
      <trkpt lat="42.6830860" lon="-0.5408570">
        <ele>1055.2</ele>
        <time>2023-01-14T13:43:31Z</time>
      </trkpt>
      <trkpt lat="42.6830050" lon="-0.5409070">
        <ele>1053.4</ele>
        <time>2023-01-14T13:43:32Z</time>
      </trkpt>
      <trkpt lat="42.6829340" lon="-0.5409590">
        <ele>1051.8</ele>
        <time>2023-01-14T13:43:33Z</time>
      </trkpt>
      <trkpt lat="42.6828800" lon="-0.5409960">
        <ele>1049.6</ele>
        <time>2023-01-14T13:43:34Z</time>
      </trkpt>
      <trkpt lat="42.6828390" lon="-0.5410150">
        <ele>1048.4</ele>
        <time>2023-01-14T13:43:35Z</time>
      </trkpt>
      <trkpt lat="42.6828140" lon="-0.5410070">
        <ele>1047.2</ele>
        <time>2023-01-14T13:43:36Z</time>
      </trkpt>
      <trkpt lat="42.6827950" lon="-0.5409780">
        <ele>1046.2</ele>
        <time>2023-01-14T13:43:37Z</time>
      </trkpt>
      <trkpt lat="42.6827820" lon="-0.5409380">
        <ele>1045.2</ele>
        <time>2023-01-14T13:43:38Z</time>
      </trkpt>
      <trkpt lat="42.6827790" lon="-0.5409010">
        <ele>1044.6</ele>
        <time>2023-01-14T13:43:39Z</time>
      </trkpt>
      <trkpt lat="42.6827800" lon="-0.5408770">
        <ele>1044.0</ele>
        <time>2023-01-14T13:43:40Z</time>
      </trkpt>
      <trkpt lat="42.6827810" lon="-0.5408570">
        <ele>1043.4</ele>
        <time>2023-01-14T13:43:41Z</time>
      </trkpt>
      <trkpt lat="42.6827810" lon="-0.5408420">
        <ele>1043.0</ele>
        <time>2023-01-14T13:43:42Z</time>
      </trkpt>
      <trkpt lat="42.6827800" lon="-0.5408380">
        <ele>1042.8</ele>
        <time>2023-01-14T13:43:43Z</time>
      </trkpt>
      <trkpt lat="42.6827810" lon="-0.5408350">
        <ele>1042.4</ele>
        <time>2023-01-14T13:43:44Z</time>
      </trkpt>
      <trkpt lat="42.6827820" lon="-0.5408340">
        <ele>1042.2</ele>
        <time>2023-01-14T13:43:45Z</time>
      </trkpt>
      <trkpt lat="42.6827830" lon="-0.5408330">
        <ele>1042.2</ele>
        <time>2023-01-14T13:43:46Z</time>
      </trkpt>
      <trkpt lat="42.6827830" lon="-0.5408330">
        <ele>1042.0</ele>
        <time>2023-01-14T13:43:47Z</time>
      </trkpt>
      <trkpt lat="42.6827830" lon="-0.5408320">
        <ele>1042.0</ele>
        <time>2023-01-14T13:43:48Z</time>
      </trkpt>
      <trkpt lat="42.6827830" lon="-0.5408320">
        <ele>1042.2</ele>
        <time>2023-01-14T13:43:49Z</time>
      </trkpt>
      <trkpt lat="42.6827830" lon="-0.5408320">
        <ele>1042.0</ele>
        <time>2023-01-14T13:43:50Z</time>
      </trkpt>
      <trkpt lat="42.6827830" lon="-0.5408320">
        <ele>1042.0</ele>
        <time>2023-01-14T13:43:51Z</time>
      </trkpt>
      <trkpt lat="42.6827830" lon="-0.5408320">
        <ele>1042.0</ele>
        <time>2023-01-14T13:43:52Z</time>
      </trkpt>
      <trkpt lat="42.6827830" lon="-0.5408320">
        <ele>1042.0</ele>
        <time>2023-01-14T13:43:53Z</time>
      </trkpt>
      <trkpt lat="42.6827830" lon="-0.5408320">
        <ele>1042.0</ele>
        <time>2023-01-14T13:43:54Z</time>
      </trkpt>
      <trkpt lat="42.6827830" lon="-0.5408320">
        <ele>1042.0</ele>
        <time>2023-01-14T13:43:55Z</time>
      </trkpt>
      <trkpt lat="42.6827830" lon="-0.5408320">
        <ele>1042.0</ele>
        <time>2023-01-14T13:43:56Z</time>
      </trkpt>
      <trkpt lat="42.6827830" lon="-0.5408320">
        <ele>1042.0</ele>
        <time>2023-01-14T13:43:57Z</time>
      </trkpt>
      <trkpt lat="42.6827830" lon="-0.5408330">
        <ele>1041.8</ele>
        <time>2023-01-14T13:43:58Z</time>
      </trkpt>
      <trkpt lat="42.6827830" lon="-0.5408330">
        <ele>1041.8</ele>
        <time>2023-01-14T13:43:59Z</time>
      </trkpt>
      <trkpt lat="42.6827830" lon="-0.5408330">
        <ele>1041.8</ele>
        <time>2023-01-14T13:44:00Z</time>
      </trkpt>
      <trkpt lat="42.6827830" lon="-0.5408330">
        <ele>1041.8</ele>
        <time>2023-01-14T13:44:01Z</time>
      </trkpt>
      <trkpt lat="42.6827830" lon="-0.5408330">
        <ele>1041.8</ele>
        <time>2023-01-14T13:44:02Z</time>
      </trkpt>
      <trkpt lat="42.6827830" lon="-0.5408330">
        <ele>1041.6</ele>
        <time>2023-01-14T13:44:03Z</time>
      </trkpt>
      <trkpt lat="42.6827830" lon="-0.5408330">
        <ele>1041.4</ele>
        <time>2023-01-14T13:44:04Z</time>
      </trkpt>
      <trkpt lat="42.6827830" lon="-0.5408330">
        <ele>1041.4</ele>
        <time>2023-01-14T13:44:05Z</time>
      </trkpt>
      <trkpt lat="42.6827830" lon="-0.5408330">
        <ele>1041.2</ele>
        <time>2023-01-14T13:44:06Z</time>
      </trkpt>
      <trkpt lat="42.6827830" lon="-0.5408330">
        <ele>1041.0</ele>
        <time>2023-01-14T13:44:07Z</time>
      </trkpt>
      <trkpt lat="42.6827830" lon="-0.5408330">
        <ele>1041.0</ele>
        <time>2023-01-14T13:44:08Z</time>
      </trkpt>
      <trkpt lat="42.6827830" lon="-0.5408340">
        <ele>1041.0</ele>
        <time>2023-01-14T13:44:09Z</time>
      </trkpt>
      <trkpt lat="42.6827830" lon="-0.5408340">
        <ele>1041.0</ele>
        <time>2023-01-14T13:44:10Z</time>
      </trkpt>
      <trkpt lat="42.6827830" lon="-0.5408350">
        <ele>1040.8</ele>
        <time>2023-01-14T13:44:11Z</time>
      </trkpt>
      <trkpt lat="42.6827840" lon="-0.5408350">
        <ele>1040.8</ele>
        <time>2023-01-14T13:44:12Z</time>
      </trkpt>
      <trkpt lat="42.6827840" lon="-0.5408360">
        <ele>1040.8</ele>
        <time>2023-01-14T13:44:13Z</time>
      </trkpt>
      <trkpt lat="42.6827850" lon="-0.5408360">
        <ele>1041.0</ele>
        <time>2023-01-14T13:44:14Z</time>
      </trkpt>
      <trkpt lat="42.6827840" lon="-0.5408360">
        <ele>1041.2</ele>
        <time>2023-01-14T13:44:15Z</time>
      </trkpt>
      <trkpt lat="42.6827840" lon="-0.5408360">
        <ele>1041.2</ele>
        <time>2023-01-14T13:44:16Z</time>
      </trkpt>
      <trkpt lat="42.6827850" lon="-0.5408370">
        <ele>1041.2</ele>
        <time>2023-01-14T13:44:17Z</time>
      </trkpt>
      <trkpt lat="42.6827850" lon="-0.5408370">
        <ele>1041.2</ele>
        <time>2023-01-14T13:44:18Z</time>
      </trkpt>
      <trkpt lat="42.6827850" lon="-0.5408380">
        <ele>1041.2</ele>
        <time>2023-01-14T13:44:19Z</time>
      </trkpt>
      <trkpt lat="42.6827850" lon="-0.5408380">
        <ele>1041.2</ele>
        <time>2023-01-14T13:44:20Z</time>
      </trkpt>
      <trkpt lat="42.6827850" lon="-0.5408380">
        <ele>1041.2</ele>
        <time>2023-01-14T13:44:21Z</time>
      </trkpt>
      <trkpt lat="42.6827850" lon="-0.5408380">
        <ele>1041.2</ele>
        <time>2023-01-14T13:44:22Z</time>
      </trkpt>
      <trkpt lat="42.6827860" lon="-0.5408380">
        <ele>1041.0</ele>
        <time>2023-01-14T13:44:23Z</time>
      </trkpt>
      <trkpt lat="42.6827860" lon="-0.5408380">
        <ele>1041.4</ele>
        <time>2023-01-14T13:44:24Z</time>
      </trkpt>
      <trkpt lat="42.6827860" lon="-0.5408380">
        <ele>1041.4</ele>
        <time>2023-01-14T13:44:25Z</time>
      </trkpt>
      <trkpt lat="42.6827860" lon="-0.5408380">
        <ele>1041.6</ele>
        <time>2023-01-14T13:44:26Z</time>
      </trkpt>
      <trkpt lat="42.6827870" lon="-0.5408390">
        <ele>1041.6</ele>
        <time>2023-01-14T13:44:27Z</time>
      </trkpt>
      <trkpt lat="42.6827870" lon="-0.5408390">
        <ele>1041.4</ele>
        <time>2023-01-14T13:44:28Z</time>
      </trkpt>
      <trkpt lat="42.6827870" lon="-0.5408390">
        <ele>1041.2</ele>
        <time>2023-01-14T13:44:29Z</time>
      </trkpt>
      <trkpt lat="42.6827870" lon="-0.5408390">
        <ele>1041.2</ele>
        <time>2023-01-14T13:44:30Z</time>
      </trkpt>
      <trkpt lat="42.6827870" lon="-0.5408400">
        <ele>1041.2</ele>
        <time>2023-01-14T13:44:31Z</time>
      </trkpt>
      <trkpt lat="42.6827880" lon="-0.5408400">
        <ele>1041.2</ele>
        <time>2023-01-14T13:44:32Z</time>
      </trkpt>
      <trkpt lat="42.6827880" lon="-0.5408400">
        <ele>1041.2</ele>
        <time>2023-01-14T13:44:33Z</time>
      </trkpt>
      <trkpt lat="42.6827880" lon="-0.5408400">
        <ele>1041.2</ele>
        <time>2023-01-14T13:44:34Z</time>
      </trkpt>
      <trkpt lat="42.6827880" lon="-0.5408400">
        <ele>1041.2</ele>
        <time>2023-01-14T13:44:35Z</time>
      </trkpt>
      <trkpt lat="42.6827890" lon="-0.5408400">
        <ele>1041.2</ele>
        <time>2023-01-14T13:44:36Z</time>
      </trkpt>
      <trkpt lat="42.6827890" lon="-0.5408400">
        <ele>1041.2</ele>
        <time>2023-01-14T13:44:37Z</time>
      </trkpt>
      <trkpt lat="42.6827890" lon="-0.5408400">
        <ele>1041.2</ele>
        <time>2023-01-14T13:44:38Z</time>
      </trkpt>
      <trkpt lat="42.6827890" lon="-0.5408400">
        <ele>1041.2</ele>
        <time>2023-01-14T13:44:39Z</time>
      </trkpt>
      <trkpt lat="42.6827890" lon="-0.5408400">
        <ele>1041.2</ele>
        <time>2023-01-14T13:44:40Z</time>
      </trkpt>
      <trkpt lat="42.6827900" lon="-0.5408400">
        <ele>1041.2</ele>
        <time>2023-01-14T13:44:41Z</time>
      </trkpt>
      <trkpt lat="42.6827900" lon="-0.5408400">
        <ele>1041.2</ele>
        <time>2023-01-14T13:44:42Z</time>
      </trkpt>
      <trkpt lat="42.6827900" lon="-0.5408390">
        <ele>1041.2</ele>
        <time>2023-01-14T13:44:43Z</time>
      </trkpt>
      <trkpt lat="42.6827900" lon="-0.5408390">
        <ele>1041.2</ele>
        <time>2023-01-14T13:44:44Z</time>
      </trkpt>
      <trkpt lat="42.6827900" lon="-0.5408390">
        <ele>1041.2</ele>
        <time>2023-01-14T13:44:45Z</time>
      </trkpt>
      <trkpt lat="42.6827900" lon="-0.5408390">
        <ele>1041.2</ele>
        <time>2023-01-14T13:44:46Z</time>
      </trkpt>
      <trkpt lat="42.6827900" lon="-0.5408390">
        <ele>1041.4</ele>
        <time>2023-01-14T13:44:47Z</time>
      </trkpt>
      <trkpt lat="42.6827900" lon="-0.5408380">
        <ele>1041.4</ele>
        <time>2023-01-14T13:44:48Z</time>
      </trkpt>
      <trkpt lat="42.6827910" lon="-0.5408380">
        <ele>1041.6</ele>
        <time>2023-01-14T13:44:49Z</time>
      </trkpt>
      <trkpt lat="42.6827910" lon="-0.5408380">
        <ele>1041.6</ele>
        <time>2023-01-14T13:44:50Z</time>
      </trkpt>
      <trkpt lat="42.6827910" lon="-0.5408380">
        <ele>1041.8</ele>
        <time>2023-01-14T13:44:51Z</time>
      </trkpt>
      <trkpt lat="42.6827910" lon="-0.5408380">
        <ele>1041.8</ele>
        <time>2023-01-14T13:44:52Z</time>
      </trkpt>
      <trkpt lat="42.6827910" lon="-0.5408380">
        <ele>1041.8</ele>
        <time>2023-01-14T13:44:53Z</time>
      </trkpt>
      <trkpt lat="42.6827910" lon="-0.5408380">
        <ele>1041.8</ele>
        <time>2023-01-14T13:44:54Z</time>
      </trkpt>
      <trkpt lat="42.6827910" lon="-0.5408370">
        <ele>1041.8</ele>
        <time>2023-01-14T13:44:55Z</time>
      </trkpt>
      <trkpt lat="42.6827920" lon="-0.5408370">
        <ele>1041.8</ele>
        <time>2023-01-14T13:44:56Z</time>
      </trkpt>
      <trkpt lat="42.6827920" lon="-0.5408370">
        <ele>1042.0</ele>
        <time>2023-01-14T13:44:57Z</time>
      </trkpt>
      <trkpt lat="42.6827920" lon="-0.5408370">
        <ele>1042.0</ele>
        <time>2023-01-14T13:44:58Z</time>
      </trkpt>
      <trkpt lat="42.6827920" lon="-0.5408370">
        <ele>1042.2</ele>
        <time>2023-01-14T13:44:59Z</time>
      </trkpt>
      <trkpt lat="42.6827920" lon="-0.5408370">
        <ele>1042.2</ele>
        <time>2023-01-14T13:45:00Z</time>
      </trkpt>
      <trkpt lat="42.6827920" lon="-0.5408360">
        <ele>1042.2</ele>
        <time>2023-01-14T13:45:01Z</time>
      </trkpt>
      <trkpt lat="42.6827920" lon="-0.5408360">
        <ele>1042.4</ele>
        <time>2023-01-14T13:45:02Z</time>
      </trkpt>
      <trkpt lat="42.6827920" lon="-0.5408360">
        <ele>1042.4</ele>
        <time>2023-01-14T13:45:03Z</time>
      </trkpt>
      <trkpt lat="42.6827920" lon="-0.5408360">
        <ele>1042.6</ele>
        <time>2023-01-14T13:45:04Z</time>
      </trkpt>
      <trkpt lat="42.6827920" lon="-0.5408360">
        <ele>1042.8</ele>
        <time>2023-01-14T13:45:05Z</time>
      </trkpt>
      <trkpt lat="42.6827920" lon="-0.5408360">
        <ele>1042.8</ele>
        <time>2023-01-14T13:45:06Z</time>
      </trkpt>
      <trkpt lat="42.6827920" lon="-0.5408360">
        <ele>1042.8</ele>
        <time>2023-01-14T13:45:07Z</time>
      </trkpt>
      <trkpt lat="42.6827920" lon="-0.5408370">
        <ele>1042.8</ele>
        <time>2023-01-14T13:45:08Z</time>
      </trkpt>
      <trkpt lat="42.6827920" lon="-0.5408370">
        <ele>1042.8</ele>
        <time>2023-01-14T13:45:09Z</time>
      </trkpt>
      <trkpt lat="42.6827920" lon="-0.5408370">
        <ele>1042.8</ele>
        <time>2023-01-14T13:45:10Z</time>
      </trkpt>
      <trkpt lat="42.6827920" lon="-0.5408370">
        <ele>1042.6</ele>
        <time>2023-01-14T13:45:11Z</time>
      </trkpt>
      <trkpt lat="42.6827920" lon="-0.5408370">
        <ele>1042.6</ele>
        <time>2023-01-14T13:45:12Z</time>
      </trkpt>
      <trkpt lat="42.6827920" lon="-0.5408380">
        <ele>1042.6</ele>
        <time>2023-01-14T13:45:13Z</time>
      </trkpt>
      <trkpt lat="42.6827910" lon="-0.5408380">
        <ele>1042.8</ele>
        <time>2023-01-14T13:45:14Z</time>
      </trkpt>
      <trkpt lat="42.6827910" lon="-0.5408380">
        <ele>1042.8</ele>
        <time>2023-01-14T13:45:15Z</time>
      </trkpt>
      <trkpt lat="42.6827910" lon="-0.5408380">
        <ele>1042.8</ele>
        <time>2023-01-14T13:45:16Z</time>
      </trkpt>
      <trkpt lat="42.6827910" lon="-0.5408380">
        <ele>1043.0</ele>
        <time>2023-01-14T13:45:17Z</time>
      </trkpt>
      <trkpt lat="42.6827910" lon="-0.5408390">
        <ele>1043.0</ele>
        <time>2023-01-14T13:45:18Z</time>
      </trkpt>
      <trkpt lat="42.6827910" lon="-0.5408390">
        <ele>1043.0</ele>
        <time>2023-01-14T13:45:19Z</time>
      </trkpt>
      <trkpt lat="42.6827910" lon="-0.5408390">
        <ele>1043.0</ele>
        <time>2023-01-14T13:45:20Z</time>
      </trkpt>
      <trkpt lat="42.6827900" lon="-0.5408340">
        <ele>1043.0</ele>
        <time>2023-01-14T13:45:21Z</time>
      </trkpt>
      <trkpt lat="42.6827850" lon="-0.5408190">
        <ele>1043.0</ele>
        <time>2023-01-14T13:45:22Z</time>
      </trkpt>
      <trkpt lat="42.6827740" lon="-0.5408010">
        <ele>1043.0</ele>
        <time>2023-01-14T13:45:23Z</time>
      </trkpt>
      <trkpt lat="42.6827580" lon="-0.5407900">
        <ele>1042.8</ele>
        <time>2023-01-14T13:45:24Z</time>
      </trkpt>
      <trkpt lat="42.6827440" lon="-0.5407820">
        <ele>1042.8</ele>
        <time>2023-01-14T13:45:25Z</time>
      </trkpt>
      <trkpt lat="42.6827360" lon="-0.5407740">
        <ele>1042.8</ele>
        <time>2023-01-14T13:45:26Z</time>
      </trkpt>
      <trkpt lat="42.6827310" lon="-0.5407650">
        <ele>1042.6</ele>
        <time>2023-01-14T13:45:27Z</time>
      </trkpt>
      <trkpt lat="42.6827230" lon="-0.5407570">
        <ele>1042.6</ele>
        <time>2023-01-14T13:45:28Z</time>
      </trkpt>
      <trkpt lat="42.6827180" lon="-0.5407490">
        <ele>1042.4</ele>
        <time>2023-01-14T13:45:29Z</time>
      </trkpt>
      <trkpt lat="42.6827140" lon="-0.5407440">
        <ele>1042.4</ele>
        <time>2023-01-14T13:45:30Z</time>
      </trkpt>
      <trkpt lat="42.6827120" lon="-0.5407430">
        <ele>1042.4</ele>
        <time>2023-01-14T13:45:31Z</time>
      </trkpt>
      <trkpt lat="42.6827110" lon="-0.5407430">
        <ele>1042.2</ele>
        <time>2023-01-14T13:45:32Z</time>
      </trkpt>
      <trkpt lat="42.6827100" lon="-0.5407430">
        <ele>1042.2</ele>
        <time>2023-01-14T13:45:33Z</time>
      </trkpt>
      <trkpt lat="42.6827050" lon="-0.5407430">
        <ele>1042.2</ele>
        <time>2023-01-14T13:45:34Z</time>
      </trkpt>
      <trkpt lat="42.6826950" lon="-0.5407390">
        <ele>1042.2</ele>
        <time>2023-01-14T13:45:35Z</time>
      </trkpt>
      <trkpt lat="42.6826800" lon="-0.5407310">
        <ele>1042.4</ele>
        <time>2023-01-14T13:45:36Z</time>
      </trkpt>
      <trkpt lat="42.6826640" lon="-0.5407240">
        <ele>1042.6</ele>
        <time>2023-01-14T13:45:37Z</time>
      </trkpt>
      <trkpt lat="42.6826480" lon="-0.5407240">
        <ele>1042.6</ele>
        <time>2023-01-14T13:45:38Z</time>
      </trkpt>
      <trkpt lat="42.6826380" lon="-0.5407310">
        <ele>1042.6</ele>
        <time>2023-01-14T13:45:39Z</time>
      </trkpt>
      <trkpt lat="42.6826300" lon="-0.5407410">
        <ele>1042.8</ele>
        <time>2023-01-14T13:45:40Z</time>
      </trkpt>
      <trkpt lat="42.6826180" lon="-0.5407490">
        <ele>1042.8</ele>
        <time>2023-01-14T13:45:41Z</time>
      </trkpt>
      <trkpt lat="42.6826060" lon="-0.5407460">
        <ele>1042.8</ele>
        <time>2023-01-14T13:45:42Z</time>
      </trkpt>
      <trkpt lat="42.6825970" lon="-0.5407340">
        <ele>1042.8</ele>
        <time>2023-01-14T13:45:43Z</time>
      </trkpt>
      <trkpt lat="42.6825910" lon="-0.5407170">
        <ele>1042.6</ele>
        <time>2023-01-14T13:45:44Z</time>
      </trkpt>
      <trkpt lat="42.6825850" lon="-0.5406980">
        <ele>1042.6</ele>
        <time>2023-01-14T13:45:45Z</time>
      </trkpt>
      <trkpt lat="42.6825810" lon="-0.5406790">
        <ele>1042.4</ele>
        <time>2023-01-14T13:45:46Z</time>
      </trkpt>
      <trkpt lat="42.6825780" lon="-0.5406620">
        <ele>1042.4</ele>
        <time>2023-01-14T13:45:47Z</time>
      </trkpt>
      <trkpt lat="42.6825740" lon="-0.5406480">
        <ele>1042.4</ele>
        <time>2023-01-14T13:45:48Z</time>
      </trkpt>
      <trkpt lat="42.6825690" lon="-0.5406340">
        <ele>1042.4</ele>
        <time>2023-01-14T13:45:49Z</time>
      </trkpt>
      <trkpt lat="42.6825620" lon="-0.5406160">
        <ele>1042.4</ele>
        <time>2023-01-14T13:45:50Z</time>
      </trkpt>
      <trkpt lat="42.6825550" lon="-0.5405930">
        <ele>1042.4</ele>
        <time>2023-01-14T13:45:51Z</time>
      </trkpt>
      <trkpt lat="42.6825490" lon="-0.5405700">
        <ele>1042.2</ele>
        <time>2023-01-14T13:45:52Z</time>
      </trkpt>
      <trkpt lat="42.6825410" lon="-0.5405490">
        <ele>1042.2</ele>
        <time>2023-01-14T13:45:53Z</time>
      </trkpt>
      <trkpt lat="42.6825340" lon="-0.5405250">
        <ele>1042.0</ele>
        <time>2023-01-14T13:45:54Z</time>
      </trkpt>
      <trkpt lat="42.6825240" lon="-0.5404980">
        <ele>1042.0</ele>
        <time>2023-01-14T13:45:55Z</time>
      </trkpt>
      <trkpt lat="42.6825130" lon="-0.5404690">
        <ele>1041.8</ele>
        <time>2023-01-14T13:45:56Z</time>
      </trkpt>
      <trkpt lat="42.6825020" lon="-0.5404390">
        <ele>1041.6</ele>
        <time>2023-01-14T13:45:57Z</time>
      </trkpt>
      <trkpt lat="42.6824940" lon="-0.5404090">
        <ele>1041.4</ele>
        <time>2023-01-14T13:45:58Z</time>
      </trkpt>
      <trkpt lat="42.6824900" lon="-0.5403810">
        <ele>1041.2</ele>
        <time>2023-01-14T13:45:59Z</time>
      </trkpt>
      <trkpt lat="42.6824860" lon="-0.5403540">
        <ele>1041.0</ele>
        <time>2023-01-14T13:46:00Z</time>
      </trkpt>
      <trkpt lat="42.6824810" lon="-0.5403290">
        <ele>1040.8</ele>
        <time>2023-01-14T13:46:01Z</time>
      </trkpt>
      <trkpt lat="42.6824770" lon="-0.5403010">
        <ele>1040.6</ele>
        <time>2023-01-14T13:46:02Z</time>
      </trkpt>
      <trkpt lat="42.6824730" lon="-0.5402710">
        <ele>1040.4</ele>
        <time>2023-01-14T13:46:03Z</time>
      </trkpt>
      <trkpt lat="42.6824660" lon="-0.5402380">
        <ele>1040.2</ele>
        <time>2023-01-14T13:46:04Z</time>
      </trkpt>
      <trkpt lat="42.6824580" lon="-0.5402030">
        <ele>1040.0</ele>
        <time>2023-01-14T13:46:05Z</time>
      </trkpt>
      <trkpt lat="42.6824520" lon="-0.5401650">
        <ele>1039.6</ele>
        <time>2023-01-14T13:46:06Z</time>
      </trkpt>
      <trkpt lat="42.6824420" lon="-0.5401260">
        <ele>1039.4</ele>
        <time>2023-01-14T13:46:07Z</time>
      </trkpt>
      <trkpt lat="42.6824320" lon="-0.5400900">
        <ele>1039.2</ele>
        <time>2023-01-14T13:46:08Z</time>
      </trkpt>
      <trkpt lat="42.6824250" lon="-0.5400560">
        <ele>1039.0</ele>
        <time>2023-01-14T13:46:09Z</time>
      </trkpt>
      <trkpt lat="42.6824160" lon="-0.5400230">
        <ele>1038.8</ele>
        <time>2023-01-14T13:46:10Z</time>
      </trkpt>
      <trkpt lat="42.6824060" lon="-0.5399910">
        <ele>1038.4</ele>
        <time>2023-01-14T13:46:11Z</time>
      </trkpt>
      <trkpt lat="42.6823990" lon="-0.5399590">
        <ele>1038.0</ele>
        <time>2023-01-14T13:46:12Z</time>
      </trkpt>
      <trkpt lat="42.6823950" lon="-0.5399260">
        <ele>1037.8</ele>
        <time>2023-01-14T13:46:13Z</time>
      </trkpt>
      <trkpt lat="42.6823890" lon="-0.5398920">
        <ele>1037.8</ele>
        <time>2023-01-14T13:46:14Z</time>
      </trkpt>
      <trkpt lat="42.6823800" lon="-0.5398570">
        <ele>1037.6</ele>
        <time>2023-01-14T13:46:15Z</time>
      </trkpt>
      <trkpt lat="42.6823710" lon="-0.5398210">
        <ele>1037.2</ele>
        <time>2023-01-14T13:46:16Z</time>
      </trkpt>
      <trkpt lat="42.6823630" lon="-0.5397830">
        <ele>1037.0</ele>
        <time>2023-01-14T13:46:17Z</time>
      </trkpt>
      <trkpt lat="42.6823530" lon="-0.5397380">
        <ele>1036.8</ele>
        <time>2023-01-14T13:46:18Z</time>
      </trkpt>
      <trkpt lat="42.6823420" lon="-0.5396860">
        <ele>1036.6</ele>
        <time>2023-01-14T13:46:19Z</time>
      </trkpt>
      <trkpt lat="42.6823300" lon="-0.5396290">
        <ele>1036.6</ele>
        <time>2023-01-14T13:46:20Z</time>
      </trkpt>
      <trkpt lat="42.6823220" lon="-0.5395720">
        <ele>1036.4</ele>
        <time>2023-01-14T13:46:21Z</time>
      </trkpt>
      <trkpt lat="42.6823140" lon="-0.5395200">
        <ele>1036.2</ele>
        <time>2023-01-14T13:46:22Z</time>
      </trkpt>
      <trkpt lat="42.6823040" lon="-0.5394740">
        <ele>1035.6</ele>
        <time>2023-01-14T13:46:23Z</time>
      </trkpt>
      <trkpt lat="42.6822940" lon="-0.5394240">
        <ele>1035.2</ele>
        <time>2023-01-14T13:46:24Z</time>
      </trkpt>
      <trkpt lat="42.6822850" lon="-0.5393710">
        <ele>1034.8</ele>
        <time>2023-01-14T13:46:25Z</time>
      </trkpt>
      <trkpt lat="42.6822730" lon="-0.5393210">
        <ele>1034.6</ele>
        <time>2023-01-14T13:46:26Z</time>
      </trkpt>
      <trkpt lat="42.6822620" lon="-0.5392760">
        <ele>1034.4</ele>
        <time>2023-01-14T13:46:27Z</time>
      </trkpt>
      <trkpt lat="42.6822510" lon="-0.5392300">
        <ele>1034.2</ele>
        <time>2023-01-14T13:46:28Z</time>
      </trkpt>
      <trkpt lat="42.6822370" lon="-0.5391840">
        <ele>1033.6</ele>
        <time>2023-01-14T13:46:29Z</time>
      </trkpt>
      <trkpt lat="42.6822200" lon="-0.5391330">
        <ele>1032.8</ele>
        <time>2023-01-14T13:46:30Z</time>
      </trkpt>
      <trkpt lat="42.6822070" lon="-0.5390780">
        <ele>1032.4</ele>
        <time>2023-01-14T13:46:31Z</time>
      </trkpt>
      <trkpt lat="42.6821960" lon="-0.5390220">
        <ele>1032.2</ele>
        <time>2023-01-14T13:46:32Z</time>
      </trkpt>
      <trkpt lat="42.6821860" lon="-0.5389670">
        <ele>1032.0</ele>
        <time>2023-01-14T13:46:33Z</time>
      </trkpt>
      <trkpt lat="42.6821750" lon="-0.5389150">
        <ele>1031.4</ele>
        <time>2023-01-14T13:46:34Z</time>
      </trkpt>
      <trkpt lat="42.6821640" lon="-0.5388650">
        <ele>1031.0</ele>
        <time>2023-01-14T13:46:35Z</time>
      </trkpt>
      <trkpt lat="42.6821550" lon="-0.5388200">
        <ele>1030.8</ele>
        <time>2023-01-14T13:46:36Z</time>
      </trkpt>
      <trkpt lat="42.6821490" lon="-0.5387790">
        <ele>1030.2</ele>
        <time>2023-01-14T13:46:37Z</time>
      </trkpt>
      <trkpt lat="42.6821420" lon="-0.5387370">
        <ele>1030.0</ele>
        <time>2023-01-14T13:46:38Z</time>
      </trkpt>
      <trkpt lat="42.6821340" lon="-0.5386930">
        <ele>1029.6</ele>
        <time>2023-01-14T13:46:39Z</time>
      </trkpt>
      <trkpt lat="42.6821240" lon="-0.5386480">
        <ele>1029.4</ele>
        <time>2023-01-14T13:46:40Z</time>
      </trkpt>
      <trkpt lat="42.6821130" lon="-0.5386040">
        <ele>1029.2</ele>
        <time>2023-01-14T13:46:41Z</time>
      </trkpt>
      <trkpt lat="42.6821030" lon="-0.5385590">
        <ele>1028.6</ele>
        <time>2023-01-14T13:46:42Z</time>
      </trkpt>
      <trkpt lat="42.6820950" lon="-0.5385100">
        <ele>1028.4</ele>
        <time>2023-01-14T13:46:43Z</time>
      </trkpt>
      <trkpt lat="42.6820870" lon="-0.5384610">
        <ele>1028.0</ele>
        <time>2023-01-14T13:46:44Z</time>
      </trkpt>
      <trkpt lat="42.6820800" lon="-0.5384120">
        <ele>1027.6</ele>
        <time>2023-01-14T13:46:45Z</time>
      </trkpt>
      <trkpt lat="42.6820740" lon="-0.5383660">
        <ele>1027.2</ele>
        <time>2023-01-14T13:46:46Z</time>
      </trkpt>
      <trkpt lat="42.6820680" lon="-0.5383240">
        <ele>1026.8</ele>
        <time>2023-01-14T13:46:47Z</time>
      </trkpt>
      <trkpt lat="42.6820590" lon="-0.5382830">
        <ele>1026.4</ele>
        <time>2023-01-14T13:46:48Z</time>
      </trkpt>
      <trkpt lat="42.6820460" lon="-0.5382400">
        <ele>1026.0</ele>
        <time>2023-01-14T13:46:49Z</time>
      </trkpt>
      <trkpt lat="42.6820340" lon="-0.5381940">
        <ele>1026.0</ele>
        <time>2023-01-14T13:46:50Z</time>
      </trkpt>
      <trkpt lat="42.6820210" lon="-0.5381450">
        <ele>1025.8</ele>
        <time>2023-01-14T13:46:51Z</time>
      </trkpt>
      <trkpt lat="42.6820070" lon="-0.5380940">
        <ele>1025.8</ele>
        <time>2023-01-14T13:46:52Z</time>
      </trkpt>
      <trkpt lat="42.6819940" lon="-0.5380400">
        <ele>1025.2</ele>
        <time>2023-01-14T13:46:53Z</time>
      </trkpt>
      <trkpt lat="42.6819830" lon="-0.5379840">
        <ele>1024.6</ele>
        <time>2023-01-14T13:46:54Z</time>
      </trkpt>
      <trkpt lat="42.6819710" lon="-0.5379310">
        <ele>1024.4</ele>
        <time>2023-01-14T13:46:55Z</time>
      </trkpt>
      <trkpt lat="42.6819560" lon="-0.5378840">
        <ele>1023.8</ele>
        <time>2023-01-14T13:46:56Z</time>
      </trkpt>
      <trkpt lat="42.6819380" lon="-0.5378440">
        <ele>1023.0</ele>
        <time>2023-01-14T13:46:57Z</time>
      </trkpt>
      <trkpt lat="42.6819170" lon="-0.5378070">
        <ele>1022.6</ele>
        <time>2023-01-14T13:46:58Z</time>
      </trkpt>
      <trkpt lat="42.6818890" lon="-0.5377790">
        <ele>1022.2</ele>
        <time>2023-01-14T13:46:59Z</time>
      </trkpt>
      <trkpt lat="42.6818520" lon="-0.5377670">
        <ele>1022.0</ele>
        <time>2023-01-14T13:47:00Z</time>
      </trkpt>
      <trkpt lat="42.6818130" lon="-0.5377650">
        <ele>1021.8</ele>
        <time>2023-01-14T13:47:01Z</time>
      </trkpt>
      <trkpt lat="42.6817780" lon="-0.5377720">
        <ele>1021.6</ele>
        <time>2023-01-14T13:47:02Z</time>
      </trkpt>
      <trkpt lat="42.6817460" lon="-0.5377860">
        <ele>1021.4</ele>
        <time>2023-01-14T13:47:03Z</time>
      </trkpt>
      <trkpt lat="42.6817150" lon="-0.5378000">
        <ele>1021.4</ele>
        <time>2023-01-14T13:47:04Z</time>
      </trkpt>
      <trkpt lat="42.6816840" lon="-0.5378140">
        <ele>1021.4</ele>
        <time>2023-01-14T13:47:05Z</time>
      </trkpt>
      <trkpt lat="42.6816540" lon="-0.5378300">
        <ele>1021.2</ele>
        <time>2023-01-14T13:47:06Z</time>
      </trkpt>
      <trkpt lat="42.6816250" lon="-0.5378480">
        <ele>1021.2</ele>
        <time>2023-01-14T13:47:07Z</time>
      </trkpt>
      <trkpt lat="42.6815980" lon="-0.5378680">
        <ele>1021.2</ele>
        <time>2023-01-14T13:47:08Z</time>
      </trkpt>
      <trkpt lat="42.6815710" lon="-0.5378840">
        <ele>1021.2</ele>
        <time>2023-01-14T13:47:09Z</time>
      </trkpt>
      <trkpt lat="42.6815430" lon="-0.5378960">
        <ele>1021.2</ele>
        <time>2023-01-14T13:47:10Z</time>
      </trkpt>
      <trkpt lat="42.6815150" lon="-0.5379080">
        <ele>1021.4</ele>
        <time>2023-01-14T13:47:11Z</time>
      </trkpt>
      <trkpt lat="42.6814880" lon="-0.5379210">
        <ele>1021.4</ele>
        <time>2023-01-14T13:47:12Z</time>
      </trkpt>
      <trkpt lat="42.6814630" lon="-0.5379380">
        <ele>1021.4</ele>
        <time>2023-01-14T13:47:13Z</time>
      </trkpt>
      <trkpt lat="42.6814370" lon="-0.5379530">
        <ele>1021.4</ele>
        <time>2023-01-14T13:47:14Z</time>
      </trkpt>
      <trkpt lat="42.6814120" lon="-0.5379680">
        <ele>1021.4</ele>
        <time>2023-01-14T13:47:15Z</time>
      </trkpt>
      <trkpt lat="42.6813890" lon="-0.5379830">
        <ele>1021.4</ele>
        <time>2023-01-14T13:47:16Z</time>
      </trkpt>
      <trkpt lat="42.6813660" lon="-0.5379970">
        <ele>1021.4</ele>
        <time>2023-01-14T13:47:17Z</time>
      </trkpt>
      <trkpt lat="42.6813420" lon="-0.5380050">
        <ele>1021.4</ele>
        <time>2023-01-14T13:47:18Z</time>
      </trkpt>
      <trkpt lat="42.6813160" lon="-0.5380030">
        <ele>1021.2</ele>
        <time>2023-01-14T13:47:19Z</time>
      </trkpt>
      <trkpt lat="42.6812940" lon="-0.5379840">
        <ele>1021.0</ele>
        <time>2023-01-14T13:47:20Z</time>
      </trkpt>
      <trkpt lat="42.6812810" lon="-0.5379500">
        <ele>1020.8</ele>
        <time>2023-01-14T13:47:21Z</time>
      </trkpt>
      <trkpt lat="42.6812720" lon="-0.5379070">
        <ele>1020.6</ele>
        <time>2023-01-14T13:47:22Z</time>
      </trkpt>
      <trkpt lat="42.6812630" lon="-0.5378590">
        <ele>1020.4</ele>
        <time>2023-01-14T13:47:23Z</time>
      </trkpt>
      <trkpt lat="42.6812550" lon="-0.5378100">
        <ele>1020.2</ele>
        <time>2023-01-14T13:47:24Z</time>
      </trkpt>
      <trkpt lat="42.6812420" lon="-0.5377630">
        <ele>1020.2</ele>
        <time>2023-01-14T13:47:25Z</time>
      </trkpt>
      <trkpt lat="42.6812260" lon="-0.5377140">
        <ele>1020.0</ele>
        <time>2023-01-14T13:47:26Z</time>
      </trkpt>
      <trkpt lat="42.6812110" lon="-0.5376600">
        <ele>1019.8</ele>
        <time>2023-01-14T13:47:27Z</time>
      </trkpt>
      <trkpt lat="42.6811940" lon="-0.5376010">
        <ele>1019.6</ele>
        <time>2023-01-14T13:47:28Z</time>
      </trkpt>
      <trkpt lat="42.6811750" lon="-0.5375350">
        <ele>1019.2</ele>
        <time>2023-01-14T13:47:29Z</time>
      </trkpt>
      <trkpt lat="42.6811560" lon="-0.5374650">
        <ele>1018.4</ele>
        <time>2023-01-14T13:47:30Z</time>
      </trkpt>
      <trkpt lat="42.6811360" lon="-0.5373900">
        <ele>1018.0</ele>
        <time>2023-01-14T13:47:31Z</time>
      </trkpt>
      <trkpt lat="42.6811160" lon="-0.5373150">
        <ele>1017.6</ele>
        <time>2023-01-14T13:47:32Z</time>
      </trkpt>
      <trkpt lat="42.6810940" lon="-0.5372420">
        <ele>1017.4</ele>
        <time>2023-01-14T13:47:33Z</time>
      </trkpt>
      <trkpt lat="42.6810720" lon="-0.5371660">
        <ele>1017.0</ele>
        <time>2023-01-14T13:47:34Z</time>
      </trkpt>
      <trkpt lat="42.6810490" lon="-0.5370890">
        <ele>1016.6</ele>
        <time>2023-01-14T13:47:35Z</time>
      </trkpt>
      <trkpt lat="42.6810280" lon="-0.5370110">
        <ele>1016.2</ele>
        <time>2023-01-14T13:47:36Z</time>
      </trkpt>
      <trkpt lat="42.6810090" lon="-0.5369370">
        <ele>1016.0</ele>
        <time>2023-01-14T13:47:37Z</time>
      </trkpt>
      <trkpt lat="42.6809890" lon="-0.5368660">
        <ele>1015.6</ele>
        <time>2023-01-14T13:47:38Z</time>
      </trkpt>
      <trkpt lat="42.6809710" lon="-0.5367990">
        <ele>1014.8</ele>
        <time>2023-01-14T13:47:39Z</time>
      </trkpt>
      <trkpt lat="42.6809540" lon="-0.5367380">
        <ele>1014.4</ele>
        <time>2023-01-14T13:47:40Z</time>
      </trkpt>
      <trkpt lat="42.6809380" lon="-0.5366790">
        <ele>1014.0</ele>
        <time>2023-01-14T13:47:41Z</time>
      </trkpt>
      <trkpt lat="42.6809210" lon="-0.5366210">
        <ele>1013.2</ele>
        <time>2023-01-14T13:47:42Z</time>
      </trkpt>
      <trkpt lat="42.6809040" lon="-0.5365650">
        <ele>1012.6</ele>
        <time>2023-01-14T13:47:43Z</time>
      </trkpt>
      <trkpt lat="42.6808890" lon="-0.5365170">
        <ele>1012.4</ele>
        <time>2023-01-14T13:47:44Z</time>
      </trkpt>
      <trkpt lat="42.6808740" lon="-0.5364800">
        <ele>1012.2</ele>
        <time>2023-01-14T13:47:45Z</time>
      </trkpt>
      <trkpt lat="42.6808560" lon="-0.5364490">
        <ele>1011.8</ele>
        <time>2023-01-14T13:47:46Z</time>
      </trkpt>
      <trkpt lat="42.6808380" lon="-0.5364230">
        <ele>1011.6</ele>
        <time>2023-01-14T13:47:47Z</time>
      </trkpt>
      <trkpt lat="42.6808270" lon="-0.5364040">
        <ele>1011.4</ele>
        <time>2023-01-14T13:47:48Z</time>
      </trkpt>
      <trkpt lat="42.6808230" lon="-0.5363910">
        <ele>1011.2</ele>
        <time>2023-01-14T13:47:49Z</time>
      </trkpt>
      <trkpt lat="42.6808210" lon="-0.5363830">
        <ele>1011.2</ele>
        <time>2023-01-14T13:47:50Z</time>
      </trkpt>
      <trkpt lat="42.6808200" lon="-0.5363790">
        <ele>1011.2</ele>
        <time>2023-01-14T13:47:51Z</time>
      </trkpt>
      <trkpt lat="42.6808180" lon="-0.5363790">
        <ele>1011.2</ele>
        <time>2023-01-14T13:47:52Z</time>
      </trkpt>
      <trkpt lat="42.6808180" lon="-0.5363780">
        <ele>1011.2</ele>
        <time>2023-01-14T13:47:53Z</time>
      </trkpt>
      <trkpt lat="42.6808180" lon="-0.5363780">
        <ele>1011.2</ele>
        <time>2023-01-14T13:47:54Z</time>
      </trkpt>
      <trkpt lat="42.6808170" lon="-0.5363780">
        <ele>1011.2</ele>
        <time>2023-01-14T13:47:55Z</time>
      </trkpt>
      <trkpt lat="42.6808180" lon="-0.5363810">
        <ele>1011.2</ele>
        <time>2023-01-14T13:47:56Z</time>
      </trkpt>
      <trkpt lat="42.6808190" lon="-0.5363830">
        <ele>1011.2</ele>
        <time>2023-01-14T13:47:57Z</time>
      </trkpt>
      <trkpt lat="42.6808180" lon="-0.5363820">
        <ele>1011.2</ele>
        <time>2023-01-14T13:47:58Z</time>
      </trkpt>
      <trkpt lat="42.6808180" lon="-0.5363820">
        <ele>1011.2</ele>
        <time>2023-01-14T13:47:59Z</time>
      </trkpt>
      <trkpt lat="42.6808180" lon="-0.5363810">
        <ele>1011.2</ele>
        <time>2023-01-14T13:48:00Z</time>
      </trkpt>
      <trkpt lat="42.6808180" lon="-0.5363810">
        <ele>1011.4</ele>
        <time>2023-01-14T13:48:01Z</time>
      </trkpt>
      <trkpt lat="42.6808180" lon="-0.5363800">
        <ele>1011.4</ele>
        <time>2023-01-14T13:48:02Z</time>
      </trkpt>
      <trkpt lat="42.6808180" lon="-0.5363800">
        <ele>1011.4</ele>
        <time>2023-01-14T13:48:03Z</time>
      </trkpt>
      <trkpt lat="42.6808180" lon="-0.5363800">
        <ele>1011.4</ele>
        <time>2023-01-14T13:48:04Z</time>
      </trkpt>
      <trkpt lat="42.6808180" lon="-0.5363790">
        <ele>1011.4</ele>
        <time>2023-01-14T13:48:05Z</time>
      </trkpt>
      <trkpt lat="42.6808180" lon="-0.5363790">
        <ele>1011.4</ele>
        <time>2023-01-14T13:48:06Z</time>
      </trkpt>
      <trkpt lat="42.6808180" lon="-0.5363790">
        <ele>1011.4</ele>
        <time>2023-01-14T13:48:07Z</time>
      </trkpt>
      <trkpt lat="42.6808180" lon="-0.5363780">
        <ele>1011.2</ele>
        <time>2023-01-14T13:48:08Z</time>
      </trkpt>
      <trkpt lat="42.6808180" lon="-0.5363780">
        <ele>1011.2</ele>
        <time>2023-01-14T13:48:09Z</time>
      </trkpt>
      <trkpt lat="42.6808190" lon="-0.5363780">
        <ele>1011.2</ele>
        <time>2023-01-14T13:48:10Z</time>
      </trkpt>
      <trkpt lat="42.6808190" lon="-0.5363780">
        <ele>1011.2</ele>
        <time>2023-01-14T13:48:11Z</time>
      </trkpt>
      <trkpt lat="42.6808190" lon="-0.5363770">
        <ele>1011.2</ele>
        <time>2023-01-14T13:48:12Z</time>
      </trkpt>
      <trkpt lat="42.6808190" lon="-0.5363770">
        <ele>1011.2</ele>
        <time>2023-01-14T13:48:13Z</time>
      </trkpt>
      <trkpt lat="42.6808200" lon="-0.5363770">
        <ele>1011.4</ele>
        <time>2023-01-14T13:48:14Z</time>
      </trkpt>
      <trkpt lat="42.6808200" lon="-0.5363770">
        <ele>1011.4</ele>
        <time>2023-01-14T13:48:15Z</time>
      </trkpt>
      <trkpt lat="42.6808200" lon="-0.5363770">
        <ele>1011.4</ele>
        <time>2023-01-14T13:48:16Z</time>
      </trkpt>
      <trkpt lat="42.6808210" lon="-0.5363770">
        <ele>1011.4</ele>
        <time>2023-01-14T13:48:17Z</time>
      </trkpt>
      <trkpt lat="42.6808210" lon="-0.5363770">
        <ele>1011.2</ele>
        <time>2023-01-14T13:48:18Z</time>
      </trkpt>
      <trkpt lat="42.6808220" lon="-0.5363770">
        <ele>1011.2</ele>
        <time>2023-01-14T13:48:19Z</time>
      </trkpt>
      <trkpt lat="42.6808220" lon="-0.5363770">
        <ele>1011.2</ele>
        <time>2023-01-14T13:48:20Z</time>
      </trkpt>
      <trkpt lat="42.6808220" lon="-0.5363770">
        <ele>1011.2</ele>
        <time>2023-01-14T13:48:21Z</time>
      </trkpt>
      <trkpt lat="42.6808220" lon="-0.5363780">
        <ele>1011.2</ele>
        <time>2023-01-14T13:48:22Z</time>
      </trkpt>
      <trkpt lat="42.6808220" lon="-0.5363780">
        <ele>1011.4</ele>
        <time>2023-01-14T13:48:23Z</time>
      </trkpt>
      <trkpt lat="42.6808220" lon="-0.5363790">
        <ele>1011.4</ele>
        <time>2023-01-14T13:48:24Z</time>
      </trkpt>
      <trkpt lat="42.6808220" lon="-0.5363790">
        <ele>1011.4</ele>
        <time>2023-01-14T13:48:25Z</time>
      </trkpt>
      <trkpt lat="42.6808230" lon="-0.5363800">
        <ele>1011.4</ele>
        <time>2023-01-14T13:48:26Z</time>
      </trkpt>
      <trkpt lat="42.6808230" lon="-0.5363800">
        <ele>1011.4</ele>
        <time>2023-01-14T13:48:27Z</time>
      </trkpt>
      <trkpt lat="42.6808230" lon="-0.5363810">
        <ele>1011.4</ele>
        <time>2023-01-14T13:48:28Z</time>
      </trkpt>
      <trkpt lat="42.6808230" lon="-0.5363810">
        <ele>1011.4</ele>
        <time>2023-01-14T13:48:29Z</time>
      </trkpt>
      <trkpt lat="42.6808230" lon="-0.5363810">
        <ele>1011.4</ele>
        <time>2023-01-14T13:48:30Z</time>
      </trkpt>
      <trkpt lat="42.6808240" lon="-0.5363810">
        <ele>1011.4</ele>
        <time>2023-01-14T13:48:31Z</time>
      </trkpt>
      <trkpt lat="42.6808240" lon="-0.5363820">
        <ele>1011.4</ele>
        <time>2023-01-14T13:48:32Z</time>
      </trkpt>
      <trkpt lat="42.6808240" lon="-0.5363820">
        <ele>1011.4</ele>
        <time>2023-01-14T13:48:33Z</time>
      </trkpt>
      <trkpt lat="42.6808240" lon="-0.5363830">
        <ele>1011.2</ele>
        <time>2023-01-14T13:48:34Z</time>
      </trkpt>
      <trkpt lat="42.6808240" lon="-0.5363830">
        <ele>1011.2</ele>
        <time>2023-01-14T13:48:35Z</time>
      </trkpt>
      <trkpt lat="42.6808240" lon="-0.5363830">
        <ele>1011.4</ele>
        <time>2023-01-14T13:48:36Z</time>
      </trkpt>
      <trkpt lat="42.6808240" lon="-0.5363840">
        <ele>1011.4</ele>
        <time>2023-01-14T13:48:37Z</time>
      </trkpt>
      <trkpt lat="42.6808240" lon="-0.5363840">
        <ele>1011.4</ele>
        <time>2023-01-14T13:48:38Z</time>
      </trkpt>
      <trkpt lat="42.6808250" lon="-0.5363840">
        <ele>1011.4</ele>
        <time>2023-01-14T13:48:39Z</time>
      </trkpt>
      <trkpt lat="42.6808250" lon="-0.5363840">
        <ele>1011.4</ele>
        <time>2023-01-14T13:48:40Z</time>
      </trkpt>
      <trkpt lat="42.6808250" lon="-0.5363850">
        <ele>1011.4</ele>
        <time>2023-01-14T13:48:41Z</time>
      </trkpt>
      <trkpt lat="42.6808250" lon="-0.5363850">
        <ele>1011.4</ele>
        <time>2023-01-14T13:48:42Z</time>
      </trkpt>
      <trkpt lat="42.6808290" lon="-0.5363820">
        <ele>1011.2</ele>
        <time>2023-01-14T13:48:43Z</time>
      </trkpt>
      <trkpt lat="42.6808380" lon="-0.5363860">
        <ele>1011.2</ele>
        <time>2023-01-14T13:48:44Z</time>
      </trkpt>
      <trkpt lat="42.6808430" lon="-0.5364030">
        <ele>1011.2</ele>
        <time>2023-01-14T13:48:45Z</time>
      </trkpt>
      <trkpt lat="42.6808450" lon="-0.5364250">
        <ele>1011.2</ele>
        <time>2023-01-14T13:48:46Z</time>
      </trkpt>
      <trkpt lat="42.6808400" lon="-0.5364450">
        <ele>1011.2</ele>
        <time>2023-01-14T13:48:47Z</time>
      </trkpt>
      <trkpt lat="42.6808310" lon="-0.5364510">
        <ele>1011.2</ele>
        <time>2023-01-14T13:48:48Z</time>
      </trkpt>
      <trkpt lat="42.6808270" lon="-0.5364480">
        <ele>1011.2</ele>
        <time>2023-01-14T13:48:49Z</time>
      </trkpt>
      <trkpt lat="42.6808270" lon="-0.5364480">
        <ele>1011.2</ele>
        <time>2023-01-14T13:48:50Z</time>
      </trkpt>
      <trkpt lat="42.6808280" lon="-0.5364480">
        <ele>1011.2</ele>
        <time>2023-01-14T13:48:51Z</time>
      </trkpt>
      <trkpt lat="42.6808290" lon="-0.5364490">
        <ele>1011.2</ele>
        <time>2023-01-14T13:48:52Z</time>
      </trkpt>
      <trkpt lat="42.6808290" lon="-0.5364490">
        <ele>1011.2</ele>
        <time>2023-01-14T13:48:53Z</time>
      </trkpt>
      <trkpt lat="42.6808290" lon="-0.5364500">
        <ele>1011.0</ele>
        <time>2023-01-14T13:48:54Z</time>
      </trkpt>
      <trkpt lat="42.6808290" lon="-0.5364500">
        <ele>1011.0</ele>
        <time>2023-01-14T13:48:55Z</time>
      </trkpt>
      <trkpt lat="42.6808290" lon="-0.5364500">
        <ele>1011.0</ele>
        <time>2023-01-14T13:48:56Z</time>
      </trkpt>
      <trkpt lat="42.6808300" lon="-0.5364500">
        <ele>1011.0</ele>
        <time>2023-01-14T13:48:57Z</time>
      </trkpt>
      <trkpt lat="42.6808300" lon="-0.5364490">
        <ele>1011.0</ele>
        <time>2023-01-14T13:48:58Z</time>
      </trkpt>
      <trkpt lat="42.6808300" lon="-0.5364490">
        <ele>1011.0</ele>
        <time>2023-01-14T13:48:59Z</time>
      </trkpt>
      <trkpt lat="42.6808300" lon="-0.5364490">
        <ele>1011.0</ele>
        <time>2023-01-14T13:49:00Z</time>
      </trkpt>
      <trkpt lat="42.6808300" lon="-0.5364490">
        <ele>1011.0</ele>
        <time>2023-01-14T13:49:01Z</time>
      </trkpt>
      <trkpt lat="42.6808300" lon="-0.5364480">
        <ele>1011.0</ele>
        <time>2023-01-14T13:49:02Z</time>
      </trkpt>
      <trkpt lat="42.6808300" lon="-0.5364490">
        <ele>1011.0</ele>
        <time>2023-01-14T13:49:03Z</time>
      </trkpt>
      <trkpt lat="42.6808300" lon="-0.5364480">
        <ele>1011.0</ele>
        <time>2023-01-14T13:49:04Z</time>
      </trkpt>
      <trkpt lat="42.6808300" lon="-0.5364480">
        <ele>1011.0</ele>
        <time>2023-01-14T13:49:05Z</time>
      </trkpt>
      <trkpt lat="42.6808300" lon="-0.5364490">
        <ele>1011.0</ele>
        <time>2023-01-14T13:49:06Z</time>
      </trkpt>
      <trkpt lat="42.6808300" lon="-0.5364490">
        <ele>1011.0</ele>
        <time>2023-01-14T13:49:07Z</time>
      </trkpt>
      <trkpt lat="42.6808300" lon="-0.5364480">
        <ele>1011.0</ele>
        <time>2023-01-14T13:49:08Z</time>
      </trkpt>
      <trkpt lat="42.6808300" lon="-0.5364480">
        <ele>1011.0</ele>
        <time>2023-01-14T13:49:09Z</time>
      </trkpt>
      <trkpt lat="42.6808300" lon="-0.5364480">
        <ele>1011.0</ele>
        <time>2023-01-14T13:49:10Z</time>
      </trkpt>
      <trkpt lat="42.6808300" lon="-0.5364360">
        <ele>1011.0</ele>
        <time>2023-01-14T13:49:11Z</time>
      </trkpt>
      <trkpt lat="42.6808300" lon="-0.5364210">
        <ele>1011.0</ele>
        <time>2023-01-14T13:49:12Z</time>
      </trkpt>
      <trkpt lat="42.6808290" lon="-0.5364110">
        <ele>1011.0</ele>
        <time>2023-01-14T13:49:13Z</time>
      </trkpt>
      <trkpt lat="42.6808280" lon="-0.5364080">
        <ele>1011.0</ele>
        <time>2023-01-14T13:49:14Z</time>
      </trkpt>
      <trkpt lat="42.6808280" lon="-0.5364070">
        <ele>1011.0</ele>
        <time>2023-01-14T13:49:15Z</time>
      </trkpt>
      <trkpt lat="42.6808280" lon="-0.5364080">
        <ele>1011.0</ele>
        <time>2023-01-14T13:49:16Z</time>
      </trkpt>
      <trkpt lat="42.6808280" lon="-0.5364100">
        <ele>1011.0</ele>
        <time>2023-01-14T13:49:17Z</time>
      </trkpt>
      <trkpt lat="42.6808270" lon="-0.5364100">
        <ele>1011.0</ele>
        <time>2023-01-14T13:49:18Z</time>
      </trkpt>
      <trkpt lat="42.6808260" lon="-0.5364110">
        <ele>1011.0</ele>
        <time>2023-01-14T13:49:19Z</time>
      </trkpt>
      <trkpt lat="42.6808260" lon="-0.5364120">
        <ele>1010.8</ele>
        <time>2023-01-14T13:49:20Z</time>
      </trkpt>
      <trkpt lat="42.6808260" lon="-0.5364120">
        <ele>1010.8</ele>
        <time>2023-01-14T13:49:21Z</time>
      </trkpt>
      <trkpt lat="42.6808260" lon="-0.5364140">
        <ele>1010.6</ele>
        <time>2023-01-14T13:49:22Z</time>
      </trkpt>
      <trkpt lat="42.6808250" lon="-0.5364160">
        <ele>1010.6</ele>
        <time>2023-01-14T13:49:23Z</time>
      </trkpt>
      <trkpt lat="42.6808180" lon="-0.5364090">
        <ele>1010.6</ele>
        <time>2023-01-14T13:49:24Z</time>
      </trkpt>
      <trkpt lat="42.6808050" lon="-0.5363980">
        <ele>1010.8</ele>
        <time>2023-01-14T13:49:25Z</time>
      </trkpt>
      <trkpt lat="42.6807820" lon="-0.5363990">
        <ele>1010.8</ele>
        <time>2023-01-14T13:49:26Z</time>
      </trkpt>
      <trkpt lat="42.6807520" lon="-0.5364130">
        <ele>1010.8</ele>
        <time>2023-01-14T13:49:27Z</time>
      </trkpt>
      <trkpt lat="42.6807230" lon="-0.5364320">
        <ele>1011.0</ele>
        <time>2023-01-14T13:49:28Z</time>
      </trkpt>
      <trkpt lat="42.6806920" lon="-0.5364510">
        <ele>1011.0</ele>
        <time>2023-01-14T13:49:29Z</time>
      </trkpt>
      <trkpt lat="42.6806610" lon="-0.5364690">
        <ele>1011.2</ele>
        <time>2023-01-14T13:49:30Z</time>
      </trkpt>
      <trkpt lat="42.6806260" lon="-0.5364860">
        <ele>1011.2</ele>
        <time>2023-01-14T13:49:31Z</time>
      </trkpt>
      <trkpt lat="42.6805920" lon="-0.5365040">
        <ele>1011.4</ele>
        <time>2023-01-14T13:49:32Z</time>
      </trkpt>
      <trkpt lat="42.6805570" lon="-0.5365230">
        <ele>1011.6</ele>
        <time>2023-01-14T13:49:33Z</time>
      </trkpt>
      <trkpt lat="42.6805210" lon="-0.5365410">
        <ele>1011.6</ele>
        <time>2023-01-14T13:49:34Z</time>
      </trkpt>
      <trkpt lat="42.6804820" lon="-0.5365580">
        <ele>1011.6</ele>
        <time>2023-01-14T13:49:35Z</time>
      </trkpt>
      <trkpt lat="42.6804440" lon="-0.5365760">
        <ele>1011.6</ele>
        <time>2023-01-14T13:49:36Z</time>
      </trkpt>
      <trkpt lat="42.6804040" lon="-0.5365970">
        <ele>1011.6</ele>
        <time>2023-01-14T13:49:37Z</time>
      </trkpt>
      <trkpt lat="42.6803670" lon="-0.5366200">
        <ele>1011.6</ele>
        <time>2023-01-14T13:49:38Z</time>
      </trkpt>
      <trkpt lat="42.6803320" lon="-0.5366440">
        <ele>1011.4</ele>
        <time>2023-01-14T13:49:39Z</time>
      </trkpt>
      <trkpt lat="42.6802970" lon="-0.5366660">
        <ele>1011.6</ele>
        <time>2023-01-14T13:49:40Z</time>
      </trkpt>
      <trkpt lat="42.6802620" lon="-0.5366840">
        <ele>1011.6</ele>
        <time>2023-01-14T13:49:41Z</time>
      </trkpt>
      <trkpt lat="42.6802260" lon="-0.5367020">
        <ele>1011.6</ele>
        <time>2023-01-14T13:49:42Z</time>
      </trkpt>
      <trkpt lat="42.6801910" lon="-0.5367240">
        <ele>1012.0</ele>
        <time>2023-01-14T13:49:43Z</time>
      </trkpt>
      <trkpt lat="42.6801560" lon="-0.5367490">
        <ele>1012.2</ele>
        <time>2023-01-14T13:49:44Z</time>
      </trkpt>
      <trkpt lat="42.6801220" lon="-0.5367740">
        <ele>1012.4</ele>
        <time>2023-01-14T13:49:45Z</time>
      </trkpt>
      <trkpt lat="42.6800940" lon="-0.5368090">
        <ele>1012.4</ele>
        <time>2023-01-14T13:49:46Z</time>
      </trkpt>
      <trkpt lat="42.6800810" lon="-0.5368610">
        <ele>1012.4</ele>
        <time>2023-01-14T13:49:47Z</time>
      </trkpt>
      <trkpt lat="42.6800830" lon="-0.5369230">
        <ele>1012.2</ele>
        <time>2023-01-14T13:49:48Z</time>
      </trkpt>
      <trkpt lat="42.6800930" lon="-0.5369880">
        <ele>1012.0</ele>
        <time>2023-01-14T13:49:49Z</time>
      </trkpt>
      <trkpt lat="42.6801100" lon="-0.5370530">
        <ele>1012.0</ele>
        <time>2023-01-14T13:49:50Z</time>
      </trkpt>
      <trkpt lat="42.6801310" lon="-0.5371180">
        <ele>1011.8</ele>
        <time>2023-01-14T13:49:51Z</time>
      </trkpt>
      <trkpt lat="42.6801500" lon="-0.5371800">
        <ele>1012.0</ele>
        <time>2023-01-14T13:49:52Z</time>
      </trkpt>
      <trkpt lat="42.6801670" lon="-0.5372390">
        <ele>1012.0</ele>
        <time>2023-01-14T13:49:53Z</time>
      </trkpt>
      <trkpt lat="42.6801840" lon="-0.5372960">
        <ele>1012.0</ele>
        <time>2023-01-14T13:49:54Z</time>
      </trkpt>
      <trkpt lat="42.6802000" lon="-0.5373490">
        <ele>1012.2</ele>
        <time>2023-01-14T13:49:55Z</time>
      </trkpt>
      <trkpt lat="42.6802160" lon="-0.5374020">
        <ele>1012.4</ele>
        <time>2023-01-14T13:49:56Z</time>
      </trkpt>
      <trkpt lat="42.6802300" lon="-0.5374530">
        <ele>1012.6</ele>
        <time>2023-01-14T13:49:57Z</time>
      </trkpt>
      <trkpt lat="42.6802460" lon="-0.5375030">
        <ele>1012.8</ele>
        <time>2023-01-14T13:49:58Z</time>
      </trkpt>
      <trkpt lat="42.6802630" lon="-0.5375520">
        <ele>1013.4</ele>
        <time>2023-01-14T13:49:59Z</time>
      </trkpt>
      <trkpt lat="42.6802810" lon="-0.5376000">
        <ele>1014.0</ele>
        <time>2023-01-14T13:50:00Z</time>
      </trkpt>
      <trkpt lat="42.6802960" lon="-0.5376500">
        <ele>1014.6</ele>
        <time>2023-01-14T13:50:01Z</time>
      </trkpt>
      <trkpt lat="42.6803090" lon="-0.5376990">
        <ele>1014.8</ele>
        <time>2023-01-14T13:50:02Z</time>
      </trkpt>
      <trkpt lat="42.6803180" lon="-0.5377480">
        <ele>1015.4</ele>
        <time>2023-01-14T13:50:03Z</time>
      </trkpt>
      <trkpt lat="42.6803230" lon="-0.5377970">
        <ele>1015.8</ele>
        <time>2023-01-14T13:50:04Z</time>
      </trkpt>
      <trkpt lat="42.6803300" lon="-0.5378460">
        <ele>1016.2</ele>
        <time>2023-01-14T13:50:05Z</time>
      </trkpt>
      <trkpt lat="42.6803400" lon="-0.5378950">
        <ele>1016.8</ele>
        <time>2023-01-14T13:50:06Z</time>
      </trkpt>
      <trkpt lat="42.6803510" lon="-0.5379420">
        <ele>1017.2</ele>
        <time>2023-01-14T13:50:07Z</time>
      </trkpt>
      <trkpt lat="42.6803630" lon="-0.5379900">
        <ele>1017.6</ele>
        <time>2023-01-14T13:50:08Z</time>
      </trkpt>
      <trkpt lat="42.6803760" lon="-0.5380380">
        <ele>1018.4</ele>
        <time>2023-01-14T13:50:09Z</time>
      </trkpt>
      <trkpt lat="42.6803910" lon="-0.5380870">
        <ele>1018.8</ele>
        <time>2023-01-14T13:50:10Z</time>
      </trkpt>
      <trkpt lat="42.6804080" lon="-0.5381360">
        <ele>1019.2</ele>
        <time>2023-01-14T13:50:11Z</time>
      </trkpt>
      <trkpt lat="42.6804230" lon="-0.5381850">
        <ele>1019.4</ele>
        <time>2023-01-14T13:50:12Z</time>
      </trkpt>
      <trkpt lat="42.6804360" lon="-0.5382360">
        <ele>1020.0</ele>
        <time>2023-01-14T13:50:13Z</time>
      </trkpt>
      <trkpt lat="42.6804500" lon="-0.5382860">
        <ele>1020.4</ele>
        <time>2023-01-14T13:50:14Z</time>
      </trkpt>
      <trkpt lat="42.6804650" lon="-0.5383340">
        <ele>1020.8</ele>
        <time>2023-01-14T13:50:15Z</time>
      </trkpt>
      <trkpt lat="42.6804750" lon="-0.5383820">
        <ele>1021.2</ele>
        <time>2023-01-14T13:50:16Z</time>
      </trkpt>
      <trkpt lat="42.6804650" lon="-0.5384280">
        <ele>1021.6</ele>
        <time>2023-01-14T13:50:17Z</time>
      </trkpt>
      <trkpt lat="42.6804390" lon="-0.5384670">
        <ele>1022.0</ele>
        <time>2023-01-14T13:50:18Z</time>
      </trkpt>
      <trkpt lat="42.6804030" lon="-0.5384980">
        <ele>1022.6</ele>
        <time>2023-01-14T13:50:19Z</time>
      </trkpt>
      <trkpt lat="42.6803630" lon="-0.5385270">
        <ele>1023.2</ele>
        <time>2023-01-14T13:50:20Z</time>
      </trkpt>
      <trkpt lat="42.6803220" lon="-0.5385530">
        <ele>1023.4</ele>
        <time>2023-01-14T13:50:21Z</time>
      </trkpt>
      <trkpt lat="42.6802770" lon="-0.5385820">
        <ele>1023.4</ele>
        <time>2023-01-14T13:50:22Z</time>
      </trkpt>
      <trkpt lat="42.6802320" lon="-0.5386120">
        <ele>1023.6</ele>
        <time>2023-01-14T13:50:23Z</time>
      </trkpt>
      <trkpt lat="42.6801870" lon="-0.5386420">
        <ele>1023.6</ele>
        <time>2023-01-14T13:50:24Z</time>
      </trkpt>
      <trkpt lat="42.6801390" lon="-0.5386720">
        <ele>1023.8</ele>
        <time>2023-01-14T13:50:25Z</time>
      </trkpt>
      <trkpt lat="42.6800920" lon="-0.5387030">
        <ele>1024.0</ele>
        <time>2023-01-14T13:50:26Z</time>
      </trkpt>
      <trkpt lat="42.6800450" lon="-0.5387320">
        <ele>1024.4</ele>
        <time>2023-01-14T13:50:27Z</time>
      </trkpt>
      <trkpt lat="42.6799950" lon="-0.5387560">
        <ele>1024.4</ele>
        <time>2023-01-14T13:50:28Z</time>
      </trkpt>
      <trkpt lat="42.6799470" lon="-0.5387790">
        <ele>1024.6</ele>
        <time>2023-01-14T13:50:29Z</time>
      </trkpt>
      <trkpt lat="42.6799010" lon="-0.5388030">
        <ele>1024.2</ele>
        <time>2023-01-14T13:50:30Z</time>
      </trkpt>
      <trkpt lat="42.6798550" lon="-0.5388310">
        <ele>1024.2</ele>
        <time>2023-01-14T13:50:31Z</time>
      </trkpt>
      <trkpt lat="42.6798080" lon="-0.5388560">
        <ele>1024.4</ele>
        <time>2023-01-14T13:50:32Z</time>
      </trkpt>
      <trkpt lat="42.6797630" lon="-0.5388850">
        <ele>1024.0</ele>
        <time>2023-01-14T13:50:33Z</time>
      </trkpt>
      <trkpt lat="42.6797180" lon="-0.5389130">
        <ele>1023.8</ele>
        <time>2023-01-14T13:50:34Z</time>
      </trkpt>
      <trkpt lat="42.6796740" lon="-0.5389380">
        <ele>1023.6</ele>
        <time>2023-01-14T13:50:35Z</time>
      </trkpt>
      <trkpt lat="42.6796300" lon="-0.5389600">
        <ele>1023.4</ele>
        <time>2023-01-14T13:50:36Z</time>
      </trkpt>
      <trkpt lat="42.6795840" lon="-0.5389800">
        <ele>1023.2</ele>
        <time>2023-01-14T13:50:37Z</time>
      </trkpt>
      <trkpt lat="42.6795390" lon="-0.5390020">
        <ele>1023.2</ele>
        <time>2023-01-14T13:50:38Z</time>
      </trkpt>
      <trkpt lat="42.6794930" lon="-0.5390280">
        <ele>1023.0</ele>
        <time>2023-01-14T13:50:39Z</time>
      </trkpt>
      <trkpt lat="42.6794520" lon="-0.5390610">
        <ele>1022.6</ele>
        <time>2023-01-14T13:50:40Z</time>
      </trkpt>
      <trkpt lat="42.6794130" lon="-0.5391000">
        <ele>1022.6</ele>
        <time>2023-01-14T13:50:41Z</time>
      </trkpt>
      <trkpt lat="42.6793760" lon="-0.5391420">
        <ele>1022.4</ele>
        <time>2023-01-14T13:50:42Z</time>
      </trkpt>
      <trkpt lat="42.6793390" lon="-0.5391830">
        <ele>1022.4</ele>
        <time>2023-01-14T13:50:43Z</time>
      </trkpt>
      <trkpt lat="42.6793000" lon="-0.5392150">
        <ele>1022.2</ele>
        <time>2023-01-14T13:50:44Z</time>
      </trkpt>
      <trkpt lat="42.6792610" lon="-0.5392460">
        <ele>1022.0</ele>
        <time>2023-01-14T13:50:45Z</time>
      </trkpt>
      <trkpt lat="42.6792220" lon="-0.5392720">
        <ele>1021.8</ele>
        <time>2023-01-14T13:50:46Z</time>
      </trkpt>
      <trkpt lat="42.6791840" lon="-0.5392970">
        <ele>1021.6</ele>
        <time>2023-01-14T13:50:47Z</time>
      </trkpt>
      <trkpt lat="42.6791470" lon="-0.5393180">
        <ele>1021.6</ele>
        <time>2023-01-14T13:50:48Z</time>
      </trkpt>
      <trkpt lat="42.6791110" lon="-0.5393400">
        <ele>1021.4</ele>
        <time>2023-01-14T13:50:49Z</time>
      </trkpt>
      <trkpt lat="42.6790780" lon="-0.5393610">
        <ele>1021.4</ele>
        <time>2023-01-14T13:50:50Z</time>
      </trkpt>
      <trkpt lat="42.6790470" lon="-0.5393850">
        <ele>1021.2</ele>
        <time>2023-01-14T13:50:51Z</time>
      </trkpt>
      <trkpt lat="42.6790170" lon="-0.5394030">
        <ele>1021.2</ele>
        <time>2023-01-14T13:50:52Z</time>
      </trkpt>
      <trkpt lat="42.6790020" lon="-0.5394420">
        <ele>1021.0</ele>
        <time>2023-01-14T13:50:53Z</time>
      </trkpt>
      <trkpt lat="42.6790000" lon="-0.5394870">
        <ele>1021.0</ele>
        <time>2023-01-14T13:50:54Z</time>
      </trkpt>
      <trkpt lat="42.6790010" lon="-0.5395260">
        <ele>1021.0</ele>
        <time>2023-01-14T13:50:55Z</time>
      </trkpt>
      <trkpt lat="42.6790000" lon="-0.5395600">
        <ele>1020.8</ele>
        <time>2023-01-14T13:50:56Z</time>
      </trkpt>
      <trkpt lat="42.6789980" lon="-0.5395920">
        <ele>1020.8</ele>
        <time>2023-01-14T13:50:57Z</time>
      </trkpt>
      <trkpt lat="42.6789960" lon="-0.5396190">
        <ele>1021.0</ele>
        <time>2023-01-14T13:50:58Z</time>
      </trkpt>
      <trkpt lat="42.6789830" lon="-0.5396390">
        <ele>1021.0</ele>
        <time>2023-01-14T13:50:59Z</time>
      </trkpt>
      <trkpt lat="42.6789660" lon="-0.5396490">
        <ele>1020.8</ele>
        <time>2023-01-14T13:51:00Z</time>
      </trkpt>
      <trkpt lat="42.6789430" lon="-0.5396610">
        <ele>1020.8</ele>
        <time>2023-01-14T13:51:01Z</time>
      </trkpt>
      <trkpt lat="42.6789180" lon="-0.5396740">
        <ele>1020.8</ele>
        <time>2023-01-14T13:51:02Z</time>
      </trkpt>
      <trkpt lat="42.6788940" lon="-0.5396800">
        <ele>1020.8</ele>
        <time>2023-01-14T13:51:03Z</time>
      </trkpt>
      <trkpt lat="42.6788790" lon="-0.5396810">
        <ele>1020.8</ele>
        <time>2023-01-14T13:51:04Z</time>
      </trkpt>
      <trkpt lat="42.6788760" lon="-0.5396810">
        <ele>1020.6</ele>
        <time>2023-01-14T13:51:05Z</time>
      </trkpt>
      <trkpt lat="42.6788750" lon="-0.5396800">
        <ele>1020.4</ele>
        <time>2023-01-14T13:51:06Z</time>
      </trkpt>
      <trkpt lat="42.6788720" lon="-0.5396870">
        <ele>1020.4</ele>
        <time>2023-01-14T13:51:07Z</time>
      </trkpt>
      <trkpt lat="42.6817490" lon="-0.5358450">
        <ele>992.0</ele>
        <time>2023-01-14T10:05:29Z</time>
      </trkpt>
      <trkpt lat="42.6817860" lon="-0.5358270">
        <ele>992.0</ele>
        <time>2023-01-14T10:05:30Z</time>
      </trkpt>
      <trkpt lat="42.6818190" lon="-0.5358100">
        <ele>992.0</ele>
        <time>2023-01-14T10:05:31Z</time>
      </trkpt>
      <trkpt lat="42.6818480" lon="-0.5357930">
        <ele>992.0</ele>
        <time>2023-01-14T10:05:32Z</time>
      </trkpt>
      <trkpt lat="42.6818790" lon="-0.5357720">
        <ele>992.0</ele>
        <time>2023-01-14T10:05:33Z</time>
      </trkpt>
      <trkpt lat="42.6819140" lon="-0.5357520">
        <ele>992.2</ele>
        <time>2023-01-14T10:05:34Z</time>
      </trkpt>
      <trkpt lat="42.6819500" lon="-0.5357310">
        <ele>992.2</ele>
        <time>2023-01-14T10:05:35Z</time>
      </trkpt>
      <trkpt lat="42.6819840" lon="-0.5357070">
        <ele>992.2</ele>
        <time>2023-01-14T10:05:36Z</time>
      </trkpt>
      <trkpt lat="42.6820200" lon="-0.5356790">
        <ele>992.2</ele>
        <time>2023-01-14T10:05:37Z</time>
      </trkpt>
      <trkpt lat="42.6820570" lon="-0.5356450">
        <ele>992.2</ele>
        <time>2023-01-14T10:05:38Z</time>
      </trkpt>
      <trkpt lat="42.6820950" lon="-0.5356110">
        <ele>992.2</ele>
        <time>2023-01-14T10:05:39Z</time>
      </trkpt>
      <trkpt lat="42.6821320" lon="-0.5355770">
        <ele>992.2</ele>
        <time>2023-01-14T10:05:40Z</time>
      </trkpt>
      <trkpt lat="42.6821660" lon="-0.5355360">
        <ele>992.2</ele>
        <time>2023-01-14T10:05:41Z</time>
      </trkpt>
      <trkpt lat="42.6822000" lon="-0.5354940">
        <ele>992.2</ele>
        <time>2023-01-14T10:05:42Z</time>
      </trkpt>
      <trkpt lat="42.6822300" lon="-0.5354520">
        <ele>992.2</ele>
        <time>2023-01-14T10:05:43Z</time>
      </trkpt>
      <trkpt lat="42.6822580" lon="-0.5354100">
        <ele>992.2</ele>
        <time>2023-01-14T10:05:44Z</time>
      </trkpt>
      <trkpt lat="42.6822830" lon="-0.5353680">
        <ele>992.0</ele>
        <time>2023-01-14T10:05:45Z</time>
      </trkpt>
      <trkpt lat="42.6823110" lon="-0.5353230">
        <ele>992.0</ele>
        <time>2023-01-14T10:05:46Z</time>
      </trkpt>
      <trkpt lat="42.6823370" lon="-0.5352770">
        <ele>992.0</ele>
        <time>2023-01-14T10:05:47Z</time>
      </trkpt>
      <trkpt lat="42.6823610" lon="-0.5352290">
        <ele>991.4</ele>
        <time>2023-01-14T10:05:48Z</time>
      </trkpt>
      <trkpt lat="42.6823820" lon="-0.5351800">
        <ele>991.6</ele>
        <time>2023-01-14T10:05:49Z</time>
      </trkpt>
      <trkpt lat="42.6824010" lon="-0.5351310">
        <ele>991.6</ele>
        <time>2023-01-14T10:05:50Z</time>
      </trkpt>
      <trkpt lat="42.6824210" lon="-0.5350810">
        <ele>991.8</ele>
        <time>2023-01-14T10:05:51Z</time>
      </trkpt>
      <trkpt lat="42.6824390" lon="-0.5350320">
        <ele>992.0</ele>
        <time>2023-01-14T10:05:52Z</time>
      </trkpt>
      <trkpt lat="42.6824540" lon="-0.5349830">
        <ele>992.0</ele>
        <time>2023-01-14T10:05:53Z</time>
      </trkpt>
      <trkpt lat="42.6824650" lon="-0.5349330">
        <ele>991.8</ele>
        <time>2023-01-14T10:05:54Z</time>
      </trkpt>
      <trkpt lat="42.6824760" lon="-0.5348870">
        <ele>991.8</ele>
        <time>2023-01-14T10:05:55Z</time>
      </trkpt>
      <trkpt lat="42.6824880" lon="-0.5348490">
        <ele>992.0</ele>
        <time>2023-01-14T10:05:56Z</time>
      </trkpt>
      <trkpt lat="42.6825010" lon="-0.5348070">
        <ele>992.0</ele>
        <time>2023-01-14T10:05:57Z</time>
      </trkpt>
      <trkpt lat="42.6825130" lon="-0.5347580">
        <ele>992.0</ele>
        <time>2023-01-14T10:05:58Z</time>
      </trkpt>
      <trkpt lat="42.6825250" lon="-0.5347020">
        <ele>992.2</ele>
        <time>2023-01-14T10:05:59Z</time>
      </trkpt>
      <trkpt lat="42.6825370" lon="-0.5346440">
        <ele>992.4</ele>
        <time>2023-01-14T10:06:00Z</time>
      </trkpt>
      <trkpt lat="42.6825450" lon="-0.5345860">
        <ele>992.6</ele>
        <time>2023-01-14T10:06:01Z</time>
      </trkpt>
      <trkpt lat="42.6825510" lon="-0.5345330">
        <ele>992.6</ele>
        <time>2023-01-14T10:06:02Z</time>
      </trkpt>
      <trkpt lat="42.6825560" lon="-0.5344810">
        <ele>992.8</ele>
        <time>2023-01-14T10:06:03Z</time>
      </trkpt>
      <trkpt lat="42.6825610" lon="-0.5344290">
        <ele>993.0</ele>
        <time>2023-01-14T10:06:04Z</time>
      </trkpt>
      <trkpt lat="42.6825630" lon="-0.5343780">
        <ele>993.0</ele>
        <time>2023-01-14T10:06:05Z</time>
      </trkpt>
      <trkpt lat="42.6825620" lon="-0.5343290">
        <ele>993.4</ele>
        <time>2023-01-14T10:06:06Z</time>
      </trkpt>
      <trkpt lat="42.6825580" lon="-0.5342800">
        <ele>993.6</ele>
        <time>2023-01-14T10:06:07Z</time>
      </trkpt>
      <trkpt lat="42.6825540" lon="-0.5342330">
        <ele>993.8</ele>
        <time>2023-01-14T10:06:08Z</time>
      </trkpt>
      <trkpt lat="42.6825490" lon="-0.5341850">
        <ele>993.8</ele>
        <time>2023-01-14T10:06:09Z</time>
      </trkpt>
      <trkpt lat="42.6825430" lon="-0.5341350">
        <ele>994.0</ele>
        <time>2023-01-14T10:06:10Z</time>
      </trkpt>
      <trkpt lat="42.6825360" lon="-0.5340850">
        <ele>994.0</ele>
        <time>2023-01-14T10:06:11Z</time>
      </trkpt>
      <trkpt lat="42.6825290" lon="-0.5340330">
        <ele>994.0</ele>
        <time>2023-01-14T10:06:12Z</time>
      </trkpt>
      <trkpt lat="42.6825220" lon="-0.5339760">
        <ele>994.2</ele>
        <time>2023-01-14T10:06:13Z</time>
      </trkpt>
      <trkpt lat="42.6825150" lon="-0.5339160">
        <ele>994.2</ele>
        <time>2023-01-14T10:06:14Z</time>
      </trkpt>
      <trkpt lat="42.6825070" lon="-0.5338560">
        <ele>994.2</ele>
        <time>2023-01-14T10:06:15Z</time>
      </trkpt>
      <trkpt lat="42.6825010" lon="-0.5337960">
        <ele>994.2</ele>
        <time>2023-01-14T10:06:16Z</time>
      </trkpt>
      <trkpt lat="42.6824950" lon="-0.5337360">
        <ele>994.0</ele>
        <time>2023-01-14T10:06:17Z</time>
      </trkpt>
      <trkpt lat="42.6824910" lon="-0.5336790">
        <ele>994.0</ele>
        <time>2023-01-14T10:06:18Z</time>
      </trkpt>
      <trkpt lat="42.6824850" lon="-0.5336250">
        <ele>994.0</ele>
        <time>2023-01-14T10:06:19Z</time>
      </trkpt>
      <trkpt lat="42.6824830" lon="-0.5335730">
        <ele>994.0</ele>
        <time>2023-01-14T10:06:20Z</time>
      </trkpt>
      <trkpt lat="42.6824820" lon="-0.5335220">
        <ele>994.0</ele>
        <time>2023-01-14T10:06:21Z</time>
      </trkpt>
      <trkpt lat="42.6824830" lon="-0.5334700">
        <ele>994.0</ele>
        <time>2023-01-14T10:06:22Z</time>
      </trkpt>
      <trkpt lat="42.6824860" lon="-0.5334170">
        <ele>994.0</ele>
        <time>2023-01-14T10:06:23Z</time>
      </trkpt>
      <trkpt lat="42.6824900" lon="-0.5333630">
        <ele>994.0</ele>
        <time>2023-01-14T10:06:24Z</time>
      </trkpt>
      <trkpt lat="42.6824980" lon="-0.5333110">
        <ele>994.0</ele>
        <time>2023-01-14T10:06:25Z</time>
      </trkpt>
      <trkpt lat="42.6825100" lon="-0.5332600">
        <ele>994.0</ele>
        <time>2023-01-14T10:06:26Z</time>
      </trkpt>
      <trkpt lat="42.6825220" lon="-0.5332090">
        <ele>994.0</ele>
        <time>2023-01-14T10:06:27Z</time>
      </trkpt>
      <trkpt lat="42.6825320" lon="-0.5331600">
        <ele>994.0</ele>
        <time>2023-01-14T10:06:28Z</time>
      </trkpt>
      <trkpt lat="42.6825390" lon="-0.5331110">
        <ele>994.2</ele>
        <time>2023-01-14T10:06:29Z</time>
      </trkpt>
      <trkpt lat="42.6825420" lon="-0.5330610">
        <ele>994.4</ele>
        <time>2023-01-14T10:06:30Z</time>
      </trkpt>
      <trkpt lat="42.6825440" lon="-0.5330110">
        <ele>994.4</ele>
        <time>2023-01-14T10:06:31Z</time>
      </trkpt>
      <trkpt lat="42.6825450" lon="-0.5329610">
        <ele>994.4</ele>
        <time>2023-01-14T10:06:32Z</time>
      </trkpt>
      <trkpt lat="42.6825430" lon="-0.5329100">
        <ele>994.4</ele>
        <time>2023-01-14T10:06:33Z</time>
      </trkpt>
      <trkpt lat="42.6825390" lon="-0.5328580">
        <ele>994.2</ele>
        <time>2023-01-14T10:06:34Z</time>
      </trkpt>
      <trkpt lat="42.6825340" lon="-0.5328040">
        <ele>994.2</ele>
        <time>2023-01-14T10:06:35Z</time>
      </trkpt>
      <trkpt lat="42.6825290" lon="-0.5327510">
        <ele>994.2</ele>
        <time>2023-01-14T10:06:36Z</time>
      </trkpt>
      <trkpt lat="42.6825250" lon="-0.5326940">
        <ele>994.4</ele>
        <time>2023-01-14T10:06:37Z</time>
      </trkpt>
      <trkpt lat="42.6825190" lon="-0.5326330">
        <ele>994.4</ele>
        <time>2023-01-14T10:06:38Z</time>
      </trkpt>
      <trkpt lat="42.6825120" lon="-0.5325720">
        <ele>994.2</ele>
        <time>2023-01-14T10:06:39Z</time>
      </trkpt>
      <trkpt lat="42.6825030" lon="-0.5325070">
        <ele>994.2</ele>
        <time>2023-01-14T10:06:40Z</time>
      </trkpt>
      <trkpt lat="42.6824940" lon="-0.5324400">
        <ele>994.2</ele>
        <time>2023-01-14T10:06:41Z</time>
      </trkpt>
      <trkpt lat="42.6824770" lon="-0.5323780">
        <ele>994.0</ele>
        <time>2023-01-14T10:06:42Z</time>
      </trkpt>
      <trkpt lat="42.6824490" lon="-0.5323220">
        <ele>994.0</ele>
        <time>2023-01-14T10:06:43Z</time>
      </trkpt>
      <trkpt lat="42.6824150" lon="-0.5322750">
        <ele>994.0</ele>
        <time>2023-01-14T10:06:44Z</time>
      </trkpt>
      <trkpt lat="42.6823820" lon="-0.5322320">
        <ele>993.6</ele>
        <time>2023-01-14T10:06:45Z</time>
      </trkpt>
      <trkpt lat="42.6823530" lon="-0.5321930">
        <ele>993.4</ele>
        <time>2023-01-14T10:06:46Z</time>
      </trkpt>
      <trkpt lat="42.6823220" lon="-0.5321590">
        <ele>993.4</ele>
        <time>2023-01-14T10:06:47Z</time>
      </trkpt>
      <trkpt lat="42.6822840" lon="-0.5321280">
        <ele>993.4</ele>
        <time>2023-01-14T10:06:48Z</time>
      </trkpt>
      <trkpt lat="42.6822410" lon="-0.5321020">
        <ele>993.4</ele>
        <time>2023-01-14T10:06:49Z</time>
      </trkpt>
      <trkpt lat="42.6822000" lon="-0.5320770">
        <ele>993.2</ele>
        <time>2023-01-14T10:06:50Z</time>
      </trkpt>
      <trkpt lat="42.6821590" lon="-0.5320530">
        <ele>993.2</ele>
        <time>2023-01-14T10:06:51Z</time>
      </trkpt>
      <trkpt lat="42.6821170" lon="-0.5320330">
        <ele>993.2</ele>
        <time>2023-01-14T10:06:52Z</time>
      </trkpt>
      <trkpt lat="42.6820770" lon="-0.5320150">
        <ele>993.0</ele>
        <time>2023-01-14T10:06:53Z</time>
      </trkpt>
      <trkpt lat="42.6820420" lon="-0.5319920">
        <ele>992.8</ele>
        <time>2023-01-14T10:06:54Z</time>
      </trkpt>
      <trkpt lat="42.6820110" lon="-0.5319670">
        <ele>992.8</ele>
        <time>2023-01-14T10:06:55Z</time>
      </trkpt>
      <trkpt lat="42.6819850" lon="-0.5319370">
        <ele>992.6</ele>
        <time>2023-01-14T10:06:56Z</time>
      </trkpt>
      <trkpt lat="42.6819710" lon="-0.5319070">
        <ele>992.6</ele>
        <time>2023-01-14T10:06:57Z</time>
      </trkpt>
      <trkpt lat="42.6819670" lon="-0.5318860">
        <ele>992.6</ele>
        <time>2023-01-14T10:06:58Z</time>
      </trkpt>
      <trkpt lat="42.6819670" lon="-0.5318740">
        <ele>992.6</ele>
        <time>2023-01-14T10:06:59Z</time>
      </trkpt>
      <trkpt lat="42.6819660" lon="-0.5318700">
        <ele>992.4</ele>
        <time>2023-01-14T10:07:00Z</time>
      </trkpt>
      <trkpt lat="42.6819660" lon="-0.5318710">
        <ele>992.4</ele>
        <time>2023-01-14T10:07:01Z</time>
      </trkpt>
      <trkpt lat="42.6819680" lon="-0.5318720">
        <ele>992.4</ele>
        <time>2023-01-14T10:07:02Z</time>
      </trkpt>
      <trkpt lat="42.6819690" lon="-0.5318730">
        <ele>992.4</ele>
        <time>2023-01-14T10:07:03Z</time>
      </trkpt>
      <trkpt lat="42.6819690" lon="-0.5318730">
        <ele>992.4</ele>
        <time>2023-01-14T10:07:04Z</time>
      </trkpt>
      <trkpt lat="42.6819690" lon="-0.5318730">
        <ele>992.8</ele>
        <time>2023-01-14T10:07:05Z</time>
      </trkpt>
      <trkpt lat="42.6819690" lon="-0.5318720">
        <ele>993.0</ele>
        <time>2023-01-14T10:07:06Z</time>
      </trkpt>
      <trkpt lat="42.6819690" lon="-0.5318720">
        <ele>993.2</ele>
        <time>2023-01-14T10:07:07Z</time>
      </trkpt>
      <trkpt lat="42.6819690" lon="-0.5318720">
        <ele>992.8</ele>
        <time>2023-01-14T10:07:08Z</time>
      </trkpt>
      <trkpt lat="42.6819690" lon="-0.5318720">
        <ele>992.6</ele>
        <time>2023-01-14T10:07:09Z</time>
      </trkpt>
      <trkpt lat="42.6819690" lon="-0.5318730">
        <ele>992.4</ele>
        <time>2023-01-14T10:07:10Z</time>
      </trkpt>
      <trkpt lat="42.6819690" lon="-0.5318730">
        <ele>992.4</ele>
        <time>2023-01-14T10:07:11Z</time>
      </trkpt>
      <trkpt lat="42.6819690" lon="-0.5318730">
        <ele>992.4</ele>
        <time>2023-01-14T10:07:12Z</time>
      </trkpt>
      <trkpt lat="42.6819690" lon="-0.5318730">
        <ele>992.4</ele>
        <time>2023-01-14T10:07:13Z</time>
      </trkpt>
      <trkpt lat="42.6819680" lon="-0.5318740">
        <ele>992.4</ele>
        <time>2023-01-14T10:07:14Z</time>
      </trkpt>
      <trkpt lat="42.6819680" lon="-0.5318740">
        <ele>992.6</ele>
        <time>2023-01-14T10:07:15Z</time>
      </trkpt>
      <trkpt lat="42.6819690" lon="-0.5318740">
        <ele>992.8</ele>
        <time>2023-01-14T10:07:16Z</time>
      </trkpt>
      <trkpt lat="42.6819690" lon="-0.5318740">
        <ele>993.0</ele>
        <time>2023-01-14T10:07:17Z</time>
      </trkpt>
      <trkpt lat="42.6819690" lon="-0.5318740">
        <ele>993.2</ele>
        <time>2023-01-14T10:07:18Z</time>
      </trkpt>
      <trkpt lat="42.6819690" lon="-0.5318740">
        <ele>993.0</ele>
        <time>2023-01-14T10:07:19Z</time>
      </trkpt>
      <trkpt lat="42.6819700" lon="-0.5318740">
        <ele>992.8</ele>
        <time>2023-01-14T10:07:20Z</time>
      </trkpt>
      <trkpt lat="42.6819710" lon="-0.5318750">
        <ele>992.8</ele>
        <time>2023-01-14T10:07:21Z</time>
      </trkpt>
      <trkpt lat="42.6819710" lon="-0.5318750">
        <ele>992.6</ele>
        <time>2023-01-14T10:07:22Z</time>
      </trkpt>
      <trkpt lat="42.6819720" lon="-0.5318750">
        <ele>992.6</ele>
        <time>2023-01-14T10:07:23Z</time>
      </trkpt>
      <trkpt lat="42.6819720" lon="-0.5318750">
        <ele>992.6</ele>
        <time>2023-01-14T10:07:24Z</time>
      </trkpt>
      <trkpt lat="42.6819720" lon="-0.5318750">
        <ele>992.6</ele>
        <time>2023-01-14T10:07:25Z</time>
      </trkpt>
      <trkpt lat="42.6819720" lon="-0.5318750">
        <ele>992.6</ele>
        <time>2023-01-14T10:07:26Z</time>
      </trkpt>
      <trkpt lat="42.6819710" lon="-0.5318750">
        <ele>992.6</ele>
        <time>2023-01-14T10:07:27Z</time>
      </trkpt>
      <trkpt lat="42.6819710" lon="-0.5318750">
        <ele>992.6</ele>
        <time>2023-01-14T10:07:28Z</time>
      </trkpt>
      <trkpt lat="42.6819720" lon="-0.5318740">
        <ele>992.8</ele>
        <time>2023-01-14T10:07:29Z</time>
      </trkpt>
      <trkpt lat="42.6819720" lon="-0.5318740">
        <ele>992.8</ele>
        <time>2023-01-14T10:07:30Z</time>
      </trkpt>
      <trkpt lat="42.6819710" lon="-0.5318740">
        <ele>992.8</ele>
        <time>2023-01-14T10:07:31Z</time>
      </trkpt>
      <trkpt lat="42.6819710" lon="-0.5318730">
        <ele>992.8</ele>
        <time>2023-01-14T10:07:32Z</time>
      </trkpt>
      <trkpt lat="42.6819720" lon="-0.5318730">
        <ele>992.8</ele>
        <time>2023-01-14T10:07:33Z</time>
      </trkpt>
      <trkpt lat="42.6819720" lon="-0.5318730">
        <ele>992.8</ele>
        <time>2023-01-14T10:07:34Z</time>
      </trkpt>
      <trkpt lat="42.6819720" lon="-0.5318730">
        <ele>992.6</ele>
        <time>2023-01-14T10:07:35Z</time>
      </trkpt>
      <trkpt lat="42.6819720" lon="-0.5318730">
        <ele>992.4</ele>
        <time>2023-01-14T10:07:36Z</time>
      </trkpt>
      <trkpt lat="42.6819720" lon="-0.5318720">
        <ele>992.4</ele>
        <time>2023-01-14T10:07:37Z</time>
      </trkpt>
      <trkpt lat="42.6819730" lon="-0.5318720">
        <ele>992.2</ele>
        <time>2023-01-14T10:07:38Z</time>
      </trkpt>
      <trkpt lat="42.6819750" lon="-0.5318710">
        <ele>992.2</ele>
        <time>2023-01-14T10:07:39Z</time>
      </trkpt>
      <trkpt lat="42.6819830" lon="-0.5318640">
        <ele>992.4</ele>
        <time>2023-01-14T10:07:40Z</time>
      </trkpt>
      <trkpt lat="42.6819940" lon="-0.5318390">
        <ele>992.4</ele>
        <time>2023-01-14T10:07:41Z</time>
      </trkpt>
      <trkpt lat="42.6820020" lon="-0.5317980">
        <ele>992.8</ele>
        <time>2023-01-14T10:07:42Z</time>
      </trkpt>
      <trkpt lat="42.6820080" lon="-0.5317500">
        <ele>993.0</ele>
        <time>2023-01-14T10:07:43Z</time>
      </trkpt>
      <trkpt lat="42.6820120" lon="-0.5316990">
        <ele>993.0</ele>
        <time>2023-01-14T10:07:44Z</time>
      </trkpt>
      <trkpt lat="42.6820120" lon="-0.5316430">
        <ele>993.2</ele>
        <time>2023-01-14T10:07:45Z</time>
      </trkpt>
      <trkpt lat="42.6820150" lon="-0.5315870">
        <ele>993.2</ele>
        <time>2023-01-14T10:07:46Z</time>
      </trkpt>
      <trkpt lat="42.6820180" lon="-0.5315360">
        <ele>993.4</ele>
        <time>2023-01-14T10:07:47Z</time>
      </trkpt>
      <trkpt lat="42.6820210" lon="-0.5314810">
        <ele>993.6</ele>
        <time>2023-01-14T10:07:48Z</time>
      </trkpt>
      <trkpt lat="42.6820290" lon="-0.5314230">
        <ele>993.8</ele>
        <time>2023-01-14T10:07:49Z</time>
      </trkpt>
      <trkpt lat="42.6820380" lon="-0.5313630">
        <ele>993.8</ele>
        <time>2023-01-14T10:07:50Z</time>
      </trkpt>
      <trkpt lat="42.6820490" lon="-0.5313060">
        <ele>994.0</ele>
        <time>2023-01-14T10:07:51Z</time>
      </trkpt>
      <trkpt lat="42.6820590" lon="-0.5312520">
        <ele>994.4</ele>
        <time>2023-01-14T10:07:52Z</time>
      </trkpt>
      <trkpt lat="42.6820670" lon="-0.5312000">
        <ele>994.4</ele>
        <time>2023-01-14T10:07:53Z</time>
      </trkpt>
      <trkpt lat="42.6820770" lon="-0.5311430">
        <ele>994.6</ele>
        <time>2023-01-14T10:07:54Z</time>
      </trkpt>
      <trkpt lat="42.6820890" lon="-0.5310850">
        <ele>994.8</ele>
        <time>2023-01-14T10:07:55Z</time>
      </trkpt>
      <trkpt lat="42.6821030" lon="-0.5310280">
        <ele>995.0</ele>
        <time>2023-01-14T10:07:56Z</time>
      </trkpt>
      <trkpt lat="42.6821150" lon="-0.5309700">
        <ele>995.0</ele>
        <time>2023-01-14T10:07:57Z</time>
      </trkpt>
      <trkpt lat="42.6821250" lon="-0.5309110">
        <ele>995.2</ele>
        <time>2023-01-14T10:07:58Z</time>
      </trkpt>
      <trkpt lat="42.6821310" lon="-0.5308510">
        <ele>995.4</ele>
        <time>2023-01-14T10:07:59Z</time>
      </trkpt>
      <trkpt lat="42.6821370" lon="-0.5307910">
        <ele>995.8</ele>
        <time>2023-01-14T10:08:00Z</time>
      </trkpt>
      <trkpt lat="42.6821440" lon="-0.5307320">
        <ele>996.2</ele>
        <time>2023-01-14T10:08:01Z</time>
      </trkpt>
      <trkpt lat="42.6821490" lon="-0.5306720">
        <ele>996.4</ele>
        <time>2023-01-14T10:08:02Z</time>
      </trkpt>
      <trkpt lat="42.6821580" lon="-0.5306130">
        <ele>996.8</ele>
        <time>2023-01-14T10:08:03Z</time>
      </trkpt>
      <trkpt lat="42.6821720" lon="-0.5305550">
        <ele>997.0</ele>
        <time>2023-01-14T10:08:04Z</time>
      </trkpt>
      <trkpt lat="42.6821840" lon="-0.5304980">
        <ele>997.4</ele>
        <time>2023-01-14T10:08:05Z</time>
      </trkpt>
      <trkpt lat="42.6821930" lon="-0.5304410">
        <ele>997.4</ele>
        <time>2023-01-14T10:08:06Z</time>
      </trkpt>
      <trkpt lat="42.6821990" lon="-0.5303830">
        <ele>997.6</ele>
        <time>2023-01-14T10:08:07Z</time>
      </trkpt>
      <trkpt lat="42.6822020" lon="-0.5303280">
        <ele>998.0</ele>
        <time>2023-01-14T10:08:08Z</time>
      </trkpt>
      <trkpt lat="42.6822060" lon="-0.5302730">
        <ele>998.2</ele>
        <time>2023-01-14T10:08:09Z</time>
      </trkpt>
      <trkpt lat="42.6822110" lon="-0.5302200">
        <ele>998.4</ele>
        <time>2023-01-14T10:08:10Z</time>
      </trkpt>
      <trkpt lat="42.6822140" lon="-0.5301670">
        <ele>998.6</ele>
        <time>2023-01-14T10:08:11Z</time>
      </trkpt>
      <trkpt lat="42.6822200" lon="-0.5301140">
        <ele>998.8</ele>
        <time>2023-01-14T10:08:12Z</time>
      </trkpt>
      <trkpt lat="42.6822280" lon="-0.5300640">
        <ele>999.0</ele>
        <time>2023-01-14T10:08:13Z</time>
      </trkpt>
      <trkpt lat="42.6822310" lon="-0.5300130">
        <ele>999.4</ele>
        <time>2023-01-14T10:08:14Z</time>
      </trkpt>
      <trkpt lat="42.6822330" lon="-0.5299610">
        <ele>999.6</ele>
        <time>2023-01-14T10:08:15Z</time>
      </trkpt>
      <trkpt lat="42.6822390" lon="-0.5299070">
        <ele>999.8</ele>
        <time>2023-01-14T10:08:16Z</time>
      </trkpt>
      <trkpt lat="42.6822440" lon="-0.5298530">
        <ele>1000.0</ele>
        <time>2023-01-14T10:08:17Z</time>
      </trkpt>
      <trkpt lat="42.6822490" lon="-0.5297990">
        <ele>1000.2</ele>
        <time>2023-01-14T10:08:18Z</time>
      </trkpt>
      <trkpt lat="42.6822530" lon="-0.5297440">
        <ele>1000.6</ele>
        <time>2023-01-14T10:08:19Z</time>
      </trkpt>
      <trkpt lat="42.6822530" lon="-0.5296910">
        <ele>1001.0</ele>
        <time>2023-01-14T10:08:20Z</time>
      </trkpt>
      <trkpt lat="42.6822520" lon="-0.5296390">
        <ele>1001.4</ele>
        <time>2023-01-14T10:08:21Z</time>
      </trkpt>
      <trkpt lat="42.6822510" lon="-0.5295870">
        <ele>1001.8</ele>
        <time>2023-01-14T10:08:22Z</time>
      </trkpt>
      <trkpt lat="42.6822530" lon="-0.5295350">
        <ele>1002.0</ele>
        <time>2023-01-14T10:08:23Z</time>
      </trkpt>
      <trkpt lat="42.6822600" lon="-0.5294820">
        <ele>1002.2</ele>
        <time>2023-01-14T10:08:24Z</time>
      </trkpt>
      <trkpt lat="42.6822680" lon="-0.5294300">
        <ele>1002.4</ele>
        <time>2023-01-14T10:08:25Z</time>
      </trkpt>
      <trkpt lat="42.6822750" lon="-0.5293780">
        <ele>1002.8</ele>
        <time>2023-01-14T10:08:26Z</time>
      </trkpt>
      <trkpt lat="42.6822780" lon="-0.5293280">
        <ele>1003.0</ele>
        <time>2023-01-14T10:08:27Z</time>
      </trkpt>
      <trkpt lat="42.6822860" lon="-0.5292800">
        <ele>1003.2</ele>
        <time>2023-01-14T10:08:28Z</time>
      </trkpt>
      <trkpt lat="42.6822930" lon="-0.5292290">
        <ele>1003.4</ele>
        <time>2023-01-14T10:08:29Z</time>
      </trkpt>
      <trkpt lat="42.6822970" lon="-0.5291770">
        <ele>1003.8</ele>
        <time>2023-01-14T10:08:30Z</time>
      </trkpt>
      <trkpt lat="42.6823000" lon="-0.5291270">
        <ele>1004.4</ele>
        <time>2023-01-14T10:08:31Z</time>
      </trkpt>
      <trkpt lat="42.6823020" lon="-0.5290770">
        <ele>1004.6</ele>
        <time>2023-01-14T10:08:32Z</time>
      </trkpt>
      <trkpt lat="42.6823030" lon="-0.5290270">
        <ele>1005.2</ele>
        <time>2023-01-14T10:08:33Z</time>
      </trkpt>
      <trkpt lat="42.6823040" lon="-0.5289750">
        <ele>1005.6</ele>
        <time>2023-01-14T10:08:34Z</time>
      </trkpt>
      <trkpt lat="42.6823070" lon="-0.5289280">
        <ele>1006.0</ele>
        <time>2023-01-14T10:08:35Z</time>
      </trkpt>
      <trkpt lat="42.6823120" lon="-0.5288800">
        <ele>1006.2</ele>
        <time>2023-01-14T10:08:36Z</time>
      </trkpt>
      <trkpt lat="42.6823170" lon="-0.5288330">
        <ele>1006.4</ele>
        <time>2023-01-14T10:08:37Z</time>
      </trkpt>
      <trkpt lat="42.6823230" lon="-0.5287850">
        <ele>1006.6</ele>
        <time>2023-01-14T10:08:38Z</time>
      </trkpt>
      <trkpt lat="42.6823290" lon="-0.5287350">
        <ele>1007.0</ele>
        <time>2023-01-14T10:08:39Z</time>
      </trkpt>
      <trkpt lat="42.6823350" lon="-0.5286860">
        <ele>1007.2</ele>
        <time>2023-01-14T10:08:40Z</time>
      </trkpt>
      <trkpt lat="42.6823400" lon="-0.5286360">
        <ele>1007.8</ele>
        <time>2023-01-14T10:08:41Z</time>
      </trkpt>
      <trkpt lat="42.6823440" lon="-0.5285860">
        <ele>1008.0</ele>
        <time>2023-01-14T10:08:42Z</time>
      </trkpt>
      <trkpt lat="42.6823470" lon="-0.5285380">
        <ele>1008.4</ele>
        <time>2023-01-14T10:08:43Z</time>
      </trkpt>
      <trkpt lat="42.6823520" lon="-0.5284890">
        <ele>1008.6</ele>
        <time>2023-01-14T10:08:44Z</time>
      </trkpt>
      <trkpt lat="42.6823560" lon="-0.5284410">
        <ele>1008.8</ele>
        <time>2023-01-14T10:08:45Z</time>
      </trkpt>
      <trkpt lat="42.6823610" lon="-0.5283940">
        <ele>1009.6</ele>
        <time>2023-01-14T10:08:46Z</time>
      </trkpt>
      <trkpt lat="42.6823670" lon="-0.5283460">
        <ele>1010.2</ele>
        <time>2023-01-14T10:08:47Z</time>
      </trkpt>
      <trkpt lat="42.6823720" lon="-0.5282970">
        <ele>1010.6</ele>
        <time>2023-01-14T10:08:48Z</time>
      </trkpt>
      <trkpt lat="42.6823750" lon="-0.5282470">
        <ele>1011.0</ele>
        <time>2023-01-14T10:08:49Z</time>
      </trkpt>
      <trkpt lat="42.6823800" lon="-0.5281970">
        <ele>1011.6</ele>
        <time>2023-01-14T10:08:50Z</time>
      </trkpt>
      <trkpt lat="42.6823870" lon="-0.5281480">
        <ele>1012.2</ele>
        <time>2023-01-14T10:08:51Z</time>
      </trkpt>
      <trkpt lat="42.6823930" lon="-0.5280980">
        <ele>1012.4</ele>
        <time>2023-01-14T10:08:52Z</time>
      </trkpt>
      <trkpt lat="42.6824020" lon="-0.5280500">
        <ele>1012.8</ele>
        <time>2023-01-14T10:08:53Z</time>
      </trkpt>
      <trkpt lat="42.6824110" lon="-0.5279990">
        <ele>1013.0</ele>
        <time>2023-01-14T10:08:54Z</time>
      </trkpt>
      <trkpt lat="42.6824200" lon="-0.5279480">
        <ele>1013.0</ele>
        <time>2023-01-14T10:08:55Z</time>
      </trkpt>
      <trkpt lat="42.6824280" lon="-0.5279000">
        <ele>1013.4</ele>
        <time>2023-01-14T10:08:56Z</time>
      </trkpt>
      <trkpt lat="42.6824360" lon="-0.5278540">
        <ele>1013.8</ele>
        <time>2023-01-14T10:08:57Z</time>
      </trkpt>
      <trkpt lat="42.6824430" lon="-0.5278070">
        <ele>1014.4</ele>
        <time>2023-01-14T10:08:58Z</time>
      </trkpt>
      <trkpt lat="42.6824510" lon="-0.5277630">
        <ele>1014.8</ele>
        <time>2023-01-14T10:08:59Z</time>
      </trkpt>
      <trkpt lat="42.6824570" lon="-0.5277180">
        <ele>1015.0</ele>
        <time>2023-01-14T10:09:00Z</time>
      </trkpt>
      <trkpt lat="42.6824610" lon="-0.5276720">
        <ele>1015.4</ele>
        <time>2023-01-14T10:09:01Z</time>
      </trkpt>
      <trkpt lat="42.6824640" lon="-0.5276240">
        <ele>1015.8</ele>
        <time>2023-01-14T10:09:02Z</time>
      </trkpt>
      <trkpt lat="42.6824660" lon="-0.5275750">
        <ele>1016.4</ele>
        <time>2023-01-14T10:09:03Z</time>
      </trkpt>
      <trkpt lat="42.6824700" lon="-0.5275270">
        <ele>1017.0</ele>
        <time>2023-01-14T10:09:04Z</time>
      </trkpt>
      <trkpt lat="42.6824740" lon="-0.5274790">
        <ele>1017.2</ele>
        <time>2023-01-14T10:09:05Z</time>
      </trkpt>
      <trkpt lat="42.6824790" lon="-0.5274310">
        <ele>1017.8</ele>
        <time>2023-01-14T10:09:06Z</time>
      </trkpt>
      <trkpt lat="42.6824840" lon="-0.5273840">
        <ele>1018.2</ele>
        <time>2023-01-14T10:09:07Z</time>
      </trkpt>
      <trkpt lat="42.6824850" lon="-0.5273350">
        <ele>1018.6</ele>
        <time>2023-01-14T10:09:08Z</time>
      </trkpt>
      <trkpt lat="42.6824860" lon="-0.5272870">
        <ele>1018.6</ele>
        <time>2023-01-14T10:09:09Z</time>
      </trkpt>
      <trkpt lat="42.6824890" lon="-0.5272400">
        <ele>1019.0</ele>
        <time>2023-01-14T10:09:10Z</time>
      </trkpt>
      <trkpt lat="42.6824910" lon="-0.5271930">
        <ele>1019.2</ele>
        <time>2023-01-14T10:09:11Z</time>
      </trkpt>
      <trkpt lat="42.6824910" lon="-0.5271460">
        <ele>1019.6</ele>
        <time>2023-01-14T10:09:12Z</time>
      </trkpt>
      <trkpt lat="42.6824890" lon="-0.5270960">
        <ele>1020.0</ele>
        <time>2023-01-14T10:09:13Z</time>
      </trkpt>
      <trkpt lat="42.6824850" lon="-0.5270460">
        <ele>1020.8</ele>
        <time>2023-01-14T10:09:14Z</time>
      </trkpt>
      <trkpt lat="42.6824820" lon="-0.5269950">
        <ele>1021.2</ele>
        <time>2023-01-14T10:09:15Z</time>
      </trkpt>
      <trkpt lat="42.6824780" lon="-0.5269440">
        <ele>1021.6</ele>
        <time>2023-01-14T10:09:16Z</time>
      </trkpt>
      <trkpt lat="42.6824780" lon="-0.5268930">
        <ele>1021.8</ele>
        <time>2023-01-14T10:09:17Z</time>
      </trkpt>
      <trkpt lat="42.6824760" lon="-0.5268420">
        <ele>1022.2</ele>
        <time>2023-01-14T10:09:18Z</time>
      </trkpt>
      <trkpt lat="42.6824750" lon="-0.5267920">
        <ele>1022.4</ele>
        <time>2023-01-14T10:09:19Z</time>
      </trkpt>
      <trkpt lat="42.6824720" lon="-0.5267420">
        <ele>1022.8</ele>
        <time>2023-01-14T10:09:20Z</time>
      </trkpt>
      <trkpt lat="42.6824660" lon="-0.5266940">
        <ele>1023.4</ele>
        <time>2023-01-14T10:09:21Z</time>
      </trkpt>
      <trkpt lat="42.6824590" lon="-0.5266460">
        <ele>1023.6</ele>
        <time>2023-01-14T10:09:22Z</time>
      </trkpt>
      <trkpt lat="42.6824550" lon="-0.5265990">
        <ele>1024.0</ele>
        <time>2023-01-14T10:09:23Z</time>
      </trkpt>
      <trkpt lat="42.6824540" lon="-0.5265500">
        <ele>1024.4</ele>
        <time>2023-01-14T10:09:24Z</time>
      </trkpt>
      <trkpt lat="42.6824540" lon="-0.5265010">
        <ele>1024.8</ele>
        <time>2023-01-14T10:09:25Z</time>
      </trkpt>
      <trkpt lat="42.6824540" lon="-0.5264500">
        <ele>1025.6</ele>
        <time>2023-01-14T10:09:26Z</time>
      </trkpt>
      <trkpt lat="42.6824540" lon="-0.5263990">
        <ele>1026.2</ele>
        <time>2023-01-14T10:09:27Z</time>
      </trkpt>
      <trkpt lat="42.6824550" lon="-0.5263500">
        <ele>1026.4</ele>
        <time>2023-01-14T10:09:28Z</time>
      </trkpt>
      <trkpt lat="42.6824560" lon="-0.5263000">
        <ele>1027.0</ele>
        <time>2023-01-14T10:09:29Z</time>
      </trkpt>
      <trkpt lat="42.6824560" lon="-0.5262480">
        <ele>1027.4</ele>
        <time>2023-01-14T10:09:30Z</time>
      </trkpt>
      <trkpt lat="42.6824560" lon="-0.5261960">
        <ele>1027.8</ele>
        <time>2023-01-14T10:09:31Z</time>
      </trkpt>
      <trkpt lat="42.6824570" lon="-0.5261450">
        <ele>1028.2</ele>
        <time>2023-01-14T10:09:32Z</time>
      </trkpt>
      <trkpt lat="42.6824570" lon="-0.5260930">
        <ele>1028.6</ele>
        <time>2023-01-14T10:09:33Z</time>
      </trkpt>
      <trkpt lat="42.6824570" lon="-0.5260400">
        <ele>1029.0</ele>
        <time>2023-01-14T10:09:34Z</time>
      </trkpt>
      <trkpt lat="42.6824590" lon="-0.5259880">
        <ele>1029.2</ele>
        <time>2023-01-14T10:09:35Z</time>
      </trkpt>
      <trkpt lat="42.6824610" lon="-0.5259360">
        <ele>1029.6</ele>
        <time>2023-01-14T10:09:36Z</time>
      </trkpt>
      <trkpt lat="42.6824650" lon="-0.5258850">
        <ele>1029.8</ele>
        <time>2023-01-14T10:09:37Z</time>
      </trkpt>
      <trkpt lat="42.6824680" lon="-0.5258350">
        <ele>1030.0</ele>
        <time>2023-01-14T10:09:38Z</time>
      </trkpt>
      <trkpt lat="42.6824730" lon="-0.5257860">
        <ele>1030.0</ele>
        <time>2023-01-14T10:09:39Z</time>
      </trkpt>
      <trkpt lat="42.6824760" lon="-0.5257340">
        <ele>1031.0</ele>
        <time>2023-01-14T10:09:40Z</time>
      </trkpt>
      <trkpt lat="42.6824810" lon="-0.5256810">
        <ele>1031.4</ele>
        <time>2023-01-14T10:09:41Z</time>
      </trkpt>
      <trkpt lat="42.6824860" lon="-0.5256290">
        <ele>1031.8</ele>
        <time>2023-01-14T10:09:42Z</time>
      </trkpt>
      <trkpt lat="42.6824910" lon="-0.5255760">
        <ele>1032.2</ele>
        <time>2023-01-14T10:09:43Z</time>
      </trkpt>
      <trkpt lat="42.6824990" lon="-0.5255240">
        <ele>1033.2</ele>
        <time>2023-01-14T10:09:44Z</time>
      </trkpt>
      <trkpt lat="42.6825080" lon="-0.5254720">
        <ele>1034.0</ele>
        <time>2023-01-14T10:09:45Z</time>
      </trkpt>
      <trkpt lat="42.6825120" lon="-0.5254190">
        <ele>1034.2</ele>
        <time>2023-01-14T10:09:46Z</time>
      </trkpt>
      <trkpt lat="42.6825150" lon="-0.5253680">
        <ele>1034.8</ele>
        <time>2023-01-14T10:09:47Z</time>
      </trkpt>
      <trkpt lat="42.6825170" lon="-0.5253170">
        <ele>1035.4</ele>
        <time>2023-01-14T10:09:48Z</time>
      </trkpt>
      <trkpt lat="42.6825180" lon="-0.5252660">
        <ele>1035.8</ele>
        <time>2023-01-14T10:09:49Z</time>
      </trkpt>
      <trkpt lat="42.6825170" lon="-0.5252150">
        <ele>1036.2</ele>
        <time>2023-01-14T10:09:50Z</time>
      </trkpt>
      <trkpt lat="42.6825150" lon="-0.5251620">
        <ele>1036.6</ele>
        <time>2023-01-14T10:09:51Z</time>
      </trkpt>
      <trkpt lat="42.6825130" lon="-0.5251090">
        <ele>1037.0</ele>
        <time>2023-01-14T10:09:52Z</time>
      </trkpt>
      <trkpt lat="42.6825070" lon="-0.5250580">
        <ele>1037.6</ele>
        <time>2023-01-14T10:09:53Z</time>
      </trkpt>
      <trkpt lat="42.6825000" lon="-0.5250100">
        <ele>1038.0</ele>
        <time>2023-01-14T10:09:54Z</time>
      </trkpt>
      <trkpt lat="42.6824910" lon="-0.5249630">
        <ele>1038.2</ele>
        <time>2023-01-14T10:09:55Z</time>
      </trkpt>
      <trkpt lat="42.6824800" lon="-0.5249150">
        <ele>1038.4</ele>
        <time>2023-01-14T10:09:56Z</time>
      </trkpt>
      <trkpt lat="42.6824670" lon="-0.5248690">
        <ele>1039.0</ele>
        <time>2023-01-14T10:09:57Z</time>
      </trkpt>
      <trkpt lat="42.6824540" lon="-0.5248250">
        <ele>1039.4</ele>
        <time>2023-01-14T10:09:58Z</time>
      </trkpt>
      <trkpt lat="42.6824410" lon="-0.5247790">
        <ele>1040.0</ele>
        <time>2023-01-14T10:09:59Z</time>
      </trkpt>
      <trkpt lat="42.6824280" lon="-0.5247340">
        <ele>1040.4</ele>
        <time>2023-01-14T10:10:00Z</time>
      </trkpt>
      <trkpt lat="42.6824150" lon="-0.5246880">
        <ele>1040.8</ele>
        <time>2023-01-14T10:10:01Z</time>
      </trkpt>
      <trkpt lat="42.6824030" lon="-0.5246420">
        <ele>1041.2</ele>
        <time>2023-01-14T10:10:02Z</time>
      </trkpt>
      <trkpt lat="42.6823900" lon="-0.5245970">
        <ele>1041.6</ele>
        <time>2023-01-14T10:10:03Z</time>
      </trkpt>
      <trkpt lat="42.6823770" lon="-0.5245530">
        <ele>1042.4</ele>
        <time>2023-01-14T10:10:04Z</time>
      </trkpt>
      <trkpt lat="42.6823640" lon="-0.5245090">
        <ele>1043.0</ele>
        <time>2023-01-14T10:10:05Z</time>
      </trkpt>
      <trkpt lat="42.6823530" lon="-0.5244650">
        <ele>1043.4</ele>
        <time>2023-01-14T10:10:06Z</time>
      </trkpt>
      <trkpt lat="42.6823410" lon="-0.5244190">
        <ele>1044.0</ele>
        <time>2023-01-14T10:10:07Z</time>
      </trkpt>
      <trkpt lat="42.6823300" lon="-0.5243730">
        <ele>1044.2</ele>
        <time>2023-01-14T10:10:08Z</time>
      </trkpt>
      <trkpt lat="42.6823150" lon="-0.5243290">
        <ele>1044.4</ele>
        <time>2023-01-14T10:10:09Z</time>
      </trkpt>
      <trkpt lat="42.6823010" lon="-0.5242830">
        <ele>1045.0</ele>
        <time>2023-01-14T10:10:10Z</time>
      </trkpt>
      <trkpt lat="42.6822870" lon="-0.5242370">
        <ele>1045.4</ele>
        <time>2023-01-14T10:10:11Z</time>
      </trkpt>
      <trkpt lat="42.6822760" lon="-0.5241900">
        <ele>1045.8</ele>
        <time>2023-01-14T10:10:12Z</time>
      </trkpt>
      <trkpt lat="42.6822650" lon="-0.5241450">
        <ele>1046.2</ele>
        <time>2023-01-14T10:10:13Z</time>
      </trkpt>
      <trkpt lat="42.6822550" lon="-0.5240980">
        <ele>1046.4</ele>
        <time>2023-01-14T10:10:14Z</time>
      </trkpt>
      <trkpt lat="42.6822470" lon="-0.5240520">
        <ele>1046.8</ele>
        <time>2023-01-14T10:10:15Z</time>
      </trkpt>
      <trkpt lat="42.6822380" lon="-0.5240040">
        <ele>1047.8</ele>
        <time>2023-01-14T10:10:16Z</time>
      </trkpt>
      <trkpt lat="42.6822290" lon="-0.5239560">
        <ele>1048.2</ele>
        <time>2023-01-14T10:10:17Z</time>
      </trkpt>
      <trkpt lat="42.6822220" lon="-0.5239060">
        <ele>1048.8</ele>
        <time>2023-01-14T10:10:18Z</time>
      </trkpt>
      <trkpt lat="42.6822130" lon="-0.5238560">
        <ele>1049.0</ele>
        <time>2023-01-14T10:10:19Z</time>
      </trkpt>
      <trkpt lat="42.6822050" lon="-0.5238060">
        <ele>1049.4</ele>
        <time>2023-01-14T10:10:20Z</time>
      </trkpt>
      <trkpt lat="42.6821950" lon="-0.5237570">
        <ele>1049.8</ele>
        <time>2023-01-14T10:10:21Z</time>
      </trkpt>
      <trkpt lat="42.6821860" lon="-0.5237090">
        <ele>1050.0</ele>
        <time>2023-01-14T10:10:22Z</time>
      </trkpt>
      <trkpt lat="42.6821780" lon="-0.5236630">
        <ele>1050.6</ele>
        <time>2023-01-14T10:10:23Z</time>
      </trkpt>
      <trkpt lat="42.6821710" lon="-0.5236190">
        <ele>1051.2</ele>
        <time>2023-01-14T10:10:24Z</time>
      </trkpt>
      <trkpt lat="42.6821670" lon="-0.5235790">
        <ele>1051.4</ele>
        <time>2023-01-14T10:10:25Z</time>
      </trkpt>
      <trkpt lat="42.6821630" lon="-0.5235430">
        <ele>1051.6</ele>
        <time>2023-01-14T10:10:26Z</time>
      </trkpt>
      <trkpt lat="42.6821620" lon="-0.5235090">
        <ele>1051.8</ele>
        <time>2023-01-14T10:10:27Z</time>
      </trkpt>
      <trkpt lat="42.6821640" lon="-0.5234760">
        <ele>1052.0</ele>
        <time>2023-01-14T10:10:28Z</time>
      </trkpt>
      <trkpt lat="42.6821720" lon="-0.5234400">
        <ele>1052.6</ele>
        <time>2023-01-14T10:10:29Z</time>
      </trkpt>
      <trkpt lat="42.6821850" lon="-0.5234010">
        <ele>1053.0</ele>
        <time>2023-01-14T10:10:30Z</time>
      </trkpt>
      <trkpt lat="42.6822020" lon="-0.5233640">
        <ele>1053.4</ele>
        <time>2023-01-14T10:10:31Z</time>
      </trkpt>
      <trkpt lat="42.6822240" lon="-0.5233310">
        <ele>1053.8</ele>
        <time>2023-01-14T10:10:32Z</time>
      </trkpt>
      <trkpt lat="42.6822480" lon="-0.5233010">
        <ele>1054.2</ele>
        <time>2023-01-14T10:10:33Z</time>
      </trkpt>
      <trkpt lat="42.6822740" lon="-0.5232730">
        <ele>1054.6</ele>
        <time>2023-01-14T10:10:34Z</time>
      </trkpt>
      <trkpt lat="42.6823070" lon="-0.5232530">
        <ele>1054.8</ele>
        <time>2023-01-14T10:10:35Z</time>
      </trkpt>
      <trkpt lat="42.6823430" lon="-0.5232400">
        <ele>1055.0</ele>
        <time>2023-01-14T10:10:36Z</time>
      </trkpt>
      <trkpt lat="42.6823780" lon="-0.5232420">
        <ele>1055.4</ele>
        <time>2023-01-14T10:10:37Z</time>
      </trkpt>
      <trkpt lat="42.6824200" lon="-0.5232450">
        <ele>1055.6</ele>
        <time>2023-01-14T10:10:38Z</time>
      </trkpt>
      <trkpt lat="42.6824640" lon="-0.5232510">
        <ele>1056.0</ele>
        <time>2023-01-14T10:10:39Z</time>
      </trkpt>
      <trkpt lat="42.6825070" lon="-0.5232600">
        <ele>1056.2</ele>
        <time>2023-01-14T10:10:40Z</time>
      </trkpt>
      <trkpt lat="42.6825470" lon="-0.5232750">
        <ele>1056.6</ele>
        <time>2023-01-14T10:10:41Z</time>
      </trkpt>
      <trkpt lat="42.6825820" lon="-0.5232980">
        <ele>1056.8</ele>
        <time>2023-01-14T10:10:42Z</time>
      </trkpt>
      <trkpt lat="42.6826130" lon="-0.5233230">
        <ele>1057.0</ele>
        <time>2023-01-14T10:10:43Z</time>
      </trkpt>
      <trkpt lat="42.6826410" lon="-0.5233540">
        <ele>1057.2</ele>
        <time>2023-01-14T10:10:44Z</time>
      </trkpt>
      <trkpt lat="42.6826650" lon="-0.5233910">
        <ele>1057.2</ele>
        <time>2023-01-14T10:10:45Z</time>
      </trkpt>
      <trkpt lat="42.6826870" lon="-0.5234320">
        <ele>1057.2</ele>
        <time>2023-01-14T10:10:46Z</time>
      </trkpt>
      <trkpt lat="42.6827050" lon="-0.5234780">
        <ele>1057.6</ele>
        <time>2023-01-14T10:10:47Z</time>
      </trkpt>
      <trkpt lat="42.6827200" lon="-0.5235280">
        <ele>1057.8</ele>
        <time>2023-01-14T10:10:48Z</time>
      </trkpt>
      <trkpt lat="42.6827340" lon="-0.5235800">
        <ele>1057.8</ele>
        <time>2023-01-14T10:10:49Z</time>
      </trkpt>
      <trkpt lat="42.6827460" lon="-0.5236320">
        <ele>1058.0</ele>
        <time>2023-01-14T10:10:50Z</time>
      </trkpt>
      <trkpt lat="42.6827620" lon="-0.5236830">
        <ele>1058.4</ele>
        <time>2023-01-14T10:10:51Z</time>
      </trkpt>
      <trkpt lat="42.6827790" lon="-0.5237340">
        <ele>1058.8</ele>
        <time>2023-01-14T10:10:52Z</time>
      </trkpt>
      <trkpt lat="42.6827950" lon="-0.5237870">
        <ele>1059.0</ele>
        <time>2023-01-14T10:10:53Z</time>
      </trkpt>
      <trkpt lat="42.6828110" lon="-0.5238390">
        <ele>1059.0</ele>
        <time>2023-01-14T10:10:54Z</time>
      </trkpt>
      <trkpt lat="42.6828260" lon="-0.5238880">
        <ele>1059.2</ele>
        <time>2023-01-14T10:10:55Z</time>
      </trkpt>
      <trkpt lat="42.6828400" lon="-0.5239340">
        <ele>1059.2</ele>
        <time>2023-01-14T10:10:56Z</time>
      </trkpt>
      <trkpt lat="42.6828530" lon="-0.5239790">
        <ele>1059.4</ele>
        <time>2023-01-14T10:10:57Z</time>
      </trkpt>
      <trkpt lat="42.6828630" lon="-0.5240260">
        <ele>1059.6</ele>
        <time>2023-01-14T10:10:58Z</time>
      </trkpt>
      <trkpt lat="42.6828740" lon="-0.5240750">
        <ele>1059.8</ele>
        <time>2023-01-14T10:10:59Z</time>
      </trkpt>
      <trkpt lat="42.6828840" lon="-0.5241260">
        <ele>1060.0</ele>
        <time>2023-01-14T10:11:00Z</time>
      </trkpt>
      <trkpt lat="42.6828930" lon="-0.5241800">
        <ele>1060.0</ele>
        <time>2023-01-14T10:11:01Z</time>
      </trkpt>
      <trkpt lat="42.6829010" lon="-0.5242350">
        <ele>1060.2</ele>
        <time>2023-01-14T10:11:02Z</time>
      </trkpt>
      <trkpt lat="42.6829110" lon="-0.5242900">
        <ele>1060.2</ele>
        <time>2023-01-14T10:11:03Z</time>
      </trkpt>
      <trkpt lat="42.6829230" lon="-0.5243450">
        <ele>1060.4</ele>
        <time>2023-01-14T10:11:04Z</time>
      </trkpt>
      <trkpt lat="42.6829350" lon="-0.5243970">
        <ele>1060.6</ele>
        <time>2023-01-14T10:11:05Z</time>
      </trkpt>
      <trkpt lat="42.6829440" lon="-0.5244430">
        <ele>1060.8</ele>
        <time>2023-01-14T10:11:06Z</time>
      </trkpt>
      <trkpt lat="42.6829480" lon="-0.5244830">
        <ele>1060.8</ele>
        <time>2023-01-14T10:11:07Z</time>
      </trkpt>
      <trkpt lat="42.6829490" lon="-0.5245190">
        <ele>1061.0</ele>
        <time>2023-01-14T10:11:08Z</time>
      </trkpt>
      <trkpt lat="42.6829550" lon="-0.5245550">
        <ele>1061.0</ele>
        <time>2023-01-14T10:11:09Z</time>
      </trkpt>
      <trkpt lat="42.6829660" lon="-0.5245970">
        <ele>1061.2</ele>
        <time>2023-01-14T10:11:10Z</time>
      </trkpt>
      <trkpt lat="42.6829810" lon="-0.5246460">
        <ele>1061.2</ele>
        <time>2023-01-14T10:11:11Z</time>
      </trkpt>
      <trkpt lat="42.6829980" lon="-0.5246960">
        <ele>1061.4</ele>
        <time>2023-01-14T10:11:12Z</time>
      </trkpt>
      <trkpt lat="42.6830140" lon="-0.5247470">
        <ele>1061.6</ele>
        <time>2023-01-14T10:11:13Z</time>
      </trkpt>
      <trkpt lat="42.6830320" lon="-0.5247970">
        <ele>1061.8</ele>
        <time>2023-01-14T10:11:14Z</time>
      </trkpt>
      <trkpt lat="42.6830480" lon="-0.5248450">
        <ele>1062.0</ele>
        <time>2023-01-14T10:11:15Z</time>
      </trkpt>
      <trkpt lat="42.6830640" lon="-0.5248930">
        <ele>1062.0</ele>
        <time>2023-01-14T10:11:16Z</time>
      </trkpt>
      <trkpt lat="42.6830820" lon="-0.5249420">
        <ele>1062.2</ele>
        <time>2023-01-14T10:11:17Z</time>
      </trkpt>
      <trkpt lat="42.6831000" lon="-0.5249930">
        <ele>1062.2</ele>
        <time>2023-01-14T10:11:18Z</time>
      </trkpt>
      <trkpt lat="42.6831180" lon="-0.5250450">
        <ele>1062.6</ele>
        <time>2023-01-14T10:11:19Z</time>
      </trkpt>
      <trkpt lat="42.6831360" lon="-0.5250970">
        <ele>1063.0</ele>
        <time>2023-01-14T10:11:20Z</time>
      </trkpt>
      <trkpt lat="42.6831540" lon="-0.5251490">
        <ele>1063.2</ele>
        <time>2023-01-14T10:11:21Z</time>
      </trkpt>
      <trkpt lat="42.6831700" lon="-0.5252020">
        <ele>1063.4</ele>
        <time>2023-01-14T10:11:22Z</time>
      </trkpt>
      <trkpt lat="42.6831810" lon="-0.5252540">
        <ele>1063.6</ele>
        <time>2023-01-14T10:11:23Z</time>
      </trkpt>
      <trkpt lat="42.6831900" lon="-0.5253070">
        <ele>1063.8</ele>
        <time>2023-01-14T10:11:24Z</time>
      </trkpt>
      <trkpt lat="42.6831970" lon="-0.5253590">
        <ele>1064.0</ele>
        <time>2023-01-14T10:11:25Z</time>
      </trkpt>
      <trkpt lat="42.6832030" lon="-0.5254150">
        <ele>1064.2</ele>
        <time>2023-01-14T10:11:26Z</time>
      </trkpt>
      <trkpt lat="42.6832120" lon="-0.5254730">
        <ele>1064.4</ele>
        <time>2023-01-14T10:11:27Z</time>
      </trkpt>
      <trkpt lat="42.6832190" lon="-0.5255270">
        <ele>1064.8</ele>
        <time>2023-01-14T10:11:28Z</time>
      </trkpt>
      <trkpt lat="42.6832290" lon="-0.5255860">
        <ele>1064.8</ele>
        <time>2023-01-14T10:11:29Z</time>
      </trkpt>
      <trkpt lat="42.6832410" lon="-0.5256440">
        <ele>1065.0</ele>
        <time>2023-01-14T10:11:30Z</time>
      </trkpt>
      <trkpt lat="42.6832560" lon="-0.5257010">
        <ele>1065.2</ele>
        <time>2023-01-14T10:11:31Z</time>
      </trkpt>
      <trkpt lat="42.6832740" lon="-0.5257610">
        <ele>1065.4</ele>
        <time>2023-01-14T10:11:32Z</time>
      </trkpt>
      <trkpt lat="42.6832940" lon="-0.5258200">
        <ele>1065.6</ele>
        <time>2023-01-14T10:11:33Z</time>
      </trkpt>
      <trkpt lat="42.6833160" lon="-0.5258800">
        <ele>1065.6</ele>
        <time>2023-01-14T10:11:34Z</time>
      </trkpt>
      <trkpt lat="42.6833400" lon="-0.5259410">
        <ele>1065.8</ele>
        <time>2023-01-14T10:11:35Z</time>
      </trkpt>
      <trkpt lat="42.6833600" lon="-0.5260030">
        <ele>1066.0</ele>
        <time>2023-01-14T10:11:36Z</time>
      </trkpt>
      <trkpt lat="42.6833790" lon="-0.5260660">
        <ele>1066.0</ele>
        <time>2023-01-14T10:11:37Z</time>
      </trkpt>
      <trkpt lat="42.6833940" lon="-0.5261310">
        <ele>1066.2</ele>
        <time>2023-01-14T10:11:38Z</time>
      </trkpt>
      <trkpt lat="42.6834070" lon="-0.5261960">
        <ele>1066.2</ele>
        <time>2023-01-14T10:11:39Z</time>
      </trkpt>
      <trkpt lat="42.6834190" lon="-0.5262610">
        <ele>1066.4</ele>
        <time>2023-01-14T10:11:40Z</time>
      </trkpt>
      <trkpt lat="42.6834310" lon="-0.5263270">
        <ele>1066.6</ele>
        <time>2023-01-14T10:11:41Z</time>
      </trkpt>
      <trkpt lat="42.6834450" lon="-0.5263920">
        <ele>1066.6</ele>
        <time>2023-01-14T10:11:42Z</time>
      </trkpt>
      <trkpt lat="42.6834600" lon="-0.5264540">
        <ele>1067.0</ele>
        <time>2023-01-14T10:11:43Z</time>
      </trkpt>
      <trkpt lat="42.6834750" lon="-0.5265150">
        <ele>1067.0</ele>
        <time>2023-01-14T10:11:44Z</time>
      </trkpt>
      <trkpt lat="42.6834930" lon="-0.5265760">
        <ele>1067.2</ele>
        <time>2023-01-14T10:11:45Z</time>
      </trkpt>
      <trkpt lat="42.6835110" lon="-0.5266370">
        <ele>1067.2</ele>
        <time>2023-01-14T10:11:46Z</time>
      </trkpt>
      <trkpt lat="42.6835310" lon="-0.5266990">
        <ele>1067.4</ele>
        <time>2023-01-14T10:11:47Z</time>
      </trkpt>
      <trkpt lat="42.6835500" lon="-0.5267630">
        <ele>1067.6</ele>
        <time>2023-01-14T10:11:48Z</time>
      </trkpt>
      <trkpt lat="42.6835670" lon="-0.5268280">
        <ele>1067.6</ele>
        <time>2023-01-14T10:11:49Z</time>
      </trkpt>
      <trkpt lat="42.6835830" lon="-0.5268930">
        <ele>1067.6</ele>
        <time>2023-01-14T10:11:50Z</time>
      </trkpt>
      <trkpt lat="42.6836000" lon="-0.5269570">
        <ele>1067.8</ele>
        <time>2023-01-14T10:11:51Z</time>
      </trkpt>
      <trkpt lat="42.6836170" lon="-0.5270200">
        <ele>1068.0</ele>
        <time>2023-01-14T10:11:52Z</time>
      </trkpt>
      <trkpt lat="42.6836330" lon="-0.5270830">
        <ele>1068.0</ele>
        <time>2023-01-14T10:11:53Z</time>
      </trkpt>
      <trkpt lat="42.6836480" lon="-0.5271460">
        <ele>1068.0</ele>
        <time>2023-01-14T10:11:54Z</time>
      </trkpt>
      <trkpt lat="42.6836620" lon="-0.5272090">
        <ele>1068.2</ele>
        <time>2023-01-14T10:11:55Z</time>
      </trkpt>
      <trkpt lat="42.6836750" lon="-0.5272710">
        <ele>1068.6</ele>
        <time>2023-01-14T10:11:56Z</time>
      </trkpt>
      <trkpt lat="42.6836900" lon="-0.5273330">
        <ele>1068.8</ele>
        <time>2023-01-14T10:11:57Z</time>
      </trkpt>
      <trkpt lat="42.6837070" lon="-0.5273940">
        <ele>1069.0</ele>
        <time>2023-01-14T10:11:58Z</time>
      </trkpt>
      <trkpt lat="42.6837230" lon="-0.5274550">
        <ele>1069.2</ele>
        <time>2023-01-14T10:11:59Z</time>
      </trkpt>
      <trkpt lat="42.6837390" lon="-0.5275170">
        <ele>1069.4</ele>
        <time>2023-01-14T10:12:00Z</time>
      </trkpt>
      <trkpt lat="42.6837520" lon="-0.5275790">
        <ele>1069.6</ele>
        <time>2023-01-14T10:12:01Z</time>
      </trkpt>
      <trkpt lat="42.6837650" lon="-0.5276430">
        <ele>1069.6</ele>
        <time>2023-01-14T10:12:02Z</time>
      </trkpt>
      <trkpt lat="42.6837810" lon="-0.5277070">
        <ele>1069.8</ele>
        <time>2023-01-14T10:12:03Z</time>
      </trkpt>
      <trkpt lat="42.6837960" lon="-0.5277730">
        <ele>1069.8</ele>
        <time>2023-01-14T10:12:04Z</time>
      </trkpt>
      <trkpt lat="42.6838130" lon="-0.5278360">
        <ele>1069.8</ele>
        <time>2023-01-14T10:12:05Z</time>
      </trkpt>
      <trkpt lat="42.6838310" lon="-0.5279010">
        <ele>1070.4</ele>
        <time>2023-01-14T10:12:06Z</time>
      </trkpt>
      <trkpt lat="42.6838510" lon="-0.5279630">
        <ele>1070.6</ele>
        <time>2023-01-14T10:12:07Z</time>
      </trkpt>
      <trkpt lat="42.6838750" lon="-0.5280250">
        <ele>1071.0</ele>
        <time>2023-01-14T10:12:08Z</time>
      </trkpt>
      <trkpt lat="42.6839050" lon="-0.5280810">
        <ele>1071.4</ele>
        <time>2023-01-14T10:12:09Z</time>
      </trkpt>
      <trkpt lat="42.6839420" lon="-0.5281280">
        <ele>1071.6</ele>
        <time>2023-01-14T10:12:10Z</time>
      </trkpt>
      <trkpt lat="42.6839850" lon="-0.5281650">
        <ele>1071.8</ele>
        <time>2023-01-14T10:12:11Z</time>
      </trkpt>
      <trkpt lat="42.6840320" lon="-0.5281910">
        <ele>1072.0</ele>
        <time>2023-01-14T10:12:12Z</time>
      </trkpt>
      <trkpt lat="42.6840810" lon="-0.5282140">
        <ele>1072.0</ele>
        <time>2023-01-14T10:12:13Z</time>
      </trkpt>
      <trkpt lat="42.6841310" lon="-0.5282340">
        <ele>1072.2</ele>
        <time>2023-01-14T10:12:14Z</time>
      </trkpt>
      <trkpt lat="42.6841790" lon="-0.5282530">
        <ele>1072.4</ele>
        <time>2023-01-14T10:12:15Z</time>
      </trkpt>
      <trkpt lat="42.6842280" lon="-0.5282730">
        <ele>1072.8</ele>
        <time>2023-01-14T10:12:16Z</time>
      </trkpt>
      <trkpt lat="42.6842750" lon="-0.5282890">
        <ele>1073.0</ele>
        <time>2023-01-14T10:12:17Z</time>
      </trkpt>
      <trkpt lat="42.6843230" lon="-0.5283020">
        <ele>1073.2</ele>
        <time>2023-01-14T10:12:18Z</time>
      </trkpt>
      <trkpt lat="42.6843710" lon="-0.5283100">
        <ele>1073.2</ele>
        <time>2023-01-14T10:12:19Z</time>
      </trkpt>
      <trkpt lat="42.6844190" lon="-0.5283140">
        <ele>1073.4</ele>
        <time>2023-01-14T10:12:20Z</time>
      </trkpt>
      <trkpt lat="42.6844660" lon="-0.5283110">
        <ele>1073.6</ele>
        <time>2023-01-14T10:12:21Z</time>
      </trkpt>
      <trkpt lat="42.6845110" lon="-0.5283000">
        <ele>1073.8</ele>
        <time>2023-01-14T10:12:22Z</time>
      </trkpt>
      <trkpt lat="42.6845530" lon="-0.5282770">
        <ele>1074.2</ele>
        <time>2023-01-14T10:12:23Z</time>
      </trkpt>
      <trkpt lat="42.6845920" lon="-0.5282440">
        <ele>1074.4</ele>
        <time>2023-01-14T10:12:24Z</time>
      </trkpt>
      <trkpt lat="42.6846270" lon="-0.5282020">
        <ele>1074.6</ele>
        <time>2023-01-14T10:12:25Z</time>
      </trkpt>
      <trkpt lat="42.6846590" lon="-0.5281600">
        <ele>1075.4</ele>
        <time>2023-01-14T10:12:26Z</time>
      </trkpt>
      <trkpt lat="42.6846870" lon="-0.5281140">
        <ele>1076.0</ele>
        <time>2023-01-14T10:12:27Z</time>
      </trkpt>
      <trkpt lat="42.6847140" lon="-0.5280680">
        <ele>1076.6</ele>
        <time>2023-01-14T10:12:28Z</time>
      </trkpt>
      <trkpt lat="42.6847390" lon="-0.5280190">
        <ele>1077.0</ele>
        <time>2023-01-14T10:12:29Z</time>
      </trkpt>
      <trkpt lat="42.6847650" lon="-0.5279680">
        <ele>1077.2</ele>
        <time>2023-01-14T10:12:30Z</time>
      </trkpt>
      <trkpt lat="42.6847890" lon="-0.5279170">
        <ele>1077.6</ele>
        <time>2023-01-14T10:12:31Z</time>
      </trkpt>
      <trkpt lat="42.6848140" lon="-0.5278680">
        <ele>1078.0</ele>
        <time>2023-01-14T10:12:32Z</time>
      </trkpt>
      <trkpt lat="42.6848370" lon="-0.5278190">
        <ele>1078.2</ele>
        <time>2023-01-14T10:12:33Z</time>
      </trkpt>
      <trkpt lat="42.6848600" lon="-0.5277710">
        <ele>1078.4</ele>
        <time>2023-01-14T10:12:34Z</time>
      </trkpt>
      <trkpt lat="42.6848830" lon="-0.5277230">
        <ele>1079.0</ele>
        <time>2023-01-14T10:12:35Z</time>
      </trkpt>
      <trkpt lat="42.6849080" lon="-0.5276760">
        <ele>1079.6</ele>
        <time>2023-01-14T10:12:36Z</time>
      </trkpt>
      <trkpt lat="42.6849330" lon="-0.5276310">
        <ele>1079.8</ele>
        <time>2023-01-14T10:12:37Z</time>
      </trkpt>
      <trkpt lat="42.6849590" lon="-0.5275860">
        <ele>1080.0</ele>
        <time>2023-01-14T10:12:38Z</time>
      </trkpt>
      <trkpt lat="42.6849850" lon="-0.5275420">
        <ele>1080.6</ele>
        <time>2023-01-14T10:12:39Z</time>
      </trkpt>
      <trkpt lat="42.6850100" lon="-0.5274970">
        <ele>1081.0</ele>
        <time>2023-01-14T10:12:40Z</time>
      </trkpt>
      <trkpt lat="42.6850340" lon="-0.5274510">
        <ele>1081.2</ele>
        <time>2023-01-14T10:12:41Z</time>
      </trkpt>
      <trkpt lat="42.6850590" lon="-0.5274050">
        <ele>1081.6</ele>
        <time>2023-01-14T10:12:42Z</time>
      </trkpt>
      <trkpt lat="42.6850850" lon="-0.5273590">
        <ele>1082.2</ele>
        <time>2023-01-14T10:12:43Z</time>
      </trkpt>
      <trkpt lat="42.6851100" lon="-0.5273130">
        <ele>1082.8</ele>
        <time>2023-01-14T10:12:44Z</time>
      </trkpt>
      <trkpt lat="42.6851360" lon="-0.5272670">
        <ele>1083.4</ele>
        <time>2023-01-14T10:12:45Z</time>
      </trkpt>
      <trkpt lat="42.6851620" lon="-0.5272210">
        <ele>1083.8</ele>
        <time>2023-01-14T10:12:46Z</time>
      </trkpt>
      <trkpt lat="42.6851890" lon="-0.5271770">
        <ele>1084.0</ele>
        <time>2023-01-14T10:12:47Z</time>
      </trkpt>
      <trkpt lat="42.6852160" lon="-0.5271320">
        <ele>1084.4</ele>
        <time>2023-01-14T10:12:48Z</time>
      </trkpt>
      <trkpt lat="42.6852430" lon="-0.5270860">
        <ele>1085.0</ele>
        <time>2023-01-14T10:12:49Z</time>
      </trkpt>
      <trkpt lat="42.6852690" lon="-0.5270430">
        <ele>1085.4</ele>
        <time>2023-01-14T10:12:50Z</time>
      </trkpt>
      <trkpt lat="42.6852950" lon="-0.5270020">
        <ele>1085.6</ele>
        <time>2023-01-14T10:12:51Z</time>
      </trkpt>
      <trkpt lat="42.6853230" lon="-0.5269610">
        <ele>1086.0</ele>
        <time>2023-01-14T10:12:52Z</time>
      </trkpt>
      <trkpt lat="42.6853510" lon="-0.5269210">
        <ele>1086.2</ele>
        <time>2023-01-14T10:12:53Z</time>
      </trkpt>
      <trkpt lat="42.6853770" lon="-0.5268800">
        <ele>1087.0</ele>
        <time>2023-01-14T10:12:54Z</time>
      </trkpt>
      <trkpt lat="42.6854030" lon="-0.5268400">
        <ele>1087.4</ele>
        <time>2023-01-14T10:12:55Z</time>
      </trkpt>
      <trkpt lat="42.6854290" lon="-0.5268000">
        <ele>1088.0</ele>
        <time>2023-01-14T10:12:56Z</time>
      </trkpt>
      <trkpt lat="42.6854550" lon="-0.5267610">
        <ele>1088.4</ele>
        <time>2023-01-14T10:12:57Z</time>
      </trkpt>
      <trkpt lat="42.6854800" lon="-0.5267200">
        <ele>1088.8</ele>
        <time>2023-01-14T10:12:58Z</time>
      </trkpt>
      <trkpt lat="42.6855030" lon="-0.5266780">
        <ele>1089.2</ele>
        <time>2023-01-14T10:12:59Z</time>
      </trkpt>
      <trkpt lat="42.6855250" lon="-0.5266360">
        <ele>1089.6</ele>
        <time>2023-01-14T10:13:00Z</time>
      </trkpt>
      <trkpt lat="42.6855470" lon="-0.5265950">
        <ele>1090.2</ele>
        <time>2023-01-14T10:13:01Z</time>
      </trkpt>
      <trkpt lat="42.6855680" lon="-0.5265510">
        <ele>1090.4</ele>
        <time>2023-01-14T10:13:02Z</time>
      </trkpt>
      <trkpt lat="42.6855880" lon="-0.5265070">
        <ele>1090.8</ele>
        <time>2023-01-14T10:13:03Z</time>
      </trkpt>
      <trkpt lat="42.6856080" lon="-0.5264630">
        <ele>1091.0</ele>
        <time>2023-01-14T10:13:04Z</time>
      </trkpt>
      <trkpt lat="42.6856280" lon="-0.5264190">
        <ele>1091.4</ele>
        <time>2023-01-14T10:13:05Z</time>
      </trkpt>
      <trkpt lat="42.6856440" lon="-0.5263740">
        <ele>1092.4</ele>
        <time>2023-01-14T10:13:06Z</time>
      </trkpt>
      <trkpt lat="42.6856570" lon="-0.5263250">
        <ele>1092.8</ele>
        <time>2023-01-14T10:13:07Z</time>
      </trkpt>
      <trkpt lat="42.6856680" lon="-0.5262780">
        <ele>1093.4</ele>
        <time>2023-01-14T10:13:08Z</time>
      </trkpt>
      <trkpt lat="42.6856760" lon="-0.5262280">
        <ele>1094.0</ele>
        <time>2023-01-14T10:13:09Z</time>
      </trkpt>
      <trkpt lat="42.6856790" lon="-0.5261780">
        <ele>1094.4</ele>
        <time>2023-01-14T10:13:10Z</time>
      </trkpt>
      <trkpt lat="42.6856740" lon="-0.5261280">
        <ele>1094.6</ele>
        <time>2023-01-14T10:13:11Z</time>
      </trkpt>
      <trkpt lat="42.6856600" lon="-0.5260800">
        <ele>1095.2</ele>
        <time>2023-01-14T10:13:12Z</time>
      </trkpt>
      <trkpt lat="42.6856380" lon="-0.5260350">
        <ele>1095.6</ele>
        <time>2023-01-14T10:13:13Z</time>
      </trkpt>
      <trkpt lat="42.6856100" lon="-0.5259960">
        <ele>1096.4</ele>
        <time>2023-01-14T10:13:14Z</time>
      </trkpt>
      <trkpt lat="42.6855780" lon="-0.5259640">
        <ele>1097.0</ele>
        <time>2023-01-14T10:13:15Z</time>
      </trkpt>
      <trkpt lat="42.6855430" lon="-0.5259420">
        <ele>1097.4</ele>
        <time>2023-01-14T10:13:16Z</time>
      </trkpt>
      <trkpt lat="42.6855050" lon="-0.5259270">
        <ele>1097.8</ele>
        <time>2023-01-14T10:13:17Z</time>
      </trkpt>
      <trkpt lat="42.6854650" lon="-0.5259210">
        <ele>1098.2</ele>
        <time>2023-01-14T10:13:18Z</time>
      </trkpt>
      <trkpt lat="42.6854240" lon="-0.5259230">
        <ele>1098.4</ele>
        <time>2023-01-14T10:13:19Z</time>
      </trkpt>
      <trkpt lat="42.6853850" lon="-0.5259270">
        <ele>1098.4</ele>
        <time>2023-01-14T10:13:20Z</time>
      </trkpt>
      <trkpt lat="42.6853430" lon="-0.5259320">
        <ele>1098.8</ele>
        <time>2023-01-14T10:13:21Z</time>
      </trkpt>
      <trkpt lat="42.6853020" lon="-0.5259380">
        <ele>1099.2</ele>
        <time>2023-01-14T10:13:22Z</time>
      </trkpt>
      <trkpt lat="42.6852630" lon="-0.5259460">
        <ele>1099.4</ele>
        <time>2023-01-14T10:13:23Z</time>
      </trkpt>
      <trkpt lat="42.6852240" lon="-0.5259550">
        <ele>1099.8</ele>
        <time>2023-01-14T10:13:24Z</time>
      </trkpt>
      <trkpt lat="42.6851850" lon="-0.5259640">
        <ele>1100.0</ele>
        <time>2023-01-14T10:13:25Z</time>
      </trkpt>
      <trkpt lat="42.6851440" lon="-0.5259720">
        <ele>1100.2</ele>
        <time>2023-01-14T10:13:26Z</time>
      </trkpt>
      <trkpt lat="42.6851020" lon="-0.5259790">
        <ele>1100.6</ele>
        <time>2023-01-14T10:13:27Z</time>
      </trkpt>
      <trkpt lat="42.6850600" lon="-0.5259830">
        <ele>1101.0</ele>
        <time>2023-01-14T10:13:28Z</time>
      </trkpt>
      <trkpt lat="42.6850190" lon="-0.5259860">
        <ele>1101.4</ele>
        <time>2023-01-14T10:13:29Z</time>
      </trkpt>
      <trkpt lat="42.6849790" lon="-0.5259850">
        <ele>1101.8</ele>
        <time>2023-01-14T10:13:30Z</time>
      </trkpt>
      <trkpt lat="42.6849400" lon="-0.5259850">
        <ele>1102.0</ele>
        <time>2023-01-14T10:13:31Z</time>
      </trkpt>
      <trkpt lat="42.6849020" lon="-0.5259850">
        <ele>1102.4</ele>
        <time>2023-01-14T10:13:32Z</time>
      </trkpt>
      <trkpt lat="42.6848630" lon="-0.5259850">
        <ele>1102.6</ele>
        <time>2023-01-14T10:13:33Z</time>
      </trkpt>
      <trkpt lat="42.6848230" lon="-0.5259830">
        <ele>1103.0</ele>
        <time>2023-01-14T10:13:34Z</time>
      </trkpt>
      <trkpt lat="42.6847860" lon="-0.5259790">
        <ele>1103.6</ele>
        <time>2023-01-14T10:13:35Z</time>
      </trkpt>
      <trkpt lat="42.6847490" lon="-0.5259690">
        <ele>1103.8</ele>
        <time>2023-01-14T10:13:36Z</time>
      </trkpt>
      <trkpt lat="42.6847140" lon="-0.5259560">
        <ele>1104.0</ele>
        <time>2023-01-14T10:13:37Z</time>
      </trkpt>
      <trkpt lat="42.6846820" lon="-0.5259390">
        <ele>1104.4</ele>
        <time>2023-01-14T10:13:38Z</time>
      </trkpt>
      <trkpt lat="42.6846530" lon="-0.5259170">
        <ele>1104.8</ele>
        <time>2023-01-14T10:13:39Z</time>
      </trkpt>
      <trkpt lat="42.6846280" lon="-0.5258880">
        <ele>1105.0</ele>
        <time>2023-01-14T10:13:40Z</time>
      </trkpt>
      <trkpt lat="42.6846100" lon="-0.5258530">
        <ele>1105.2</ele>
        <time>2023-01-14T10:13:41Z</time>
      </trkpt>
      <trkpt lat="42.6846060" lon="-0.5258120">
        <ele>1105.4</ele>
        <time>2023-01-14T10:13:42Z</time>
      </trkpt>
      <trkpt lat="42.6846170" lon="-0.5257740">
        <ele>1105.6</ele>
        <time>2023-01-14T10:13:43Z</time>
      </trkpt>
      <trkpt lat="42.6846360" lon="-0.5257420">
        <ele>1105.8</ele>
        <time>2023-01-14T10:13:44Z</time>
      </trkpt>
      <trkpt lat="42.6846600" lon="-0.5257140">
        <ele>1106.0</ele>
        <time>2023-01-14T10:13:45Z</time>
      </trkpt>
      <trkpt lat="42.6846860" lon="-0.5256870">
        <ele>1106.4</ele>
        <time>2023-01-14T10:13:46Z</time>
      </trkpt>
      <trkpt lat="42.6847140" lon="-0.5256650">
        <ele>1106.8</ele>
        <time>2023-01-14T10:13:47Z</time>
      </trkpt>
      <trkpt lat="42.6847410" lon="-0.5256440">
        <ele>1107.0</ele>
        <time>2023-01-14T10:13:48Z</time>
      </trkpt>
      <trkpt lat="42.6847670" lon="-0.5256210">
        <ele>1108.0</ele>
        <time>2023-01-14T10:13:49Z</time>
      </trkpt>
      <trkpt lat="42.6847920" lon="-0.5255960">
        <ele>1108.6</ele>
        <time>2023-01-14T10:13:50Z</time>
      </trkpt>
      <trkpt lat="42.6848160" lon="-0.5255670">
        <ele>1109.0</ele>
        <time>2023-01-14T10:13:51Z</time>
      </trkpt>
      <trkpt lat="42.6848410" lon="-0.5255380">
        <ele>1109.6</ele>
        <time>2023-01-14T10:13:52Z</time>
      </trkpt>
      <trkpt lat="42.6848640" lon="-0.5255090">
        <ele>1110.4</ele>
        <time>2023-01-14T10:13:53Z</time>
      </trkpt>
      <trkpt lat="42.6848870" lon="-0.5254810">
        <ele>1111.0</ele>
        <time>2023-01-14T10:13:54Z</time>
      </trkpt>
      <trkpt lat="42.6849090" lon="-0.5254530">
        <ele>1111.4</ele>
        <time>2023-01-14T10:13:55Z</time>
      </trkpt>
      <trkpt lat="42.6849310" lon="-0.5254290">
        <ele>1111.8</ele>
        <time>2023-01-14T10:13:56Z</time>
      </trkpt>
      <trkpt lat="42.6849520" lon="-0.5254050">
        <ele>1112.0</ele>
        <time>2023-01-14T10:13:57Z</time>
      </trkpt>
      <trkpt lat="42.6849720" lon="-0.5253800">
        <ele>1112.4</ele>
        <time>2023-01-14T10:13:58Z</time>
      </trkpt>
      <trkpt lat="42.6849930" lon="-0.5253550">
        <ele>1113.0</ele>
        <time>2023-01-14T10:13:59Z</time>
      </trkpt>
      <trkpt lat="42.6850180" lon="-0.5253320">
        <ele>1113.4</ele>
        <time>2023-01-14T10:14:00Z</time>
      </trkpt>
      <trkpt lat="42.6850430" lon="-0.5253130">
        <ele>1113.6</ele>
        <time>2023-01-14T10:14:01Z</time>
      </trkpt>
      <trkpt lat="42.6850670" lon="-0.5252930">
        <ele>1114.0</ele>
        <time>2023-01-14T10:14:02Z</time>
      </trkpt>
      <trkpt lat="42.6850900" lon="-0.5252740">
        <ele>1114.2</ele>
        <time>2023-01-14T10:14:03Z</time>
      </trkpt>
      <trkpt lat="42.6851140" lon="-0.5252580">
        <ele>1114.8</ele>
        <time>2023-01-14T10:14:04Z</time>
      </trkpt>
      <trkpt lat="42.6851380" lon="-0.5252400">
        <ele>1115.2</ele>
        <time>2023-01-14T10:14:05Z</time>
      </trkpt>
      <trkpt lat="42.6851630" lon="-0.5252200">
        <ele>1115.8</ele>
        <time>2023-01-14T10:14:06Z</time>
      </trkpt>
      <trkpt lat="42.6851900" lon="-0.5251980">
        <ele>1116.2</ele>
        <time>2023-01-14T10:14:07Z</time>
      </trkpt>
      <trkpt lat="42.6852180" lon="-0.5251750">
        <ele>1116.6</ele>
        <time>2023-01-14T10:14:08Z</time>
      </trkpt>
      <trkpt lat="42.6852480" lon="-0.5251530">
        <ele>1117.0</ele>
        <time>2023-01-14T10:14:09Z</time>
      </trkpt>
      <trkpt lat="42.6852780" lon="-0.5251330">
        <ele>1117.4</ele>
        <time>2023-01-14T10:14:10Z</time>
      </trkpt>
      <trkpt lat="42.6853090" lon="-0.5251150">
        <ele>1117.6</ele>
        <time>2023-01-14T10:14:11Z</time>
      </trkpt>
      <trkpt lat="42.6853400" lon="-0.5250990">
        <ele>1117.8</ele>
        <time>2023-01-14T10:14:12Z</time>
      </trkpt>
      <trkpt lat="42.6853720" lon="-0.5250870">
        <ele>1118.0</ele>
        <time>2023-01-14T10:14:13Z</time>
      </trkpt>
      <trkpt lat="42.6854060" lon="-0.5250790">
        <ele>1118.4</ele>
        <time>2023-01-14T10:14:14Z</time>
      </trkpt>
      <trkpt lat="42.6854400" lon="-0.5250760">
        <ele>1119.0</ele>
        <time>2023-01-14T10:14:15Z</time>
      </trkpt>
      <trkpt lat="42.6854770" lon="-0.5250770">
        <ele>1119.2</ele>
        <time>2023-01-14T10:14:16Z</time>
      </trkpt>
      <trkpt lat="42.6855130" lon="-0.5250830">
        <ele>1119.4</ele>
        <time>2023-01-14T10:14:17Z</time>
      </trkpt>
      <trkpt lat="42.6855460" lon="-0.5250960">
        <ele>1119.8</ele>
        <time>2023-01-14T10:14:18Z</time>
      </trkpt>
      <trkpt lat="42.6855810" lon="-0.5251130">
        <ele>1119.8</ele>
        <time>2023-01-14T10:14:19Z</time>
      </trkpt>
      <trkpt lat="42.6856180" lon="-0.5251300">
        <ele>1120.4</ele>
        <time>2023-01-14T10:14:20Z</time>
      </trkpt>
      <trkpt lat="42.6856520" lon="-0.5251460">
        <ele>1120.6</ele>
        <time>2023-01-14T10:14:21Z</time>
      </trkpt>
      <trkpt lat="42.6856830" lon="-0.5251620">
        <ele>1120.8</ele>
        <time>2023-01-14T10:14:22Z</time>
      </trkpt>
      <trkpt lat="42.6857180" lon="-0.5251800">
        <ele>1121.0</ele>
        <time>2023-01-14T10:14:23Z</time>
      </trkpt>
      <trkpt lat="42.6857530" lon="-0.5251970">
        <ele>1121.6</ele>
        <time>2023-01-14T10:14:24Z</time>
      </trkpt>
      <trkpt lat="42.6857880" lon="-0.5252080">
        <ele>1122.0</ele>
        <time>2023-01-14T10:14:25Z</time>
      </trkpt>
      <trkpt lat="42.6858240" lon="-0.5252090">
        <ele>1122.4</ele>
        <time>2023-01-14T10:14:26Z</time>
      </trkpt>
      <trkpt lat="42.6858610" lon="-0.5252010">
        <ele>1122.6</ele>
        <time>2023-01-14T10:14:27Z</time>
      </trkpt>
      <trkpt lat="42.6858940" lon="-0.5251820">
        <ele>1123.2</ele>
        <time>2023-01-14T10:14:28Z</time>
      </trkpt>
      <trkpt lat="42.6859250" lon="-0.5251540">
        <ele>1123.4</ele>
        <time>2023-01-14T10:14:29Z</time>
      </trkpt>
      <trkpt lat="42.6859510" lon="-0.5251190">
        <ele>1123.8</ele>
        <time>2023-01-14T10:14:30Z</time>
      </trkpt>
      <trkpt lat="42.6859760" lon="-0.5250800">
        <ele>1124.4</ele>
        <time>2023-01-14T10:14:31Z</time>
      </trkpt>
      <trkpt lat="42.6860000" lon="-0.5250370">
        <ele>1124.6</ele>
        <time>2023-01-14T10:14:32Z</time>
      </trkpt>
      <trkpt lat="42.6860200" lon="-0.5249900">
        <ele>1124.8</ele>
        <time>2023-01-14T10:14:33Z</time>
      </trkpt>
      <trkpt lat="42.6860390" lon="-0.5249420">
        <ele>1125.4</ele>
        <time>2023-01-14T10:14:34Z</time>
      </trkpt>
      <trkpt lat="42.6860570" lon="-0.5248930">
        <ele>1125.8</ele>
        <time>2023-01-14T10:14:35Z</time>
      </trkpt>
      <trkpt lat="42.6860750" lon="-0.5248440">
        <ele>1126.4</ele>
        <time>2023-01-14T10:14:36Z</time>
      </trkpt>
      <trkpt lat="42.6860930" lon="-0.5247970">
        <ele>1126.8</ele>
        <time>2023-01-14T10:14:37Z</time>
      </trkpt>
      <trkpt lat="42.6861110" lon="-0.5247490">
        <ele>1127.6</ele>
        <time>2023-01-14T10:14:38Z</time>
      </trkpt>
      <trkpt lat="42.6861260" lon="-0.5246990">
        <ele>1128.0</ele>
        <time>2023-01-14T10:14:39Z</time>
      </trkpt>
      <trkpt lat="42.6861420" lon="-0.5246500">
        <ele>1128.2</ele>
        <time>2023-01-14T10:14:40Z</time>
      </trkpt>
      <trkpt lat="42.6861580" lon="-0.5246010">
        <ele>1128.4</ele>
        <time>2023-01-14T10:14:41Z</time>
      </trkpt>
      <trkpt lat="42.6861760" lon="-0.5245510">
        <ele>1128.4</ele>
        <time>2023-01-14T10:14:42Z</time>
      </trkpt>
      <trkpt lat="42.6861940" lon="-0.5245010">
        <ele>1128.6</ele>
        <time>2023-01-14T10:14:43Z</time>
      </trkpt>
      <trkpt lat="42.6862130" lon="-0.5244520">
        <ele>1128.8</ele>
        <time>2023-01-14T10:14:44Z</time>
      </trkpt>
      <trkpt lat="42.6862330" lon="-0.5244050">
        <ele>1129.0</ele>
        <time>2023-01-14T10:14:45Z</time>
      </trkpt>
      <trkpt lat="42.6862510" lon="-0.5243580">
        <ele>1129.4</ele>
        <time>2023-01-14T10:14:46Z</time>
      </trkpt>
      <trkpt lat="42.6862720" lon="-0.5243110">
        <ele>1129.4</ele>
        <time>2023-01-14T10:14:47Z</time>
      </trkpt>
      <trkpt lat="42.6862920" lon="-0.5242650">
        <ele>1129.8</ele>
        <time>2023-01-14T10:14:48Z</time>
      </trkpt>
      <trkpt lat="42.6863140" lon="-0.5242200">
        <ele>1130.2</ele>
        <time>2023-01-14T10:14:49Z</time>
      </trkpt>
      <trkpt lat="42.6863360" lon="-0.5241770">
        <ele>1130.4</ele>
        <time>2023-01-14T10:14:50Z</time>
      </trkpt>
      <trkpt lat="42.6863580" lon="-0.5241340">
        <ele>1130.8</ele>
        <time>2023-01-14T10:14:51Z</time>
      </trkpt>
      <trkpt lat="42.6863830" lon="-0.5240930">
        <ele>1131.0</ele>
        <time>2023-01-14T10:14:52Z</time>
      </trkpt>
      <trkpt lat="42.6864070" lon="-0.5240530">
        <ele>1131.0</ele>
        <time>2023-01-14T10:14:53Z</time>
      </trkpt>
      <trkpt lat="42.6864340" lon="-0.5240170">
        <ele>1131.2</ele>
        <time>2023-01-14T10:14:54Z</time>
      </trkpt>
      <trkpt lat="42.6864640" lon="-0.5239840">
        <ele>1131.8</ele>
        <time>2023-01-14T10:14:55Z</time>
      </trkpt>
      <trkpt lat="42.6864950" lon="-0.5239530">
        <ele>1132.2</ele>
        <time>2023-01-14T10:14:56Z</time>
      </trkpt>
      <trkpt lat="42.6865260" lon="-0.5239270">
        <ele>1132.6</ele>
        <time>2023-01-14T10:14:57Z</time>
      </trkpt>
      <trkpt lat="42.6865570" lon="-0.5239020">
        <ele>1133.0</ele>
        <time>2023-01-14T10:14:58Z</time>
      </trkpt>
      <trkpt lat="42.6865880" lon="-0.5238760">
        <ele>1133.6</ele>
        <time>2023-01-14T10:14:59Z</time>
      </trkpt>
      <trkpt lat="42.6866170" lon="-0.5238480">
        <ele>1133.8</ele>
        <time>2023-01-14T10:15:00Z</time>
      </trkpt>
      <trkpt lat="42.6866410" lon="-0.5238170">
        <ele>1134.0</ele>
        <time>2023-01-14T10:15:01Z</time>
      </trkpt>
      <trkpt lat="42.6866580" lon="-0.5237800">
        <ele>1134.4</ele>
        <time>2023-01-14T10:15:02Z</time>
      </trkpt>
      <trkpt lat="42.6866650" lon="-0.5237350">
        <ele>1134.8</ele>
        <time>2023-01-14T10:15:03Z</time>
      </trkpt>
      <trkpt lat="42.6866640" lon="-0.5236880">
        <ele>1135.0</ele>
        <time>2023-01-14T10:15:04Z</time>
      </trkpt>
      <trkpt lat="42.6866520" lon="-0.5236470">
        <ele>1135.2</ele>
        <time>2023-01-14T10:15:05Z</time>
      </trkpt>
      <trkpt lat="42.6866270" lon="-0.5236150">
        <ele>1136.0</ele>
        <time>2023-01-14T10:15:06Z</time>
      </trkpt>
      <trkpt lat="42.6865930" lon="-0.5235920">
        <ele>1136.6</ele>
        <time>2023-01-14T10:15:07Z</time>
      </trkpt>
      <trkpt lat="42.6865580" lon="-0.5235870">
        <ele>1137.2</ele>
        <time>2023-01-14T10:15:08Z</time>
      </trkpt>
      <trkpt lat="42.6865250" lon="-0.5236040">
        <ele>1137.4</ele>
        <time>2023-01-14T10:15:09Z</time>
      </trkpt>
      <trkpt lat="42.6864970" lon="-0.5236400">
        <ele>1137.6</ele>
        <time>2023-01-14T10:15:10Z</time>
      </trkpt>
      <trkpt lat="42.6864680" lon="-0.5236840">
        <ele>1138.0</ele>
        <time>2023-01-14T10:15:11Z</time>
      </trkpt>
      <trkpt lat="42.6864420" lon="-0.5237290">
        <ele>1138.4</ele>
        <time>2023-01-14T10:15:12Z</time>
      </trkpt>
      <trkpt lat="42.6864200" lon="-0.5237720">
        <ele>1138.6</ele>
        <time>2023-01-14T10:15:13Z</time>
      </trkpt>
      <trkpt lat="42.6863950" lon="-0.5238110">
        <ele>1138.8</ele>
        <time>2023-01-14T10:15:14Z</time>
      </trkpt>
      <trkpt lat="42.6863600" lon="-0.5238420">
        <ele>1139.0</ele>
        <time>2023-01-14T10:15:15Z</time>
      </trkpt>
      <trkpt lat="42.6863190" lon="-0.5238710">
        <ele>1139.2</ele>
        <time>2023-01-14T10:15:16Z</time>
      </trkpt>
      <trkpt lat="42.6862780" lon="-0.5239010">
        <ele>1139.2</ele>
        <time>2023-01-14T10:15:17Z</time>
      </trkpt>
      <trkpt lat="42.6862390" lon="-0.5239300">
        <ele>1139.6</ele>
        <time>2023-01-14T10:15:18Z</time>
      </trkpt>
      <trkpt lat="42.6862000" lon="-0.5239670">
        <ele>1139.8</ele>
        <time>2023-01-14T10:15:19Z</time>
      </trkpt>
      <trkpt lat="42.6861630" lon="-0.5240090">
        <ele>1140.0</ele>
        <time>2023-01-14T10:15:20Z</time>
      </trkpt>
      <trkpt lat="42.6861290" lon="-0.5240500">
        <ele>1140.2</ele>
        <time>2023-01-14T10:15:21Z</time>
      </trkpt>
      <trkpt lat="42.6860940" lon="-0.5240820">
        <ele>1140.4</ele>
        <time>2023-01-14T10:15:22Z</time>
      </trkpt>
      <trkpt lat="42.6860590" lon="-0.5241050">
        <ele>1140.6</ele>
        <time>2023-01-14T10:15:23Z</time>
      </trkpt>
      <trkpt lat="42.6860200" lon="-0.5241130">
        <ele>1140.8</ele>
        <time>2023-01-14T10:15:24Z</time>
      </trkpt>
      <trkpt lat="42.6859830" lon="-0.5241010">
        <ele>1141.0</ele>
        <time>2023-01-14T10:15:25Z</time>
      </trkpt>
      <trkpt lat="42.6859500" lon="-0.5240780">
        <ele>1141.4</ele>
        <time>2023-01-14T10:15:26Z</time>
      </trkpt>
      <trkpt lat="42.6859290" lon="-0.5240390">
        <ele>1141.4</ele>
        <time>2023-01-14T10:15:27Z</time>
      </trkpt>
      <trkpt lat="42.6859230" lon="-0.5239890">
        <ele>1141.8</ele>
        <time>2023-01-14T10:15:28Z</time>
      </trkpt>
      <trkpt lat="42.6859300" lon="-0.5239370">
        <ele>1141.8</ele>
        <time>2023-01-14T10:15:29Z</time>
      </trkpt>
      <trkpt lat="42.6859470" lon="-0.5238870">
        <ele>1142.2</ele>
        <time>2023-01-14T10:15:30Z</time>
      </trkpt>
      <trkpt lat="42.6859670" lon="-0.5238420">
        <ele>1142.4</ele>
        <time>2023-01-14T10:15:31Z</time>
      </trkpt>
      <trkpt lat="42.6859930" lon="-0.5238050">
        <ele>1142.8</ele>
        <time>2023-01-14T10:15:32Z</time>
      </trkpt>
      <trkpt lat="42.6860270" lon="-0.5237760">
        <ele>1143.6</ele>
        <time>2023-01-14T10:15:33Z</time>
      </trkpt>
      <trkpt lat="42.6860600" lon="-0.5237520">
        <ele>1144.2</ele>
        <time>2023-01-14T10:15:34Z</time>
      </trkpt>
      <trkpt lat="42.6860960" lon="-0.5237310">
        <ele>1144.6</ele>
        <time>2023-01-14T10:15:35Z</time>
      </trkpt>
      <trkpt lat="42.6861330" lon="-0.5237110">
        <ele>1145.0</ele>
        <time>2023-01-14T10:15:36Z</time>
      </trkpt>
      <trkpt lat="42.6861710" lon="-0.5236910">
        <ele>1145.2</ele>
        <time>2023-01-14T10:15:37Z</time>
      </trkpt>
      <trkpt lat="42.6862070" lon="-0.5236710">
        <ele>1145.4</ele>
        <time>2023-01-14T10:15:38Z</time>
      </trkpt>
      <trkpt lat="42.6862430" lon="-0.5236490">
        <ele>1145.8</ele>
        <time>2023-01-14T10:15:39Z</time>
      </trkpt>
      <trkpt lat="42.6862780" lon="-0.5236280">
        <ele>1146.0</ele>
        <time>2023-01-14T10:15:40Z</time>
      </trkpt>
      <trkpt lat="42.6863130" lon="-0.5236030">
        <ele>1146.4</ele>
        <time>2023-01-14T10:15:41Z</time>
      </trkpt>
      <trkpt lat="42.6863430" lon="-0.5235740">
        <ele>1146.6</ele>
        <time>2023-01-14T10:15:42Z</time>
      </trkpt>
      <trkpt lat="42.6863710" lon="-0.5235430">
        <ele>1146.8</ele>
        <time>2023-01-14T10:15:43Z</time>
      </trkpt>
      <trkpt lat="42.6863990" lon="-0.5235080">
        <ele>1147.4</ele>
        <time>2023-01-14T10:15:44Z</time>
      </trkpt>
      <trkpt lat="42.6864260" lon="-0.5234750">
        <ele>1148.0</ele>
        <time>2023-01-14T10:15:45Z</time>
      </trkpt>
      <trkpt lat="42.6864500" lon="-0.5234400">
        <ele>1148.6</ele>
        <time>2023-01-14T10:15:46Z</time>
      </trkpt>
      <trkpt lat="42.6864750" lon="-0.5234040">
        <ele>1148.8</ele>
        <time>2023-01-14T10:15:47Z</time>
      </trkpt>
      <trkpt lat="42.6864990" lon="-0.5233690">
        <ele>1149.2</ele>
        <time>2023-01-14T10:15:48Z</time>
      </trkpt>
      <trkpt lat="42.6865250" lon="-0.5233350">
        <ele>1149.4</ele>
        <time>2023-01-14T10:15:49Z</time>
      </trkpt>
      <trkpt lat="42.6865540" lon="-0.5233020">
        <ele>1149.6</ele>
        <time>2023-01-14T10:15:50Z</time>
      </trkpt>
      <trkpt lat="42.6865810" lon="-0.5232690">
        <ele>1149.8</ele>
        <time>2023-01-14T10:15:51Z</time>
      </trkpt>
      <trkpt lat="42.6866070" lon="-0.5232350">
        <ele>1150.2</ele>
        <time>2023-01-14T10:15:52Z</time>
      </trkpt>
      <trkpt lat="42.6866360" lon="-0.5232070">
        <ele>1150.6</ele>
        <time>2023-01-14T10:15:53Z</time>
      </trkpt>
      <trkpt lat="42.6866620" lon="-0.5231740">
        <ele>1150.8</ele>
        <time>2023-01-14T10:15:54Z</time>
      </trkpt>
      <trkpt lat="42.6866900" lon="-0.5231430">
        <ele>1151.0</ele>
        <time>2023-01-14T10:15:55Z</time>
      </trkpt>
      <trkpt lat="42.6867200" lon="-0.5231100">
        <ele>1151.2</ele>
        <time>2023-01-14T10:15:56Z</time>
      </trkpt>
      <trkpt lat="42.6867520" lon="-0.5230810">
        <ele>1151.4</ele>
        <time>2023-01-14T10:15:57Z</time>
      </trkpt>
      <trkpt lat="42.6867850" lon="-0.5230490">
        <ele>1151.6</ele>
        <time>2023-01-14T10:15:58Z</time>
      </trkpt>
      <trkpt lat="42.6868270" lon="-0.5230240">
        <ele>1151.8</ele>
        <time>2023-01-14T10:15:59Z</time>
      </trkpt>
      <trkpt lat="42.6868570" lon="-0.5229930">
        <ele>1151.8</ele>
        <time>2023-01-14T10:16:00Z</time>
      </trkpt>
      <trkpt lat="42.6868850" lon="-0.5229640">
        <ele>1152.2</ele>
        <time>2023-01-14T10:16:01Z</time>
      </trkpt>
      <trkpt lat="42.6869110" lon="-0.5229370">
        <ele>1152.6</ele>
        <time>2023-01-14T10:16:02Z</time>
      </trkpt>
      <trkpt lat="42.6869370" lon="-0.5229070">
        <ele>1153.2</ele>
        <time>2023-01-14T10:16:03Z</time>
      </trkpt>
      <trkpt lat="42.6869660" lon="-0.5228810">
        <ele>1153.6</ele>
        <time>2023-01-14T10:16:04Z</time>
      </trkpt>
      <trkpt lat="42.6869930" lon="-0.5228570">
        <ele>1154.0</ele>
        <time>2023-01-14T10:16:05Z</time>
      </trkpt>
      <trkpt lat="42.6870140" lon="-0.5228290">
        <ele>1154.2</ele>
        <time>2023-01-14T10:16:06Z</time>
      </trkpt>
      <trkpt lat="42.6870350" lon="-0.5227940">
        <ele>1154.4</ele>
        <time>2023-01-14T10:16:07Z</time>
      </trkpt>
      <trkpt lat="42.6870560" lon="-0.5227610">
        <ele>1154.6</ele>
        <time>2023-01-14T10:16:08Z</time>
      </trkpt>
      <trkpt lat="42.6870790" lon="-0.5227250">
        <ele>1155.0</ele>
        <time>2023-01-14T10:16:09Z</time>
      </trkpt>
      <trkpt lat="42.6871100" lon="-0.5226870">
        <ele>1155.4</ele>
        <time>2023-01-14T10:16:10Z</time>
      </trkpt>
      <trkpt lat="42.6871310" lon="-0.5226490">
        <ele>1155.8</ele>
        <time>2023-01-14T10:16:11Z</time>
      </trkpt>
      <trkpt lat="42.6871530" lon="-0.5226130">
        <ele>1156.0</ele>
        <time>2023-01-14T10:16:12Z</time>
      </trkpt>
      <trkpt lat="42.6871750" lon="-0.5225750">
        <ele>1156.2</ele>
        <time>2023-01-14T10:16:13Z</time>
      </trkpt>
      <trkpt lat="42.6871880" lon="-0.5225400">
        <ele>1156.6</ele>
        <time>2023-01-14T10:16:14Z</time>
      </trkpt>
      <trkpt lat="42.6872000" lon="-0.5225050">
        <ele>1156.8</ele>
        <time>2023-01-14T10:16:15Z</time>
      </trkpt>
      <trkpt lat="42.6872160" lon="-0.5224700">
        <ele>1157.0</ele>
        <time>2023-01-14T10:16:16Z</time>
      </trkpt>
      <trkpt lat="42.6872310" lon="-0.5224320">
        <ele>1157.2</ele>
        <time>2023-01-14T10:16:17Z</time>
      </trkpt>
      <trkpt lat="42.6872560" lon="-0.5223940">
        <ele>1157.4</ele>
        <time>2023-01-14T10:16:18Z</time>
      </trkpt>
      <trkpt lat="42.6872800" lon="-0.5223550">
        <ele>1157.6</ele>
        <time>2023-01-14T10:16:19Z</time>
      </trkpt>
      <trkpt lat="42.6873050" lon="-0.5223150">
        <ele>1157.8</ele>
        <time>2023-01-14T10:16:20Z</time>
      </trkpt>
      <trkpt lat="42.6873220" lon="-0.5222790">
        <ele>1158.0</ele>
        <time>2023-01-14T10:16:21Z</time>
      </trkpt>
      <trkpt lat="42.6873370" lon="-0.5222400">
        <ele>1158.2</ele>
        <time>2023-01-14T10:16:22Z</time>
      </trkpt>
      <trkpt lat="42.6873580" lon="-0.5222000">
        <ele>1159.0</ele>
        <time>2023-01-14T10:16:23Z</time>
      </trkpt>
      <trkpt lat="42.6873810" lon="-0.5221580">
        <ele>1159.4</ele>
        <time>2023-01-14T10:16:24Z</time>
      </trkpt>
      <trkpt lat="42.6874140" lon="-0.5221170">
        <ele>1159.8</ele>
        <time>2023-01-14T10:16:25Z</time>
      </trkpt>
      <trkpt lat="42.6874300" lon="-0.5220750">
        <ele>1160.0</ele>
        <time>2023-01-14T10:16:26Z</time>
      </trkpt>
      <trkpt lat="42.6874400" lon="-0.5220390">
        <ele>1160.2</ele>
        <time>2023-01-14T10:16:27Z</time>
      </trkpt>
      <trkpt lat="42.6874400" lon="-0.5220000">
        <ele>1160.8</ele>
        <time>2023-01-14T10:16:28Z</time>
      </trkpt>
      <trkpt lat="42.6874360" lon="-0.5219700">
        <ele>1161.6</ele>
        <time>2023-01-14T10:16:29Z</time>
      </trkpt>
      <trkpt lat="42.6874250" lon="-0.5219510">
        <ele>1162.0</ele>
        <time>2023-01-14T10:16:30Z</time>
      </trkpt>
      <trkpt lat="42.6874030" lon="-0.5219460">
        <ele>1162.4</ele>
        <time>2023-01-14T10:16:31Z</time>
      </trkpt>
      <trkpt lat="42.6873760" lon="-0.5219510">
        <ele>1162.8</ele>
        <time>2023-01-14T10:16:32Z</time>
      </trkpt>
      <trkpt lat="42.6873500" lon="-0.5219620">
        <ele>1163.2</ele>
        <time>2023-01-14T10:16:33Z</time>
      </trkpt>
      <trkpt lat="42.6873260" lon="-0.5219840">
        <ele>1163.6</ele>
        <time>2023-01-14T10:16:34Z</time>
      </trkpt>
      <trkpt lat="42.6873090" lon="-0.5220210">
        <ele>1164.0</ele>
        <time>2023-01-14T10:16:35Z</time>
      </trkpt>
      <trkpt lat="42.6872930" lon="-0.5220590">
        <ele>1164.2</ele>
        <time>2023-01-14T10:16:36Z</time>
      </trkpt>
      <trkpt lat="42.6872800" lon="-0.5220920">
        <ele>1164.4</ele>
        <time>2023-01-14T10:16:37Z</time>
      </trkpt>
      <trkpt lat="42.6872610" lon="-0.5221290">
        <ele>1164.8</ele>
        <time>2023-01-14T10:16:38Z</time>
      </trkpt>
      <trkpt lat="42.6872420" lon="-0.5221690">
        <ele>1165.0</ele>
        <time>2023-01-14T10:16:39Z</time>
      </trkpt>
      <trkpt lat="42.6872190" lon="-0.5222040">
        <ele>1165.2</ele>
        <time>2023-01-14T10:16:40Z</time>
      </trkpt>
      <trkpt lat="42.6871950" lon="-0.5222380">
        <ele>1165.4</ele>
        <time>2023-01-14T10:16:41Z</time>
      </trkpt>
      <trkpt lat="42.6871770" lon="-0.5222700">
        <ele>1165.6</ele>
        <time>2023-01-14T10:16:42Z</time>
      </trkpt>
      <trkpt lat="42.6871550" lon="-0.5223020">
        <ele>1165.8</ele>
        <time>2023-01-14T10:16:43Z</time>
      </trkpt>
      <trkpt lat="42.6871290" lon="-0.5223320">
        <ele>1166.0</ele>
        <time>2023-01-14T10:16:44Z</time>
      </trkpt>
      <trkpt lat="42.6871070" lon="-0.5223600">
        <ele>1166.6</ele>
        <time>2023-01-14T10:16:45Z</time>
      </trkpt>
      <trkpt lat="42.6870850" lon="-0.5223830">
        <ele>1167.0</ele>
        <time>2023-01-14T10:16:46Z</time>
      </trkpt>
      <trkpt lat="42.6870570" lon="-0.5224090">
        <ele>1167.4</ele>
        <time>2023-01-14T10:16:47Z</time>
      </trkpt>
      <trkpt lat="42.6870270" lon="-0.5224400">
        <ele>1167.8</ele>
        <time>2023-01-14T10:16:48Z</time>
      </trkpt>
      <trkpt lat="42.6869970" lon="-0.5224660">
        <ele>1167.8</ele>
        <time>2023-01-14T10:16:49Z</time>
      </trkpt>
      <trkpt lat="42.6869670" lon="-0.5224880">
        <ele>1168.0</ele>
        <time>2023-01-14T10:16:50Z</time>
      </trkpt>
      <trkpt lat="42.6869380" lon="-0.5225110">
        <ele>1168.4</ele>
        <time>2023-01-14T10:16:51Z</time>
      </trkpt>
      <trkpt lat="42.6869110" lon="-0.5225380">
        <ele>1168.8</ele>
        <time>2023-01-14T10:16:52Z</time>
      </trkpt>
      <trkpt lat="42.6868690" lon="-0.5225620">
        <ele>1169.0</ele>
        <time>2023-01-14T10:16:53Z</time>
      </trkpt>
      <trkpt lat="42.6868170" lon="-0.5225880">
        <ele>1169.2</ele>
        <time>2023-01-14T10:16:54Z</time>
      </trkpt>
      <trkpt lat="42.6867650" lon="-0.5226080">
        <ele>1169.6</ele>
        <time>2023-01-14T10:16:55Z</time>
      </trkpt>
      <trkpt lat="42.6867120" lon="-0.5226290">
        <ele>1170.2</ele>
        <time>2023-01-14T10:16:56Z</time>
      </trkpt>
      <trkpt lat="42.6866670" lon="-0.5226470">
        <ele>1170.4</ele>
        <time>2023-01-14T10:16:57Z</time>
      </trkpt>
      <trkpt lat="42.6866230" lon="-0.5226640">
        <ele>1170.8</ele>
        <time>2023-01-14T10:16:58Z</time>
      </trkpt>
      <trkpt lat="42.6865820" lon="-0.5226790">
        <ele>1171.0</ele>
        <time>2023-01-14T10:16:59Z</time>
      </trkpt>
      <trkpt lat="42.6865380" lon="-0.5226980">
        <ele>1171.2</ele>
        <time>2023-01-14T10:17:00Z</time>
      </trkpt>
      <trkpt lat="42.6864930" lon="-0.5227090">
        <ele>1171.4</ele>
        <time>2023-01-14T10:17:01Z</time>
      </trkpt>
      <trkpt lat="42.6864490" lon="-0.5227200">
        <ele>1171.8</ele>
        <time>2023-01-14T10:17:02Z</time>
      </trkpt>
      <trkpt lat="42.6864060" lon="-0.5227370">
        <ele>1172.0</ele>
        <time>2023-01-14T10:17:03Z</time>
      </trkpt>
      <trkpt lat="42.6863660" lon="-0.5227450">
        <ele>1172.2</ele>
        <time>2023-01-14T10:17:04Z</time>
      </trkpt>
      <trkpt lat="42.6863250" lon="-0.5227440">
        <ele>1172.8</ele>
        <time>2023-01-14T10:17:05Z</time>
      </trkpt>
      <trkpt lat="42.6862840" lon="-0.5227380">
        <ele>1173.0</ele>
        <time>2023-01-14T10:17:06Z</time>
      </trkpt>
      <trkpt lat="42.6862440" lon="-0.5227240">
        <ele>1173.2</ele>
        <time>2023-01-14T10:17:07Z</time>
      </trkpt>
      <trkpt lat="42.6862120" lon="-0.5226960">
        <ele>1173.6</ele>
        <time>2023-01-14T10:17:08Z</time>
      </trkpt>
      <trkpt lat="42.6861920" lon="-0.5226590">
        <ele>1174.2</ele>
        <time>2023-01-14T10:17:09Z</time>
      </trkpt>
      <trkpt lat="42.6861900" lon="-0.5226160">
        <ele>1174.8</ele>
        <time>2023-01-14T10:17:10Z</time>
      </trkpt>
      <trkpt lat="42.6862020" lon="-0.5225840">
        <ele>1175.4</ele>
        <time>2023-01-14T10:17:11Z</time>
      </trkpt>
      <trkpt lat="42.6862230" lon="-0.5225620">
        <ele>1175.6</ele>
        <time>2023-01-14T10:17:12Z</time>
      </trkpt>
      <trkpt lat="42.6862500" lon="-0.5225550">
        <ele>1175.8</ele>
        <time>2023-01-14T10:17:13Z</time>
      </trkpt>
      <trkpt lat="42.6862840" lon="-0.5225620">
        <ele>1176.2</ele>
        <time>2023-01-14T10:17:14Z</time>
      </trkpt>
      <trkpt lat="42.6863240" lon="-0.5225720">
        <ele>1176.6</ele>
        <time>2023-01-14T10:17:15Z</time>
      </trkpt>
      <trkpt lat="42.6863630" lon="-0.5225830">
        <ele>1176.8</ele>
        <time>2023-01-14T10:17:16Z</time>
      </trkpt>
      <trkpt lat="42.6863990" lon="-0.5225890">
        <ele>1177.0</ele>
        <time>2023-01-14T10:17:17Z</time>
      </trkpt>
      <trkpt lat="42.6864270" lon="-0.5225760">
        <ele>1177.4</ele>
        <time>2023-01-14T10:17:18Z</time>
      </trkpt>
      <trkpt lat="42.6864580" lon="-0.5225570">
        <ele>1177.8</ele>
        <time>2023-01-14T10:17:19Z</time>
      </trkpt>
      <trkpt lat="42.6864920" lon="-0.5225410">
        <ele>1178.0</ele>
        <time>2023-01-14T10:17:20Z</time>
      </trkpt>
      <trkpt lat="42.6865270" lon="-0.5225180">
        <ele>1178.4</ele>
        <time>2023-01-14T10:17:21Z</time>
      </trkpt>
      <trkpt lat="42.6865560" lon="-0.5224890">
        <ele>1178.8</ele>
        <time>2023-01-14T10:17:22Z</time>
      </trkpt>
      <trkpt lat="42.6865820" lon="-0.5224590">
        <ele>1179.2</ele>
        <time>2023-01-14T10:17:23Z</time>
      </trkpt>
      <trkpt lat="42.6866090" lon="-0.5224310">
        <ele>1179.6</ele>
        <time>2023-01-14T10:17:24Z</time>
      </trkpt>
      <trkpt lat="42.6866340" lon="-0.5224040">
        <ele>1179.8</ele>
        <time>2023-01-14T10:17:25Z</time>
      </trkpt>
      <trkpt lat="42.6866510" lon="-0.5223770">
        <ele>1179.8</ele>
        <time>2023-01-14T10:17:26Z</time>
      </trkpt>
      <trkpt lat="42.6866620" lon="-0.5223410">
        <ele>1180.0</ele>
        <time>2023-01-14T10:17:27Z</time>
      </trkpt>
      <trkpt lat="42.6866760" lon="-0.5223050">
        <ele>1180.4</ele>
        <time>2023-01-14T10:17:28Z</time>
      </trkpt>
      <trkpt lat="42.6866890" lon="-0.5222740">
        <ele>1180.8</ele>
        <time>2023-01-14T10:17:29Z</time>
      </trkpt>
      <trkpt lat="42.6867000" lon="-0.5222430">
        <ele>1181.0</ele>
        <time>2023-01-14T10:17:30Z</time>
      </trkpt>
      <trkpt lat="42.6867110" lon="-0.5222110">
        <ele>1181.4</ele>
        <time>2023-01-14T10:17:31Z</time>
      </trkpt>
      <trkpt lat="42.6867260" lon="-0.5221760">
        <ele>1181.8</ele>
        <time>2023-01-14T10:17:32Z</time>
      </trkpt>
      <trkpt lat="42.6867460" lon="-0.5221380">
        <ele>1182.0</ele>
        <time>2023-01-14T10:17:33Z</time>
      </trkpt>
      <trkpt lat="42.6867610" lon="-0.5221020">
        <ele>1182.6</ele>
        <time>2023-01-14T10:17:34Z</time>
      </trkpt>
      <trkpt lat="42.6867740" lon="-0.5220650">
        <ele>1182.8</ele>
        <time>2023-01-14T10:17:35Z</time>
      </trkpt>
      <trkpt lat="42.6867850" lon="-0.5220260">
        <ele>1183.0</ele>
        <time>2023-01-14T10:17:36Z</time>
      </trkpt>
      <trkpt lat="42.6868020" lon="-0.5219870">
        <ele>1183.2</ele>
        <time>2023-01-14T10:17:37Z</time>
      </trkpt>
      <trkpt lat="42.6868150" lon="-0.5219490">
        <ele>1183.4</ele>
        <time>2023-01-14T10:17:38Z</time>
      </trkpt>
      <trkpt lat="42.6868440" lon="-0.5219130">
        <ele>1183.8</ele>
        <time>2023-01-14T10:17:39Z</time>
      </trkpt>
      <trkpt lat="42.6868770" lon="-0.5218740">
        <ele>1184.2</ele>
        <time>2023-01-14T10:17:40Z</time>
      </trkpt>
      <trkpt lat="42.6869020" lon="-0.5218330">
        <ele>1184.4</ele>
        <time>2023-01-14T10:17:41Z</time>
      </trkpt>
      <trkpt lat="42.6869260" lon="-0.5217910">
        <ele>1184.8</ele>
        <time>2023-01-14T10:17:42Z</time>
      </trkpt>
      <trkpt lat="42.6869450" lon="-0.5217470">
        <ele>1185.2</ele>
        <time>2023-01-14T10:17:43Z</time>
      </trkpt>
      <trkpt lat="42.6869730" lon="-0.5217050">
        <ele>1185.2</ele>
        <time>2023-01-14T10:17:44Z</time>
      </trkpt>
      <trkpt lat="42.6869880" lon="-0.5216640">
        <ele>1185.6</ele>
        <time>2023-01-14T10:17:45Z</time>
      </trkpt>
      <trkpt lat="42.6870030" lon="-0.5216230">
        <ele>1185.6</ele>
        <time>2023-01-14T10:17:46Z</time>
      </trkpt>
      <trkpt lat="42.6870320" lon="-0.5215810">
        <ele>1185.8</ele>
        <time>2023-01-14T10:17:47Z</time>
      </trkpt>
      <trkpt lat="42.6870520" lon="-0.5215380">
        <ele>1185.8</ele>
        <time>2023-01-14T10:17:48Z</time>
      </trkpt>
      <trkpt lat="42.6870790" lon="-0.5214960">
        <ele>1186.2</ele>
        <time>2023-01-14T10:17:49Z</time>
      </trkpt>
      <trkpt lat="42.6870920" lon="-0.5214470">
        <ele>1186.4</ele>
        <time>2023-01-14T10:17:50Z</time>
      </trkpt>
      <trkpt lat="42.6871050" lon="-0.5213930">
        <ele>1186.8</ele>
        <time>2023-01-14T10:17:51Z</time>
      </trkpt>
      <trkpt lat="42.6871220" lon="-0.5213410">
        <ele>1187.0</ele>
        <time>2023-01-14T10:17:52Z</time>
      </trkpt>
      <trkpt lat="42.6871390" lon="-0.5212890">
        <ele>1187.4</ele>
        <time>2023-01-14T10:17:53Z</time>
      </trkpt>
      <trkpt lat="42.6871600" lon="-0.5212350">
        <ele>1187.8</ele>
        <time>2023-01-14T10:17:54Z</time>
      </trkpt>
      <trkpt lat="42.6871820" lon="-0.5211810">
        <ele>1188.0</ele>
        <time>2023-01-14T10:17:55Z</time>
      </trkpt>
      <trkpt lat="42.6872040" lon="-0.5211310">
        <ele>1188.2</ele>
        <time>2023-01-14T10:17:56Z</time>
      </trkpt>
      <trkpt lat="42.6872280" lon="-0.5210820">
        <ele>1188.6</ele>
        <time>2023-01-14T10:17:57Z</time>
      </trkpt>
      <trkpt lat="42.6872510" lon="-0.5210320">
        <ele>1189.2</ele>
        <time>2023-01-14T10:17:58Z</time>
      </trkpt>
      <trkpt lat="42.6872780" lon="-0.5209840">
        <ele>1189.6</ele>
        <time>2023-01-14T10:17:59Z</time>
      </trkpt>
      <trkpt lat="42.6873150" lon="-0.5209340">
        <ele>1190.0</ele>
        <time>2023-01-14T10:18:00Z</time>
      </trkpt>
      <trkpt lat="42.6873470" lon="-0.5208930">
        <ele>1190.4</ele>
        <time>2023-01-14T10:18:01Z</time>
      </trkpt>
      <trkpt lat="42.6873780" lon="-0.5208530">
        <ele>1190.8</ele>
        <time>2023-01-14T10:18:02Z</time>
      </trkpt>
      <trkpt lat="42.6874030" lon="-0.5208100">
        <ele>1191.0</ele>
        <time>2023-01-14T10:18:03Z</time>
      </trkpt>
      <trkpt lat="42.6874190" lon="-0.5207610">
        <ele>1191.2</ele>
        <time>2023-01-14T10:18:04Z</time>
      </trkpt>
      <trkpt lat="42.6874690" lon="-0.5207060">
        <ele>1191.4</ele>
        <time>2023-01-14T10:18:05Z</time>
      </trkpt>
      <trkpt lat="42.6874710" lon="-0.5206430">
        <ele>1191.8</ele>
        <time>2023-01-14T10:18:06Z</time>
      </trkpt>
      <trkpt lat="42.6874620" lon="-0.5205870">
        <ele>1192.2</ele>
        <time>2023-01-14T10:18:07Z</time>
      </trkpt>
      <trkpt lat="42.6874500" lon="-0.5205420">
        <ele>1192.4</ele>
        <time>2023-01-14T10:18:08Z</time>
      </trkpt>
      <trkpt lat="42.6874370" lon="-0.5205140">
        <ele>1192.4</ele>
        <time>2023-01-14T10:18:09Z</time>
      </trkpt>
      <trkpt lat="42.6874070" lon="-0.5205000">
        <ele>1192.8</ele>
        <time>2023-01-14T10:18:10Z</time>
      </trkpt>
      <trkpt lat="42.6873770" lon="-0.5205020">
        <ele>1193.4</ele>
        <time>2023-01-14T10:18:11Z</time>
      </trkpt>
      <trkpt lat="42.6873450" lon="-0.5205250">
        <ele>1194.0</ele>
        <time>2023-01-14T10:18:12Z</time>
      </trkpt>
      <trkpt lat="42.6873200" lon="-0.5205560">
        <ele>1194.6</ele>
        <time>2023-01-14T10:18:13Z</time>
      </trkpt>
      <trkpt lat="42.6872950" lon="-0.5206020">
        <ele>1195.0</ele>
        <time>2023-01-14T10:18:14Z</time>
      </trkpt>
      <trkpt lat="42.6872770" lon="-0.5206520">
        <ele>1195.2</ele>
        <time>2023-01-14T10:18:15Z</time>
      </trkpt>
      <trkpt lat="42.6872650" lon="-0.5207060">
        <ele>1195.8</ele>
        <time>2023-01-14T10:18:16Z</time>
      </trkpt>
      <trkpt lat="42.6872530" lon="-0.5207600">
        <ele>1196.2</ele>
        <time>2023-01-14T10:18:17Z</time>
      </trkpt>
      <trkpt lat="42.6872410" lon="-0.5208110">
        <ele>1196.6</ele>
        <time>2023-01-14T10:18:18Z</time>
      </trkpt>
      <trkpt lat="42.6872260" lon="-0.5208620">
        <ele>1196.8</ele>
        <time>2023-01-14T10:18:19Z</time>
      </trkpt>
      <trkpt lat="42.6872150" lon="-0.5209130">
        <ele>1197.0</ele>
        <time>2023-01-14T10:18:20Z</time>
      </trkpt>
      <trkpt lat="42.6872050" lon="-0.5209650">
        <ele>1197.2</ele>
        <time>2023-01-14T10:18:21Z</time>
      </trkpt>
      <trkpt lat="42.6872110" lon="-0.5210100">
        <ele>1197.4</ele>
        <time>2023-01-14T10:18:22Z</time>
      </trkpt>
      <trkpt lat="42.6871980" lon="-0.5210580">
        <ele>1198.0</ele>
        <time>2023-01-14T10:18:23Z</time>
      </trkpt>
      <trkpt lat="42.6871830" lon="-0.5211050">
        <ele>1198.2</ele>
        <time>2023-01-14T10:18:24Z</time>
      </trkpt>
      <trkpt lat="42.6871680" lon="-0.5211510">
        <ele>1198.4</ele>
        <time>2023-01-14T10:18:25Z</time>
      </trkpt>
      <trkpt lat="42.6871590" lon="-0.5211950">
        <ele>1198.6</ele>
        <time>2023-01-14T10:18:26Z</time>
      </trkpt>
      <trkpt lat="42.6871480" lon="-0.5212390">
        <ele>1198.6</ele>
        <time>2023-01-14T10:18:27Z</time>
      </trkpt>
      <trkpt lat="42.6871290" lon="-0.5212850">
        <ele>1199.0</ele>
        <time>2023-01-14T10:18:28Z</time>
      </trkpt>
      <trkpt lat="42.6871030" lon="-0.5213270">
        <ele>1199.4</ele>
        <time>2023-01-14T10:18:29Z</time>
      </trkpt>
      <trkpt lat="42.6870640" lon="-0.5213680">
        <ele>1199.8</ele>
        <time>2023-01-14T10:18:30Z</time>
      </trkpt>
      <trkpt lat="42.6870200" lon="-0.5214050">
        <ele>1200.4</ele>
        <time>2023-01-14T10:18:31Z</time>
      </trkpt>
      <trkpt lat="42.6869770" lon="-0.5214390">
        <ele>1200.6</ele>
        <time>2023-01-14T10:18:32Z</time>
      </trkpt>
      <trkpt lat="42.6869340" lon="-0.5214620">
        <ele>1200.8</ele>
        <time>2023-01-14T10:18:33Z</time>
      </trkpt>
      <trkpt lat="42.6868900" lon="-0.5214630">
        <ele>1200.8</ele>
        <time>2023-01-14T10:18:34Z</time>
      </trkpt>
      <trkpt lat="42.6868490" lon="-0.5214500">
        <ele>1201.0</ele>
        <time>2023-01-14T10:18:35Z</time>
      </trkpt>
      <trkpt lat="42.6868150" lon="-0.5214200">
        <ele>1201.0</ele>
        <time>2023-01-14T10:18:36Z</time>
      </trkpt>
      <trkpt lat="42.6868000" lon="-0.5213730">
        <ele>1201.0</ele>
        <time>2023-01-14T10:18:37Z</time>
      </trkpt>
      <trkpt lat="42.6868040" lon="-0.5213170">
        <ele>1201.0</ele>
        <time>2023-01-14T10:18:38Z</time>
      </trkpt>
      <trkpt lat="42.6868170" lon="-0.5212590">
        <ele>1201.2</ele>
        <time>2023-01-14T10:18:39Z</time>
      </trkpt>
      <trkpt lat="42.6868300" lon="-0.5211990">
        <ele>1201.2</ele>
        <time>2023-01-14T10:18:40Z</time>
      </trkpt>
      <trkpt lat="42.6868390" lon="-0.5211390">
        <ele>1201.2</ele>
        <time>2023-01-14T10:18:41Z</time>
      </trkpt>
      <trkpt lat="42.6868420" lon="-0.5210780">
        <ele>1201.4</ele>
        <time>2023-01-14T10:18:42Z</time>
      </trkpt>
      <trkpt lat="42.6868370" lon="-0.5210150">
        <ele>1201.8</ele>
        <time>2023-01-14T10:18:43Z</time>
      </trkpt>
      <trkpt lat="42.6868270" lon="-0.5209540">
        <ele>1202.2</ele>
        <time>2023-01-14T10:18:44Z</time>
      </trkpt>
      <trkpt lat="42.6868160" lon="-0.5208950">
        <ele>1202.6</ele>
        <time>2023-01-14T10:18:45Z</time>
      </trkpt>
      <trkpt lat="42.6868040" lon="-0.5208330">
        <ele>1202.8</ele>
        <time>2023-01-14T10:18:46Z</time>
      </trkpt>
      <trkpt lat="42.6867910" lon="-0.5207710">
        <ele>1203.2</ele>
        <time>2023-01-14T10:18:47Z</time>
      </trkpt>
      <trkpt lat="42.6867770" lon="-0.5207130">
        <ele>1203.4</ele>
        <time>2023-01-14T10:18:48Z</time>
      </trkpt>
      <trkpt lat="42.6867620" lon="-0.5206560">
        <ele>1203.8</ele>
        <time>2023-01-14T10:18:49Z</time>
      </trkpt>
      <trkpt lat="42.6867470" lon="-0.5205990">
        <ele>1204.2</ele>
        <time>2023-01-14T10:18:50Z</time>
      </trkpt>
      <trkpt lat="42.6867330" lon="-0.5205400">
        <ele>1204.4</ele>
        <time>2023-01-14T10:18:51Z</time>
      </trkpt>
      <trkpt lat="42.6867210" lon="-0.5204790">
        <ele>1204.6</ele>
        <time>2023-01-14T10:18:52Z</time>
      </trkpt>
      <trkpt lat="42.6867090" lon="-0.5204160">
        <ele>1205.0</ele>
        <time>2023-01-14T10:18:53Z</time>
      </trkpt>
      <trkpt lat="42.6866980" lon="-0.5203500">
        <ele>1205.2</ele>
        <time>2023-01-14T10:18:54Z</time>
      </trkpt>
      <trkpt lat="42.6866920" lon="-0.5202840">
        <ele>1205.2</ele>
        <time>2023-01-14T10:18:55Z</time>
      </trkpt>
      <trkpt lat="42.6866890" lon="-0.5202190">
        <ele>1205.4</ele>
        <time>2023-01-14T10:18:56Z</time>
      </trkpt>
      <trkpt lat="42.6866820" lon="-0.5201520">
        <ele>1205.6</ele>
        <time>2023-01-14T10:18:57Z</time>
      </trkpt>
      <trkpt lat="42.6866730" lon="-0.5200800">
        <ele>1206.0</ele>
        <time>2023-01-14T10:18:58Z</time>
      </trkpt>
      <trkpt lat="42.6866630" lon="-0.5200080">
        <ele>1206.2</ele>
        <time>2023-01-14T10:18:59Z</time>
      </trkpt>
      <trkpt lat="42.6866510" lon="-0.5199380">
        <ele>1206.6</ele>
        <time>2023-01-14T10:19:00Z</time>
      </trkpt>
      <trkpt lat="42.6866370" lon="-0.5198670">
        <ele>1207.2</ele>
        <time>2023-01-14T10:19:01Z</time>
      </trkpt>
      <trkpt lat="42.6866220" lon="-0.5197960">
        <ele>1207.6</ele>
        <time>2023-01-14T10:19:02Z</time>
      </trkpt>
      <trkpt lat="42.6866060" lon="-0.5197270">
        <ele>1207.6</ele>
        <time>2023-01-14T10:19:03Z</time>
      </trkpt>
      <trkpt lat="42.6865870" lon="-0.5196620">
        <ele>1207.8</ele>
        <time>2023-01-14T10:19:04Z</time>
      </trkpt>
      <trkpt lat="42.6865630" lon="-0.5196020">
        <ele>1208.0</ele>
        <time>2023-01-14T10:19:05Z</time>
      </trkpt>
      <trkpt lat="42.6865330" lon="-0.5195470">
        <ele>1208.4</ele>
        <time>2023-01-14T10:19:06Z</time>
      </trkpt>
      <trkpt lat="42.6865000" lon="-0.5194970">
        <ele>1208.8</ele>
        <time>2023-01-14T10:19:07Z</time>
      </trkpt>
      <trkpt lat="42.6864640" lon="-0.5194500">
        <ele>1209.2</ele>
        <time>2023-01-14T10:19:08Z</time>
      </trkpt>
      <trkpt lat="42.6864250" lon="-0.5194050">
        <ele>1209.4</ele>
        <time>2023-01-14T10:19:09Z</time>
      </trkpt>
      <trkpt lat="42.6863840" lon="-0.5193630">
        <ele>1209.8</ele>
        <time>2023-01-14T10:19:10Z</time>
      </trkpt>
      <trkpt lat="42.6863460" lon="-0.5193190">
        <ele>1210.0</ele>
        <time>2023-01-14T10:19:11Z</time>
      </trkpt>
      <trkpt lat="42.6863090" lon="-0.5192770">
        <ele>1210.2</ele>
        <time>2023-01-14T10:19:12Z</time>
      </trkpt>
      <trkpt lat="42.6862720" lon="-0.5192370">
        <ele>1210.4</ele>
        <time>2023-01-14T10:19:13Z</time>
      </trkpt>
      <trkpt lat="42.6862330" lon="-0.5191950">
        <ele>1210.8</ele>
        <time>2023-01-14T10:19:14Z</time>
      </trkpt>
      <trkpt lat="42.6861930" lon="-0.5191550">
        <ele>1211.4</ele>
        <time>2023-01-14T10:19:15Z</time>
      </trkpt>
      <trkpt lat="42.6861500" lon="-0.5191190">
        <ele>1211.6</ele>
        <time>2023-01-14T10:19:16Z</time>
      </trkpt>
      <trkpt lat="42.6861050" lon="-0.5190840">
        <ele>1212.2</ele>
        <time>2023-01-14T10:19:17Z</time>
      </trkpt>
      <trkpt lat="42.6860640" lon="-0.5190520">
        <ele>1212.4</ele>
        <time>2023-01-14T10:19:18Z</time>
      </trkpt>
      <trkpt lat="42.6860210" lon="-0.5190230">
        <ele>1212.8</ele>
        <time>2023-01-14T10:19:19Z</time>
      </trkpt>
      <trkpt lat="42.6859780" lon="-0.5189930">
        <ele>1213.0</ele>
        <time>2023-01-14T10:19:20Z</time>
      </trkpt>
      <trkpt lat="42.6859350" lon="-0.5189640">
        <ele>1213.4</ele>
        <time>2023-01-14T10:19:21Z</time>
      </trkpt>
      <trkpt lat="42.6858920" lon="-0.5189400">
        <ele>1213.8</ele>
        <time>2023-01-14T10:19:22Z</time>
      </trkpt>
      <trkpt lat="42.6858490" lon="-0.5189180">
        <ele>1214.0</ele>
        <time>2023-01-14T10:19:23Z</time>
      </trkpt>
      <trkpt lat="42.6858010" lon="-0.5189010">
        <ele>1214.2</ele>
        <time>2023-01-14T10:19:24Z</time>
      </trkpt>
      <trkpt lat="42.6857550" lon="-0.5188840">
        <ele>1214.6</ele>
        <time>2023-01-14T10:19:25Z</time>
      </trkpt>
      <trkpt lat="42.6857120" lon="-0.5188650">
        <ele>1214.8</ele>
        <time>2023-01-14T10:19:26Z</time>
      </trkpt>
      <trkpt lat="42.6856680" lon="-0.5188510">
        <ele>1215.2</ele>
        <time>2023-01-14T10:19:27Z</time>
      </trkpt>
      <trkpt lat="42.6856220" lon="-0.5188380">
        <ele>1215.6</ele>
        <time>2023-01-14T10:19:28Z</time>
      </trkpt>
      <trkpt lat="42.6855750" lon="-0.5188240">
        <ele>1216.0</ele>
        <time>2023-01-14T10:19:29Z</time>
      </trkpt>
      <trkpt lat="42.6855300" lon="-0.5188060">
        <ele>1216.0</ele>
        <time>2023-01-14T10:19:30Z</time>
      </trkpt>
      <trkpt lat="42.6854810" lon="-0.5187900">
        <ele>1216.4</ele>
        <time>2023-01-14T10:19:31Z</time>
      </trkpt>
      <trkpt lat="42.6854340" lon="-0.5187690">
        <ele>1216.8</ele>
        <time>2023-01-14T10:19:32Z</time>
      </trkpt>
      <trkpt lat="42.6853870" lon="-0.5187430">
        <ele>1217.0</ele>
        <time>2023-01-14T10:19:33Z</time>
      </trkpt>
      <trkpt lat="42.6853420" lon="-0.5187120">
        <ele>1217.2</ele>
        <time>2023-01-14T10:19:34Z</time>
      </trkpt>
      <trkpt lat="42.6852980" lon="-0.5186790">
        <ele>1217.4</ele>
        <time>2023-01-14T10:19:35Z</time>
      </trkpt>
      <trkpt lat="42.6852540" lon="-0.5186430">
        <ele>1217.8</ele>
        <time>2023-01-14T10:19:36Z</time>
      </trkpt>
      <trkpt lat="42.6852100" lon="-0.5186060">
        <ele>1218.2</ele>
        <time>2023-01-14T10:19:37Z</time>
      </trkpt>
      <trkpt lat="42.6851670" lon="-0.5185690">
        <ele>1218.6</ele>
        <time>2023-01-14T10:19:38Z</time>
      </trkpt>
      <trkpt lat="42.6851230" lon="-0.5185350">
        <ele>1218.8</ele>
        <time>2023-01-14T10:19:39Z</time>
      </trkpt>
      <trkpt lat="42.6850810" lon="-0.5184990">
        <ele>1219.2</ele>
        <time>2023-01-14T10:19:40Z</time>
      </trkpt>
      <trkpt lat="42.6850390" lon="-0.5184660">
        <ele>1219.4</ele>
        <time>2023-01-14T10:19:41Z</time>
      </trkpt>
      <trkpt lat="42.6849940" lon="-0.5184330">
        <ele>1220.0</ele>
        <time>2023-01-14T10:19:42Z</time>
      </trkpt>
      <trkpt lat="42.6849510" lon="-0.5183970">
        <ele>1220.4</ele>
        <time>2023-01-14T10:19:43Z</time>
      </trkpt>
      <trkpt lat="42.6849080" lon="-0.5183630">
        <ele>1220.8</ele>
        <time>2023-01-14T10:19:44Z</time>
      </trkpt>
      <trkpt lat="42.6848650" lon="-0.5183290">
        <ele>1221.4</ele>
        <time>2023-01-14T10:19:45Z</time>
      </trkpt>
      <trkpt lat="42.6848230" lon="-0.5182940">
        <ele>1222.0</ele>
        <time>2023-01-14T10:19:46Z</time>
      </trkpt>
      <trkpt lat="42.6847830" lon="-0.5182570">
        <ele>1222.6</ele>
        <time>2023-01-14T10:19:47Z</time>
      </trkpt>
      <trkpt lat="42.6847410" lon="-0.5182200">
        <ele>1222.8</ele>
        <time>2023-01-14T10:19:48Z</time>
      </trkpt>
      <trkpt lat="42.6846980" lon="-0.5181870">
        <ele>1223.0</ele>
        <time>2023-01-14T10:19:49Z</time>
      </trkpt>
      <trkpt lat="42.6846540" lon="-0.5181580">
        <ele>1223.4</ele>
        <time>2023-01-14T10:19:50Z</time>
      </trkpt>
      <trkpt lat="42.6846100" lon="-0.5181290">
        <ele>1223.6</ele>
        <time>2023-01-14T10:19:51Z</time>
      </trkpt>
      <trkpt lat="42.6845640" lon="-0.5180990">
        <ele>1224.4</ele>
        <time>2023-01-14T10:19:52Z</time>
      </trkpt>
      <trkpt lat="42.6845210" lon="-0.5180640">
        <ele>1225.0</ele>
        <time>2023-01-14T10:19:53Z</time>
      </trkpt>
      <trkpt lat="42.6844760" lon="-0.5180280">
        <ele>1225.4</ele>
        <time>2023-01-14T10:19:54Z</time>
      </trkpt>
      <trkpt lat="42.6844330" lon="-0.5179930">
        <ele>1225.6</ele>
        <time>2023-01-14T10:19:55Z</time>
      </trkpt>
      <trkpt lat="42.6843930" lon="-0.5179570">
        <ele>1226.2</ele>
        <time>2023-01-14T10:19:56Z</time>
      </trkpt>
      <trkpt lat="42.6843560" lon="-0.5179190">
        <ele>1226.6</ele>
        <time>2023-01-14T10:19:57Z</time>
      </trkpt>
      <trkpt lat="42.6843190" lon="-0.5178800">
        <ele>1227.0</ele>
        <time>2023-01-14T10:19:58Z</time>
      </trkpt>
      <trkpt lat="42.6842830" lon="-0.5178420">
        <ele>1227.8</ele>
        <time>2023-01-14T10:19:59Z</time>
      </trkpt>
      <trkpt lat="42.6842470" lon="-0.5178050">
        <ele>1228.2</ele>
        <time>2023-01-14T10:20:00Z</time>
      </trkpt>
      <trkpt lat="42.6842110" lon="-0.5177680">
        <ele>1228.4</ele>
        <time>2023-01-14T10:20:01Z</time>
      </trkpt>
      <trkpt lat="42.6841750" lon="-0.5177350">
        <ele>1228.8</ele>
        <time>2023-01-14T10:20:02Z</time>
      </trkpt>
      <trkpt lat="42.6841380" lon="-0.5177040">
        <ele>1229.4</ele>
        <time>2023-01-14T10:20:03Z</time>
      </trkpt>
      <trkpt lat="42.6841010" lon="-0.5176740">
        <ele>1229.8</ele>
        <time>2023-01-14T10:20:04Z</time>
      </trkpt>
      <trkpt lat="42.6840640" lon="-0.5176450">
        <ele>1230.2</ele>
        <time>2023-01-14T10:20:05Z</time>
      </trkpt>
      <trkpt lat="42.6840280" lon="-0.5176170">
        <ele>1230.6</ele>
        <time>2023-01-14T10:20:06Z</time>
      </trkpt>
      <trkpt lat="42.6839900" lon="-0.5175920">
        <ele>1231.0</ele>
        <time>2023-01-14T10:20:07Z</time>
      </trkpt>
      <trkpt lat="42.6839510" lon="-0.5175660">
        <ele>1231.6</ele>
        <time>2023-01-14T10:20:08Z</time>
      </trkpt>
      <trkpt lat="42.6839120" lon="-0.5175400">
        <ele>1231.8</ele>
        <time>2023-01-14T10:20:09Z</time>
      </trkpt>
      <trkpt lat="42.6838730" lon="-0.5175150">
        <ele>1232.8</ele>
        <time>2023-01-14T10:20:10Z</time>
      </trkpt>
      <trkpt lat="42.6838350" lon="-0.5174880">
        <ele>1233.2</ele>
        <time>2023-01-14T10:20:11Z</time>
      </trkpt>
      <trkpt lat="42.6837980" lon="-0.5174610">
        <ele>1233.6</ele>
        <time>2023-01-14T10:20:12Z</time>
      </trkpt>
      <trkpt lat="42.6837600" lon="-0.5174350">
        <ele>1234.2</ele>
        <time>2023-01-14T10:20:13Z</time>
      </trkpt>
      <trkpt lat="42.6837210" lon="-0.5174090">
        <ele>1234.6</ele>
        <time>2023-01-14T10:20:14Z</time>
      </trkpt>
      <trkpt lat="42.6836820" lon="-0.5173830">
        <ele>1235.2</ele>
        <time>2023-01-14T10:20:15Z</time>
      </trkpt>
      <trkpt lat="42.6836460" lon="-0.5173550">
        <ele>1235.4</ele>
        <time>2023-01-14T10:20:16Z</time>
      </trkpt>
      <trkpt lat="42.6836110" lon="-0.5173240">
        <ele>1236.4</ele>
        <time>2023-01-14T10:20:17Z</time>
      </trkpt>
      <trkpt lat="42.6835760" lon="-0.5172930">
        <ele>1237.2</ele>
        <time>2023-01-14T10:20:18Z</time>
      </trkpt>
      <trkpt lat="42.6835440" lon="-0.5172590">
        <ele>1237.8</ele>
        <time>2023-01-14T10:20:19Z</time>
      </trkpt>
      <trkpt lat="42.6835180" lon="-0.5172150">
        <ele>1238.4</ele>
        <time>2023-01-14T10:20:20Z</time>
      </trkpt>
      <trkpt lat="42.6835030" lon="-0.5171660">
        <ele>1238.8</ele>
        <time>2023-01-14T10:20:21Z</time>
      </trkpt>
      <trkpt lat="42.6834980" lon="-0.5171110">
        <ele>1239.4</ele>
        <time>2023-01-14T10:20:22Z</time>
      </trkpt>
      <trkpt lat="42.6835050" lon="-0.5170600">
        <ele>1239.8</ele>
        <time>2023-01-14T10:20:23Z</time>
      </trkpt>
      <trkpt lat="42.6835240" lon="-0.5170140">
        <ele>1240.0</ele>
        <time>2023-01-14T10:20:24Z</time>
      </trkpt>
      <trkpt lat="42.6835550" lon="-0.5169760">
        <ele>1240.2</ele>
        <time>2023-01-14T10:20:25Z</time>
      </trkpt>
      <trkpt lat="42.6835930" lon="-0.5169480">
        <ele>1240.6</ele>
        <time>2023-01-14T10:20:26Z</time>
      </trkpt>
      <trkpt lat="42.6836360" lon="-0.5169290">
        <ele>1241.0</ele>
        <time>2023-01-14T10:20:27Z</time>
      </trkpt>
      <trkpt lat="42.6836810" lon="-0.5169230">
        <ele>1241.2</ele>
        <time>2023-01-14T10:20:28Z</time>
      </trkpt>
      <trkpt lat="42.6837270" lon="-0.5169270">
        <ele>1241.2</ele>
        <time>2023-01-14T10:20:29Z</time>
      </trkpt>
      <trkpt lat="42.6837770" lon="-0.5169350">
        <ele>1241.4</ele>
        <time>2023-01-14T10:20:30Z</time>
      </trkpt>
      <trkpt lat="42.6838260" lon="-0.5169420">
        <ele>1241.8</ele>
        <time>2023-01-14T10:20:31Z</time>
      </trkpt>
      <trkpt lat="42.6838750" lon="-0.5169440">
        <ele>1241.8</ele>
        <time>2023-01-14T10:20:32Z</time>
      </trkpt>
      <trkpt lat="42.6839250" lon="-0.5169440">
        <ele>1242.2</ele>
        <time>2023-01-14T10:20:33Z</time>
      </trkpt>
      <trkpt lat="42.6839750" lon="-0.5169420">
        <ele>1242.8</ele>
        <time>2023-01-14T10:20:34Z</time>
      </trkpt>
      <trkpt lat="42.6840260" lon="-0.5169410">
        <ele>1243.0</ele>
        <time>2023-01-14T10:20:35Z</time>
      </trkpt>
      <trkpt lat="42.6840760" lon="-0.5169390">
        <ele>1243.4</ele>
        <time>2023-01-14T10:20:36Z</time>
      </trkpt>
      <trkpt lat="42.6841270" lon="-0.5169370">
        <ele>1243.8</ele>
        <time>2023-01-14T10:20:37Z</time>
      </trkpt>
      <trkpt lat="42.6841770" lon="-0.5169320">
        <ele>1244.0</ele>
        <time>2023-01-14T10:20:38Z</time>
      </trkpt>
      <trkpt lat="42.6842270" lon="-0.5169230">
        <ele>1244.4</ele>
        <time>2023-01-14T10:20:39Z</time>
      </trkpt>
      <trkpt lat="42.6842770" lon="-0.5169120">
        <ele>1244.6</ele>
        <time>2023-01-14T10:20:40Z</time>
      </trkpt>
      <trkpt lat="42.6843260" lon="-0.5168990">
        <ele>1245.0</ele>
        <time>2023-01-14T10:20:41Z</time>
      </trkpt>
      <trkpt lat="42.6843730" lon="-0.5168850">
        <ele>1245.4</ele>
        <time>2023-01-14T10:20:42Z</time>
      </trkpt>
      <trkpt lat="42.6844200" lon="-0.5168690">
        <ele>1245.6</ele>
        <time>2023-01-14T10:20:43Z</time>
      </trkpt>
      <trkpt lat="42.6844650" lon="-0.5168510">
        <ele>1245.8</ele>
        <time>2023-01-14T10:20:44Z</time>
      </trkpt>
      <trkpt lat="42.6845070" lon="-0.5168340">
        <ele>1246.2</ele>
        <time>2023-01-14T10:20:45Z</time>
      </trkpt>
      <trkpt lat="42.6845380" lon="-0.5168350">
        <ele>1246.2</ele>
        <time>2023-01-14T10:20:46Z</time>
      </trkpt>
      <trkpt lat="42.6845510" lon="-0.5168550">
        <ele>1246.4</ele>
        <time>2023-01-14T10:20:47Z</time>
      </trkpt>
      <trkpt lat="42.6845490" lon="-0.5168820">
        <ele>1246.4</ele>
        <time>2023-01-14T10:20:48Z</time>
      </trkpt>
      <trkpt lat="42.6845300" lon="-0.5169060">
        <ele>1246.4</ele>
        <time>2023-01-14T10:20:49Z</time>
      </trkpt>
      <trkpt lat="42.6845010" lon="-0.5169230">
        <ele>1246.6</ele>
        <time>2023-01-14T10:20:50Z</time>
      </trkpt>
      <trkpt lat="42.6844670" lon="-0.5169390">
        <ele>1246.8</ele>
        <time>2023-01-14T10:20:51Z</time>
      </trkpt>
      <trkpt lat="42.6844340" lon="-0.5169570">
        <ele>1246.8</ele>
        <time>2023-01-14T10:20:52Z</time>
      </trkpt>
      <trkpt lat="42.6843960" lon="-0.5169740">
        <ele>1247.2</ele>
        <time>2023-01-14T10:20:53Z</time>
      </trkpt>
      <trkpt lat="42.6843560" lon="-0.5169920">
        <ele>1247.6</ele>
        <time>2023-01-14T10:20:54Z</time>
      </trkpt>
      <trkpt lat="42.6843170" lon="-0.5170100">
        <ele>1247.8</ele>
        <time>2023-01-14T10:20:55Z</time>
      </trkpt>
      <trkpt lat="42.6842780" lon="-0.5170290">
        <ele>1247.8</ele>
        <time>2023-01-14T10:20:56Z</time>
      </trkpt>
      <trkpt lat="42.6842410" lon="-0.5170490">
        <ele>1248.0</ele>
        <time>2023-01-14T10:20:57Z</time>
      </trkpt>
      <trkpt lat="42.6842100" lon="-0.5170710">
        <ele>1248.4</ele>
        <time>2023-01-14T10:20:58Z</time>
      </trkpt>
      <trkpt lat="42.6841820" lon="-0.5170960">
        <ele>1248.6</ele>
        <time>2023-01-14T10:20:59Z</time>
      </trkpt>
      <trkpt lat="42.6841590" lon="-0.5171230">
        <ele>1249.0</ele>
        <time>2023-01-14T10:21:00Z</time>
      </trkpt>
      <trkpt lat="42.6841450" lon="-0.5171560">
        <ele>1249.4</ele>
        <time>2023-01-14T10:21:01Z</time>
      </trkpt>
      <trkpt lat="42.6841410" lon="-0.5171900">
        <ele>1249.6</ele>
        <time>2023-01-14T10:21:02Z</time>
      </trkpt>
      <trkpt lat="42.6841520" lon="-0.5172240">
        <ele>1250.0</ele>
        <time>2023-01-14T10:21:03Z</time>
      </trkpt>
      <trkpt lat="42.6841720" lon="-0.5172490">
        <ele>1250.4</ele>
        <time>2023-01-14T10:21:04Z</time>
      </trkpt>
      <trkpt lat="42.6841970" lon="-0.5172680">
        <ele>1250.8</ele>
        <time>2023-01-14T10:21:05Z</time>
      </trkpt>
      <trkpt lat="42.6842230" lon="-0.5172860">
        <ele>1251.2</ele>
        <time>2023-01-14T10:21:06Z</time>
      </trkpt>
      <trkpt lat="42.6842480" lon="-0.5173050">
        <ele>1251.8</ele>
        <time>2023-01-14T10:21:07Z</time>
      </trkpt>
      <trkpt lat="42.6842730" lon="-0.5173220">
        <ele>1252.2</ele>
        <time>2023-01-14T10:21:08Z</time>
      </trkpt>
      <trkpt lat="42.6842970" lon="-0.5173350">
        <ele>1252.6</ele>
        <time>2023-01-14T10:21:09Z</time>
      </trkpt>
      <trkpt lat="42.6842970" lon="-0.5173350">
        <ele>1252.8</ele>
        <time>2023-01-14T10:21:10Z</time>
      </trkpt>
      <trkpt lat="42.6843210" lon="-0.5173420">
        <ele>1253.4</ele>
        <time>2023-01-14T10:21:11Z</time>
      </trkpt>
      <trkpt lat="42.6843460" lon="-0.5173460">
        <ele>1253.8</ele>
        <time>2023-01-14T10:21:12Z</time>
      </trkpt>
      <trkpt lat="42.6843710" lon="-0.5173490">
        <ele>1254.2</ele>
        <time>2023-01-14T10:21:13Z</time>
      </trkpt>
      <trkpt lat="42.6843980" lon="-0.5173510">
        <ele>1254.4</ele>
        <time>2023-01-14T10:21:14Z</time>
      </trkpt>
      <trkpt lat="42.6844270" lon="-0.5173520">
        <ele>1254.8</ele>
        <time>2023-01-14T10:21:15Z</time>
      </trkpt>
      <trkpt lat="42.6844570" lon="-0.5173480">
        <ele>1255.2</ele>
        <time>2023-01-14T10:21:16Z</time>
      </trkpt>
      <trkpt lat="42.6844890" lon="-0.5173390">
        <ele>1255.6</ele>
        <time>2023-01-14T10:21:17Z</time>
      </trkpt>
      <trkpt lat="42.6845210" lon="-0.5173290">
        <ele>1256.0</ele>
        <time>2023-01-14T10:21:18Z</time>
      </trkpt>
      <trkpt lat="42.6845550" lon="-0.5173170">
        <ele>1256.4</ele>
        <time>2023-01-14T10:21:19Z</time>
      </trkpt>
      <trkpt lat="42.6845900" lon="-0.5173040">
        <ele>1256.8</ele>
        <time>2023-01-14T10:21:20Z</time>
      </trkpt>
      <trkpt lat="42.6846250" lon="-0.5172860">
        <ele>1257.2</ele>
        <time>2023-01-14T10:21:21Z</time>
      </trkpt>
      <trkpt lat="42.6846580" lon="-0.5172660">
        <ele>1257.6</ele>
        <time>2023-01-14T10:21:22Z</time>
      </trkpt>
      <trkpt lat="42.6846880" lon="-0.5172450">
        <ele>1257.8</ele>
        <time>2023-01-14T10:21:23Z</time>
      </trkpt>
      <trkpt lat="42.6847500" lon="-0.5171910">
        <ele>1258.2</ele>
        <time>2023-01-14T10:21:24Z</time>
      </trkpt>
      <trkpt lat="42.6847640" lon="-0.5171740">
        <ele>1258.2</ele>
        <time>2023-01-14T10:21:25Z</time>
      </trkpt>
      <trkpt lat="42.6847790" lon="-0.5171560">
        <ele>1258.4</ele>
        <time>2023-01-14T10:21:26Z</time>
      </trkpt>
      <trkpt lat="42.6848100" lon="-0.5171220">
        <ele>1258.4</ele>
        <time>2023-01-14T10:21:27Z</time>
      </trkpt>
      <trkpt lat="42.6848390" lon="-0.5170900">
        <ele>1258.6</ele>
        <time>2023-01-14T10:21:28Z</time>
      </trkpt>
      <trkpt lat="42.6848690" lon="-0.5170600">
        <ele>1258.6</ele>
        <time>2023-01-14T10:21:29Z</time>
      </trkpt>
      <trkpt lat="42.6849000" lon="-0.5170300">
        <ele>1258.8</ele>
        <time>2023-01-14T10:21:30Z</time>
      </trkpt>
      <trkpt lat="42.6849650" lon="-0.5169790">
        <ele>1259.0</ele>
        <time>2023-01-14T10:21:31Z</time>
      </trkpt>
      <trkpt lat="42.6849830" lon="-0.5169690">
        <ele>1259.0</ele>
        <time>2023-01-14T10:21:32Z</time>
      </trkpt>
      <trkpt lat="42.6850000" lon="-0.5169600">
        <ele>1259.4</ele>
        <time>2023-01-14T10:21:33Z</time>
      </trkpt>
      <trkpt lat="42.6850340" lon="-0.5169440">
        <ele>1259.6</ele>
        <time>2023-01-14T10:21:34Z</time>
      </trkpt>
      <trkpt lat="42.6850660" lon="-0.5169310">
        <ele>1260.0</ele>
        <time>2023-01-14T10:21:35Z</time>
      </trkpt>
      <trkpt lat="42.6850980" lon="-0.5169190">
        <ele>1260.6</ele>
        <time>2023-01-14T10:21:36Z</time>
      </trkpt>
      <trkpt lat="42.6851260" lon="-0.5169080">
        <ele>1261.2</ele>
        <time>2023-01-14T10:21:37Z</time>
      </trkpt>
      <trkpt lat="42.6851540" lon="-0.5168980">
        <ele>1261.4</ele>
        <time>2023-01-14T10:21:38Z</time>
      </trkpt>
      <trkpt lat="42.6851800" lon="-0.5168880">
        <ele>1261.8</ele>
        <time>2023-01-14T10:21:39Z</time>
      </trkpt>
      <trkpt lat="42.6852070" lon="-0.5168790">
        <ele>1262.2</ele>
        <time>2023-01-14T10:21:40Z</time>
      </trkpt>
      <trkpt lat="42.6852310" lon="-0.5168710">
        <ele>1262.4</ele>
        <time>2023-01-14T10:21:41Z</time>
      </trkpt>
      <trkpt lat="42.6852790" lon="-0.5168550">
        <ele>1262.8</ele>
        <time>2023-01-14T10:21:42Z</time>
      </trkpt>
      <trkpt lat="42.6852790" lon="-0.5168550">
        <ele>1263.2</ele>
        <time>2023-01-14T10:21:43Z</time>
      </trkpt>
      <trkpt lat="42.6853020" lon="-0.5168500">
        <ele>1263.8</ele>
        <time>2023-01-14T10:21:44Z</time>
      </trkpt>
      <trkpt lat="42.6853250" lon="-0.5168470">
        <ele>1264.8</ele>
        <time>2023-01-14T10:21:45Z</time>
      </trkpt>
      <trkpt lat="42.6853460" lon="-0.5168470">
        <ele>1265.6</ele>
        <time>2023-01-14T10:21:46Z</time>
      </trkpt>
      <trkpt lat="42.6853690" lon="-0.5168460">
        <ele>1266.2</ele>
        <time>2023-01-14T10:21:47Z</time>
      </trkpt>
      <trkpt lat="42.6853900" lon="-0.5168460">
        <ele>1266.6</ele>
        <time>2023-01-14T10:21:48Z</time>
      </trkpt>
      <trkpt lat="42.6854140" lon="-0.5168460">
        <ele>1267.2</ele>
        <time>2023-01-14T10:21:49Z</time>
      </trkpt>
      <trkpt lat="42.6854370" lon="-0.5168470">
        <ele>1267.6</ele>
        <time>2023-01-14T10:21:50Z</time>
      </trkpt>
      <trkpt lat="42.6854550" lon="-0.5168460">
        <ele>1268.2</ele>
        <time>2023-01-14T10:21:51Z</time>
      </trkpt>
      <trkpt lat="42.6854960" lon="-0.5168450">
        <ele>1268.8</ele>
        <time>2023-01-14T10:21:52Z</time>
      </trkpt>
      <trkpt lat="42.6854960" lon="-0.5168450">
        <ele>1269.2</ele>
        <time>2023-01-14T10:21:53Z</time>
      </trkpt>
      <trkpt lat="42.6855150" lon="-0.5168460">
        <ele>1269.8</ele>
        <time>2023-01-14T10:21:54Z</time>
      </trkpt>
      <trkpt lat="42.6855590" lon="-0.5168450">
        <ele>1270.0</ele>
        <time>2023-01-14T10:21:55Z</time>
      </trkpt>
      <trkpt lat="42.6855590" lon="-0.5168450">
        <ele>1270.4</ele>
        <time>2023-01-14T10:21:56Z</time>
      </trkpt>
      <trkpt lat="42.6855810" lon="-0.5168450">
        <ele>1270.6</ele>
        <time>2023-01-14T10:21:57Z</time>
      </trkpt>
      <trkpt lat="42.6856060" lon="-0.5168480">
        <ele>1270.8</ele>
        <time>2023-01-14T10:21:58Z</time>
      </trkpt>
      <trkpt lat="42.6856310" lon="-0.5168510">
        <ele>1271.0</ele>
        <time>2023-01-14T10:21:59Z</time>
      </trkpt>
      <trkpt lat="42.6856760" lon="-0.5168570">
        <ele>1271.4</ele>
        <time>2023-01-14T10:22:00Z</time>
      </trkpt>
      <trkpt lat="42.6857000" lon="-0.5168600">
        <ele>1272.0</ele>
        <time>2023-01-14T10:22:01Z</time>
      </trkpt>
      <trkpt lat="42.6857210" lon="-0.5168650">
        <ele>1272.6</ele>
        <time>2023-01-14T10:22:02Z</time>
      </trkpt>
      <trkpt lat="42.6857210" lon="-0.5168650">
        <ele>1272.8</ele>
        <time>2023-01-14T10:22:03Z</time>
      </trkpt>
      <trkpt lat="42.6857440" lon="-0.5168680">
        <ele>1273.2</ele>
        <time>2023-01-14T10:22:04Z</time>
      </trkpt>
      <trkpt lat="42.6857870" lon="-0.5168870">
        <ele>1273.8</ele>
        <time>2023-01-14T10:22:05Z</time>
      </trkpt>
      <trkpt lat="42.6857870" lon="-0.5168870">
        <ele>1274.2</ele>
        <time>2023-01-14T10:22:06Z</time>
      </trkpt>
      <trkpt lat="42.6858070" lon="-0.5168970">
        <ele>1274.4</ele>
        <time>2023-01-14T10:22:07Z</time>
      </trkpt>
      <trkpt lat="42.6858270" lon="-0.5169070">
        <ele>1274.6</ele>
        <time>2023-01-14T10:22:08Z</time>
      </trkpt>
      <trkpt lat="42.6858710" lon="-0.5169290">
        <ele>1274.8</ele>
        <time>2023-01-14T10:22:09Z</time>
      </trkpt>
      <trkpt lat="42.6858710" lon="-0.5169290">
        <ele>1275.0</ele>
        <time>2023-01-14T10:22:10Z</time>
      </trkpt>
      <trkpt lat="42.6858930" lon="-0.5169400">
        <ele>1275.4</ele>
        <time>2023-01-14T10:22:11Z</time>
      </trkpt>
      <trkpt lat="42.6859150" lon="-0.5169480">
        <ele>1276.0</ele>
        <time>2023-01-14T10:22:12Z</time>
      </trkpt>
      <trkpt lat="42.6859350" lon="-0.5169560">
        <ele>1276.4</ele>
        <time>2023-01-14T10:22:13Z</time>
      </trkpt>
      <trkpt lat="42.6859550" lon="-0.5169650">
        <ele>1277.4</ele>
        <time>2023-01-14T10:22:14Z</time>
      </trkpt>
      <trkpt lat="42.6859770" lon="-0.5169770">
        <ele>1278.0</ele>
        <time>2023-01-14T10:22:15Z</time>
      </trkpt>
      <trkpt lat="42.6859980" lon="-0.5169890">
        <ele>1278.6</ele>
        <time>2023-01-14T10:22:16Z</time>
      </trkpt>
      <trkpt lat="42.6860190" lon="-0.5170010">
        <ele>1279.0</ele>
        <time>2023-01-14T10:22:17Z</time>
      </trkpt>
      <trkpt lat="42.6860400" lon="-0.5170130">
        <ele>1279.2</ele>
        <time>2023-01-14T10:22:18Z</time>
      </trkpt>
      <trkpt lat="42.6860830" lon="-0.5170300">
        <ele>1279.4</ele>
        <time>2023-01-14T10:22:19Z</time>
      </trkpt>
      <trkpt lat="42.6861050" lon="-0.5170400">
        <ele>1279.6</ele>
        <time>2023-01-14T10:22:20Z</time>
      </trkpt>
      <trkpt lat="42.6861260" lon="-0.5170500">
        <ele>1280.2</ele>
        <time>2023-01-14T10:22:21Z</time>
      </trkpt>
      <trkpt lat="42.6861490" lon="-0.5170620">
        <ele>1280.4</ele>
        <time>2023-01-14T10:22:22Z</time>
      </trkpt>
      <trkpt lat="42.6861700" lon="-0.5170780">
        <ele>1280.6</ele>
        <time>2023-01-14T10:22:23Z</time>
      </trkpt>
      <trkpt lat="42.6861910" lon="-0.5170980">
        <ele>1280.8</ele>
        <time>2023-01-14T10:22:24Z</time>
      </trkpt>
      <trkpt lat="42.6861910" lon="-0.5170980">
        <ele>1281.4</ele>
        <time>2023-01-14T10:22:25Z</time>
      </trkpt>
      <trkpt lat="42.6862090" lon="-0.5171220">
        <ele>1282.0</ele>
        <time>2023-01-14T10:22:26Z</time>
      </trkpt>
      <trkpt lat="42.6862390" lon="-0.5171640">
        <ele>1282.4</ele>
        <time>2023-01-14T10:22:27Z</time>
      </trkpt>
      <trkpt lat="42.6862520" lon="-0.5171820">
        <ele>1282.8</ele>
        <time>2023-01-14T10:22:28Z</time>
      </trkpt>
      <trkpt lat="42.6862670" lon="-0.5171990">
        <ele>1283.2</ele>
        <time>2023-01-14T10:22:29Z</time>
      </trkpt>
      <trkpt lat="42.6862830" lon="-0.5172170">
        <ele>1283.6</ele>
        <time>2023-01-14T10:22:30Z</time>
      </trkpt>
      <trkpt lat="42.6862990" lon="-0.5172370">
        <ele>1284.0</ele>
        <time>2023-01-14T10:22:31Z</time>
      </trkpt>
      <trkpt lat="42.6863150" lon="-0.5172580">
        <ele>1284.4</ele>
        <time>2023-01-14T10:22:32Z</time>
      </trkpt>
      <trkpt lat="42.6863310" lon="-0.5172770">
        <ele>1284.6</ele>
        <time>2023-01-14T10:22:33Z</time>
      </trkpt>
      <trkpt lat="42.6863510" lon="-0.5172970">
        <ele>1285.2</ele>
        <time>2023-01-14T10:22:34Z</time>
      </trkpt>
      <trkpt lat="42.6863700" lon="-0.5173170">
        <ele>1285.4</ele>
        <time>2023-01-14T10:22:35Z</time>
      </trkpt>
      <trkpt lat="42.6863900" lon="-0.5173340">
        <ele>1285.6</ele>
        <time>2023-01-14T10:22:36Z</time>
      </trkpt>
      <trkpt lat="42.6864090" lon="-0.5173520">
        <ele>1286.0</ele>
        <time>2023-01-14T10:22:37Z</time>
      </trkpt>
      <trkpt lat="42.6864090" lon="-0.5173520">
        <ele>1286.4</ele>
        <time>2023-01-14T10:22:38Z</time>
      </trkpt>
      <trkpt lat="42.6864310" lon="-0.5173690">
        <ele>1286.6</ele>
        <time>2023-01-14T10:22:39Z</time>
      </trkpt>
      <trkpt lat="42.6864540" lon="-0.5173850">
        <ele>1287.0</ele>
        <time>2023-01-14T10:22:40Z</time>
      </trkpt>
      <trkpt lat="42.6864960" lon="-0.5174140">
        <ele>1287.4</ele>
        <time>2023-01-14T10:22:41Z</time>
      </trkpt>
      <trkpt lat="42.6864960" lon="-0.5174140">
        <ele>1287.6</ele>
        <time>2023-01-14T10:22:42Z</time>
      </trkpt>
      <trkpt lat="42.6865160" lon="-0.5174320">
        <ele>1288.0</ele>
        <time>2023-01-14T10:22:43Z</time>
      </trkpt>
      <trkpt lat="42.6865340" lon="-0.5174540">
        <ele>1288.2</ele>
        <time>2023-01-14T10:22:44Z</time>
      </trkpt>
      <trkpt lat="42.6865500" lon="-0.5174780">
        <ele>1288.4</ele>
        <time>2023-01-14T10:22:45Z</time>
      </trkpt>
      <trkpt lat="42.6865640" lon="-0.5175050">
        <ele>1288.8</ele>
        <time>2023-01-14T10:22:46Z</time>
      </trkpt>
      <trkpt lat="42.6865770" lon="-0.5175330">
        <ele>1289.0</ele>
        <time>2023-01-14T10:22:47Z</time>
      </trkpt>
      <trkpt lat="42.6865910" lon="-0.5175620">
        <ele>1289.6</ele>
        <time>2023-01-14T10:22:48Z</time>
      </trkpt>
      <trkpt lat="42.6866200" lon="-0.5176130">
        <ele>1290.0</ele>
        <time>2023-01-14T10:22:49Z</time>
      </trkpt>
      <trkpt lat="42.6866390" lon="-0.5176320">
        <ele>1290.6</ele>
        <time>2023-01-14T10:22:50Z</time>
      </trkpt>
      <trkpt lat="42.6866620" lon="-0.5176440">
        <ele>1290.8</ele>
        <time>2023-01-14T10:22:51Z</time>
      </trkpt>
      <trkpt lat="42.6866860" lon="-0.5176450">
        <ele>1291.2</ele>
        <time>2023-01-14T10:22:52Z</time>
      </trkpt>
      <trkpt lat="42.6867070" lon="-0.5176360">
        <ele>1291.6</ele>
        <time>2023-01-14T10:22:53Z</time>
      </trkpt>
      <trkpt lat="42.6867190" lon="-0.5176150">
        <ele>1292.0</ele>
        <time>2023-01-14T10:22:54Z</time>
      </trkpt>
      <trkpt lat="42.6867310" lon="-0.5175950">
        <ele>1292.6</ele>
        <time>2023-01-14T10:22:55Z</time>
      </trkpt>
      <trkpt lat="42.6867310" lon="-0.5175950">
        <ele>1292.8</ele>
        <time>2023-01-14T10:22:56Z</time>
      </trkpt>
      <trkpt lat="42.6867350" lon="-0.5175730">
        <ele>1293.4</ele>
        <time>2023-01-14T10:22:57Z</time>
      </trkpt>
      <trkpt lat="42.6867300" lon="-0.5175490">
        <ele>1293.8</ele>
        <time>2023-01-14T10:22:58Z</time>
      </trkpt>
      <trkpt lat="42.6867230" lon="-0.5175250">
        <ele>1294.0</ele>
        <time>2023-01-14T10:22:59Z</time>
      </trkpt>
      <trkpt lat="42.6867200" lon="-0.5174970">
        <ele>1294.4</ele>
        <time>2023-01-14T10:23:00Z</time>
      </trkpt>
      <trkpt lat="42.6867180" lon="-0.5174700">
        <ele>1294.6</ele>
        <time>2023-01-14T10:23:01Z</time>
      </trkpt>
      <trkpt lat="42.6867160" lon="-0.5174420">
        <ele>1295.2</ele>
        <time>2023-01-14T10:23:02Z</time>
      </trkpt>
      <trkpt lat="42.6867170" lon="-0.5174130">
        <ele>1295.8</ele>
        <time>2023-01-14T10:23:03Z</time>
      </trkpt>
      <trkpt lat="42.6867190" lon="-0.5173880">
        <ele>1296.2</ele>
        <time>2023-01-14T10:23:04Z</time>
      </trkpt>
      <trkpt lat="42.6867240" lon="-0.5173630">
        <ele>1296.6</ele>
        <time>2023-01-14T10:23:05Z</time>
      </trkpt>
      <trkpt lat="42.6867330" lon="-0.5173380">
        <ele>1297.0</ele>
        <time>2023-01-14T10:23:06Z</time>
      </trkpt>
      <trkpt lat="42.6867440" lon="-0.5173120">
        <ele>1297.4</ele>
        <time>2023-01-14T10:23:07Z</time>
      </trkpt>
      <trkpt lat="42.6867580" lon="-0.5172910">
        <ele>1297.6</ele>
        <time>2023-01-14T10:23:08Z</time>
      </trkpt>
      <trkpt lat="42.6867730" lon="-0.5172710">
        <ele>1298.0</ele>
        <time>2023-01-14T10:23:09Z</time>
      </trkpt>
      <trkpt lat="42.6867890" lon="-0.5172520">
        <ele>1298.2</ele>
        <time>2023-01-14T10:23:10Z</time>
      </trkpt>
      <trkpt lat="42.6868250" lon="-0.5172340">
        <ele>1299.0</ele>
        <time>2023-01-14T10:23:11Z</time>
      </trkpt>
      <trkpt lat="42.6868250" lon="-0.5172340">
        <ele>1299.6</ele>
        <time>2023-01-14T10:23:12Z</time>
      </trkpt>
      <trkpt lat="42.6868450" lon="-0.5172390">
        <ele>1299.8</ele>
        <time>2023-01-14T10:23:13Z</time>
      </trkpt>
      <trkpt lat="42.6868800" lon="-0.5172690">
        <ele>1300.4</ele>
        <time>2023-01-14T10:23:14Z</time>
      </trkpt>
      <trkpt lat="42.6868800" lon="-0.5172690">
        <ele>1300.6</ele>
        <time>2023-01-14T10:23:15Z</time>
      </trkpt>
      <trkpt lat="42.6868940" lon="-0.5172920">
        <ele>1301.0</ele>
        <time>2023-01-14T10:23:16Z</time>
      </trkpt>
      <trkpt lat="42.6869090" lon="-0.5173200">
        <ele>1301.4</ele>
        <time>2023-01-14T10:23:17Z</time>
      </trkpt>
      <trkpt lat="42.6869260" lon="-0.5173480">
        <ele>1301.8</ele>
        <time>2023-01-14T10:23:18Z</time>
      </trkpt>
      <trkpt lat="42.6869440" lon="-0.5173770">
        <ele>1302.0</ele>
        <time>2023-01-14T10:23:19Z</time>
      </trkpt>
      <trkpt lat="42.6869640" lon="-0.5174060">
        <ele>1302.4</ele>
        <time>2023-01-14T10:23:20Z</time>
      </trkpt>
      <trkpt lat="42.6869850" lon="-0.5174310">
        <ele>1302.8</ele>
        <time>2023-01-14T10:23:21Z</time>
      </trkpt>
      <trkpt lat="42.6870080" lon="-0.5174540">
        <ele>1303.2</ele>
        <time>2023-01-14T10:23:22Z</time>
      </trkpt>
      <trkpt lat="42.6870320" lon="-0.5174740">
        <ele>1303.6</ele>
        <time>2023-01-14T10:23:23Z</time>
      </trkpt>
      <trkpt lat="42.6870550" lon="-0.5174890">
        <ele>1303.8</ele>
        <time>2023-01-14T10:23:24Z</time>
      </trkpt>
      <trkpt lat="42.6870790" lon="-0.5174980">
        <ele>1304.0</ele>
        <time>2023-01-14T10:23:25Z</time>
      </trkpt>
      <trkpt lat="42.6871060" lon="-0.5175060">
        <ele>1304.2</ele>
        <time>2023-01-14T10:23:26Z</time>
      </trkpt>
      <trkpt lat="42.6871680" lon="-0.5175150">
        <ele>1304.4</ele>
        <time>2023-01-14T10:23:27Z</time>
      </trkpt>
      <trkpt lat="42.6871680" lon="-0.5175150">
        <ele>1304.8</ele>
        <time>2023-01-14T10:23:28Z</time>
      </trkpt>
      <trkpt lat="42.6872010" lon="-0.5175180">
        <ele>1305.0</ele>
        <time>2023-01-14T10:23:29Z</time>
      </trkpt>
      <trkpt lat="42.6872340" lon="-0.5175190">
        <ele>1305.0</ele>
        <time>2023-01-14T10:23:30Z</time>
      </trkpt>
      <trkpt lat="42.6872660" lon="-0.5175150">
        <ele>1305.4</ele>
        <time>2023-01-14T10:23:31Z</time>
      </trkpt>
      <trkpt lat="42.6872990" lon="-0.5175060">
        <ele>1305.6</ele>
        <time>2023-01-14T10:23:32Z</time>
      </trkpt>
      <trkpt lat="42.6873310" lon="-0.5174940">
        <ele>1305.8</ele>
        <time>2023-01-14T10:23:33Z</time>
      </trkpt>
      <trkpt lat="42.6873590" lon="-0.5174800">
        <ele>1306.0</ele>
        <time>2023-01-14T10:23:34Z</time>
      </trkpt>
      <trkpt lat="42.6873850" lon="-0.5174620">
        <ele>1306.2</ele>
        <time>2023-01-14T10:23:35Z</time>
      </trkpt>
      <trkpt lat="42.6874130" lon="-0.5174490">
        <ele>1306.4</ele>
        <time>2023-01-14T10:23:36Z</time>
      </trkpt>
      <trkpt lat="42.6874460" lon="-0.5174370">
        <ele>1306.4</ele>
        <time>2023-01-14T10:23:37Z</time>
      </trkpt>
      <trkpt lat="42.6874800" lon="-0.5174250">
        <ele>1306.8</ele>
        <time>2023-01-14T10:23:38Z</time>
      </trkpt>
      <trkpt lat="42.6875150" lon="-0.5174120">
        <ele>1307.2</ele>
        <time>2023-01-14T10:23:39Z</time>
      </trkpt>
      <trkpt lat="42.6875510" lon="-0.5174010">
        <ele>1307.6</ele>
        <time>2023-01-14T10:23:40Z</time>
      </trkpt>
      <trkpt lat="42.6875870" lon="-0.5173910">
        <ele>1307.8</ele>
        <time>2023-01-14T10:23:41Z</time>
      </trkpt>
      <trkpt lat="42.6876190" lon="-0.5173810">
        <ele>1308.0</ele>
        <time>2023-01-14T10:23:42Z</time>
      </trkpt>
      <trkpt lat="42.6876520" lon="-0.5173730">
        <ele>1308.4</ele>
        <time>2023-01-14T10:23:43Z</time>
      </trkpt>
      <trkpt lat="42.6876840" lon="-0.5173650">
        <ele>1308.6</ele>
        <time>2023-01-14T10:23:44Z</time>
      </trkpt>
      <trkpt lat="42.6877170" lon="-0.5173560">
        <ele>1309.0</ele>
        <time>2023-01-14T10:23:45Z</time>
      </trkpt>
      <trkpt lat="42.6877810" lon="-0.5173450">
        <ele>1309.4</ele>
        <time>2023-01-14T10:23:46Z</time>
      </trkpt>
      <trkpt lat="42.6878140" lon="-0.5173420">
        <ele>1309.8</ele>
        <time>2023-01-14T10:23:47Z</time>
      </trkpt>
      <trkpt lat="42.6878490" lon="-0.5173350">
        <ele>1310.2</ele>
        <time>2023-01-14T10:23:48Z</time>
      </trkpt>
      <trkpt lat="42.6878830" lon="-0.5173290">
        <ele>1310.4</ele>
        <time>2023-01-14T10:23:49Z</time>
      </trkpt>
      <trkpt lat="42.6879010" lon="-0.5173250">
        <ele>1310.6</ele>
        <time>2023-01-14T10:23:50Z</time>
      </trkpt>
      <trkpt lat="42.6879190" lon="-0.5173210">
        <ele>1310.8</ele>
        <time>2023-01-14T10:23:51Z</time>
      </trkpt>
      <trkpt lat="42.6879920" lon="-0.5173050">
        <ele>1311.2</ele>
        <time>2023-01-14T10:23:52Z</time>
      </trkpt>
      <trkpt lat="42.6879920" lon="-0.5173050">
        <ele>1311.4</ele>
        <time>2023-01-14T10:23:53Z</time>
      </trkpt>
      <trkpt lat="42.6880260" lon="-0.5172960">
        <ele>1312.0</ele>
        <time>2023-01-14T10:23:54Z</time>
      </trkpt>
      <trkpt lat="42.6880970" lon="-0.5172820">
        <ele>1312.4</ele>
        <time>2023-01-14T10:23:55Z</time>
      </trkpt>
      <trkpt lat="42.6881150" lon="-0.5172780">
        <ele>1312.6</ele>
        <time>2023-01-14T10:23:56Z</time>
      </trkpt>
      <trkpt lat="42.6881330" lon="-0.5172740">
        <ele>1313.0</ele>
        <time>2023-01-14T10:23:57Z</time>
      </trkpt>
      <trkpt lat="42.6881690" lon="-0.5172650">
        <ele>1313.2</ele>
        <time>2023-01-14T10:23:58Z</time>
      </trkpt>
      <trkpt lat="42.6882050" lon="-0.5172580">
        <ele>1313.4</ele>
        <time>2023-01-14T10:23:59Z</time>
      </trkpt>
      <trkpt lat="42.6882420" lon="-0.5172520">
        <ele>1314.0</ele>
        <time>2023-01-14T10:24:00Z</time>
      </trkpt>
      <trkpt lat="42.6882780" lon="-0.5172470">
        <ele>1314.4</ele>
        <time>2023-01-14T10:24:01Z</time>
      </trkpt>
      <trkpt lat="42.6883140" lon="-0.5172430">
        <ele>1314.6</ele>
        <time>2023-01-14T10:24:02Z</time>
      </trkpt>
      <trkpt lat="42.6883460" lon="-0.5172400">
        <ele>1314.8</ele>
        <time>2023-01-14T10:24:03Z</time>
      </trkpt>
      <trkpt lat="42.6883800" lon="-0.5172350">
        <ele>1314.8</ele>
        <time>2023-01-14T10:24:04Z</time>
      </trkpt>
      <trkpt lat="42.6884170" lon="-0.5172300">
        <ele>1315.2</ele>
        <time>2023-01-14T10:24:05Z</time>
      </trkpt>
      <trkpt lat="42.6884570" lon="-0.5172260">
        <ele>1315.2</ele>
        <time>2023-01-14T10:24:06Z</time>
      </trkpt>
      <trkpt lat="42.6884980" lon="-0.5172210">
        <ele>1315.4</ele>
        <time>2023-01-14T10:24:07Z</time>
      </trkpt>
      <trkpt lat="42.6885380" lon="-0.5172180">
        <ele>1315.4</ele>
        <time>2023-01-14T10:24:08Z</time>
      </trkpt>
      <trkpt lat="42.6885770" lon="-0.5172160">
        <ele>1315.6</ele>
        <time>2023-01-14T10:24:09Z</time>
      </trkpt>
      <trkpt lat="42.6886540" lon="-0.5172120">
        <ele>1316.0</ele>
        <time>2023-01-14T10:24:10Z</time>
      </trkpt>
      <trkpt lat="42.6886900" lon="-0.5172080">
        <ele>1316.4</ele>
        <time>2023-01-14T10:24:11Z</time>
      </trkpt>
      <trkpt lat="42.6887270" lon="-0.5172040">
        <ele>1317.0</ele>
        <time>2023-01-14T10:24:12Z</time>
      </trkpt>
      <trkpt lat="42.6887650" lon="-0.5172010">
        <ele>1317.2</ele>
        <time>2023-01-14T10:24:13Z</time>
      </trkpt>
      <trkpt lat="42.6887840" lon="-0.5171990">
        <ele>1317.4</ele>
        <time>2023-01-14T10:24:14Z</time>
      </trkpt>
      <trkpt lat="42.6888030" lon="-0.5171970">
        <ele>1317.6</ele>
        <time>2023-01-14T10:24:15Z</time>
      </trkpt>
      <trkpt lat="42.6888400" lon="-0.5171890">
        <ele>1318.2</ele>
        <time>2023-01-14T10:24:16Z</time>
      </trkpt>
      <trkpt lat="42.6889030" lon="-0.5171450">
        <ele>1318.6</ele>
        <time>2023-01-14T10:24:17Z</time>
      </trkpt>
      <trkpt lat="42.6889030" lon="-0.5171450">
        <ele>1318.8</ele>
        <time>2023-01-14T10:24:18Z</time>
      </trkpt>
      <trkpt lat="42.6889280" lon="-0.5171150">
        <ele>1319.0</ele>
        <time>2023-01-14T10:24:19Z</time>
      </trkpt>
      <trkpt lat="42.6889490" lon="-0.5170790">
        <ele>1319.2</ele>
        <time>2023-01-14T10:24:20Z</time>
      </trkpt>
      <trkpt lat="42.6889670" lon="-0.5170410">
        <ele>1319.4</ele>
        <time>2023-01-14T10:24:21Z</time>
      </trkpt>
      <trkpt lat="42.6889820" lon="-0.5170000">
        <ele>1319.4</ele>
        <time>2023-01-14T10:24:22Z</time>
      </trkpt>
      <trkpt lat="42.6889920" lon="-0.5169560">
        <ele>1319.8</ele>
        <time>2023-01-14T10:24:23Z</time>
      </trkpt>
      <trkpt lat="42.6889960" lon="-0.5169080">
        <ele>1320.2</ele>
        <time>2023-01-14T10:24:24Z</time>
      </trkpt>
      <trkpt lat="42.6889940" lon="-0.5168580">
        <ele>1320.4</ele>
        <time>2023-01-14T10:24:25Z</time>
      </trkpt>
      <trkpt lat="42.6889910" lon="-0.5168100">
        <ele>1320.6</ele>
        <time>2023-01-14T10:24:26Z</time>
      </trkpt>
      <trkpt lat="42.6889880" lon="-0.5167600">
        <ele>1320.8</ele>
        <time>2023-01-14T10:24:27Z</time>
      </trkpt>
      <trkpt lat="42.6889840" lon="-0.5167100">
        <ele>1321.0</ele>
        <time>2023-01-14T10:24:28Z</time>
      </trkpt>
      <trkpt lat="42.6889850" lon="-0.5166610">
        <ele>1321.2</ele>
        <time>2023-01-14T10:24:29Z</time>
      </trkpt>
      <trkpt lat="42.6889940" lon="-0.5166170">
        <ele>1321.4</ele>
        <time>2023-01-14T10:24:30Z</time>
      </trkpt>
      <trkpt lat="42.6890150" lon="-0.5165820">
        <ele>1321.4</ele>
        <time>2023-01-14T10:24:31Z</time>
      </trkpt>
      <trkpt lat="42.6890400" lon="-0.5165550">
        <ele>1321.6</ele>
        <time>2023-01-14T10:24:32Z</time>
      </trkpt>
      <trkpt lat="42.6890920" lon="-0.5164950">
        <ele>1322.0</ele>
        <time>2023-01-14T10:24:33Z</time>
      </trkpt>
      <trkpt lat="42.6890920" lon="-0.5164950">
        <ele>1322.4</ele>
        <time>2023-01-14T10:24:34Z</time>
      </trkpt>
      <trkpt lat="42.6891160" lon="-0.5164640">
        <ele>1322.8</ele>
        <time>2023-01-14T10:24:35Z</time>
      </trkpt>
      <trkpt lat="42.6891630" lon="-0.5164110">
        <ele>1323.2</ele>
        <time>2023-01-14T10:24:36Z</time>
      </trkpt>
      <trkpt lat="42.6891630" lon="-0.5164110">
        <ele>1323.4</ele>
        <time>2023-01-14T10:24:37Z</time>
      </trkpt>
      <trkpt lat="42.6891820" lon="-0.5163890">
        <ele>1323.6</ele>
        <time>2023-01-14T10:24:38Z</time>
      </trkpt>
      <trkpt lat="42.6892040" lon="-0.5163640">
        <ele>1323.8</ele>
        <time>2023-01-14T10:24:39Z</time>
      </trkpt>
      <trkpt lat="42.6892250" lon="-0.5163380">
        <ele>1324.0</ele>
        <time>2023-01-14T10:24:40Z</time>
      </trkpt>
      <trkpt lat="42.6892500" lon="-0.5163120">
        <ele>1324.6</ele>
        <time>2023-01-14T10:24:41Z</time>
      </trkpt>
      <trkpt lat="42.6893000" lon="-0.5162560">
        <ele>1325.0</ele>
        <time>2023-01-14T10:24:42Z</time>
      </trkpt>
      <trkpt lat="42.6893000" lon="-0.5162560">
        <ele>1325.2</ele>
        <time>2023-01-14T10:24:43Z</time>
      </trkpt>
      <trkpt lat="42.6893250" lon="-0.5162270">
        <ele>1325.4</ele>
        <time>2023-01-14T10:24:44Z</time>
      </trkpt>
      <trkpt lat="42.6893670" lon="-0.5161700">
        <ele>1326.0</ele>
        <time>2023-01-14T10:24:45Z</time>
      </trkpt>
      <trkpt lat="42.6893840" lon="-0.5161420">
        <ele>1326.4</ele>
        <time>2023-01-14T10:24:46Z</time>
      </trkpt>
      <trkpt lat="42.6894010" lon="-0.5161140">
        <ele>1326.8</ele>
        <time>2023-01-14T10:24:47Z</time>
      </trkpt>
      <trkpt lat="42.6894170" lon="-0.5160890">
        <ele>1327.2</ele>
        <time>2023-01-14T10:24:48Z</time>
      </trkpt>
      <trkpt lat="42.6894170" lon="-0.5160890">
        <ele>1327.6</ele>
        <time>2023-01-14T10:24:49Z</time>
      </trkpt>
      <trkpt lat="42.6894360" lon="-0.5160690">
        <ele>1328.0</ele>
        <time>2023-01-14T10:24:50Z</time>
      </trkpt>
      <trkpt lat="42.6894520" lon="-0.5160510">
        <ele>1328.0</ele>
        <time>2023-01-14T10:24:51Z</time>
      </trkpt>
      <trkpt lat="42.6894670" lon="-0.5160330">
        <ele>1328.6</ele>
        <time>2023-01-14T10:24:52Z</time>
      </trkpt>
      <trkpt lat="42.6894780" lon="-0.5160100">
        <ele>1329.0</ele>
        <time>2023-01-14T10:24:53Z</time>
      </trkpt>
      <trkpt lat="42.6894990" lon="-0.5159830">
        <ele>1329.6</ele>
        <time>2023-01-14T10:24:54Z</time>
      </trkpt>
      <trkpt lat="42.6895200" lon="-0.5159550">
        <ele>1329.8</ele>
        <time>2023-01-14T10:24:55Z</time>
      </trkpt>
      <trkpt lat="42.6895450" lon="-0.5159280">
        <ele>1330.6</ele>
        <time>2023-01-14T10:24:56Z</time>
      </trkpt>
      <trkpt lat="42.6895610" lon="-0.5158990">
        <ele>1331.2</ele>
        <time>2023-01-14T10:24:57Z</time>
      </trkpt>
      <trkpt lat="42.6895760" lon="-0.5158730">
        <ele>1332.0</ele>
        <time>2023-01-14T10:24:58Z</time>
      </trkpt>
      <trkpt lat="42.6895960" lon="-0.5158470">
        <ele>1332.6</ele>
        <time>2023-01-14T10:24:59Z</time>
      </trkpt>
      <trkpt lat="42.6896070" lon="-0.5158250">
        <ele>1333.0</ele>
        <time>2023-01-14T10:25:00Z</time>
      </trkpt>
      <trkpt lat="42.6896170" lon="-0.5158050">
        <ele>1333.6</ele>
        <time>2023-01-14T10:25:01Z</time>
      </trkpt>
      <trkpt lat="42.6896350" lon="-0.5157760">
        <ele>1334.0</ele>
        <time>2023-01-14T10:25:02Z</time>
      </trkpt>
      <trkpt lat="42.6896350" lon="-0.5157760">
        <ele>1334.8</ele>
        <time>2023-01-14T10:25:03Z</time>
      </trkpt>
      <trkpt lat="42.6896420" lon="-0.5157590">
        <ele>1335.2</ele>
        <time>2023-01-14T10:25:04Z</time>
      </trkpt>
      <trkpt lat="42.6896540" lon="-0.5157500">
        <ele>1335.4</ele>
        <time>2023-01-14T10:25:05Z</time>
      </trkpt>
      <trkpt lat="42.6896710" lon="-0.5157460">
        <ele>1335.8</ele>
        <time>2023-01-14T10:25:06Z</time>
      </trkpt>
      <trkpt lat="42.6896960" lon="-0.5157390">
        <ele>1336.0</ele>
        <time>2023-01-14T10:25:07Z</time>
      </trkpt>
      <trkpt lat="42.6897120" lon="-0.5157320">
        <ele>1336.8</ele>
        <time>2023-01-14T10:25:08Z</time>
      </trkpt>
      <trkpt lat="42.6897460" lon="-0.5157100">
        <ele>1337.0</ele>
        <time>2023-01-14T10:25:09Z</time>
      </trkpt>
      <trkpt lat="42.6897830" lon="-0.5156920">
        <ele>1337.4</ele>
        <time>2023-01-14T10:25:10Z</time>
      </trkpt>
      <trkpt lat="42.6898230" lon="-0.5156710">
        <ele>1337.6</ele>
        <time>2023-01-14T10:25:11Z</time>
      </trkpt>
      <trkpt lat="42.6898520" lon="-0.5156540">
        <ele>1337.8</ele>
        <time>2023-01-14T10:25:12Z</time>
      </trkpt>
      <trkpt lat="42.6898880" lon="-0.5156340">
        <ele>1338.2</ele>
        <time>2023-01-14T10:25:13Z</time>
      </trkpt>
      <trkpt lat="42.6899240" lon="-0.5156180">
        <ele>1338.4</ele>
        <time>2023-01-14T10:25:14Z</time>
      </trkpt>
      <trkpt lat="42.6899490" lon="-0.5155990">
        <ele>1339.0</ele>
        <time>2023-01-14T10:25:15Z</time>
      </trkpt>
      <trkpt lat="42.6899710" lon="-0.5155820">
        <ele>1339.2</ele>
        <time>2023-01-14T10:25:16Z</time>
      </trkpt>
      <trkpt lat="42.6900210" lon="-0.5155120">
        <ele>1339.4</ele>
        <time>2023-01-14T10:25:17Z</time>
      </trkpt>
      <trkpt lat="42.6900340" lon="-0.5154940">
        <ele>1339.8</ele>
        <time>2023-01-14T10:25:18Z</time>
      </trkpt>
      <trkpt lat="42.6900470" lon="-0.5154770">
        <ele>1340.2</ele>
        <time>2023-01-14T10:25:19Z</time>
      </trkpt>
      <trkpt lat="42.6900670" lon="-0.5154430">
        <ele>1340.8</ele>
        <time>2023-01-14T10:25:20Z</time>
      </trkpt>
      <trkpt lat="42.6900920" lon="-0.5154150">
        <ele>1341.4</ele>
        <time>2023-01-14T10:25:21Z</time>
      </trkpt>
      <trkpt lat="42.6901170" lon="-0.5153910">
        <ele>1342.0</ele>
        <time>2023-01-14T10:25:22Z</time>
      </trkpt>
      <trkpt lat="42.6901500" lon="-0.5153660">
        <ele>1342.4</ele>
        <time>2023-01-14T10:25:23Z</time>
      </trkpt>
      <trkpt lat="42.6901780" lon="-0.5153450">
        <ele>1342.8</ele>
        <time>2023-01-14T10:25:24Z</time>
      </trkpt>
      <trkpt lat="42.6902130" lon="-0.5153190">
        <ele>1343.0</ele>
        <time>2023-01-14T10:25:25Z</time>
      </trkpt>
      <trkpt lat="42.6902440" lon="-0.5152910">
        <ele>1343.4</ele>
        <time>2023-01-14T10:25:26Z</time>
      </trkpt>
      <trkpt lat="42.6902670" lon="-0.5152740">
        <ele>1343.4</ele>
        <time>2023-01-14T10:25:27Z</time>
      </trkpt>
      <trkpt lat="42.6902940" lon="-0.5152640">
        <ele>1343.8</ele>
        <time>2023-01-14T10:25:28Z</time>
      </trkpt>
      <trkpt lat="42.6903320" lon="-0.5152510">
        <ele>1344.2</ele>
        <time>2023-01-14T10:25:29Z</time>
      </trkpt>
      <trkpt lat="42.6903640" lon="-0.5152470">
        <ele>1344.4</ele>
        <time>2023-01-14T10:25:30Z</time>
      </trkpt>
      <trkpt lat="42.6903960" lon="-0.5152430">
        <ele>1344.8</ele>
        <time>2023-01-14T10:25:31Z</time>
      </trkpt>
      <trkpt lat="42.6903960" lon="-0.5152430">
        <ele>1345.4</ele>
        <time>2023-01-14T10:25:32Z</time>
      </trkpt>
      <trkpt lat="42.6904250" lon="-0.5152450">
        <ele>1346.0</ele>
        <time>2023-01-14T10:25:33Z</time>
      </trkpt>
      <trkpt lat="42.6904520" lon="-0.5152410">
        <ele>1346.4</ele>
        <time>2023-01-14T10:25:34Z</time>
      </trkpt>
      <trkpt lat="42.6904780" lon="-0.5152300">
        <ele>1346.8</ele>
        <time>2023-01-14T10:25:35Z</time>
      </trkpt>
      <trkpt lat="42.6905150" lon="-0.5152180">
        <ele>1347.6</ele>
        <time>2023-01-14T10:25:36Z</time>
      </trkpt>
      <trkpt lat="42.6905520" lon="-0.5152010">
        <ele>1348.0</ele>
        <time>2023-01-14T10:25:37Z</time>
      </trkpt>
      <trkpt lat="42.6905820" lon="-0.5151790">
        <ele>1348.6</ele>
        <time>2023-01-14T10:25:38Z</time>
      </trkpt>
      <trkpt lat="42.6906070" lon="-0.5151560">
        <ele>1349.0</ele>
        <time>2023-01-14T10:25:39Z</time>
      </trkpt>
      <trkpt lat="42.6906290" lon="-0.5151240">
        <ele>1349.4</ele>
        <time>2023-01-14T10:25:40Z</time>
      </trkpt>
      <trkpt lat="42.6906450" lon="-0.5150970">
        <ele>1349.6</ele>
        <time>2023-01-14T10:25:41Z</time>
      </trkpt>
      <trkpt lat="42.6906590" lon="-0.5150690">
        <ele>1349.8</ele>
        <time>2023-01-14T10:25:42Z</time>
      </trkpt>
      <trkpt lat="42.6906810" lon="-0.5150470">
        <ele>1350.2</ele>
        <time>2023-01-14T10:25:43Z</time>
      </trkpt>
      <trkpt lat="42.6907080" lon="-0.5150230">
        <ele>1350.8</ele>
        <time>2023-01-14T10:25:44Z</time>
      </trkpt>
      <trkpt lat="42.6907250" lon="-0.5150140">
        <ele>1351.4</ele>
        <time>2023-01-14T10:25:45Z</time>
      </trkpt>
      <trkpt lat="42.6907430" lon="-0.5150090">
        <ele>1352.0</ele>
        <time>2023-01-14T10:25:46Z</time>
      </trkpt>
      <trkpt lat="42.6907770" lon="-0.5149890">
        <ele>1352.2</ele>
        <time>2023-01-14T10:25:47Z</time>
      </trkpt>
      <trkpt lat="42.6908080" lon="-0.5149760">
        <ele>1352.4</ele>
        <time>2023-01-14T10:25:48Z</time>
      </trkpt>
      <trkpt lat="42.6908290" lon="-0.5149650">
        <ele>1353.0</ele>
        <time>2023-01-14T10:25:49Z</time>
      </trkpt>
      <trkpt lat="42.6908480" lon="-0.5149450">
        <ele>1353.8</ele>
        <time>2023-01-14T10:25:50Z</time>
      </trkpt>
      <trkpt lat="42.6908650" lon="-0.5149220">
        <ele>1354.6</ele>
        <time>2023-01-14T10:25:51Z</time>
      </trkpt>
      <trkpt lat="42.6908810" lon="-0.5149110">
        <ele>1355.2</ele>
        <time>2023-01-14T10:25:52Z</time>
      </trkpt>
      <trkpt lat="42.6908990" lon="-0.5149040">
        <ele>1355.8</ele>
        <time>2023-01-14T10:25:53Z</time>
      </trkpt>
      <trkpt lat="42.6909420" lon="-0.5148890">
        <ele>1357.0</ele>
        <time>2023-01-14T10:25:54Z</time>
      </trkpt>
      <trkpt lat="42.6909420" lon="-0.5148890">
        <ele>1357.6</ele>
        <time>2023-01-14T10:25:55Z</time>
      </trkpt>
      <trkpt lat="42.6909590" lon="-0.5148700">
        <ele>1358.2</ele>
        <time>2023-01-14T10:25:56Z</time>
      </trkpt>
      <trkpt lat="42.6909690" lon="-0.5148070">
        <ele>1358.6</ele>
        <time>2023-01-14T10:25:57Z</time>
      </trkpt>
      <trkpt lat="42.6909690" lon="-0.5148070">
        <ele>1359.2</ele>
        <time>2023-01-14T10:25:58Z</time>
      </trkpt>
      <trkpt lat="42.6909680" lon="-0.5147700">
        <ele>1359.4</ele>
        <time>2023-01-14T10:25:59Z</time>
      </trkpt>
      <trkpt lat="42.6909750" lon="-0.5146830">
        <ele>1359.6</ele>
        <time>2023-01-14T10:26:00Z</time>
      </trkpt>
      <trkpt lat="42.6909860" lon="-0.5146390">
        <ele>1360.0</ele>
        <time>2023-01-14T10:26:01Z</time>
      </trkpt>
      <trkpt lat="42.6909940" lon="-0.5145960">
        <ele>1360.2</ele>
        <time>2023-01-14T10:26:02Z</time>
      </trkpt>
      <trkpt lat="42.6909940" lon="-0.5145960">
        <ele>1361.0</ele>
        <time>2023-01-14T10:26:03Z</time>
      </trkpt>
      <trkpt lat="42.6910060" lon="-0.5145530">
        <ele>1361.4</ele>
        <time>2023-01-14T10:26:04Z</time>
      </trkpt>
      <trkpt lat="42.6910190" lon="-0.5145100">
        <ele>1361.8</ele>
        <time>2023-01-14T10:26:05Z</time>
      </trkpt>
      <trkpt lat="42.6910420" lon="-0.5144180">
        <ele>1362.0</ele>
        <time>2023-01-14T10:26:06Z</time>
      </trkpt>
      <trkpt lat="42.6910510" lon="-0.5143700">
        <ele>1362.2</ele>
        <time>2023-01-14T10:26:07Z</time>
      </trkpt>
      <trkpt lat="42.6910530" lon="-0.5143450">
        <ele>1362.2</ele>
        <time>2023-01-14T10:26:08Z</time>
      </trkpt>
      <trkpt lat="42.6910560" lon="-0.5143190">
        <ele>1362.6</ele>
        <time>2023-01-14T10:26:09Z</time>
      </trkpt>
      <trkpt lat="42.6910600" lon="-0.5142680">
        <ele>1362.8</ele>
        <time>2023-01-14T10:26:10Z</time>
      </trkpt>
      <trkpt lat="42.6910660" lon="-0.5142220">
        <ele>1363.0</ele>
        <time>2023-01-14T10:26:11Z</time>
      </trkpt>
      <trkpt lat="42.6910680" lon="-0.5141760">
        <ele>1363.2</ele>
        <time>2023-01-14T10:26:12Z</time>
      </trkpt>
      <trkpt lat="42.6910730" lon="-0.5140930">
        <ele>1363.4</ele>
        <time>2023-01-14T10:26:13Z</time>
      </trkpt>
      <trkpt lat="42.6910730" lon="-0.5140930">
        <ele>1363.6</ele>
        <time>2023-01-14T10:26:14Z</time>
      </trkpt>
      <trkpt lat="42.6910800" lon="-0.5140510">
        <ele>1364.0</ele>
        <time>2023-01-14T10:26:15Z</time>
      </trkpt>
      <trkpt lat="42.6910890" lon="-0.5140020">
        <ele>1364.6</ele>
        <time>2023-01-14T10:26:16Z</time>
      </trkpt>
      <trkpt lat="42.6911000" lon="-0.5139530">
        <ele>1364.8</ele>
        <time>2023-01-14T10:26:17Z</time>
      </trkpt>
      <trkpt lat="42.6910990" lon="-0.5139040">
        <ele>1365.2</ele>
        <time>2023-01-14T10:26:18Z</time>
      </trkpt>
      <trkpt lat="42.6911020" lon="-0.5138540">
        <ele>1366.0</ele>
        <time>2023-01-14T10:26:19Z</time>
      </trkpt>
      <trkpt lat="42.6911120" lon="-0.5138080">
        <ele>1366.4</ele>
        <time>2023-01-14T10:26:20Z</time>
      </trkpt>
      <trkpt lat="42.6911260" lon="-0.5137630">
        <ele>1367.0</ele>
        <time>2023-01-14T10:26:21Z</time>
      </trkpt>
      <trkpt lat="42.6911420" lon="-0.5137160">
        <ele>1367.4</ele>
        <time>2023-01-14T10:26:22Z</time>
      </trkpt>
      <trkpt lat="42.6911570" lon="-0.5136670">
        <ele>1367.8</ele>
        <time>2023-01-14T10:26:23Z</time>
      </trkpt>
      <trkpt lat="42.6911790" lon="-0.5136200">
        <ele>1368.2</ele>
        <time>2023-01-14T10:26:24Z</time>
      </trkpt>
      <trkpt lat="42.6911980" lon="-0.5135670">
        <ele>1368.4</ele>
        <time>2023-01-14T10:26:25Z</time>
      </trkpt>
      <trkpt lat="42.6912190" lon="-0.5135200">
        <ele>1369.2</ele>
        <time>2023-01-14T10:26:26Z</time>
      </trkpt>
      <trkpt lat="42.6912410" lon="-0.5134730">
        <ele>1369.6</ele>
        <time>2023-01-14T10:26:27Z</time>
      </trkpt>
      <trkpt lat="42.6912680" lon="-0.5134300">
        <ele>1369.8</ele>
        <time>2023-01-14T10:26:28Z</time>
      </trkpt>
      <trkpt lat="42.6912920" lon="-0.5133890">
        <ele>1370.0</ele>
        <time>2023-01-14T10:26:29Z</time>
      </trkpt>
      <trkpt lat="42.6913140" lon="-0.5133480">
        <ele>1370.2</ele>
        <time>2023-01-14T10:26:30Z</time>
      </trkpt>
      <trkpt lat="42.6913370" lon="-0.5133060">
        <ele>1370.4</ele>
        <time>2023-01-14T10:26:31Z</time>
      </trkpt>
      <trkpt lat="42.6913590" lon="-0.5132600">
        <ele>1370.4</ele>
        <time>2023-01-14T10:26:32Z</time>
      </trkpt>
      <trkpt lat="42.6913790" lon="-0.5132100">
        <ele>1370.4</ele>
        <time>2023-01-14T10:26:33Z</time>
      </trkpt>
      <trkpt lat="42.6913970" lon="-0.5131600">
        <ele>1370.6</ele>
        <time>2023-01-14T10:26:34Z</time>
      </trkpt>
      <trkpt lat="42.6914130" lon="-0.5131130">
        <ele>1370.6</ele>
        <time>2023-01-14T10:26:35Z</time>
      </trkpt>
      <trkpt lat="42.6914270" lon="-0.5130650">
        <ele>1370.6</ele>
        <time>2023-01-14T10:26:36Z</time>
      </trkpt>
      <trkpt lat="42.6914390" lon="-0.5130170">
        <ele>1371.0</ele>
        <time>2023-01-14T10:26:37Z</time>
      </trkpt>
      <trkpt lat="42.6914500" lon="-0.5129680">
        <ele>1371.2</ele>
        <time>2023-01-14T10:26:38Z</time>
      </trkpt>
      <trkpt lat="42.6914580" lon="-0.5129180">
        <ele>1371.4</ele>
        <time>2023-01-14T10:26:39Z</time>
      </trkpt>
      <trkpt lat="42.6914620" lon="-0.5128670">
        <ele>1371.8</ele>
        <time>2023-01-14T10:26:40Z</time>
      </trkpt>
      <trkpt lat="42.6914620" lon="-0.5128130">
        <ele>1372.2</ele>
        <time>2023-01-14T10:26:41Z</time>
      </trkpt>
      <trkpt lat="42.6914650" lon="-0.5127600">
        <ele>1372.4</ele>
        <time>2023-01-14T10:26:42Z</time>
      </trkpt>
      <trkpt lat="42.6914680" lon="-0.5127050">
        <ele>1372.6</ele>
        <time>2023-01-14T10:26:43Z</time>
      </trkpt>
      <trkpt lat="42.6914670" lon="-0.5126500">
        <ele>1373.0</ele>
        <time>2023-01-14T10:26:44Z</time>
      </trkpt>
      <trkpt lat="42.6914580" lon="-0.5125410">
        <ele>1373.4</ele>
        <time>2023-01-14T10:26:45Z</time>
      </trkpt>
      <trkpt lat="42.6914560" lon="-0.5125140">
        <ele>1373.6</ele>
        <time>2023-01-14T10:26:46Z</time>
      </trkpt>
      <trkpt lat="42.6914540" lon="-0.5124870">
        <ele>1373.8</ele>
        <time>2023-01-14T10:26:47Z</time>
      </trkpt>
      <trkpt lat="42.6914480" lon="-0.5124330">
        <ele>1374.2</ele>
        <time>2023-01-14T10:26:48Z</time>
      </trkpt>
      <trkpt lat="42.6914290" lon="-0.5123280">
        <ele>1374.6</ele>
        <time>2023-01-14T10:26:49Z</time>
      </trkpt>
      <trkpt lat="42.6914260" lon="-0.5123040">
        <ele>1374.6</ele>
        <time>2023-01-14T10:26:50Z</time>
      </trkpt>
      <trkpt lat="42.6914220" lon="-0.5122800">
        <ele>1374.8</ele>
        <time>2023-01-14T10:26:51Z</time>
      </trkpt>
      <trkpt lat="42.6914160" lon="-0.5122330">
        <ele>1375.6</ele>
        <time>2023-01-14T10:26:52Z</time>
      </trkpt>
      <trkpt lat="42.6914090" lon="-0.5121860">
        <ele>1376.0</ele>
        <time>2023-01-14T10:26:53Z</time>
      </trkpt>
      <trkpt lat="42.6914030" lon="-0.5121370">
        <ele>1376.6</ele>
        <time>2023-01-14T10:26:54Z</time>
      </trkpt>
      <trkpt lat="42.6913920" lon="-0.5120890">
        <ele>1377.0</ele>
        <time>2023-01-14T10:26:55Z</time>
      </trkpt>
      <trkpt lat="42.6913870" lon="-0.5120460">
        <ele>1377.4</ele>
        <time>2023-01-14T10:26:56Z</time>
      </trkpt>
      <trkpt lat="42.6913900" lon="-0.5119610">
        <ele>1377.8</ele>
        <time>2023-01-14T10:26:57Z</time>
      </trkpt>
      <trkpt lat="42.6913940" lon="-0.5119370">
        <ele>1378.0</ele>
        <time>2023-01-14T10:26:58Z</time>
      </trkpt>
      <trkpt lat="42.6913980" lon="-0.5119130">
        <ele>1378.0</ele>
        <time>2023-01-14T10:26:59Z</time>
      </trkpt>
      <trkpt lat="42.6914100" lon="-0.5118650">
        <ele>1378.0</ele>
        <time>2023-01-14T10:27:00Z</time>
      </trkpt>
      <trkpt lat="42.6914190" lon="-0.5118190">
        <ele>1378.2</ele>
        <time>2023-01-14T10:27:01Z</time>
      </trkpt>
      <trkpt lat="42.6914330" lon="-0.5117730">
        <ele>1378.4</ele>
        <time>2023-01-14T10:27:02Z</time>
      </trkpt>
      <trkpt lat="42.6914490" lon="-0.5117270">
        <ele>1378.6</ele>
        <time>2023-01-14T10:27:03Z</time>
      </trkpt>
      <trkpt lat="42.6914650" lon="-0.5116810">
        <ele>1378.6</ele>
        <time>2023-01-14T10:27:04Z</time>
      </trkpt>
      <trkpt lat="42.6914840" lon="-0.5116340">
        <ele>1378.8</ele>
        <time>2023-01-14T10:27:05Z</time>
      </trkpt>
      <trkpt lat="42.6915020" lon="-0.5115870">
        <ele>1378.8</ele>
        <time>2023-01-14T10:27:06Z</time>
      </trkpt>
      <trkpt lat="42.6915210" lon="-0.5115400">
        <ele>1378.8</ele>
        <time>2023-01-14T10:27:07Z</time>
      </trkpt>
      <trkpt lat="42.6915390" lon="-0.5114930">
        <ele>1378.8</ele>
        <time>2023-01-14T10:27:08Z</time>
      </trkpt>
      <trkpt lat="42.6915550" lon="-0.5114460">
        <ele>1379.2</ele>
        <time>2023-01-14T10:27:09Z</time>
      </trkpt>
      <trkpt lat="42.6915710" lon="-0.5113980">
        <ele>1379.6</ele>
        <time>2023-01-14T10:27:10Z</time>
      </trkpt>
      <trkpt lat="42.6915800" lon="-0.5113500">
        <ele>1380.0</ele>
        <time>2023-01-14T10:27:11Z</time>
      </trkpt>
      <trkpt lat="42.6916050" lon="-0.5112560">
        <ele>1380.2</ele>
        <time>2023-01-14T10:27:12Z</time>
      </trkpt>
      <trkpt lat="42.6916130" lon="-0.5112330">
        <ele>1380.4</ele>
        <time>2023-01-14T10:27:13Z</time>
      </trkpt>
      <trkpt lat="42.6916200" lon="-0.5112110">
        <ele>1380.6</ele>
        <time>2023-01-14T10:27:14Z</time>
      </trkpt>
      <trkpt lat="42.6916370" lon="-0.5111670">
        <ele>1380.8</ele>
        <time>2023-01-14T10:27:15Z</time>
      </trkpt>
      <trkpt lat="42.6916570" lon="-0.5111240">
        <ele>1380.8</ele>
        <time>2023-01-14T10:27:16Z</time>
      </trkpt>
      <trkpt lat="42.6916790" lon="-0.5110820">
        <ele>1381.0</ele>
        <time>2023-01-14T10:27:17Z</time>
      </trkpt>
      <trkpt lat="42.6917210" lon="-0.5110060">
        <ele>1381.2</ele>
        <time>2023-01-14T10:27:18Z</time>
      </trkpt>
      <trkpt lat="42.6917210" lon="-0.5110060">
        <ele>1381.2</ele>
        <time>2023-01-14T10:27:19Z</time>
      </trkpt>
      <trkpt lat="42.6917440" lon="-0.5109720">
        <ele>1381.2</ele>
        <time>2023-01-14T10:27:20Z</time>
      </trkpt>
      <trkpt lat="42.6917680" lon="-0.5109400">
        <ele>1381.4</ele>
        <time>2023-01-14T10:27:21Z</time>
      </trkpt>
      <trkpt lat="42.6917890" lon="-0.5109020">
        <ele>1381.2</ele>
        <time>2023-01-14T10:27:22Z</time>
      </trkpt>
      <trkpt lat="42.6918130" lon="-0.5108570">
        <ele>1381.2</ele>
        <time>2023-01-14T10:27:23Z</time>
      </trkpt>
      <trkpt lat="42.6918420" lon="-0.5108110">
        <ele>1381.4</ele>
        <time>2023-01-14T10:27:24Z</time>
      </trkpt>
      <trkpt lat="42.6918720" lon="-0.5107680">
        <ele>1381.4</ele>
        <time>2023-01-14T10:27:25Z</time>
      </trkpt>
      <trkpt lat="42.6918970" lon="-0.5107230">
        <ele>1381.6</ele>
        <time>2023-01-14T10:27:26Z</time>
      </trkpt>
      <trkpt lat="42.6919220" lon="-0.5106770">
        <ele>1381.6</ele>
        <time>2023-01-14T10:27:27Z</time>
      </trkpt>
      <trkpt lat="42.6919440" lon="-0.5106340">
        <ele>1381.6</ele>
        <time>2023-01-14T10:27:28Z</time>
      </trkpt>
      <trkpt lat="42.6919650" lon="-0.5105930">
        <ele>1381.8</ele>
        <time>2023-01-14T10:27:29Z</time>
      </trkpt>
      <trkpt lat="42.6919850" lon="-0.5105520">
        <ele>1382.0</ele>
        <time>2023-01-14T10:27:30Z</time>
      </trkpt>
      <trkpt lat="42.6920070" lon="-0.5105110">
        <ele>1382.0</ele>
        <time>2023-01-14T10:27:31Z</time>
      </trkpt>
      <trkpt lat="42.6920290" lon="-0.5104670">
        <ele>1382.4</ele>
        <time>2023-01-14T10:27:32Z</time>
      </trkpt>
      <trkpt lat="42.6920510" lon="-0.5104280">
        <ele>1382.6</ele>
        <time>2023-01-14T10:27:33Z</time>
      </trkpt>
      <trkpt lat="42.6920660" lon="-0.5103890">
        <ele>1382.8</ele>
        <time>2023-01-14T10:27:34Z</time>
      </trkpt>
      <trkpt lat="42.6920800" lon="-0.5103530">
        <ele>1383.0</ele>
        <time>2023-01-14T10:27:35Z</time>
      </trkpt>
      <trkpt lat="42.6921000" lon="-0.5103170">
        <ele>1383.2</ele>
        <time>2023-01-14T10:27:36Z</time>
      </trkpt>
      <trkpt lat="42.6921190" lon="-0.5102790">
        <ele>1383.2</ele>
        <time>2023-01-14T10:27:37Z</time>
      </trkpt>
      <trkpt lat="42.6921300" lon="-0.5102380">
        <ele>1383.6</ele>
        <time>2023-01-14T10:27:38Z</time>
      </trkpt>
      <trkpt lat="42.6921420" lon="-0.5101960">
        <ele>1383.8</ele>
        <time>2023-01-14T10:27:39Z</time>
      </trkpt>
      <trkpt lat="42.6921570" lon="-0.5101540">
        <ele>1384.2</ele>
        <time>2023-01-14T10:27:40Z</time>
      </trkpt>
      <trkpt lat="42.6921660" lon="-0.5101090">
        <ele>1384.6</ele>
        <time>2023-01-14T10:27:41Z</time>
      </trkpt>
      <trkpt lat="42.6921730" lon="-0.5100660">
        <ele>1385.0</ele>
        <time>2023-01-14T10:27:42Z</time>
      </trkpt>
      <trkpt lat="42.6921870" lon="-0.5099880">
        <ele>1385.2</ele>
        <time>2023-01-14T10:27:43Z</time>
      </trkpt>
      <trkpt lat="42.6921900" lon="-0.5099470">
        <ele>1385.4</ele>
        <time>2023-01-14T10:27:44Z</time>
      </trkpt>
      <trkpt lat="42.6921900" lon="-0.5099470">
        <ele>1385.6</ele>
        <time>2023-01-14T10:27:45Z</time>
      </trkpt>
      <trkpt lat="42.6921960" lon="-0.5099090">
        <ele>1385.8</ele>
        <time>2023-01-14T10:27:46Z</time>
      </trkpt>
      <trkpt lat="42.6922050" lon="-0.5098680">
        <ele>1386.0</ele>
        <time>2023-01-14T10:27:47Z</time>
      </trkpt>
      <trkpt lat="42.6922090" lon="-0.5098230">
        <ele>1386.2</ele>
        <time>2023-01-14T10:27:48Z</time>
      </trkpt>
      <trkpt lat="42.6922090" lon="-0.5097770">
        <ele>1386.4</ele>
        <time>2023-01-14T10:27:49Z</time>
      </trkpt>
      <trkpt lat="42.6922050" lon="-0.5097280">
        <ele>1386.6</ele>
        <time>2023-01-14T10:27:50Z</time>
      </trkpt>
      <trkpt lat="42.6921940" lon="-0.5096790">
        <ele>1387.0</ele>
        <time>2023-01-14T10:27:51Z</time>
      </trkpt>
      <trkpt lat="42.6921570" lon="-0.5096000">
        <ele>1387.2</ele>
        <time>2023-01-14T10:27:52Z</time>
      </trkpt>
      <trkpt lat="42.6921420" lon="-0.5095840">
        <ele>1387.4</ele>
        <time>2023-01-14T10:27:53Z</time>
      </trkpt>
      <trkpt lat="42.6921280" lon="-0.5095680">
        <ele>1387.6</ele>
        <time>2023-01-14T10:27:54Z</time>
      </trkpt>
      <trkpt lat="42.6920980" lon="-0.5095470">
        <ele>1387.6</ele>
        <time>2023-01-14T10:27:55Z</time>
      </trkpt>
      <trkpt lat="42.6920670" lon="-0.5095390">
        <ele>1387.8</ele>
        <time>2023-01-14T10:27:56Z</time>
      </trkpt>
      <trkpt lat="42.6920350" lon="-0.5095470">
        <ele>1387.8</ele>
        <time>2023-01-14T10:27:57Z</time>
      </trkpt>
      <trkpt lat="42.6919720" lon="-0.5095840">
        <ele>1388.0</ele>
        <time>2023-01-14T10:27:58Z</time>
      </trkpt>
      <trkpt lat="42.6919550" lon="-0.5095950">
        <ele>1388.0</ele>
        <time>2023-01-14T10:27:59Z</time>
      </trkpt>
      <trkpt lat="42.6919380" lon="-0.5096070">
        <ele>1388.4</ele>
        <time>2023-01-14T10:28:00Z</time>
      </trkpt>
      <trkpt lat="42.6919080" lon="-0.5096260">
        <ele>1389.0</ele>
        <time>2023-01-14T10:28:01Z</time>
      </trkpt>
      <trkpt lat="42.6918760" lon="-0.5096450">
        <ele>1389.8</ele>
        <time>2023-01-14T10:28:02Z</time>
      </trkpt>
      <trkpt lat="42.6918450" lon="-0.5096670">
        <ele>1390.2</ele>
        <time>2023-01-14T10:28:03Z</time>
      </trkpt>
      <trkpt lat="42.6918140" lon="-0.5096840">
        <ele>1390.4</ele>
        <time>2023-01-14T10:28:04Z</time>
      </trkpt>
      <trkpt lat="42.6917800" lon="-0.5096910">
        <ele>1390.8</ele>
        <time>2023-01-14T10:28:05Z</time>
      </trkpt>
      <trkpt lat="42.6917430" lon="-0.5096960">
        <ele>1391.0</ele>
        <time>2023-01-14T10:28:06Z</time>
      </trkpt>
      <trkpt lat="42.6917110" lon="-0.5096960">
        <ele>1392.0</ele>
        <time>2023-01-14T10:28:07Z</time>
      </trkpt>
      <trkpt lat="42.6916830" lon="-0.5096950">
        <ele>1392.6</ele>
        <time>2023-01-14T10:28:08Z</time>
      </trkpt>
      <trkpt lat="42.6916280" lon="-0.5096920">
        <ele>1393.0</ele>
        <time>2023-01-14T10:28:09Z</time>
      </trkpt>
      <trkpt lat="42.6915900" lon="-0.5096880">
        <ele>1393.2</ele>
        <time>2023-01-14T10:28:10Z</time>
      </trkpt>
      <trkpt lat="42.6915520" lon="-0.5096830">
        <ele>1393.6</ele>
        <time>2023-01-14T10:28:11Z</time>
      </trkpt>
      <trkpt lat="42.6915130" lon="-0.5096810">
        <ele>1394.0</ele>
        <time>2023-01-14T10:28:12Z</time>
      </trkpt>
      <trkpt lat="42.6914730" lon="-0.5096750">
        <ele>1394.2</ele>
        <time>2023-01-14T10:28:13Z</time>
      </trkpt>
      <trkpt lat="42.6914350" lon="-0.5096770">
        <ele>1394.4</ele>
        <time>2023-01-14T10:28:14Z</time>
      </trkpt>
      <trkpt lat="42.6913970" lon="-0.5096790">
        <ele>1394.6</ele>
        <time>2023-01-14T10:28:15Z</time>
      </trkpt>
      <trkpt lat="42.6913770" lon="-0.5096860">
        <ele>1395.4</ele>
        <time>2023-01-14T10:28:16Z</time>
      </trkpt>
      <trkpt lat="42.6913570" lon="-0.5096920">
        <ele>1395.8</ele>
        <time>2023-01-14T10:28:17Z</time>
      </trkpt>
      <trkpt lat="42.6913160" lon="-0.5097110">
        <ele>1396.0</ele>
        <time>2023-01-14T10:28:18Z</time>
      </trkpt>
      <trkpt lat="42.6912310" lon="-0.5097450">
        <ele>1396.4</ele>
        <time>2023-01-14T10:28:19Z</time>
      </trkpt>
      <trkpt lat="42.6912110" lon="-0.5097530">
        <ele>1396.8</ele>
        <time>2023-01-14T10:28:20Z</time>
      </trkpt>
      <trkpt lat="42.6911910" lon="-0.5097620">
        <ele>1397.2</ele>
        <time>2023-01-14T10:28:21Z</time>
      </trkpt>
      <trkpt lat="42.6911500" lon="-0.5097770">
        <ele>1397.4</ele>
        <time>2023-01-14T10:28:22Z</time>
      </trkpt>
      <trkpt lat="42.6911100" lon="-0.5097890">
        <ele>1397.6</ele>
        <time>2023-01-14T10:28:23Z</time>
      </trkpt>
      <trkpt lat="42.6910720" lon="-0.5098000">
        <ele>1397.6</ele>
        <time>2023-01-14T10:28:24Z</time>
      </trkpt>
      <trkpt lat="42.6910040" lon="-0.5098230">
        <ele>1397.6</ele>
        <time>2023-01-14T10:28:25Z</time>
      </trkpt>
      <trkpt lat="42.6909710" lon="-0.5098270">
        <ele>1398.0</ele>
        <time>2023-01-14T10:28:26Z</time>
      </trkpt>
      <trkpt lat="42.6909370" lon="-0.5098290">
        <ele>1398.6</ele>
        <time>2023-01-14T10:28:27Z</time>
      </trkpt>
      <trkpt lat="42.6908990" lon="-0.5098370">
        <ele>1398.8</ele>
        <time>2023-01-14T10:28:28Z</time>
      </trkpt>
      <trkpt lat="42.6908570" lon="-0.5098480">
        <ele>1399.2</ele>
        <time>2023-01-14T10:28:29Z</time>
      </trkpt>
      <trkpt lat="42.6908140" lon="-0.5098610">
        <ele>1399.6</ele>
        <time>2023-01-14T10:28:30Z</time>
      </trkpt>
      <trkpt lat="42.6907760" lon="-0.5098740">
        <ele>1400.0</ele>
        <time>2023-01-14T10:28:31Z</time>
      </trkpt>
      <trkpt lat="42.6907370" lon="-0.5098870">
        <ele>1400.2</ele>
        <time>2023-01-14T10:28:32Z</time>
      </trkpt>
      <trkpt lat="42.6907000" lon="-0.5099000">
        <ele>1400.4</ele>
        <time>2023-01-14T10:28:33Z</time>
      </trkpt>
      <trkpt lat="42.6906610" lon="-0.5099100">
        <ele>1400.6</ele>
        <time>2023-01-14T10:28:34Z</time>
      </trkpt>
      <trkpt lat="42.6906200" lon="-0.5099140">
        <ele>1401.0</ele>
        <time>2023-01-14T10:28:35Z</time>
      </trkpt>
      <trkpt lat="42.6905780" lon="-0.5099150">
        <ele>1401.2</ele>
        <time>2023-01-14T10:28:36Z</time>
      </trkpt>
      <trkpt lat="42.6905340" lon="-0.5099170">
        <ele>1401.6</ele>
        <time>2023-01-14T10:28:37Z</time>
      </trkpt>
      <trkpt lat="42.6904860" lon="-0.5099210">
        <ele>1401.8</ele>
        <time>2023-01-14T10:28:38Z</time>
      </trkpt>
      <trkpt lat="42.6904380" lon="-0.5099280">
        <ele>1402.2</ele>
        <time>2023-01-14T10:28:39Z</time>
      </trkpt>
      <trkpt lat="42.6903980" lon="-0.5099310">
        <ele>1402.4</ele>
        <time>2023-01-14T10:28:40Z</time>
      </trkpt>
      <trkpt lat="42.6903630" lon="-0.5099310">
        <ele>1403.2</ele>
        <time>2023-01-14T10:28:41Z</time>
      </trkpt>
      <trkpt lat="42.6903270" lon="-0.5099290">
        <ele>1403.6</ele>
        <time>2023-01-14T10:28:42Z</time>
      </trkpt>
      <trkpt lat="42.6902890" lon="-0.5099310">
        <ele>1403.8</ele>
        <time>2023-01-14T10:28:43Z</time>
      </trkpt>
      <trkpt lat="42.6902590" lon="-0.5099320">
        <ele>1404.0</ele>
        <time>2023-01-14T10:28:44Z</time>
      </trkpt>
      <trkpt lat="42.6902290" lon="-0.5099240">
        <ele>1404.2</ele>
        <time>2023-01-14T10:28:45Z</time>
      </trkpt>
      <trkpt lat="42.6902000" lon="-0.5099190">
        <ele>1404.6</ele>
        <time>2023-01-14T10:28:46Z</time>
      </trkpt>
      <trkpt lat="42.6901660" lon="-0.5099160">
        <ele>1404.8</ele>
        <time>2023-01-14T10:28:47Z</time>
      </trkpt>
      <trkpt lat="42.6901270" lon="-0.5099080">
        <ele>1405.2</ele>
        <time>2023-01-14T10:28:48Z</time>
      </trkpt>
      <trkpt lat="42.6900790" lon="-0.5099030">
        <ele>1405.2</ele>
        <time>2023-01-14T10:28:49Z</time>
      </trkpt>
      <trkpt lat="42.6900210" lon="-0.5098960">
        <ele>1405.4</ele>
        <time>2023-01-14T10:28:50Z</time>
      </trkpt>
      <trkpt lat="42.6899700" lon="-0.5098930">
        <ele>1406.0</ele>
        <time>2023-01-14T10:28:51Z</time>
      </trkpt>
      <trkpt lat="42.6899230" lon="-0.5098900">
        <ele>1406.4</ele>
        <time>2023-01-14T10:28:52Z</time>
      </trkpt>
      <trkpt lat="42.6898760" lon="-0.5098810">
        <ele>1406.6</ele>
        <time>2023-01-14T10:28:53Z</time>
      </trkpt>
      <trkpt lat="42.6898260" lon="-0.5098680">
        <ele>1406.8</ele>
        <time>2023-01-14T10:28:54Z</time>
      </trkpt>
      <trkpt lat="42.6897680" lon="-0.5098620">
        <ele>1407.0</ele>
        <time>2023-01-14T10:28:55Z</time>
      </trkpt>
      <trkpt lat="42.6897180" lon="-0.5098680">
        <ele>1407.4</ele>
        <time>2023-01-14T10:28:56Z</time>
      </trkpt>
      <trkpt lat="42.6896600" lon="-0.5098790">
        <ele>1408.0</ele>
        <time>2023-01-14T10:28:57Z</time>
      </trkpt>
      <trkpt lat="42.6896110" lon="-0.5098870">
        <ele>1408.8</ele>
        <time>2023-01-14T10:28:58Z</time>
      </trkpt>
      <trkpt lat="42.6895570" lon="-0.5098890">
        <ele>1409.0</ele>
        <time>2023-01-14T10:28:59Z</time>
      </trkpt>
      <trkpt lat="42.6895060" lon="-0.5099040">
        <ele>1409.4</ele>
        <time>2023-01-14T10:29:00Z</time>
      </trkpt>
      <trkpt lat="42.6894570" lon="-0.5099150">
        <ele>1409.4</ele>
        <time>2023-01-14T10:29:01Z</time>
      </trkpt>
      <trkpt lat="42.6894070" lon="-0.5099250">
        <ele>1409.6</ele>
        <time>2023-01-14T10:29:02Z</time>
      </trkpt>
      <trkpt lat="42.6893550" lon="-0.5099360">
        <ele>1409.6</ele>
        <time>2023-01-14T10:29:03Z</time>
      </trkpt>
      <trkpt lat="42.6893060" lon="-0.5099410">
        <ele>1410.2</ele>
        <time>2023-01-14T10:29:04Z</time>
      </trkpt>
      <trkpt lat="42.6892620" lon="-0.5099420">
        <ele>1410.4</ele>
        <time>2023-01-14T10:29:05Z</time>
      </trkpt>
      <trkpt lat="42.6892170" lon="-0.5099350">
        <ele>1410.8</ele>
        <time>2023-01-14T10:29:06Z</time>
      </trkpt>
      <trkpt lat="42.6891830" lon="-0.5099480">
        <ele>1411.0</ele>
        <time>2023-01-14T10:29:07Z</time>
      </trkpt>
      <trkpt lat="42.6891370" lon="-0.5099480">
        <ele>1411.2</ele>
        <time>2023-01-14T10:29:08Z</time>
      </trkpt>
      <trkpt lat="42.6890960" lon="-0.5099420">
        <ele>1411.6</ele>
        <time>2023-01-14T10:29:09Z</time>
      </trkpt>
      <trkpt lat="42.6890570" lon="-0.5099230">
        <ele>1411.8</ele>
        <time>2023-01-14T10:29:10Z</time>
      </trkpt>
      <trkpt lat="42.6890110" lon="-0.5099000">
        <ele>1411.8</ele>
        <time>2023-01-14T10:29:11Z</time>
      </trkpt>
      <trkpt lat="42.6889620" lon="-0.5098670">
        <ele>1412.0</ele>
        <time>2023-01-14T10:29:12Z</time>
      </trkpt>
      <trkpt lat="42.6889120" lon="-0.5098250">
        <ele>1412.2</ele>
        <time>2023-01-14T10:29:13Z</time>
      </trkpt>
      <trkpt lat="42.6888620" lon="-0.5097850">
        <ele>1412.4</ele>
        <time>2023-01-14T10:29:14Z</time>
      </trkpt>
      <trkpt lat="42.6888250" lon="-0.5097330">
        <ele>1412.6</ele>
        <time>2023-01-14T10:29:15Z</time>
      </trkpt>
      <trkpt lat="42.6887880" lon="-0.5096800">
        <ele>1412.6</ele>
        <time>2023-01-14T10:29:16Z</time>
      </trkpt>
      <trkpt lat="42.6887460" lon="-0.5096290">
        <ele>1412.6</ele>
        <time>2023-01-14T10:29:17Z</time>
      </trkpt>
      <trkpt lat="42.6887120" lon="-0.5095750">
        <ele>1412.8</ele>
        <time>2023-01-14T10:29:18Z</time>
      </trkpt>
      <trkpt lat="42.6886860" lon="-0.5095190">
        <ele>1413.2</ele>
        <time>2023-01-14T10:29:19Z</time>
      </trkpt>
      <trkpt lat="42.6886630" lon="-0.5094740">
        <ele>1413.4</ele>
        <time>2023-01-14T10:29:20Z</time>
      </trkpt>
      <trkpt lat="42.6886450" lon="-0.5094250">
        <ele>1414.2</ele>
        <time>2023-01-14T10:29:21Z</time>
      </trkpt>
      <trkpt lat="42.6886340" lon="-0.5093670">
        <ele>1414.8</ele>
        <time>2023-01-14T10:29:22Z</time>
      </trkpt>
      <trkpt lat="42.6886220" lon="-0.5093080">
        <ele>1415.0</ele>
        <time>2023-01-14T10:29:23Z</time>
      </trkpt>
      <trkpt lat="42.6886070" lon="-0.5092500">
        <ele>1415.2</ele>
        <time>2023-01-14T10:29:24Z</time>
      </trkpt>
      <trkpt lat="42.6885970" lon="-0.5091920">
        <ele>1415.8</ele>
        <time>2023-01-14T10:29:25Z</time>
      </trkpt>
      <trkpt lat="42.6885940" lon="-0.5091290">
        <ele>1416.6</ele>
        <time>2023-01-14T10:29:26Z</time>
      </trkpt>
      <trkpt lat="42.6885880" lon="-0.5090690">
        <ele>1417.2</ele>
        <time>2023-01-14T10:29:27Z</time>
      </trkpt>
      <trkpt lat="42.6885830" lon="-0.5090030">
        <ele>1417.4</ele>
        <time>2023-01-14T10:29:28Z</time>
      </trkpt>
      <trkpt lat="42.6885750" lon="-0.5089410">
        <ele>1417.6</ele>
        <time>2023-01-14T10:29:29Z</time>
      </trkpt>
      <trkpt lat="42.6885650" lon="-0.5088860">
        <ele>1417.8</ele>
        <time>2023-01-14T10:29:30Z</time>
      </trkpt>
      <trkpt lat="42.6885570" lon="-0.5088400">
        <ele>1418.0</ele>
        <time>2023-01-14T10:29:31Z</time>
      </trkpt>
      <trkpt lat="42.6885520" lon="-0.5088010">
        <ele>1418.2</ele>
        <time>2023-01-14T10:29:32Z</time>
      </trkpt>
      <trkpt lat="42.6885480" lon="-0.5087640">
        <ele>1418.4</ele>
        <time>2023-01-14T10:29:33Z</time>
      </trkpt>
      <trkpt lat="42.6885460" lon="-0.5087260">
        <ele>1418.4</ele>
        <time>2023-01-14T10:29:34Z</time>
      </trkpt>
      <trkpt lat="42.6885460" lon="-0.5086850">
        <ele>1418.8</ele>
        <time>2023-01-14T10:29:35Z</time>
      </trkpt>
      <trkpt lat="42.6885490" lon="-0.5086510">
        <ele>1419.0</ele>
        <time>2023-01-14T10:29:36Z</time>
      </trkpt>
      <trkpt lat="42.6885460" lon="-0.5086140">
        <ele>1419.6</ele>
        <time>2023-01-14T10:29:37Z</time>
      </trkpt>
      <trkpt lat="42.6885400" lon="-0.5085800">
        <ele>1420.0</ele>
        <time>2023-01-14T10:29:38Z</time>
      </trkpt>
      <trkpt lat="42.6885310" lon="-0.5085500">
        <ele>1420.4</ele>
        <time>2023-01-14T10:29:39Z</time>
      </trkpt>
      <trkpt lat="42.6885250" lon="-0.5085240">
        <ele>1420.6</ele>
        <time>2023-01-14T10:29:40Z</time>
      </trkpt>
      <trkpt lat="42.6885190" lon="-0.5085010">
        <ele>1420.6</ele>
        <time>2023-01-14T10:29:41Z</time>
      </trkpt>
      <trkpt lat="42.6885130" lon="-0.5084820">
        <ele>1420.8</ele>
        <time>2023-01-14T10:29:42Z</time>
      </trkpt>
      <trkpt lat="42.6885070" lon="-0.5084620">
        <ele>1421.0</ele>
        <time>2023-01-14T10:29:43Z</time>
      </trkpt>
      <trkpt lat="42.6885020" lon="-0.5084420">
        <ele>1421.2</ele>
        <time>2023-01-14T10:29:44Z</time>
      </trkpt>
      <trkpt lat="42.6884970" lon="-0.5084180">
        <ele>1421.4</ele>
        <time>2023-01-14T10:29:45Z</time>
      </trkpt>
      <trkpt lat="42.6884870" lon="-0.5083910">
        <ele>1421.6</ele>
        <time>2023-01-14T10:29:46Z</time>
      </trkpt>
      <trkpt lat="42.6884730" lon="-0.5083680">
        <ele>1421.8</ele>
        <time>2023-01-14T10:29:47Z</time>
      </trkpt>
      <trkpt lat="42.6884650" lon="-0.5083430">
        <ele>1422.0</ele>
        <time>2023-01-14T10:29:48Z</time>
      </trkpt>
      <trkpt lat="42.6884570" lon="-0.5083190">
        <ele>1422.4</ele>
        <time>2023-01-14T10:29:49Z</time>
      </trkpt>
      <trkpt lat="42.6884480" lon="-0.5082950">
        <ele>1422.8</ele>
        <time>2023-01-14T10:29:50Z</time>
      </trkpt>
      <trkpt lat="42.6884280" lon="-0.5082790">
        <ele>1423.2</ele>
        <time>2023-01-14T10:29:51Z</time>
      </trkpt>
      <trkpt lat="42.6884180" lon="-0.5082500">
        <ele>1423.4</ele>
        <time>2023-01-14T10:29:52Z</time>
      </trkpt>
      <trkpt lat="42.6884100" lon="-0.5082230">
        <ele>1423.8</ele>
        <time>2023-01-14T10:29:53Z</time>
      </trkpt>
      <trkpt lat="42.6884010" lon="-0.5081960">
        <ele>1424.2</ele>
        <time>2023-01-14T10:29:54Z</time>
      </trkpt>
      <trkpt lat="42.6883880" lon="-0.5081690">
        <ele>1424.4</ele>
        <time>2023-01-14T10:29:55Z</time>
      </trkpt>
      <trkpt lat="42.6883770" lon="-0.5081400">
        <ele>1424.4</ele>
        <time>2023-01-14T10:29:56Z</time>
      </trkpt>
      <trkpt lat="42.6883650" lon="-0.5081110">
        <ele>1425.0</ele>
        <time>2023-01-14T10:29:57Z</time>
      </trkpt>
      <trkpt lat="42.6883530" lon="-0.5080850">
        <ele>1425.4</ele>
        <time>2023-01-14T10:29:58Z</time>
      </trkpt>
      <trkpt lat="42.6883350" lon="-0.5080650">
        <ele>1425.4</ele>
        <time>2023-01-14T10:29:59Z</time>
      </trkpt>
      <trkpt lat="42.6883290" lon="-0.5080390">
        <ele>1425.6</ele>
        <time>2023-01-14T10:30:00Z</time>
      </trkpt>
      <trkpt lat="42.6883250" lon="-0.5080140">
        <ele>1425.6</ele>
        <time>2023-01-14T10:30:01Z</time>
      </trkpt>
      <trkpt lat="42.6883190" lon="-0.5079880">
        <ele>1425.6</ele>
        <time>2023-01-14T10:30:02Z</time>
      </trkpt>
      <trkpt lat="42.6883150" lon="-0.5079630">
        <ele>1425.6</ele>
        <time>2023-01-14T10:30:03Z</time>
      </trkpt>
      <trkpt lat="42.6883140" lon="-0.5079370">
        <ele>1425.6</ele>
        <time>2023-01-14T10:30:04Z</time>
      </trkpt>
      <trkpt lat="42.6883110" lon="-0.5079150">
        <ele>1425.6</ele>
        <time>2023-01-14T10:30:05Z</time>
      </trkpt>
      <trkpt lat="42.6883110" lon="-0.5078890">
        <ele>1425.8</ele>
        <time>2023-01-14T10:30:06Z</time>
      </trkpt>
      <trkpt lat="42.6883130" lon="-0.5078610">
        <ele>1425.8</ele>
        <time>2023-01-14T10:30:07Z</time>
      </trkpt>
      <trkpt lat="42.6883160" lon="-0.5078290">
        <ele>1426.2</ele>
        <time>2023-01-14T10:30:08Z</time>
      </trkpt>
      <trkpt lat="42.6883160" lon="-0.5078020">
        <ele>1426.6</ele>
        <time>2023-01-14T10:30:09Z</time>
      </trkpt>
      <trkpt lat="42.6883170" lon="-0.5077800">
        <ele>1427.0</ele>
        <time>2023-01-14T10:30:10Z</time>
      </trkpt>
      <trkpt lat="42.6883170" lon="-0.5077530">
        <ele>1427.2</ele>
        <time>2023-01-14T10:30:11Z</time>
      </trkpt>
      <trkpt lat="42.6883140" lon="-0.5077270">
        <ele>1427.4</ele>
        <time>2023-01-14T10:30:12Z</time>
      </trkpt>
      <trkpt lat="42.6883150" lon="-0.5077000">
        <ele>1427.6</ele>
        <time>2023-01-14T10:30:13Z</time>
      </trkpt>
      <trkpt lat="42.6883180" lon="-0.5076690">
        <ele>1428.0</ele>
        <time>2023-01-14T10:30:14Z</time>
      </trkpt>
      <trkpt lat="42.6883210" lon="-0.5076360">
        <ele>1428.2</ele>
        <time>2023-01-14T10:30:15Z</time>
      </trkpt>
      <trkpt lat="42.6883250" lon="-0.5076000">
        <ele>1428.6</ele>
        <time>2023-01-14T10:30:16Z</time>
      </trkpt>
      <trkpt lat="42.6883300" lon="-0.5075680">
        <ele>1428.8</ele>
        <time>2023-01-14T10:30:17Z</time>
      </trkpt>
      <trkpt lat="42.6883360" lon="-0.5075370">
        <ele>1429.2</ele>
        <time>2023-01-14T10:30:18Z</time>
      </trkpt>
      <trkpt lat="42.6883430" lon="-0.5074980">
        <ele>1429.6</ele>
        <time>2023-01-14T10:30:19Z</time>
      </trkpt>
      <trkpt lat="42.6883480" lon="-0.5074620">
        <ele>1430.0</ele>
        <time>2023-01-14T10:30:20Z</time>
      </trkpt>
      <trkpt lat="42.6883530" lon="-0.5074260">
        <ele>1430.0</ele>
        <time>2023-01-14T10:30:21Z</time>
      </trkpt>
      <trkpt lat="42.6883550" lon="-0.5073890">
        <ele>1430.2</ele>
        <time>2023-01-14T10:30:22Z</time>
      </trkpt>
      <trkpt lat="42.6883540" lon="-0.5073470">
        <ele>1430.4</ele>
        <time>2023-01-14T10:30:23Z</time>
      </trkpt>
      <trkpt lat="42.6883510" lon="-0.5073100">
        <ele>1430.4</ele>
        <time>2023-01-14T10:30:24Z</time>
      </trkpt>
      <trkpt lat="42.6883540" lon="-0.5072710">
        <ele>1430.6</ele>
        <time>2023-01-14T10:30:25Z</time>
      </trkpt>
      <trkpt lat="42.6883600" lon="-0.5072270">
        <ele>1431.0</ele>
        <time>2023-01-14T10:30:26Z</time>
      </trkpt>
      <trkpt lat="42.6883600" lon="-0.5071840">
        <ele>1431.4</ele>
        <time>2023-01-14T10:30:27Z</time>
      </trkpt>
      <trkpt lat="42.6883610" lon="-0.5071390">
        <ele>1431.8</ele>
        <time>2023-01-14T10:30:28Z</time>
      </trkpt>
      <trkpt lat="42.6883650" lon="-0.5070920">
        <ele>1432.2</ele>
        <time>2023-01-14T10:30:29Z</time>
      </trkpt>
      <trkpt lat="42.6883680" lon="-0.5070450">
        <ele>1432.4</ele>
        <time>2023-01-14T10:30:30Z</time>
      </trkpt>
      <trkpt lat="42.6883720" lon="-0.5069970">
        <ele>1432.6</ele>
        <time>2023-01-14T10:30:31Z</time>
      </trkpt>
      <trkpt lat="42.6883740" lon="-0.5069510">
        <ele>1432.6</ele>
        <time>2023-01-14T10:30:32Z</time>
      </trkpt>
      <trkpt lat="42.6883760" lon="-0.5069000">
        <ele>1432.6</ele>
        <time>2023-01-14T10:30:33Z</time>
      </trkpt>
      <trkpt lat="42.6883780" lon="-0.5068500">
        <ele>1432.6</ele>
        <time>2023-01-14T10:30:34Z</time>
      </trkpt>
      <trkpt lat="42.6883770" lon="-0.5067970">
        <ele>1432.8</ele>
        <time>2023-01-14T10:30:35Z</time>
      </trkpt>
      <trkpt lat="42.6883730" lon="-0.5067430">
        <ele>1433.0</ele>
        <time>2023-01-14T10:30:36Z</time>
      </trkpt>
      <trkpt lat="42.6883720" lon="-0.5066840">
        <ele>1433.4</ele>
        <time>2023-01-14T10:30:37Z</time>
      </trkpt>
      <trkpt lat="42.6883650" lon="-0.5066310">
        <ele>1433.8</ele>
        <time>2023-01-14T10:30:38Z</time>
      </trkpt>
      <trkpt lat="42.6883590" lon="-0.5065770">
        <ele>1434.0</ele>
        <time>2023-01-14T10:30:39Z</time>
      </trkpt>
      <trkpt lat="42.6883480" lon="-0.5065200">
        <ele>1434.2</ele>
        <time>2023-01-14T10:30:40Z</time>
      </trkpt>
      <trkpt lat="42.6883350" lon="-0.5064650">
        <ele>1434.6</ele>
        <time>2023-01-14T10:30:41Z</time>
      </trkpt>
      <trkpt lat="42.6883210" lon="-0.5064090">
        <ele>1435.0</ele>
        <time>2023-01-14T10:30:42Z</time>
      </trkpt>
      <trkpt lat="42.6883040" lon="-0.5063560">
        <ele>1435.2</ele>
        <time>2023-01-14T10:30:43Z</time>
      </trkpt>
      <trkpt lat="42.6882860" lon="-0.5063010">
        <ele>1435.4</ele>
        <time>2023-01-14T10:30:44Z</time>
      </trkpt>
      <trkpt lat="42.6883680" lon="-0.5062370">
        <ele>1435.8</ele>
        <time>2023-01-14T10:30:45Z</time>
      </trkpt>
      <trkpt lat="42.6883640" lon="-0.5061870">
        <ele>1436.2</ele>
        <time>2023-01-14T10:30:46Z</time>
      </trkpt>
      <trkpt lat="42.6883350" lon="-0.5061440">
        <ele>1436.4</ele>
        <time>2023-01-14T10:30:47Z</time>
      </trkpt>
      <trkpt lat="42.6883340" lon="-0.5061000">
        <ele>1437.0</ele>
        <time>2023-01-14T10:30:48Z</time>
      </trkpt>
      <trkpt lat="42.6883130" lon="-0.5060620">
        <ele>1437.4</ele>
        <time>2023-01-14T10:30:49Z</time>
      </trkpt>
      <trkpt lat="42.6882890" lon="-0.5060200">
        <ele>1437.8</ele>
        <time>2023-01-14T10:30:50Z</time>
      </trkpt>
      <trkpt lat="42.6882180" lon="-0.5060290">
        <ele>1438.2</ele>
        <time>2023-01-14T10:30:51Z</time>
      </trkpt>
      <trkpt lat="42.6881880" lon="-0.5059960">
        <ele>1438.4</ele>
        <time>2023-01-14T10:30:52Z</time>
      </trkpt>
      <trkpt lat="42.6881390" lon="-0.5059790">
        <ele>1439.0</ele>
        <time>2023-01-14T10:30:53Z</time>
      </trkpt>
      <trkpt lat="42.6881020" lon="-0.5059500">
        <ele>1439.4</ele>
        <time>2023-01-14T10:30:54Z</time>
      </trkpt>
      <trkpt lat="42.6880680" lon="-0.5059140">
        <ele>1440.0</ele>
        <time>2023-01-14T10:30:55Z</time>
      </trkpt>
      <trkpt lat="42.6880370" lon="-0.5058740">
        <ele>1440.4</ele>
        <time>2023-01-14T10:30:56Z</time>
      </trkpt>
      <trkpt lat="42.6880130" lon="-0.5058320">
        <ele>1440.8</ele>
        <time>2023-01-14T10:30:57Z</time>
      </trkpt>
      <trkpt lat="42.6879840" lon="-0.5057830">
        <ele>1441.0</ele>
        <time>2023-01-14T10:30:58Z</time>
      </trkpt>
      <trkpt lat="42.6879620" lon="-0.5057340">
        <ele>1441.4</ele>
        <time>2023-01-14T10:30:59Z</time>
      </trkpt>
      <trkpt lat="42.6879390" lon="-0.5056800">
        <ele>1441.8</ele>
        <time>2023-01-14T10:31:00Z</time>
      </trkpt>
      <trkpt lat="42.6879150" lon="-0.5056280">
        <ele>1442.4</ele>
        <time>2023-01-14T10:31:01Z</time>
      </trkpt>
      <trkpt lat="42.6878900" lon="-0.5055770">
        <ele>1442.6</ele>
        <time>2023-01-14T10:31:02Z</time>
      </trkpt>
      <trkpt lat="42.6878690" lon="-0.5055270">
        <ele>1442.8</ele>
        <time>2023-01-14T10:31:03Z</time>
      </trkpt>
      <trkpt lat="42.6878490" lon="-0.5054820">
        <ele>1442.8</ele>
        <time>2023-01-14T10:31:04Z</time>
      </trkpt>
      <trkpt lat="42.6878250" lon="-0.5054380">
        <ele>1443.0</ele>
        <time>2023-01-14T10:31:05Z</time>
      </trkpt>
      <trkpt lat="42.6877980" lon="-0.5053900">
        <ele>1443.0</ele>
        <time>2023-01-14T10:31:06Z</time>
      </trkpt>
      <trkpt lat="42.6877740" lon="-0.5053450">
        <ele>1443.0</ele>
        <time>2023-01-14T10:31:07Z</time>
      </trkpt>
      <trkpt lat="42.6877530" lon="-0.5053020">
        <ele>1443.2</ele>
        <time>2023-01-14T10:31:08Z</time>
      </trkpt>
      <trkpt lat="42.6877290" lon="-0.5052580">
        <ele>1443.8</ele>
        <time>2023-01-14T10:31:09Z</time>
      </trkpt>
      <trkpt lat="42.6877060" lon="-0.5052140">
        <ele>1444.2</ele>
        <time>2023-01-14T10:31:10Z</time>
      </trkpt>
      <trkpt lat="42.6876810" lon="-0.5051740">
        <ele>1444.4</ele>
        <time>2023-01-14T10:31:11Z</time>
      </trkpt>
      <trkpt lat="42.6876550" lon="-0.5051350">
        <ele>1444.6</ele>
        <time>2023-01-14T10:31:12Z</time>
      </trkpt>
      <trkpt lat="42.6876320" lon="-0.5050910">
        <ele>1444.8</ele>
        <time>2023-01-14T10:31:13Z</time>
      </trkpt>
      <trkpt lat="42.6876090" lon="-0.5050480">
        <ele>1445.2</ele>
        <time>2023-01-14T10:31:14Z</time>
      </trkpt>
      <trkpt lat="42.6875880" lon="-0.5050020">
        <ele>1445.4</ele>
        <time>2023-01-14T10:31:15Z</time>
      </trkpt>
      <trkpt lat="42.6875670" lon="-0.5049600">
        <ele>1445.6</ele>
        <time>2023-01-14T10:31:16Z</time>
      </trkpt>
      <trkpt lat="42.6875460" lon="-0.5049170">
        <ele>1446.0</ele>
        <time>2023-01-14T10:31:17Z</time>
      </trkpt>
      <trkpt lat="42.6875270" lon="-0.5048740">
        <ele>1446.2</ele>
        <time>2023-01-14T10:31:18Z</time>
      </trkpt>
      <trkpt lat="42.6875110" lon="-0.5048300">
        <ele>1446.6</ele>
        <time>2023-01-14T10:31:19Z</time>
      </trkpt>
      <trkpt lat="42.6874930" lon="-0.5047830">
        <ele>1446.8</ele>
        <time>2023-01-14T10:31:20Z</time>
      </trkpt>
      <trkpt lat="42.6874740" lon="-0.5047340">
        <ele>1447.0</ele>
        <time>2023-01-14T10:31:21Z</time>
      </trkpt>
      <trkpt lat="42.6874580" lon="-0.5046830">
        <ele>1447.4</ele>
        <time>2023-01-14T10:31:22Z</time>
      </trkpt>
      <trkpt lat="42.6874400" lon="-0.5046330">
        <ele>1447.8</ele>
        <time>2023-01-14T10:31:23Z</time>
      </trkpt>
      <trkpt lat="42.6874220" lon="-0.5045840">
        <ele>1448.0</ele>
        <time>2023-01-14T10:31:24Z</time>
      </trkpt>
      <trkpt lat="42.6874090" lon="-0.5045370">
        <ele>1448.4</ele>
        <time>2023-01-14T10:31:25Z</time>
      </trkpt>
      <trkpt lat="42.6873960" lon="-0.5044880">
        <ele>1448.8</ele>
        <time>2023-01-14T10:31:26Z</time>
      </trkpt>
      <trkpt lat="42.6873810" lon="-0.5044370">
        <ele>1449.0</ele>
        <time>2023-01-14T10:31:27Z</time>
      </trkpt>
      <trkpt lat="42.6873670" lon="-0.5043860">
        <ele>1449.0</ele>
        <time>2023-01-14T10:31:28Z</time>
      </trkpt>
      <trkpt lat="42.6873540" lon="-0.5043350">
        <ele>1449.4</ele>
        <time>2023-01-14T10:31:29Z</time>
      </trkpt>
      <trkpt lat="42.6873420" lon="-0.5042850">
        <ele>1449.6</ele>
        <time>2023-01-14T10:31:30Z</time>
      </trkpt>
      <trkpt lat="42.6873300" lon="-0.5042320">
        <ele>1449.8</ele>
        <time>2023-01-14T10:31:31Z</time>
      </trkpt>
      <trkpt lat="42.6873170" lon="-0.5041770">
        <ele>1450.2</ele>
        <time>2023-01-14T10:31:32Z</time>
      </trkpt>
      <trkpt lat="42.6873050" lon="-0.5041180">
        <ele>1450.4</ele>
        <time>2023-01-14T10:31:33Z</time>
      </trkpt>
      <trkpt lat="42.6872930" lon="-0.5040570">
        <ele>1450.8</ele>
        <time>2023-01-14T10:31:34Z</time>
      </trkpt>
      <trkpt lat="42.6872840" lon="-0.5039970">
        <ele>1451.0</ele>
        <time>2023-01-14T10:31:35Z</time>
      </trkpt>
      <trkpt lat="42.6872730" lon="-0.5039400">
        <ele>1451.2</ele>
        <time>2023-01-14T10:31:36Z</time>
      </trkpt>
      <trkpt lat="42.6872590" lon="-0.5038820">
        <ele>1451.4</ele>
        <time>2023-01-14T10:31:37Z</time>
      </trkpt>
      <trkpt lat="42.6872420" lon="-0.5038260">
        <ele>1451.6</ele>
        <time>2023-01-14T10:31:38Z</time>
      </trkpt>
      <trkpt lat="42.6872230" lon="-0.5037720">
        <ele>1451.6</ele>
        <time>2023-01-14T10:31:39Z</time>
      </trkpt>
      <trkpt lat="42.6872040" lon="-0.5037210">
        <ele>1451.8</ele>
        <time>2023-01-14T10:31:40Z</time>
      </trkpt>
      <trkpt lat="42.6871850" lon="-0.5036720">
        <ele>1452.0</ele>
        <time>2023-01-14T10:31:41Z</time>
      </trkpt>
      <trkpt lat="42.6871600" lon="-0.5036270">
        <ele>1452.4</ele>
        <time>2023-01-14T10:31:42Z</time>
      </trkpt>
      <trkpt lat="42.6871340" lon="-0.5035840">
        <ele>1452.6</ele>
        <time>2023-01-14T10:31:43Z</time>
      </trkpt>
      <trkpt lat="42.6871040" lon="-0.5035460">
        <ele>1452.8</ele>
        <time>2023-01-14T10:31:44Z</time>
      </trkpt>
      <trkpt lat="42.6870690" lon="-0.5035070">
        <ele>1453.0</ele>
        <time>2023-01-14T10:31:45Z</time>
      </trkpt>
      <trkpt lat="42.6870340" lon="-0.5034720">
        <ele>1453.4</ele>
        <time>2023-01-14T10:31:46Z</time>
      </trkpt>
      <trkpt lat="42.6869960" lon="-0.5034380">
        <ele>1453.8</ele>
        <time>2023-01-14T10:31:47Z</time>
      </trkpt>
      <trkpt lat="42.6869550" lon="-0.5034100">
        <ele>1454.6</ele>
        <time>2023-01-14T10:31:48Z</time>
      </trkpt>
      <trkpt lat="42.6869150" lon="-0.5033830">
        <ele>1455.0</ele>
        <time>2023-01-14T10:31:49Z</time>
      </trkpt>
      <trkpt lat="42.6868740" lon="-0.5033680">
        <ele>1455.4</ele>
        <time>2023-01-14T10:31:50Z</time>
      </trkpt>
      <trkpt lat="42.6868360" lon="-0.5033550">
        <ele>1456.2</ele>
        <time>2023-01-14T10:31:51Z</time>
      </trkpt>
      <trkpt lat="42.6867980" lon="-0.5033340">
        <ele>1456.6</ele>
        <time>2023-01-14T10:31:52Z</time>
      </trkpt>
      <trkpt lat="42.6867580" lon="-0.5033110">
        <ele>1457.4</ele>
        <time>2023-01-14T10:31:53Z</time>
      </trkpt>
      <trkpt lat="42.6867080" lon="-0.5032950">
        <ele>1458.0</ele>
        <time>2023-01-14T10:31:54Z</time>
      </trkpt>
      <trkpt lat="42.6866700" lon="-0.5032730">
        <ele>1458.4</ele>
        <time>2023-01-14T10:31:55Z</time>
      </trkpt>
      <trkpt lat="42.6866290" lon="-0.5032490">
        <ele>1458.8</ele>
        <time>2023-01-14T10:31:56Z</time>
      </trkpt>
      <trkpt lat="42.6865860" lon="-0.5032240">
        <ele>1459.8</ele>
        <time>2023-01-14T10:31:57Z</time>
      </trkpt>
      <trkpt lat="42.6865420" lon="-0.5032020">
        <ele>1460.6</ele>
        <time>2023-01-14T10:31:58Z</time>
      </trkpt>
      <trkpt lat="42.6864980" lon="-0.5031820">
        <ele>1461.0</ele>
        <time>2023-01-14T10:31:59Z</time>
      </trkpt>
      <trkpt lat="42.6864590" lon="-0.5031590">
        <ele>1461.4</ele>
        <time>2023-01-14T10:32:00Z</time>
      </trkpt>
      <trkpt lat="42.6864180" lon="-0.5031330">
        <ele>1461.6</ele>
        <time>2023-01-14T10:32:01Z</time>
      </trkpt>
      <trkpt lat="42.6863760" lon="-0.5031110">
        <ele>1462.0</ele>
        <time>2023-01-14T10:32:02Z</time>
      </trkpt>
      <trkpt lat="42.6863330" lon="-0.5030860">
        <ele>1462.8</ele>
        <time>2023-01-14T10:32:03Z</time>
      </trkpt>
      <trkpt lat="42.6862940" lon="-0.5030570">
        <ele>1463.2</ele>
        <time>2023-01-14T10:32:04Z</time>
      </trkpt>
      <trkpt lat="42.6862580" lon="-0.5030260">
        <ele>1463.6</ele>
        <time>2023-01-14T10:32:05Z</time>
      </trkpt>
      <trkpt lat="42.6862030" lon="-0.5030010">
        <ele>1463.8</ele>
        <time>2023-01-14T10:32:06Z</time>
      </trkpt>
      <trkpt lat="42.6861560" lon="-0.5029690">
        <ele>1464.2</ele>
        <time>2023-01-14T10:32:07Z</time>
      </trkpt>
      <trkpt lat="42.6861130" lon="-0.5029320">
        <ele>1464.6</ele>
        <time>2023-01-14T10:32:08Z</time>
      </trkpt>
      <trkpt lat="42.6860730" lon="-0.5028980">
        <ele>1465.0</ele>
        <time>2023-01-14T10:32:09Z</time>
      </trkpt>
      <trkpt lat="42.6860310" lon="-0.5028650">
        <ele>1465.6</ele>
        <time>2023-01-14T10:32:10Z</time>
      </trkpt>
      <trkpt lat="42.6859860" lon="-0.5028270">
        <ele>1466.0</ele>
        <time>2023-01-14T10:32:11Z</time>
      </trkpt>
      <trkpt lat="42.6859450" lon="-0.5027850">
        <ele>1466.6</ele>
        <time>2023-01-14T10:32:12Z</time>
      </trkpt>
      <trkpt lat="42.6859130" lon="-0.5027400">
        <ele>1467.0</ele>
        <time>2023-01-14T10:32:13Z</time>
      </trkpt>
      <trkpt lat="42.6858830" lon="-0.5026930">
        <ele>1467.4</ele>
        <time>2023-01-14T10:32:14Z</time>
      </trkpt>
      <trkpt lat="42.6858520" lon="-0.5026460">
        <ele>1467.8</ele>
        <time>2023-01-14T10:32:15Z</time>
      </trkpt>
      <trkpt lat="42.6858210" lon="-0.5026000">
        <ele>1468.2</ele>
        <time>2023-01-14T10:32:16Z</time>
      </trkpt>
      <trkpt lat="42.6857940" lon="-0.5025510">
        <ele>1468.4</ele>
        <time>2023-01-14T10:32:17Z</time>
      </trkpt>
      <trkpt lat="42.6857670" lon="-0.5025050">
        <ele>1468.6</ele>
        <time>2023-01-14T10:32:18Z</time>
      </trkpt>
      <trkpt lat="42.6857410" lon="-0.5024590">
        <ele>1469.8</ele>
        <time>2023-01-14T10:32:19Z</time>
      </trkpt>
      <trkpt lat="42.6857180" lon="-0.5024140">
        <ele>1470.4</ele>
        <time>2023-01-14T10:32:20Z</time>
      </trkpt>
      <trkpt lat="42.6856960" lon="-0.5023700">
        <ele>1470.8</ele>
        <time>2023-01-14T10:32:21Z</time>
      </trkpt>
      <trkpt lat="42.6856750" lon="-0.5023250">
        <ele>1471.0</ele>
        <time>2023-01-14T10:32:22Z</time>
      </trkpt>
      <trkpt lat="42.6856580" lon="-0.5022770">
        <ele>1471.2</ele>
        <time>2023-01-14T10:32:23Z</time>
      </trkpt>
      <trkpt lat="42.6856400" lon="-0.5022300">
        <ele>1471.8</ele>
        <time>2023-01-14T10:32:24Z</time>
      </trkpt>
      <trkpt lat="42.6856200" lon="-0.5021820">
        <ele>1472.2</ele>
        <time>2023-01-14T10:32:25Z</time>
      </trkpt>
      <trkpt lat="42.6856030" lon="-0.5021320">
        <ele>1472.4</ele>
        <time>2023-01-14T10:32:26Z</time>
      </trkpt>
      <trkpt lat="42.6855830" lon="-0.5020850">
        <ele>1472.6</ele>
        <time>2023-01-14T10:32:27Z</time>
      </trkpt>
      <trkpt lat="42.6855620" lon="-0.5020400">
        <ele>1473.0</ele>
        <time>2023-01-14T10:32:28Z</time>
      </trkpt>
      <trkpt lat="42.6855440" lon="-0.5019940">
        <ele>1473.6</ele>
        <time>2023-01-14T10:32:29Z</time>
      </trkpt>
      <trkpt lat="42.6855240" lon="-0.5019490">
        <ele>1474.0</ele>
        <time>2023-01-14T10:32:30Z</time>
      </trkpt>
      <trkpt lat="42.6855020" lon="-0.5019050">
        <ele>1474.6</ele>
        <time>2023-01-14T10:32:31Z</time>
      </trkpt>
      <trkpt lat="42.6854730" lon="-0.5018620">
        <ele>1475.2</ele>
        <time>2023-01-14T10:32:32Z</time>
      </trkpt>
      <trkpt lat="42.6854470" lon="-0.5018190">
        <ele>1475.6</ele>
        <time>2023-01-14T10:32:33Z</time>
      </trkpt>
      <trkpt lat="42.6854220" lon="-0.5017760">
        <ele>1476.0</ele>
        <time>2023-01-14T10:32:34Z</time>
      </trkpt>
      <trkpt lat="42.6854020" lon="-0.5017280">
        <ele>1476.4</ele>
        <time>2023-01-14T10:32:35Z</time>
      </trkpt>
      <trkpt lat="42.6853840" lon="-0.5016780">
        <ele>1476.8</ele>
        <time>2023-01-14T10:32:36Z</time>
      </trkpt>
      <trkpt lat="42.6853660" lon="-0.5016290">
        <ele>1477.2</ele>
        <time>2023-01-14T10:32:37Z</time>
      </trkpt>
      <trkpt lat="42.6853540" lon="-0.5015800">
        <ele>1477.4</ele>
        <time>2023-01-14T10:32:38Z</time>
      </trkpt>
      <trkpt lat="42.6853420" lon="-0.5015390">
        <ele>1477.4</ele>
        <time>2023-01-14T10:32:39Z</time>
      </trkpt>
      <trkpt lat="42.6853330" lon="-0.5015070">
        <ele>1477.8</ele>
        <time>2023-01-14T10:32:40Z</time>
      </trkpt>
      <trkpt lat="42.6853250" lon="-0.5014820">
        <ele>1478.0</ele>
        <time>2023-01-14T10:32:41Z</time>
      </trkpt>
      <trkpt lat="42.6853230" lon="-0.5014600">
        <ele>1478.0</ele>
        <time>2023-01-14T10:32:42Z</time>
      </trkpt>
      <trkpt lat="42.6853230" lon="-0.5014380">
        <ele>1478.2</ele>
        <time>2023-01-14T10:32:43Z</time>
      </trkpt>
      <trkpt lat="42.6853210" lon="-0.5014120">
        <ele>1478.4</ele>
        <time>2023-01-14T10:32:44Z</time>
      </trkpt>
      <trkpt lat="42.6853170" lon="-0.5013870">
        <ele>1478.4</ele>
        <time>2023-01-14T10:32:45Z</time>
      </trkpt>
      <trkpt lat="42.6853150" lon="-0.5013620">
        <ele>1478.6</ele>
        <time>2023-01-14T10:32:46Z</time>
      </trkpt>
      <trkpt lat="42.6853100" lon="-0.5013370">
        <ele>1478.6</ele>
        <time>2023-01-14T10:32:47Z</time>
      </trkpt>
      <trkpt lat="42.6853090" lon="-0.5013130">
        <ele>1478.6</ele>
        <time>2023-01-14T10:32:48Z</time>
      </trkpt>
      <trkpt lat="42.6853070" lon="-0.5012880">
        <ele>1478.6</ele>
        <time>2023-01-14T10:32:49Z</time>
      </trkpt>
      <trkpt lat="42.6853030" lon="-0.5012650">
        <ele>1478.8</ele>
        <time>2023-01-14T10:32:50Z</time>
      </trkpt>
      <trkpt lat="42.6853060" lon="-0.5012430">
        <ele>1479.2</ele>
        <time>2023-01-14T10:32:51Z</time>
      </trkpt>
      <trkpt lat="42.6853050" lon="-0.5012200">
        <ele>1479.4</ele>
        <time>2023-01-14T10:32:52Z</time>
      </trkpt>
      <trkpt lat="42.6853060" lon="-0.5011990">
        <ele>1479.6</ele>
        <time>2023-01-14T10:32:53Z</time>
      </trkpt>
      <trkpt lat="42.6853040" lon="-0.5011750">
        <ele>1479.8</ele>
        <time>2023-01-14T10:32:54Z</time>
      </trkpt>
      <trkpt lat="42.6852970" lon="-0.5011540">
        <ele>1480.0</ele>
        <time>2023-01-14T10:32:55Z</time>
      </trkpt>
      <trkpt lat="42.6852950" lon="-0.5011300">
        <ele>1479.8</ele>
        <time>2023-01-14T10:32:56Z</time>
      </trkpt>
      <trkpt lat="42.6852940" lon="-0.5011070">
        <ele>1480.0</ele>
        <time>2023-01-14T10:32:57Z</time>
      </trkpt>
      <trkpt lat="42.6852890" lon="-0.5010830">
        <ele>1480.2</ele>
        <time>2023-01-14T10:32:58Z</time>
      </trkpt>
      <trkpt lat="42.6852870" lon="-0.5010590">
        <ele>1480.4</ele>
        <time>2023-01-14T10:32:59Z</time>
      </trkpt>
      <trkpt lat="42.6852870" lon="-0.5010340">
        <ele>1480.6</ele>
        <time>2023-01-14T10:33:00Z</time>
      </trkpt>
      <trkpt lat="42.6852840" lon="-0.5010060">
        <ele>1480.6</ele>
        <time>2023-01-14T10:33:01Z</time>
      </trkpt>
      <trkpt lat="42.6852800" lon="-0.5009810">
        <ele>1480.8</ele>
        <time>2023-01-14T10:33:02Z</time>
      </trkpt>
      <trkpt lat="42.6852800" lon="-0.5009550">
        <ele>1481.2</ele>
        <time>2023-01-14T10:33:03Z</time>
      </trkpt>
      <trkpt lat="42.6852810" lon="-0.5009260">
        <ele>1481.4</ele>
        <time>2023-01-14T10:33:04Z</time>
      </trkpt>
      <trkpt lat="42.6852810" lon="-0.5008940">
        <ele>1481.6</ele>
        <time>2023-01-14T10:33:05Z</time>
      </trkpt>
      <trkpt lat="42.6852780" lon="-0.5008590">
        <ele>1481.6</ele>
        <time>2023-01-14T10:33:06Z</time>
      </trkpt>
      <trkpt lat="42.6852750" lon="-0.5008230">
        <ele>1482.0</ele>
        <time>2023-01-14T10:33:07Z</time>
      </trkpt>
      <trkpt lat="42.6852800" lon="-0.5007800">
        <ele>1482.2</ele>
        <time>2023-01-14T10:33:08Z</time>
      </trkpt>
      <trkpt lat="42.6852820" lon="-0.5007330">
        <ele>1482.4</ele>
        <time>2023-01-14T10:33:09Z</time>
      </trkpt>
      <trkpt lat="42.6852870" lon="-0.5006820">
        <ele>1482.4</ele>
        <time>2023-01-14T10:33:10Z</time>
      </trkpt>
      <trkpt lat="42.6852890" lon="-0.5006260">
        <ele>1482.6</ele>
        <time>2023-01-14T10:33:11Z</time>
      </trkpt>
      <trkpt lat="42.6852930" lon="-0.5005640">
        <ele>1483.0</ele>
        <time>2023-01-14T10:33:12Z</time>
      </trkpt>
      <trkpt lat="42.6852910" lon="-0.5005040">
        <ele>1483.6</ele>
        <time>2023-01-14T10:33:13Z</time>
      </trkpt>
      <trkpt lat="42.6852960" lon="-0.5004390">
        <ele>1484.2</ele>
        <time>2023-01-14T10:33:14Z</time>
      </trkpt>
      <trkpt lat="42.6853060" lon="-0.5003740">
        <ele>1484.8</ele>
        <time>2023-01-14T10:33:15Z</time>
      </trkpt>
      <trkpt lat="42.6853220" lon="-0.5003090">
        <ele>1485.4</ele>
        <time>2023-01-14T10:33:16Z</time>
      </trkpt>
      <trkpt lat="42.6853450" lon="-0.5002490">
        <ele>1485.8</ele>
        <time>2023-01-14T10:33:17Z</time>
      </trkpt>
      <trkpt lat="42.6853660" lon="-0.5001850">
        <ele>1486.0</ele>
        <time>2023-01-14T10:33:18Z</time>
      </trkpt>
      <trkpt lat="42.6853840" lon="-0.5001190">
        <ele>1486.2</ele>
        <time>2023-01-14T10:33:19Z</time>
      </trkpt>
      <trkpt lat="42.6854050" lon="-0.5000520">
        <ele>1486.6</ele>
        <time>2023-01-14T10:33:20Z</time>
      </trkpt>
      <trkpt lat="42.6854270" lon="-0.4999880">
        <ele>1487.0</ele>
        <time>2023-01-14T10:33:21Z</time>
      </trkpt>
      <trkpt lat="42.6854480" lon="-0.4999270">
        <ele>1487.4</ele>
        <time>2023-01-14T10:33:22Z</time>
      </trkpt>
      <trkpt lat="42.6854700" lon="-0.4998650">
        <ele>1488.0</ele>
        <time>2023-01-14T10:33:23Z</time>
      </trkpt>
      <trkpt lat="42.6854920" lon="-0.4998030">
        <ele>1488.4</ele>
        <time>2023-01-14T10:33:24Z</time>
      </trkpt>
      <trkpt lat="42.6855140" lon="-0.4997430">
        <ele>1488.6</ele>
        <time>2023-01-14T10:33:25Z</time>
      </trkpt>
      <trkpt lat="42.6855370" lon="-0.4996840">
        <ele>1488.8</ele>
        <time>2023-01-14T10:33:26Z</time>
      </trkpt>
      <trkpt lat="42.6855560" lon="-0.4996260">
        <ele>1489.2</ele>
        <time>2023-01-14T10:33:27Z</time>
      </trkpt>
      <trkpt lat="42.6855750" lon="-0.4995690">
        <ele>1489.4</ele>
        <time>2023-01-14T10:33:28Z</time>
      </trkpt>
      <trkpt lat="42.6855970" lon="-0.4995140">
        <ele>1489.8</ele>
        <time>2023-01-14T10:33:29Z</time>
      </trkpt>
      <trkpt lat="42.6856180" lon="-0.4994600">
        <ele>1490.0</ele>
        <time>2023-01-14T10:33:30Z</time>
      </trkpt>
      <trkpt lat="42.6856310" lon="-0.4994050">
        <ele>1490.4</ele>
        <time>2023-01-14T10:33:31Z</time>
      </trkpt>
      <trkpt lat="42.6856450" lon="-0.4993480">
        <ele>1490.4</ele>
        <time>2023-01-14T10:33:32Z</time>
      </trkpt>
      <trkpt lat="42.6856660" lon="-0.4992930">
        <ele>1490.6</ele>
        <time>2023-01-14T10:33:33Z</time>
      </trkpt>
      <trkpt lat="42.6856790" lon="-0.4992370">
        <ele>1491.0</ele>
        <time>2023-01-14T10:33:34Z</time>
      </trkpt>
      <trkpt lat="42.6856930" lon="-0.4991830">
        <ele>1491.2</ele>
        <time>2023-01-14T10:33:35Z</time>
      </trkpt>
      <trkpt lat="42.6857050" lon="-0.4991310">
        <ele>1491.4</ele>
        <time>2023-01-14T10:33:36Z</time>
      </trkpt>
      <trkpt lat="42.6857120" lon="-0.4990810">
        <ele>1491.6</ele>
        <time>2023-01-14T10:33:37Z</time>
      </trkpt>
      <trkpt lat="42.6857170" lon="-0.4990280">
        <ele>1492.2</ele>
        <time>2023-01-14T10:33:38Z</time>
      </trkpt>
      <trkpt lat="42.6857230" lon="-0.4989750">
        <ele>1492.6</ele>
        <time>2023-01-14T10:33:39Z</time>
      </trkpt>
      <trkpt lat="42.6857300" lon="-0.4989200">
        <ele>1493.2</ele>
        <time>2023-01-14T10:33:40Z</time>
      </trkpt>
      <trkpt lat="42.6857340" lon="-0.4988650">
        <ele>1494.0</ele>
        <time>2023-01-14T10:33:41Z</time>
      </trkpt>
      <trkpt lat="42.6857410" lon="-0.4988100">
        <ele>1494.4</ele>
        <time>2023-01-14T10:33:42Z</time>
      </trkpt>
      <trkpt lat="42.6857420" lon="-0.4987530">
        <ele>1495.2</ele>
        <time>2023-01-14T10:33:43Z</time>
      </trkpt>
      <trkpt lat="42.6857430" lon="-0.4986990">
        <ele>1495.6</ele>
        <time>2023-01-14T10:33:44Z</time>
      </trkpt>
      <trkpt lat="42.6857500" lon="-0.4986440">
        <ele>1495.8</ele>
        <time>2023-01-14T10:33:45Z</time>
      </trkpt>
      <trkpt lat="42.6857570" lon="-0.4985930">
        <ele>1496.4</ele>
        <time>2023-01-14T10:33:46Z</time>
      </trkpt>
      <trkpt lat="42.6857610" lon="-0.4985430">
        <ele>1496.8</ele>
        <time>2023-01-14T10:33:47Z</time>
      </trkpt>
      <trkpt lat="42.6857650" lon="-0.4984900">
        <ele>1497.2</ele>
        <time>2023-01-14T10:33:48Z</time>
      </trkpt>
      <trkpt lat="42.6857630" lon="-0.4984380">
        <ele>1497.8</ele>
        <time>2023-01-14T10:33:49Z</time>
      </trkpt>
      <trkpt lat="42.6857640" lon="-0.4983820">
        <ele>1498.4</ele>
        <time>2023-01-14T10:33:50Z</time>
      </trkpt>
      <trkpt lat="42.6857700" lon="-0.4983240">
        <ele>1498.6</ele>
        <time>2023-01-14T10:33:51Z</time>
      </trkpt>
      <trkpt lat="42.6857750" lon="-0.4982720">
        <ele>1499.0</ele>
        <time>2023-01-14T10:33:52Z</time>
      </trkpt>
      <trkpt lat="42.6857830" lon="-0.4982190">
        <ele>1499.2</ele>
        <time>2023-01-14T10:33:53Z</time>
      </trkpt>
      <trkpt lat="42.6857940" lon="-0.4981680">
        <ele>1499.2</ele>
        <time>2023-01-14T10:33:54Z</time>
      </trkpt>
      <trkpt lat="42.6858080" lon="-0.4981100">
        <ele>1499.4</ele>
        <time>2023-01-14T10:33:55Z</time>
      </trkpt>
      <trkpt lat="42.6858210" lon="-0.4980540">
        <ele>1499.6</ele>
        <time>2023-01-14T10:33:56Z</time>
      </trkpt>
      <trkpt lat="42.6858310" lon="-0.4980000">
        <ele>1500.2</ele>
        <time>2023-01-14T10:33:57Z</time>
      </trkpt>
      <trkpt lat="42.6858440" lon="-0.4979460">
        <ele>1500.8</ele>
        <time>2023-01-14T10:33:58Z</time>
      </trkpt>
      <trkpt lat="42.6858520" lon="-0.4978940">
        <ele>1501.2</ele>
        <time>2023-01-14T10:33:59Z</time>
      </trkpt>
      <trkpt lat="42.6858600" lon="-0.4978420">
        <ele>1501.4</ele>
        <time>2023-01-14T10:34:00Z</time>
      </trkpt>
      <trkpt lat="42.6858690" lon="-0.4977890">
        <ele>1501.6</ele>
        <time>2023-01-14T10:34:01Z</time>
      </trkpt>
      <trkpt lat="42.6858760" lon="-0.4977350">
        <ele>1502.4</ele>
        <time>2023-01-14T10:34:02Z</time>
      </trkpt>
      <trkpt lat="42.6858800" lon="-0.4976780">
        <ele>1502.8</ele>
        <time>2023-01-14T10:34:03Z</time>
      </trkpt>
      <trkpt lat="42.6858790" lon="-0.4976190">
        <ele>1503.2</ele>
        <time>2023-01-14T10:34:04Z</time>
      </trkpt>
      <trkpt lat="42.6858760" lon="-0.4975600">
        <ele>1503.6</ele>
        <time>2023-01-14T10:34:05Z</time>
      </trkpt>
      <trkpt lat="42.6858730" lon="-0.4975010">
        <ele>1503.6</ele>
        <time>2023-01-14T10:34:06Z</time>
      </trkpt>
      <trkpt lat="42.6858710" lon="-0.4974430">
        <ele>1504.2</ele>
        <time>2023-01-14T10:34:07Z</time>
      </trkpt>
      <trkpt lat="42.6858670" lon="-0.4973870">
        <ele>1504.4</ele>
        <time>2023-01-14T10:34:08Z</time>
      </trkpt>
      <trkpt lat="42.6858610" lon="-0.4973310">
        <ele>1504.8</ele>
        <time>2023-01-14T10:34:09Z</time>
      </trkpt>
      <trkpt lat="42.6858570" lon="-0.4972760">
        <ele>1505.2</ele>
        <time>2023-01-14T10:34:10Z</time>
      </trkpt>
      <trkpt lat="42.6858540" lon="-0.4972200">
        <ele>1505.6</ele>
        <time>2023-01-14T10:34:11Z</time>
      </trkpt>
      <trkpt lat="42.6858490" lon="-0.4971650">
        <ele>1506.0</ele>
        <time>2023-01-14T10:34:12Z</time>
      </trkpt>
      <trkpt lat="42.6858440" lon="-0.4971120">
        <ele>1506.4</ele>
        <time>2023-01-14T10:34:13Z</time>
      </trkpt>
      <trkpt lat="42.6858410" lon="-0.4970600">
        <ele>1506.4</ele>
        <time>2023-01-14T10:34:14Z</time>
      </trkpt>
      <trkpt lat="42.6858360" lon="-0.4970080">
        <ele>1506.6</ele>
        <time>2023-01-14T10:34:15Z</time>
      </trkpt>
      <trkpt lat="42.6858340" lon="-0.4969560">
        <ele>1507.0</ele>
        <time>2023-01-14T10:34:16Z</time>
      </trkpt>
      <trkpt lat="42.6858310" lon="-0.4969030">
        <ele>1507.4</ele>
        <time>2023-01-14T10:34:17Z</time>
      </trkpt>
      <trkpt lat="42.6858310" lon="-0.4968490">
        <ele>1508.0</ele>
        <time>2023-01-14T10:34:18Z</time>
      </trkpt>
      <trkpt lat="42.6858320" lon="-0.4967960">
        <ele>1508.4</ele>
        <time>2023-01-14T10:34:19Z</time>
      </trkpt>
      <trkpt lat="42.6858340" lon="-0.4967710">
        <ele>1508.8</ele>
        <time>2023-01-14T10:34:20Z</time>
      </trkpt>
      <trkpt lat="42.6858360" lon="-0.4967450">
        <ele>1509.0</ele>
        <time>2023-01-14T10:34:21Z</time>
      </trkpt>
      <trkpt lat="42.6858380" lon="-0.4966950">
        <ele>1509.2</ele>
        <time>2023-01-14T10:34:22Z</time>
      </trkpt>
      <trkpt lat="42.6858380" lon="-0.4966450">
        <ele>1509.4</ele>
        <time>2023-01-14T10:34:23Z</time>
      </trkpt>
      <trkpt lat="42.6858420" lon="-0.4965970">
        <ele>1509.8</ele>
        <time>2023-01-14T10:34:24Z</time>
      </trkpt>
      <trkpt lat="42.6858390" lon="-0.4965460">
        <ele>1510.2</ele>
        <time>2023-01-14T10:34:25Z</time>
      </trkpt>
      <trkpt lat="42.6858380" lon="-0.4964430">
        <ele>1510.6</ele>
        <time>2023-01-14T10:34:26Z</time>
      </trkpt>
      <trkpt lat="42.6858370" lon="-0.4963910">
        <ele>1511.0</ele>
        <time>2023-01-14T10:34:27Z</time>
      </trkpt>
      <trkpt lat="42.6858380" lon="-0.4963390">
        <ele>1511.2</ele>
        <time>2023-01-14T10:34:28Z</time>
      </trkpt>
      <trkpt lat="42.6858380" lon="-0.4962890">
        <ele>1511.6</ele>
        <time>2023-01-14T10:34:29Z</time>
      </trkpt>
      <trkpt lat="42.6858380" lon="-0.4962890">
        <ele>1512.0</ele>
        <time>2023-01-14T10:34:30Z</time>
      </trkpt>
      <trkpt lat="42.6858420" lon="-0.4962420">
        <ele>1512.4</ele>
        <time>2023-01-14T10:34:31Z</time>
      </trkpt>
      <trkpt lat="42.6858720" lon="-0.4961390">
        <ele>1513.0</ele>
        <time>2023-01-14T10:34:32Z</time>
      </trkpt>
      <trkpt lat="42.6858980" lon="-0.4960850">
        <ele>1513.2</ele>
        <time>2023-01-14T10:34:33Z</time>
      </trkpt>
      <trkpt lat="42.6859200" lon="-0.4960320">
        <ele>1513.2</ele>
        <time>2023-01-14T10:34:34Z</time>
      </trkpt>
      <trkpt lat="42.6859440" lon="-0.4959790">
        <ele>1513.6</ele>
        <time>2023-01-14T10:34:35Z</time>
      </trkpt>
      <trkpt lat="42.6859660" lon="-0.4959280">
        <ele>1514.2</ele>
        <time>2023-01-14T10:34:36Z</time>
      </trkpt>
      <trkpt lat="42.6859880" lon="-0.4958810">
        <ele>1514.6</ele>
        <time>2023-01-14T10:34:37Z</time>
      </trkpt>
      <trkpt lat="42.6860110" lon="-0.4958430">
        <ele>1514.8</ele>
        <time>2023-01-14T10:34:38Z</time>
      </trkpt>
      <trkpt lat="42.6860350" lon="-0.4958060">
        <ele>1515.0</ele>
        <time>2023-01-14T10:34:39Z</time>
      </trkpt>
      <trkpt lat="42.6860620" lon="-0.4957690">
        <ele>1515.2</ele>
        <time>2023-01-14T10:34:40Z</time>
      </trkpt>
      <trkpt lat="42.6860890" lon="-0.4957380">
        <ele>1515.4</ele>
        <time>2023-01-14T10:34:41Z</time>
      </trkpt>
      <trkpt lat="42.6861110" lon="-0.4957070">
        <ele>1515.6</ele>
        <time>2023-01-14T10:34:42Z</time>
      </trkpt>
      <trkpt lat="42.6861340" lon="-0.4956850">
        <ele>1515.6</ele>
        <time>2023-01-14T10:34:43Z</time>
      </trkpt>
      <trkpt lat="42.6861570" lon="-0.4956690">
        <ele>1515.8</ele>
        <time>2023-01-14T10:34:44Z</time>
      </trkpt>
      <trkpt lat="42.6861890" lon="-0.4956550">
        <ele>1516.2</ele>
        <time>2023-01-14T10:34:45Z</time>
      </trkpt>
      <trkpt lat="42.6862280" lon="-0.4956430">
        <ele>1516.4</ele>
        <time>2023-01-14T10:34:46Z</time>
      </trkpt>
      <trkpt lat="42.6862770" lon="-0.4956310">
        <ele>1516.8</ele>
        <time>2023-01-14T10:34:47Z</time>
      </trkpt>
      <trkpt lat="42.6863280" lon="-0.4956210">
        <ele>1517.0</ele>
        <time>2023-01-14T10:34:48Z</time>
      </trkpt>
      <trkpt lat="42.6863770" lon="-0.4956170">
        <ele>1517.2</ele>
        <time>2023-01-14T10:34:49Z</time>
      </trkpt>
      <trkpt lat="42.6864270" lon="-0.4956110">
        <ele>1517.6</ele>
        <time>2023-01-14T10:34:50Z</time>
      </trkpt>
      <trkpt lat="42.6864780" lon="-0.4956080">
        <ele>1517.8</ele>
        <time>2023-01-14T10:34:51Z</time>
      </trkpt>
      <trkpt lat="42.6865300" lon="-0.4956040">
        <ele>1518.0</ele>
        <time>2023-01-14T10:34:52Z</time>
      </trkpt>
      <trkpt lat="42.6865770" lon="-0.4955980">
        <ele>1518.4</ele>
        <time>2023-01-14T10:34:53Z</time>
      </trkpt>
      <trkpt lat="42.6866250" lon="-0.4955930">
        <ele>1518.8</ele>
        <time>2023-01-14T10:34:54Z</time>
      </trkpt>
      <trkpt lat="42.6866730" lon="-0.4955860">
        <ele>1519.2</ele>
        <time>2023-01-14T10:34:55Z</time>
      </trkpt>
      <trkpt lat="42.6867140" lon="-0.4955760">
        <ele>1519.4</ele>
        <time>2023-01-14T10:34:56Z</time>
      </trkpt>
      <trkpt lat="42.6867530" lon="-0.4955620">
        <ele>1519.6</ele>
        <time>2023-01-14T10:34:57Z</time>
      </trkpt>
      <trkpt lat="42.6867960" lon="-0.4955480">
        <ele>1520.2</ele>
        <time>2023-01-14T10:34:58Z</time>
      </trkpt>
      <trkpt lat="42.6868350" lon="-0.4955310">
        <ele>1520.4</ele>
        <time>2023-01-14T10:34:59Z</time>
      </trkpt>
      <trkpt lat="42.6868730" lon="-0.4955170">
        <ele>1520.6</ele>
        <time>2023-01-14T10:35:00Z</time>
      </trkpt>
      <trkpt lat="42.6869090" lon="-0.4955010">
        <ele>1521.0</ele>
        <time>2023-01-14T10:35:01Z</time>
      </trkpt>
      <trkpt lat="42.6869470" lon="-0.4954790">
        <ele>1521.6</ele>
        <time>2023-01-14T10:35:02Z</time>
      </trkpt>
      <trkpt lat="42.6869860" lon="-0.4954550">
        <ele>1521.8</ele>
        <time>2023-01-14T10:35:03Z</time>
      </trkpt>
      <trkpt lat="42.6870200" lon="-0.4954270">
        <ele>1522.6</ele>
        <time>2023-01-14T10:35:04Z</time>
      </trkpt>
      <trkpt lat="42.6870510" lon="-0.4953930">
        <ele>1523.0</ele>
        <time>2023-01-14T10:35:05Z</time>
      </trkpt>
      <trkpt lat="42.6870820" lon="-0.4953520">
        <ele>1523.2</ele>
        <time>2023-01-14T10:35:06Z</time>
      </trkpt>
      <trkpt lat="42.6871040" lon="-0.4952940">
        <ele>1524.0</ele>
        <time>2023-01-14T10:35:07Z</time>
      </trkpt>
      <trkpt lat="42.6871280" lon="-0.4952450">
        <ele>1524.8</ele>
        <time>2023-01-14T10:35:08Z</time>
      </trkpt>
      <trkpt lat="42.6871500" lon="-0.4951930">
        <ele>1525.2</ele>
        <time>2023-01-14T10:35:09Z</time>
      </trkpt>
      <trkpt lat="42.6871620" lon="-0.4951350">
        <ele>1525.6</ele>
        <time>2023-01-14T10:35:10Z</time>
      </trkpt>
      <trkpt lat="42.6871710" lon="-0.4950830">
        <ele>1526.2</ele>
        <time>2023-01-14T10:35:11Z</time>
      </trkpt>
      <trkpt lat="42.6871730" lon="-0.4950290">
        <ele>1526.6</ele>
        <time>2023-01-14T10:35:12Z</time>
      </trkpt>
      <trkpt lat="42.6871700" lon="-0.4949750">
        <ele>1527.2</ele>
        <time>2023-01-14T10:35:13Z</time>
      </trkpt>
      <trkpt lat="42.6871660" lon="-0.4949230">
        <ele>1527.4</ele>
        <time>2023-01-14T10:35:14Z</time>
      </trkpt>
      <trkpt lat="42.6871610" lon="-0.4948710">
        <ele>1528.2</ele>
        <time>2023-01-14T10:35:15Z</time>
      </trkpt>
      <trkpt lat="42.6871580" lon="-0.4948210">
        <ele>1528.4</ele>
        <time>2023-01-14T10:35:16Z</time>
      </trkpt>
      <trkpt lat="42.6871560" lon="-0.4947710">
        <ele>1529.2</ele>
        <time>2023-01-14T10:35:17Z</time>
      </trkpt>
      <trkpt lat="42.6871540" lon="-0.4947200">
        <ele>1529.6</ele>
        <time>2023-01-14T10:35:18Z</time>
      </trkpt>
      <trkpt lat="42.6871510" lon="-0.4946700">
        <ele>1530.2</ele>
        <time>2023-01-14T10:35:19Z</time>
      </trkpt>
      <trkpt lat="42.6871440" lon="-0.4946200">
        <ele>1530.4</ele>
        <time>2023-01-14T10:35:20Z</time>
      </trkpt>
      <trkpt lat="42.6871380" lon="-0.4945690">
        <ele>1531.0</ele>
        <time>2023-01-14T10:35:21Z</time>
      </trkpt>
      <trkpt lat="42.6871340" lon="-0.4945190">
        <ele>1531.6</ele>
        <time>2023-01-14T10:35:22Z</time>
      </trkpt>
      <trkpt lat="42.6871380" lon="-0.4944690">
        <ele>1532.0</ele>
        <time>2023-01-14T10:35:23Z</time>
      </trkpt>
      <trkpt lat="42.6871450" lon="-0.4944220">
        <ele>1532.6</ele>
        <time>2023-01-14T10:35:24Z</time>
      </trkpt>
      <trkpt lat="42.6871560" lon="-0.4943740">
        <ele>1533.0</ele>
        <time>2023-01-14T10:35:25Z</time>
      </trkpt>
      <trkpt lat="42.6871710" lon="-0.4943300">
        <ele>1533.8</ele>
        <time>2023-01-14T10:35:26Z</time>
      </trkpt>
      <trkpt lat="42.6871890" lon="-0.4942850">
        <ele>1534.2</ele>
        <time>2023-01-14T10:35:27Z</time>
      </trkpt>
      <trkpt lat="42.6872100" lon="-0.4942400">
        <ele>1534.6</ele>
        <time>2023-01-14T10:35:28Z</time>
      </trkpt>
      <trkpt lat="42.6872350" lon="-0.4941990">
        <ele>1535.4</ele>
        <time>2023-01-14T10:35:29Z</time>
      </trkpt>
      <trkpt lat="42.6872540" lon="-0.4941580">
        <ele>1536.0</ele>
        <time>2023-01-14T10:35:30Z</time>
      </trkpt>
      <trkpt lat="42.6872810" lon="-0.4941210">
        <ele>1536.4</ele>
        <time>2023-01-14T10:35:31Z</time>
      </trkpt>
      <trkpt lat="42.6873090" lon="-0.4940850">
        <ele>1537.0</ele>
        <time>2023-01-14T10:35:32Z</time>
      </trkpt>
      <trkpt lat="42.6873380" lon="-0.4940540">
        <ele>1537.4</ele>
        <time>2023-01-14T10:35:33Z</time>
      </trkpt>
      <trkpt lat="42.6873790" lon="-0.4940240">
        <ele>1537.8</ele>
        <time>2023-01-14T10:35:34Z</time>
      </trkpt>
      <trkpt lat="42.6874080" lon="-0.4939890">
        <ele>1538.4</ele>
        <time>2023-01-14T10:35:35Z</time>
      </trkpt>
      <trkpt lat="42.6874350" lon="-0.4939530">
        <ele>1538.8</ele>
        <time>2023-01-14T10:35:36Z</time>
      </trkpt>
      <trkpt lat="42.6874560" lon="-0.4939130">
        <ele>1539.0</ele>
        <time>2023-01-14T10:35:37Z</time>
      </trkpt>
      <trkpt lat="42.6874710" lon="-0.4938660">
        <ele>1539.4</ele>
        <time>2023-01-14T10:35:38Z</time>
      </trkpt>
      <trkpt lat="42.6874790" lon="-0.4938180">
        <ele>1540.0</ele>
        <time>2023-01-14T10:35:39Z</time>
      </trkpt>
      <trkpt lat="42.6874760" lon="-0.4937660">
        <ele>1540.8</ele>
        <time>2023-01-14T10:35:40Z</time>
      </trkpt>
      <trkpt lat="42.6874660" lon="-0.4937200">
        <ele>1541.2</ele>
        <time>2023-01-14T10:35:41Z</time>
      </trkpt>
      <trkpt lat="42.6874510" lon="-0.4936760">
        <ele>1541.6</ele>
        <time>2023-01-14T10:35:42Z</time>
      </trkpt>
      <trkpt lat="42.6874420" lon="-0.4936310">
        <ele>1542.2</ele>
        <time>2023-01-14T10:35:43Z</time>
      </trkpt>
      <trkpt lat="42.6874360" lon="-0.4935860">
        <ele>1542.8</ele>
        <time>2023-01-14T10:35:44Z</time>
      </trkpt>
      <trkpt lat="42.6874350" lon="-0.4935400">
        <ele>1543.2</ele>
        <time>2023-01-14T10:35:45Z</time>
      </trkpt>
      <trkpt lat="42.6874380" lon="-0.4934940">
        <ele>1543.6</ele>
        <time>2023-01-14T10:35:46Z</time>
      </trkpt>
      <trkpt lat="42.6874440" lon="-0.4934470">
        <ele>1544.0</ele>
        <time>2023-01-14T10:35:47Z</time>
      </trkpt>
      <trkpt lat="42.6874520" lon="-0.4934010">
        <ele>1544.4</ele>
        <time>2023-01-14T10:35:48Z</time>
      </trkpt>
      <trkpt lat="42.6874610" lon="-0.4933570">
        <ele>1544.8</ele>
        <time>2023-01-14T10:35:49Z</time>
      </trkpt>
      <trkpt lat="42.6874700" lon="-0.4933140">
        <ele>1545.2</ele>
        <time>2023-01-14T10:35:50Z</time>
      </trkpt>
      <trkpt lat="42.6874800" lon="-0.4932710">
        <ele>1545.6</ele>
        <time>2023-01-14T10:35:51Z</time>
      </trkpt>
      <trkpt lat="42.6874880" lon="-0.4932310">
        <ele>1546.0</ele>
        <time>2023-01-14T10:35:52Z</time>
      </trkpt>
      <trkpt lat="42.6874990" lon="-0.4931900">
        <ele>1546.4</ele>
        <time>2023-01-14T10:35:53Z</time>
      </trkpt>
      <trkpt lat="42.6875070" lon="-0.4931460">
        <ele>1546.8</ele>
        <time>2023-01-14T10:35:54Z</time>
      </trkpt>
      <trkpt lat="42.6875190" lon="-0.4930990">
        <ele>1547.2</ele>
        <time>2023-01-14T10:35:55Z</time>
      </trkpt>
      <trkpt lat="42.6875330" lon="-0.4930510">
        <ele>1547.6</ele>
        <time>2023-01-14T10:35:56Z</time>
      </trkpt>
      <trkpt lat="42.6875500" lon="-0.4930040">
        <ele>1548.2</ele>
        <time>2023-01-14T10:35:57Z</time>
      </trkpt>
      <trkpt lat="42.6875700" lon="-0.4929590">
        <ele>1548.8</ele>
        <time>2023-01-14T10:35:58Z</time>
      </trkpt>
      <trkpt lat="42.6875980" lon="-0.4929180">
        <ele>1549.0</ele>
        <time>2023-01-14T10:35:59Z</time>
      </trkpt>
      <trkpt lat="42.6876270" lon="-0.4928800">
        <ele>1549.4</ele>
        <time>2023-01-14T10:36:00Z</time>
      </trkpt>
      <trkpt lat="42.6876540" lon="-0.4928450">
        <ele>1550.0</ele>
        <time>2023-01-14T10:36:01Z</time>
      </trkpt>
      <trkpt lat="42.6876790" lon="-0.4928110">
        <ele>1550.4</ele>
        <time>2023-01-14T10:36:02Z</time>
      </trkpt>
      <trkpt lat="42.6877120" lon="-0.4927900">
        <ele>1550.6</ele>
        <time>2023-01-14T10:36:03Z</time>
      </trkpt>
      <trkpt lat="42.6877480" lon="-0.4927690">
        <ele>1551.0</ele>
        <time>2023-01-14T10:36:04Z</time>
      </trkpt>
      <trkpt lat="42.6877860" lon="-0.4927460">
        <ele>1551.0</ele>
        <time>2023-01-14T10:36:05Z</time>
      </trkpt>
      <trkpt lat="42.6878220" lon="-0.4927210">
        <ele>1551.2</ele>
        <time>2023-01-14T10:36:06Z</time>
      </trkpt>
      <trkpt lat="42.6878550" lon="-0.4926930">
        <ele>1551.2</ele>
        <time>2023-01-14T10:36:07Z</time>
      </trkpt>
      <trkpt lat="42.6878860" lon="-0.4926650">
        <ele>1551.4</ele>
        <time>2023-01-14T10:36:08Z</time>
      </trkpt>
      <trkpt lat="42.6879180" lon="-0.4926340">
        <ele>1551.6</ele>
        <time>2023-01-14T10:36:09Z</time>
      </trkpt>
      <trkpt lat="42.6879490" lon="-0.4926060">
        <ele>1552.0</ele>
        <time>2023-01-14T10:36:10Z</time>
      </trkpt>
      <trkpt lat="42.6879810" lon="-0.4925810">
        <ele>1552.2</ele>
        <time>2023-01-14T10:36:11Z</time>
      </trkpt>
      <trkpt lat="42.6880130" lon="-0.4925580">
        <ele>1552.4</ele>
        <time>2023-01-14T10:36:12Z</time>
      </trkpt>
      <trkpt lat="42.6880480" lon="-0.4925340">
        <ele>1552.6</ele>
        <time>2023-01-14T10:36:13Z</time>
      </trkpt>
      <trkpt lat="42.6880840" lon="-0.4925110">
        <ele>1553.0</ele>
        <time>2023-01-14T10:36:14Z</time>
      </trkpt>
      <trkpt lat="42.6881270" lon="-0.4924930">
        <ele>1553.2</ele>
        <time>2023-01-14T10:36:15Z</time>
      </trkpt>
      <trkpt lat="42.6881640" lon="-0.4924780">
        <ele>1553.4</ele>
        <time>2023-01-14T10:36:16Z</time>
      </trkpt>
      <trkpt lat="42.6882010" lon="-0.4924610">
        <ele>1553.8</ele>
        <time>2023-01-14T10:36:17Z</time>
      </trkpt>
      <trkpt lat="42.6882480" lon="-0.4924470">
        <ele>1554.0</ele>
        <time>2023-01-14T10:36:18Z</time>
      </trkpt>
      <trkpt lat="42.6882830" lon="-0.4924450">
        <ele>1554.2</ele>
        <time>2023-01-14T10:36:19Z</time>
      </trkpt>
      <trkpt lat="42.6883200" lon="-0.4924300">
        <ele>1554.6</ele>
        <time>2023-01-14T10:36:20Z</time>
      </trkpt>
      <trkpt lat="42.6883590" lon="-0.4924040">
        <ele>1554.8</ele>
        <time>2023-01-14T10:36:21Z</time>
      </trkpt>
      <trkpt lat="42.6883920" lon="-0.4923690">
        <ele>1555.0</ele>
        <time>2023-01-14T10:36:22Z</time>
      </trkpt>
      <trkpt lat="42.6884260" lon="-0.4923340">
        <ele>1555.2</ele>
        <time>2023-01-14T10:36:23Z</time>
      </trkpt>
      <trkpt lat="42.6884540" lon="-0.4922780">
        <ele>1555.6</ele>
        <time>2023-01-14T10:36:24Z</time>
      </trkpt>
      <trkpt lat="42.6884770" lon="-0.4922200">
        <ele>1555.8</ele>
        <time>2023-01-14T10:36:25Z</time>
      </trkpt>
      <trkpt lat="42.6884980" lon="-0.4921700">
        <ele>1556.2</ele>
        <time>2023-01-14T10:36:26Z</time>
      </trkpt>
      <trkpt lat="42.6885070" lon="-0.4921100">
        <ele>1556.6</ele>
        <time>2023-01-14T10:36:27Z</time>
      </trkpt>
      <trkpt lat="42.6885010" lon="-0.4920520">
        <ele>1556.8</ele>
        <time>2023-01-14T10:36:28Z</time>
      </trkpt>
      <trkpt lat="42.6884830" lon="-0.4919970">
        <ele>1557.0</ele>
        <time>2023-01-14T10:36:29Z</time>
      </trkpt>
      <trkpt lat="42.6884550" lon="-0.4919530">
        <ele>1557.6</ele>
        <time>2023-01-14T10:36:30Z</time>
      </trkpt>
      <trkpt lat="42.6884130" lon="-0.4919130">
        <ele>1558.0</ele>
        <time>2023-01-14T10:36:31Z</time>
      </trkpt>
      <trkpt lat="42.6883740" lon="-0.4918770">
        <ele>1558.4</ele>
        <time>2023-01-14T10:36:32Z</time>
      </trkpt>
      <trkpt lat="42.6883390" lon="-0.4918440">
        <ele>1558.6</ele>
        <time>2023-01-14T10:36:33Z</time>
      </trkpt>
      <trkpt lat="42.6883050" lon="-0.4918080">
        <ele>1558.6</ele>
        <time>2023-01-14T10:36:34Z</time>
      </trkpt>
      <trkpt lat="42.6882700" lon="-0.4917730">
        <ele>1559.0</ele>
        <time>2023-01-14T10:36:35Z</time>
      </trkpt>
      <trkpt lat="42.6882340" lon="-0.4917400">
        <ele>1559.0</ele>
        <time>2023-01-14T10:36:36Z</time>
      </trkpt>
      <trkpt lat="42.6881970" lon="-0.4917100">
        <ele>1559.4</ele>
        <time>2023-01-14T10:36:37Z</time>
      </trkpt>
      <trkpt lat="42.6881630" lon="-0.4916770">
        <ele>1559.6</ele>
        <time>2023-01-14T10:36:38Z</time>
      </trkpt>
      <trkpt lat="42.6881270" lon="-0.4916490">
        <ele>1560.2</ele>
        <time>2023-01-14T10:36:39Z</time>
      </trkpt>
      <trkpt lat="42.6880930" lon="-0.4916230">
        <ele>1560.6</ele>
        <time>2023-01-14T10:36:40Z</time>
      </trkpt>
      <trkpt lat="42.6880630" lon="-0.4915950">
        <ele>1561.0</ele>
        <time>2023-01-14T10:36:41Z</time>
      </trkpt>
      <trkpt lat="42.6880320" lon="-0.4915640">
        <ele>1561.4</ele>
        <time>2023-01-14T10:36:42Z</time>
      </trkpt>
      <trkpt lat="42.6879990" lon="-0.4915290">
        <ele>1561.6</ele>
        <time>2023-01-14T10:36:43Z</time>
      </trkpt>
      <trkpt lat="42.6879720" lon="-0.4914920">
        <ele>1562.0</ele>
        <time>2023-01-14T10:36:44Z</time>
      </trkpt>
      <trkpt lat="42.6879450" lon="-0.4914550">
        <ele>1562.2</ele>
        <time>2023-01-14T10:36:45Z</time>
      </trkpt>
      <trkpt lat="42.6879170" lon="-0.4914190">
        <ele>1562.6</ele>
        <time>2023-01-14T10:36:46Z</time>
      </trkpt>
      <trkpt lat="42.6878830" lon="-0.4913790">
        <ele>1562.8</ele>
        <time>2023-01-14T10:36:47Z</time>
      </trkpt>
      <trkpt lat="42.6878530" lon="-0.4913370">
        <ele>1563.0</ele>
        <time>2023-01-14T10:36:48Z</time>
      </trkpt>
      <trkpt lat="42.6878240" lon="-0.4912910">
        <ele>1563.4</ele>
        <time>2023-01-14T10:36:49Z</time>
      </trkpt>
      <trkpt lat="42.6877990" lon="-0.4912410">
        <ele>1563.6</ele>
        <time>2023-01-14T10:36:50Z</time>
      </trkpt>
      <trkpt lat="42.6877770" lon="-0.4911900">
        <ele>1564.0</ele>
        <time>2023-01-14T10:36:51Z</time>
      </trkpt>
      <trkpt lat="42.6877630" lon="-0.4911370">
        <ele>1564.2</ele>
        <time>2023-01-14T10:36:52Z</time>
      </trkpt>
      <trkpt lat="42.6877510" lon="-0.4910770">
        <ele>1564.6</ele>
        <time>2023-01-14T10:36:53Z</time>
      </trkpt>
      <trkpt lat="42.6877340" lon="-0.4910190">
        <ele>1565.0</ele>
        <time>2023-01-14T10:36:54Z</time>
      </trkpt>
      <trkpt lat="42.6877230" lon="-0.4909530">
        <ele>1565.2</ele>
        <time>2023-01-14T10:36:55Z</time>
      </trkpt>
      <trkpt lat="42.6877150" lon="-0.4908860">
        <ele>1565.4</ele>
        <time>2023-01-14T10:36:56Z</time>
      </trkpt>
      <trkpt lat="42.6877130" lon="-0.4908160">
        <ele>1565.8</ele>
        <time>2023-01-14T10:36:57Z</time>
      </trkpt>
      <trkpt lat="42.6877130" lon="-0.4907450">
        <ele>1566.0</ele>
        <time>2023-01-14T10:36:58Z</time>
      </trkpt>
      <trkpt lat="42.6877120" lon="-0.4906770">
        <ele>1566.0</ele>
        <time>2023-01-14T10:36:59Z</time>
      </trkpt>
      <trkpt lat="42.6877130" lon="-0.4906080">
        <ele>1566.4</ele>
        <time>2023-01-14T10:37:00Z</time>
      </trkpt>
      <trkpt lat="42.6877130" lon="-0.4905390">
        <ele>1566.6</ele>
        <time>2023-01-14T10:37:01Z</time>
      </trkpt>
      <trkpt lat="42.6877150" lon="-0.4904700">
        <ele>1566.8</ele>
        <time>2023-01-14T10:37:02Z</time>
      </trkpt>
      <trkpt lat="42.6877190" lon="-0.4904000">
        <ele>1567.0</ele>
        <time>2023-01-14T10:37:03Z</time>
      </trkpt>
      <trkpt lat="42.6877260" lon="-0.4903280">
        <ele>1567.2</ele>
        <time>2023-01-14T10:37:04Z</time>
      </trkpt>
      <trkpt lat="42.6877320" lon="-0.4902560">
        <ele>1567.2</ele>
        <time>2023-01-14T10:37:05Z</time>
      </trkpt>
      <trkpt lat="42.6877350" lon="-0.4901820">
        <ele>1567.4</ele>
        <time>2023-01-14T10:37:06Z</time>
      </trkpt>
      <trkpt lat="42.6877340" lon="-0.4901080">
        <ele>1567.6</ele>
        <time>2023-01-14T10:37:07Z</time>
      </trkpt>
      <trkpt lat="42.6877280" lon="-0.4900340">
        <ele>1567.8</ele>
        <time>2023-01-14T10:37:08Z</time>
      </trkpt>
      <trkpt lat="42.6877210" lon="-0.4899600">
        <ele>1568.4</ele>
        <time>2023-01-14T10:37:09Z</time>
      </trkpt>
      <trkpt lat="42.6877110" lon="-0.4898880">
        <ele>1568.6</ele>
        <time>2023-01-14T10:37:10Z</time>
      </trkpt>
      <trkpt lat="42.6877080" lon="-0.4898180">
        <ele>1568.8</ele>
        <time>2023-01-14T10:37:11Z</time>
      </trkpt>
      <trkpt lat="42.6876980" lon="-0.4897480">
        <ele>1569.0</ele>
        <time>2023-01-14T10:37:12Z</time>
      </trkpt>
      <trkpt lat="42.6876820" lon="-0.4896840">
        <ele>1569.2</ele>
        <time>2023-01-14T10:37:13Z</time>
      </trkpt>
      <trkpt lat="42.6876580" lon="-0.4896260">
        <ele>1569.6</ele>
        <time>2023-01-14T10:37:14Z</time>
      </trkpt>
      <trkpt lat="42.6876300" lon="-0.4895710">
        <ele>1569.8</ele>
        <time>2023-01-14T10:37:15Z</time>
      </trkpt>
      <trkpt lat="42.6875990" lon="-0.4895210">
        <ele>1570.0</ele>
        <time>2023-01-14T10:37:16Z</time>
      </trkpt>
      <trkpt lat="42.6875690" lon="-0.4894750">
        <ele>1570.2</ele>
        <time>2023-01-14T10:37:17Z</time>
      </trkpt>
      <trkpt lat="42.6875390" lon="-0.4894320">
        <ele>1570.4</ele>
        <time>2023-01-14T10:37:18Z</time>
      </trkpt>
      <trkpt lat="42.6875070" lon="-0.4893890">
        <ele>1570.6</ele>
        <time>2023-01-14T10:37:19Z</time>
      </trkpt>
      <trkpt lat="42.6874770" lon="-0.4893460">
        <ele>1571.4</ele>
        <time>2023-01-14T10:37:20Z</time>
      </trkpt>
      <trkpt lat="42.6874510" lon="-0.4893010">
        <ele>1572.0</ele>
        <time>2023-01-14T10:37:21Z</time>
      </trkpt>
      <trkpt lat="42.6874390" lon="-0.4892490">
        <ele>1572.4</ele>
        <time>2023-01-14T10:37:22Z</time>
      </trkpt>
      <trkpt lat="42.6874430" lon="-0.4891990">
        <ele>1572.6</ele>
        <time>2023-01-14T10:37:23Z</time>
      </trkpt>
      <trkpt lat="42.6874630" lon="-0.4891560">
        <ele>1573.2</ele>
        <time>2023-01-14T10:37:24Z</time>
      </trkpt>
      <trkpt lat="42.6874960" lon="-0.4891240">
        <ele>1573.8</ele>
        <time>2023-01-14T10:37:25Z</time>
      </trkpt>
      <trkpt lat="42.6875350" lon="-0.4891070">
        <ele>1574.4</ele>
        <time>2023-01-14T10:37:26Z</time>
      </trkpt>
      <trkpt lat="42.6875700" lon="-0.4891170">
        <ele>1575.0</ele>
        <time>2023-01-14T10:37:27Z</time>
      </trkpt>
      <trkpt lat="42.6876030" lon="-0.4891470">
        <ele>1575.6</ele>
        <time>2023-01-14T10:37:28Z</time>
      </trkpt>
      <trkpt lat="42.6876330" lon="-0.4891910">
        <ele>1576.0</ele>
        <time>2023-01-14T10:37:29Z</time>
      </trkpt>
      <trkpt lat="42.6876570" lon="-0.4892400">
        <ele>1576.4</ele>
        <time>2023-01-14T10:37:30Z</time>
      </trkpt>
      <trkpt lat="42.6876790" lon="-0.4892920">
        <ele>1576.6</ele>
        <time>2023-01-14T10:37:31Z</time>
      </trkpt>
      <trkpt lat="42.6877010" lon="-0.4893460">
        <ele>1577.0</ele>
        <time>2023-01-14T10:37:32Z</time>
      </trkpt>
      <trkpt lat="42.6877270" lon="-0.4893980">
        <ele>1577.2</ele>
        <time>2023-01-14T10:37:33Z</time>
      </trkpt>
      <trkpt lat="42.6877540" lon="-0.4894490">
        <ele>1578.0</ele>
        <time>2023-01-14T10:37:34Z</time>
      </trkpt>
      <trkpt lat="42.6877800" lon="-0.4895010">
        <ele>1578.4</ele>
        <time>2023-01-14T10:37:35Z</time>
      </trkpt>
      <trkpt lat="42.6878070" lon="-0.4895540">
        <ele>1578.8</ele>
        <time>2023-01-14T10:37:36Z</time>
      </trkpt>
      <trkpt lat="42.6878330" lon="-0.4896050">
        <ele>1579.0</ele>
        <time>2023-01-14T10:37:37Z</time>
      </trkpt>
      <trkpt lat="42.6878600" lon="-0.4896560">
        <ele>1579.4</ele>
        <time>2023-01-14T10:37:38Z</time>
      </trkpt>
      <trkpt lat="42.6878860" lon="-0.4897060">
        <ele>1579.8</ele>
        <time>2023-01-14T10:37:39Z</time>
      </trkpt>
      <trkpt lat="42.6879130" lon="-0.4897550">
        <ele>1580.2</ele>
        <time>2023-01-14T10:37:40Z</time>
      </trkpt>
      <trkpt lat="42.6879400" lon="-0.4898020">
        <ele>1580.4</ele>
        <time>2023-01-14T10:37:41Z</time>
      </trkpt>
      <trkpt lat="42.6879670" lon="-0.4898480">
        <ele>1580.8</ele>
        <time>2023-01-14T10:37:42Z</time>
      </trkpt>
      <trkpt lat="42.6879920" lon="-0.4898950">
        <ele>1581.2</ele>
        <time>2023-01-14T10:37:43Z</time>
      </trkpt>
      <trkpt lat="42.6880130" lon="-0.4899450">
        <ele>1581.6</ele>
        <time>2023-01-14T10:37:44Z</time>
      </trkpt>
      <trkpt lat="42.6880310" lon="-0.4899940">
        <ele>1582.0</ele>
        <time>2023-01-14T10:37:45Z</time>
      </trkpt>
      <trkpt lat="42.6880490" lon="-0.4900450">
        <ele>1582.8</ele>
        <time>2023-01-14T10:37:46Z</time>
      </trkpt>
      <trkpt lat="42.6880650" lon="-0.4900990">
        <ele>1583.0</ele>
        <time>2023-01-14T10:37:47Z</time>
      </trkpt>
      <trkpt lat="42.6880790" lon="-0.4901550">
        <ele>1583.4</ele>
        <time>2023-01-14T10:37:48Z</time>
      </trkpt>
      <trkpt lat="42.6880860" lon="-0.4902120">
        <ele>1583.6</ele>
        <time>2023-01-14T10:37:49Z</time>
      </trkpt>
      <trkpt lat="42.6880950" lon="-0.4902690">
        <ele>1583.8</ele>
        <time>2023-01-14T10:37:50Z</time>
      </trkpt>
      <trkpt lat="42.6881070" lon="-0.4903240">
        <ele>1584.4</ele>
        <time>2023-01-14T10:37:51Z</time>
      </trkpt>
      <trkpt lat="42.6881140" lon="-0.4903790">
        <ele>1584.6</ele>
        <time>2023-01-14T10:37:52Z</time>
      </trkpt>
      <trkpt lat="42.6881200" lon="-0.4904310">
        <ele>1584.8</ele>
        <time>2023-01-14T10:37:53Z</time>
      </trkpt>
      <trkpt lat="42.6881170" lon="-0.4904830">
        <ele>1585.4</ele>
        <time>2023-01-14T10:37:54Z</time>
      </trkpt>
      <trkpt lat="42.6881160" lon="-0.4905340">
        <ele>1585.6</ele>
        <time>2023-01-14T10:37:55Z</time>
      </trkpt>
      <trkpt lat="42.6881170" lon="-0.4905840">
        <ele>1586.2</ele>
        <time>2023-01-14T10:37:56Z</time>
      </trkpt>
      <trkpt lat="42.6881160" lon="-0.4906310">
        <ele>1586.4</ele>
        <time>2023-01-14T10:37:57Z</time>
      </trkpt>
      <trkpt lat="42.6881150" lon="-0.4906780">
        <ele>1586.6</ele>
        <time>2023-01-14T10:37:58Z</time>
      </trkpt>
      <trkpt lat="42.6881020" lon="-0.4907280">
        <ele>1586.8</ele>
        <time>2023-01-14T10:37:59Z</time>
      </trkpt>
      <trkpt lat="42.6880980" lon="-0.4907800">
        <ele>1587.0</ele>
        <time>2023-01-14T10:38:00Z</time>
      </trkpt>
      <trkpt lat="42.6881030" lon="-0.4908330">
        <ele>1587.2</ele>
        <time>2023-01-14T10:38:01Z</time>
      </trkpt>
      <trkpt lat="42.6881110" lon="-0.4908860">
        <ele>1587.8</ele>
        <time>2023-01-14T10:38:02Z</time>
      </trkpt>
      <trkpt lat="42.6881230" lon="-0.4909350">
        <ele>1588.0</ele>
        <time>2023-01-14T10:38:03Z</time>
      </trkpt>
      <trkpt lat="42.6881460" lon="-0.4909790">
        <ele>1588.2</ele>
        <time>2023-01-14T10:38:04Z</time>
      </trkpt>
      <trkpt lat="42.6881710" lon="-0.4910200">
        <ele>1588.4</ele>
        <time>2023-01-14T10:38:05Z</time>
      </trkpt>
      <trkpt lat="42.6881980" lon="-0.4910580">
        <ele>1588.6</ele>
        <time>2023-01-14T10:38:06Z</time>
      </trkpt>
      <trkpt lat="42.6882250" lon="-0.4910970">
        <ele>1589.0</ele>
        <time>2023-01-14T10:38:07Z</time>
      </trkpt>
      <trkpt lat="42.6882540" lon="-0.4911340">
        <ele>1589.2</ele>
        <time>2023-01-14T10:38:08Z</time>
      </trkpt>
      <trkpt lat="42.6882860" lon="-0.4911700">
        <ele>1589.2</ele>
        <time>2023-01-14T10:38:09Z</time>
      </trkpt>
      <trkpt lat="42.6883200" lon="-0.4912040">
        <ele>1589.4</ele>
        <time>2023-01-14T10:38:10Z</time>
      </trkpt>
      <trkpt lat="42.6883550" lon="-0.4912370">
        <ele>1589.6</ele>
        <time>2023-01-14T10:38:11Z</time>
      </trkpt>
      <trkpt lat="42.6883900" lon="-0.4912710">
        <ele>1590.0</ele>
        <time>2023-01-14T10:38:12Z</time>
      </trkpt>
      <trkpt lat="42.6884230" lon="-0.4913050">
        <ele>1590.4</ele>
        <time>2023-01-14T10:38:13Z</time>
      </trkpt>
      <trkpt lat="42.6884570" lon="-0.4913360">
        <ele>1590.8</ele>
        <time>2023-01-14T10:38:14Z</time>
      </trkpt>
      <trkpt lat="42.6884900" lon="-0.4913650">
        <ele>1591.4</ele>
        <time>2023-01-14T10:38:15Z</time>
      </trkpt>
      <trkpt lat="42.6885260" lon="-0.4913900">
        <ele>1591.8</ele>
        <time>2023-01-14T10:38:16Z</time>
      </trkpt>
      <trkpt lat="42.6885600" lon="-0.4914170">
        <ele>1592.2</ele>
        <time>2023-01-14T10:38:17Z</time>
      </trkpt>
      <trkpt lat="42.6885930" lon="-0.4914440">
        <ele>1592.4</ele>
        <time>2023-01-14T10:38:18Z</time>
      </trkpt>
      <trkpt lat="42.6886260" lon="-0.4914690">
        <ele>1592.8</ele>
        <time>2023-01-14T10:38:19Z</time>
      </trkpt>
      <trkpt lat="42.6886560" lon="-0.4914960">
        <ele>1593.2</ele>
        <time>2023-01-14T10:38:20Z</time>
      </trkpt>
      <trkpt lat="42.6886880" lon="-0.4915190">
        <ele>1593.8</ele>
        <time>2023-01-14T10:38:21Z</time>
      </trkpt>
      <trkpt lat="42.6887190" lon="-0.4915310">
        <ele>1594.4</ele>
        <time>2023-01-14T10:38:22Z</time>
      </trkpt>
      <trkpt lat="42.6887450" lon="-0.4915430">
        <ele>1594.8</ele>
        <time>2023-01-14T10:38:23Z</time>
      </trkpt>
      <trkpt lat="42.6887730" lon="-0.4915530">
        <ele>1595.4</ele>
        <time>2023-01-14T10:38:24Z</time>
      </trkpt>
      <trkpt lat="42.6888020" lon="-0.4915530">
        <ele>1596.0</ele>
        <time>2023-01-14T10:38:25Z</time>
      </trkpt>
      <trkpt lat="42.6888230" lon="-0.4915360">
        <ele>1596.4</ele>
        <time>2023-01-14T10:38:26Z</time>
      </trkpt>
      <trkpt lat="42.6888360" lon="-0.4915020">
        <ele>1596.8</ele>
        <time>2023-01-14T10:38:27Z</time>
      </trkpt>
      <trkpt lat="42.6888360" lon="-0.4914570">
        <ele>1597.2</ele>
        <time>2023-01-14T10:38:28Z</time>
      </trkpt>
      <trkpt lat="42.6888200" lon="-0.4914080">
        <ele>1597.4</ele>
        <time>2023-01-14T10:38:29Z</time>
      </trkpt>
      <trkpt lat="42.6887910" lon="-0.4913690">
        <ele>1597.6</ele>
        <time>2023-01-14T10:38:30Z</time>
      </trkpt>
      <trkpt lat="42.6887600" lon="-0.4913370">
        <ele>1598.0</ele>
        <time>2023-01-14T10:38:31Z</time>
      </trkpt>
      <trkpt lat="42.6887290" lon="-0.4913090">
        <ele>1598.6</ele>
        <time>2023-01-14T10:38:32Z</time>
      </trkpt>
      <trkpt lat="42.6887020" lon="-0.4912780">
        <ele>1599.0</ele>
        <time>2023-01-14T10:38:33Z</time>
      </trkpt>
      <trkpt lat="42.6886730" lon="-0.4912490">
        <ele>1599.4</ele>
        <time>2023-01-14T10:38:34Z</time>
      </trkpt>
      <trkpt lat="42.6886470" lon="-0.4912260">
        <ele>1599.8</ele>
        <time>2023-01-14T10:38:35Z</time>
      </trkpt>
      <trkpt lat="42.6886200" lon="-0.4912060">
        <ele>1600.0</ele>
        <time>2023-01-14T10:38:36Z</time>
      </trkpt>
      <trkpt lat="42.6885970" lon="-0.4911800">
        <ele>1600.2</ele>
        <time>2023-01-14T10:38:37Z</time>
      </trkpt>
      <trkpt lat="42.6885770" lon="-0.4911510">
        <ele>1600.6</ele>
        <time>2023-01-14T10:38:38Z</time>
      </trkpt>
      <trkpt lat="42.6885530" lon="-0.4911230">
        <ele>1600.8</ele>
        <time>2023-01-14T10:38:39Z</time>
      </trkpt>
      <trkpt lat="42.6885310" lon="-0.4910950">
        <ele>1601.2</ele>
        <time>2023-01-14T10:38:40Z</time>
      </trkpt>
      <trkpt lat="42.6885110" lon="-0.4910660">
        <ele>1601.4</ele>
        <time>2023-01-14T10:38:41Z</time>
      </trkpt>
      <trkpt lat="42.6884910" lon="-0.4910390">
        <ele>1601.6</ele>
        <time>2023-01-14T10:38:42Z</time>
      </trkpt>
      <trkpt lat="42.6884810" lon="-0.4910100">
        <ele>1601.8</ele>
        <time>2023-01-14T10:38:43Z</time>
      </trkpt>
      <trkpt lat="42.6884790" lon="-0.4909950">
        <ele>1602.0</ele>
        <time>2023-01-14T10:38:44Z</time>
      </trkpt>
      <trkpt lat="42.6884780" lon="-0.4909900">
        <ele>1602.0</ele>
        <time>2023-01-14T10:38:45Z</time>
      </trkpt>
      <trkpt lat="42.6884790" lon="-0.4909930">
        <ele>1602.0</ele>
        <time>2023-01-14T10:38:46Z</time>
      </trkpt>
      <trkpt lat="42.6884790" lon="-0.4909940">
        <ele>1602.0</ele>
        <time>2023-01-14T10:38:47Z</time>
      </trkpt>
      <trkpt lat="42.6884800" lon="-0.4909930">
        <ele>1602.0</ele>
        <time>2023-01-14T10:38:48Z</time>
      </trkpt>
      <trkpt lat="42.6884810" lon="-0.4909860">
        <ele>1602.2</ele>
        <time>2023-01-14T10:38:49Z</time>
      </trkpt>
      <trkpt lat="42.6884830" lon="-0.4909740">
        <ele>1602.2</ele>
        <time>2023-01-14T10:38:50Z</time>
      </trkpt>
      <trkpt lat="42.6884890" lon="-0.4909630">
        <ele>1602.2</ele>
        <time>2023-01-14T10:38:51Z</time>
      </trkpt>
      <trkpt lat="42.6885000" lon="-0.4909540">
        <ele>1602.2</ele>
        <time>2023-01-14T10:38:52Z</time>
      </trkpt>
      <trkpt lat="42.6885100" lon="-0.4909480">
        <ele>1602.4</ele>
        <time>2023-01-14T10:38:53Z</time>
      </trkpt>
      <trkpt lat="42.6885160" lon="-0.4909480">
        <ele>1602.4</ele>
        <time>2023-01-14T10:38:54Z</time>
      </trkpt>
      <trkpt lat="42.6885240" lon="-0.4909460">
        <ele>1602.4</ele>
        <time>2023-01-14T10:38:55Z</time>
      </trkpt>
      <trkpt lat="42.6885300" lon="-0.4909470">
        <ele>1602.6</ele>
        <time>2023-01-14T10:38:56Z</time>
      </trkpt>
      <trkpt lat="42.6885380" lon="-0.4909490">
        <ele>1602.8</ele>
        <time>2023-01-14T10:38:57Z</time>
      </trkpt>
      <trkpt lat="42.6885410" lon="-0.4909480">
        <ele>1603.0</ele>
        <time>2023-01-14T10:38:58Z</time>
      </trkpt>
      <trkpt lat="42.6885490" lon="-0.4909480">
        <ele>1603.4</ele>
        <time>2023-01-14T10:38:59Z</time>
      </trkpt>
      <trkpt lat="42.6885510" lon="-0.4909480">
        <ele>1603.8</ele>
        <time>2023-01-14T10:39:00Z</time>
      </trkpt>
      <trkpt lat="42.6885570" lon="-0.4909460">
        <ele>1604.0</ele>
        <time>2023-01-14T10:39:01Z</time>
      </trkpt>
      <trkpt lat="42.6885620" lon="-0.4909400">
        <ele>1604.2</ele>
        <time>2023-01-14T10:39:02Z</time>
      </trkpt>
      <trkpt lat="42.6885630" lon="-0.4909340">
        <ele>1604.4</ele>
        <time>2023-01-14T10:39:03Z</time>
      </trkpt>
      <trkpt lat="42.6885620" lon="-0.4909230">
        <ele>1605.0</ele>
        <time>2023-01-14T10:39:04Z</time>
      </trkpt>
      <trkpt lat="42.6885620" lon="-0.4909110">
        <ele>1605.4</ele>
        <time>2023-01-14T10:39:05Z</time>
      </trkpt>
      <trkpt lat="42.6885630" lon="-0.4909010">
        <ele>1605.8</ele>
        <time>2023-01-14T10:39:06Z</time>
      </trkpt>
      <trkpt lat="42.6885630" lon="-0.4908940">
        <ele>1606.2</ele>
        <time>2023-01-14T10:39:07Z</time>
      </trkpt>
      <trkpt lat="42.6885580" lon="-0.4908900">
        <ele>1606.8</ele>
        <time>2023-01-14T10:39:08Z</time>
      </trkpt>
      <trkpt lat="42.6885610" lon="-0.4908810">
        <ele>1607.0</ele>
        <time>2023-01-14T10:39:09Z</time>
      </trkpt>
      <trkpt lat="42.6885640" lon="-0.4908800">
        <ele>1607.4</ele>
        <time>2023-01-14T10:39:10Z</time>
      </trkpt>
      <trkpt lat="42.6885680" lon="-0.4908860">
        <ele>1607.8</ele>
        <time>2023-01-14T10:39:11Z</time>
      </trkpt>
      <trkpt lat="42.6885710" lon="-0.4908970">
        <ele>1608.0</ele>
        <time>2023-01-14T10:39:12Z</time>
      </trkpt>
      <trkpt lat="42.6885770" lon="-0.4909050">
        <ele>1608.0</ele>
        <time>2023-01-14T10:39:13Z</time>
      </trkpt>
      <trkpt lat="42.6885810" lon="-0.4909160">
        <ele>1608.0</ele>
        <time>2023-01-14T10:39:14Z</time>
      </trkpt>
      <trkpt lat="42.6885820" lon="-0.4909220">
        <ele>1607.8</ele>
        <time>2023-01-14T10:39:15Z</time>
      </trkpt>
      <trkpt lat="42.6885800" lon="-0.4909250">
        <ele>1607.8</ele>
        <time>2023-01-14T10:39:16Z</time>
      </trkpt>
      <trkpt lat="42.6885770" lon="-0.4909300">
        <ele>1607.8</ele>
        <time>2023-01-14T10:39:17Z</time>
      </trkpt>
      <trkpt lat="42.6885740" lon="-0.4909350">
        <ele>1607.8</ele>
        <time>2023-01-14T10:39:18Z</time>
      </trkpt>
      <trkpt lat="42.6885720" lon="-0.4909400">
        <ele>1607.6</ele>
        <time>2023-01-14T10:39:19Z</time>
      </trkpt>
      <trkpt lat="42.6885710" lon="-0.4909410">
        <ele>1607.6</ele>
        <time>2023-01-14T10:39:20Z</time>
      </trkpt>
      <trkpt lat="42.6885730" lon="-0.4909380">
        <ele>1607.6</ele>
        <time>2023-01-14T10:39:21Z</time>
      </trkpt>
      <trkpt lat="42.6885750" lon="-0.4909390">
        <ele>1607.4</ele>
        <time>2023-01-14T10:39:22Z</time>
      </trkpt>
      <trkpt lat="42.6885790" lon="-0.4909380">
        <ele>1607.4</ele>
        <time>2023-01-14T10:39:23Z</time>
      </trkpt>
      <trkpt lat="42.6885800" lon="-0.4909330">
        <ele>1607.2</ele>
        <time>2023-01-14T10:39:24Z</time>
      </trkpt>
      <trkpt lat="42.6885820" lon="-0.4909290">
        <ele>1607.2</ele>
        <time>2023-01-14T10:39:25Z</time>
      </trkpt>
      <trkpt lat="42.6885850" lon="-0.4909280">
        <ele>1607.2</ele>
        <time>2023-01-14T10:39:26Z</time>
      </trkpt>
      <trkpt lat="42.6885860" lon="-0.4909280">
        <ele>1607.2</ele>
        <time>2023-01-14T10:39:27Z</time>
      </trkpt>
      <trkpt lat="42.6885880" lon="-0.4909300">
        <ele>1607.2</ele>
        <time>2023-01-14T10:39:28Z</time>
      </trkpt>
      <trkpt lat="42.6885890" lon="-0.4909320">
        <ele>1607.4</ele>
        <time>2023-01-14T10:39:29Z</time>
      </trkpt>
      <trkpt lat="42.6885890" lon="-0.4909330">
        <ele>1607.4</ele>
        <time>2023-01-14T10:39:30Z</time>
      </trkpt>
      <trkpt lat="42.6885890" lon="-0.4909330">
        <ele>1607.4</ele>
        <time>2023-01-14T10:39:31Z</time>
      </trkpt>
      <trkpt lat="42.6885870" lon="-0.4909340">
        <ele>1607.4</ele>
        <time>2023-01-14T10:39:32Z</time>
      </trkpt>
      <trkpt lat="42.6885860" lon="-0.4909380">
        <ele>1607.4</ele>
        <time>2023-01-14T10:39:33Z</time>
      </trkpt>
      <trkpt lat="42.6885860" lon="-0.4909390">
        <ele>1607.2</ele>
        <time>2023-01-14T10:39:34Z</time>
      </trkpt>
      <trkpt lat="42.6885860" lon="-0.4909400">
        <ele>1607.0</ele>
        <time>2023-01-14T10:39:35Z</time>
      </trkpt>
      <trkpt lat="42.6885860" lon="-0.4909390">
        <ele>1606.8</ele>
        <time>2023-01-14T10:39:36Z</time>
      </trkpt>
      <trkpt lat="42.6885850" lon="-0.4909400">
        <ele>1606.8</ele>
        <time>2023-01-14T10:39:37Z</time>
      </trkpt>
      <trkpt lat="42.6885830" lon="-0.4909400">
        <ele>1606.8</ele>
        <time>2023-01-14T10:39:38Z</time>
      </trkpt>
      <trkpt lat="42.6885820" lon="-0.4909410">
        <ele>1606.8</ele>
        <time>2023-01-14T10:39:39Z</time>
      </trkpt>
      <trkpt lat="42.6885800" lon="-0.4909400">
        <ele>1606.6</ele>
        <time>2023-01-14T10:39:40Z</time>
      </trkpt>
      <trkpt lat="42.6885800" lon="-0.4909390">
        <ele>1606.6</ele>
        <time>2023-01-14T10:39:41Z</time>
      </trkpt>
      <trkpt lat="42.6885800" lon="-0.4909400">
        <ele>1606.6</ele>
        <time>2023-01-14T10:39:42Z</time>
      </trkpt>
      <trkpt lat="42.6885820" lon="-0.4909440">
        <ele>1606.6</ele>
        <time>2023-01-14T10:39:43Z</time>
      </trkpt>
      <trkpt lat="42.6885860" lon="-0.4909470">
        <ele>1606.6</ele>
        <time>2023-01-14T10:39:44Z</time>
      </trkpt>
      <trkpt lat="42.6885920" lon="-0.4909490">
        <ele>1606.6</ele>
        <time>2023-01-14T10:39:45Z</time>
      </trkpt>
      <trkpt lat="42.6885920" lon="-0.4909490">
        <ele>1606.4</ele>
        <time>2023-01-14T10:39:46Z</time>
      </trkpt>
      <trkpt lat="42.6885900" lon="-0.4909510">
        <ele>1606.6</ele>
        <time>2023-01-14T10:39:47Z</time>
      </trkpt>
      <trkpt lat="42.6885900" lon="-0.4909560">
        <ele>1606.8</ele>
        <time>2023-01-14T10:39:48Z</time>
      </trkpt>
      <trkpt lat="42.6885890" lon="-0.4909590">
        <ele>1606.8</ele>
        <time>2023-01-14T10:39:49Z</time>
      </trkpt>
      <trkpt lat="42.6885880" lon="-0.4909610">
        <ele>1606.6</ele>
        <time>2023-01-14T10:39:50Z</time>
      </trkpt>
      <trkpt lat="42.6885870" lon="-0.4909620">
        <ele>1606.6</ele>
        <time>2023-01-14T10:39:51Z</time>
      </trkpt>
      <trkpt lat="42.6885870" lon="-0.4909620">
        <ele>1606.6</ele>
        <time>2023-01-14T10:39:52Z</time>
      </trkpt>
      <trkpt lat="42.6885870" lon="-0.4909630">
        <ele>1606.2</ele>
        <time>2023-01-14T10:39:53Z</time>
      </trkpt>
      <trkpt lat="42.6885880" lon="-0.4909630">
        <ele>1606.0</ele>
        <time>2023-01-14T10:39:54Z</time>
      </trkpt>
      <trkpt lat="42.6885880" lon="-0.4909640">
        <ele>1606.0</ele>
        <time>2023-01-14T10:39:55Z</time>
      </trkpt>
      <trkpt lat="42.6885870" lon="-0.4909630">
        <ele>1606.0</ele>
        <time>2023-01-14T10:39:56Z</time>
      </trkpt>
      <trkpt lat="42.6885870" lon="-0.4909630">
        <ele>1605.8</ele>
        <time>2023-01-14T10:39:57Z</time>
      </trkpt>
      <trkpt lat="42.6885870" lon="-0.4909630">
        <ele>1605.8</ele>
        <time>2023-01-14T10:39:58Z</time>
      </trkpt>
      <trkpt lat="42.6885870" lon="-0.4909630">
        <ele>1606.0</ele>
        <time>2023-01-14T10:39:59Z</time>
      </trkpt>
      <trkpt lat="42.6885870" lon="-0.4909630">
        <ele>1606.2</ele>
        <time>2023-01-14T10:40:00Z</time>
      </trkpt>
      <trkpt lat="42.6885870" lon="-0.4909640">
        <ele>1606.2</ele>
        <time>2023-01-14T10:40:01Z</time>
      </trkpt>
      <trkpt lat="42.6885880" lon="-0.4909650">
        <ele>1606.4</ele>
        <time>2023-01-14T10:40:02Z</time>
      </trkpt>
      <trkpt lat="42.6885880" lon="-0.4909650">
        <ele>1606.6</ele>
        <time>2023-01-14T10:40:03Z</time>
      </trkpt>
      <trkpt lat="42.6885880" lon="-0.4909660">
        <ele>1606.6</ele>
        <time>2023-01-14T10:40:04Z</time>
      </trkpt>
      <trkpt lat="42.6885880" lon="-0.4909670">
        <ele>1606.6</ele>
        <time>2023-01-14T10:40:05Z</time>
      </trkpt>
      <trkpt lat="42.6885890" lon="-0.4909680">
        <ele>1606.4</ele>
        <time>2023-01-14T10:40:06Z</time>
      </trkpt>
      <trkpt lat="42.6885900" lon="-0.4909680">
        <ele>1606.4</ele>
        <time>2023-01-14T10:40:07Z</time>
      </trkpt>
      <trkpt lat="42.6885910" lon="-0.4909680">
        <ele>1606.4</ele>
        <time>2023-01-14T10:40:08Z</time>
      </trkpt>
      <trkpt lat="42.6885910" lon="-0.4909690">
        <ele>1606.2</ele>
        <time>2023-01-14T10:40:09Z</time>
      </trkpt>
      <trkpt lat="42.6885910" lon="-0.4909690">
        <ele>1605.8</ele>
        <time>2023-01-14T10:40:10Z</time>
      </trkpt>
      <trkpt lat="42.6885910" lon="-0.4909690">
        <ele>1605.8</ele>
        <time>2023-01-14T10:40:11Z</time>
      </trkpt>
      <trkpt lat="42.6885920" lon="-0.4909690">
        <ele>1606.0</ele>
        <time>2023-01-14T10:40:12Z</time>
      </trkpt>
      <trkpt lat="42.6885930" lon="-0.4909690">
        <ele>1606.2</ele>
        <time>2023-01-14T10:40:13Z</time>
      </trkpt>
      <trkpt lat="42.6885940" lon="-0.4909670">
        <ele>1606.0</ele>
        <time>2023-01-14T10:40:14Z</time>
      </trkpt>
      <trkpt lat="42.6885940" lon="-0.4909660">
        <ele>1606.0</ele>
        <time>2023-01-14T10:40:15Z</time>
      </trkpt>
      <trkpt lat="42.6885950" lon="-0.4909660">
        <ele>1605.8</ele>
        <time>2023-01-14T10:40:16Z</time>
      </trkpt>
      <trkpt lat="42.6885950" lon="-0.4909660">
        <ele>1606.0</ele>
        <time>2023-01-14T10:40:17Z</time>
      </trkpt>
      <trkpt lat="42.6885950" lon="-0.4909660">
        <ele>1606.0</ele>
        <time>2023-01-14T10:40:18Z</time>
      </trkpt>
      <trkpt lat="42.6886030" lon="-0.4909720">
        <ele>1606.0</ele>
        <time>2023-01-14T10:40:19Z</time>
      </trkpt>
      <trkpt lat="42.6886170" lon="-0.4909810">
        <ele>1606.0</ele>
        <time>2023-01-14T10:40:20Z</time>
      </trkpt>
      <trkpt lat="42.6886320" lon="-0.4909850">
        <ele>1606.0</ele>
        <time>2023-01-14T10:40:21Z</time>
      </trkpt>
      <trkpt lat="42.6886450" lon="-0.4909910">
        <ele>1606.2</ele>
        <time>2023-01-14T10:40:22Z</time>
      </trkpt>
      <trkpt lat="42.6886540" lon="-0.4909920">
        <ele>1606.8</ele>
        <time>2023-01-14T10:40:23Z</time>
      </trkpt>
      <trkpt lat="42.6886640" lon="-0.4909910">
        <ele>1607.4</ele>
        <time>2023-01-14T10:40:24Z</time>
      </trkpt>
      <trkpt lat="42.6886730" lon="-0.4909900">
        <ele>1607.8</ele>
        <time>2023-01-14T10:40:25Z</time>
      </trkpt>
      <trkpt lat="42.6886830" lon="-0.4909930">
        <ele>1608.6</ele>
        <time>2023-01-14T10:40:26Z</time>
      </trkpt>
      <trkpt lat="42.6886970" lon="-0.4909950">
        <ele>1609.0</ele>
        <time>2023-01-14T10:40:27Z</time>
      </trkpt>
      <trkpt lat="42.6887120" lon="-0.4909980">
        <ele>1609.6</ele>
        <time>2023-01-14T10:40:28Z</time>
      </trkpt>
      <trkpt lat="42.6887220" lon="-0.4909980">
        <ele>1610.0</ele>
        <time>2023-01-14T10:40:29Z</time>
      </trkpt>
      <trkpt lat="42.6887340" lon="-0.4910010">
        <ele>1610.4</ele>
        <time>2023-01-14T10:40:30Z</time>
      </trkpt>
      <trkpt lat="42.6887470" lon="-0.4910050">
        <ele>1611.4</ele>
        <time>2023-01-14T10:40:31Z</time>
      </trkpt>
      <trkpt lat="42.6887620" lon="-0.4910120">
        <ele>1611.8</ele>
        <time>2023-01-14T10:40:32Z</time>
      </trkpt>
      <trkpt lat="42.6887760" lon="-0.4910140">
        <ele>1612.2</ele>
        <time>2023-01-14T10:40:33Z</time>
      </trkpt>
      <trkpt lat="42.6887870" lon="-0.4910140">
        <ele>1612.8</ele>
        <time>2023-01-14T10:40:34Z</time>
      </trkpt>
      <trkpt lat="42.6887940" lon="-0.4910140">
        <ele>1613.4</ele>
        <time>2023-01-14T10:40:35Z</time>
      </trkpt>
      <trkpt lat="42.6887980" lon="-0.4910150">
        <ele>1613.8</ele>
        <time>2023-01-14T10:40:36Z</time>
      </trkpt>
      <trkpt lat="42.6888080" lon="-0.4910130">
        <ele>1614.6</ele>
        <time>2023-01-14T10:40:37Z</time>
      </trkpt>
      <trkpt lat="42.6888220" lon="-0.4910100">
        <ele>1615.0</ele>
        <time>2023-01-14T10:40:38Z</time>
      </trkpt>
      <trkpt lat="42.6888400" lon="-0.4910080">
        <ele>1615.4</ele>
        <time>2023-01-14T10:40:39Z</time>
      </trkpt>
      <trkpt lat="42.6888540" lon="-0.4910150">
        <ele>1615.6</ele>
        <time>2023-01-14T10:40:40Z</time>
      </trkpt>
      <trkpt lat="42.6888620" lon="-0.4910210">
        <ele>1615.8</ele>
        <time>2023-01-14T10:40:41Z</time>
      </trkpt>
      <trkpt lat="42.6888730" lon="-0.4910230">
        <ele>1616.8</ele>
        <time>2023-01-14T10:40:42Z</time>
      </trkpt>
      <trkpt lat="42.6888840" lon="-0.4910230">
        <ele>1617.4</ele>
        <time>2023-01-14T10:40:43Z</time>
      </trkpt>
      <trkpt lat="42.6888960" lon="-0.4910260">
        <ele>1618.2</ele>
        <time>2023-01-14T10:40:44Z</time>
      </trkpt>
      <trkpt lat="42.6889210" lon="-0.4910310">
        <ele>1618.8</ele>
        <time>2023-01-14T10:40:45Z</time>
      </trkpt>
      <trkpt lat="42.6889390" lon="-0.4910290">
        <ele>1619.2</ele>
        <time>2023-01-14T10:40:46Z</time>
      </trkpt>
      <trkpt lat="42.6889540" lon="-0.4910290">
        <ele>1619.4</ele>
        <time>2023-01-14T10:40:47Z</time>
      </trkpt>
      <trkpt lat="42.6889700" lon="-0.4910280">
        <ele>1619.6</ele>
        <time>2023-01-14T10:40:48Z</time>
      </trkpt>
      <trkpt lat="42.6889820" lon="-0.4910330">
        <ele>1620.2</ele>
        <time>2023-01-14T10:40:49Z</time>
      </trkpt>
      <trkpt lat="42.6889940" lon="-0.4910350">
        <ele>1620.6</ele>
        <time>2023-01-14T10:40:50Z</time>
      </trkpt>
      <trkpt lat="42.6890080" lon="-0.4910360">
        <ele>1621.0</ele>
        <time>2023-01-14T10:40:51Z</time>
      </trkpt>
      <trkpt lat="42.6890240" lon="-0.4910370">
        <ele>1621.6</ele>
        <time>2023-01-14T10:40:52Z</time>
      </trkpt>
      <trkpt lat="42.6890390" lon="-0.4910400">
        <ele>1622.2</ele>
        <time>2023-01-14T10:40:53Z</time>
      </trkpt>
      <trkpt lat="42.6890580" lon="-0.4910370">
        <ele>1622.8</ele>
        <time>2023-01-14T10:40:54Z</time>
      </trkpt>
      <trkpt lat="42.6890750" lon="-0.4910350">
        <ele>1623.2</ele>
        <time>2023-01-14T10:40:55Z</time>
      </trkpt>
      <trkpt lat="42.6890830" lon="-0.4910370">
        <ele>1623.6</ele>
        <time>2023-01-14T10:40:56Z</time>
      </trkpt>
      <trkpt lat="42.6890970" lon="-0.4910360">
        <ele>1624.2</ele>
        <time>2023-01-14T10:40:57Z</time>
      </trkpt>
      <trkpt lat="42.6891180" lon="-0.4910280">
        <ele>1624.8</ele>
        <time>2023-01-14T10:40:58Z</time>
      </trkpt>
      <trkpt lat="42.6891460" lon="-0.4910340">
        <ele>1625.2</ele>
        <time>2023-01-14T10:40:59Z</time>
      </trkpt>
      <trkpt lat="42.6891660" lon="-0.4910350">
        <ele>1625.4</ele>
        <time>2023-01-14T10:41:00Z</time>
      </trkpt>
      <trkpt lat="42.6891760" lon="-0.4910300">
        <ele>1625.4</ele>
        <time>2023-01-14T10:41:01Z</time>
      </trkpt>
      <trkpt lat="42.6891950" lon="-0.4910240">
        <ele>1625.8</ele>
        <time>2023-01-14T10:41:02Z</time>
      </trkpt>
      <trkpt lat="42.6892050" lon="-0.4910160">
        <ele>1626.4</ele>
        <time>2023-01-14T10:41:03Z</time>
      </trkpt>
      <trkpt lat="42.6892220" lon="-0.4910070">
        <ele>1626.8</ele>
        <time>2023-01-14T10:41:04Z</time>
      </trkpt>
      <trkpt lat="42.6892380" lon="-0.4910010">
        <ele>1627.4</ele>
        <time>2023-01-14T10:41:05Z</time>
      </trkpt>
      <trkpt lat="42.6892580" lon="-0.4909890">
        <ele>1627.8</ele>
        <time>2023-01-14T10:41:06Z</time>
      </trkpt>
      <trkpt lat="42.6892700" lon="-0.4909760">
        <ele>1628.0</ele>
        <time>2023-01-14T10:41:07Z</time>
      </trkpt>
      <trkpt lat="42.6892840" lon="-0.4909630">
        <ele>1629.0</ele>
        <time>2023-01-14T10:41:08Z</time>
      </trkpt>
      <trkpt lat="42.6892960" lon="-0.4909500">
        <ele>1629.6</ele>
        <time>2023-01-14T10:41:09Z</time>
      </trkpt>
      <trkpt lat="42.6893050" lon="-0.4909350">
        <ele>1630.2</ele>
        <time>2023-01-14T10:41:10Z</time>
      </trkpt>
      <trkpt lat="42.6893170" lon="-0.4909260">
        <ele>1630.6</ele>
        <time>2023-01-14T10:41:11Z</time>
      </trkpt>
      <trkpt lat="42.6893270" lon="-0.4909210">
        <ele>1631.0</ele>
        <time>2023-01-14T10:41:12Z</time>
      </trkpt>
      <trkpt lat="42.6893630" lon="-0.4909050">
        <ele>1631.6</ele>
        <time>2023-01-14T10:41:13Z</time>
      </trkpt>
      <trkpt lat="42.6893700" lon="-0.4909010">
        <ele>1632.2</ele>
        <time>2023-01-14T10:41:14Z</time>
      </trkpt>
      <trkpt lat="42.6893920" lon="-0.4908920">
        <ele>1632.8</ele>
        <time>2023-01-14T10:41:15Z</time>
      </trkpt>
      <trkpt lat="42.6894000" lon="-0.4908880">
        <ele>1633.2</ele>
        <time>2023-01-14T10:41:16Z</time>
      </trkpt>
      <trkpt lat="42.6894020" lon="-0.4908850">
        <ele>1633.6</ele>
        <time>2023-01-14T10:41:17Z</time>
      </trkpt>
      <trkpt lat="42.6894050" lon="-0.4908790">
        <ele>1633.8</ele>
        <time>2023-01-14T10:41:18Z</time>
      </trkpt>
      <trkpt lat="42.6894140" lon="-0.4908720">
        <ele>1634.0</ele>
        <time>2023-01-14T10:41:19Z</time>
      </trkpt>
      <trkpt lat="42.6894180" lon="-0.4908720">
        <ele>1634.0</ele>
        <time>2023-01-14T10:41:20Z</time>
      </trkpt>
      <trkpt lat="42.6894260" lon="-0.4908750">
        <ele>1634.0</ele>
        <time>2023-01-14T10:41:21Z</time>
      </trkpt>
      <trkpt lat="42.6894330" lon="-0.4908770">
        <ele>1634.0</ele>
        <time>2023-01-14T10:41:22Z</time>
      </trkpt>
      <trkpt lat="42.6894360" lon="-0.4908790">
        <ele>1634.0</ele>
        <time>2023-01-14T10:41:23Z</time>
      </trkpt>
      <trkpt lat="42.6894440" lon="-0.4908710">
        <ele>1634.0</ele>
        <time>2023-01-14T10:41:24Z</time>
      </trkpt>
      <trkpt lat="42.6894540" lon="-0.4908640">
        <ele>1634.0</ele>
        <time>2023-01-14T10:41:25Z</time>
      </trkpt>
      <trkpt lat="42.6894640" lon="-0.4908520">
        <ele>1634.2</ele>
        <time>2023-01-14T10:41:26Z</time>
      </trkpt>
      <trkpt lat="42.6894770" lon="-0.4908400">
        <ele>1634.2</ele>
        <time>2023-01-14T10:41:27Z</time>
      </trkpt>
      <trkpt lat="42.6894900" lon="-0.4908280">
        <ele>1635.0</ele>
        <time>2023-01-14T10:41:28Z</time>
      </trkpt>
      <trkpt lat="42.6895010" lon="-0.4908210">
        <ele>1635.6</ele>
        <time>2023-01-14T10:41:29Z</time>
      </trkpt>
      <trkpt lat="42.6895130" lon="-0.4908150">
        <ele>1635.8</ele>
        <time>2023-01-14T10:41:30Z</time>
      </trkpt>
      <trkpt lat="42.6895250" lon="-0.4908070">
        <ele>1636.2</ele>
        <time>2023-01-14T10:41:31Z</time>
      </trkpt>
      <trkpt lat="42.6895410" lon="-0.4908030">
        <ele>1636.6</ele>
        <time>2023-01-14T10:41:32Z</time>
      </trkpt>
      <trkpt lat="42.6895530" lon="-0.4908010">
        <ele>1637.0</ele>
        <time>2023-01-14T10:41:33Z</time>
      </trkpt>
      <trkpt lat="42.6895690" lon="-0.4908000">
        <ele>1637.4</ele>
        <time>2023-01-14T10:41:34Z</time>
      </trkpt>
      <trkpt lat="42.6895860" lon="-0.4907990">
        <ele>1637.4</ele>
        <time>2023-01-14T10:41:35Z</time>
      </trkpt>
      <trkpt lat="42.6896250" lon="-0.4907930">
        <ele>1637.4</ele>
        <time>2023-01-14T10:41:36Z</time>
      </trkpt>
      <trkpt lat="42.6896570" lon="-0.4907940">
        <ele>1637.6</ele>
        <time>2023-01-14T10:41:37Z</time>
      </trkpt>
      <trkpt lat="42.6896790" lon="-0.4908000">
        <ele>1637.8</ele>
        <time>2023-01-14T10:41:38Z</time>
      </trkpt>
      <trkpt lat="42.6897000" lon="-0.4908060">
        <ele>1638.0</ele>
        <time>2023-01-14T10:41:39Z</time>
      </trkpt>
      <trkpt lat="42.6897150" lon="-0.4908200">
        <ele>1638.4</ele>
        <time>2023-01-14T10:41:40Z</time>
      </trkpt>
      <trkpt lat="42.6897310" lon="-0.4908330">
        <ele>1638.8</ele>
        <time>2023-01-14T10:41:41Z</time>
      </trkpt>
      <trkpt lat="42.6897470" lon="-0.4908400">
        <ele>1639.2</ele>
        <time>2023-01-14T10:41:42Z</time>
      </trkpt>
      <trkpt lat="42.6897640" lon="-0.4908490">
        <ele>1639.6</ele>
        <time>2023-01-14T10:41:43Z</time>
      </trkpt>
      <trkpt lat="42.6897810" lon="-0.4908590">
        <ele>1640.0</ele>
        <time>2023-01-14T10:41:44Z</time>
      </trkpt>
      <trkpt lat="42.6897990" lon="-0.4908670">
        <ele>1640.0</ele>
        <time>2023-01-14T10:41:45Z</time>
      </trkpt>
      <trkpt lat="42.6898230" lon="-0.4908730">
        <ele>1640.2</ele>
        <time>2023-01-14T10:41:46Z</time>
      </trkpt>
      <trkpt lat="42.6898390" lon="-0.4908820">
        <ele>1640.6</ele>
        <time>2023-01-14T10:41:47Z</time>
      </trkpt>
      <trkpt lat="42.6898570" lon="-0.4908870">
        <ele>1641.0</ele>
        <time>2023-01-14T10:41:48Z</time>
      </trkpt>
      <trkpt lat="42.6898740" lon="-0.4908950">
        <ele>1641.2</ele>
        <time>2023-01-14T10:41:49Z</time>
      </trkpt>
      <trkpt lat="42.6898980" lon="-0.4908990">
        <ele>1641.6</ele>
        <time>2023-01-14T10:41:50Z</time>
      </trkpt>
      <trkpt lat="42.6899190" lon="-0.4909000">
        <ele>1641.6</ele>
        <time>2023-01-14T10:41:51Z</time>
      </trkpt>
      <trkpt lat="42.6899380" lon="-0.4909010">
        <ele>1642.2</ele>
        <time>2023-01-14T10:41:52Z</time>
      </trkpt>
      <trkpt lat="42.6899570" lon="-0.4908990">
        <ele>1642.4</ele>
        <time>2023-01-14T10:41:53Z</time>
      </trkpt>
      <trkpt lat="42.6899760" lon="-0.4908990">
        <ele>1642.6</ele>
        <time>2023-01-14T10:41:54Z</time>
      </trkpt>
      <trkpt lat="42.6899960" lon="-0.4908900">
        <ele>1643.0</ele>
        <time>2023-01-14T10:41:55Z</time>
      </trkpt>
      <trkpt lat="42.6900140" lon="-0.4908900">
        <ele>1643.4</ele>
        <time>2023-01-14T10:41:56Z</time>
      </trkpt>
      <trkpt lat="42.6900280" lon="-0.4908930">
        <ele>1643.6</ele>
        <time>2023-01-14T10:41:57Z</time>
      </trkpt>
      <trkpt lat="42.6900400" lon="-0.4908980">
        <ele>1644.2</ele>
        <time>2023-01-14T10:41:58Z</time>
      </trkpt>
      <trkpt lat="42.6900500" lon="-0.4908990">
        <ele>1644.6</ele>
        <time>2023-01-14T10:41:59Z</time>
      </trkpt>
      <trkpt lat="42.6900660" lon="-0.4909040">
        <ele>1645.0</ele>
        <time>2023-01-14T10:42:00Z</time>
      </trkpt>
      <trkpt lat="42.6900830" lon="-0.4909060">
        <ele>1645.2</ele>
        <time>2023-01-14T10:42:01Z</time>
      </trkpt>
      <trkpt lat="42.6901040" lon="-0.4909100">
        <ele>1645.8</ele>
        <time>2023-01-14T10:42:02Z</time>
      </trkpt>
      <trkpt lat="42.6901190" lon="-0.4909120">
        <ele>1646.4</ele>
        <time>2023-01-14T10:42:03Z</time>
      </trkpt>
      <trkpt lat="42.6901380" lon="-0.4909110">
        <ele>1646.8</ele>
        <time>2023-01-14T10:42:04Z</time>
      </trkpt>
      <trkpt lat="42.6901500" lon="-0.4909120">
        <ele>1647.2</ele>
        <time>2023-01-14T10:42:05Z</time>
      </trkpt>
      <trkpt lat="42.6901620" lon="-0.4909070">
        <ele>1647.6</ele>
        <time>2023-01-14T10:42:06Z</time>
      </trkpt>
      <trkpt lat="42.6901630" lon="-0.4908970">
        <ele>1648.2</ele>
        <time>2023-01-14T10:42:07Z</time>
      </trkpt>
      <trkpt lat="42.6901630" lon="-0.4908830">
        <ele>1648.4</ele>
        <time>2023-01-14T10:42:08Z</time>
      </trkpt>
      <trkpt lat="42.6901630" lon="-0.4908660">
        <ele>1648.6</ele>
        <time>2023-01-14T10:42:09Z</time>
      </trkpt>
      <trkpt lat="42.6901630" lon="-0.4908520">
        <ele>1648.8</ele>
        <time>2023-01-14T10:42:10Z</time>
      </trkpt>
      <trkpt lat="42.6901660" lon="-0.4908320">
        <ele>1649.0</ele>
        <time>2023-01-14T10:42:11Z</time>
      </trkpt>
      <trkpt lat="42.6901670" lon="-0.4908190">
        <ele>1649.4</ele>
        <time>2023-01-14T10:42:12Z</time>
      </trkpt>
      <trkpt lat="42.6901630" lon="-0.4908040">
        <ele>1649.6</ele>
        <time>2023-01-14T10:42:13Z</time>
      </trkpt>
      <trkpt lat="42.6901580" lon="-0.4907910">
        <ele>1649.8</ele>
        <time>2023-01-14T10:42:14Z</time>
      </trkpt>
      <trkpt lat="42.6901560" lon="-0.4907750">
        <ele>1650.0</ele>
        <time>2023-01-14T10:42:15Z</time>
      </trkpt>
      <trkpt lat="42.6901550" lon="-0.4907570">
        <ele>1650.2</ele>
        <time>2023-01-14T10:42:16Z</time>
      </trkpt>
      <trkpt lat="42.6901490" lon="-0.4907400">
        <ele>1650.2</ele>
        <time>2023-01-14T10:42:17Z</time>
      </trkpt>
      <trkpt lat="42.6901430" lon="-0.4907160">
        <ele>1650.6</ele>
        <time>2023-01-14T10:42:18Z</time>
      </trkpt>
      <trkpt lat="42.6901360" lon="-0.4906940">
        <ele>1650.8</ele>
        <time>2023-01-14T10:42:19Z</time>
      </trkpt>
      <trkpt lat="42.6901290" lon="-0.4906800">
        <ele>1651.0</ele>
        <time>2023-01-14T10:42:20Z</time>
      </trkpt>
      <trkpt lat="42.6901210" lon="-0.4906620">
        <ele>1651.6</ele>
        <time>2023-01-14T10:42:21Z</time>
      </trkpt>
      <trkpt lat="42.6901130" lon="-0.4906450">
        <ele>1652.0</ele>
        <time>2023-01-14T10:42:22Z</time>
      </trkpt>
      <trkpt lat="42.6901060" lon="-0.4906260">
        <ele>1652.4</ele>
        <time>2023-01-14T10:42:23Z</time>
      </trkpt>
      <trkpt lat="42.6900990" lon="-0.4906120">
        <ele>1652.4</ele>
        <time>2023-01-14T10:42:24Z</time>
      </trkpt>
      <trkpt lat="42.6900900" lon="-0.4905940">
        <ele>1652.6</ele>
        <time>2023-01-14T10:42:25Z</time>
      </trkpt>
      <trkpt lat="42.6900800" lon="-0.4905650">
        <ele>1652.6</ele>
        <time>2023-01-14T10:42:26Z</time>
      </trkpt>
      <trkpt lat="42.6900680" lon="-0.4905390">
        <ele>1652.6</ele>
        <time>2023-01-14T10:42:27Z</time>
      </trkpt>
      <trkpt lat="42.6900590" lon="-0.4905090">
        <ele>1652.6</ele>
        <time>2023-01-14T10:42:28Z</time>
      </trkpt>
      <trkpt lat="42.6900520" lon="-0.4904850">
        <ele>1652.8</ele>
        <time>2023-01-14T10:42:29Z</time>
      </trkpt>
      <trkpt lat="42.6900430" lon="-0.4904590">
        <ele>1652.8</ele>
        <time>2023-01-14T10:42:30Z</time>
      </trkpt>
      <trkpt lat="42.6900280" lon="-0.4904460">
        <ele>1652.8</ele>
        <time>2023-01-14T10:42:31Z</time>
      </trkpt>
      <trkpt lat="42.6900130" lon="-0.4904250">
        <ele>1653.0</ele>
        <time>2023-01-14T10:42:32Z</time>
      </trkpt>
      <trkpt lat="42.6899940" lon="-0.4904100">
        <ele>1653.2</ele>
        <time>2023-01-14T10:42:33Z</time>
      </trkpt>
      <trkpt lat="42.6899800" lon="-0.4903920">
        <ele>1653.4</ele>
        <time>2023-01-14T10:42:34Z</time>
      </trkpt>
      <trkpt lat="42.6899620" lon="-0.4903790">
        <ele>1653.8</ele>
        <time>2023-01-14T10:42:35Z</time>
      </trkpt>
      <trkpt lat="42.6899470" lon="-0.4903710">
        <ele>1654.2</ele>
        <time>2023-01-14T10:42:36Z</time>
      </trkpt>
      <trkpt lat="42.6899420" lon="-0.4903540">
        <ele>1654.8</ele>
        <time>2023-01-14T10:42:37Z</time>
      </trkpt>
      <trkpt lat="42.6899290" lon="-0.4903430">
        <ele>1655.4</ele>
        <time>2023-01-14T10:42:38Z</time>
      </trkpt>
      <trkpt lat="42.6899090" lon="-0.4903320">
        <ele>1656.0</ele>
        <time>2023-01-14T10:42:39Z</time>
      </trkpt>
      <trkpt lat="42.6898890" lon="-0.4903220">
        <ele>1656.2</ele>
        <time>2023-01-14T10:42:40Z</time>
      </trkpt>
      <trkpt lat="42.6898740" lon="-0.4903060">
        <ele>1656.8</ele>
        <time>2023-01-14T10:42:41Z</time>
      </trkpt>
      <trkpt lat="42.6898610" lon="-0.4902910">
        <ele>1657.4</ele>
        <time>2023-01-14T10:42:42Z</time>
      </trkpt>
      <trkpt lat="42.6898500" lon="-0.4902730">
        <ele>1657.6</ele>
        <time>2023-01-14T10:42:43Z</time>
      </trkpt>
      <trkpt lat="42.6898390" lon="-0.4902620">
        <ele>1658.2</ele>
        <time>2023-01-14T10:42:44Z</time>
      </trkpt>
      <trkpt lat="42.6898220" lon="-0.4902510">
        <ele>1658.4</ele>
        <time>2023-01-14T10:42:45Z</time>
      </trkpt>
      <trkpt lat="42.6898090" lon="-0.4902460">
        <ele>1658.8</ele>
        <time>2023-01-14T10:42:46Z</time>
      </trkpt>
      <trkpt lat="42.6897970" lon="-0.4902400">
        <ele>1659.8</ele>
        <time>2023-01-14T10:42:47Z</time>
      </trkpt>
      <trkpt lat="42.6897820" lon="-0.4902300">
        <ele>1660.4</ele>
        <time>2023-01-14T10:42:48Z</time>
      </trkpt>
      <trkpt lat="42.6897780" lon="-0.4902130">
        <ele>1661.0</ele>
        <time>2023-01-14T10:42:49Z</time>
      </trkpt>
      <trkpt lat="42.6897590" lon="-0.4902050">
        <ele>1661.2</ele>
        <time>2023-01-14T10:42:50Z</time>
      </trkpt>
      <trkpt lat="42.6897470" lon="-0.4901950">
        <ele>1661.8</ele>
        <time>2023-01-14T10:42:51Z</time>
      </trkpt>
      <trkpt lat="42.6897330" lon="-0.4901850">
        <ele>1662.0</ele>
        <time>2023-01-14T10:42:52Z</time>
      </trkpt>
      <trkpt lat="42.6897110" lon="-0.4901790">
        <ele>1662.4</ele>
        <time>2023-01-14T10:42:53Z</time>
      </trkpt>
      <trkpt lat="42.6896890" lon="-0.4901750">
        <ele>1662.6</ele>
        <time>2023-01-14T10:42:54Z</time>
      </trkpt>
      <trkpt lat="42.6896780" lon="-0.4901660">
        <ele>1662.8</ele>
        <time>2023-01-14T10:42:55Z</time>
      </trkpt>
      <trkpt lat="42.6896740" lon="-0.4901520">
        <ele>1663.6</ele>
        <time>2023-01-14T10:42:56Z</time>
      </trkpt>
      <trkpt lat="42.6896710" lon="-0.4901430">
        <ele>1663.8</ele>
        <time>2023-01-14T10:42:57Z</time>
      </trkpt>
      <trkpt lat="42.6896760" lon="-0.4901360">
        <ele>1664.6</ele>
        <time>2023-01-14T10:42:58Z</time>
      </trkpt>
      <trkpt lat="42.6896820" lon="-0.4901340">
        <ele>1665.0</ele>
        <time>2023-01-14T10:42:59Z</time>
      </trkpt>
      <trkpt lat="42.6896830" lon="-0.4901330">
        <ele>1665.6</ele>
        <time>2023-01-14T10:43:00Z</time>
      </trkpt>
      <trkpt lat="42.6896860" lon="-0.4901360">
        <ele>1665.8</ele>
        <time>2023-01-14T10:43:01Z</time>
      </trkpt>
      <trkpt lat="42.6896900" lon="-0.4901390">
        <ele>1666.4</ele>
        <time>2023-01-14T10:43:02Z</time>
      </trkpt>
      <trkpt lat="42.6897000" lon="-0.4901400">
        <ele>1666.8</ele>
        <time>2023-01-14T10:43:03Z</time>
      </trkpt>
      <trkpt lat="42.6897090" lon="-0.4901480">
        <ele>1667.0</ele>
        <time>2023-01-14T10:43:04Z</time>
      </trkpt>
      <trkpt lat="42.6897190" lon="-0.4901480">
        <ele>1667.2</ele>
        <time>2023-01-14T10:43:05Z</time>
      </trkpt>
      <trkpt lat="42.6897300" lon="-0.4901410">
        <ele>1667.4</ele>
        <time>2023-01-14T10:43:06Z</time>
      </trkpt>
      <trkpt lat="42.6897420" lon="-0.4901310">
        <ele>1667.6</ele>
        <time>2023-01-14T10:43:07Z</time>
      </trkpt>
      <trkpt lat="42.6897560" lon="-0.4901250">
        <ele>1667.8</ele>
        <time>2023-01-14T10:43:08Z</time>
      </trkpt>
      <trkpt lat="42.6897670" lon="-0.4901180">
        <ele>1668.0</ele>
        <time>2023-01-14T10:43:09Z</time>
      </trkpt>
      <trkpt lat="42.6897810" lon="-0.4901120">
        <ele>1669.2</ele>
        <time>2023-01-14T10:43:10Z</time>
      </trkpt>
      <trkpt lat="42.6897920" lon="-0.4901080">
        <ele>1669.6</ele>
        <time>2023-01-14T10:43:11Z</time>
      </trkpt>
      <trkpt lat="42.6898050" lon="-0.4901000">
        <ele>1670.0</ele>
        <time>2023-01-14T10:43:12Z</time>
      </trkpt>
      <trkpt lat="42.6898180" lon="-0.4900990">
        <ele>1670.2</ele>
        <time>2023-01-14T10:43:13Z</time>
      </trkpt>
      <trkpt lat="42.6898320" lon="-0.4900930">
        <ele>1670.4</ele>
        <time>2023-01-14T10:43:14Z</time>
      </trkpt>
      <trkpt lat="42.6898490" lon="-0.4900880">
        <ele>1670.6</ele>
        <time>2023-01-14T10:43:15Z</time>
      </trkpt>
      <trkpt lat="42.6898610" lon="-0.4900860">
        <ele>1671.0</ele>
        <time>2023-01-14T10:43:16Z</time>
      </trkpt>
      <trkpt lat="42.6898720" lon="-0.4900820">
        <ele>1671.2</ele>
        <time>2023-01-14T10:43:17Z</time>
      </trkpt>
      <trkpt lat="42.6898790" lon="-0.4900770">
        <ele>1671.4</ele>
        <time>2023-01-14T10:43:18Z</time>
      </trkpt>
      <trkpt lat="42.6898870" lon="-0.4900790">
        <ele>1672.2</ele>
        <time>2023-01-14T10:43:19Z</time>
      </trkpt>
      <trkpt lat="42.6899010" lon="-0.4900760">
        <ele>1672.8</ele>
        <time>2023-01-14T10:43:20Z</time>
      </trkpt>
      <trkpt lat="42.6899130" lon="-0.4900720">
        <ele>1673.2</ele>
        <time>2023-01-14T10:43:21Z</time>
      </trkpt>
      <trkpt lat="42.6899230" lon="-0.4900720">
        <ele>1673.4</ele>
        <time>2023-01-14T10:43:22Z</time>
      </trkpt>
      <trkpt lat="42.6899360" lon="-0.4900720">
        <ele>1673.8</ele>
        <time>2023-01-14T10:43:23Z</time>
      </trkpt>
      <trkpt lat="42.6899510" lon="-0.4900680">
        <ele>1674.2</ele>
        <time>2023-01-14T10:43:24Z</time>
      </trkpt>
      <trkpt lat="42.6899660" lon="-0.4900650">
        <ele>1674.8</ele>
        <time>2023-01-14T10:43:25Z</time>
      </trkpt>
      <trkpt lat="42.6899850" lon="-0.4900690">
        <ele>1675.2</ele>
        <time>2023-01-14T10:43:26Z</time>
      </trkpt>
      <trkpt lat="42.6900030" lon="-0.4900770">
        <ele>1675.8</ele>
        <time>2023-01-14T10:43:27Z</time>
      </trkpt>
      <trkpt lat="42.6900240" lon="-0.4900820">
        <ele>1676.2</ele>
        <time>2023-01-14T10:43:28Z</time>
      </trkpt>
      <trkpt lat="42.6900540" lon="-0.4900810">
        <ele>1676.4</ele>
        <time>2023-01-14T10:43:29Z</time>
      </trkpt>
      <trkpt lat="42.6900730" lon="-0.4900850">
        <ele>1676.6</ele>
        <time>2023-01-14T10:43:30Z</time>
      </trkpt>
      <trkpt lat="42.6900920" lon="-0.4900930">
        <ele>1676.8</ele>
        <time>2023-01-14T10:43:31Z</time>
      </trkpt>
      <trkpt lat="42.6901120" lon="-0.4901010">
        <ele>1677.6</ele>
        <time>2023-01-14T10:43:32Z</time>
      </trkpt>
      <trkpt lat="42.6901320" lon="-0.4901040">
        <ele>1678.0</ele>
        <time>2023-01-14T10:43:33Z</time>
      </trkpt>
      <trkpt lat="42.6901540" lon="-0.4901100">
        <ele>1678.6</ele>
        <time>2023-01-14T10:43:34Z</time>
      </trkpt>
      <trkpt lat="42.6901760" lon="-0.4901090">
        <ele>1679.4</ele>
        <time>2023-01-14T10:43:35Z</time>
      </trkpt>
      <trkpt lat="42.6901880" lon="-0.4901100">
        <ele>1679.6</ele>
        <time>2023-01-14T10:43:36Z</time>
      </trkpt>
      <trkpt lat="42.6902070" lon="-0.4901110">
        <ele>1680.2</ele>
        <time>2023-01-14T10:43:37Z</time>
      </trkpt>
      <trkpt lat="42.6902240" lon="-0.4901160">
        <ele>1680.6</ele>
        <time>2023-01-14T10:43:38Z</time>
      </trkpt>
      <trkpt lat="42.6902370" lon="-0.4901190">
        <ele>1681.0</ele>
        <time>2023-01-14T10:43:39Z</time>
      </trkpt>
      <trkpt lat="42.6902550" lon="-0.4901250">
        <ele>1681.6</ele>
        <time>2023-01-14T10:43:40Z</time>
      </trkpt>
      <trkpt lat="42.6902700" lon="-0.4901330">
        <ele>1681.8</ele>
        <time>2023-01-14T10:43:41Z</time>
      </trkpt>
      <trkpt lat="42.6902890" lon="-0.4901420">
        <ele>1682.0</ele>
        <time>2023-01-14T10:43:42Z</time>
      </trkpt>
      <trkpt lat="42.6903100" lon="-0.4901480">
        <ele>1682.2</ele>
        <time>2023-01-14T10:43:43Z</time>
      </trkpt>
      <trkpt lat="42.6903290" lon="-0.4901550">
        <ele>1682.6</ele>
        <time>2023-01-14T10:43:44Z</time>
      </trkpt>
      <trkpt lat="42.6903480" lon="-0.4901540">
        <ele>1682.8</ele>
        <time>2023-01-14T10:43:45Z</time>
      </trkpt>
      <trkpt lat="42.6903690" lon="-0.4901500">
        <ele>1683.0</ele>
        <time>2023-01-14T10:43:46Z</time>
      </trkpt>
      <trkpt lat="42.6903910" lon="-0.4901500">
        <ele>1683.2</ele>
        <time>2023-01-14T10:43:47Z</time>
      </trkpt>
      <trkpt lat="42.6904110" lon="-0.4901530">
        <ele>1683.4</ele>
        <time>2023-01-14T10:43:48Z</time>
      </trkpt>
      <trkpt lat="42.6904290" lon="-0.4901590">
        <ele>1683.8</ele>
        <time>2023-01-14T10:43:49Z</time>
      </trkpt>
      <trkpt lat="42.6904510" lon="-0.4901670">
        <ele>1684.0</ele>
        <time>2023-01-14T10:43:50Z</time>
      </trkpt>
      <trkpt lat="42.6904740" lon="-0.4901730">
        <ele>1684.2</ele>
        <time>2023-01-14T10:43:51Z</time>
      </trkpt>
      <trkpt lat="42.6904990" lon="-0.4901800">
        <ele>1684.6</ele>
        <time>2023-01-14T10:43:52Z</time>
      </trkpt>
      <trkpt lat="42.6905210" lon="-0.4901870">
        <ele>1684.8</ele>
        <time>2023-01-14T10:43:53Z</time>
      </trkpt>
      <trkpt lat="42.6905390" lon="-0.4901920">
        <ele>1685.2</ele>
        <time>2023-01-14T10:43:54Z</time>
      </trkpt>
      <trkpt lat="42.6905550" lon="-0.4901980">
        <ele>1685.8</ele>
        <time>2023-01-14T10:43:55Z</time>
      </trkpt>
      <trkpt lat="42.6905680" lon="-0.4901990">
        <ele>1686.2</ele>
        <time>2023-01-14T10:43:56Z</time>
      </trkpt>
      <trkpt lat="42.6905870" lon="-0.4901970">
        <ele>1686.6</ele>
        <time>2023-01-14T10:43:57Z</time>
      </trkpt>
      <trkpt lat="42.6905990" lon="-0.4901990">
        <ele>1687.2</ele>
        <time>2023-01-14T10:43:58Z</time>
      </trkpt>
      <trkpt lat="42.6906130" lon="-0.4901960">
        <ele>1687.8</ele>
        <time>2023-01-14T10:43:59Z</time>
      </trkpt>
      <trkpt lat="42.6906260" lon="-0.4901890">
        <ele>1688.2</ele>
        <time>2023-01-14T10:44:00Z</time>
      </trkpt>
      <trkpt lat="42.6906420" lon="-0.4901790">
        <ele>1688.6</ele>
        <time>2023-01-14T10:44:01Z</time>
      </trkpt>
      <trkpt lat="42.6906600" lon="-0.4901680">
        <ele>1689.0</ele>
        <time>2023-01-14T10:44:02Z</time>
      </trkpt>
      <trkpt lat="42.6906790" lon="-0.4901640">
        <ele>1689.0</ele>
        <time>2023-01-14T10:44:03Z</time>
      </trkpt>
      <trkpt lat="42.6907020" lon="-0.4901670">
        <ele>1689.8</ele>
        <time>2023-01-14T10:44:04Z</time>
      </trkpt>
      <trkpt lat="42.6907170" lon="-0.4901590">
        <ele>1690.2</ele>
        <time>2023-01-14T10:44:05Z</time>
      </trkpt>
      <trkpt lat="42.6907380" lon="-0.4901490">
        <ele>1690.8</ele>
        <time>2023-01-14T10:44:06Z</time>
      </trkpt>
      <trkpt lat="42.6907670" lon="-0.4901260">
        <ele>1691.4</ele>
        <time>2023-01-14T10:44:07Z</time>
      </trkpt>
      <trkpt lat="42.6907970" lon="-0.4900940">
        <ele>1691.8</ele>
        <time>2023-01-14T10:44:08Z</time>
      </trkpt>
      <trkpt lat="42.6908220" lon="-0.4900720">
        <ele>1692.2</ele>
        <time>2023-01-14T10:44:09Z</time>
      </trkpt>
      <trkpt lat="42.6908420" lon="-0.4900530">
        <ele>1692.6</ele>
        <time>2023-01-14T10:44:10Z</time>
      </trkpt>
      <trkpt lat="42.6908610" lon="-0.4900290">
        <ele>1692.6</ele>
        <time>2023-01-14T10:44:11Z</time>
      </trkpt>
      <trkpt lat="42.6908800" lon="-0.4900060">
        <ele>1693.0</ele>
        <time>2023-01-14T10:44:12Z</time>
      </trkpt>
      <trkpt lat="42.6909050" lon="-0.4899870">
        <ele>1693.2</ele>
        <time>2023-01-14T10:44:13Z</time>
      </trkpt>
      <trkpt lat="42.6909310" lon="-0.4899650">
        <ele>1693.6</ele>
        <time>2023-01-14T10:44:14Z</time>
      </trkpt>
      <trkpt lat="42.6909510" lon="-0.4899470">
        <ele>1693.8</ele>
        <time>2023-01-14T10:44:15Z</time>
      </trkpt>
      <trkpt lat="42.6909680" lon="-0.4899320">
        <ele>1694.0</ele>
        <time>2023-01-14T10:44:16Z</time>
      </trkpt>
      <trkpt lat="42.6909870" lon="-0.4899170">
        <ele>1694.4</ele>
        <time>2023-01-14T10:44:17Z</time>
      </trkpt>
      <trkpt lat="42.6910030" lon="-0.4899010">
        <ele>1694.8</ele>
        <time>2023-01-14T10:44:18Z</time>
      </trkpt>
      <trkpt lat="42.6910160" lon="-0.4898910">
        <ele>1695.0</ele>
        <time>2023-01-14T10:44:19Z</time>
      </trkpt>
      <trkpt lat="42.6910350" lon="-0.4898860">
        <ele>1695.4</ele>
        <time>2023-01-14T10:44:20Z</time>
      </trkpt>
      <trkpt lat="42.6910580" lon="-0.4898730">
        <ele>1695.8</ele>
        <time>2023-01-14T10:44:21Z</time>
      </trkpt>
      <trkpt lat="42.6910810" lon="-0.4898590">
        <ele>1695.8</ele>
        <time>2023-01-14T10:44:22Z</time>
      </trkpt>
      <trkpt lat="42.6911070" lon="-0.4898400">
        <ele>1696.2</ele>
        <time>2023-01-14T10:44:23Z</time>
      </trkpt>
      <trkpt lat="42.6911300" lon="-0.4898260">
        <ele>1696.4</ele>
        <time>2023-01-14T10:44:24Z</time>
      </trkpt>
      <trkpt lat="42.6911550" lon="-0.4898080">
        <ele>1696.6</ele>
        <time>2023-01-14T10:44:25Z</time>
      </trkpt>
      <trkpt lat="42.6911840" lon="-0.4897870">
        <ele>1697.0</ele>
        <time>2023-01-14T10:44:26Z</time>
      </trkpt>
      <trkpt lat="42.6912070" lon="-0.4897670">
        <ele>1697.2</ele>
        <time>2023-01-14T10:44:27Z</time>
      </trkpt>
      <trkpt lat="42.6912200" lon="-0.4897460">
        <ele>1697.2</ele>
        <time>2023-01-14T10:44:28Z</time>
      </trkpt>
      <trkpt lat="42.6912350" lon="-0.4897220">
        <ele>1697.2</ele>
        <time>2023-01-14T10:44:29Z</time>
      </trkpt>
      <trkpt lat="42.6912530" lon="-0.4896950">
        <ele>1697.4</ele>
        <time>2023-01-14T10:44:30Z</time>
      </trkpt>
      <trkpt lat="42.6912720" lon="-0.4896750">
        <ele>1697.6</ele>
        <time>2023-01-14T10:44:31Z</time>
      </trkpt>
      <trkpt lat="42.6912990" lon="-0.4896580">
        <ele>1697.8</ele>
        <time>2023-01-14T10:44:32Z</time>
      </trkpt>
      <trkpt lat="42.6913180" lon="-0.4896350">
        <ele>1698.2</ele>
        <time>2023-01-14T10:44:33Z</time>
      </trkpt>
      <trkpt lat="42.6913380" lon="-0.4896040">
        <ele>1698.4</ele>
        <time>2023-01-14T10:44:34Z</time>
      </trkpt>
      <trkpt lat="42.6913550" lon="-0.4895790">
        <ele>1698.6</ele>
        <time>2023-01-14T10:44:35Z</time>
      </trkpt>
      <trkpt lat="42.6913760" lon="-0.4895560">
        <ele>1699.2</ele>
        <time>2023-01-14T10:44:36Z</time>
      </trkpt>
      <trkpt lat="42.6913960" lon="-0.4895400">
        <ele>1699.4</ele>
        <time>2023-01-14T10:44:37Z</time>
      </trkpt>
      <trkpt lat="42.6914170" lon="-0.4895200">
        <ele>1700.0</ele>
        <time>2023-01-14T10:44:38Z</time>
      </trkpt>
      <trkpt lat="42.6914380" lon="-0.4894950">
        <ele>1700.4</ele>
        <time>2023-01-14T10:44:39Z</time>
      </trkpt>
      <trkpt lat="42.6914610" lon="-0.4894660">
        <ele>1700.6</ele>
        <time>2023-01-14T10:44:40Z</time>
      </trkpt>
      <trkpt lat="42.6914890" lon="-0.4894420">
        <ele>1701.0</ele>
        <time>2023-01-14T10:44:41Z</time>
      </trkpt>
      <trkpt lat="42.6915110" lon="-0.4894220">
        <ele>1701.2</ele>
        <time>2023-01-14T10:44:42Z</time>
      </trkpt>
      <trkpt lat="42.6915310" lon="-0.4894000">
        <ele>1701.4</ele>
        <time>2023-01-14T10:44:43Z</time>
      </trkpt>
      <trkpt lat="42.6915500" lon="-0.4893740">
        <ele>1701.4</ele>
        <time>2023-01-14T10:44:44Z</time>
      </trkpt>
      <trkpt lat="42.6915700" lon="-0.4893470">
        <ele>1701.6</ele>
        <time>2023-01-14T10:44:45Z</time>
      </trkpt>
      <trkpt lat="42.6915960" lon="-0.4893180">
        <ele>1702.0</ele>
        <time>2023-01-14T10:44:46Z</time>
      </trkpt>
      <trkpt lat="42.6916190" lon="-0.4892890">
        <ele>1702.2</ele>
        <time>2023-01-14T10:44:47Z</time>
      </trkpt>
      <trkpt lat="42.6916390" lon="-0.4892640">
        <ele>1702.6</ele>
        <time>2023-01-14T10:44:48Z</time>
      </trkpt>
      <trkpt lat="42.6916530" lon="-0.4892410">
        <ele>1702.6</ele>
        <time>2023-01-14T10:44:49Z</time>
      </trkpt>
      <trkpt lat="42.6916670" lon="-0.4892220">
        <ele>1702.8</ele>
        <time>2023-01-14T10:44:50Z</time>
      </trkpt>
      <trkpt lat="42.6916840" lon="-0.4892010">
        <ele>1703.0</ele>
        <time>2023-01-14T10:44:51Z</time>
      </trkpt>
      <trkpt lat="42.6917030" lon="-0.4891820">
        <ele>1703.2</ele>
        <time>2023-01-14T10:44:52Z</time>
      </trkpt>
      <trkpt lat="42.6917260" lon="-0.4891640">
        <ele>1703.4</ele>
        <time>2023-01-14T10:44:53Z</time>
      </trkpt>
      <trkpt lat="42.6917530" lon="-0.4891470">
        <ele>1703.8</ele>
        <time>2023-01-14T10:44:54Z</time>
      </trkpt>
      <trkpt lat="42.6917750" lon="-0.4891280">
        <ele>1704.2</ele>
        <time>2023-01-14T10:44:55Z</time>
      </trkpt>
      <trkpt lat="42.6918010" lon="-0.4891130">
        <ele>1705.0</ele>
        <time>2023-01-14T10:44:56Z</time>
      </trkpt>
      <trkpt lat="42.6918240" lon="-0.4890990">
        <ele>1705.4</ele>
        <time>2023-01-14T10:44:57Z</time>
      </trkpt>
      <trkpt lat="42.6918410" lon="-0.4890850">
        <ele>1706.0</ele>
        <time>2023-01-14T10:44:58Z</time>
      </trkpt>
      <trkpt lat="42.6918610" lon="-0.4890710">
        <ele>1706.4</ele>
        <time>2023-01-14T10:44:59Z</time>
      </trkpt>
      <trkpt lat="42.6918830" lon="-0.4890520">
        <ele>1706.8</ele>
        <time>2023-01-14T10:45:00Z</time>
      </trkpt>
      <trkpt lat="42.6919030" lon="-0.4890280">
        <ele>1707.0</ele>
        <time>2023-01-14T10:45:01Z</time>
      </trkpt>
      <trkpt lat="42.6919200" lon="-0.4890020">
        <ele>1707.2</ele>
        <time>2023-01-14T10:45:02Z</time>
      </trkpt>
      <trkpt lat="42.6919420" lon="-0.4889740">
        <ele>1707.6</ele>
        <time>2023-01-14T10:45:03Z</time>
      </trkpt>
      <trkpt lat="42.6919650" lon="-0.4889450">
        <ele>1707.8</ele>
        <time>2023-01-14T10:45:04Z</time>
      </trkpt>
      <trkpt lat="42.6919870" lon="-0.4889140">
        <ele>1708.2</ele>
        <time>2023-01-14T10:45:05Z</time>
      </trkpt>
      <trkpt lat="42.6920100" lon="-0.4888890">
        <ele>1708.6</ele>
        <time>2023-01-14T10:45:06Z</time>
      </trkpt>
      <trkpt lat="42.6920350" lon="-0.4888630">
        <ele>1708.6</ele>
        <time>2023-01-14T10:45:07Z</time>
      </trkpt>
      <trkpt lat="42.6920580" lon="-0.4888300">
        <ele>1708.8</ele>
        <time>2023-01-14T10:45:08Z</time>
      </trkpt>
      <trkpt lat="42.6920820" lon="-0.4887960">
        <ele>1709.0</ele>
        <time>2023-01-14T10:45:09Z</time>
      </trkpt>
      <trkpt lat="42.6921010" lon="-0.4887620">
        <ele>1709.2</ele>
        <time>2023-01-14T10:45:10Z</time>
      </trkpt>
      <trkpt lat="42.6921260" lon="-0.4887290">
        <ele>1709.2</ele>
        <time>2023-01-14T10:45:11Z</time>
      </trkpt>
      <trkpt lat="42.6921480" lon="-0.4886990">
        <ele>1709.6</ele>
        <time>2023-01-14T10:45:12Z</time>
      </trkpt>
      <trkpt lat="42.6921740" lon="-0.4886690">
        <ele>1710.2</ele>
        <time>2023-01-14T10:45:13Z</time>
      </trkpt>
      <trkpt lat="42.6921980" lon="-0.4886420">
        <ele>1710.4</ele>
        <time>2023-01-14T10:45:14Z</time>
      </trkpt>
      <trkpt lat="42.6922220" lon="-0.4886130">
        <ele>1710.4</ele>
        <time>2023-01-14T10:45:15Z</time>
      </trkpt>
      <trkpt lat="42.6922440" lon="-0.4885940">
        <ele>1710.8</ele>
        <time>2023-01-14T10:45:16Z</time>
      </trkpt>
      <trkpt lat="42.6922720" lon="-0.4885860">
        <ele>1711.0</ele>
        <time>2023-01-14T10:45:17Z</time>
      </trkpt>
      <trkpt lat="42.6923000" lon="-0.4885750">
        <ele>1711.0</ele>
        <time>2023-01-14T10:45:18Z</time>
      </trkpt>
      <trkpt lat="42.6923340" lon="-0.4885570">
        <ele>1711.0</ele>
        <time>2023-01-14T10:45:19Z</time>
      </trkpt>
      <trkpt lat="42.6923650" lon="-0.4885350">
        <ele>1711.0</ele>
        <time>2023-01-14T10:45:20Z</time>
      </trkpt>
      <trkpt lat="42.6923950" lon="-0.4885130">
        <ele>1711.0</ele>
        <time>2023-01-14T10:45:21Z</time>
      </trkpt>
      <trkpt lat="42.6924200" lon="-0.4884920">
        <ele>1710.8</ele>
        <time>2023-01-14T10:45:22Z</time>
      </trkpt>
      <trkpt lat="42.6924400" lon="-0.4884730">
        <ele>1710.8</ele>
        <time>2023-01-14T10:45:23Z</time>
      </trkpt>
      <trkpt lat="42.6924640" lon="-0.4884550">
        <ele>1710.6</ele>
        <time>2023-01-14T10:45:24Z</time>
      </trkpt>
      <trkpt lat="42.6924810" lon="-0.4884400">
        <ele>1710.6</ele>
        <time>2023-01-14T10:45:25Z</time>
      </trkpt>
      <trkpt lat="42.6924970" lon="-0.4884280">
        <ele>1710.4</ele>
        <time>2023-01-14T10:45:26Z</time>
      </trkpt>
      <trkpt lat="42.6925110" lon="-0.4884190">
        <ele>1710.6</ele>
        <time>2023-01-14T10:45:27Z</time>
      </trkpt>
      <trkpt lat="42.6925260" lon="-0.4884110">
        <ele>1710.8</ele>
        <time>2023-01-14T10:45:28Z</time>
      </trkpt>
      <trkpt lat="42.6925430" lon="-0.4884050">
        <ele>1711.2</ele>
        <time>2023-01-14T10:45:29Z</time>
      </trkpt>
      <trkpt lat="42.6925690" lon="-0.4884020">
        <ele>1711.6</ele>
        <time>2023-01-14T10:45:30Z</time>
      </trkpt>
      <trkpt lat="42.6925850" lon="-0.4883910">
        <ele>1711.8</ele>
        <time>2023-01-14T10:45:31Z</time>
      </trkpt>
      <trkpt lat="42.6926080" lon="-0.4883810">
        <ele>1712.2</ele>
        <time>2023-01-14T10:45:32Z</time>
      </trkpt>
      <trkpt lat="42.6926210" lon="-0.4883750">
        <ele>1712.8</ele>
        <time>2023-01-14T10:45:33Z</time>
      </trkpt>
      <trkpt lat="42.6926520" lon="-0.4883690">
        <ele>1713.2</ele>
        <time>2023-01-14T10:45:34Z</time>
      </trkpt>
      <trkpt lat="42.6926730" lon="-0.4883670">
        <ele>1714.0</ele>
        <time>2023-01-14T10:45:35Z</time>
      </trkpt>
      <trkpt lat="42.6926950" lon="-0.4883620">
        <ele>1714.4</ele>
        <time>2023-01-14T10:45:36Z</time>
      </trkpt>
      <trkpt lat="42.6927140" lon="-0.4883600">
        <ele>1714.8</ele>
        <time>2023-01-14T10:45:37Z</time>
      </trkpt>
      <trkpt lat="42.6927330" lon="-0.4883560">
        <ele>1715.2</ele>
        <time>2023-01-14T10:45:38Z</time>
      </trkpt>
      <trkpt lat="42.6927550" lon="-0.4883500">
        <ele>1715.4</ele>
        <time>2023-01-14T10:45:39Z</time>
      </trkpt>
      <trkpt lat="42.6927820" lon="-0.4883480">
        <ele>1715.4</ele>
        <time>2023-01-14T10:45:40Z</time>
      </trkpt>
      <trkpt lat="42.6928100" lon="-0.4883530">
        <ele>1716.0</ele>
        <time>2023-01-14T10:45:41Z</time>
      </trkpt>
      <trkpt lat="42.6928370" lon="-0.4883610">
        <ele>1716.2</ele>
        <time>2023-01-14T10:45:42Z</time>
      </trkpt>
      <trkpt lat="42.6928630" lon="-0.4883710">
        <ele>1716.6</ele>
        <time>2023-01-14T10:45:43Z</time>
      </trkpt>
      <trkpt lat="42.6928950" lon="-0.4883860">
        <ele>1717.0</ele>
        <time>2023-01-14T10:45:44Z</time>
      </trkpt>
      <trkpt lat="42.6929250" lon="-0.4884030">
        <ele>1717.4</ele>
        <time>2023-01-14T10:45:45Z</time>
      </trkpt>
      <trkpt lat="42.6929540" lon="-0.4884140">
        <ele>1717.8</ele>
        <time>2023-01-14T10:45:46Z</time>
      </trkpt>
      <trkpt lat="42.6929840" lon="-0.4884170">
        <ele>1718.0</ele>
        <time>2023-01-14T10:45:47Z</time>
      </trkpt>
      <trkpt lat="42.6930130" lon="-0.4884140">
        <ele>1718.4</ele>
        <time>2023-01-14T10:45:48Z</time>
      </trkpt>
      <trkpt lat="42.6930420" lon="-0.4884050">
        <ele>1718.6</ele>
        <time>2023-01-14T10:45:49Z</time>
      </trkpt>
      <trkpt lat="42.6930680" lon="-0.4883870">
        <ele>1719.0</ele>
        <time>2023-01-14T10:45:50Z</time>
      </trkpt>
      <trkpt lat="42.6930950" lon="-0.4883690">
        <ele>1719.0</ele>
        <time>2023-01-14T10:45:51Z</time>
      </trkpt>
      <trkpt lat="42.6931220" lon="-0.4883520">
        <ele>1719.4</ele>
        <time>2023-01-14T10:45:52Z</time>
      </trkpt>
      <trkpt lat="42.6931460" lon="-0.4883370">
        <ele>1719.8</ele>
        <time>2023-01-14T10:45:53Z</time>
      </trkpt>
      <trkpt lat="42.6931640" lon="-0.4883220">
        <ele>1720.4</ele>
        <time>2023-01-14T10:45:54Z</time>
      </trkpt>
      <trkpt lat="42.6931820" lon="-0.4883030">
        <ele>1720.6</ele>
        <time>2023-01-14T10:45:55Z</time>
      </trkpt>
      <trkpt lat="42.6932020" lon="-0.4882850">
        <ele>1721.0</ele>
        <time>2023-01-14T10:45:56Z</time>
      </trkpt>
      <trkpt lat="42.6932200" lon="-0.4882690">
        <ele>1721.2</ele>
        <time>2023-01-14T10:45:57Z</time>
      </trkpt>
      <trkpt lat="42.6932380" lon="-0.4882530">
        <ele>1721.6</ele>
        <time>2023-01-14T10:45:58Z</time>
      </trkpt>
      <trkpt lat="42.6932600" lon="-0.4882390">
        <ele>1722.4</ele>
        <time>2023-01-14T10:45:59Z</time>
      </trkpt>
      <trkpt lat="42.6932820" lon="-0.4882260">
        <ele>1722.8</ele>
        <time>2023-01-14T10:46:00Z</time>
      </trkpt>
      <trkpt lat="42.6933040" lon="-0.4882140">
        <ele>1723.2</ele>
        <time>2023-01-14T10:46:01Z</time>
      </trkpt>
      <trkpt lat="42.6933230" lon="-0.4882010">
        <ele>1723.6</ele>
        <time>2023-01-14T10:46:02Z</time>
      </trkpt>
      <trkpt lat="42.6933420" lon="-0.4881860">
        <ele>1724.0</ele>
        <time>2023-01-14T10:46:03Z</time>
      </trkpt>
      <trkpt lat="42.6933650" lon="-0.4881690">
        <ele>1724.4</ele>
        <time>2023-01-14T10:46:04Z</time>
      </trkpt>
      <trkpt lat="42.6933910" lon="-0.4881490">
        <ele>1725.0</ele>
        <time>2023-01-14T10:46:05Z</time>
      </trkpt>
      <trkpt lat="42.6934140" lon="-0.4881280">
        <ele>1725.2</ele>
        <time>2023-01-14T10:46:06Z</time>
      </trkpt>
      <trkpt lat="42.6934350" lon="-0.4881070">
        <ele>1725.4</ele>
        <time>2023-01-14T10:46:07Z</time>
      </trkpt>
      <trkpt lat="42.6934540" lon="-0.4880840">
        <ele>1725.8</ele>
        <time>2023-01-14T10:46:08Z</time>
      </trkpt>
      <trkpt lat="42.6934750" lon="-0.4880600">
        <ele>1726.0</ele>
        <time>2023-01-14T10:46:09Z</time>
      </trkpt>
      <trkpt lat="42.6934930" lon="-0.4880370">
        <ele>1726.4</ele>
        <time>2023-01-14T10:46:10Z</time>
      </trkpt>
      <trkpt lat="42.6935080" lon="-0.4880140">
        <ele>1727.0</ele>
        <time>2023-01-14T10:46:11Z</time>
      </trkpt>
      <trkpt lat="42.6935210" lon="-0.4879890">
        <ele>1727.6</ele>
        <time>2023-01-14T10:46:12Z</time>
      </trkpt>
      <trkpt lat="42.6935340" lon="-0.4879610">
        <ele>1727.8</ele>
        <time>2023-01-14T10:46:13Z</time>
      </trkpt>
      <trkpt lat="42.6935460" lon="-0.4879320">
        <ele>1728.4</ele>
        <time>2023-01-14T10:46:14Z</time>
      </trkpt>
      <trkpt lat="42.6935520" lon="-0.4879030">
        <ele>1729.0</ele>
        <time>2023-01-14T10:46:15Z</time>
      </trkpt>
      <trkpt lat="42.6935580" lon="-0.4878730">
        <ele>1729.4</ele>
        <time>2023-01-14T10:46:16Z</time>
      </trkpt>
      <trkpt lat="42.6935660" lon="-0.4878420">
        <ele>1730.0</ele>
        <time>2023-01-14T10:46:17Z</time>
      </trkpt>
      <trkpt lat="42.6935730" lon="-0.4878100">
        <ele>1730.4</ele>
        <time>2023-01-14T10:46:18Z</time>
      </trkpt>
      <trkpt lat="42.6935840" lon="-0.4877790">
        <ele>1730.6</ele>
        <time>2023-01-14T10:46:19Z</time>
      </trkpt>
      <trkpt lat="42.6935920" lon="-0.4877460">
        <ele>1731.2</ele>
        <time>2023-01-14T10:46:20Z</time>
      </trkpt>
      <trkpt lat="42.6935970" lon="-0.4877130">
        <ele>1731.8</ele>
        <time>2023-01-14T10:46:21Z</time>
      </trkpt>
      <trkpt lat="42.6935990" lon="-0.4876770">
        <ele>1732.2</ele>
        <time>2023-01-14T10:46:22Z</time>
      </trkpt>
      <trkpt lat="42.6936060" lon="-0.4876420">
        <ele>1732.6</ele>
        <time>2023-01-14T10:46:23Z</time>
      </trkpt>
      <trkpt lat="42.6936150" lon="-0.4876070">
        <ele>1732.8</ele>
        <time>2023-01-14T10:46:24Z</time>
      </trkpt>
      <trkpt lat="42.6936250" lon="-0.4875750">
        <ele>1732.8</ele>
        <time>2023-01-14T10:46:25Z</time>
      </trkpt>
      <trkpt lat="42.6936330" lon="-0.4875480">
        <ele>1733.0</ele>
        <time>2023-01-14T10:46:26Z</time>
      </trkpt>
      <trkpt lat="42.6936390" lon="-0.4875220">
        <ele>1733.2</ele>
        <time>2023-01-14T10:46:27Z</time>
      </trkpt>
      <trkpt lat="42.6936440" lon="-0.4874960">
        <ele>1733.4</ele>
        <time>2023-01-14T10:46:28Z</time>
      </trkpt>
      <trkpt lat="42.6936470" lon="-0.4874660">
        <ele>1733.8</ele>
        <time>2023-01-14T10:46:29Z</time>
      </trkpt>
      <trkpt lat="42.6936480" lon="-0.4874330">
        <ele>1734.2</ele>
        <time>2023-01-14T10:46:30Z</time>
      </trkpt>
      <trkpt lat="42.6936470" lon="-0.4874000">
        <ele>1734.6</ele>
        <time>2023-01-14T10:46:31Z</time>
      </trkpt>
      <trkpt lat="42.6936480" lon="-0.4873660">
        <ele>1734.8</ele>
        <time>2023-01-14T10:46:32Z</time>
      </trkpt>
      <trkpt lat="42.6936500" lon="-0.4873350">
        <ele>1735.0</ele>
        <time>2023-01-14T10:46:33Z</time>
      </trkpt>
      <trkpt lat="42.6936550" lon="-0.4873070">
        <ele>1735.6</ele>
        <time>2023-01-14T10:46:34Z</time>
      </trkpt>
      <trkpt lat="42.6936600" lon="-0.4872760">
        <ele>1736.0</ele>
        <time>2023-01-14T10:46:35Z</time>
      </trkpt>
      <trkpt lat="42.6936650" lon="-0.4872440">
        <ele>1736.4</ele>
        <time>2023-01-14T10:46:36Z</time>
      </trkpt>
      <trkpt lat="42.6936720" lon="-0.4872150">
        <ele>1736.8</ele>
        <time>2023-01-14T10:46:37Z</time>
      </trkpt>
      <trkpt lat="42.6936760" lon="-0.4871860">
        <ele>1737.2</ele>
        <time>2023-01-14T10:46:38Z</time>
      </trkpt>
      <trkpt lat="42.6936800" lon="-0.4871570">
        <ele>1737.4</ele>
        <time>2023-01-14T10:46:39Z</time>
      </trkpt>
      <trkpt lat="42.6936800" lon="-0.4871280">
        <ele>1738.2</ele>
        <time>2023-01-14T10:46:40Z</time>
      </trkpt>
      <trkpt lat="42.6936780" lon="-0.4870980">
        <ele>1738.6</ele>
        <time>2023-01-14T10:46:41Z</time>
      </trkpt>
      <trkpt lat="42.6936750" lon="-0.4870680">
        <ele>1739.0</ele>
        <time>2023-01-14T10:46:42Z</time>
      </trkpt>
      <trkpt lat="42.6936700" lon="-0.4870370">
        <ele>1739.6</ele>
        <time>2023-01-14T10:46:43Z</time>
      </trkpt>
      <trkpt lat="42.6936650" lon="-0.4870080">
        <ele>1740.4</ele>
        <time>2023-01-14T10:46:44Z</time>
      </trkpt>
      <trkpt lat="42.6936610" lon="-0.4869780">
        <ele>1741.0</ele>
        <time>2023-01-14T10:46:45Z</time>
      </trkpt>
      <trkpt lat="42.6936580" lon="-0.4869480">
        <ele>1741.2</ele>
        <time>2023-01-14T10:46:46Z</time>
      </trkpt>
      <trkpt lat="42.6936550" lon="-0.4869180">
        <ele>1741.6</ele>
        <time>2023-01-14T10:46:47Z</time>
      </trkpt>
      <trkpt lat="42.6936560" lon="-0.4868890">
        <ele>1741.8</ele>
        <time>2023-01-14T10:46:48Z</time>
      </trkpt>
      <trkpt lat="42.6936650" lon="-0.4868610">
        <ele>1742.2</ele>
        <time>2023-01-14T10:46:49Z</time>
      </trkpt>
      <trkpt lat="42.6936800" lon="-0.4868360">
        <ele>1742.6</ele>
        <time>2023-01-14T10:46:50Z</time>
      </trkpt>
      <trkpt lat="42.6936950" lon="-0.4868150">
        <ele>1742.8</ele>
        <time>2023-01-14T10:46:51Z</time>
      </trkpt>
      <trkpt lat="42.6937120" lon="-0.4867950">
        <ele>1743.2</ele>
        <time>2023-01-14T10:46:52Z</time>
      </trkpt>
      <trkpt lat="42.6937310" lon="-0.4867740">
        <ele>1744.0</ele>
        <time>2023-01-14T10:46:53Z</time>
      </trkpt>
      <trkpt lat="42.6937530" lon="-0.4867550">
        <ele>1744.2</ele>
        <time>2023-01-14T10:46:54Z</time>
      </trkpt>
      <trkpt lat="42.6937750" lon="-0.4867460">
        <ele>1744.4</ele>
        <time>2023-01-14T10:46:55Z</time>
      </trkpt>
      <trkpt lat="42.6938010" lon="-0.4867500">
        <ele>1744.6</ele>
        <time>2023-01-14T10:46:56Z</time>
      </trkpt>
      <trkpt lat="42.6938270" lon="-0.4867690">
        <ele>1745.0</ele>
        <time>2023-01-14T10:46:57Z</time>
      </trkpt>
      <trkpt lat="42.6938520" lon="-0.4868060">
        <ele>1745.4</ele>
        <time>2023-01-14T10:46:58Z</time>
      </trkpt>
      <trkpt lat="42.6938750" lon="-0.4868550">
        <ele>1745.6</ele>
        <time>2023-01-14T10:46:59Z</time>
      </trkpt>
      <trkpt lat="42.6938970" lon="-0.4869130">
        <ele>1745.6</ele>
        <time>2023-01-14T10:47:00Z</time>
      </trkpt>
      <trkpt lat="42.6939190" lon="-0.4869740">
        <ele>1745.6</ele>
        <time>2023-01-14T10:47:01Z</time>
      </trkpt>
      <trkpt lat="42.6939430" lon="-0.4870380">
        <ele>1745.6</ele>
        <time>2023-01-14T10:47:02Z</time>
      </trkpt>
      <trkpt lat="42.6939640" lon="-0.4871060">
        <ele>1745.6</ele>
        <time>2023-01-14T10:47:03Z</time>
      </trkpt>
      <trkpt lat="42.6939860" lon="-0.4871750">
        <ele>1745.6</ele>
        <time>2023-01-14T10:47:04Z</time>
      </trkpt>
      <trkpt lat="42.6940090" lon="-0.4872430">
        <ele>1745.4</ele>
        <time>2023-01-14T10:47:05Z</time>
      </trkpt>
      <trkpt lat="42.6940320" lon="-0.4873110">
        <ele>1745.2</ele>
        <time>2023-01-14T10:47:06Z</time>
      </trkpt>
      <trkpt lat="42.6940500" lon="-0.4873800">
        <ele>1745.0</ele>
        <time>2023-01-14T10:47:07Z</time>
      </trkpt>
      <trkpt lat="42.6940630" lon="-0.4874540">
        <ele>1745.0</ele>
        <time>2023-01-14T10:47:08Z</time>
      </trkpt>
      <trkpt lat="42.6940760" lon="-0.4875280">
        <ele>1745.0</ele>
        <time>2023-01-14T10:47:09Z</time>
      </trkpt>
      <trkpt lat="42.6940840" lon="-0.4876020">
        <ele>1745.0</ele>
        <time>2023-01-14T10:47:10Z</time>
      </trkpt>
      <trkpt lat="42.6940890" lon="-0.4876740">
        <ele>1744.8</ele>
        <time>2023-01-14T10:47:11Z</time>
      </trkpt>
      <trkpt lat="42.6940880" lon="-0.4877450">
        <ele>1744.8</ele>
        <time>2023-01-14T10:47:12Z</time>
      </trkpt>
      <trkpt lat="42.6940860" lon="-0.4878120">
        <ele>1744.8</ele>
        <time>2023-01-14T10:47:13Z</time>
      </trkpt>
      <trkpt lat="42.6940820" lon="-0.4878750">
        <ele>1744.8</ele>
        <time>2023-01-14T10:47:14Z</time>
      </trkpt>
      <trkpt lat="42.6940720" lon="-0.4879350">
        <ele>1744.8</ele>
        <time>2023-01-14T10:47:15Z</time>
      </trkpt>
      <trkpt lat="42.6940560" lon="-0.4879900">
        <ele>1745.0</ele>
        <time>2023-01-14T10:47:16Z</time>
      </trkpt>
      <trkpt lat="42.6940360" lon="-0.4880410">
        <ele>1745.2</ele>
        <time>2023-01-14T10:47:17Z</time>
      </trkpt>
      <trkpt lat="42.6940170" lon="-0.4880900">
        <ele>1745.6</ele>
        <time>2023-01-14T10:47:18Z</time>
      </trkpt>
      <trkpt lat="42.6940000" lon="-0.4881360">
        <ele>1746.0</ele>
        <time>2023-01-14T10:47:19Z</time>
      </trkpt>
      <trkpt lat="42.6939830" lon="-0.4881780">
        <ele>1746.2</ele>
        <time>2023-01-14T10:47:20Z</time>
      </trkpt>
      <trkpt lat="42.6939640" lon="-0.4882200">
        <ele>1746.4</ele>
        <time>2023-01-14T10:47:21Z</time>
      </trkpt>
      <trkpt lat="42.6939440" lon="-0.4882660">
        <ele>1746.8</ele>
        <time>2023-01-14T10:47:22Z</time>
      </trkpt>
      <trkpt lat="42.6939250" lon="-0.4883110">
        <ele>1747.0</ele>
        <time>2023-01-14T10:47:23Z</time>
      </trkpt>
      <trkpt lat="42.6939090" lon="-0.4883590">
        <ele>1747.2</ele>
        <time>2023-01-14T10:47:24Z</time>
      </trkpt>
      <trkpt lat="42.6938960" lon="-0.4884080">
        <ele>1747.6</ele>
        <time>2023-01-14T10:47:25Z</time>
      </trkpt>
      <trkpt lat="42.6938800" lon="-0.4884580">
        <ele>1747.8</ele>
        <time>2023-01-14T10:47:26Z</time>
      </trkpt>
      <trkpt lat="42.6938660" lon="-0.4885070">
        <ele>1748.0</ele>
        <time>2023-01-14T10:47:27Z</time>
      </trkpt>
      <trkpt lat="42.6938530" lon="-0.4885590">
        <ele>1748.2</ele>
        <time>2023-01-14T10:47:28Z</time>
      </trkpt>
      <trkpt lat="42.6938420" lon="-0.4886100">
        <ele>1748.4</ele>
        <time>2023-01-14T10:47:29Z</time>
      </trkpt>
      <trkpt lat="42.6938330" lon="-0.4886590">
        <ele>1748.8</ele>
        <time>2023-01-14T10:47:30Z</time>
      </trkpt>
      <trkpt lat="42.6938250" lon="-0.4887070">
        <ele>1749.0</ele>
        <time>2023-01-14T10:47:31Z</time>
      </trkpt>
      <trkpt lat="42.6938180" lon="-0.4887560">
        <ele>1749.2</ele>
        <time>2023-01-14T10:47:32Z</time>
      </trkpt>
      <trkpt lat="42.6938070" lon="-0.4888070">
        <ele>1749.2</ele>
        <time>2023-01-14T10:47:33Z</time>
      </trkpt>
      <trkpt lat="42.6937970" lon="-0.4888590">
        <ele>1749.4</ele>
        <time>2023-01-14T10:47:34Z</time>
      </trkpt>
      <trkpt lat="42.6937860" lon="-0.4889110">
        <ele>1749.6</ele>
        <time>2023-01-14T10:47:35Z</time>
      </trkpt>
      <trkpt lat="42.6937750" lon="-0.4889600">
        <ele>1749.6</ele>
        <time>2023-01-14T10:47:36Z</time>
      </trkpt>
      <trkpt lat="42.6937700" lon="-0.4890090">
        <ele>1749.8</ele>
        <time>2023-01-14T10:47:37Z</time>
      </trkpt>
      <trkpt lat="42.6937640" lon="-0.4890600">
        <ele>1750.2</ele>
        <time>2023-01-14T10:47:38Z</time>
      </trkpt>
      <trkpt lat="42.6937530" lon="-0.4891140">
        <ele>1750.4</ele>
        <time>2023-01-14T10:47:39Z</time>
      </trkpt>
      <trkpt lat="42.6937390" lon="-0.4891670">
        <ele>1750.6</ele>
        <time>2023-01-14T10:47:40Z</time>
      </trkpt>
      <trkpt lat="42.6937190" lon="-0.4892230">
        <ele>1751.0</ele>
        <time>2023-01-14T10:47:41Z</time>
      </trkpt>
      <trkpt lat="42.6937020" lon="-0.4892800">
        <ele>1751.2</ele>
        <time>2023-01-14T10:47:42Z</time>
      </trkpt>
      <trkpt lat="42.6936940" lon="-0.4893310">
        <ele>1751.6</ele>
        <time>2023-01-14T10:47:43Z</time>
      </trkpt>
      <trkpt lat="42.6936800" lon="-0.4893810">
        <ele>1752.0</ele>
        <time>2023-01-14T10:47:44Z</time>
      </trkpt>
      <trkpt lat="42.6936680" lon="-0.4894290">
        <ele>1752.2</ele>
        <time>2023-01-14T10:47:45Z</time>
      </trkpt>
      <trkpt lat="42.6936410" lon="-0.4894850">
        <ele>1752.4</ele>
        <time>2023-01-14T10:47:46Z</time>
      </trkpt>
      <trkpt lat="42.6936260" lon="-0.4895310">
        <ele>1752.6</ele>
        <time>2023-01-14T10:47:47Z</time>
      </trkpt>
      <trkpt lat="42.6936070" lon="-0.4895790">
        <ele>1752.8</ele>
        <time>2023-01-14T10:47:48Z</time>
      </trkpt>
      <trkpt lat="42.6935740" lon="-0.4896350">
        <ele>1753.2</ele>
        <time>2023-01-14T10:47:49Z</time>
      </trkpt>
      <trkpt lat="42.6935540" lon="-0.4896860">
        <ele>1753.4</ele>
        <time>2023-01-14T10:47:50Z</time>
      </trkpt>
      <trkpt lat="42.6935370" lon="-0.4897310">
        <ele>1753.4</ele>
        <time>2023-01-14T10:47:51Z</time>
      </trkpt>
      <trkpt lat="42.6935160" lon="-0.4897730">
        <ele>1753.6</ele>
        <time>2023-01-14T10:47:52Z</time>
      </trkpt>
      <trkpt lat="42.6934790" lon="-0.4898190">
        <ele>1754.2</ele>
        <time>2023-01-14T10:47:53Z</time>
      </trkpt>
      <trkpt lat="42.6934580" lon="-0.4898590">
        <ele>1754.6</ele>
        <time>2023-01-14T10:47:54Z</time>
      </trkpt>
      <trkpt lat="42.6934450" lon="-0.4899040">
        <ele>1755.0</ele>
        <time>2023-01-14T10:47:55Z</time>
      </trkpt>
      <trkpt lat="42.6934300" lon="-0.4899520">
        <ele>1755.4</ele>
        <time>2023-01-14T10:47:56Z</time>
      </trkpt>
      <trkpt lat="42.6934120" lon="-0.4899950">
        <ele>1755.8</ele>
        <time>2023-01-14T10:47:57Z</time>
      </trkpt>
      <trkpt lat="42.6934010" lon="-0.4900420">
        <ele>1756.0</ele>
        <time>2023-01-14T10:47:58Z</time>
      </trkpt>
      <trkpt lat="42.6933880" lon="-0.4900820">
        <ele>1756.2</ele>
        <time>2023-01-14T10:47:59Z</time>
      </trkpt>
      <trkpt lat="42.6933760" lon="-0.4901230">
        <ele>1756.6</ele>
        <time>2023-01-14T10:48:00Z</time>
      </trkpt>
      <trkpt lat="42.6933640" lon="-0.4901720">
        <ele>1756.8</ele>
        <time>2023-01-14T10:48:01Z</time>
      </trkpt>
      <trkpt lat="42.6933580" lon="-0.4902240">
        <ele>1757.0</ele>
        <time>2023-01-14T10:48:02Z</time>
      </trkpt>
      <trkpt lat="42.6933640" lon="-0.4902780">
        <ele>1757.4</ele>
        <time>2023-01-14T10:48:03Z</time>
      </trkpt>
      <trkpt lat="42.6933840" lon="-0.4903300">
        <ele>1758.0</ele>
        <time>2023-01-14T10:48:04Z</time>
      </trkpt>
      <trkpt lat="42.6934130" lon="-0.4903670">
        <ele>1758.2</ele>
        <time>2023-01-14T10:48:05Z</time>
      </trkpt>
      <trkpt lat="42.6934450" lon="-0.4903920">
        <ele>1758.4</ele>
        <time>2023-01-14T10:48:06Z</time>
      </trkpt>
      <trkpt lat="42.6934820" lon="-0.4904020">
        <ele>1758.6</ele>
        <time>2023-01-14T10:48:07Z</time>
      </trkpt>
      <trkpt lat="42.6935170" lon="-0.4904060">
        <ele>1758.8</ele>
        <time>2023-01-14T10:48:08Z</time>
      </trkpt>
      <trkpt lat="42.6935520" lon="-0.4904090">
        <ele>1759.2</ele>
        <time>2023-01-14T10:48:09Z</time>
      </trkpt>
      <trkpt lat="42.6935930" lon="-0.4904060">
        <ele>1759.4</ele>
        <time>2023-01-14T10:48:10Z</time>
      </trkpt>
      <trkpt lat="42.6936300" lon="-0.4904020">
        <ele>1760.0</ele>
        <time>2023-01-14T10:48:11Z</time>
      </trkpt>
      <trkpt lat="42.6936690" lon="-0.4904000">
        <ele>1760.6</ele>
        <time>2023-01-14T10:48:12Z</time>
      </trkpt>
      <trkpt lat="42.6937060" lon="-0.4904080">
        <ele>1760.8</ele>
        <time>2023-01-14T10:48:13Z</time>
      </trkpt>
      <trkpt lat="42.6937430" lon="-0.4904210">
        <ele>1761.2</ele>
        <time>2023-01-14T10:48:14Z</time>
      </trkpt>
      <trkpt lat="42.6937780" lon="-0.4904440">
        <ele>1761.4</ele>
        <time>2023-01-14T10:48:15Z</time>
      </trkpt>
      <trkpt lat="42.6938090" lon="-0.4904790">
        <ele>1761.4</ele>
        <time>2023-01-14T10:48:16Z</time>
      </trkpt>
      <trkpt lat="42.6938390" lon="-0.4905160">
        <ele>1761.6</ele>
        <time>2023-01-14T10:48:17Z</time>
      </trkpt>
      <trkpt lat="42.6938690" lon="-0.4905580">
        <ele>1762.2</ele>
        <time>2023-01-14T10:48:18Z</time>
      </trkpt>
      <trkpt lat="42.6938960" lon="-0.4906020">
        <ele>1762.4</ele>
        <time>2023-01-14T10:48:19Z</time>
      </trkpt>
      <trkpt lat="42.6939190" lon="-0.4906500">
        <ele>1763.0</ele>
        <time>2023-01-14T10:48:20Z</time>
      </trkpt>
      <trkpt lat="42.6939440" lon="-0.4906990">
        <ele>1763.4</ele>
        <time>2023-01-14T10:48:21Z</time>
      </trkpt>
      <trkpt lat="42.6939710" lon="-0.4907510">
        <ele>1763.8</ele>
        <time>2023-01-14T10:48:22Z</time>
      </trkpt>
      <trkpt lat="42.6939980" lon="-0.4908050">
        <ele>1764.0</ele>
        <time>2023-01-14T10:48:23Z</time>
      </trkpt>
      <trkpt lat="42.6940250" lon="-0.4908610">
        <ele>1764.2</ele>
        <time>2023-01-14T10:48:24Z</time>
      </trkpt>
      <trkpt lat="42.6940520" lon="-0.4909170">
        <ele>1764.4</ele>
        <time>2023-01-14T10:48:25Z</time>
      </trkpt>
      <trkpt lat="42.6940790" lon="-0.4909720">
        <ele>1764.6</ele>
        <time>2023-01-14T10:48:26Z</time>
      </trkpt>
      <trkpt lat="42.6941050" lon="-0.4910260">
        <ele>1764.8</ele>
        <time>2023-01-14T10:48:27Z</time>
      </trkpt>
      <trkpt lat="42.6941320" lon="-0.4910810">
        <ele>1765.0</ele>
        <time>2023-01-14T10:48:28Z</time>
      </trkpt>
      <trkpt lat="42.6941600" lon="-0.4911360">
        <ele>1765.4</ele>
        <time>2023-01-14T10:48:29Z</time>
      </trkpt>
      <trkpt lat="42.6941920" lon="-0.4911900">
        <ele>1765.6</ele>
        <time>2023-01-14T10:48:30Z</time>
      </trkpt>
      <trkpt lat="42.6942240" lon="-0.4912460">
        <ele>1765.8</ele>
        <time>2023-01-14T10:48:31Z</time>
      </trkpt>
      <trkpt lat="42.6942570" lon="-0.4913000">
        <ele>1766.0</ele>
        <time>2023-01-14T10:48:32Z</time>
      </trkpt>
      <trkpt lat="42.6942910" lon="-0.4913520">
        <ele>1766.2</ele>
        <time>2023-01-14T10:48:33Z</time>
      </trkpt>
      <trkpt lat="42.6943270" lon="-0.4914030">
        <ele>1766.2</ele>
        <time>2023-01-14T10:48:34Z</time>
      </trkpt>
      <trkpt lat="42.6943630" lon="-0.4914560">
        <ele>1766.4</ele>
        <time>2023-01-14T10:48:35Z</time>
      </trkpt>
      <trkpt lat="42.6944010" lon="-0.4915120">
        <ele>1766.6</ele>
        <time>2023-01-14T10:48:36Z</time>
      </trkpt>
      <trkpt lat="42.6944370" lon="-0.4915700">
        <ele>1766.6</ele>
        <time>2023-01-14T10:48:37Z</time>
      </trkpt>
      <trkpt lat="42.6944730" lon="-0.4916300">
        <ele>1766.8</ele>
        <time>2023-01-14T10:48:38Z</time>
      </trkpt>
      <trkpt lat="42.6945090" lon="-0.4916920">
        <ele>1766.8</ele>
        <time>2023-01-14T10:48:39Z</time>
      </trkpt>
      <trkpt lat="42.6945450" lon="-0.4917540">
        <ele>1766.8</ele>
        <time>2023-01-14T10:48:40Z</time>
      </trkpt>
      <trkpt lat="42.6945780" lon="-0.4918180">
        <ele>1767.0</ele>
        <time>2023-01-14T10:48:41Z</time>
      </trkpt>
      <trkpt lat="42.6946090" lon="-0.4918830">
        <ele>1767.0</ele>
        <time>2023-01-14T10:48:42Z</time>
      </trkpt>
      <trkpt lat="42.6946380" lon="-0.4919510">
        <ele>1767.0</ele>
        <time>2023-01-14T10:48:43Z</time>
      </trkpt>
      <trkpt lat="42.6946630" lon="-0.4920210">
        <ele>1767.4</ele>
        <time>2023-01-14T10:48:44Z</time>
      </trkpt>
      <trkpt lat="42.6946850" lon="-0.4920930">
        <ele>1767.4</ele>
        <time>2023-01-14T10:48:45Z</time>
      </trkpt>
      <trkpt lat="42.6947000" lon="-0.4921670">
        <ele>1767.6</ele>
        <time>2023-01-14T10:48:46Z</time>
      </trkpt>
      <trkpt lat="42.6947160" lon="-0.4922390">
        <ele>1767.8</ele>
        <time>2023-01-14T10:48:47Z</time>
      </trkpt>
      <trkpt lat="42.6947290" lon="-0.4923130">
        <ele>1768.0</ele>
        <time>2023-01-14T10:48:48Z</time>
      </trkpt>
      <trkpt lat="42.6947370" lon="-0.4923880">
        <ele>1768.0</ele>
        <time>2023-01-14T10:48:49Z</time>
      </trkpt>
      <trkpt lat="42.6947410" lon="-0.4924640">
        <ele>1768.2</ele>
        <time>2023-01-14T10:48:50Z</time>
      </trkpt>
      <trkpt lat="42.6947430" lon="-0.4925380">
        <ele>1768.2</ele>
        <time>2023-01-14T10:48:51Z</time>
      </trkpt>
      <trkpt lat="42.6947430" lon="-0.4926100">
        <ele>1768.2</ele>
        <time>2023-01-14T10:48:52Z</time>
      </trkpt>
      <trkpt lat="42.6947450" lon="-0.4926810">
        <ele>1768.6</ele>
        <time>2023-01-14T10:48:53Z</time>
      </trkpt>
      <trkpt lat="42.6947510" lon="-0.4927500">
        <ele>1768.8</ele>
        <time>2023-01-14T10:48:54Z</time>
      </trkpt>
      <trkpt lat="42.6947570" lon="-0.4928180">
        <ele>1769.0</ele>
        <time>2023-01-14T10:48:55Z</time>
      </trkpt>
      <trkpt lat="42.6947620" lon="-0.4928870">
        <ele>1769.0</ele>
        <time>2023-01-14T10:48:56Z</time>
      </trkpt>
      <trkpt lat="42.6947660" lon="-0.4929570">
        <ele>1769.4</ele>
        <time>2023-01-14T10:48:57Z</time>
      </trkpt>
      <trkpt lat="42.6947750" lon="-0.4930270">
        <ele>1769.8</ele>
        <time>2023-01-14T10:48:58Z</time>
      </trkpt>
      <trkpt lat="42.6947890" lon="-0.4930950">
        <ele>1770.0</ele>
        <time>2023-01-14T10:48:59Z</time>
      </trkpt>
      <trkpt lat="42.6948080" lon="-0.4931610">
        <ele>1770.2</ele>
        <time>2023-01-14T10:49:00Z</time>
      </trkpt>
      <trkpt lat="42.6948300" lon="-0.4932260">
        <ele>1770.6</ele>
        <time>2023-01-14T10:49:01Z</time>
      </trkpt>
      <trkpt lat="42.6948550" lon="-0.4932890">
        <ele>1771.0</ele>
        <time>2023-01-14T10:49:02Z</time>
      </trkpt>
      <trkpt lat="42.6948800" lon="-0.4933490">
        <ele>1771.4</ele>
        <time>2023-01-14T10:49:03Z</time>
      </trkpt>
      <trkpt lat="42.6949080" lon="-0.4934050">
        <ele>1771.6</ele>
        <time>2023-01-14T10:49:04Z</time>
      </trkpt>
      <trkpt lat="42.6949400" lon="-0.4934580">
        <ele>1771.8</ele>
        <time>2023-01-14T10:49:05Z</time>
      </trkpt>
      <trkpt lat="42.6949730" lon="-0.4935080">
        <ele>1772.0</ele>
        <time>2023-01-14T10:49:06Z</time>
      </trkpt>
      <trkpt lat="42.6950100" lon="-0.4935570">
        <ele>1772.0</ele>
        <time>2023-01-14T10:49:07Z</time>
      </trkpt>
      <trkpt lat="42.6950500" lon="-0.4936040">
        <ele>1772.2</ele>
        <time>2023-01-14T10:49:08Z</time>
      </trkpt>
      <trkpt lat="42.6950900" lon="-0.4936520">
        <ele>1772.6</ele>
        <time>2023-01-14T10:49:09Z</time>
      </trkpt>
      <trkpt lat="42.6951290" lon="-0.4937050">
        <ele>1772.8</ele>
        <time>2023-01-14T10:49:10Z</time>
      </trkpt>
      <trkpt lat="42.6951620" lon="-0.4937600">
        <ele>1773.0</ele>
        <time>2023-01-14T10:49:11Z</time>
      </trkpt>
      <trkpt lat="42.6951910" lon="-0.4938150">
        <ele>1773.2</ele>
        <time>2023-01-14T10:49:12Z</time>
      </trkpt>
      <trkpt lat="42.6952170" lon="-0.4938720">
        <ele>1773.2</ele>
        <time>2023-01-14T10:49:13Z</time>
      </trkpt>
      <trkpt lat="42.6952370" lon="-0.4939340">
        <ele>1773.4</ele>
        <time>2023-01-14T10:49:14Z</time>
      </trkpt>
      <trkpt lat="42.6952570" lon="-0.4939960">
        <ele>1773.6</ele>
        <time>2023-01-14T10:49:15Z</time>
      </trkpt>
      <trkpt lat="42.6952740" lon="-0.4940570">
        <ele>1774.2</ele>
        <time>2023-01-14T10:49:16Z</time>
      </trkpt>
      <trkpt lat="42.6952920" lon="-0.4941140">
        <ele>1774.6</ele>
        <time>2023-01-14T10:49:17Z</time>
      </trkpt>
      <trkpt lat="42.6953110" lon="-0.4941720">
        <ele>1774.8</ele>
        <time>2023-01-14T10:49:18Z</time>
      </trkpt>
      <trkpt lat="42.6953310" lon="-0.4942320">
        <ele>1775.0</ele>
        <time>2023-01-14T10:49:19Z</time>
      </trkpt>
      <trkpt lat="42.6953530" lon="-0.4942920">
        <ele>1775.2</ele>
        <time>2023-01-14T10:49:20Z</time>
      </trkpt>
      <trkpt lat="42.6953760" lon="-0.4943530">
        <ele>1775.4</ele>
        <time>2023-01-14T10:49:21Z</time>
      </trkpt>
      <trkpt lat="42.6953980" lon="-0.4944150">
        <ele>1775.6</ele>
        <time>2023-01-14T10:49:22Z</time>
      </trkpt>
      <trkpt lat="42.6954180" lon="-0.4944780">
        <ele>1775.8</ele>
        <time>2023-01-14T10:49:23Z</time>
      </trkpt>
      <trkpt lat="42.6954300" lon="-0.4945440">
        <ele>1776.0</ele>
        <time>2023-01-14T10:49:24Z</time>
      </trkpt>
      <trkpt lat="42.6954380" lon="-0.4946110">
        <ele>1776.2</ele>
        <time>2023-01-14T10:49:25Z</time>
      </trkpt>
      <trkpt lat="42.6954450" lon="-0.4946760">
        <ele>1776.6</ele>
        <time>2023-01-14T10:49:26Z</time>
      </trkpt>
      <trkpt lat="42.6954510" lon="-0.4947410">
        <ele>1777.0</ele>
        <time>2023-01-14T10:49:27Z</time>
      </trkpt>
      <trkpt lat="42.6954500" lon="-0.4948070">
        <ele>1777.2</ele>
        <time>2023-01-14T10:49:28Z</time>
      </trkpt>
      <trkpt lat="42.6954480" lon="-0.4948740">
        <ele>1777.4</ele>
        <time>2023-01-14T10:49:29Z</time>
      </trkpt>
      <trkpt lat="42.6954490" lon="-0.4949390">
        <ele>1777.8</ele>
        <time>2023-01-14T10:49:30Z</time>
      </trkpt>
      <trkpt lat="42.6954500" lon="-0.4950060">
        <ele>1778.2</ele>
        <time>2023-01-14T10:49:31Z</time>
      </trkpt>
      <trkpt lat="42.6954550" lon="-0.4950710">
        <ele>1778.6</ele>
        <time>2023-01-14T10:49:32Z</time>
      </trkpt>
      <trkpt lat="42.6954690" lon="-0.4951250">
        <ele>1779.0</ele>
        <time>2023-01-14T10:49:33Z</time>
      </trkpt>
      <trkpt lat="42.6954820" lon="-0.4951860">
        <ele>1779.4</ele>
        <time>2023-01-14T10:49:34Z</time>
      </trkpt>
      <trkpt lat="42.6954970" lon="-0.4952540">
        <ele>1779.6</ele>
        <time>2023-01-14T10:49:35Z</time>
      </trkpt>
      <trkpt lat="42.6955130" lon="-0.4953220">
        <ele>1780.2</ele>
        <time>2023-01-14T10:49:36Z</time>
      </trkpt>
      <trkpt lat="42.6955310" lon="-0.4953900">
        <ele>1780.6</ele>
        <time>2023-01-14T10:49:37Z</time>
      </trkpt>
      <trkpt lat="42.6955400" lon="-0.4954590">
        <ele>1780.8</ele>
        <time>2023-01-14T10:49:38Z</time>
      </trkpt>
      <trkpt lat="42.6955550" lon="-0.4955270">
        <ele>1780.8</ele>
        <time>2023-01-14T10:49:39Z</time>
      </trkpt>
      <trkpt lat="42.6955750" lon="-0.4955950">
        <ele>1781.0</ele>
        <time>2023-01-14T10:49:40Z</time>
      </trkpt>
      <trkpt lat="42.6955890" lon="-0.4956610">
        <ele>1781.0</ele>
        <time>2023-01-14T10:49:41Z</time>
      </trkpt>
      <trkpt lat="42.6956100" lon="-0.4957260">
        <ele>1781.2</ele>
        <time>2023-01-14T10:49:42Z</time>
      </trkpt>
      <trkpt lat="42.6956380" lon="-0.4957890">
        <ele>1781.2</ele>
        <time>2023-01-14T10:49:43Z</time>
      </trkpt>
      <trkpt lat="42.6956630" lon="-0.4958510">
        <ele>1781.2</ele>
        <time>2023-01-14T10:49:44Z</time>
      </trkpt>
      <trkpt lat="42.6956960" lon="-0.4959110">
        <ele>1781.2</ele>
        <time>2023-01-14T10:49:45Z</time>
      </trkpt>
      <trkpt lat="42.6957260" lon="-0.4959720">
        <ele>1781.4</ele>
        <time>2023-01-14T10:49:46Z</time>
      </trkpt>
      <trkpt lat="42.6957570" lon="-0.4960320">
        <ele>1781.2</ele>
        <time>2023-01-14T10:49:47Z</time>
      </trkpt>
      <trkpt lat="42.6957900" lon="-0.4960920">
        <ele>1781.2</ele>
        <time>2023-01-14T10:49:48Z</time>
      </trkpt>
      <trkpt lat="42.6958220" lon="-0.4961510">
        <ele>1781.2</ele>
        <time>2023-01-14T10:49:49Z</time>
      </trkpt>
      <trkpt lat="42.6958550" lon="-0.4962120">
        <ele>1781.4</ele>
        <time>2023-01-14T10:49:50Z</time>
      </trkpt>
      <trkpt lat="42.6958890" lon="-0.4962740">
        <ele>1781.4</ele>
        <time>2023-01-14T10:49:51Z</time>
      </trkpt>
      <trkpt lat="42.6959200" lon="-0.4963390">
        <ele>1781.4</ele>
        <time>2023-01-14T10:49:52Z</time>
      </trkpt>
      <trkpt lat="42.6959460" lon="-0.4964090">
        <ele>1781.4</ele>
        <time>2023-01-14T10:49:53Z</time>
      </trkpt>
      <trkpt lat="42.6959690" lon="-0.4964800">
        <ele>1781.4</ele>
        <time>2023-01-14T10:49:54Z</time>
      </trkpt>
      <trkpt lat="42.6959870" lon="-0.4965510">
        <ele>1781.4</ele>
        <time>2023-01-14T10:49:55Z</time>
      </trkpt>
      <trkpt lat="42.6960030" lon="-0.4966180">
        <ele>1781.0</ele>
        <time>2023-01-14T10:49:56Z</time>
      </trkpt>
      <trkpt lat="42.6960160" lon="-0.4966840">
        <ele>1780.8</ele>
        <time>2023-01-14T10:49:57Z</time>
      </trkpt>
      <trkpt lat="42.6960270" lon="-0.4967510">
        <ele>1780.8</ele>
        <time>2023-01-14T10:49:58Z</time>
      </trkpt>
      <trkpt lat="42.6960410" lon="-0.4968200">
        <ele>1780.6</ele>
        <time>2023-01-14T10:49:59Z</time>
      </trkpt>
      <trkpt lat="42.6960550" lon="-0.4968920">
        <ele>1780.6</ele>
        <time>2023-01-14T10:50:00Z</time>
      </trkpt>
      <trkpt lat="42.6960700" lon="-0.4969630">
        <ele>1780.8</ele>
        <time>2023-01-14T10:50:01Z</time>
      </trkpt>
      <trkpt lat="42.6960880" lon="-0.4970300">
        <ele>1780.8</ele>
        <time>2023-01-14T10:50:02Z</time>
      </trkpt>
      <trkpt lat="42.6961080" lon="-0.4970940">
        <ele>1781.2</ele>
        <time>2023-01-14T10:50:03Z</time>
      </trkpt>
      <trkpt lat="42.6961290" lon="-0.4971610">
        <ele>1781.6</ele>
        <time>2023-01-14T10:50:04Z</time>
      </trkpt>
      <trkpt lat="42.6961500" lon="-0.4972270">
        <ele>1781.8</ele>
        <time>2023-01-14T10:50:05Z</time>
      </trkpt>
      <trkpt lat="42.6961700" lon="-0.4972940">
        <ele>1782.0</ele>
        <time>2023-01-14T10:50:06Z</time>
      </trkpt>
      <trkpt lat="42.6961850" lon="-0.4973630">
        <ele>1782.0</ele>
        <time>2023-01-14T10:50:07Z</time>
      </trkpt>
      <trkpt lat="42.6961900" lon="-0.4974330">
        <ele>1782.0</ele>
        <time>2023-01-14T10:50:08Z</time>
      </trkpt>
      <trkpt lat="42.6961930" lon="-0.4975000">
        <ele>1781.8</ele>
        <time>2023-01-14T10:50:09Z</time>
      </trkpt>
      <trkpt lat="42.6961960" lon="-0.4975560">
        <ele>1781.8</ele>
        <time>2023-01-14T10:50:10Z</time>
      </trkpt>
      <trkpt lat="42.6961960" lon="-0.4976100">
        <ele>1781.6</ele>
        <time>2023-01-14T10:50:11Z</time>
      </trkpt>
      <trkpt lat="42.6961950" lon="-0.4976620">
        <ele>1781.6</ele>
        <time>2023-01-14T10:50:12Z</time>
      </trkpt>
      <trkpt lat="42.6961940" lon="-0.4977170">
        <ele>1782.4</ele>
        <time>2023-01-14T10:50:13Z</time>
      </trkpt>
      <trkpt lat="42.6961910" lon="-0.4977720">
        <ele>1782.8</ele>
        <time>2023-01-14T10:50:14Z</time>
      </trkpt>
      <trkpt lat="42.6961880" lon="-0.4978290">
        <ele>1783.2</ele>
        <time>2023-01-14T10:50:15Z</time>
      </trkpt>
      <trkpt lat="42.6961840" lon="-0.4978880">
        <ele>1783.4</ele>
        <time>2023-01-14T10:50:16Z</time>
      </trkpt>
      <trkpt lat="42.6961780" lon="-0.4979480">
        <ele>1783.6</ele>
        <time>2023-01-14T10:50:17Z</time>
      </trkpt>
      <trkpt lat="42.6961710" lon="-0.4980070">
        <ele>1783.8</ele>
        <time>2023-01-14T10:50:18Z</time>
      </trkpt>
      <trkpt lat="42.6961580" lon="-0.4980650">
        <ele>1784.6</ele>
        <time>2023-01-14T10:50:19Z</time>
      </trkpt>
      <trkpt lat="42.6961470" lon="-0.4981220">
        <ele>1784.8</ele>
        <time>2023-01-14T10:50:20Z</time>
      </trkpt>
      <trkpt lat="42.6961320" lon="-0.4981780">
        <ele>1785.2</ele>
        <time>2023-01-14T10:50:21Z</time>
      </trkpt>
      <trkpt lat="42.6961140" lon="-0.4982310">
        <ele>1785.2</ele>
        <time>2023-01-14T10:50:22Z</time>
      </trkpt>
      <trkpt lat="42.6960990" lon="-0.4982870">
        <ele>1785.6</ele>
        <time>2023-01-14T10:50:23Z</time>
      </trkpt>
      <trkpt lat="42.6960870" lon="-0.4983400">
        <ele>1785.8</ele>
        <time>2023-01-14T10:50:24Z</time>
      </trkpt>
      <trkpt lat="42.6960780" lon="-0.4983910">
        <ele>1785.8</ele>
        <time>2023-01-14T10:50:25Z</time>
      </trkpt>
      <trkpt lat="42.6960680" lon="-0.4984390">
        <ele>1786.2</ele>
        <time>2023-01-14T10:50:26Z</time>
      </trkpt>
      <trkpt lat="42.6960560" lon="-0.4984860">
        <ele>1786.8</ele>
        <time>2023-01-14T10:50:27Z</time>
      </trkpt>
      <trkpt lat="42.6960440" lon="-0.4985330">
        <ele>1787.4</ele>
        <time>2023-01-14T10:50:28Z</time>
      </trkpt>
      <trkpt lat="42.6960350" lon="-0.4985800">
        <ele>1788.0</ele>
        <time>2023-01-14T10:50:29Z</time>
      </trkpt>
      <trkpt lat="42.6960250" lon="-0.4986300">
        <ele>1788.2</ele>
        <time>2023-01-14T10:50:30Z</time>
      </trkpt>
      <trkpt lat="42.6960180" lon="-0.4986770">
        <ele>1788.4</ele>
        <time>2023-01-14T10:50:31Z</time>
      </trkpt>
      <trkpt lat="42.6960140" lon="-0.4987250">
        <ele>1788.8</ele>
        <time>2023-01-14T10:50:32Z</time>
      </trkpt>
      <trkpt lat="42.6960100" lon="-0.4987740">
        <ele>1789.0</ele>
        <time>2023-01-14T10:50:33Z</time>
      </trkpt>
      <trkpt lat="42.6960030" lon="-0.4988230">
        <ele>1789.6</ele>
        <time>2023-01-14T10:50:34Z</time>
      </trkpt>
      <trkpt lat="42.6959930" lon="-0.4988740">
        <ele>1790.0</ele>
        <time>2023-01-14T10:50:35Z</time>
      </trkpt>
      <trkpt lat="42.6959890" lon="-0.4989260">
        <ele>1790.4</ele>
        <time>2023-01-14T10:50:36Z</time>
      </trkpt>
      <trkpt lat="42.6959860" lon="-0.4989830">
        <ele>1790.4</ele>
        <time>2023-01-14T10:50:37Z</time>
      </trkpt>
      <trkpt lat="42.6959880" lon="-0.4990420">
        <ele>1790.6</ele>
        <time>2023-01-14T10:50:38Z</time>
      </trkpt>
      <trkpt lat="42.6960030" lon="-0.4990950">
        <ele>1790.6</ele>
        <time>2023-01-14T10:50:39Z</time>
      </trkpt>
      <trkpt lat="42.6960230" lon="-0.4991460">
        <ele>1790.6</ele>
        <time>2023-01-14T10:50:40Z</time>
      </trkpt>
      <trkpt lat="42.6960420" lon="-0.4991900">
        <ele>1790.4</ele>
        <time>2023-01-14T10:50:41Z</time>
      </trkpt>
      <trkpt lat="42.6960510" lon="-0.4992230">
        <ele>1790.2</ele>
        <time>2023-01-14T10:50:42Z</time>
      </trkpt>
      <trkpt lat="42.6960460" lon="-0.4992450">
        <ele>1790.0</ele>
        <time>2023-01-14T10:50:43Z</time>
      </trkpt>
      <trkpt lat="42.6960360" lon="-0.4992510">
        <ele>1790.0</ele>
        <time>2023-01-14T10:50:44Z</time>
      </trkpt>
      <trkpt lat="42.6960330" lon="-0.4992520">
        <ele>1789.8</ele>
        <time>2023-01-14T10:50:45Z</time>
      </trkpt>
      <trkpt lat="42.6960300" lon="-0.4992540">
        <ele>1789.8</ele>
        <time>2023-01-14T10:50:46Z</time>
      </trkpt>
      <trkpt lat="42.6960290" lon="-0.4992560">
        <ele>1789.6</ele>
        <time>2023-01-14T10:50:47Z</time>
      </trkpt>
      <trkpt lat="42.6960270" lon="-0.4992590">
        <ele>1789.4</ele>
        <time>2023-01-14T10:50:48Z</time>
      </trkpt>
      <trkpt lat="42.6960240" lon="-0.4992590">
        <ele>1789.4</ele>
        <time>2023-01-14T10:50:49Z</time>
      </trkpt>
      <trkpt lat="42.6960240" lon="-0.4992580">
        <ele>1789.2</ele>
        <time>2023-01-14T10:50:50Z</time>
      </trkpt>
      <trkpt lat="42.6960240" lon="-0.4992580">
        <ele>1789.4</ele>
        <time>2023-01-14T10:50:51Z</time>
      </trkpt>
      <trkpt lat="42.6960250" lon="-0.4992590">
        <ele>1789.4</ele>
        <time>2023-01-14T10:50:52Z</time>
      </trkpt>
      <trkpt lat="42.6960260" lon="-0.4992590">
        <ele>1789.4</ele>
        <time>2023-01-14T10:50:53Z</time>
      </trkpt>
      <trkpt lat="42.6960250" lon="-0.4992600">
        <ele>1789.2</ele>
        <time>2023-01-14T10:50:54Z</time>
      </trkpt>
      <trkpt lat="42.6960250" lon="-0.4992600">
        <ele>1789.4</ele>
        <time>2023-01-14T10:50:55Z</time>
      </trkpt>
      <trkpt lat="42.6960250" lon="-0.4992610">
        <ele>1789.2</ele>
        <time>2023-01-14T10:50:56Z</time>
      </trkpt>
      <trkpt lat="42.6960250" lon="-0.4992610">
        <ele>1789.4</ele>
        <time>2023-01-14T10:50:57Z</time>
      </trkpt>
      <trkpt lat="42.6960250" lon="-0.4992610">
        <ele>1789.2</ele>
        <time>2023-01-14T10:50:58Z</time>
      </trkpt>
      <trkpt lat="42.6960250" lon="-0.4992610">
        <ele>1789.2</ele>
        <time>2023-01-14T10:50:59Z</time>
      </trkpt>
      <trkpt lat="42.6960250" lon="-0.4992610">
        <ele>1789.2</ele>
        <time>2023-01-14T10:51:00Z</time>
      </trkpt>
      <trkpt lat="42.6960250" lon="-0.4992610">
        <ele>1789.2</ele>
        <time>2023-01-14T10:51:01Z</time>
      </trkpt>
      <trkpt lat="42.6960250" lon="-0.4992610">
        <ele>1789.2</ele>
        <time>2023-01-14T10:51:02Z</time>
      </trkpt>
      <trkpt lat="42.6960250" lon="-0.4992610">
        <ele>1789.2</ele>
        <time>2023-01-14T10:51:03Z</time>
      </trkpt>
      <trkpt lat="42.6960250" lon="-0.4992610">
        <ele>1789.0</ele>
        <time>2023-01-14T10:51:04Z</time>
      </trkpt>
      <trkpt lat="42.6960240" lon="-0.4992610">
        <ele>1789.0</ele>
        <time>2023-01-14T10:51:05Z</time>
      </trkpt>
      <trkpt lat="42.6960240" lon="-0.4992610">
        <ele>1789.0</ele>
        <time>2023-01-14T10:51:06Z</time>
      </trkpt>
      <trkpt lat="42.6960240" lon="-0.4992610">
        <ele>1789.0</ele>
        <time>2023-01-14T10:51:07Z</time>
      </trkpt>
      <trkpt lat="42.6960240" lon="-0.4992610">
        <ele>1789.0</ele>
        <time>2023-01-14T10:51:08Z</time>
      </trkpt>
      <trkpt lat="42.6960240" lon="-0.4992620">
        <ele>1789.0</ele>
        <time>2023-01-14T10:51:09Z</time>
      </trkpt>
      <trkpt lat="42.6960240" lon="-0.4992620">
        <ele>1789.0</ele>
        <time>2023-01-14T10:51:10Z</time>
      </trkpt>
      <trkpt lat="42.6960240" lon="-0.4992620">
        <ele>1789.0</ele>
        <time>2023-01-14T10:51:11Z</time>
      </trkpt>
      <trkpt lat="42.6960240" lon="-0.4992620">
        <ele>1789.0</ele>
        <time>2023-01-14T10:51:12Z</time>
      </trkpt>
      <trkpt lat="42.6960240" lon="-0.4992630">
        <ele>1789.2</ele>
        <time>2023-01-14T10:51:13Z</time>
      </trkpt>
      <trkpt lat="42.6960240" lon="-0.4992630">
        <ele>1789.2</ele>
        <time>2023-01-14T10:51:14Z</time>
      </trkpt>
      <trkpt lat="42.6960240" lon="-0.4992630">
        <ele>1789.2</ele>
        <time>2023-01-14T10:51:15Z</time>
      </trkpt>
      <trkpt lat="42.6960250" lon="-0.4992640">
        <ele>1789.2</ele>
        <time>2023-01-14T10:51:16Z</time>
      </trkpt>
      <trkpt lat="42.6960250" lon="-0.4992640">
        <ele>1789.2</ele>
        <time>2023-01-14T10:51:17Z</time>
      </trkpt>
      <trkpt lat="42.6960250" lon="-0.4992640">
        <ele>1789.2</ele>
        <time>2023-01-14T10:51:18Z</time>
      </trkpt>
      <trkpt lat="42.6960250" lon="-0.4992650">
        <ele>1789.2</ele>
        <time>2023-01-14T10:51:19Z</time>
      </trkpt>
      <trkpt lat="42.6960250" lon="-0.4992650">
        <ele>1789.4</ele>
        <time>2023-01-14T10:51:20Z</time>
      </trkpt>
      <trkpt lat="42.6960260" lon="-0.4992660">
        <ele>1789.2</ele>
        <time>2023-01-14T10:51:21Z</time>
      </trkpt>
      <trkpt lat="42.6960260" lon="-0.4992660">
        <ele>1789.2</ele>
        <time>2023-01-14T10:51:22Z</time>
      </trkpt>
      <trkpt lat="42.6960270" lon="-0.4992660">
        <ele>1789.2</ele>
        <time>2023-01-14T10:51:23Z</time>
      </trkpt>
      <trkpt lat="42.6960280" lon="-0.4992660">
        <ele>1789.4</ele>
        <time>2023-01-14T10:51:24Z</time>
      </trkpt>
      <trkpt lat="42.6960280" lon="-0.4992670">
        <ele>1789.4</ele>
        <time>2023-01-14T10:51:25Z</time>
      </trkpt>
      <trkpt lat="42.6960280" lon="-0.4992670">
        <ele>1789.4</ele>
        <time>2023-01-14T10:51:26Z</time>
      </trkpt>
      <trkpt lat="42.6960280" lon="-0.4992670">
        <ele>1789.4</ele>
        <time>2023-01-14T10:51:27Z</time>
      </trkpt>
      <trkpt lat="42.6960280" lon="-0.4992670">
        <ele>1789.4</ele>
        <time>2023-01-14T10:51:28Z</time>
      </trkpt>
      <trkpt lat="42.6960290" lon="-0.4992670">
        <ele>1789.4</ele>
        <time>2023-01-14T10:51:29Z</time>
      </trkpt>
      <trkpt lat="42.6960280" lon="-0.4992660">
        <ele>1789.2</ele>
        <time>2023-01-14T10:51:30Z</time>
      </trkpt>
      <trkpt lat="42.6960280" lon="-0.4992660">
        <ele>1789.2</ele>
        <time>2023-01-14T10:51:31Z</time>
      </trkpt>
      <trkpt lat="42.6960280" lon="-0.4992670">
        <ele>1789.2</ele>
        <time>2023-01-14T10:51:32Z</time>
      </trkpt>
      <trkpt lat="42.6960280" lon="-0.4992670">
        <ele>1789.2</ele>
        <time>2023-01-14T10:51:33Z</time>
      </trkpt>
      <trkpt lat="42.6960280" lon="-0.4992680">
        <ele>1789.0</ele>
        <time>2023-01-14T10:51:34Z</time>
      </trkpt>
      <trkpt lat="42.6960280" lon="-0.4992680">
        <ele>1789.0</ele>
        <time>2023-01-14T10:51:35Z</time>
      </trkpt>
      <trkpt lat="42.6960270" lon="-0.4992680">
        <ele>1788.8</ele>
        <time>2023-01-14T10:51:36Z</time>
      </trkpt>
      <trkpt lat="42.6960270" lon="-0.4992680">
        <ele>1789.0</ele>
        <time>2023-01-14T10:51:37Z</time>
      </trkpt>
      <trkpt lat="42.6960260" lon="-0.4992680">
        <ele>1789.0</ele>
        <time>2023-01-14T10:51:38Z</time>
      </trkpt>
      <trkpt lat="42.6960260" lon="-0.4992680">
        <ele>1789.0</ele>
        <time>2023-01-14T10:51:39Z</time>
      </trkpt>
      <trkpt lat="42.6960250" lon="-0.4992680">
        <ele>1789.2</ele>
        <time>2023-01-14T10:51:40Z</time>
      </trkpt>
      <trkpt lat="42.6960250" lon="-0.4992680">
        <ele>1789.4</ele>
        <time>2023-01-14T10:51:41Z</time>
      </trkpt>
      <trkpt lat="42.6960240" lon="-0.4992680">
        <ele>1789.4</ele>
        <time>2023-01-14T10:51:42Z</time>
      </trkpt>
      <trkpt lat="42.6960240" lon="-0.4992680">
        <ele>1789.4</ele>
        <time>2023-01-14T10:51:43Z</time>
      </trkpt>
      <trkpt lat="42.6960240" lon="-0.4992670">
        <ele>1789.6</ele>
        <time>2023-01-14T10:51:44Z</time>
      </trkpt>
      <trkpt lat="42.6960230" lon="-0.4992670">
        <ele>1789.4</ele>
        <time>2023-01-14T10:51:45Z</time>
      </trkpt>
      <trkpt lat="42.6960230" lon="-0.4992670">
        <ele>1789.4</ele>
        <time>2023-01-14T10:51:46Z</time>
      </trkpt>
      <trkpt lat="42.6960230" lon="-0.4992670">
        <ele>1789.4</ele>
        <time>2023-01-14T10:51:47Z</time>
      </trkpt>
      <trkpt lat="42.6960230" lon="-0.4992680">
        <ele>1789.4</ele>
        <time>2023-01-14T10:51:48Z</time>
      </trkpt>
      <trkpt lat="42.6960230" lon="-0.4992680">
        <ele>1789.4</ele>
        <time>2023-01-14T10:51:49Z</time>
      </trkpt>
      <trkpt lat="42.6960220" lon="-0.4992680">
        <ele>1789.4</ele>
        <time>2023-01-14T10:51:50Z</time>
      </trkpt>
      <trkpt lat="42.6960220" lon="-0.4992680">
        <ele>1789.2</ele>
        <time>2023-01-14T10:51:51Z</time>
      </trkpt>
      <trkpt lat="42.6960210" lon="-0.4992630">
        <ele>1789.0</ele>
        <time>2023-01-14T10:51:52Z</time>
      </trkpt>
      <trkpt lat="42.6960200" lon="-0.4992600">
        <ele>1789.0</ele>
        <time>2023-01-14T10:51:53Z</time>
      </trkpt>
      <trkpt lat="42.6960200" lon="-0.4992590">
        <ele>1788.6</ele>
        <time>2023-01-14T10:51:54Z</time>
      </trkpt>
      <trkpt lat="42.6960190" lon="-0.4992590">
        <ele>1788.6</ele>
        <time>2023-01-14T10:51:55Z</time>
      </trkpt>
      <trkpt lat="42.6960180" lon="-0.4992580">
        <ele>1788.4</ele>
        <time>2023-01-14T10:51:56Z</time>
      </trkpt>
      <trkpt lat="42.6960180" lon="-0.4992570">
        <ele>1788.4</ele>
        <time>2023-01-14T10:51:57Z</time>
      </trkpt>
      <trkpt lat="42.6960170" lon="-0.4992570">
        <ele>1788.4</ele>
        <time>2023-01-14T10:51:58Z</time>
      </trkpt>
      <trkpt lat="42.6960170" lon="-0.4992560">
        <ele>1788.4</ele>
        <time>2023-01-14T10:51:59Z</time>
      </trkpt>
      <trkpt lat="42.6960160" lon="-0.4992540">
        <ele>1788.4</ele>
        <time>2023-01-14T10:52:00Z</time>
      </trkpt>
      <trkpt lat="42.6960150" lon="-0.4992530">
        <ele>1788.4</ele>
        <time>2023-01-14T10:52:01Z</time>
      </trkpt>
      <trkpt lat="42.6960150" lon="-0.4992510">
        <ele>1788.2</ele>
        <time>2023-01-14T10:52:02Z</time>
      </trkpt>
      <trkpt lat="42.6960150" lon="-0.4992510">
        <ele>1788.2</ele>
        <time>2023-01-14T10:52:03Z</time>
      </trkpt>
      <trkpt lat="42.6960140" lon="-0.4992500">
        <ele>1788.2</ele>
        <time>2023-01-14T10:52:04Z</time>
      </trkpt>
      <trkpt lat="42.6960130" lon="-0.4992480">
        <ele>1788.2</ele>
        <time>2023-01-14T10:52:05Z</time>
      </trkpt>
      <trkpt lat="42.6960110" lon="-0.4992450">
        <ele>1788.2</ele>
        <time>2023-01-14T10:52:06Z</time>
      </trkpt>
      <trkpt lat="42.6960090" lon="-0.4992420">
        <ele>1788.2</ele>
        <time>2023-01-14T10:52:07Z</time>
      </trkpt>
      <trkpt lat="42.6960080" lon="-0.4992400">
        <ele>1788.2</ele>
        <time>2023-01-14T10:52:08Z</time>
      </trkpt>
      <trkpt lat="42.6960070" lon="-0.4992390">
        <ele>1788.2</ele>
        <time>2023-01-14T10:52:09Z</time>
      </trkpt>
      <trkpt lat="42.6960070" lon="-0.4992380">
        <ele>1788.4</ele>
        <time>2023-01-14T10:52:10Z</time>
      </trkpt>
      <trkpt lat="42.6960070" lon="-0.4992370">
        <ele>1788.4</ele>
        <time>2023-01-14T10:52:11Z</time>
      </trkpt>
      <trkpt lat="42.6960070" lon="-0.4992350">
        <ele>1788.6</ele>
        <time>2023-01-14T10:52:12Z</time>
      </trkpt>
      <trkpt lat="42.6960060" lon="-0.4992340">
        <ele>1788.4</ele>
        <time>2023-01-14T10:52:13Z</time>
      </trkpt>
      <trkpt lat="42.6960050" lon="-0.4992330">
        <ele>1788.4</ele>
        <time>2023-01-14T10:52:14Z</time>
      </trkpt>
      <trkpt lat="42.6960050" lon="-0.4992320">
        <ele>1788.4</ele>
        <time>2023-01-14T10:52:15Z</time>
      </trkpt>
      <trkpt lat="42.6960050" lon="-0.4992310">
        <ele>1788.4</ele>
        <time>2023-01-14T10:52:16Z</time>
      </trkpt>
      <trkpt lat="42.6960050" lon="-0.4992300">
        <ele>1788.2</ele>
        <time>2023-01-14T10:52:17Z</time>
      </trkpt>
      <trkpt lat="42.6960050" lon="-0.4992290">
        <ele>1788.2</ele>
        <time>2023-01-14T10:52:18Z</time>
      </trkpt>
      <trkpt lat="42.6960050" lon="-0.4992280">
        <ele>1788.4</ele>
        <time>2023-01-14T10:52:19Z</time>
      </trkpt>
      <trkpt lat="42.6960040" lon="-0.4992280">
        <ele>1788.2</ele>
        <time>2023-01-14T10:52:20Z</time>
      </trkpt>
      <trkpt lat="42.6960040" lon="-0.4992260">
        <ele>1788.2</ele>
        <time>2023-01-14T10:52:21Z</time>
      </trkpt>
      <trkpt lat="42.6960040" lon="-0.4992250">
        <ele>1788.4</ele>
        <time>2023-01-14T10:52:22Z</time>
      </trkpt>
      <trkpt lat="42.6960030" lon="-0.4992240">
        <ele>1788.4</ele>
        <time>2023-01-14T10:52:23Z</time>
      </trkpt>
      <trkpt lat="42.6960030" lon="-0.4992230">
        <ele>1788.4</ele>
        <time>2023-01-14T10:52:24Z</time>
      </trkpt>
      <trkpt lat="42.6960030" lon="-0.4992220">
        <ele>1788.4</ele>
        <time>2023-01-14T10:52:25Z</time>
      </trkpt>
      <trkpt lat="42.6960020" lon="-0.4992220">
        <ele>1788.4</ele>
        <time>2023-01-14T10:52:26Z</time>
      </trkpt>
      <trkpt lat="42.6960020" lon="-0.4992210">
        <ele>1788.4</ele>
        <time>2023-01-14T10:52:27Z</time>
      </trkpt>
      <trkpt lat="42.6960020" lon="-0.4992210">
        <ele>1788.4</ele>
        <time>2023-01-14T10:52:28Z</time>
      </trkpt>
      <trkpt lat="42.6960020" lon="-0.4992200">
        <ele>1788.4</ele>
        <time>2023-01-14T10:52:29Z</time>
      </trkpt>
      <trkpt lat="42.6960010" lon="-0.4992200">
        <ele>1788.4</ele>
        <time>2023-01-14T10:52:30Z</time>
      </trkpt>
      <trkpt lat="42.6960010" lon="-0.4992200">
        <ele>1788.4</ele>
        <time>2023-01-14T10:52:31Z</time>
      </trkpt>
      <trkpt lat="42.6960000" lon="-0.4992200">
        <ele>1788.4</ele>
        <time>2023-01-14T10:52:32Z</time>
      </trkpt>
      <trkpt lat="42.6960000" lon="-0.4992200">
        <ele>1788.4</ele>
        <time>2023-01-14T10:52:33Z</time>
      </trkpt>
      <trkpt lat="42.6960000" lon="-0.4992190">
        <ele>1788.4</ele>
        <time>2023-01-14T10:52:34Z</time>
      </trkpt>
      <trkpt lat="42.6959990" lon="-0.4992190">
        <ele>1788.4</ele>
        <time>2023-01-14T10:52:35Z</time>
      </trkpt>
      <trkpt lat="42.6959990" lon="-0.4992190">
        <ele>1788.4</ele>
        <time>2023-01-14T10:52:36Z</time>
      </trkpt>
      <trkpt lat="42.6959990" lon="-0.4992190">
        <ele>1788.4</ele>
        <time>2023-01-14T10:52:37Z</time>
      </trkpt>
      <trkpt lat="42.6959990" lon="-0.4992190">
        <ele>1788.4</ele>
        <time>2023-01-14T10:52:38Z</time>
      </trkpt>
      <trkpt lat="42.6959990" lon="-0.4992200">
        <ele>1788.4</ele>
        <time>2023-01-14T10:52:39Z</time>
      </trkpt>
      <trkpt lat="42.6959990" lon="-0.4992200">
        <ele>1788.4</ele>
        <time>2023-01-14T10:52:40Z</time>
      </trkpt>
      <trkpt lat="42.6959980" lon="-0.4992200">
        <ele>1788.4</ele>
        <time>2023-01-14T10:52:41Z</time>
      </trkpt>
      <trkpt lat="42.6959980" lon="-0.4992210">
        <ele>1788.4</ele>
        <time>2023-01-14T10:52:42Z</time>
      </trkpt>
      <trkpt lat="42.6959990" lon="-0.4992220">
        <ele>1788.4</ele>
        <time>2023-01-14T10:52:43Z</time>
      </trkpt>
      <trkpt lat="42.6959990" lon="-0.4992240">
        <ele>1788.4</ele>
        <time>2023-01-14T10:52:44Z</time>
      </trkpt>
      <trkpt lat="42.6960000" lon="-0.4992250">
        <ele>1788.4</ele>
        <time>2023-01-14T10:52:45Z</time>
      </trkpt>
      <trkpt lat="42.6960000" lon="-0.4992250">
        <ele>1788.4</ele>
        <time>2023-01-14T10:52:46Z</time>
      </trkpt>
      <trkpt lat="42.6960000" lon="-0.4992260">
        <ele>1788.4</ele>
        <time>2023-01-14T10:52:47Z</time>
      </trkpt>
      <trkpt lat="42.6960000" lon="-0.4992270">
        <ele>1788.4</ele>
        <time>2023-01-14T10:52:48Z</time>
      </trkpt>
      <trkpt lat="42.6960000" lon="-0.4992270">
        <ele>1788.2</ele>
        <time>2023-01-14T10:52:49Z</time>
      </trkpt>
      <trkpt lat="42.6960000" lon="-0.4992270">
        <ele>1788.2</ele>
        <time>2023-01-14T10:52:50Z</time>
      </trkpt>
      <trkpt lat="42.6960000" lon="-0.4992280">
        <ele>1788.2</ele>
        <time>2023-01-14T10:52:51Z</time>
      </trkpt>
      <trkpt lat="42.6960010" lon="-0.4992280">
        <ele>1788.2</ele>
        <time>2023-01-14T10:52:52Z</time>
      </trkpt>
      <trkpt lat="42.6960010" lon="-0.4992290">
        <ele>1788.2</ele>
        <time>2023-01-14T10:52:53Z</time>
      </trkpt>
      <trkpt lat="42.6960010" lon="-0.4992300">
        <ele>1788.2</ele>
        <time>2023-01-14T10:52:54Z</time>
      </trkpt>
      <trkpt lat="42.6960010" lon="-0.4992300">
        <ele>1788.2</ele>
        <time>2023-01-14T10:52:55Z</time>
      </trkpt>
      <trkpt lat="42.6960010" lon="-0.4992310">
        <ele>1788.2</ele>
        <time>2023-01-14T10:52:56Z</time>
      </trkpt>
      <trkpt lat="42.6960010" lon="-0.4992330">
        <ele>1788.2</ele>
        <time>2023-01-14T10:52:57Z</time>
      </trkpt>
      <trkpt lat="42.6960010" lon="-0.4992340">
        <ele>1788.4</ele>
        <time>2023-01-14T10:52:58Z</time>
      </trkpt>
      <trkpt lat="42.6960010" lon="-0.4992350">
        <ele>1788.4</ele>
        <time>2023-01-14T10:52:59Z</time>
      </trkpt>
      <trkpt lat="42.6960010" lon="-0.4992370">
        <ele>1788.4</ele>
        <time>2023-01-14T10:53:00Z</time>
      </trkpt>
      <trkpt lat="42.6960000" lon="-0.4992380">
        <ele>1788.4</ele>
        <time>2023-01-14T10:53:01Z</time>
      </trkpt>
      <trkpt lat="42.6960000" lon="-0.4992380">
        <ele>1788.6</ele>
        <time>2023-01-14T10:53:02Z</time>
      </trkpt>
      <trkpt lat="42.6960000" lon="-0.4992390">
        <ele>1788.6</ele>
        <time>2023-01-14T10:53:03Z</time>
      </trkpt>
      <trkpt lat="42.6960000" lon="-0.4992390">
        <ele>1788.6</ele>
        <time>2023-01-14T10:53:04Z</time>
      </trkpt>
      <trkpt lat="42.6960000" lon="-0.4992400">
        <ele>1788.6</ele>
        <time>2023-01-14T10:53:05Z</time>
      </trkpt>
      <trkpt lat="42.6960000" lon="-0.4992410">
        <ele>1788.6</ele>
        <time>2023-01-14T10:53:06Z</time>
      </trkpt>
      <trkpt lat="42.6959990" lon="-0.4992410">
        <ele>1788.8</ele>
        <time>2023-01-14T10:53:07Z</time>
      </trkpt>
      <trkpt lat="42.6959990" lon="-0.4992420">
        <ele>1788.8</ele>
        <time>2023-01-14T10:53:08Z</time>
      </trkpt>
      <trkpt lat="42.6959980" lon="-0.4992420">
        <ele>1788.8</ele>
        <time>2023-01-14T10:53:09Z</time>
      </trkpt>
      <trkpt lat="42.6959980" lon="-0.4992420">
        <ele>1788.8</ele>
        <time>2023-01-14T10:53:10Z</time>
      </trkpt>
      <trkpt lat="42.6959980" lon="-0.4992420">
        <ele>1788.6</ele>
        <time>2023-01-14T10:53:11Z</time>
      </trkpt>
      <trkpt lat="42.6959970" lon="-0.4992420">
        <ele>1788.6</ele>
        <time>2023-01-14T10:53:12Z</time>
      </trkpt>
      <trkpt lat="42.6959970" lon="-0.4992420">
        <ele>1788.6</ele>
        <time>2023-01-14T10:53:13Z</time>
      </trkpt>
      <trkpt lat="42.6959970" lon="-0.4992420">
        <ele>1788.6</ele>
        <time>2023-01-14T10:53:14Z</time>
      </trkpt>
      <trkpt lat="42.6959960" lon="-0.4992430">
        <ele>1788.8</ele>
        <time>2023-01-14T10:53:15Z</time>
      </trkpt>
      <trkpt lat="42.6959960" lon="-0.4992430">
        <ele>1788.8</ele>
        <time>2023-01-14T10:53:16Z</time>
      </trkpt>
      <trkpt lat="42.6959960" lon="-0.4992430">
        <ele>1788.8</ele>
        <time>2023-01-14T10:53:17Z</time>
      </trkpt>
      <trkpt lat="42.6959950" lon="-0.4992430">
        <ele>1788.8</ele>
        <time>2023-01-14T10:53:18Z</time>
      </trkpt>
      <trkpt lat="42.6959940" lon="-0.4992470">
        <ele>1788.8</ele>
        <time>2023-01-14T10:53:19Z</time>
      </trkpt>
      <trkpt lat="42.6959940" lon="-0.4992500">
        <ele>1789.2</ele>
        <time>2023-01-14T10:53:20Z</time>
      </trkpt>
      <trkpt lat="42.6959920" lon="-0.4992530">
        <ele>1789.4</ele>
        <time>2023-01-14T10:53:21Z</time>
      </trkpt>
      <trkpt lat="42.6959920" lon="-0.4992560">
        <ele>1789.4</ele>
        <time>2023-01-14T10:53:22Z</time>
      </trkpt>
      <trkpt lat="42.6959900" lon="-0.4992580">
        <ele>1789.6</ele>
        <time>2023-01-14T10:53:23Z</time>
      </trkpt>
      <trkpt lat="42.6959800" lon="-0.4992620">
        <ele>1789.8</ele>
        <time>2023-01-14T10:53:24Z</time>
      </trkpt>
      <trkpt lat="42.6959550" lon="-0.4992660">
        <ele>1789.8</ele>
        <time>2023-01-14T10:53:25Z</time>
      </trkpt>
      <trkpt lat="42.6959200" lon="-0.4992740">
        <ele>1789.6</ele>
        <time>2023-01-14T10:53:26Z</time>
      </trkpt>
      <trkpt lat="42.6958740" lon="-0.4992880">
        <ele>1789.4</ele>
        <time>2023-01-14T10:53:27Z</time>
      </trkpt>
      <trkpt lat="42.6958200" lon="-0.4993060">
        <ele>1789.4</ele>
        <time>2023-01-14T10:53:28Z</time>
      </trkpt>
      <trkpt lat="42.6957540" lon="-0.4993260">
        <ele>1789.2</ele>
        <time>2023-01-14T10:53:29Z</time>
      </trkpt>
      <trkpt lat="42.6956870" lon="-0.4993500">
        <ele>1788.6</ele>
        <time>2023-01-14T10:53:30Z</time>
      </trkpt>
      <trkpt lat="42.6956210" lon="-0.4993880">
        <ele>1788.0</ele>
        <time>2023-01-14T10:53:31Z</time>
      </trkpt>
      <trkpt lat="42.6955540" lon="-0.4994350">
        <ele>1787.6</ele>
        <time>2023-01-14T10:53:32Z</time>
      </trkpt>
      <trkpt lat="42.6954750" lon="-0.4994850">
        <ele>1787.2</ele>
        <time>2023-01-14T10:53:33Z</time>
      </trkpt>
      <trkpt lat="42.6953910" lon="-0.4995220">
        <ele>1786.4</ele>
        <time>2023-01-14T10:53:34Z</time>
      </trkpt>
      <trkpt lat="42.6953150" lon="-0.4995560">
        <ele>1786.0</ele>
        <time>2023-01-14T10:53:35Z</time>
      </trkpt>
      <trkpt lat="42.6952510" lon="-0.4996010">
        <ele>1785.8</ele>
        <time>2023-01-14T10:53:36Z</time>
      </trkpt>
      <trkpt lat="42.6951880" lon="-0.4996520">
        <ele>1785.4</ele>
        <time>2023-01-14T10:53:37Z</time>
      </trkpt>
      <trkpt lat="42.6951260" lon="-0.4996970">
        <ele>1785.0</ele>
        <time>2023-01-14T10:53:38Z</time>
      </trkpt>
      <trkpt lat="42.6950680" lon="-0.4997400">
        <ele>1784.8</ele>
        <time>2023-01-14T10:53:39Z</time>
      </trkpt>
      <trkpt lat="42.6950100" lon="-0.4997850">
        <ele>1784.6</ele>
        <time>2023-01-14T10:53:40Z</time>
      </trkpt>
      <trkpt lat="42.6949460" lon="-0.4998330">
        <ele>1784.6</ele>
        <time>2023-01-14T10:53:41Z</time>
      </trkpt>
      <trkpt lat="42.6948810" lon="-0.4998730">
        <ele>1784.4</ele>
        <time>2023-01-14T10:53:42Z</time>
      </trkpt>
      <trkpt lat="42.6948150" lon="-0.4999040">
        <ele>1783.6</ele>
        <time>2023-01-14T10:53:43Z</time>
      </trkpt>
      <trkpt lat="42.6947490" lon="-0.4999300">
        <ele>1782.8</ele>
        <time>2023-01-14T10:53:44Z</time>
      </trkpt>
      <trkpt lat="42.6946850" lon="-0.4999630">
        <ele>1782.4</ele>
        <time>2023-01-14T10:53:45Z</time>
      </trkpt>
      <trkpt lat="42.6946280" lon="-0.4999920">
        <ele>1782.0</ele>
        <time>2023-01-14T10:53:46Z</time>
      </trkpt>
      <trkpt lat="42.6945710" lon="-0.5000150">
        <ele>1781.8</ele>
        <time>2023-01-14T10:53:47Z</time>
      </trkpt>
      <trkpt lat="42.6945110" lon="-0.5000360">
        <ele>1781.2</ele>
        <time>2023-01-14T10:53:48Z</time>
      </trkpt>
      <trkpt lat="42.6944480" lon="-0.5000640">
        <ele>1780.8</ele>
        <time>2023-01-14T10:53:49Z</time>
      </trkpt>
      <trkpt lat="42.6943890" lon="-0.5000870">
        <ele>1780.6</ele>
        <time>2023-01-14T10:53:50Z</time>
      </trkpt>
      <trkpt lat="42.6943330" lon="-0.5001110">
        <ele>1780.2</ele>
        <time>2023-01-14T10:53:51Z</time>
      </trkpt>
      <trkpt lat="42.6942840" lon="-0.5001280">
        <ele>1779.8</ele>
        <time>2023-01-14T10:53:52Z</time>
      </trkpt>
      <trkpt lat="42.6942360" lon="-0.5001370">
        <ele>1779.6</ele>
        <time>2023-01-14T10:53:53Z</time>
      </trkpt>
      <trkpt lat="42.6941860" lon="-0.5001470">
        <ele>1779.4</ele>
        <time>2023-01-14T10:53:54Z</time>
      </trkpt>
      <trkpt lat="42.6941410" lon="-0.5001650">
        <ele>1779.8</ele>
        <time>2023-01-14T10:53:55Z</time>
      </trkpt>
      <trkpt lat="42.6941050" lon="-0.5001880">
        <ele>1779.6</ele>
        <time>2023-01-14T10:53:56Z</time>
      </trkpt>
      <trkpt lat="42.6940680" lon="-0.5002090">
        <ele>1779.4</ele>
        <time>2023-01-14T10:53:57Z</time>
      </trkpt>
      <trkpt lat="42.6940240" lon="-0.5002290">
        <ele>1779.4</ele>
        <time>2023-01-14T10:53:58Z</time>
      </trkpt>
      <trkpt lat="42.6939790" lon="-0.5002430">
        <ele>1779.4</ele>
        <time>2023-01-14T10:53:59Z</time>
      </trkpt>
      <trkpt lat="42.6939270" lon="-0.5002560">
        <ele>1779.4</ele>
        <time>2023-01-14T10:54:00Z</time>
      </trkpt>
      <trkpt lat="42.6938790" lon="-0.5002720">
        <ele>1779.2</ele>
        <time>2023-01-14T10:54:01Z</time>
      </trkpt>
      <trkpt lat="42.6938310" lon="-0.5002950">
        <ele>1779.2</ele>
        <time>2023-01-14T10:54:02Z</time>
      </trkpt>
      <trkpt lat="42.6937820" lon="-0.5003150">
        <ele>1779.2</ele>
        <time>2023-01-14T10:54:03Z</time>
      </trkpt>
      <trkpt lat="42.6937330" lon="-0.5003380">
        <ele>1779.2</ele>
        <time>2023-01-14T10:54:04Z</time>
      </trkpt>
      <trkpt lat="42.6936870" lon="-0.5003660">
        <ele>1779.2</ele>
        <time>2023-01-14T10:54:05Z</time>
      </trkpt>
      <trkpt lat="42.6936400" lon="-0.5003890">
        <ele>1779.2</ele>
        <time>2023-01-14T10:54:06Z</time>
      </trkpt>
      <trkpt lat="42.6935910" lon="-0.5004150">
        <ele>1779.0</ele>
        <time>2023-01-14T10:54:07Z</time>
      </trkpt>
      <trkpt lat="42.6935460" lon="-0.5004350">
        <ele>1778.8</ele>
        <time>2023-01-14T10:54:08Z</time>
      </trkpt>
      <trkpt lat="42.6934970" lon="-0.5004570">
        <ele>1778.4</ele>
        <time>2023-01-14T10:54:09Z</time>
      </trkpt>
      <trkpt lat="42.6934490" lon="-0.5004660">
        <ele>1778.2</ele>
        <time>2023-01-14T10:54:10Z</time>
      </trkpt>
      <trkpt lat="42.6934110" lon="-0.5004610">
        <ele>1778.0</ele>
        <time>2023-01-14T10:54:11Z</time>
      </trkpt>
      <trkpt lat="42.6933740" lon="-0.5004490">
        <ele>1778.0</ele>
        <time>2023-01-14T10:54:12Z</time>
      </trkpt>
      <trkpt lat="42.6933280" lon="-0.5004330">
        <ele>1777.8</ele>
        <time>2023-01-14T10:54:13Z</time>
      </trkpt>
      <trkpt lat="42.6932770" lon="-0.5004260">
        <ele>1777.6</ele>
        <time>2023-01-14T10:54:14Z</time>
      </trkpt>
      <trkpt lat="42.6932210" lon="-0.5004330">
        <ele>1777.6</ele>
        <time>2023-01-14T10:54:15Z</time>
      </trkpt>
      <trkpt lat="42.6931640" lon="-0.5004520">
        <ele>1777.6</ele>
        <time>2023-01-14T10:54:16Z</time>
      </trkpt>
      <trkpt lat="42.6931070" lon="-0.5004690">
        <ele>1777.6</ele>
        <time>2023-01-14T10:54:17Z</time>
      </trkpt>
      <trkpt lat="42.6930490" lon="-0.5004780">
        <ele>1777.4</ele>
        <time>2023-01-14T10:54:18Z</time>
      </trkpt>
      <trkpt lat="42.6929990" lon="-0.5004960">
        <ele>1777.2</ele>
        <time>2023-01-14T10:54:19Z</time>
      </trkpt>
      <trkpt lat="42.6929460" lon="-0.5004960">
        <ele>1777.0</ele>
        <time>2023-01-14T10:54:20Z</time>
      </trkpt>
      <trkpt lat="42.6929040" lon="-0.5004860">
        <ele>1776.8</ele>
        <time>2023-01-14T10:54:21Z</time>
      </trkpt>
      <trkpt lat="42.6928570" lon="-0.5004680">
        <ele>1776.6</ele>
        <time>2023-01-14T10:54:22Z</time>
      </trkpt>
      <trkpt lat="42.6928200" lon="-0.5004450">
        <ele>1776.6</ele>
        <time>2023-01-14T10:54:23Z</time>
      </trkpt>
      <trkpt lat="42.6927860" lon="-0.5004110">
        <ele>1776.4</ele>
        <time>2023-01-14T10:54:24Z</time>
      </trkpt>
      <trkpt lat="42.6927510" lon="-0.5003650">
        <ele>1776.2</ele>
        <time>2023-01-14T10:54:25Z</time>
      </trkpt>
      <trkpt lat="42.6927240" lon="-0.5003290">
        <ele>1776.0</ele>
        <time>2023-01-14T10:54:26Z</time>
      </trkpt>
      <trkpt lat="42.6926890" lon="-0.5003020">
        <ele>1775.2</ele>
        <time>2023-01-14T10:54:27Z</time>
      </trkpt>
      <trkpt lat="42.6926550" lon="-0.5002690">
        <ele>1774.2</ele>
        <time>2023-01-14T10:54:28Z</time>
      </trkpt>
      <trkpt lat="42.6926100" lon="-0.5002300">
        <ele>1773.4</ele>
        <time>2023-01-14T10:54:29Z</time>
      </trkpt>
      <trkpt lat="42.6925640" lon="-0.5001940">
        <ele>1772.8</ele>
        <time>2023-01-14T10:54:30Z</time>
      </trkpt>
      <trkpt lat="42.6925200" lon="-0.5001680">
        <ele>1772.2</ele>
        <time>2023-01-14T10:54:31Z</time>
      </trkpt>
      <trkpt lat="42.6924790" lon="-0.5001580">
        <ele>1770.6</ele>
        <time>2023-01-14T10:54:32Z</time>
      </trkpt>
      <trkpt lat="42.6924450" lon="-0.5001470">
        <ele>1769.0</ele>
        <time>2023-01-14T10:54:33Z</time>
      </trkpt>
      <trkpt lat="42.6924100" lon="-0.5001330">
        <ele>1768.0</ele>
        <time>2023-01-14T10:54:34Z</time>
      </trkpt>
      <trkpt lat="42.6923890" lon="-0.5001040">
        <ele>1766.8</ele>
        <time>2023-01-14T10:54:35Z</time>
      </trkpt>
      <trkpt lat="42.6923660" lon="-0.5000770">
        <ele>1765.6</ele>
        <time>2023-01-14T10:54:36Z</time>
      </trkpt>
      <trkpt lat="42.6923450" lon="-0.5000530">
        <ele>1764.2</ele>
        <time>2023-01-14T10:54:37Z</time>
      </trkpt>
      <trkpt lat="42.6923180" lon="-0.5000410">
        <ele>1762.8</ele>
        <time>2023-01-14T10:54:38Z</time>
      </trkpt>
      <trkpt lat="42.6922910" lon="-0.5000180">
        <ele>1762.0</ele>
        <time>2023-01-14T10:54:39Z</time>
      </trkpt>
      <trkpt lat="42.6922730" lon="-0.4999810">
        <ele>1760.8</ele>
        <time>2023-01-14T10:54:40Z</time>
      </trkpt>
      <trkpt lat="42.6922620" lon="-0.4999370">
        <ele>1758.6</ele>
        <time>2023-01-14T10:54:41Z</time>
      </trkpt>
      <trkpt lat="42.6922470" lon="-0.4998860">
        <ele>1757.2</ele>
        <time>2023-01-14T10:54:42Z</time>
      </trkpt>
      <trkpt lat="42.6922190" lon="-0.4998360">
        <ele>1756.4</ele>
        <time>2023-01-14T10:54:43Z</time>
      </trkpt>
      <trkpt lat="42.6921880" lon="-0.4998060">
        <ele>1754.4</ele>
        <time>2023-01-14T10:54:44Z</time>
      </trkpt>
      <trkpt lat="42.6921460" lon="-0.4997780">
        <ele>1752.8</ele>
        <time>2023-01-14T10:54:45Z</time>
      </trkpt>
      <trkpt lat="42.6921010" lon="-0.4997520">
        <ele>1751.2</ele>
        <time>2023-01-14T10:54:46Z</time>
      </trkpt>
      <trkpt lat="42.6920600" lon="-0.4997050">
        <ele>1749.8</ele>
        <time>2023-01-14T10:54:47Z</time>
      </trkpt>
      <trkpt lat="42.6920010" lon="-0.4996700">
        <ele>1748.2</ele>
        <time>2023-01-14T10:54:48Z</time>
      </trkpt>
      <trkpt lat="42.6919540" lon="-0.4996420">
        <ele>1746.2</ele>
        <time>2023-01-14T10:54:49Z</time>
      </trkpt>
      <trkpt lat="42.6919120" lon="-0.4996430">
        <ele>1744.6</ele>
        <time>2023-01-14T10:54:50Z</time>
      </trkpt>
      <trkpt lat="42.6918740" lon="-0.4996360">
        <ele>1743.0</ele>
        <time>2023-01-14T10:54:51Z</time>
      </trkpt>
      <trkpt lat="42.6918310" lon="-0.4996370">
        <ele>1741.8</ele>
        <time>2023-01-14T10:54:52Z</time>
      </trkpt>
      <trkpt lat="42.6917940" lon="-0.4996410">
        <ele>1740.6</ele>
        <time>2023-01-14T10:54:53Z</time>
      </trkpt>
      <trkpt lat="42.6917600" lon="-0.4996510">
        <ele>1739.8</ele>
        <time>2023-01-14T10:54:54Z</time>
      </trkpt>
      <trkpt lat="42.6917270" lon="-0.4996780">
        <ele>1739.0</ele>
        <time>2023-01-14T10:54:55Z</time>
      </trkpt>
      <trkpt lat="42.6916920" lon="-0.4997200">
        <ele>1737.8</ele>
        <time>2023-01-14T10:54:56Z</time>
      </trkpt>
      <trkpt lat="42.6916550" lon="-0.4997710">
        <ele>1737.2</ele>
        <time>2023-01-14T10:54:57Z</time>
      </trkpt>
      <trkpt lat="42.6916240" lon="-0.4998270">
        <ele>1736.4</ele>
        <time>2023-01-14T10:54:58Z</time>
      </trkpt>
      <trkpt lat="42.6915990" lon="-0.4998630">
        <ele>1735.8</ele>
        <time>2023-01-14T10:54:59Z</time>
      </trkpt>
      <trkpt lat="42.6915820" lon="-0.4998830">
        <ele>1735.2</ele>
        <time>2023-01-14T10:55:00Z</time>
      </trkpt>
      <trkpt lat="42.6915600" lon="-0.4998840">
        <ele>1734.4</ele>
        <time>2023-01-14T10:55:01Z</time>
      </trkpt>
      <trkpt lat="42.6915410" lon="-0.4998810">
        <ele>1733.8</ele>
        <time>2023-01-14T10:55:02Z</time>
      </trkpt>
      <trkpt lat="42.6915240" lon="-0.4998590">
        <ele>1732.8</ele>
        <time>2023-01-14T10:55:03Z</time>
      </trkpt>
      <trkpt lat="42.6915010" lon="-0.4998410">
        <ele>1732.2</ele>
        <time>2023-01-14T10:55:04Z</time>
      </trkpt>
      <trkpt lat="42.6914780" lon="-0.4998180">
        <ele>1731.8</ele>
        <time>2023-01-14T10:55:05Z</time>
      </trkpt>
      <trkpt lat="42.6914520" lon="-0.4998080">
        <ele>1731.2</ele>
        <time>2023-01-14T10:55:06Z</time>
      </trkpt>
      <trkpt lat="42.6914250" lon="-0.4998150">
        <ele>1730.2</ele>
        <time>2023-01-14T10:55:07Z</time>
      </trkpt>
      <trkpt lat="42.6913920" lon="-0.4998300">
        <ele>1729.6</ele>
        <time>2023-01-14T10:55:08Z</time>
      </trkpt>
      <trkpt lat="42.6913580" lon="-0.4998430">
        <ele>1729.0</ele>
        <time>2023-01-14T10:55:09Z</time>
      </trkpt>
      <trkpt lat="42.6913220" lon="-0.4998450">
        <ele>1727.8</ele>
        <time>2023-01-14T10:55:10Z</time>
      </trkpt>
      <trkpt lat="42.6912910" lon="-0.4998510">
        <ele>1726.8</ele>
        <time>2023-01-14T10:55:11Z</time>
      </trkpt>
      <trkpt lat="42.6912620" lon="-0.4998680">
        <ele>1725.6</ele>
        <time>2023-01-14T10:55:12Z</time>
      </trkpt>
      <trkpt lat="42.6912310" lon="-0.4998890">
        <ele>1724.6</ele>
        <time>2023-01-14T10:55:13Z</time>
      </trkpt>
      <trkpt lat="42.6912080" lon="-0.4998970">
        <ele>1723.8</ele>
        <time>2023-01-14T10:55:14Z</time>
      </trkpt>
      <trkpt lat="42.6911830" lon="-0.4998880">
        <ele>1722.6</ele>
        <time>2023-01-14T10:55:15Z</time>
      </trkpt>
      <trkpt lat="42.6911640" lon="-0.4998790">
        <ele>1721.2</ele>
        <time>2023-01-14T10:55:16Z</time>
      </trkpt>
      <trkpt lat="42.6911400" lon="-0.4998710">
        <ele>1719.8</ele>
        <time>2023-01-14T10:55:17Z</time>
      </trkpt>
      <trkpt lat="42.6911130" lon="-0.4998620">
        <ele>1718.8</ele>
        <time>2023-01-14T10:55:18Z</time>
      </trkpt>
      <trkpt lat="42.6910850" lon="-0.4998520">
        <ele>1717.6</ele>
        <time>2023-01-14T10:55:19Z</time>
      </trkpt>
      <trkpt lat="42.6910720" lon="-0.4998300">
        <ele>1716.8</ele>
        <time>2023-01-14T10:55:20Z</time>
      </trkpt>
      <trkpt lat="42.6910560" lon="-0.4998050">
        <ele>1716.0</ele>
        <time>2023-01-14T10:55:21Z</time>
      </trkpt>
      <trkpt lat="42.6910380" lon="-0.4997900">
        <ele>1715.2</ele>
        <time>2023-01-14T10:55:22Z</time>
      </trkpt>
      <trkpt lat="42.6910220" lon="-0.4997620">
        <ele>1714.2</ele>
        <time>2023-01-14T10:55:23Z</time>
      </trkpt>
      <trkpt lat="42.6909920" lon="-0.4997250">
        <ele>1713.6</ele>
        <time>2023-01-14T10:55:24Z</time>
      </trkpt>
      <trkpt lat="42.6909710" lon="-0.4996750">
        <ele>1712.6</ele>
        <time>2023-01-14T10:55:25Z</time>
      </trkpt>
      <trkpt lat="42.6909600" lon="-0.4996270">
        <ele>1711.8</ele>
        <time>2023-01-14T10:55:26Z</time>
      </trkpt>
      <trkpt lat="42.6909540" lon="-0.4995850">
        <ele>1710.6</ele>
        <time>2023-01-14T10:55:27Z</time>
      </trkpt>
      <trkpt lat="42.6909440" lon="-0.4995500">
        <ele>1709.8</ele>
        <time>2023-01-14T10:55:28Z</time>
      </trkpt>
      <trkpt lat="42.6909320" lon="-0.4995250">
        <ele>1709.0</ele>
        <time>2023-01-14T10:55:29Z</time>
      </trkpt>
      <trkpt lat="42.6909170" lon="-0.4995080">
        <ele>1708.2</ele>
        <time>2023-01-14T10:55:30Z</time>
      </trkpt>
      <trkpt lat="42.6908950" lon="-0.4995000">
        <ele>1707.0</ele>
        <time>2023-01-14T10:55:31Z</time>
      </trkpt>
      <trkpt lat="42.6908660" lon="-0.4995000">
        <ele>1706.4</ele>
        <time>2023-01-14T10:55:32Z</time>
      </trkpt>
      <trkpt lat="42.6908380" lon="-0.4995220">
        <ele>1705.6</ele>
        <time>2023-01-14T10:55:33Z</time>
      </trkpt>
      <trkpt lat="42.6908090" lon="-0.4995510">
        <ele>1705.0</ele>
        <time>2023-01-14T10:55:34Z</time>
      </trkpt>
      <trkpt lat="42.6907750" lon="-0.4995840">
        <ele>1703.8</ele>
        <time>2023-01-14T10:55:35Z</time>
      </trkpt>
      <trkpt lat="42.6907460" lon="-0.4996060">
        <ele>1702.8</ele>
        <time>2023-01-14T10:55:36Z</time>
      </trkpt>
      <trkpt lat="42.6907190" lon="-0.4996300">
        <ele>1702.4</ele>
        <time>2023-01-14T10:55:37Z</time>
      </trkpt>
      <trkpt lat="42.6906950" lon="-0.4996650">
        <ele>1701.8</ele>
        <time>2023-01-14T10:55:38Z</time>
      </trkpt>
      <trkpt lat="42.6906700" lon="-0.4996970">
        <ele>1700.4</ele>
        <time>2023-01-14T10:55:39Z</time>
      </trkpt>
      <trkpt lat="42.6906390" lon="-0.4997300">
        <ele>1699.2</ele>
        <time>2023-01-14T10:55:40Z</time>
      </trkpt>
      <trkpt lat="42.6906050" lon="-0.4997610">
        <ele>1697.8</ele>
        <time>2023-01-14T10:55:41Z</time>
      </trkpt>
      <trkpt lat="42.6905720" lon="-0.4997820">
        <ele>1696.4</ele>
        <time>2023-01-14T10:55:42Z</time>
      </trkpt>
      <trkpt lat="42.6905380" lon="-0.4997940">
        <ele>1695.0</ele>
        <time>2023-01-14T10:55:43Z</time>
      </trkpt>
      <trkpt lat="42.6905130" lon="-0.4998100">
        <ele>1693.0</ele>
        <time>2023-01-14T10:55:44Z</time>
      </trkpt>
      <trkpt lat="42.6904930" lon="-0.4998230">
        <ele>1691.4</ele>
        <time>2023-01-14T10:55:45Z</time>
      </trkpt>
      <trkpt lat="42.6904730" lon="-0.4998360">
        <ele>1690.0</ele>
        <time>2023-01-14T10:55:46Z</time>
      </trkpt>
      <trkpt lat="42.6904610" lon="-0.4998660">
        <ele>1689.0</ele>
        <time>2023-01-14T10:55:47Z</time>
      </trkpt>
      <trkpt lat="42.6904590" lon="-0.4998970">
        <ele>1688.2</ele>
        <time>2023-01-14T10:55:48Z</time>
      </trkpt>
      <trkpt lat="42.6904440" lon="-0.4999300">
        <ele>1687.0</ele>
        <time>2023-01-14T10:55:49Z</time>
      </trkpt>
      <trkpt lat="42.6904190" lon="-0.4999560">
        <ele>1685.8</ele>
        <time>2023-01-14T10:55:50Z</time>
      </trkpt>
      <trkpt lat="42.6903970" lon="-0.4999860">
        <ele>1685.2</ele>
        <time>2023-01-14T10:55:51Z</time>
      </trkpt>
      <trkpt lat="42.6903850" lon="-0.5000310">
        <ele>1684.0</ele>
        <time>2023-01-14T10:55:52Z</time>
      </trkpt>
      <trkpt lat="42.6903800" lon="-0.5000860">
        <ele>1683.2</ele>
        <time>2023-01-14T10:55:53Z</time>
      </trkpt>
      <trkpt lat="42.6903850" lon="-0.5001460">
        <ele>1682.6</ele>
        <time>2023-01-14T10:55:54Z</time>
      </trkpt>
      <trkpt lat="42.6903990" lon="-0.5001960">
        <ele>1682.0</ele>
        <time>2023-01-14T10:55:55Z</time>
      </trkpt>
      <trkpt lat="42.6904140" lon="-0.5002550">
        <ele>1681.6</ele>
        <time>2023-01-14T10:55:56Z</time>
      </trkpt>
      <trkpt lat="42.6904350" lon="-0.5003050">
        <ele>1681.4</ele>
        <time>2023-01-14T10:55:57Z</time>
      </trkpt>
      <trkpt lat="42.6904520" lon="-0.5003560">
        <ele>1681.2</ele>
        <time>2023-01-14T10:55:58Z</time>
      </trkpt>
      <trkpt lat="42.6904680" lon="-0.5004070">
        <ele>1681.2</ele>
        <time>2023-01-14T10:55:59Z</time>
      </trkpt>
      <trkpt lat="42.6904810" lon="-0.5004640">
        <ele>1681.2</ele>
        <time>2023-01-14T10:56:00Z</time>
      </trkpt>
      <trkpt lat="42.6905000" lon="-0.5005170">
        <ele>1681.2</ele>
        <time>2023-01-14T10:56:01Z</time>
      </trkpt>
      <trkpt lat="42.6905230" lon="-0.5005760">
        <ele>1680.6</ele>
        <time>2023-01-14T10:56:02Z</time>
      </trkpt>
      <trkpt lat="42.6905460" lon="-0.5006280">
        <ele>1679.2</ele>
        <time>2023-01-14T10:56:03Z</time>
      </trkpt>
      <trkpt lat="42.6905700" lon="-0.5006890">
        <ele>1678.0</ele>
        <time>2023-01-14T10:56:04Z</time>
      </trkpt>
      <trkpt lat="42.6905900" lon="-0.5007510">
        <ele>1677.4</ele>
        <time>2023-01-14T10:56:05Z</time>
      </trkpt>
      <trkpt lat="42.6906120" lon="-0.5008380">
        <ele>1676.6</ele>
        <time>2023-01-14T10:56:06Z</time>
      </trkpt>
      <trkpt lat="42.6906420" lon="-0.5009360">
        <ele>1675.4</ele>
        <time>2023-01-14T10:56:07Z</time>
      </trkpt>
      <trkpt lat="42.6906740" lon="-0.5010550">
        <ele>1673.8</ele>
        <time>2023-01-14T10:56:08Z</time>
      </trkpt>
      <trkpt lat="42.6906980" lon="-0.5011690">
        <ele>1672.6</ele>
        <time>2023-01-14T10:56:09Z</time>
      </trkpt>
      <trkpt lat="42.6907220" lon="-0.5012910">
        <ele>1671.4</ele>
        <time>2023-01-14T10:56:10Z</time>
      </trkpt>
      <trkpt lat="42.6907430" lon="-0.5014110">
        <ele>1670.4</ele>
        <time>2023-01-14T10:56:11Z</time>
      </trkpt>
      <trkpt lat="42.6907680" lon="-0.5015270">
        <ele>1669.6</ele>
        <time>2023-01-14T10:56:12Z</time>
      </trkpt>
      <trkpt lat="42.6907970" lon="-0.5016140">
        <ele>1668.6</ele>
        <time>2023-01-14T10:56:13Z</time>
      </trkpt>
      <trkpt lat="42.6908260" lon="-0.5016790">
        <ele>1667.8</ele>
        <time>2023-01-14T10:56:14Z</time>
      </trkpt>
      <trkpt lat="42.6908560" lon="-0.5017410">
        <ele>1667.0</ele>
        <time>2023-01-14T10:56:15Z</time>
      </trkpt>
      <trkpt lat="42.6908800" lon="-0.5017950">
        <ele>1665.8</ele>
        <time>2023-01-14T10:56:16Z</time>
      </trkpt>
      <trkpt lat="42.6909000" lon="-0.5018310">
        <ele>1664.6</ele>
        <time>2023-01-14T10:56:17Z</time>
      </trkpt>
      <trkpt lat="42.6909120" lon="-0.5018760">
        <ele>1663.2</ele>
        <time>2023-01-14T10:56:18Z</time>
      </trkpt>
      <trkpt lat="42.6909280" lon="-0.5019170">
        <ele>1662.4</ele>
        <time>2023-01-14T10:56:19Z</time>
      </trkpt>
      <trkpt lat="42.6909460" lon="-0.5019690">
        <ele>1661.4</ele>
        <time>2023-01-14T10:56:20Z</time>
      </trkpt>
      <trkpt lat="42.6909570" lon="-0.5020270">
        <ele>1660.6</ele>
        <time>2023-01-14T10:56:21Z</time>
      </trkpt>
      <trkpt lat="42.6909690" lon="-0.5020780">
        <ele>1660.0</ele>
        <time>2023-01-14T10:56:22Z</time>
      </trkpt>
      <trkpt lat="42.6909780" lon="-0.5021350">
        <ele>1658.6</ele>
        <time>2023-01-14T10:56:23Z</time>
      </trkpt>
      <trkpt lat="42.6909970" lon="-0.5021860">
        <ele>1657.4</ele>
        <time>2023-01-14T10:56:24Z</time>
      </trkpt>
      <trkpt lat="42.6910130" lon="-0.5022480">
        <ele>1656.6</ele>
        <time>2023-01-14T10:56:25Z</time>
      </trkpt>
      <trkpt lat="42.6910310" lon="-0.5023190">
        <ele>1655.4</ele>
        <time>2023-01-14T10:56:26Z</time>
      </trkpt>
      <trkpt lat="42.6910490" lon="-0.5023970">
        <ele>1654.2</ele>
        <time>2023-01-14T10:56:27Z</time>
      </trkpt>
      <trkpt lat="42.6910610" lon="-0.5024820">
        <ele>1653.6</ele>
        <time>2023-01-14T10:56:28Z</time>
      </trkpt>
      <trkpt lat="42.6910660" lon="-0.5025790">
        <ele>1652.8</ele>
        <time>2023-01-14T10:56:29Z</time>
      </trkpt>
      <trkpt lat="42.6910730" lon="-0.5026850">
        <ele>1652.2</ele>
        <time>2023-01-14T10:56:30Z</time>
      </trkpt>
      <trkpt lat="42.6910860" lon="-0.5027840">
        <ele>1650.8</ele>
        <time>2023-01-14T10:56:31Z</time>
      </trkpt>
      <trkpt lat="42.6910980" lon="-0.5028910">
        <ele>1649.2</ele>
        <time>2023-01-14T10:56:32Z</time>
      </trkpt>
      <trkpt lat="42.6911450" lon="-0.5029650">
        <ele>1647.6</ele>
        <time>2023-01-14T10:56:33Z</time>
      </trkpt>
      <trkpt lat="42.6911930" lon="-0.5030090">
        <ele>1646.2</ele>
        <time>2023-01-14T10:56:34Z</time>
      </trkpt>
      <trkpt lat="42.6912270" lon="-0.5030590">
        <ele>1645.6</ele>
        <time>2023-01-14T10:56:35Z</time>
      </trkpt>
      <trkpt lat="42.6912630" lon="-0.5031020">
        <ele>1644.6</ele>
        <time>2023-01-14T10:56:36Z</time>
      </trkpt>
      <trkpt lat="42.6912940" lon="-0.5031600">
        <ele>1643.8</ele>
        <time>2023-01-14T10:56:37Z</time>
      </trkpt>
      <trkpt lat="42.6912940" lon="-0.5032160">
        <ele>1642.2</ele>
        <time>2023-01-14T10:56:38Z</time>
      </trkpt>
      <trkpt lat="42.6912800" lon="-0.5032750">
        <ele>1640.2</ele>
        <time>2023-01-14T10:56:39Z</time>
      </trkpt>
      <trkpt lat="42.6912660" lon="-0.5033190">
        <ele>1639.0</ele>
        <time>2023-01-14T10:56:40Z</time>
      </trkpt>
      <trkpt lat="42.6912400" lon="-0.5033700">
        <ele>1637.2</ele>
        <time>2023-01-14T10:56:41Z</time>
      </trkpt>
      <trkpt lat="42.6912120" lon="-0.5034190">
        <ele>1635.8</ele>
        <time>2023-01-14T10:56:42Z</time>
      </trkpt>
      <trkpt lat="42.6912100" lon="-0.5034630">
        <ele>1634.4</ele>
        <time>2023-01-14T10:56:43Z</time>
      </trkpt>
      <trkpt lat="42.6912340" lon="-0.5034850">
        <ele>1632.4</ele>
        <time>2023-01-14T10:56:44Z</time>
      </trkpt>
      <trkpt lat="42.6912700" lon="-0.5034970">
        <ele>1631.2</ele>
        <time>2023-01-14T10:56:45Z</time>
      </trkpt>
      <trkpt lat="42.6912980" lon="-0.5035110">
        <ele>1630.2</ele>
        <time>2023-01-14T10:56:46Z</time>
      </trkpt>
      <trkpt lat="42.6913230" lon="-0.5035310">
        <ele>1629.2</ele>
        <time>2023-01-14T10:56:47Z</time>
      </trkpt>
      <trkpt lat="42.6913430" lon="-0.5035630">
        <ele>1628.2</ele>
        <time>2023-01-14T10:56:48Z</time>
      </trkpt>
      <trkpt lat="42.6913520" lon="-0.5035890">
        <ele>1626.6</ele>
        <time>2023-01-14T10:56:49Z</time>
      </trkpt>
      <trkpt lat="42.6913480" lon="-0.5036290">
        <ele>1625.4</ele>
        <time>2023-01-14T10:56:50Z</time>
      </trkpt>
      <trkpt lat="42.6913420" lon="-0.5036680">
        <ele>1624.4</ele>
        <time>2023-01-14T10:56:51Z</time>
      </trkpt>
      <trkpt lat="42.6913330" lon="-0.5037040">
        <ele>1623.4</ele>
        <time>2023-01-14T10:56:52Z</time>
      </trkpt>
      <trkpt lat="42.6913300" lon="-0.5037440">
        <ele>1622.0</ele>
        <time>2023-01-14T10:56:53Z</time>
      </trkpt>
      <trkpt lat="42.6913270" lon="-0.5037900">
        <ele>1620.4</ele>
        <time>2023-01-14T10:56:54Z</time>
      </trkpt>
      <trkpt lat="42.6913140" lon="-0.5038330">
        <ele>1618.6</ele>
        <time>2023-01-14T10:56:55Z</time>
      </trkpt>
      <trkpt lat="42.6912930" lon="-0.5038680">
        <ele>1617.0</ele>
        <time>2023-01-14T10:56:56Z</time>
      </trkpt>
      <trkpt lat="42.6912740" lon="-0.5039070">
        <ele>1615.0</ele>
        <time>2023-01-14T10:56:57Z</time>
      </trkpt>
      <trkpt lat="42.6912500" lon="-0.5039560">
        <ele>1613.6</ele>
        <time>2023-01-14T10:56:58Z</time>
      </trkpt>
      <trkpt lat="42.6912240" lon="-0.5040230">
        <ele>1612.8</ele>
        <time>2023-01-14T10:56:59Z</time>
      </trkpt>
      <trkpt lat="42.6911920" lon="-0.5040990">
        <ele>1611.2</ele>
        <time>2023-01-14T10:57:00Z</time>
      </trkpt>
      <trkpt lat="42.6911390" lon="-0.5041710">
        <ele>1609.4</ele>
        <time>2023-01-14T10:57:01Z</time>
      </trkpt>
      <trkpt lat="42.6910980" lon="-0.5042200">
        <ele>1607.6</ele>
        <time>2023-01-14T10:57:02Z</time>
      </trkpt>
      <trkpt lat="42.6910480" lon="-0.5042910">
        <ele>1606.6</ele>
        <time>2023-01-14T10:57:03Z</time>
      </trkpt>
      <trkpt lat="42.6910120" lon="-0.5043550">
        <ele>1605.2</ele>
        <time>2023-01-14T10:57:04Z</time>
      </trkpt>
      <trkpt lat="42.6909780" lon="-0.5044160">
        <ele>1604.2</ele>
        <time>2023-01-14T10:57:05Z</time>
      </trkpt>
      <trkpt lat="42.6909590" lon="-0.5044820">
        <ele>1603.0</ele>
        <time>2023-01-14T10:57:06Z</time>
      </trkpt>
      <trkpt lat="42.6909350" lon="-0.5045650">
        <ele>1601.8</ele>
        <time>2023-01-14T10:57:07Z</time>
      </trkpt>
      <trkpt lat="42.6909060" lon="-0.5046450">
        <ele>1600.8</ele>
        <time>2023-01-14T10:57:08Z</time>
      </trkpt>
      <trkpt lat="42.6908720" lon="-0.5047010">
        <ele>1599.8</ele>
        <time>2023-01-14T10:57:09Z</time>
      </trkpt>
      <trkpt lat="42.6908430" lon="-0.5047110">
        <ele>1598.8</ele>
        <time>2023-01-14T10:57:10Z</time>
      </trkpt>
      <trkpt lat="42.6908200" lon="-0.5047050">
        <ele>1598.0</ele>
        <time>2023-01-14T10:57:11Z</time>
      </trkpt>
      <trkpt lat="42.6908060" lon="-0.5047080">
        <ele>1597.0</ele>
        <time>2023-01-14T10:57:12Z</time>
      </trkpt>
      <trkpt lat="42.6908050" lon="-0.5047230">
        <ele>1596.4</ele>
        <time>2023-01-14T10:57:13Z</time>
      </trkpt>
      <trkpt lat="42.6908040" lon="-0.5047630">
        <ele>1595.8</ele>
        <time>2023-01-14T10:57:14Z</time>
      </trkpt>
      <trkpt lat="42.6908050" lon="-0.5048140">
        <ele>1594.8</ele>
        <time>2023-01-14T10:57:15Z</time>
      </trkpt>
      <trkpt lat="42.6908090" lon="-0.5048650">
        <ele>1594.2</ele>
        <time>2023-01-14T10:57:16Z</time>
      </trkpt>
      <trkpt lat="42.6908170" lon="-0.5049080">
        <ele>1593.4</ele>
        <time>2023-01-14T10:57:17Z</time>
      </trkpt>
      <trkpt lat="42.6908280" lon="-0.5049380">
        <ele>1592.6</ele>
        <time>2023-01-14T10:57:18Z</time>
      </trkpt>
      <trkpt lat="42.6908330" lon="-0.5049700">
        <ele>1591.6</ele>
        <time>2023-01-14T10:57:19Z</time>
      </trkpt>
      <trkpt lat="42.6908320" lon="-0.5050050">
        <ele>1590.6</ele>
        <time>2023-01-14T10:57:20Z</time>
      </trkpt>
      <trkpt lat="42.6908250" lon="-0.5050470">
        <ele>1589.4</ele>
        <time>2023-01-14T10:57:21Z</time>
      </trkpt>
      <trkpt lat="42.6908030" lon="-0.5050900">
        <ele>1588.8</ele>
        <time>2023-01-14T10:57:22Z</time>
      </trkpt>
      <trkpt lat="42.6907680" lon="-0.5051270">
        <ele>1587.8</ele>
        <time>2023-01-14T10:57:23Z</time>
      </trkpt>
      <trkpt lat="42.6907320" lon="-0.5051500">
        <ele>1586.4</ele>
        <time>2023-01-14T10:57:24Z</time>
      </trkpt>
      <trkpt lat="42.6906950" lon="-0.5051580">
        <ele>1585.2</ele>
        <time>2023-01-14T10:57:25Z</time>
      </trkpt>
      <trkpt lat="42.6906630" lon="-0.5051590">
        <ele>1584.4</ele>
        <time>2023-01-14T10:57:26Z</time>
      </trkpt>
      <trkpt lat="42.6906410" lon="-0.5051800">
        <ele>1583.2</ele>
        <time>2023-01-14T10:57:27Z</time>
      </trkpt>
      <trkpt lat="42.6906330" lon="-0.5052200">
        <ele>1581.8</ele>
        <time>2023-01-14T10:57:28Z</time>
      </trkpt>
      <trkpt lat="42.6906370" lon="-0.5052580">
        <ele>1580.8</ele>
        <time>2023-01-14T10:57:29Z</time>
      </trkpt>
      <trkpt lat="42.6906440" lon="-0.5052920">
        <ele>1579.8</ele>
        <time>2023-01-14T10:57:30Z</time>
      </trkpt>
      <trkpt lat="42.6906470" lon="-0.5053310">
        <ele>1579.2</ele>
        <time>2023-01-14T10:57:31Z</time>
      </trkpt>
      <trkpt lat="42.6906650" lon="-0.5053650">
        <ele>1578.2</ele>
        <time>2023-01-14T10:57:32Z</time>
      </trkpt>
      <trkpt lat="42.6906950" lon="-0.5053830">
        <ele>1577.2</ele>
        <time>2023-01-14T10:57:33Z</time>
      </trkpt>
      <trkpt lat="42.6907350" lon="-0.5053930">
        <ele>1576.2</ele>
        <time>2023-01-14T10:57:34Z</time>
      </trkpt>
      <trkpt lat="42.6907790" lon="-0.5053990">
        <ele>1575.0</ele>
        <time>2023-01-14T10:57:35Z</time>
      </trkpt>
      <trkpt lat="42.6908120" lon="-0.5054090">
        <ele>1574.0</ele>
        <time>2023-01-14T10:57:36Z</time>
      </trkpt>
      <trkpt lat="42.6908360" lon="-0.5054150">
        <ele>1573.4</ele>
        <time>2023-01-14T10:57:37Z</time>
      </trkpt>
      <trkpt lat="42.6908480" lon="-0.5054290">
        <ele>1572.2</ele>
        <time>2023-01-14T10:57:38Z</time>
      </trkpt>
      <trkpt lat="42.6908420" lon="-0.5054530">
        <ele>1571.0</ele>
        <time>2023-01-14T10:57:39Z</time>
      </trkpt>
      <trkpt lat="42.6908300" lon="-0.5054820">
        <ele>1570.2</ele>
        <time>2023-01-14T10:57:40Z</time>
      </trkpt>
      <trkpt lat="42.6908150" lon="-0.5055070">
        <ele>1569.6</ele>
        <time>2023-01-14T10:57:41Z</time>
      </trkpt>
      <trkpt lat="42.6907990" lon="-0.5055220">
        <ele>1569.2</ele>
        <time>2023-01-14T10:57:42Z</time>
      </trkpt>
      <trkpt lat="42.6907850" lon="-0.5055460">
        <ele>1568.4</ele>
        <time>2023-01-14T10:57:43Z</time>
      </trkpt>
      <trkpt lat="42.6907750" lon="-0.5055730">
        <ele>1567.8</ele>
        <time>2023-01-14T10:57:44Z</time>
      </trkpt>
      <trkpt lat="42.6907760" lon="-0.5055980">
        <ele>1566.6</ele>
        <time>2023-01-14T10:57:45Z</time>
      </trkpt>
      <trkpt lat="42.6907910" lon="-0.5056220">
        <ele>1566.2</ele>
        <time>2023-01-14T10:57:46Z</time>
      </trkpt>
      <trkpt lat="42.6908070" lon="-0.5056500">
        <ele>1564.8</ele>
        <time>2023-01-14T10:57:47Z</time>
      </trkpt>
      <trkpt lat="42.6908210" lon="-0.5056720">
        <ele>1563.8</ele>
        <time>2023-01-14T10:57:48Z</time>
      </trkpt>
      <trkpt lat="42.6908240" lon="-0.5056920">
        <ele>1562.6</ele>
        <time>2023-01-14T10:57:49Z</time>
      </trkpt>
      <trkpt lat="42.6908300" lon="-0.5057190">
        <ele>1561.4</ele>
        <time>2023-01-14T10:57:50Z</time>
      </trkpt>
      <trkpt lat="42.6908410" lon="-0.5057390">
        <ele>1560.2</ele>
        <time>2023-01-14T10:57:51Z</time>
      </trkpt>
      <trkpt lat="42.6908450" lon="-0.5057640">
        <ele>1559.0</ele>
        <time>2023-01-14T10:57:52Z</time>
      </trkpt>
      <trkpt lat="42.6908470" lon="-0.5057940">
        <ele>1558.4</ele>
        <time>2023-01-14T10:57:53Z</time>
      </trkpt>
      <trkpt lat="42.6908540" lon="-0.5058320">
        <ele>1557.4</ele>
        <time>2023-01-14T10:57:54Z</time>
      </trkpt>
      <trkpt lat="42.6908640" lon="-0.5058620">
        <ele>1556.8</ele>
        <time>2023-01-14T10:57:55Z</time>
      </trkpt>
      <trkpt lat="42.6908830" lon="-0.5058980">
        <ele>1555.2</ele>
        <time>2023-01-14T10:57:56Z</time>
      </trkpt>
      <trkpt lat="42.6908880" lon="-0.5059640">
        <ele>1554.4</ele>
        <time>2023-01-14T10:57:57Z</time>
      </trkpt>
      <trkpt lat="42.6909060" lon="-0.5059930">
        <ele>1553.6</ele>
        <time>2023-01-14T10:57:58Z</time>
      </trkpt>
      <trkpt lat="42.6909220" lon="-0.5060120">
        <ele>1552.4</ele>
        <time>2023-01-14T10:57:59Z</time>
      </trkpt>
      <trkpt lat="42.6909350" lon="-0.5060340">
        <ele>1550.8</ele>
        <time>2023-01-14T10:58:00Z</time>
      </trkpt>
      <trkpt lat="42.6909410" lon="-0.5060740">
        <ele>1550.0</ele>
        <time>2023-01-14T10:58:01Z</time>
      </trkpt>
      <trkpt lat="42.6909380" lon="-0.5061190">
        <ele>1549.2</ele>
        <time>2023-01-14T10:58:02Z</time>
      </trkpt>
      <trkpt lat="42.6909470" lon="-0.5061600">
        <ele>1548.2</ele>
        <time>2023-01-14T10:58:03Z</time>
      </trkpt>
      <trkpt lat="42.6909680" lon="-0.5061840">
        <ele>1547.6</ele>
        <time>2023-01-14T10:58:04Z</time>
      </trkpt>
      <trkpt lat="42.6909820" lon="-0.5062110">
        <ele>1546.6</ele>
        <time>2023-01-14T10:58:05Z</time>
      </trkpt>
      <trkpt lat="42.6909940" lon="-0.5062240">
        <ele>1545.6</ele>
        <time>2023-01-14T10:58:06Z</time>
      </trkpt>
      <trkpt lat="42.6910140" lon="-0.5062320">
        <ele>1545.0</ele>
        <time>2023-01-14T10:58:07Z</time>
      </trkpt>
      <trkpt lat="42.6910390" lon="-0.5062390">
        <ele>1544.2</ele>
        <time>2023-01-14T10:58:08Z</time>
      </trkpt>
      <trkpt lat="42.6910640" lon="-0.5062430">
        <ele>1542.8</ele>
        <time>2023-01-14T10:58:09Z</time>
      </trkpt>
      <trkpt lat="42.6910880" lon="-0.5062450">
        <ele>1541.8</ele>
        <time>2023-01-14T10:58:10Z</time>
      </trkpt>
      <trkpt lat="42.6911180" lon="-0.5062440">
        <ele>1540.2</ele>
        <time>2023-01-14T10:58:11Z</time>
      </trkpt>
      <trkpt lat="42.6911430" lon="-0.5062350">
        <ele>1539.0</ele>
        <time>2023-01-14T10:58:12Z</time>
      </trkpt>
      <trkpt lat="42.6911710" lon="-0.5062140">
        <ele>1537.8</ele>
        <time>2023-01-14T10:58:13Z</time>
      </trkpt>
      <trkpt lat="42.6912070" lon="-0.5061980">
        <ele>1536.4</ele>
        <time>2023-01-14T10:58:14Z</time>
      </trkpt>
      <trkpt lat="42.6912380" lon="-0.5061750">
        <ele>1534.6</ele>
        <time>2023-01-14T10:58:15Z</time>
      </trkpt>
      <trkpt lat="42.6912600" lon="-0.5061410">
        <ele>1533.8</ele>
        <time>2023-01-14T10:58:16Z</time>
      </trkpt>
      <trkpt lat="42.6912740" lon="-0.5061020">
        <ele>1533.2</ele>
        <time>2023-01-14T10:58:17Z</time>
      </trkpt>
      <trkpt lat="42.6912960" lon="-0.5060780">
        <ele>1532.8</ele>
        <time>2023-01-14T10:58:18Z</time>
      </trkpt>
      <trkpt lat="42.6913110" lon="-0.5060770">
        <ele>1531.6</ele>
        <time>2023-01-14T10:58:19Z</time>
      </trkpt>
      <trkpt lat="42.6913220" lon="-0.5060970">
        <ele>1530.2</ele>
        <time>2023-01-14T10:58:20Z</time>
      </trkpt>
      <trkpt lat="42.6913340" lon="-0.5061290">
        <ele>1528.8</ele>
        <time>2023-01-14T10:58:21Z</time>
      </trkpt>
      <trkpt lat="42.6913550" lon="-0.5061530">
        <ele>1528.2</ele>
        <time>2023-01-14T10:58:22Z</time>
      </trkpt>
      <trkpt lat="42.6913720" lon="-0.5061550">
        <ele>1527.4</ele>
        <time>2023-01-14T10:58:23Z</time>
      </trkpt>
      <trkpt lat="42.6913760" lon="-0.5061430">
        <ele>1527.0</ele>
        <time>2023-01-14T10:58:24Z</time>
      </trkpt>
      <trkpt lat="42.6913940" lon="-0.5061310">
        <ele>1526.8</ele>
        <time>2023-01-14T10:58:25Z</time>
      </trkpt>
      <trkpt lat="42.6914140" lon="-0.5061220">
        <ele>1525.2</ele>
        <time>2023-01-14T10:58:26Z</time>
      </trkpt>
      <trkpt lat="42.6914450" lon="-0.5061190">
        <ele>1524.2</ele>
        <time>2023-01-14T10:58:27Z</time>
      </trkpt>
      <trkpt lat="42.6914880" lon="-0.5061200">
        <ele>1523.4</ele>
        <time>2023-01-14T10:58:28Z</time>
      </trkpt>
      <trkpt lat="42.6915180" lon="-0.5061250">
        <ele>1523.2</ele>
        <time>2023-01-14T10:58:29Z</time>
      </trkpt>
      <trkpt lat="42.6915340" lon="-0.5061350">
        <ele>1522.8</ele>
        <time>2023-01-14T10:58:30Z</time>
      </trkpt>
      <trkpt lat="42.6915440" lon="-0.5061500">
        <ele>1521.2</ele>
        <time>2023-01-14T10:58:31Z</time>
      </trkpt>
      <trkpt lat="42.6915560" lon="-0.5061670">
        <ele>1520.0</ele>
        <time>2023-01-14T10:58:32Z</time>
      </trkpt>
      <trkpt lat="42.6915720" lon="-0.5061900">
        <ele>1519.4</ele>
        <time>2023-01-14T10:58:33Z</time>
      </trkpt>
      <trkpt lat="42.6915900" lon="-0.5062140">
        <ele>1518.4</ele>
        <time>2023-01-14T10:58:34Z</time>
      </trkpt>
      <trkpt lat="42.6916060" lon="-0.5062420">
        <ele>1517.0</ele>
        <time>2023-01-14T10:58:35Z</time>
      </trkpt>
      <trkpt lat="42.6916260" lon="-0.5062790">
        <ele>1515.8</ele>
        <time>2023-01-14T10:58:36Z</time>
      </trkpt>
      <trkpt lat="42.6916510" lon="-0.5062940">
        <ele>1515.0</ele>
        <time>2023-01-14T10:58:37Z</time>
      </trkpt>
      <trkpt lat="42.6916760" lon="-0.5063020">
        <ele>1513.2</ele>
        <time>2023-01-14T10:58:38Z</time>
      </trkpt>
      <trkpt lat="42.6916970" lon="-0.5063030">
        <ele>1511.6</ele>
        <time>2023-01-14T10:58:39Z</time>
      </trkpt>
      <trkpt lat="42.6917140" lon="-0.5063150">
        <ele>1510.4</ele>
        <time>2023-01-14T10:58:40Z</time>
      </trkpt>
      <trkpt lat="42.6917400" lon="-0.5063140">
        <ele>1509.6</ele>
        <time>2023-01-14T10:58:41Z</time>
      </trkpt>
      <trkpt lat="42.6917610" lon="-0.5063150">
        <ele>1507.8</ele>
        <time>2023-01-14T10:58:42Z</time>
      </trkpt>
      <trkpt lat="42.6917710" lon="-0.5063290">
        <ele>1506.8</ele>
        <time>2023-01-14T10:58:43Z</time>
      </trkpt>
      <trkpt lat="42.6917720" lon="-0.5063480">
        <ele>1506.2</ele>
        <time>2023-01-14T10:58:44Z</time>
      </trkpt>
      <trkpt lat="42.6917720" lon="-0.5063790">
        <ele>1505.6</ele>
        <time>2023-01-14T10:58:45Z</time>
      </trkpt>
      <trkpt lat="42.6917860" lon="-0.5064120">
        <ele>1505.2</ele>
        <time>2023-01-14T10:58:46Z</time>
      </trkpt>
      <trkpt lat="42.6918000" lon="-0.5064450">
        <ele>1504.2</ele>
        <time>2023-01-14T10:58:47Z</time>
      </trkpt>
      <trkpt lat="42.6918110" lon="-0.5064610">
        <ele>1503.6</ele>
        <time>2023-01-14T10:58:48Z</time>
      </trkpt>
      <trkpt lat="42.6918260" lon="-0.5064680">
        <ele>1502.8</ele>
        <time>2023-01-14T10:58:49Z</time>
      </trkpt>
      <trkpt lat="42.6918660" lon="-0.5064550">
        <ele>1502.2</ele>
        <time>2023-01-14T10:58:50Z</time>
      </trkpt>
      <trkpt lat="42.6919060" lon="-0.5064380">
        <ele>1501.4</ele>
        <time>2023-01-14T10:58:51Z</time>
      </trkpt>
      <trkpt lat="42.6919370" lon="-0.5064330">
        <ele>1500.0</ele>
        <time>2023-01-14T10:58:52Z</time>
      </trkpt>
      <trkpt lat="42.6919680" lon="-0.5064440">
        <ele>1498.6</ele>
        <time>2023-01-14T10:58:53Z</time>
      </trkpt>
      <trkpt lat="42.6919980" lon="-0.5064620">
        <ele>1497.4</ele>
        <time>2023-01-14T10:58:54Z</time>
      </trkpt>
      <trkpt lat="42.6920300" lon="-0.5064740">
        <ele>1496.4</ele>
        <time>2023-01-14T10:58:55Z</time>
      </trkpt>
      <trkpt lat="42.6920600" lon="-0.5064790">
        <ele>1495.6</ele>
        <time>2023-01-14T10:58:56Z</time>
      </trkpt>
      <trkpt lat="42.6920770" lon="-0.5064800">
        <ele>1494.4</ele>
        <time>2023-01-14T10:58:57Z</time>
      </trkpt>
      <trkpt lat="42.6920740" lon="-0.5064890">
        <ele>1492.8</ele>
        <time>2023-01-14T10:58:58Z</time>
      </trkpt>
      <trkpt lat="42.6920680" lon="-0.5065060">
        <ele>1492.2</ele>
        <time>2023-01-14T10:58:59Z</time>
      </trkpt>
      <trkpt lat="42.6920490" lon="-0.5065260">
        <ele>1491.6</ele>
        <time>2023-01-14T10:59:00Z</time>
      </trkpt>
      <trkpt lat="42.6920370" lon="-0.5065520">
        <ele>1491.4</ele>
        <time>2023-01-14T10:59:01Z</time>
      </trkpt>
      <trkpt lat="42.6920390" lon="-0.5065680">
        <ele>1490.6</ele>
        <time>2023-01-14T10:59:02Z</time>
      </trkpt>
      <trkpt lat="42.6920460" lon="-0.5065800">
        <ele>1490.0</ele>
        <time>2023-01-14T10:59:03Z</time>
      </trkpt>
      <trkpt lat="42.6920610" lon="-0.5065910">
        <ele>1489.6</ele>
        <time>2023-01-14T10:59:04Z</time>
      </trkpt>
      <trkpt lat="42.6920810" lon="-0.5066070">
        <ele>1488.8</ele>
        <time>2023-01-14T10:59:05Z</time>
      </trkpt>
      <trkpt lat="42.6920870" lon="-0.5066360">
        <ele>1488.2</ele>
        <time>2023-01-14T10:59:06Z</time>
      </trkpt>
      <trkpt lat="42.6921240" lon="-0.5066600">
        <ele>1487.8</ele>
        <time>2023-01-14T10:59:07Z</time>
      </trkpt>
      <trkpt lat="42.6921550" lon="-0.5066780">
        <ele>1486.0</ele>
        <time>2023-01-14T10:59:08Z</time>
      </trkpt>
      <trkpt lat="42.6921670" lon="-0.5066850">
        <ele>1484.2</ele>
        <time>2023-01-14T10:59:09Z</time>
      </trkpt>
      <trkpt lat="42.6922000" lon="-0.5066790">
        <ele>1482.4</ele>
        <time>2023-01-14T10:59:10Z</time>
      </trkpt>
      <trkpt lat="42.6922330" lon="-0.5066750">
        <ele>1481.4</ele>
        <time>2023-01-14T10:59:11Z</time>
      </trkpt>
      <trkpt lat="42.6922680" lon="-0.5066600">
        <ele>1480.0</ele>
        <time>2023-01-14T10:59:12Z</time>
      </trkpt>
      <trkpt lat="42.6922830" lon="-0.5066250">
        <ele>1478.6</ele>
        <time>2023-01-14T10:59:13Z</time>
      </trkpt>
      <trkpt lat="42.6923040" lon="-0.5066020">
        <ele>1477.8</ele>
        <time>2023-01-14T10:59:14Z</time>
      </trkpt>
      <trkpt lat="42.6923270" lon="-0.5066130">
        <ele>1475.8</ele>
        <time>2023-01-14T10:59:15Z</time>
      </trkpt>
      <trkpt lat="42.6923350" lon="-0.5066530">
        <ele>1475.0</ele>
        <time>2023-01-14T10:59:16Z</time>
      </trkpt>
      <trkpt lat="42.6923410" lon="-0.5067050">
        <ele>1474.2</ele>
        <time>2023-01-14T10:59:17Z</time>
      </trkpt>
      <trkpt lat="42.6923470" lon="-0.5067640">
        <ele>1473.4</ele>
        <time>2023-01-14T10:59:18Z</time>
      </trkpt>
      <trkpt lat="42.6923510" lon="-0.5068170">
        <ele>1472.4</ele>
        <time>2023-01-14T10:59:19Z</time>
      </trkpt>
      <trkpt lat="42.6923610" lon="-0.5068730">
        <ele>1471.8</ele>
        <time>2023-01-14T10:59:20Z</time>
      </trkpt>
      <trkpt lat="42.6923700" lon="-0.5069180">
        <ele>1470.6</ele>
        <time>2023-01-14T10:59:21Z</time>
      </trkpt>
      <trkpt lat="42.6923940" lon="-0.5069390">
        <ele>1469.4</ele>
        <time>2023-01-14T10:59:22Z</time>
      </trkpt>
      <trkpt lat="42.6924300" lon="-0.5069390">
        <ele>1468.2</ele>
        <time>2023-01-14T10:59:23Z</time>
      </trkpt>
      <trkpt lat="42.6924690" lon="-0.5069530">
        <ele>1467.0</ele>
        <time>2023-01-14T10:59:24Z</time>
      </trkpt>
      <trkpt lat="42.6925140" lon="-0.5069630">
        <ele>1466.2</ele>
        <time>2023-01-14T10:59:25Z</time>
      </trkpt>
      <trkpt lat="42.6925380" lon="-0.5069780">
        <ele>1465.4</ele>
        <time>2023-01-14T10:59:26Z</time>
      </trkpt>
      <trkpt lat="42.6925460" lon="-0.5070060">
        <ele>1464.8</ele>
        <time>2023-01-14T10:59:27Z</time>
      </trkpt>
      <trkpt lat="42.6925540" lon="-0.5070330">
        <ele>1464.2</ele>
        <time>2023-01-14T10:59:28Z</time>
      </trkpt>
      <trkpt lat="42.6925710" lon="-0.5070650">
        <ele>1464.0</ele>
        <time>2023-01-14T10:59:29Z</time>
      </trkpt>
      <trkpt lat="42.6925970" lon="-0.5071240">
        <ele>1463.6</ele>
        <time>2023-01-14T10:59:30Z</time>
      </trkpt>
      <trkpt lat="42.6926290" lon="-0.5071920">
        <ele>1462.8</ele>
        <time>2023-01-14T10:59:31Z</time>
      </trkpt>
      <trkpt lat="42.6926710" lon="-0.5072740">
        <ele>1462.4</ele>
        <time>2023-01-14T10:59:32Z</time>
      </trkpt>
      <trkpt lat="42.6927000" lon="-0.5073420">
        <ele>1462.0</ele>
        <time>2023-01-14T10:59:33Z</time>
      </trkpt>
      <trkpt lat="42.6927160" lon="-0.5074000">
        <ele>1459.6</ele>
        <time>2023-01-14T10:59:34Z</time>
      </trkpt>
      <trkpt lat="42.6927210" lon="-0.5074650">
        <ele>1458.4</ele>
        <time>2023-01-14T10:59:35Z</time>
      </trkpt>
      <trkpt lat="42.6927210" lon="-0.5075170">
        <ele>1456.8</ele>
        <time>2023-01-14T10:59:36Z</time>
      </trkpt>
      <trkpt lat="42.6927200" lon="-0.5075600">
        <ele>1455.2</ele>
        <time>2023-01-14T10:59:37Z</time>
      </trkpt>
      <trkpt lat="42.6927280" lon="-0.5076010">
        <ele>1453.4</ele>
        <time>2023-01-14T10:59:38Z</time>
      </trkpt>
      <trkpt lat="42.6927260" lon="-0.5076390">
        <ele>1452.2</ele>
        <time>2023-01-14T10:59:39Z</time>
      </trkpt>
      <trkpt lat="42.6927280" lon="-0.5076910">
        <ele>1450.8</ele>
        <time>2023-01-14T10:59:40Z</time>
      </trkpt>
      <trkpt lat="42.6927230" lon="-0.5077710">
        <ele>1449.6</ele>
        <time>2023-01-14T10:59:41Z</time>
      </trkpt>
      <trkpt lat="42.6927280" lon="-0.5078550">
        <ele>1448.4</ele>
        <time>2023-01-14T10:59:42Z</time>
      </trkpt>
      <trkpt lat="42.6927580" lon="-0.5079310">
        <ele>1447.0</ele>
        <time>2023-01-14T10:59:43Z</time>
      </trkpt>
      <trkpt lat="42.6927750" lon="-0.5079960">
        <ele>1445.2</ele>
        <time>2023-01-14T10:59:44Z</time>
      </trkpt>
      <trkpt lat="42.6927970" lon="-0.5080650">
        <ele>1443.4</ele>
        <time>2023-01-14T10:59:45Z</time>
      </trkpt>
      <trkpt lat="42.6928170" lon="-0.5081460">
        <ele>1442.0</ele>
        <time>2023-01-14T10:59:46Z</time>
      </trkpt>
      <trkpt lat="42.6928350" lon="-0.5082410">
        <ele>1440.4</ele>
        <time>2023-01-14T10:59:47Z</time>
      </trkpt>
      <trkpt lat="42.6928410" lon="-0.5083140">
        <ele>1439.0</ele>
        <time>2023-01-14T10:59:48Z</time>
      </trkpt>
      <trkpt lat="42.6928540" lon="-0.5083580">
        <ele>1438.0</ele>
        <time>2023-01-14T10:59:49Z</time>
      </trkpt>
      <trkpt lat="42.6928550" lon="-0.5084120">
        <ele>1437.4</ele>
        <time>2023-01-14T10:59:50Z</time>
      </trkpt>
      <trkpt lat="42.6928590" lon="-0.5084510">
        <ele>1436.6</ele>
        <time>2023-01-14T10:59:51Z</time>
      </trkpt>
      <trkpt lat="42.6928720" lon="-0.5084880">
        <ele>1436.0</ele>
        <time>2023-01-14T10:59:52Z</time>
      </trkpt>
      <trkpt lat="42.6928750" lon="-0.5085250">
        <ele>1435.4</ele>
        <time>2023-01-14T10:59:53Z</time>
      </trkpt>
      <trkpt lat="42.6928760" lon="-0.5085630">
        <ele>1434.8</ele>
        <time>2023-01-14T10:59:54Z</time>
      </trkpt>
      <trkpt lat="42.6928740" lon="-0.5086250">
        <ele>1434.4</ele>
        <time>2023-01-14T10:59:55Z</time>
      </trkpt>
      <trkpt lat="42.6928670" lon="-0.5086950">
        <ele>1434.2</ele>
        <time>2023-01-14T10:59:56Z</time>
      </trkpt>
      <trkpt lat="42.6928590" lon="-0.5087670">
        <ele>1433.4</ele>
        <time>2023-01-14T10:59:57Z</time>
      </trkpt>
      <trkpt lat="42.6928480" lon="-0.5088320">
        <ele>1433.0</ele>
        <time>2023-01-14T10:59:58Z</time>
      </trkpt>
      <trkpt lat="42.6928320" lon="-0.5088910">
        <ele>1432.6</ele>
        <time>2023-01-14T10:59:59Z</time>
      </trkpt>
      <trkpt lat="42.6928110" lon="-0.5089440">
        <ele>1432.0</ele>
        <time>2023-01-14T11:00:00Z</time>
      </trkpt>
      <trkpt lat="42.6927980" lon="-0.5089890">
        <ele>1431.6</ele>
        <time>2023-01-14T11:00:01Z</time>
      </trkpt>
      <trkpt lat="42.6927930" lon="-0.5090290">
        <ele>1430.6</ele>
        <time>2023-01-14T11:00:02Z</time>
      </trkpt>
      <trkpt lat="42.6927840" lon="-0.5090820">
        <ele>1429.8</ele>
        <time>2023-01-14T11:00:03Z</time>
      </trkpt>
      <trkpt lat="42.6927730" lon="-0.5091320">
        <ele>1429.0</ele>
        <time>2023-01-14T11:00:04Z</time>
      </trkpt>
      <trkpt lat="42.6927640" lon="-0.5092020">
        <ele>1428.6</ele>
        <time>2023-01-14T11:00:05Z</time>
      </trkpt>
      <trkpt lat="42.6927520" lon="-0.5092740">
        <ele>1426.4</ele>
        <time>2023-01-14T11:00:06Z</time>
      </trkpt>
      <trkpt lat="42.6927450" lon="-0.5093330">
        <ele>1425.4</ele>
        <time>2023-01-14T11:00:07Z</time>
      </trkpt>
      <trkpt lat="42.6927320" lon="-0.5093830">
        <ele>1424.8</ele>
        <time>2023-01-14T11:00:08Z</time>
      </trkpt>
      <trkpt lat="42.6927220" lon="-0.5094250">
        <ele>1423.2</ele>
        <time>2023-01-14T11:00:09Z</time>
      </trkpt>
      <trkpt lat="42.6927190" lon="-0.5094710">
        <ele>1422.2</ele>
        <time>2023-01-14T11:00:10Z</time>
      </trkpt>
      <trkpt lat="42.6927210" lon="-0.5095160">
        <ele>1421.4</ele>
        <time>2023-01-14T11:00:11Z</time>
      </trkpt>
      <trkpt lat="42.6927260" lon="-0.5095730">
        <ele>1420.8</ele>
        <time>2023-01-14T11:00:12Z</time>
      </trkpt>
      <trkpt lat="42.6927290" lon="-0.5096330">
        <ele>1420.4</ele>
        <time>2023-01-14T11:00:13Z</time>
      </trkpt>
      <trkpt lat="42.6927200" lon="-0.5097060">
        <ele>1420.0</ele>
        <time>2023-01-14T11:00:14Z</time>
      </trkpt>
      <trkpt lat="42.6927090" lon="-0.5097650">
        <ele>1419.6</ele>
        <time>2023-01-14T11:00:15Z</time>
      </trkpt>
      <trkpt lat="42.6926960" lon="-0.5098240">
        <ele>1419.0</ele>
        <time>2023-01-14T11:00:16Z</time>
      </trkpt>
      <trkpt lat="42.6926840" lon="-0.5098760">
        <ele>1418.6</ele>
        <time>2023-01-14T11:00:17Z</time>
      </trkpt>
      <trkpt lat="42.6926680" lon="-0.5099280">
        <ele>1418.2</ele>
        <time>2023-01-14T11:00:18Z</time>
      </trkpt>
      <trkpt lat="42.6926520" lon="-0.5099780">
        <ele>1417.6</ele>
        <time>2023-01-14T11:00:19Z</time>
      </trkpt>
      <trkpt lat="42.6926300" lon="-0.5100400">
        <ele>1417.0</ele>
        <time>2023-01-14T11:00:20Z</time>
      </trkpt>
      <trkpt lat="42.6926090" lon="-0.5101010">
        <ele>1416.6</ele>
        <time>2023-01-14T11:00:21Z</time>
      </trkpt>
      <trkpt lat="42.6925860" lon="-0.5101600">
        <ele>1416.2</ele>
        <time>2023-01-14T11:00:22Z</time>
      </trkpt>
      <trkpt lat="42.6925670" lon="-0.5102310">
        <ele>1416.0</ele>
        <time>2023-01-14T11:00:23Z</time>
      </trkpt>
      <trkpt lat="42.6925510" lon="-0.5103040">
        <ele>1415.2</ele>
        <time>2023-01-14T11:00:24Z</time>
      </trkpt>
      <trkpt lat="42.6925370" lon="-0.5103860">
        <ele>1414.4</ele>
        <time>2023-01-14T11:00:25Z</time>
      </trkpt>
      <trkpt lat="42.6925170" lon="-0.5104700">
        <ele>1413.8</ele>
        <time>2023-01-14T11:00:26Z</time>
      </trkpt>
      <trkpt lat="42.6924990" lon="-0.5105430">
        <ele>1413.2</ele>
        <time>2023-01-14T11:00:27Z</time>
      </trkpt>
      <trkpt lat="42.6924790" lon="-0.5106250">
        <ele>1412.8</ele>
        <time>2023-01-14T11:00:28Z</time>
      </trkpt>
      <trkpt lat="42.6924520" lon="-0.5107170">
        <ele>1412.4</ele>
        <time>2023-01-14T11:00:29Z</time>
      </trkpt>
      <trkpt lat="42.6924210" lon="-0.5107930">
        <ele>1411.6</ele>
        <time>2023-01-14T11:00:30Z</time>
      </trkpt>
      <trkpt lat="42.6923930" lon="-0.5108700">
        <ele>1410.4</ele>
        <time>2023-01-14T11:00:31Z</time>
      </trkpt>
      <trkpt lat="42.6923550" lon="-0.5109380">
        <ele>1409.6</ele>
        <time>2023-01-14T11:00:32Z</time>
      </trkpt>
      <trkpt lat="42.6923330" lon="-0.5109780">
        <ele>1408.8</ele>
        <time>2023-01-14T11:00:33Z</time>
      </trkpt>
      <trkpt lat="42.6923190" lon="-0.5110130">
        <ele>1408.2</ele>
        <time>2023-01-14T11:00:34Z</time>
      </trkpt>
      <trkpt lat="42.6923110" lon="-0.5110490">
        <ele>1407.8</ele>
        <time>2023-01-14T11:00:35Z</time>
      </trkpt>
      <trkpt lat="42.6922980" lon="-0.5110850">
        <ele>1407.4</ele>
        <time>2023-01-14T11:00:36Z</time>
      </trkpt>
      <trkpt lat="42.6922750" lon="-0.5111330">
        <ele>1407.0</ele>
        <time>2023-01-14T11:00:37Z</time>
      </trkpt>
      <trkpt lat="42.6922450" lon="-0.5111870">
        <ele>1406.8</ele>
        <time>2023-01-14T11:00:38Z</time>
      </trkpt>
      <trkpt lat="42.6922160" lon="-0.5112460">
        <ele>1406.0</ele>
        <time>2023-01-14T11:00:39Z</time>
      </trkpt>
      <trkpt lat="42.6921790" lon="-0.5113050">
        <ele>1405.2</ele>
        <time>2023-01-14T11:00:40Z</time>
      </trkpt>
      <trkpt lat="42.6921420" lon="-0.5113580">
        <ele>1404.4</ele>
        <time>2023-01-14T11:00:41Z</time>
      </trkpt>
      <trkpt lat="42.6921160" lon="-0.5114100">
        <ele>1404.0</ele>
        <time>2023-01-14T11:00:42Z</time>
      </trkpt>
      <trkpt lat="42.6920880" lon="-0.5114700">
        <ele>1403.4</ele>
        <time>2023-01-14T11:00:43Z</time>
      </trkpt>
      <trkpt lat="42.6920540" lon="-0.5115240">
        <ele>1402.6</ele>
        <time>2023-01-14T11:00:44Z</time>
      </trkpt>
      <trkpt lat="42.6920280" lon="-0.5115780">
        <ele>1402.2</ele>
        <time>2023-01-14T11:00:45Z</time>
      </trkpt>
      <trkpt lat="42.6920190" lon="-0.5116370">
        <ele>1401.8</ele>
        <time>2023-01-14T11:00:46Z</time>
      </trkpt>
      <trkpt lat="42.6920110" lon="-0.5117050">
        <ele>1400.4</ele>
        <time>2023-01-14T11:00:47Z</time>
      </trkpt>
      <trkpt lat="42.6920060" lon="-0.5117780">
        <ele>1399.4</ele>
        <time>2023-01-14T11:00:48Z</time>
      </trkpt>
      <trkpt lat="42.6919980" lon="-0.5118660">
        <ele>1398.8</ele>
        <time>2023-01-14T11:00:49Z</time>
      </trkpt>
      <trkpt lat="42.6919860" lon="-0.5119450">
        <ele>1398.0</ele>
        <time>2023-01-14T11:00:50Z</time>
      </trkpt>
      <trkpt lat="42.6919890" lon="-0.5120170">
        <ele>1396.6</ele>
        <time>2023-01-14T11:00:51Z</time>
      </trkpt>
      <trkpt lat="42.6919850" lon="-0.5120990">
        <ele>1395.6</ele>
        <time>2023-01-14T11:00:52Z</time>
      </trkpt>
      <trkpt lat="42.6919890" lon="-0.5121850">
        <ele>1395.2</ele>
        <time>2023-01-14T11:00:53Z</time>
      </trkpt>
      <trkpt lat="42.6919870" lon="-0.5122770">
        <ele>1394.2</ele>
        <time>2023-01-14T11:00:54Z</time>
      </trkpt>
      <trkpt lat="42.6919880" lon="-0.5123720">
        <ele>1393.8</ele>
        <time>2023-01-14T11:00:55Z</time>
      </trkpt>
      <trkpt lat="42.6919970" lon="-0.5124740">
        <ele>1393.6</ele>
        <time>2023-01-14T11:00:56Z</time>
      </trkpt>
      <trkpt lat="42.6920070" lon="-0.5125750">
        <ele>1393.4</ele>
        <time>2023-01-14T11:00:57Z</time>
      </trkpt>
      <trkpt lat="42.6920170" lon="-0.5126570">
        <ele>1393.2</ele>
        <time>2023-01-14T11:00:58Z</time>
      </trkpt>
      <trkpt lat="42.6920280" lon="-0.5127220">
        <ele>1393.0</ele>
        <time>2023-01-14T11:00:59Z</time>
      </trkpt>
      <trkpt lat="42.6920390" lon="-0.5127810">
        <ele>1392.8</ele>
        <time>2023-01-14T11:01:00Z</time>
      </trkpt>
      <trkpt lat="42.6920380" lon="-0.5128510">
        <ele>1392.4</ele>
        <time>2023-01-14T11:01:01Z</time>
      </trkpt>
      <trkpt lat="42.6920360" lon="-0.5129250">
        <ele>1391.8</ele>
        <time>2023-01-14T11:01:02Z</time>
      </trkpt>
      <trkpt lat="42.6920080" lon="-0.5130050">
        <ele>1391.4</ele>
        <time>2023-01-14T11:01:03Z</time>
      </trkpt>
      <trkpt lat="42.6919610" lon="-0.5130820">
        <ele>1390.6</ele>
        <time>2023-01-14T11:01:04Z</time>
      </trkpt>
      <trkpt lat="42.6919070" lon="-0.5131440">
        <ele>1390.0</ele>
        <time>2023-01-14T11:01:05Z</time>
      </trkpt>
      <trkpt lat="42.6918550" lon="-0.5131930">
        <ele>1388.8</ele>
        <time>2023-01-14T11:01:06Z</time>
      </trkpt>
      <trkpt lat="42.6918190" lon="-0.5132280">
        <ele>1387.8</ele>
        <time>2023-01-14T11:01:07Z</time>
      </trkpt>
      <trkpt lat="42.6917810" lon="-0.5132600">
        <ele>1386.8</ele>
        <time>2023-01-14T11:01:08Z</time>
      </trkpt>
      <trkpt lat="42.6917390" lon="-0.5132940">
        <ele>1385.6</ele>
        <time>2023-01-14T11:01:09Z</time>
      </trkpt>
      <trkpt lat="42.6917010" lon="-0.5133240">
        <ele>1384.0</ele>
        <time>2023-01-14T11:01:10Z</time>
      </trkpt>
      <trkpt lat="42.6916610" lon="-0.5133650">
        <ele>1383.2</ele>
        <time>2023-01-14T11:01:11Z</time>
      </trkpt>
      <trkpt lat="42.6916240" lon="-0.5134160">
        <ele>1381.6</ele>
        <time>2023-01-14T11:01:12Z</time>
      </trkpt>
      <trkpt lat="42.6916010" lon="-0.5134640">
        <ele>1380.6</ele>
        <time>2023-01-14T11:01:13Z</time>
      </trkpt>
      <trkpt lat="42.6915830" lon="-0.5135120">
        <ele>1379.8</ele>
        <time>2023-01-14T11:01:14Z</time>
      </trkpt>
      <trkpt lat="42.6915720" lon="-0.5135650">
        <ele>1378.6</ele>
        <time>2023-01-14T11:01:15Z</time>
      </trkpt>
      <trkpt lat="42.6915680" lon="-0.5136150">
        <ele>1377.6</ele>
        <time>2023-01-14T11:01:16Z</time>
      </trkpt>
      <trkpt lat="42.6915590" lon="-0.5136630">
        <ele>1377.0</ele>
        <time>2023-01-14T11:01:17Z</time>
      </trkpt>
      <trkpt lat="42.6915490" lon="-0.5137090">
        <ele>1376.2</ele>
        <time>2023-01-14T11:01:18Z</time>
      </trkpt>
      <trkpt lat="42.6915440" lon="-0.5137530">
        <ele>1375.8</ele>
        <time>2023-01-14T11:01:19Z</time>
      </trkpt>
      <trkpt lat="42.6915430" lon="-0.5137930">
        <ele>1375.2</ele>
        <time>2023-01-14T11:01:20Z</time>
      </trkpt>
      <trkpt lat="42.6915360" lon="-0.5138320">
        <ele>1374.6</ele>
        <time>2023-01-14T11:01:21Z</time>
      </trkpt>
      <trkpt lat="42.6915170" lon="-0.5138710">
        <ele>1374.2</ele>
        <time>2023-01-14T11:01:22Z</time>
      </trkpt>
      <trkpt lat="42.6914920" lon="-0.5139070">
        <ele>1373.0</ele>
        <time>2023-01-14T11:01:23Z</time>
      </trkpt>
      <trkpt lat="42.6914710" lon="-0.5139430">
        <ele>1372.0</ele>
        <time>2023-01-14T11:01:24Z</time>
      </trkpt>
      <trkpt lat="42.6914430" lon="-0.5139790">
        <ele>1371.2</ele>
        <time>2023-01-14T11:01:25Z</time>
      </trkpt>
      <trkpt lat="42.6914070" lon="-0.5140150">
        <ele>1370.2</ele>
        <time>2023-01-14T11:01:26Z</time>
      </trkpt>
      <trkpt lat="42.6913570" lon="-0.5140620">
        <ele>1369.2</ele>
        <time>2023-01-14T11:01:27Z</time>
      </trkpt>
      <trkpt lat="42.6913020" lon="-0.5141120">
        <ele>1368.6</ele>
        <time>2023-01-14T11:01:28Z</time>
      </trkpt>
      <trkpt lat="42.6912620" lon="-0.5141730">
        <ele>1367.0</ele>
        <time>2023-01-14T11:01:29Z</time>
      </trkpt>
      <trkpt lat="42.6912380" lon="-0.5142390">
        <ele>1364.8</ele>
        <time>2023-01-14T11:01:30Z</time>
      </trkpt>
      <trkpt lat="42.6912180" lon="-0.5143070">
        <ele>1363.6</ele>
        <time>2023-01-14T11:01:31Z</time>
      </trkpt>
      <trkpt lat="42.6912040" lon="-0.5143610">
        <ele>1362.8</ele>
        <time>2023-01-14T11:01:32Z</time>
      </trkpt>
      <trkpt lat="42.6911910" lon="-0.5144110">
        <ele>1362.2</ele>
        <time>2023-01-14T11:01:33Z</time>
      </trkpt>
      <trkpt lat="42.6911680" lon="-0.5144560">
        <ele>1361.0</ele>
        <time>2023-01-14T11:01:34Z</time>
      </trkpt>
      <trkpt lat="42.6911520" lon="-0.5144720">
        <ele>1360.2</ele>
        <time>2023-01-14T11:01:35Z</time>
      </trkpt>
      <trkpt lat="42.6911370" lon="-0.5144640">
        <ele>1359.6</ele>
        <time>2023-01-14T11:01:36Z</time>
      </trkpt>
      <trkpt lat="42.6911230" lon="-0.5144350">
        <ele>1359.2</ele>
        <time>2023-01-14T11:01:37Z</time>
      </trkpt>
      <trkpt lat="42.6911140" lon="-0.5143960">
        <ele>1358.8</ele>
        <time>2023-01-14T11:01:38Z</time>
      </trkpt>
      <trkpt lat="42.6911180" lon="-0.5143590">
        <ele>1358.8</ele>
        <time>2023-01-14T11:01:39Z</time>
      </trkpt>
      <trkpt lat="42.6911240" lon="-0.5143180">
        <ele>1358.6</ele>
        <time>2023-01-14T11:01:40Z</time>
      </trkpt>
      <trkpt lat="42.6911280" lon="-0.5142760">
        <ele>1359.2</ele>
        <time>2023-01-14T11:01:41Z</time>
      </trkpt>
      <trkpt lat="42.6911330" lon="-0.5142320">
        <ele>1359.4</ele>
        <time>2023-01-14T11:01:42Z</time>
      </trkpt>
      <trkpt lat="42.6911340" lon="-0.5141870">
        <ele>1360.2</ele>
        <time>2023-01-14T11:01:43Z</time>
      </trkpt>
      <trkpt lat="42.6911340" lon="-0.5141430">
        <ele>1360.4</ele>
        <time>2023-01-14T11:01:44Z</time>
      </trkpt>
      <trkpt lat="42.6911360" lon="-0.5140990">
        <ele>1360.8</ele>
        <time>2023-01-14T11:01:45Z</time>
      </trkpt>
      <trkpt lat="42.6911410" lon="-0.5140580">
        <ele>1361.2</ele>
        <time>2023-01-14T11:01:46Z</time>
      </trkpt>
      <trkpt lat="42.6911430" lon="-0.5140140">
        <ele>1361.4</ele>
        <time>2023-01-14T11:01:47Z</time>
      </trkpt>
      <trkpt lat="42.6911450" lon="-0.5139760">
        <ele>1361.6</ele>
        <time>2023-01-14T11:01:48Z</time>
      </trkpt>
      <trkpt lat="42.6911490" lon="-0.5139370">
        <ele>1362.0</ele>
        <time>2023-01-14T11:01:49Z</time>
      </trkpt>
      <trkpt lat="42.6911550" lon="-0.5138980">
        <ele>1362.4</ele>
        <time>2023-01-14T11:01:50Z</time>
      </trkpt>
      <trkpt lat="42.6911580" lon="-0.5138590">
        <ele>1362.8</ele>
        <time>2023-01-14T11:01:51Z</time>
      </trkpt>
      <trkpt lat="42.6911650" lon="-0.5138120">
        <ele>1363.2</ele>
        <time>2023-01-14T11:01:52Z</time>
      </trkpt>
      <trkpt lat="42.6911620" lon="-0.5137670">
        <ele>1363.4</ele>
        <time>2023-01-14T11:01:53Z</time>
      </trkpt>
      <trkpt lat="42.6911700" lon="-0.5137160">
        <ele>1363.6</ele>
        <time>2023-01-14T11:01:54Z</time>
      </trkpt>
      <trkpt lat="42.6911800" lon="-0.5136660">
        <ele>1364.0</ele>
        <time>2023-01-14T11:01:55Z</time>
      </trkpt>
      <trkpt lat="42.6911930" lon="-0.5136230">
        <ele>1364.6</ele>
        <time>2023-01-14T11:01:56Z</time>
      </trkpt>
      <trkpt lat="42.6912050" lon="-0.5135790">
        <ele>1365.2</ele>
        <time>2023-01-14T11:01:57Z</time>
      </trkpt>
      <trkpt lat="42.6912180" lon="-0.5135350">
        <ele>1365.8</ele>
        <time>2023-01-14T11:01:58Z</time>
      </trkpt>
      <trkpt lat="42.6912290" lon="-0.5134960">
        <ele>1366.2</ele>
        <time>2023-01-14T11:01:59Z</time>
      </trkpt>
      <trkpt lat="42.6912390" lon="-0.5134640">
        <ele>1366.2</ele>
        <time>2023-01-14T11:02:00Z</time>
      </trkpt>
      <trkpt lat="42.6912470" lon="-0.5134350">
        <ele>1366.4</ele>
        <time>2023-01-14T11:02:01Z</time>
      </trkpt>
      <trkpt lat="42.6912630" lon="-0.5133970">
        <ele>1366.6</ele>
        <time>2023-01-14T11:02:02Z</time>
      </trkpt>
      <trkpt lat="42.6912840" lon="-0.5133560">
        <ele>1366.8</ele>
        <time>2023-01-14T11:02:03Z</time>
      </trkpt>
      <trkpt lat="42.6913080" lon="-0.5133110">
        <ele>1367.0</ele>
        <time>2023-01-14T11:02:04Z</time>
      </trkpt>
      <trkpt lat="42.6913290" lon="-0.5132660">
        <ele>1367.6</ele>
        <time>2023-01-14T11:02:05Z</time>
      </trkpt>
      <trkpt lat="42.6913490" lon="-0.5132190">
        <ele>1368.0</ele>
        <time>2023-01-14T11:02:06Z</time>
      </trkpt>
      <trkpt lat="42.6913700" lon="-0.5131710">
        <ele>1368.2</ele>
        <time>2023-01-14T11:02:07Z</time>
      </trkpt>
      <trkpt lat="42.6913910" lon="-0.5131260">
        <ele>1368.4</ele>
        <time>2023-01-14T11:02:08Z</time>
      </trkpt>
      <trkpt lat="42.6914120" lon="-0.5130840">
        <ele>1368.8</ele>
        <time>2023-01-14T11:02:09Z</time>
      </trkpt>
      <trkpt lat="42.6914270" lon="-0.5130390">
        <ele>1369.0</ele>
        <time>2023-01-14T11:02:10Z</time>
      </trkpt>
      <trkpt lat="42.6914380" lon="-0.5129920">
        <ele>1369.6</ele>
        <time>2023-01-14T11:02:11Z</time>
      </trkpt>
      <trkpt lat="42.6914480" lon="-0.5129440">
        <ele>1370.0</ele>
        <time>2023-01-14T11:02:12Z</time>
      </trkpt>
      <trkpt lat="42.6914550" lon="-0.5128960">
        <ele>1370.2</ele>
        <time>2023-01-14T11:02:13Z</time>
      </trkpt>
      <trkpt lat="42.6914610" lon="-0.5128460">
        <ele>1370.4</ele>
        <time>2023-01-14T11:02:14Z</time>
      </trkpt>
      <trkpt lat="42.6914650" lon="-0.5127940">
        <ele>1370.6</ele>
        <time>2023-01-14T11:02:15Z</time>
      </trkpt>
      <trkpt lat="42.6914690" lon="-0.5127420">
        <ele>1370.8</ele>
        <time>2023-01-14T11:02:16Z</time>
      </trkpt>
      <trkpt lat="42.6914710" lon="-0.5126900">
        <ele>1371.2</ele>
        <time>2023-01-14T11:02:17Z</time>
      </trkpt>
      <trkpt lat="42.6914690" lon="-0.5126390">
        <ele>1371.6</ele>
        <time>2023-01-14T11:02:18Z</time>
      </trkpt>
      <trkpt lat="42.6914680" lon="-0.5125890">
        <ele>1372.0</ele>
        <time>2023-01-14T11:02:19Z</time>
      </trkpt>
      <trkpt lat="42.6914660" lon="-0.5125410">
        <ele>1372.4</ele>
        <time>2023-01-14T11:02:20Z</time>
      </trkpt>
      <trkpt lat="42.6914630" lon="-0.5124920">
        <ele>1372.8</ele>
        <time>2023-01-14T11:02:21Z</time>
      </trkpt>
      <trkpt lat="42.6914600" lon="-0.5124450">
        <ele>1372.8</ele>
        <time>2023-01-14T11:02:22Z</time>
      </trkpt>
      <trkpt lat="42.6914550" lon="-0.5123960">
        <ele>1373.4</ele>
        <time>2023-01-14T11:02:23Z</time>
      </trkpt>
      <trkpt lat="42.6914510" lon="-0.5123470">
        <ele>1373.6</ele>
        <time>2023-01-14T11:02:24Z</time>
      </trkpt>
      <trkpt lat="42.6914510" lon="-0.5122940">
        <ele>1373.8</ele>
        <time>2023-01-14T11:02:25Z</time>
      </trkpt>
      <trkpt lat="42.6914460" lon="-0.5122440">
        <ele>1374.2</ele>
        <time>2023-01-14T11:02:26Z</time>
      </trkpt>
      <trkpt lat="42.6914360" lon="-0.5121950">
        <ele>1374.4</ele>
        <time>2023-01-14T11:02:27Z</time>
      </trkpt>
      <trkpt lat="42.6914220" lon="-0.5121550">
        <ele>1374.6</ele>
        <time>2023-01-14T11:02:28Z</time>
      </trkpt>
      <trkpt lat="42.6914100" lon="-0.5121120">
        <ele>1375.0</ele>
        <time>2023-01-14T11:02:29Z</time>
      </trkpt>
      <trkpt lat="42.6914000" lon="-0.5120660">
        <ele>1375.6</ele>
        <time>2023-01-14T11:02:30Z</time>
      </trkpt>
      <trkpt lat="42.6913990" lon="-0.5120190">
        <ele>1375.8</ele>
        <time>2023-01-14T11:02:31Z</time>
      </trkpt>
      <trkpt lat="42.6914020" lon="-0.5119720">
        <ele>1376.2</ele>
        <time>2023-01-14T11:02:32Z</time>
      </trkpt>
      <trkpt lat="42.6914060" lon="-0.5119230">
        <ele>1376.4</ele>
        <time>2023-01-14T11:02:33Z</time>
      </trkpt>
      <trkpt lat="42.6914110" lon="-0.5118760">
        <ele>1377.0</ele>
        <time>2023-01-14T11:02:34Z</time>
      </trkpt>
      <trkpt lat="42.6914220" lon="-0.5118320">
        <ele>1377.4</ele>
        <time>2023-01-14T11:02:35Z</time>
      </trkpt>
      <trkpt lat="42.6914360" lon="-0.5117890">
        <ele>1378.0</ele>
        <time>2023-01-14T11:02:36Z</time>
      </trkpt>
      <trkpt lat="42.6914510" lon="-0.5117430">
        <ele>1378.4</ele>
        <time>2023-01-14T11:02:37Z</time>
      </trkpt>
      <trkpt lat="42.6914700" lon="-0.5116990">
        <ele>1378.8</ele>
        <time>2023-01-14T11:02:38Z</time>
      </trkpt>
      <trkpt lat="42.6914850" lon="-0.5116530">
        <ele>1379.0</ele>
        <time>2023-01-14T11:02:39Z</time>
      </trkpt>
      <trkpt lat="42.6915010" lon="-0.5116080">
        <ele>1379.2</ele>
        <time>2023-01-14T11:02:40Z</time>
      </trkpt>
      <trkpt lat="42.6915200" lon="-0.5115620">
        <ele>1379.6</ele>
        <time>2023-01-14T11:02:41Z</time>
      </trkpt>
      <trkpt lat="42.6915430" lon="-0.5115160">
        <ele>1379.8</ele>
        <time>2023-01-14T11:02:42Z</time>
      </trkpt>
      <trkpt lat="42.6915650" lon="-0.5114740">
        <ele>1380.0</ele>
        <time>2023-01-14T11:02:43Z</time>
      </trkpt>
      <trkpt lat="42.6915820" lon="-0.5114330">
        <ele>1380.0</ele>
        <time>2023-01-14T11:02:44Z</time>
      </trkpt>
      <trkpt lat="42.6915960" lon="-0.5113890">
        <ele>1380.2</ele>
        <time>2023-01-14T11:02:45Z</time>
      </trkpt>
      <trkpt lat="42.6916080" lon="-0.5113490">
        <ele>1380.4</ele>
        <time>2023-01-14T11:02:46Z</time>
      </trkpt>
      <trkpt lat="42.6916220" lon="-0.5113070">
        <ele>1380.6</ele>
        <time>2023-01-14T11:02:47Z</time>
      </trkpt>
      <trkpt lat="42.6916380" lon="-0.5112620">
        <ele>1380.8</ele>
        <time>2023-01-14T11:02:48Z</time>
      </trkpt>
      <trkpt lat="42.6916560" lon="-0.5112140">
        <ele>1380.8</ele>
        <time>2023-01-14T11:02:49Z</time>
      </trkpt>
      <trkpt lat="42.6916730" lon="-0.5111660">
        <ele>1380.8</ele>
        <time>2023-01-14T11:02:50Z</time>
      </trkpt>
      <trkpt lat="42.6916910" lon="-0.5111250">
        <ele>1381.0</ele>
        <time>2023-01-14T11:02:51Z</time>
      </trkpt>
      <trkpt lat="42.6917100" lon="-0.5110820">
        <ele>1381.0</ele>
        <time>2023-01-14T11:02:52Z</time>
      </trkpt>
      <trkpt lat="42.6917340" lon="-0.5110440">
        <ele>1381.0</ele>
        <time>2023-01-14T11:02:53Z</time>
      </trkpt>
      <trkpt lat="42.6917570" lon="-0.5110060">
        <ele>1381.4</ele>
        <time>2023-01-14T11:02:54Z</time>
      </trkpt>
      <trkpt lat="42.6917810" lon="-0.5109690">
        <ele>1381.6</ele>
        <time>2023-01-14T11:02:55Z</time>
      </trkpt>
      <trkpt lat="42.6918030" lon="-0.5109300">
        <ele>1381.8</ele>
        <time>2023-01-14T11:02:56Z</time>
      </trkpt>
      <trkpt lat="42.6918230" lon="-0.5108890">
        <ele>1382.0</ele>
        <time>2023-01-14T11:02:57Z</time>
      </trkpt>
      <trkpt lat="42.6918470" lon="-0.5108500">
        <ele>1382.2</ele>
        <time>2023-01-14T11:02:58Z</time>
      </trkpt>
      <trkpt lat="42.6918750" lon="-0.5108100">
        <ele>1382.4</ele>
        <time>2023-01-14T11:02:59Z</time>
      </trkpt>
      <trkpt lat="42.6919010" lon="-0.5107740">
        <ele>1382.6</ele>
        <time>2023-01-14T11:03:00Z</time>
      </trkpt>
      <trkpt lat="42.6919240" lon="-0.5107350">
        <ele>1383.0</ele>
        <time>2023-01-14T11:03:01Z</time>
      </trkpt>
      <trkpt lat="42.6919450" lon="-0.5106950">
        <ele>1383.2</ele>
        <time>2023-01-14T11:03:02Z</time>
      </trkpt>
      <trkpt lat="42.6919690" lon="-0.5106630">
        <ele>1383.8</ele>
        <time>2023-01-14T11:03:03Z</time>
      </trkpt>
      <trkpt lat="42.6919910" lon="-0.5106300">
        <ele>1384.0</ele>
        <time>2023-01-14T11:03:04Z</time>
      </trkpt>
      <trkpt lat="42.6920120" lon="-0.5105970">
        <ele>1384.2</ele>
        <time>2023-01-14T11:03:05Z</time>
      </trkpt>
      <trkpt lat="42.6920340" lon="-0.5105590">
        <ele>1384.4</ele>
        <time>2023-01-14T11:03:06Z</time>
      </trkpt>
      <trkpt lat="42.6920550" lon="-0.5105250">
        <ele>1384.8</ele>
        <time>2023-01-14T11:03:07Z</time>
      </trkpt>
      <trkpt lat="42.6920710" lon="-0.5104860">
        <ele>1385.0</ele>
        <time>2023-01-14T11:03:08Z</time>
      </trkpt>
      <trkpt lat="42.6920770" lon="-0.5104520">
        <ele>1385.6</ele>
        <time>2023-01-14T11:03:09Z</time>
      </trkpt>
      <trkpt lat="42.6920890" lon="-0.5104130">
        <ele>1386.0</ele>
        <time>2023-01-14T11:03:10Z</time>
      </trkpt>
      <trkpt lat="42.6921020" lon="-0.5103750">
        <ele>1386.2</ele>
        <time>2023-01-14T11:03:11Z</time>
      </trkpt>
      <trkpt lat="42.6921140" lon="-0.5103410">
        <ele>1386.8</ele>
        <time>2023-01-14T11:03:12Z</time>
      </trkpt>
      <trkpt lat="42.6921290" lon="-0.5103080">
        <ele>1387.6</ele>
        <time>2023-01-14T11:03:13Z</time>
      </trkpt>
      <trkpt lat="42.6921420" lon="-0.5102730">
        <ele>1388.2</ele>
        <time>2023-01-14T11:03:14Z</time>
      </trkpt>
      <trkpt lat="42.6921570" lon="-0.5102350">
        <ele>1388.6</ele>
        <time>2023-01-14T11:03:15Z</time>
      </trkpt>
      <trkpt lat="42.6921670" lon="-0.5101980">
        <ele>1388.8</ele>
        <time>2023-01-14T11:03:16Z</time>
      </trkpt>
      <trkpt lat="42.6921770" lon="-0.5101600">
        <ele>1389.0</ele>
        <time>2023-01-14T11:03:17Z</time>
      </trkpt>
      <trkpt lat="42.6921830" lon="-0.5101190">
        <ele>1389.2</ele>
        <time>2023-01-14T11:03:18Z</time>
      </trkpt>
      <trkpt lat="42.6921920" lon="-0.5100780">
        <ele>1389.2</ele>
        <time>2023-01-14T11:03:19Z</time>
      </trkpt>
      <trkpt lat="42.6922000" lon="-0.5100390">
        <ele>1389.4</ele>
        <time>2023-01-14T11:03:20Z</time>
      </trkpt>
      <trkpt lat="42.6922070" lon="-0.5100010">
        <ele>1389.6</ele>
        <time>2023-01-14T11:03:21Z</time>
      </trkpt>
      <trkpt lat="42.6922120" lon="-0.5099600">
        <ele>1389.6</ele>
        <time>2023-01-14T11:03:22Z</time>
      </trkpt>
      <trkpt lat="42.6922160" lon="-0.5099180">
        <ele>1389.8</ele>
        <time>2023-01-14T11:03:23Z</time>
      </trkpt>
      <trkpt lat="42.6922190" lon="-0.5098750">
        <ele>1390.4</ele>
        <time>2023-01-14T11:03:24Z</time>
      </trkpt>
      <trkpt lat="42.6922210" lon="-0.5098320">
        <ele>1390.8</ele>
        <time>2023-01-14T11:03:25Z</time>
      </trkpt>
      <trkpt lat="42.6922260" lon="-0.5097880">
        <ele>1391.0</ele>
        <time>2023-01-14T11:03:26Z</time>
      </trkpt>
      <trkpt lat="42.6922320" lon="-0.5097410">
        <ele>1391.4</ele>
        <time>2023-01-14T11:03:27Z</time>
      </trkpt>
      <trkpt lat="42.6922370" lon="-0.5096970">
        <ele>1391.8</ele>
        <time>2023-01-14T11:03:28Z</time>
      </trkpt>
      <trkpt lat="42.6922330" lon="-0.5096500">
        <ele>1392.0</ele>
        <time>2023-01-14T11:03:29Z</time>
      </trkpt>
      <trkpt lat="42.6922250" lon="-0.5096090">
        <ele>1392.0</ele>
        <time>2023-01-14T11:03:30Z</time>
      </trkpt>
      <trkpt lat="42.6922050" lon="-0.5095700">
        <ele>1392.0</ele>
        <time>2023-01-14T11:03:31Z</time>
      </trkpt>
      <trkpt lat="42.6921800" lon="-0.5095380">
        <ele>1392.2</ele>
        <time>2023-01-14T11:03:32Z</time>
      </trkpt>
      <trkpt lat="42.6921580" lon="-0.5095220">
        <ele>1392.2</ele>
        <time>2023-01-14T11:03:33Z</time>
      </trkpt>
      <trkpt lat="42.6921300" lon="-0.5095080">
        <ele>1392.4</ele>
        <time>2023-01-14T11:03:34Z</time>
      </trkpt>
      <trkpt lat="42.6921010" lon="-0.5095050">
        <ele>1392.4</ele>
        <time>2023-01-14T11:03:35Z</time>
      </trkpt>
      <trkpt lat="42.6920690" lon="-0.5095110">
        <ele>1392.6</ele>
        <time>2023-01-14T11:03:36Z</time>
      </trkpt>
      <trkpt lat="42.6920400" lon="-0.5095300">
        <ele>1392.6</ele>
        <time>2023-01-14T11:03:37Z</time>
      </trkpt>
      <trkpt lat="42.6920090" lon="-0.5095560">
        <ele>1392.8</ele>
        <time>2023-01-14T11:03:38Z</time>
      </trkpt>
      <trkpt lat="42.6919770" lon="-0.5095800">
        <ele>1393.2</ele>
        <time>2023-01-14T11:03:39Z</time>
      </trkpt>
      <trkpt lat="42.6919460" lon="-0.5096070">
        <ele>1393.4</ele>
        <time>2023-01-14T11:03:40Z</time>
      </trkpt>
      <trkpt lat="42.6919130" lon="-0.5096300">
        <ele>1394.0</ele>
        <time>2023-01-14T11:03:41Z</time>
      </trkpt>
      <trkpt lat="42.6918780" lon="-0.5096470">
        <ele>1394.4</ele>
        <time>2023-01-14T11:03:42Z</time>
      </trkpt>
      <trkpt lat="42.6918430" lon="-0.5096610">
        <ele>1394.8</ele>
        <time>2023-01-14T11:03:43Z</time>
      </trkpt>
      <trkpt lat="42.6918050" lon="-0.5096780">
        <ele>1395.0</ele>
        <time>2023-01-14T11:03:44Z</time>
      </trkpt>
      <trkpt lat="42.6917690" lon="-0.5096870">
        <ele>1395.4</ele>
        <time>2023-01-14T11:03:45Z</time>
      </trkpt>
      <trkpt lat="42.6917330" lon="-0.5096890">
        <ele>1395.8</ele>
        <time>2023-01-14T11:03:46Z</time>
      </trkpt>
      <trkpt lat="42.6916950" lon="-0.5096860">
        <ele>1396.6</ele>
        <time>2023-01-14T11:03:47Z</time>
      </trkpt>
      <trkpt lat="42.6916560" lon="-0.5096800">
        <ele>1397.2</ele>
        <time>2023-01-14T11:03:48Z</time>
      </trkpt>
      <trkpt lat="42.6916180" lon="-0.5096770">
        <ele>1397.6</ele>
        <time>2023-01-14T11:03:49Z</time>
      </trkpt>
      <trkpt lat="42.6915780" lon="-0.5096750">
        <ele>1397.8</ele>
        <time>2023-01-14T11:03:50Z</time>
      </trkpt>
      <trkpt lat="42.6915390" lon="-0.5096730">
        <ele>1398.2</ele>
        <time>2023-01-14T11:03:51Z</time>
      </trkpt>
      <trkpt lat="42.6915030" lon="-0.5096740">
        <ele>1398.4</ele>
        <time>2023-01-14T11:03:52Z</time>
      </trkpt>
      <trkpt lat="42.6914680" lon="-0.5096780">
        <ele>1398.4</ele>
        <time>2023-01-14T11:03:53Z</time>
      </trkpt>
      <trkpt lat="42.6914360" lon="-0.5096890">
        <ele>1398.6</ele>
        <time>2023-01-14T11:03:54Z</time>
      </trkpt>
      <trkpt lat="42.6914070" lon="-0.5096990">
        <ele>1398.8</ele>
        <time>2023-01-14T11:03:55Z</time>
      </trkpt>
      <trkpt lat="42.6913770" lon="-0.5097170">
        <ele>1399.2</ele>
        <time>2023-01-14T11:03:56Z</time>
      </trkpt>
      <trkpt lat="42.6913480" lon="-0.5097350">
        <ele>1399.4</ele>
        <time>2023-01-14T11:03:57Z</time>
      </trkpt>
      <trkpt lat="42.6913170" lon="-0.5097560">
        <ele>1400.0</ele>
        <time>2023-01-14T11:03:58Z</time>
      </trkpt>
      <trkpt lat="42.6912810" lon="-0.5097720">
        <ele>1400.4</ele>
        <time>2023-01-14T11:03:59Z</time>
      </trkpt>
      <trkpt lat="42.6912450" lon="-0.5097860">
        <ele>1400.8</ele>
        <time>2023-01-14T11:04:00Z</time>
      </trkpt>
      <trkpt lat="42.6912100" lon="-0.5098020">
        <ele>1401.2</ele>
        <time>2023-01-14T11:04:01Z</time>
      </trkpt>
      <trkpt lat="42.6911750" lon="-0.5098200">
        <ele>1401.6</ele>
        <time>2023-01-14T11:04:02Z</time>
      </trkpt>
      <trkpt lat="42.6911370" lon="-0.5098370">
        <ele>1401.8</ele>
        <time>2023-01-14T11:04:03Z</time>
      </trkpt>
      <trkpt lat="42.6910960" lon="-0.5098460">
        <ele>1402.0</ele>
        <time>2023-01-14T11:04:04Z</time>
      </trkpt>
      <trkpt lat="42.6910580" lon="-0.5098580">
        <ele>1402.4</ele>
        <time>2023-01-14T11:04:05Z</time>
      </trkpt>
      <trkpt lat="42.6910250" lon="-0.5098740">
        <ele>1402.8</ele>
        <time>2023-01-14T11:04:06Z</time>
      </trkpt>
      <trkpt lat="42.6909920" lon="-0.5098880">
        <ele>1403.2</ele>
        <time>2023-01-14T11:04:07Z</time>
      </trkpt>
      <trkpt lat="42.6909560" lon="-0.5098990">
        <ele>1403.6</ele>
        <time>2023-01-14T11:04:08Z</time>
      </trkpt>
      <trkpt lat="42.6909180" lon="-0.5099070">
        <ele>1403.8</ele>
        <time>2023-01-14T11:04:09Z</time>
      </trkpt>
      <trkpt lat="42.6908840" lon="-0.5099200">
        <ele>1404.0</ele>
        <time>2023-01-14T11:04:10Z</time>
      </trkpt>
      <trkpt lat="42.6908480" lon="-0.5099330">
        <ele>1404.4</ele>
        <time>2023-01-14T11:04:11Z</time>
      </trkpt>
      <trkpt lat="42.6908100" lon="-0.5099400">
        <ele>1404.6</ele>
        <time>2023-01-14T11:04:12Z</time>
      </trkpt>
      <trkpt lat="42.6907720" lon="-0.5099420">
        <ele>1404.8</ele>
        <time>2023-01-14T11:04:13Z</time>
      </trkpt>
      <trkpt lat="42.6907350" lon="-0.5099460">
        <ele>1405.4</ele>
        <time>2023-01-14T11:04:14Z</time>
      </trkpt>
      <trkpt lat="42.6906990" lon="-0.5099530">
        <ele>1405.6</ele>
        <time>2023-01-14T11:04:15Z</time>
      </trkpt>
      <trkpt lat="42.6906620" lon="-0.5099650">
        <ele>1406.0</ele>
        <time>2023-01-14T11:04:16Z</time>
      </trkpt>
      <trkpt lat="42.6906300" lon="-0.5099770">
        <ele>1406.2</ele>
        <time>2023-01-14T11:04:17Z</time>
      </trkpt>
      <trkpt lat="42.6905980" lon="-0.5100050">
        <ele>1406.2</ele>
        <time>2023-01-14T11:04:18Z</time>
      </trkpt>
      <trkpt lat="42.6905650" lon="-0.5100220">
        <ele>1406.6</ele>
        <time>2023-01-14T11:04:19Z</time>
      </trkpt>
      <trkpt lat="42.6905330" lon="-0.5100220">
        <ele>1406.8</ele>
        <time>2023-01-14T11:04:20Z</time>
      </trkpt>
      <trkpt lat="42.6905010" lon="-0.5100160">
        <ele>1407.0</ele>
        <time>2023-01-14T11:04:21Z</time>
      </trkpt>
      <trkpt lat="42.6904650" lon="-0.5100090">
        <ele>1407.0</ele>
        <time>2023-01-14T11:04:22Z</time>
      </trkpt>
      <trkpt lat="42.6904230" lon="-0.5100030">
        <ele>1407.0</ele>
        <time>2023-01-14T11:04:23Z</time>
      </trkpt>
      <trkpt lat="42.6903830" lon="-0.5099950">
        <ele>1407.2</ele>
        <time>2023-01-14T11:04:24Z</time>
      </trkpt>
      <trkpt lat="42.6903450" lon="-0.5099880">
        <ele>1407.6</ele>
        <time>2023-01-14T11:04:25Z</time>
      </trkpt>
      <trkpt lat="42.6903040" lon="-0.5099870">
        <ele>1408.0</ele>
        <time>2023-01-14T11:04:26Z</time>
      </trkpt>
      <trkpt lat="42.6902640" lon="-0.5099840">
        <ele>1408.2</ele>
        <time>2023-01-14T11:04:27Z</time>
      </trkpt>
      <trkpt lat="42.6902240" lon="-0.5099830">
        <ele>1408.6</ele>
        <time>2023-01-14T11:04:28Z</time>
      </trkpt>
      <trkpt lat="42.6901850" lon="-0.5099790">
        <ele>1409.0</ele>
        <time>2023-01-14T11:04:29Z</time>
      </trkpt>
      <trkpt lat="42.6901450" lon="-0.5099780">
        <ele>1409.6</ele>
        <time>2023-01-14T11:04:30Z</time>
      </trkpt>
      <trkpt lat="42.6901070" lon="-0.5099790">
        <ele>1409.8</ele>
        <time>2023-01-14T11:04:31Z</time>
      </trkpt>
      <trkpt lat="42.6900670" lon="-0.5099840">
        <ele>1410.4</ele>
        <time>2023-01-14T11:04:32Z</time>
      </trkpt>
      <trkpt lat="42.6900290" lon="-0.5099920">
        <ele>1410.6</ele>
        <time>2023-01-14T11:04:33Z</time>
      </trkpt>
      <trkpt lat="42.6899910" lon="-0.5099980">
        <ele>1410.8</ele>
        <time>2023-01-14T11:04:34Z</time>
      </trkpt>
      <trkpt lat="42.6899500" lon="-0.5100060">
        <ele>1411.0</ele>
        <time>2023-01-14T11:04:35Z</time>
      </trkpt>
      <trkpt lat="42.6899100" lon="-0.5100070">
        <ele>1411.0</ele>
        <time>2023-01-14T11:04:36Z</time>
      </trkpt>
      <trkpt lat="42.6898730" lon="-0.5100120">
        <ele>1411.2</ele>
        <time>2023-01-14T11:04:37Z</time>
      </trkpt>
      <trkpt lat="42.6898360" lon="-0.5100180">
        <ele>1411.6</ele>
        <time>2023-01-14T11:04:38Z</time>
      </trkpt>
      <trkpt lat="42.6897970" lon="-0.5100220">
        <ele>1411.8</ele>
        <time>2023-01-14T11:04:39Z</time>
      </trkpt>
      <trkpt lat="42.6897550" lon="-0.5100380">
        <ele>1412.2</ele>
        <time>2023-01-14T11:04:40Z</time>
      </trkpt>
      <trkpt lat="42.6897160" lon="-0.5100450">
        <ele>1412.4</ele>
        <time>2023-01-14T11:04:41Z</time>
      </trkpt>
      <trkpt lat="42.6896780" lon="-0.5100460">
        <ele>1412.6</ele>
        <time>2023-01-14T11:04:42Z</time>
      </trkpt>
      <trkpt lat="42.6896400" lon="-0.5100490">
        <ele>1412.8</ele>
        <time>2023-01-14T11:04:43Z</time>
      </trkpt>
      <trkpt lat="42.6895990" lon="-0.5100530">
        <ele>1413.0</ele>
        <time>2023-01-14T11:04:44Z</time>
      </trkpt>
      <trkpt lat="42.6895580" lon="-0.5100630">
        <ele>1413.0</ele>
        <time>2023-01-14T11:04:45Z</time>
      </trkpt>
      <trkpt lat="42.6895150" lon="-0.5100630">
        <ele>1413.4</ele>
        <time>2023-01-14T11:04:46Z</time>
      </trkpt>
      <trkpt lat="42.6894720" lon="-0.5100650">
        <ele>1413.8</ele>
        <time>2023-01-14T11:04:47Z</time>
      </trkpt>
      <trkpt lat="42.6894270" lon="-0.5100710">
        <ele>1414.2</ele>
        <time>2023-01-14T11:04:48Z</time>
      </trkpt>
      <trkpt lat="42.6893830" lon="-0.5100860">
        <ele>1414.4</ele>
        <time>2023-01-14T11:04:49Z</time>
      </trkpt>
      <trkpt lat="42.6893380" lon="-0.5101060">
        <ele>1414.8</ele>
        <time>2023-01-14T11:04:50Z</time>
      </trkpt>
      <trkpt lat="42.6892950" lon="-0.5101170">
        <ele>1414.8</ele>
        <time>2023-01-14T11:04:51Z</time>
      </trkpt>
      <trkpt lat="42.6892510" lon="-0.5101170">
        <ele>1415.2</ele>
        <time>2023-01-14T11:04:52Z</time>
      </trkpt>
      <trkpt lat="42.6892080" lon="-0.5101080">
        <ele>1415.4</ele>
        <time>2023-01-14T11:04:53Z</time>
      </trkpt>
      <trkpt lat="42.6891630" lon="-0.5100970">
        <ele>1415.4</ele>
        <time>2023-01-14T11:04:54Z</time>
      </trkpt>
      <trkpt lat="42.6891180" lon="-0.5100940">
        <ele>1415.6</ele>
        <time>2023-01-14T11:04:55Z</time>
      </trkpt>
      <trkpt lat="42.6890710" lon="-0.5100900">
        <ele>1415.8</ele>
        <time>2023-01-14T11:04:56Z</time>
      </trkpt>
      <trkpt lat="42.6890270" lon="-0.5100800">
        <ele>1415.8</ele>
        <time>2023-01-14T11:04:57Z</time>
      </trkpt>
      <trkpt lat="42.6889840" lon="-0.5100650">
        <ele>1416.0</ele>
        <time>2023-01-14T11:04:58Z</time>
      </trkpt>
      <trkpt lat="42.6889410" lon="-0.5100400">
        <ele>1416.0</ele>
        <time>2023-01-14T11:04:59Z</time>
      </trkpt>
      <trkpt lat="42.6888970" lon="-0.5100060">
        <ele>1416.2</ele>
        <time>2023-01-14T11:05:00Z</time>
      </trkpt>
      <trkpt lat="42.6888540" lon="-0.5099690">
        <ele>1416.4</ele>
        <time>2023-01-14T11:05:01Z</time>
      </trkpt>
      <trkpt lat="42.6888170" lon="-0.5099280">
        <ele>1416.8</ele>
        <time>2023-01-14T11:05:02Z</time>
      </trkpt>
      <trkpt lat="42.6887790" lon="-0.5098850">
        <ele>1417.2</ele>
        <time>2023-01-14T11:05:03Z</time>
      </trkpt>
      <trkpt lat="42.6887430" lon="-0.5098410">
        <ele>1417.4</ele>
        <time>2023-01-14T11:05:04Z</time>
      </trkpt>
      <trkpt lat="42.6887090" lon="-0.5097940">
        <ele>1417.4</ele>
        <time>2023-01-14T11:05:05Z</time>
      </trkpt>
      <trkpt lat="42.6886750" lon="-0.5097380">
        <ele>1417.6</ele>
        <time>2023-01-14T11:05:06Z</time>
      </trkpt>
      <trkpt lat="42.6886470" lon="-0.5096870">
        <ele>1417.6</ele>
        <time>2023-01-14T11:05:07Z</time>
      </trkpt>
      <trkpt lat="42.6886240" lon="-0.5096290">
        <ele>1417.6</ele>
        <time>2023-01-14T11:05:08Z</time>
      </trkpt>
      <trkpt lat="42.6886010" lon="-0.5095700">
        <ele>1417.8</ele>
        <time>2023-01-14T11:05:09Z</time>
      </trkpt>
      <trkpt lat="42.6885810" lon="-0.5095090">
        <ele>1418.0</ele>
        <time>2023-01-14T11:05:10Z</time>
      </trkpt>
      <trkpt lat="42.6885690" lon="-0.5094530">
        <ele>1418.2</ele>
        <time>2023-01-14T11:05:11Z</time>
      </trkpt>
      <trkpt lat="42.6885600" lon="-0.5093930">
        <ele>1418.6</ele>
        <time>2023-01-14T11:05:12Z</time>
      </trkpt>
      <trkpt lat="42.6885520" lon="-0.5093380">
        <ele>1418.8</ele>
        <time>2023-01-14T11:05:13Z</time>
      </trkpt>
      <trkpt lat="42.6885510" lon="-0.5092780">
        <ele>1419.2</ele>
        <time>2023-01-14T11:05:14Z</time>
      </trkpt>
      <trkpt lat="42.6885510" lon="-0.5092190">
        <ele>1419.4</ele>
        <time>2023-01-14T11:05:15Z</time>
      </trkpt>
      <trkpt lat="42.6885520" lon="-0.5091630">
        <ele>1419.6</ele>
        <time>2023-01-14T11:05:16Z</time>
      </trkpt>
      <trkpt lat="42.6885560" lon="-0.5091100">
        <ele>1419.8</ele>
        <time>2023-01-14T11:05:17Z</time>
      </trkpt>
      <trkpt lat="42.6885580" lon="-0.5090550">
        <ele>1420.2</ele>
        <time>2023-01-14T11:05:18Z</time>
      </trkpt>
      <trkpt lat="42.6885620" lon="-0.5089990">
        <ele>1420.4</ele>
        <time>2023-01-14T11:05:19Z</time>
      </trkpt>
      <trkpt lat="42.6885670" lon="-0.5089430">
        <ele>1421.0</ele>
        <time>2023-01-14T11:05:20Z</time>
      </trkpt>
      <trkpt lat="42.6885650" lon="-0.5088870">
        <ele>1421.4</ele>
        <time>2023-01-14T11:05:21Z</time>
      </trkpt>
      <trkpt lat="42.6885600" lon="-0.5088280">
        <ele>1421.8</ele>
        <time>2023-01-14T11:05:22Z</time>
      </trkpt>
      <trkpt lat="42.6885500" lon="-0.5087690">
        <ele>1422.4</ele>
        <time>2023-01-14T11:05:23Z</time>
      </trkpt>
      <trkpt lat="42.6885380" lon="-0.5087130">
        <ele>1422.8</ele>
        <time>2023-01-14T11:05:24Z</time>
      </trkpt>
      <trkpt lat="42.6885240" lon="-0.5086540">
        <ele>1423.2</ele>
        <time>2023-01-14T11:05:25Z</time>
      </trkpt>
      <trkpt lat="42.6885140" lon="-0.5085980">
        <ele>1423.4</ele>
        <time>2023-01-14T11:05:26Z</time>
      </trkpt>
      <trkpt lat="42.6885010" lon="-0.5085490">
        <ele>1423.6</ele>
        <time>2023-01-14T11:05:27Z</time>
      </trkpt>
      <trkpt lat="42.6884950" lon="-0.5084950">
        <ele>1424.0</ele>
        <time>2023-01-14T11:05:28Z</time>
      </trkpt>
      <trkpt lat="42.6884830" lon="-0.5084420">
        <ele>1424.2</ele>
        <time>2023-01-14T11:05:29Z</time>
      </trkpt>
      <trkpt lat="42.6884720" lon="-0.5083860">
        <ele>1424.6</ele>
        <time>2023-01-14T11:05:30Z</time>
      </trkpt>
      <trkpt lat="42.6884640" lon="-0.5083330">
        <ele>1424.8</ele>
        <time>2023-01-14T11:05:31Z</time>
      </trkpt>
      <trkpt lat="42.6884460" lon="-0.5082780">
        <ele>1425.2</ele>
        <time>2023-01-14T11:05:32Z</time>
      </trkpt>
      <trkpt lat="42.6884310" lon="-0.5082210">
        <ele>1426.0</ele>
        <time>2023-01-14T11:05:33Z</time>
      </trkpt>
      <trkpt lat="42.6884180" lon="-0.5081630">
        <ele>1426.2</ele>
        <time>2023-01-14T11:05:34Z</time>
      </trkpt>
      <trkpt lat="42.6884060" lon="-0.5081080">
        <ele>1426.6</ele>
        <time>2023-01-14T11:05:35Z</time>
      </trkpt>
      <trkpt lat="42.6883760" lon="-0.5080790">
        <ele>1426.6</ele>
        <time>2023-01-14T11:05:36Z</time>
      </trkpt>
      <trkpt lat="42.6883550" lon="-0.5080380">
        <ele>1427.0</ele>
        <time>2023-01-14T11:05:37Z</time>
      </trkpt>
      <trkpt lat="42.6883440" lon="-0.5079900">
        <ele>1427.4</ele>
        <time>2023-01-14T11:05:38Z</time>
      </trkpt>
      <trkpt lat="42.6883430" lon="-0.5079360">
        <ele>1427.6</ele>
        <time>2023-01-14T11:05:39Z</time>
      </trkpt>
      <trkpt lat="42.6883450" lon="-0.5078780">
        <ele>1428.0</ele>
        <time>2023-01-14T11:05:40Z</time>
      </trkpt>
      <trkpt lat="42.6883480" lon="-0.5078190">
        <ele>1428.4</ele>
        <time>2023-01-14T11:05:41Z</time>
      </trkpt>
      <trkpt lat="42.6883460" lon="-0.5077620">
        <ele>1428.6</ele>
        <time>2023-01-14T11:05:42Z</time>
      </trkpt>
      <trkpt lat="42.6883490" lon="-0.5077070">
        <ele>1429.2</ele>
        <time>2023-01-14T11:05:43Z</time>
      </trkpt>
      <trkpt lat="42.6883570" lon="-0.5076500">
        <ele>1429.8</ele>
        <time>2023-01-14T11:05:44Z</time>
      </trkpt>
      <trkpt lat="42.6883650" lon="-0.5075950">
        <ele>1430.0</ele>
        <time>2023-01-14T11:05:45Z</time>
      </trkpt>
      <trkpt lat="42.6883710" lon="-0.5075460">
        <ele>1430.2</ele>
        <time>2023-01-14T11:05:46Z</time>
      </trkpt>
      <trkpt lat="42.6883790" lon="-0.5074930">
        <ele>1430.8</ele>
        <time>2023-01-14T11:05:47Z</time>
      </trkpt>
      <trkpt lat="42.6883830" lon="-0.5074400">
        <ele>1431.6</ele>
        <time>2023-01-14T11:05:48Z</time>
      </trkpt>
      <trkpt lat="42.6883910" lon="-0.5073860">
        <ele>1432.0</ele>
        <time>2023-01-14T11:05:49Z</time>
      </trkpt>
      <trkpt lat="42.6884050" lon="-0.5073340">
        <ele>1432.4</ele>
        <time>2023-01-14T11:05:50Z</time>
      </trkpt>
      <trkpt lat="42.6884170" lon="-0.5072780">
        <ele>1432.6</ele>
        <time>2023-01-14T11:05:51Z</time>
      </trkpt>
      <trkpt lat="42.6884270" lon="-0.5072220">
        <ele>1432.6</ele>
        <time>2023-01-14T11:05:52Z</time>
      </trkpt>
      <trkpt lat="42.6884400" lon="-0.5071660">
        <ele>1433.2</ele>
        <time>2023-01-14T11:05:53Z</time>
      </trkpt>
      <trkpt lat="42.6884550" lon="-0.5071040">
        <ele>1433.4</ele>
        <time>2023-01-14T11:05:54Z</time>
      </trkpt>
      <trkpt lat="42.6884680" lon="-0.5070490">
        <ele>1433.8</ele>
        <time>2023-01-14T11:05:55Z</time>
      </trkpt>
      <trkpt lat="42.6884740" lon="-0.5069910">
        <ele>1434.2</ele>
        <time>2023-01-14T11:05:56Z</time>
      </trkpt>
      <trkpt lat="42.6884780" lon="-0.5069300">
        <ele>1434.8</ele>
        <time>2023-01-14T11:05:57Z</time>
      </trkpt>
      <trkpt lat="42.6884820" lon="-0.5068690">
        <ele>1435.0</ele>
        <time>2023-01-14T11:05:58Z</time>
      </trkpt>
      <trkpt lat="42.6884820" lon="-0.5068090">
        <ele>1435.0</ele>
        <time>2023-01-14T11:05:59Z</time>
      </trkpt>
      <trkpt lat="42.6884790" lon="-0.5067480">
        <ele>1435.4</ele>
        <time>2023-01-14T11:06:00Z</time>
      </trkpt>
      <trkpt lat="42.6884770" lon="-0.5066870">
        <ele>1435.8</ele>
        <time>2023-01-14T11:06:01Z</time>
      </trkpt>
      <trkpt lat="42.6884750" lon="-0.5066280">
        <ele>1436.2</ele>
        <time>2023-01-14T11:06:02Z</time>
      </trkpt>
      <trkpt lat="42.6884730" lon="-0.5065680">
        <ele>1436.8</ele>
        <time>2023-01-14T11:06:03Z</time>
      </trkpt>
      <trkpt lat="42.6884670" lon="-0.5065100">
        <ele>1437.2</ele>
        <time>2023-01-14T11:06:04Z</time>
      </trkpt>
      <trkpt lat="42.6884590" lon="-0.5064530">
        <ele>1437.6</ele>
        <time>2023-01-14T11:06:05Z</time>
      </trkpt>
      <trkpt lat="42.6884490" lon="-0.5064010">
        <ele>1437.8</ele>
        <time>2023-01-14T11:06:06Z</time>
      </trkpt>
      <trkpt lat="42.6884350" lon="-0.5063510">
        <ele>1438.0</ele>
        <time>2023-01-14T11:06:07Z</time>
      </trkpt>
      <trkpt lat="42.6884170" lon="-0.5063000">
        <ele>1438.4</ele>
        <time>2023-01-14T11:06:08Z</time>
      </trkpt>
      <trkpt lat="42.6883960" lon="-0.5062520">
        <ele>1438.6</ele>
        <time>2023-01-14T11:06:09Z</time>
      </trkpt>
      <trkpt lat="42.6883730" lon="-0.5062080">
        <ele>1439.0</ele>
        <time>2023-01-14T11:06:10Z</time>
      </trkpt>
      <trkpt lat="42.6883490" lon="-0.5061660">
        <ele>1439.6</ele>
        <time>2023-01-14T11:06:11Z</time>
      </trkpt>
      <trkpt lat="42.6883230" lon="-0.5061270">
        <ele>1440.2</ele>
        <time>2023-01-14T11:06:12Z</time>
      </trkpt>
      <trkpt lat="42.6882990" lon="-0.5060880">
        <ele>1440.6</ele>
        <time>2023-01-14T11:06:13Z</time>
      </trkpt>
      <trkpt lat="42.6882720" lon="-0.5060530">
        <ele>1441.0</ele>
        <time>2023-01-14T11:06:14Z</time>
      </trkpt>
      <trkpt lat="42.6882430" lon="-0.5060200">
        <ele>1441.4</ele>
        <time>2023-01-14T11:06:15Z</time>
      </trkpt>
      <trkpt lat="42.6882150" lon="-0.5059900">
        <ele>1441.6</ele>
        <time>2023-01-14T11:06:16Z</time>
      </trkpt>
      <trkpt lat="42.6881890" lon="-0.5059610">
        <ele>1441.8</ele>
        <time>2023-01-14T11:06:17Z</time>
      </trkpt>
      <trkpt lat="42.6881620" lon="-0.5059310">
        <ele>1441.8</ele>
        <time>2023-01-14T11:06:18Z</time>
      </trkpt>
      <trkpt lat="42.6881320" lon="-0.5059050">
        <ele>1442.2</ele>
        <time>2023-01-14T11:06:19Z</time>
      </trkpt>
      <trkpt lat="42.6881020" lon="-0.5058780">
        <ele>1442.6</ele>
        <time>2023-01-14T11:06:20Z</time>
      </trkpt>
      <trkpt lat="42.6880730" lon="-0.5058450">
        <ele>1443.2</ele>
        <time>2023-01-14T11:06:21Z</time>
      </trkpt>
      <trkpt lat="42.6880460" lon="-0.5058100">
        <ele>1443.8</ele>
        <time>2023-01-14T11:06:22Z</time>
      </trkpt>
      <trkpt lat="42.6880210" lon="-0.5057750">
        <ele>1444.2</ele>
        <time>2023-01-14T11:06:23Z</time>
      </trkpt>
      <trkpt lat="42.6880080" lon="-0.5057360">
        <ele>1444.6</ele>
        <time>2023-01-14T11:06:24Z</time>
      </trkpt>
      <trkpt lat="42.6879860" lon="-0.5056970">
        <ele>1445.0</ele>
        <time>2023-01-14T11:06:25Z</time>
      </trkpt>
      <trkpt lat="42.6879680" lon="-0.5056540">
        <ele>1445.4</ele>
        <time>2023-01-14T11:06:26Z</time>
      </trkpt>
      <trkpt lat="42.6879490" lon="-0.5056150">
        <ele>1446.2</ele>
        <time>2023-01-14T11:06:27Z</time>
      </trkpt>
      <trkpt lat="42.6879250" lon="-0.5055730">
        <ele>1446.4</ele>
        <time>2023-01-14T11:06:28Z</time>
      </trkpt>
      <trkpt lat="42.6879010" lon="-0.5055300">
        <ele>1446.6</ele>
        <time>2023-01-14T11:06:29Z</time>
      </trkpt>
      <trkpt lat="42.6878790" lon="-0.5054870">
        <ele>1447.0</ele>
        <time>2023-01-14T11:06:30Z</time>
      </trkpt>
      <trkpt lat="42.6878620" lon="-0.5054400">
        <ele>1447.4</ele>
        <time>2023-01-14T11:06:31Z</time>
      </trkpt>
      <trkpt lat="42.6878420" lon="-0.5053930">
        <ele>1447.8</ele>
        <time>2023-01-14T11:06:32Z</time>
      </trkpt>
      <trkpt lat="42.6878170" lon="-0.5053500">
        <ele>1448.0</ele>
        <time>2023-01-14T11:06:33Z</time>
      </trkpt>
      <trkpt lat="42.6877940" lon="-0.5053070">
        <ele>1448.2</ele>
        <time>2023-01-14T11:06:34Z</time>
      </trkpt>
      <trkpt lat="42.6877730" lon="-0.5052640">
        <ele>1448.6</ele>
        <time>2023-01-14T11:06:35Z</time>
      </trkpt>
      <trkpt lat="42.6877510" lon="-0.5052240">
        <ele>1448.8</ele>
        <time>2023-01-14T11:06:36Z</time>
      </trkpt>
      <trkpt lat="42.6877280" lon="-0.5051840">
        <ele>1449.2</ele>
        <time>2023-01-14T11:06:37Z</time>
      </trkpt>
      <trkpt lat="42.6877080" lon="-0.5051430">
        <ele>1449.4</ele>
        <time>2023-01-14T11:06:38Z</time>
      </trkpt>
      <trkpt lat="42.6876850" lon="-0.5051060">
        <ele>1449.6</ele>
        <time>2023-01-14T11:06:39Z</time>
      </trkpt>
      <trkpt lat="42.6876670" lon="-0.5050670">
        <ele>1450.0</ele>
        <time>2023-01-14T11:06:40Z</time>
      </trkpt>
      <trkpt lat="42.6876460" lon="-0.5050290">
        <ele>1450.6</ele>
        <time>2023-01-14T11:06:41Z</time>
      </trkpt>
      <trkpt lat="42.6876210" lon="-0.5049900">
        <ele>1451.0</ele>
        <time>2023-01-14T11:06:42Z</time>
      </trkpt>
      <trkpt lat="42.6875990" lon="-0.5049500">
        <ele>1451.2</ele>
        <time>2023-01-14T11:06:43Z</time>
      </trkpt>
      <trkpt lat="42.6875780" lon="-0.5049100">
        <ele>1451.4</ele>
        <time>2023-01-14T11:06:44Z</time>
      </trkpt>
      <trkpt lat="42.6875590" lon="-0.5048700">
        <ele>1452.0</ele>
        <time>2023-01-14T11:06:45Z</time>
      </trkpt>
      <trkpt lat="42.6875400" lon="-0.5048300">
        <ele>1452.6</ele>
        <time>2023-01-14T11:06:46Z</time>
      </trkpt>
      <trkpt lat="42.6875250" lon="-0.5047880">
        <ele>1452.8</ele>
        <time>2023-01-14T11:06:47Z</time>
      </trkpt>
      <trkpt lat="42.6875090" lon="-0.5047450">
        <ele>1453.2</ele>
        <time>2023-01-14T11:06:48Z</time>
      </trkpt>
      <trkpt lat="42.6874920" lon="-0.5047000">
        <ele>1453.4</ele>
        <time>2023-01-14T11:06:49Z</time>
      </trkpt>
      <trkpt lat="42.6874730" lon="-0.5046570">
        <ele>1453.6</ele>
        <time>2023-01-14T11:06:50Z</time>
      </trkpt>
      <trkpt lat="42.6874580" lon="-0.5046130">
        <ele>1454.0</ele>
        <time>2023-01-14T11:06:51Z</time>
      </trkpt>
      <trkpt lat="42.6874400" lon="-0.5045670">
        <ele>1454.4</ele>
        <time>2023-01-14T11:06:52Z</time>
      </trkpt>
      <trkpt lat="42.6874230" lon="-0.5045190">
        <ele>1454.6</ele>
        <time>2023-01-14T11:06:53Z</time>
      </trkpt>
      <trkpt lat="42.6874090" lon="-0.5044700">
        <ele>1454.6</ele>
        <time>2023-01-14T11:06:54Z</time>
      </trkpt>
      <trkpt lat="42.6873950" lon="-0.5044190">
        <ele>1455.4</ele>
        <time>2023-01-14T11:06:55Z</time>
      </trkpt>
      <trkpt lat="42.6873810" lon="-0.5043680">
        <ele>1455.8</ele>
        <time>2023-01-14T11:06:56Z</time>
      </trkpt>
      <trkpt lat="42.6873660" lon="-0.5043180">
        <ele>1456.2</ele>
        <time>2023-01-14T11:06:57Z</time>
      </trkpt>
      <trkpt lat="42.6873520" lon="-0.5042690">
        <ele>1456.4</ele>
        <time>2023-01-14T11:06:58Z</time>
      </trkpt>
      <trkpt lat="42.6873370" lon="-0.5042190">
        <ele>1456.4</ele>
        <time>2023-01-14T11:06:59Z</time>
      </trkpt>
      <trkpt lat="42.6873210" lon="-0.5041670">
        <ele>1457.0</ele>
        <time>2023-01-14T11:07:00Z</time>
      </trkpt>
      <trkpt lat="42.6873040" lon="-0.5041150">
        <ele>1457.2</ele>
        <time>2023-01-14T11:07:01Z</time>
      </trkpt>
      <trkpt lat="42.6872890" lon="-0.5040600">
        <ele>1457.4</ele>
        <time>2023-01-14T11:07:02Z</time>
      </trkpt>
      <trkpt lat="42.6872720" lon="-0.5040070">
        <ele>1457.6</ele>
        <time>2023-01-14T11:07:03Z</time>
      </trkpt>
      <trkpt lat="42.6872570" lon="-0.5039530">
        <ele>1458.0</ele>
        <time>2023-01-14T11:07:04Z</time>
      </trkpt>
      <trkpt lat="42.6872400" lon="-0.5038990">
        <ele>1458.4</ele>
        <time>2023-01-14T11:07:05Z</time>
      </trkpt>
      <trkpt lat="42.6872230" lon="-0.5038460">
        <ele>1458.6</ele>
        <time>2023-01-14T11:07:06Z</time>
      </trkpt>
      <trkpt lat="42.6872000" lon="-0.5037950">
        <ele>1458.8</ele>
        <time>2023-01-14T11:07:07Z</time>
      </trkpt>
      <trkpt lat="42.6871790" lon="-0.5037450">
        <ele>1459.0</ele>
        <time>2023-01-14T11:07:08Z</time>
      </trkpt>
      <trkpt lat="42.6871580" lon="-0.5036960">
        <ele>1459.2</ele>
        <time>2023-01-14T11:07:09Z</time>
      </trkpt>
      <trkpt lat="42.6871320" lon="-0.5036500">
        <ele>1459.4</ele>
        <time>2023-01-14T11:07:10Z</time>
      </trkpt>
      <trkpt lat="42.6871030" lon="-0.5036100">
        <ele>1459.8</ele>
        <time>2023-01-14T11:07:11Z</time>
      </trkpt>
      <trkpt lat="42.6870710" lon="-0.5035730">
        <ele>1459.8</ele>
        <time>2023-01-14T11:07:12Z</time>
      </trkpt>
      <trkpt lat="42.6870410" lon="-0.5035440">
        <ele>1460.0</ele>
        <time>2023-01-14T11:07:13Z</time>
      </trkpt>
      <trkpt lat="42.6870110" lon="-0.5035200">
        <ele>1460.0</ele>
        <time>2023-01-14T11:07:14Z</time>
      </trkpt>
      <trkpt lat="42.6869760" lon="-0.5034960">
        <ele>1460.2</ele>
        <time>2023-01-14T11:07:15Z</time>
      </trkpt>
      <trkpt lat="42.6869410" lon="-0.5034770">
        <ele>1460.6</ele>
        <time>2023-01-14T11:07:16Z</time>
      </trkpt>
      <trkpt lat="42.6869040" lon="-0.5034540">
        <ele>1461.2</ele>
        <time>2023-01-14T11:07:17Z</time>
      </trkpt>
      <trkpt lat="42.6868680" lon="-0.5034350">
        <ele>1461.6</ele>
        <time>2023-01-14T11:07:18Z</time>
      </trkpt>
      <trkpt lat="42.6868330" lon="-0.5034130">
        <ele>1461.8</ele>
        <time>2023-01-14T11:07:19Z</time>
      </trkpt>
      <trkpt lat="42.6867990" lon="-0.5033910">
        <ele>1461.8</ele>
        <time>2023-01-14T11:07:20Z</time>
      </trkpt>
      <trkpt lat="42.6867630" lon="-0.5033690">
        <ele>1462.0</ele>
        <time>2023-01-14T11:07:21Z</time>
      </trkpt>
      <trkpt lat="42.6867270" lon="-0.5033470">
        <ele>1462.4</ele>
        <time>2023-01-14T11:07:22Z</time>
      </trkpt>
      <trkpt lat="42.6866920" lon="-0.5033280">
        <ele>1462.6</ele>
        <time>2023-01-14T11:07:23Z</time>
      </trkpt>
      <trkpt lat="42.6866560" lon="-0.5033080">
        <ele>1463.2</ele>
        <time>2023-01-14T11:07:24Z</time>
      </trkpt>
      <trkpt lat="42.6866170" lon="-0.5032890">
        <ele>1463.6</ele>
        <time>2023-01-14T11:07:25Z</time>
      </trkpt>
      <trkpt lat="42.6865760" lon="-0.5032720">
        <ele>1464.0</ele>
        <time>2023-01-14T11:07:26Z</time>
      </trkpt>
      <trkpt lat="42.6865390" lon="-0.5032550">
        <ele>1464.2</ele>
        <time>2023-01-14T11:07:27Z</time>
      </trkpt>
      <trkpt lat="42.6865040" lon="-0.5032350">
        <ele>1464.8</ele>
        <time>2023-01-14T11:07:28Z</time>
      </trkpt>
      <trkpt lat="42.6864680" lon="-0.5032140">
        <ele>1465.0</ele>
        <time>2023-01-14T11:07:29Z</time>
      </trkpt>
      <trkpt lat="42.6864320" lon="-0.5031960">
        <ele>1465.2</ele>
        <time>2023-01-14T11:07:30Z</time>
      </trkpt>
      <trkpt lat="42.6863940" lon="-0.5031760">
        <ele>1465.4</ele>
        <time>2023-01-14T11:07:31Z</time>
      </trkpt>
      <trkpt lat="42.6863590" lon="-0.5031520">
        <ele>1465.8</ele>
        <time>2023-01-14T11:07:32Z</time>
      </trkpt>
      <trkpt lat="42.6863250" lon="-0.5031290">
        <ele>1466.2</ele>
        <time>2023-01-14T11:07:33Z</time>
      </trkpt>
      <trkpt lat="42.6862910" lon="-0.5031080">
        <ele>1466.4</ele>
        <time>2023-01-14T11:07:34Z</time>
      </trkpt>
      <trkpt lat="42.6862550" lon="-0.5030900">
        <ele>1466.4</ele>
        <time>2023-01-14T11:07:35Z</time>
      </trkpt>
      <trkpt lat="42.6862180" lon="-0.5030720">
        <ele>1466.8</ele>
        <time>2023-01-14T11:07:36Z</time>
      </trkpt>
      <trkpt lat="42.6861830" lon="-0.5030490">
        <ele>1467.0</ele>
        <time>2023-01-14T11:07:37Z</time>
      </trkpt>
      <trkpt lat="42.6861490" lon="-0.5030250">
        <ele>1467.2</ele>
        <time>2023-01-14T11:07:38Z</time>
      </trkpt>
      <trkpt lat="42.6861170" lon="-0.5029980">
        <ele>1467.6</ele>
        <time>2023-01-14T11:07:39Z</time>
      </trkpt>
      <trkpt lat="42.6860880" lon="-0.5029670">
        <ele>1467.8</ele>
        <time>2023-01-14T11:07:40Z</time>
      </trkpt>
      <trkpt lat="42.6860610" lon="-0.5029350">
        <ele>1468.0</ele>
        <time>2023-01-14T11:07:41Z</time>
      </trkpt>
      <trkpt lat="42.6860290" lon="-0.5029060">
        <ele>1468.6</ele>
        <time>2023-01-14T11:07:42Z</time>
      </trkpt>
      <trkpt lat="42.6859980" lon="-0.5028720">
        <ele>1468.8</ele>
        <time>2023-01-14T11:07:43Z</time>
      </trkpt>
      <trkpt lat="42.6859680" lon="-0.5028350">
        <ele>1469.0</ele>
        <time>2023-01-14T11:07:44Z</time>
      </trkpt>
      <trkpt lat="42.6859410" lon="-0.5027960">
        <ele>1469.2</ele>
        <time>2023-01-14T11:07:45Z</time>
      </trkpt>
      <trkpt lat="42.6859170" lon="-0.5027550">
        <ele>1469.4</ele>
        <time>2023-01-14T11:07:46Z</time>
      </trkpt>
      <trkpt lat="42.6858940" lon="-0.5027120">
        <ele>1469.6</ele>
        <time>2023-01-14T11:07:47Z</time>
      </trkpt>
      <trkpt lat="42.6858700" lon="-0.5026710">
        <ele>1469.8</ele>
        <time>2023-01-14T11:07:48Z</time>
      </trkpt>
      <trkpt lat="42.6858450" lon="-0.5026290">
        <ele>1470.2</ele>
        <time>2023-01-14T11:07:49Z</time>
      </trkpt>
      <trkpt lat="42.6858210" lon="-0.5025860">
        <ele>1470.6</ele>
        <time>2023-01-14T11:07:50Z</time>
      </trkpt>
      <trkpt lat="42.6857980" lon="-0.5025460">
        <ele>1470.8</ele>
        <time>2023-01-14T11:07:51Z</time>
      </trkpt>
      <trkpt lat="42.6857750" lon="-0.5025040">
        <ele>1471.2</ele>
        <time>2023-01-14T11:07:52Z</time>
      </trkpt>
      <trkpt lat="42.6857540" lon="-0.5024620">
        <ele>1471.6</ele>
        <time>2023-01-14T11:07:53Z</time>
      </trkpt>
      <trkpt lat="42.6857340" lon="-0.5024200">
        <ele>1472.0</ele>
        <time>2023-01-14T11:07:54Z</time>
      </trkpt>
      <trkpt lat="42.6857140" lon="-0.5023760">
        <ele>1472.2</ele>
        <time>2023-01-14T11:07:55Z</time>
      </trkpt>
      <trkpt lat="42.6856950" lon="-0.5023340">
        <ele>1472.6</ele>
        <time>2023-01-14T11:07:56Z</time>
      </trkpt>
      <trkpt lat="42.6856760" lon="-0.5022920">
        <ele>1472.8</ele>
        <time>2023-01-14T11:07:57Z</time>
      </trkpt>
      <trkpt lat="42.6856560" lon="-0.5022490">
        <ele>1473.0</ele>
        <time>2023-01-14T11:07:58Z</time>
      </trkpt>
      <trkpt lat="42.6856350" lon="-0.5022070">
        <ele>1473.6</ele>
        <time>2023-01-14T11:07:59Z</time>
      </trkpt>
      <trkpt lat="42.6856140" lon="-0.5021620">
        <ele>1474.0</ele>
        <time>2023-01-14T11:08:00Z</time>
      </trkpt>
      <trkpt lat="42.6855940" lon="-0.5021170">
        <ele>1474.4</ele>
        <time>2023-01-14T11:08:01Z</time>
      </trkpt>
      <trkpt lat="42.6855740" lon="-0.5020730">
        <ele>1474.6</ele>
        <time>2023-01-14T11:08:02Z</time>
      </trkpt>
      <trkpt lat="42.6855530" lon="-0.5020310">
        <ele>1475.0</ele>
        <time>2023-01-14T11:08:03Z</time>
      </trkpt>
      <trkpt lat="42.6855300" lon="-0.5019910">
        <ele>1475.0</ele>
        <time>2023-01-14T11:08:04Z</time>
      </trkpt>
      <trkpt lat="42.6855080" lon="-0.5019490">
        <ele>1475.2</ele>
        <time>2023-01-14T11:08:05Z</time>
      </trkpt>
      <trkpt lat="42.6854870" lon="-0.5019070">
        <ele>1475.8</ele>
        <time>2023-01-14T11:08:06Z</time>
      </trkpt>
      <trkpt lat="42.6854670" lon="-0.5018630">
        <ele>1476.2</ele>
        <time>2023-01-14T11:08:07Z</time>
      </trkpt>
      <trkpt lat="42.6854450" lon="-0.5018210">
        <ele>1476.4</ele>
        <time>2023-01-14T11:08:08Z</time>
      </trkpt>
      <trkpt lat="42.6854220" lon="-0.5017810">
        <ele>1476.8</ele>
        <time>2023-01-14T11:08:09Z</time>
      </trkpt>
      <trkpt lat="42.6854050" lon="-0.5017340">
        <ele>1477.2</ele>
        <time>2023-01-14T11:08:10Z</time>
      </trkpt>
      <trkpt lat="42.6853890" lon="-0.5016870">
        <ele>1477.6</ele>
        <time>2023-01-14T11:08:11Z</time>
      </trkpt>
      <trkpt lat="42.6853720" lon="-0.5016410">
        <ele>1478.0</ele>
        <time>2023-01-14T11:08:12Z</time>
      </trkpt>
      <trkpt lat="42.6853550" lon="-0.5015960">
        <ele>1478.2</ele>
        <time>2023-01-14T11:08:13Z</time>
      </trkpt>
      <trkpt lat="42.6853370" lon="-0.5015530">
        <ele>1478.6</ele>
        <time>2023-01-14T11:08:14Z</time>
      </trkpt>
      <trkpt lat="42.6853220" lon="-0.5015070">
        <ele>1478.6</ele>
        <time>2023-01-14T11:08:15Z</time>
      </trkpt>
      <trkpt lat="42.6853120" lon="-0.5014560">
        <ele>1478.8</ele>
        <time>2023-01-14T11:08:16Z</time>
      </trkpt>
      <trkpt lat="42.6853050" lon="-0.5014040">
        <ele>1479.0</ele>
        <time>2023-01-14T11:08:17Z</time>
      </trkpt>
      <trkpt lat="42.6852970" lon="-0.5013500">
        <ele>1479.2</ele>
        <time>2023-01-14T11:08:18Z</time>
      </trkpt>
      <trkpt lat="42.6852870" lon="-0.5012990">
        <ele>1479.6</ele>
        <time>2023-01-14T11:08:19Z</time>
      </trkpt>
      <trkpt lat="42.6852840" lon="-0.5012450">
        <ele>1480.0</ele>
        <time>2023-01-14T11:08:20Z</time>
      </trkpt>
      <trkpt lat="42.6852840" lon="-0.5011910">
        <ele>1480.4</ele>
        <time>2023-01-14T11:08:21Z</time>
      </trkpt>
      <trkpt lat="42.6852870" lon="-0.5011340">
        <ele>1480.4</ele>
        <time>2023-01-14T11:08:22Z</time>
      </trkpt>
      <trkpt lat="42.6852940" lon="-0.5010800">
        <ele>1480.6</ele>
        <time>2023-01-14T11:08:23Z</time>
      </trkpt>
      <trkpt lat="42.6853000" lon="-0.5010350">
        <ele>1481.0</ele>
        <time>2023-01-14T11:08:24Z</time>
      </trkpt>
      <trkpt lat="42.6853060" lon="-0.5009860">
        <ele>1481.2</ele>
        <time>2023-01-14T11:08:25Z</time>
      </trkpt>
      <trkpt lat="42.6853120" lon="-0.5009290">
        <ele>1481.6</ele>
        <time>2023-01-14T11:08:26Z</time>
      </trkpt>
      <trkpt lat="42.6853160" lon="-0.5008750">
        <ele>1482.0</ele>
        <time>2023-01-14T11:08:27Z</time>
      </trkpt>
      <trkpt lat="42.6853220" lon="-0.5008230">
        <ele>1482.4</ele>
        <time>2023-01-14T11:08:28Z</time>
      </trkpt>
      <trkpt lat="42.6853290" lon="-0.5007710">
        <ele>1482.6</ele>
        <time>2023-01-14T11:08:29Z</time>
      </trkpt>
      <trkpt lat="42.6853370" lon="-0.5007180">
        <ele>1483.0</ele>
        <time>2023-01-14T11:08:30Z</time>
      </trkpt>
      <trkpt lat="42.6853430" lon="-0.5006690">
        <ele>1483.4</ele>
        <time>2023-01-14T11:08:31Z</time>
      </trkpt>
      <trkpt lat="42.6853510" lon="-0.5006200">
        <ele>1483.6</ele>
        <time>2023-01-14T11:08:32Z</time>
      </trkpt>
      <trkpt lat="42.6853550" lon="-0.5005650">
        <ele>1483.6</ele>
        <time>2023-01-14T11:08:33Z</time>
      </trkpt>
      <trkpt lat="42.6853620" lon="-0.5005130">
        <ele>1483.8</ele>
        <time>2023-01-14T11:08:34Z</time>
      </trkpt>
      <trkpt lat="42.6853710" lon="-0.5004580">
        <ele>1484.4</ele>
        <time>2023-01-14T11:08:35Z</time>
      </trkpt>
      <trkpt lat="42.6853810" lon="-0.5004010">
        <ele>1484.8</ele>
        <time>2023-01-14T11:08:36Z</time>
      </trkpt>
      <trkpt lat="42.6853880" lon="-0.5003480">
        <ele>1485.2</ele>
        <time>2023-01-14T11:08:37Z</time>
      </trkpt>
      <trkpt lat="42.6853960" lon="-0.5002970">
        <ele>1485.6</ele>
        <time>2023-01-14T11:08:38Z</time>
      </trkpt>
      <trkpt lat="42.6854050" lon="-0.5002460">
        <ele>1485.8</ele>
        <time>2023-01-14T11:08:39Z</time>
      </trkpt>
      <trkpt lat="42.6854120" lon="-0.5001960">
        <ele>1486.0</ele>
        <time>2023-01-14T11:08:40Z</time>
      </trkpt>
      <trkpt lat="42.6854190" lon="-0.5001460">
        <ele>1486.2</ele>
        <time>2023-01-14T11:08:41Z</time>
      </trkpt>
      <trkpt lat="42.6854270" lon="-0.5001010">
        <ele>1486.2</ele>
        <time>2023-01-14T11:08:42Z</time>
      </trkpt>
      <trkpt lat="42.6854380" lon="-0.5000520">
        <ele>1486.8</ele>
        <time>2023-01-14T11:08:43Z</time>
      </trkpt>
      <trkpt lat="42.6854520" lon="-0.5000060">
        <ele>1487.0</ele>
        <time>2023-01-14T11:08:44Z</time>
      </trkpt>
      <trkpt lat="42.6854670" lon="-0.4999590">
        <ele>1487.4</ele>
        <time>2023-01-14T11:08:45Z</time>
      </trkpt>
      <trkpt lat="42.6854810" lon="-0.4999080">
        <ele>1488.0</ele>
        <time>2023-01-14T11:08:46Z</time>
      </trkpt>
      <trkpt lat="42.6854990" lon="-0.4998570">
        <ele>1488.2</ele>
        <time>2023-01-14T11:08:47Z</time>
      </trkpt>
      <trkpt lat="42.6855160" lon="-0.4998050">
        <ele>1488.6</ele>
        <time>2023-01-14T11:08:48Z</time>
      </trkpt>
      <trkpt lat="42.6855340" lon="-0.4997530">
        <ele>1488.8</ele>
        <time>2023-01-14T11:08:49Z</time>
      </trkpt>
      <trkpt lat="42.6855510" lon="-0.4997050">
        <ele>1489.0</ele>
        <time>2023-01-14T11:08:50Z</time>
      </trkpt>
      <trkpt lat="42.6855690" lon="-0.4996550">
        <ele>1489.2</ele>
        <time>2023-01-14T11:08:51Z</time>
      </trkpt>
      <trkpt lat="42.6855850" lon="-0.4996090">
        <ele>1489.8</ele>
        <time>2023-01-14T11:08:52Z</time>
      </trkpt>
      <trkpt lat="42.6855990" lon="-0.4995610">
        <ele>1490.0</ele>
        <time>2023-01-14T11:08:53Z</time>
      </trkpt>
      <trkpt lat="42.6856160" lon="-0.4995150">
        <ele>1490.2</ele>
        <time>2023-01-14T11:08:54Z</time>
      </trkpt>
      <trkpt lat="42.6856320" lon="-0.4994700">
        <ele>1490.4</ele>
        <time>2023-01-14T11:08:55Z</time>
      </trkpt>
      <trkpt lat="42.6856490" lon="-0.4994250">
        <ele>1490.8</ele>
        <time>2023-01-14T11:08:56Z</time>
      </trkpt>
      <trkpt lat="42.6856620" lon="-0.4993750">
        <ele>1491.2</ele>
        <time>2023-01-14T11:08:57Z</time>
      </trkpt>
      <trkpt lat="42.6856740" lon="-0.4993270">
        <ele>1491.4</ele>
        <time>2023-01-14T11:08:58Z</time>
      </trkpt>
      <trkpt lat="42.6856880" lon="-0.4992750">
        <ele>1491.6</ele>
        <time>2023-01-14T11:08:59Z</time>
      </trkpt>
      <trkpt lat="42.6856980" lon="-0.4992160">
        <ele>1492.4</ele>
        <time>2023-01-14T11:09:00Z</time>
      </trkpt>
      <trkpt lat="42.6857070" lon="-0.4991620">
        <ele>1492.6</ele>
        <time>2023-01-14T11:09:01Z</time>
      </trkpt>
      <trkpt lat="42.6857180" lon="-0.4991060">
        <ele>1492.8</ele>
        <time>2023-01-14T11:09:02Z</time>
      </trkpt>
      <trkpt lat="42.6857250" lon="-0.4990480">
        <ele>1493.0</ele>
        <time>2023-01-14T11:09:03Z</time>
      </trkpt>
      <trkpt lat="42.6857310" lon="-0.4989880">
        <ele>1493.2</ele>
        <time>2023-01-14T11:09:04Z</time>
      </trkpt>
      <trkpt lat="42.6857370" lon="-0.4989280">
        <ele>1493.8</ele>
        <time>2023-01-14T11:09:05Z</time>
      </trkpt>
      <trkpt lat="42.6857440" lon="-0.4988750">
        <ele>1494.2</ele>
        <time>2023-01-14T11:09:06Z</time>
      </trkpt>
      <trkpt lat="42.6857520" lon="-0.4988210">
        <ele>1494.4</ele>
        <time>2023-01-14T11:09:07Z</time>
      </trkpt>
      <trkpt lat="42.6857590" lon="-0.4987690">
        <ele>1494.6</ele>
        <time>2023-01-14T11:09:08Z</time>
      </trkpt>
      <trkpt lat="42.6857620" lon="-0.4987190">
        <ele>1495.0</ele>
        <time>2023-01-14T11:09:09Z</time>
      </trkpt>
      <trkpt lat="42.6857670" lon="-0.4986720">
        <ele>1495.6</ele>
        <time>2023-01-14T11:09:10Z</time>
      </trkpt>
      <trkpt lat="42.6857740" lon="-0.4986200">
        <ele>1496.2</ele>
        <time>2023-01-14T11:09:11Z</time>
      </trkpt>
      <trkpt lat="42.6857790" lon="-0.4985690">
        <ele>1496.8</ele>
        <time>2023-01-14T11:09:12Z</time>
      </trkpt>
      <trkpt lat="42.6857860" lon="-0.4985150">
        <ele>1497.4</ele>
        <time>2023-01-14T11:09:13Z</time>
      </trkpt>
      <trkpt lat="42.6857910" lon="-0.4984610">
        <ele>1497.8</ele>
        <time>2023-01-14T11:09:14Z</time>
      </trkpt>
      <trkpt lat="42.6857940" lon="-0.4984070">
        <ele>1498.0</ele>
        <time>2023-01-14T11:09:15Z</time>
      </trkpt>
      <trkpt lat="42.6857960" lon="-0.4983540">
        <ele>1498.2</ele>
        <time>2023-01-14T11:09:16Z</time>
      </trkpt>
      <trkpt lat="42.6858040" lon="-0.4983000">
        <ele>1498.4</ele>
        <time>2023-01-14T11:09:17Z</time>
      </trkpt>
      <trkpt lat="42.6858110" lon="-0.4982470">
        <ele>1498.6</ele>
        <time>2023-01-14T11:09:18Z</time>
      </trkpt>
      <trkpt lat="42.6858160" lon="-0.4981930">
        <ele>1498.8</ele>
        <time>2023-01-14T11:09:19Z</time>
      </trkpt>
      <trkpt lat="42.6858250" lon="-0.4981410">
        <ele>1499.2</ele>
        <time>2023-01-14T11:09:20Z</time>
      </trkpt>
      <trkpt lat="42.6858330" lon="-0.4980890">
        <ele>1499.6</ele>
        <time>2023-01-14T11:09:21Z</time>
      </trkpt>
      <trkpt lat="42.6858420" lon="-0.4980390">
        <ele>1499.8</ele>
        <time>2023-01-14T11:09:22Z</time>
      </trkpt>
      <trkpt lat="42.6858550" lon="-0.4979800">
        <ele>1500.2</ele>
        <time>2023-01-14T11:09:23Z</time>
      </trkpt>
      <trkpt lat="42.6858660" lon="-0.4979190">
        <ele>1501.0</ele>
        <time>2023-01-14T11:09:24Z</time>
      </trkpt>
      <trkpt lat="42.6858750" lon="-0.4978600">
        <ele>1501.2</ele>
        <time>2023-01-14T11:09:25Z</time>
      </trkpt>
      <trkpt lat="42.6858840" lon="-0.4978060">
        <ele>1501.8</ele>
        <time>2023-01-14T11:09:26Z</time>
      </trkpt>
      <trkpt lat="42.6858910" lon="-0.4977510">
        <ele>1502.2</ele>
        <time>2023-01-14T11:09:27Z</time>
      </trkpt>
      <trkpt lat="42.6858950" lon="-0.4976960">
        <ele>1503.2</ele>
        <time>2023-01-14T11:09:28Z</time>
      </trkpt>
      <trkpt lat="42.6858990" lon="-0.4976410">
        <ele>1503.8</ele>
        <time>2023-01-14T11:09:29Z</time>
      </trkpt>
      <trkpt lat="42.6859030" lon="-0.4975890">
        <ele>1504.2</ele>
        <time>2023-01-14T11:09:30Z</time>
      </trkpt>
      <trkpt lat="42.6859050" lon="-0.4975360">
        <ele>1504.4</ele>
        <time>2023-01-14T11:09:31Z</time>
      </trkpt>
      <trkpt lat="42.6859040" lon="-0.4974820">
        <ele>1505.0</ele>
        <time>2023-01-14T11:09:32Z</time>
      </trkpt>
      <trkpt lat="42.6859030" lon="-0.4974290">
        <ele>1505.6</ele>
        <time>2023-01-14T11:09:33Z</time>
      </trkpt>
      <trkpt lat="42.6859000" lon="-0.4973760">
        <ele>1506.0</ele>
        <time>2023-01-14T11:09:34Z</time>
      </trkpt>
      <trkpt lat="42.6859030" lon="-0.4973180">
        <ele>1506.2</ele>
        <time>2023-01-14T11:09:35Z</time>
      </trkpt>
      <trkpt lat="42.6859080" lon="-0.4972590">
        <ele>1506.6</ele>
        <time>2023-01-14T11:09:36Z</time>
      </trkpt>
      <trkpt lat="42.6859130" lon="-0.4972040">
        <ele>1507.0</ele>
        <time>2023-01-14T11:09:37Z</time>
      </trkpt>
      <trkpt lat="42.6859160" lon="-0.4971500">
        <ele>1507.4</ele>
        <time>2023-01-14T11:09:38Z</time>
      </trkpt>
      <trkpt lat="42.6859180" lon="-0.4970970">
        <ele>1507.8</ele>
        <time>2023-01-14T11:09:39Z</time>
      </trkpt>
      <trkpt lat="42.6859210" lon="-0.4970450">
        <ele>1508.4</ele>
        <time>2023-01-14T11:09:40Z</time>
      </trkpt>
      <trkpt lat="42.6859280" lon="-0.4969930">
        <ele>1508.8</ele>
        <time>2023-01-14T11:09:41Z</time>
      </trkpt>
      <trkpt lat="42.6859340" lon="-0.4969400">
        <ele>1509.0</ele>
        <time>2023-01-14T11:09:42Z</time>
      </trkpt>
      <trkpt lat="42.6859390" lon="-0.4968870">
        <ele>1509.6</ele>
        <time>2023-01-14T11:09:43Z</time>
      </trkpt>
      <trkpt lat="42.6859410" lon="-0.4968350">
        <ele>1509.8</ele>
        <time>2023-01-14T11:09:44Z</time>
      </trkpt>
      <trkpt lat="42.6859440" lon="-0.4967820">
        <ele>1508.8</ele>
        <time>2023-01-14T11:09:45Z</time>
      </trkpt>
      <trkpt lat="42.6859470" lon="-0.4967300">
        <ele>1508.8</ele>
        <time>2023-01-14T11:09:46Z</time>
      </trkpt>
      <trkpt lat="42.6859490" lon="-0.4966780">
        <ele>1508.8</ele>
        <time>2023-01-14T11:09:47Z</time>
      </trkpt>
      <trkpt lat="42.6859520" lon="-0.4966270">
        <ele>1508.8</ele>
        <time>2023-01-14T11:09:48Z</time>
      </trkpt>
      <trkpt lat="42.6859570" lon="-0.4965730">
        <ele>1509.0</ele>
        <time>2023-01-14T11:09:49Z</time>
      </trkpt>
      <trkpt lat="42.6859630" lon="-0.4965190">
        <ele>1509.6</ele>
        <time>2023-01-14T11:09:50Z</time>
      </trkpt>
      <trkpt lat="42.6859690" lon="-0.4964690">
        <ele>1510.0</ele>
        <time>2023-01-14T11:09:51Z</time>
      </trkpt>
      <trkpt lat="42.6859740" lon="-0.4964160">
        <ele>1510.2</ele>
        <time>2023-01-14T11:09:52Z</time>
      </trkpt>
      <trkpt lat="42.6859740" lon="-0.4963620">
        <ele>1510.4</ele>
        <time>2023-01-14T11:09:53Z</time>
      </trkpt>
      <trkpt lat="42.6859770" lon="-0.4963110">
        <ele>1510.6</ele>
        <time>2023-01-14T11:09:54Z</time>
      </trkpt>
      <trkpt lat="42.6859830" lon="-0.4962600">
        <ele>1510.8</ele>
        <time>2023-01-14T11:09:55Z</time>
      </trkpt>
      <trkpt lat="42.6859900" lon="-0.4962090">
        <ele>1511.4</ele>
        <time>2023-01-14T11:09:56Z</time>
      </trkpt>
      <trkpt lat="42.6859980" lon="-0.4961610">
        <ele>1511.8</ele>
        <time>2023-01-14T11:09:57Z</time>
      </trkpt>
      <trkpt lat="42.6860090" lon="-0.4961160">
        <ele>1512.0</ele>
        <time>2023-01-14T11:09:58Z</time>
      </trkpt>
      <trkpt lat="42.6860200" lon="-0.4960680">
        <ele>1512.2</ele>
        <time>2023-01-14T11:09:59Z</time>
      </trkpt>
      <trkpt lat="42.6860330" lon="-0.4960170">
        <ele>1512.2</ele>
        <time>2023-01-14T11:10:00Z</time>
      </trkpt>
      <trkpt lat="42.6860410" lon="-0.4959690">
        <ele>1513.2</ele>
        <time>2023-01-14T11:10:01Z</time>
      </trkpt>
      <trkpt lat="42.6860530" lon="-0.4959250">
        <ele>1513.8</ele>
        <time>2023-01-14T11:10:02Z</time>
      </trkpt>
      <trkpt lat="42.6860700" lon="-0.4958800">
        <ele>1514.2</ele>
        <time>2023-01-14T11:10:03Z</time>
      </trkpt>
      <trkpt lat="42.6860880" lon="-0.4958380">
        <ele>1514.4</ele>
        <time>2023-01-14T11:10:04Z</time>
      </trkpt>
      <trkpt lat="42.6861100" lon="-0.4958040">
        <ele>1514.4</ele>
        <time>2023-01-14T11:10:05Z</time>
      </trkpt>
      <trkpt lat="42.6861340" lon="-0.4957720">
        <ele>1515.0</ele>
        <time>2023-01-14T11:10:06Z</time>
      </trkpt>
      <trkpt lat="42.6861590" lon="-0.4957420">
        <ele>1515.2</ele>
        <time>2023-01-14T11:10:07Z</time>
      </trkpt>
      <trkpt lat="42.6861890" lon="-0.4957170">
        <ele>1515.4</ele>
        <time>2023-01-14T11:10:08Z</time>
      </trkpt>
      <trkpt lat="42.6862230" lon="-0.4956970">
        <ele>1515.8</ele>
        <time>2023-01-14T11:10:09Z</time>
      </trkpt>
      <trkpt lat="42.6862600" lon="-0.4956810">
        <ele>1516.0</ele>
        <time>2023-01-14T11:10:10Z</time>
      </trkpt>
      <trkpt lat="42.6862950" lon="-0.4956770">
        <ele>1516.0</ele>
        <time>2023-01-14T11:10:11Z</time>
      </trkpt>
      <trkpt lat="42.6863310" lon="-0.4956760">
        <ele>1516.2</ele>
        <time>2023-01-14T11:10:12Z</time>
      </trkpt>
      <trkpt lat="42.6863660" lon="-0.4956750">
        <ele>1516.4</ele>
        <time>2023-01-14T11:10:13Z</time>
      </trkpt>
      <trkpt lat="42.6863990" lon="-0.4956740">
        <ele>1516.6</ele>
        <time>2023-01-14T11:10:14Z</time>
      </trkpt>
      <trkpt lat="42.6864430" lon="-0.4956660">
        <ele>1516.8</ele>
        <time>2023-01-14T11:10:15Z</time>
      </trkpt>
      <trkpt lat="42.6864880" lon="-0.4956580">
        <ele>1517.2</ele>
        <time>2023-01-14T11:10:16Z</time>
      </trkpt>
      <trkpt lat="42.6865300" lon="-0.4956420">
        <ele>1517.6</ele>
        <time>2023-01-14T11:10:17Z</time>
      </trkpt>
      <trkpt lat="42.6865710" lon="-0.4956330">
        <ele>1517.8</ele>
        <time>2023-01-14T11:10:18Z</time>
      </trkpt>
      <trkpt lat="42.6866140" lon="-0.4956210">
        <ele>1518.2</ele>
        <time>2023-01-14T11:10:19Z</time>
      </trkpt>
      <trkpt lat="42.6866500" lon="-0.4956030">
        <ele>1518.6</ele>
        <time>2023-01-14T11:10:20Z</time>
      </trkpt>
      <trkpt lat="42.6866870" lon="-0.4955860">
        <ele>1519.2</ele>
        <time>2023-01-14T11:10:21Z</time>
      </trkpt>
      <trkpt lat="42.6867250" lon="-0.4955690">
        <ele>1519.8</ele>
        <time>2023-01-14T11:10:22Z</time>
      </trkpt>
      <trkpt lat="42.6867660" lon="-0.4955510">
        <ele>1520.2</ele>
        <time>2023-01-14T11:10:23Z</time>
      </trkpt>
      <trkpt lat="42.6868120" lon="-0.4955300">
        <ele>1520.6</ele>
        <time>2023-01-14T11:10:24Z</time>
      </trkpt>
      <trkpt lat="42.6868520" lon="-0.4955140">
        <ele>1520.8</ele>
        <time>2023-01-14T11:10:25Z</time>
      </trkpt>
      <trkpt lat="42.6868890" lon="-0.4954950">
        <ele>1521.2</ele>
        <time>2023-01-14T11:10:26Z</time>
      </trkpt>
      <trkpt lat="42.6869280" lon="-0.4954710">
        <ele>1522.0</ele>
        <time>2023-01-14T11:10:27Z</time>
      </trkpt>
      <trkpt lat="42.6869690" lon="-0.4954470">
        <ele>1522.4</ele>
        <time>2023-01-14T11:10:28Z</time>
      </trkpt>
      <trkpt lat="42.6870090" lon="-0.4954210">
        <ele>1523.0</ele>
        <time>2023-01-14T11:10:29Z</time>
      </trkpt>
      <trkpt lat="42.6870390" lon="-0.4953790">
        <ele>1523.2</ele>
        <time>2023-01-14T11:10:30Z</time>
      </trkpt>
      <trkpt lat="42.6870540" lon="-0.4953380">
        <ele>1523.8</ele>
        <time>2023-01-14T11:10:31Z</time>
      </trkpt>
      <trkpt lat="42.6870670" lon="-0.4952890">
        <ele>1524.2</ele>
        <time>2023-01-14T11:10:32Z</time>
      </trkpt>
      <trkpt lat="42.6870800" lon="-0.4952340">
        <ele>1524.6</ele>
        <time>2023-01-14T11:10:33Z</time>
      </trkpt>
      <trkpt lat="42.6870920" lon="-0.4951790">
        <ele>1524.8</ele>
        <time>2023-01-14T11:10:34Z</time>
      </trkpt>
      <trkpt lat="42.6871070" lon="-0.4951230">
        <ele>1525.2</ele>
        <time>2023-01-14T11:10:35Z</time>
      </trkpt>
      <trkpt lat="42.6871170" lon="-0.4950680">
        <ele>1525.6</ele>
        <time>2023-01-14T11:10:36Z</time>
      </trkpt>
      <trkpt lat="42.6871250" lon="-0.4950120">
        <ele>1525.8</ele>
        <time>2023-01-14T11:10:37Z</time>
      </trkpt>
      <trkpt lat="42.6871230" lon="-0.4949550">
        <ele>1526.2</ele>
        <time>2023-01-14T11:10:38Z</time>
      </trkpt>
      <trkpt lat="42.6871170" lon="-0.4948990">
        <ele>1526.6</ele>
        <time>2023-01-14T11:10:39Z</time>
      </trkpt>
      <trkpt lat="42.6871100" lon="-0.4948440">
        <ele>1527.0</ele>
        <time>2023-01-14T11:10:40Z</time>
      </trkpt>
      <trkpt lat="42.6871070" lon="-0.4947930">
        <ele>1527.2</ele>
        <time>2023-01-14T11:10:41Z</time>
      </trkpt>
      <trkpt lat="42.6871040" lon="-0.4947420">
        <ele>1528.0</ele>
        <time>2023-01-14T11:10:42Z</time>
      </trkpt>
      <trkpt lat="42.6871000" lon="-0.4946940">
        <ele>1528.4</ele>
        <time>2023-01-14T11:10:43Z</time>
      </trkpt>
      <trkpt lat="42.6871040" lon="-0.4946430">
        <ele>1529.0</ele>
        <time>2023-01-14T11:10:44Z</time>
      </trkpt>
      <trkpt lat="42.6871060" lon="-0.4945960">
        <ele>1529.4</ele>
        <time>2023-01-14T11:10:45Z</time>
      </trkpt>
      <trkpt lat="42.6871100" lon="-0.4945500">
        <ele>1529.8</ele>
        <time>2023-01-14T11:10:46Z</time>
      </trkpt>
      <trkpt lat="42.6871160" lon="-0.4945030">
        <ele>1530.2</ele>
        <time>2023-01-14T11:10:47Z</time>
      </trkpt>
      <trkpt lat="42.6871240" lon="-0.4944550">
        <ele>1530.4</ele>
        <time>2023-01-14T11:10:48Z</time>
      </trkpt>
      <trkpt lat="42.6871370" lon="-0.4944070">
        <ele>1530.8</ele>
        <time>2023-01-14T11:10:49Z</time>
      </trkpt>
      <trkpt lat="42.6871540" lon="-0.4943600">
        <ele>1531.2</ele>
        <time>2023-01-14T11:10:50Z</time>
      </trkpt>
      <trkpt lat="42.6871690" lon="-0.4943160">
        <ele>1531.4</ele>
        <time>2023-01-14T11:10:51Z</time>
      </trkpt>
      <trkpt lat="42.6871840" lon="-0.4942720">
        <ele>1532.0</ele>
        <time>2023-01-14T11:10:52Z</time>
      </trkpt>
      <trkpt lat="42.6872020" lon="-0.4942280">
        <ele>1532.4</ele>
        <time>2023-01-14T11:10:53Z</time>
      </trkpt>
      <trkpt lat="42.6872260" lon="-0.4941900">
        <ele>1532.6</ele>
        <time>2023-01-14T11:10:54Z</time>
      </trkpt>
      <trkpt lat="42.6872560" lon="-0.4941580">
        <ele>1533.2</ele>
        <time>2023-01-14T11:10:55Z</time>
      </trkpt>
      <trkpt lat="42.6872810" lon="-0.4941230">
        <ele>1533.8</ele>
        <time>2023-01-14T11:10:56Z</time>
      </trkpt>
      <trkpt lat="42.6873070" lon="-0.4940910">
        <ele>1534.4</ele>
        <time>2023-01-14T11:10:57Z</time>
      </trkpt>
      <trkpt lat="42.6873350" lon="-0.4940580">
        <ele>1534.8</ele>
        <time>2023-01-14T11:10:58Z</time>
      </trkpt>
      <trkpt lat="42.6873650" lon="-0.4940290">
        <ele>1535.2</ele>
        <time>2023-01-14T11:10:59Z</time>
      </trkpt>
      <trkpt lat="42.6873910" lon="-0.4939960">
        <ele>1535.4</ele>
        <time>2023-01-14T11:11:00Z</time>
      </trkpt>
      <trkpt lat="42.6874180" lon="-0.4939600">
        <ele>1535.8</ele>
        <time>2023-01-14T11:11:01Z</time>
      </trkpt>
      <trkpt lat="42.6874430" lon="-0.4939220">
        <ele>1536.0</ele>
        <time>2023-01-14T11:11:02Z</time>
      </trkpt>
      <trkpt lat="42.6874540" lon="-0.4938890">
        <ele>1536.4</ele>
        <time>2023-01-14T11:11:03Z</time>
      </trkpt>
      <trkpt lat="42.6874630" lon="-0.4938460">
        <ele>1537.2</ele>
        <time>2023-01-14T11:11:04Z</time>
      </trkpt>
      <trkpt lat="42.6874630" lon="-0.4938020">
        <ele>1537.6</ele>
        <time>2023-01-14T11:11:05Z</time>
      </trkpt>
      <trkpt lat="42.6874580" lon="-0.4937570">
        <ele>1538.2</ele>
        <time>2023-01-14T11:11:06Z</time>
      </trkpt>
      <trkpt lat="42.6874500" lon="-0.4937130">
        <ele>1538.6</ele>
        <time>2023-01-14T11:11:07Z</time>
      </trkpt>
      <trkpt lat="42.6874410" lon="-0.4936750">
        <ele>1538.8</ele>
        <time>2023-01-14T11:11:08Z</time>
      </trkpt>
      <trkpt lat="42.6874300" lon="-0.4936370">
        <ele>1539.0</ele>
        <time>2023-01-14T11:11:09Z</time>
      </trkpt>
      <trkpt lat="42.6874220" lon="-0.4935950">
        <ele>1539.4</ele>
        <time>2023-01-14T11:11:10Z</time>
      </trkpt>
      <trkpt lat="42.6874180" lon="-0.4935510">
        <ele>1539.8</ele>
        <time>2023-01-14T11:11:11Z</time>
      </trkpt>
      <trkpt lat="42.6874220" lon="-0.4935070">
        <ele>1540.4</ele>
        <time>2023-01-14T11:11:12Z</time>
      </trkpt>
      <trkpt lat="42.6874290" lon="-0.4934650">
        <ele>1540.6</ele>
        <time>2023-01-14T11:11:13Z</time>
      </trkpt>
      <trkpt lat="42.6874370" lon="-0.4934220">
        <ele>1541.2</ele>
        <time>2023-01-14T11:11:14Z</time>
      </trkpt>
      <trkpt lat="42.6874440" lon="-0.4933770">
        <ele>1541.4</ele>
        <time>2023-01-14T11:11:15Z</time>
      </trkpt>
      <trkpt lat="42.6874510" lon="-0.4933330">
        <ele>1541.8</ele>
        <time>2023-01-14T11:11:16Z</time>
      </trkpt>
      <trkpt lat="42.6874610" lon="-0.4932890">
        <ele>1542.2</ele>
        <time>2023-01-14T11:11:17Z</time>
      </trkpt>
      <trkpt lat="42.6874700" lon="-0.4932530">
        <ele>1542.6</ele>
        <time>2023-01-14T11:11:18Z</time>
      </trkpt>
      <trkpt lat="42.6874770" lon="-0.4932160">
        <ele>1543.0</ele>
        <time>2023-01-14T11:11:19Z</time>
      </trkpt>
      <trkpt lat="42.6874880" lon="-0.4931750">
        <ele>1543.2</ele>
        <time>2023-01-14T11:11:20Z</time>
      </trkpt>
      <trkpt lat="42.6875000" lon="-0.4931320">
        <ele>1543.8</ele>
        <time>2023-01-14T11:11:21Z</time>
      </trkpt>
      <trkpt lat="42.6875160" lon="-0.4930890">
        <ele>1544.2</ele>
        <time>2023-01-14T11:11:22Z</time>
      </trkpt>
      <trkpt lat="42.6875320" lon="-0.4930470">
        <ele>1544.8</ele>
        <time>2023-01-14T11:11:23Z</time>
      </trkpt>
      <trkpt lat="42.6875500" lon="-0.4930060">
        <ele>1545.4</ele>
        <time>2023-01-14T11:11:24Z</time>
      </trkpt>
      <trkpt lat="42.6875730" lon="-0.4929680">
        <ele>1545.6</ele>
        <time>2023-01-14T11:11:25Z</time>
      </trkpt>
      <trkpt lat="42.6876010" lon="-0.4929330">
        <ele>1545.8</ele>
        <time>2023-01-14T11:11:26Z</time>
      </trkpt>
      <trkpt lat="42.6876300" lon="-0.4929020">
        <ele>1546.0</ele>
        <time>2023-01-14T11:11:27Z</time>
      </trkpt>
      <trkpt lat="42.6876570" lon="-0.4928710">
        <ele>1546.6</ele>
        <time>2023-01-14T11:11:28Z</time>
      </trkpt>
      <trkpt lat="42.6876840" lon="-0.4928430">
        <ele>1547.0</ele>
        <time>2023-01-14T11:11:29Z</time>
      </trkpt>
      <trkpt lat="42.6877100" lon="-0.4928120">
        <ele>1547.4</ele>
        <time>2023-01-14T11:11:30Z</time>
      </trkpt>
      <trkpt lat="42.6877360" lon="-0.4927850">
        <ele>1547.6</ele>
        <time>2023-01-14T11:11:31Z</time>
      </trkpt>
      <trkpt lat="42.6877640" lon="-0.4927580">
        <ele>1548.0</ele>
        <time>2023-01-14T11:11:32Z</time>
      </trkpt>
      <trkpt lat="42.6877950" lon="-0.4927280">
        <ele>1548.2</ele>
        <time>2023-01-14T11:11:33Z</time>
      </trkpt>
      <trkpt lat="42.6878270" lon="-0.4926950">
        <ele>1548.8</ele>
        <time>2023-01-14T11:11:34Z</time>
      </trkpt>
      <trkpt lat="42.6878570" lon="-0.4926660">
        <ele>1549.2</ele>
        <time>2023-01-14T11:11:35Z</time>
      </trkpt>
      <trkpt lat="42.6878880" lon="-0.4926380">
        <ele>1549.4</ele>
        <time>2023-01-14T11:11:36Z</time>
      </trkpt>
      <trkpt lat="42.6879190" lon="-0.4926110">
        <ele>1549.4</ele>
        <time>2023-01-14T11:11:37Z</time>
      </trkpt>
      <trkpt lat="42.6879490" lon="-0.4925840">
        <ele>1549.8</ele>
        <time>2023-01-14T11:11:38Z</time>
      </trkpt>
      <trkpt lat="42.6879790" lon="-0.4925580">
        <ele>1550.0</ele>
        <time>2023-01-14T11:11:39Z</time>
      </trkpt>
      <trkpt lat="42.6880110" lon="-0.4925320">
        <ele>1550.0</ele>
        <time>2023-01-14T11:11:40Z</time>
      </trkpt>
      <trkpt lat="42.6880440" lon="-0.4925060">
        <ele>1550.2</ele>
        <time>2023-01-14T11:11:41Z</time>
      </trkpt>
      <trkpt lat="42.6880780" lon="-0.4924810">
        <ele>1550.8</ele>
        <time>2023-01-14T11:11:42Z</time>
      </trkpt>
      <trkpt lat="42.6881150" lon="-0.4924620">
        <ele>1551.4</ele>
        <time>2023-01-14T11:11:43Z</time>
      </trkpt>
      <trkpt lat="42.6881540" lon="-0.4924460">
        <ele>1551.8</ele>
        <time>2023-01-14T11:11:44Z</time>
      </trkpt>
      <trkpt lat="42.6881900" lon="-0.4924270">
        <ele>1552.2</ele>
        <time>2023-01-14T11:11:45Z</time>
      </trkpt>
      <trkpt lat="42.6882260" lon="-0.4924060">
        <ele>1552.4</ele>
        <time>2023-01-14T11:11:46Z</time>
      </trkpt>
      <trkpt lat="42.6882620" lon="-0.4923840">
        <ele>1552.6</ele>
        <time>2023-01-14T11:11:47Z</time>
      </trkpt>
      <trkpt lat="42.6883000" lon="-0.4923600">
        <ele>1552.8</ele>
        <time>2023-01-14T11:11:48Z</time>
      </trkpt>
      <trkpt lat="42.6883390" lon="-0.4923340">
        <ele>1553.0</ele>
        <time>2023-01-14T11:11:49Z</time>
      </trkpt>
      <trkpt lat="42.6883750" lon="-0.4923030">
        <ele>1553.2</ele>
        <time>2023-01-14T11:11:50Z</time>
      </trkpt>
      <trkpt lat="42.6884080" lon="-0.4922640">
        <ele>1553.4</ele>
        <time>2023-01-14T11:11:51Z</time>
      </trkpt>
      <trkpt lat="42.6884390" lon="-0.4922180">
        <ele>1553.4</ele>
        <time>2023-01-14T11:11:52Z</time>
      </trkpt>
      <trkpt lat="42.6884660" lon="-0.4921720">
        <ele>1553.6</ele>
        <time>2023-01-14T11:11:53Z</time>
      </trkpt>
      <trkpt lat="42.6884850" lon="-0.4921220">
        <ele>1553.8</ele>
        <time>2023-01-14T11:11:54Z</time>
      </trkpt>
      <trkpt lat="42.6884930" lon="-0.4920680">
        <ele>1554.0</ele>
        <time>2023-01-14T11:11:55Z</time>
      </trkpt>
      <trkpt lat="42.6884840" lon="-0.4920150">
        <ele>1554.2</ele>
        <time>2023-01-14T11:11:56Z</time>
      </trkpt>
      <trkpt lat="42.6884570" lon="-0.4919710">
        <ele>1554.4</ele>
        <time>2023-01-14T11:11:57Z</time>
      </trkpt>
      <trkpt lat="42.6884260" lon="-0.4919360">
        <ele>1554.8</ele>
        <time>2023-01-14T11:11:58Z</time>
      </trkpt>
      <trkpt lat="42.6883930" lon="-0.4919040">
        <ele>1555.2</ele>
        <time>2023-01-14T11:11:59Z</time>
      </trkpt>
      <trkpt lat="42.6883600" lon="-0.4918730">
        <ele>1555.4</ele>
        <time>2023-01-14T11:12:00Z</time>
      </trkpt>
      <trkpt lat="42.6883280" lon="-0.4918430">
        <ele>1555.6</ele>
        <time>2023-01-14T11:12:01Z</time>
      </trkpt>
      <trkpt lat="42.6882970" lon="-0.4918130">
        <ele>1556.0</ele>
        <time>2023-01-14T11:12:02Z</time>
      </trkpt>
      <trkpt lat="42.6882650" lon="-0.4917860">
        <ele>1556.2</ele>
        <time>2023-01-14T11:12:03Z</time>
      </trkpt>
      <trkpt lat="42.6882320" lon="-0.4917590">
        <ele>1556.4</ele>
        <time>2023-01-14T11:12:04Z</time>
      </trkpt>
      <trkpt lat="42.6881980" lon="-0.4917320">
        <ele>1556.6</ele>
        <time>2023-01-14T11:12:05Z</time>
      </trkpt>
      <trkpt lat="42.6881630" lon="-0.4917030">
        <ele>1556.8</ele>
        <time>2023-01-14T11:12:06Z</time>
      </trkpt>
      <trkpt lat="42.6881290" lon="-0.4916740">
        <ele>1557.0</ele>
        <time>2023-01-14T11:12:07Z</time>
      </trkpt>
      <trkpt lat="42.6880920" lon="-0.4916480">
        <ele>1557.0</ele>
        <time>2023-01-14T11:12:08Z</time>
      </trkpt>
      <trkpt lat="42.6880550" lon="-0.4916230">
        <ele>1557.2</ele>
        <time>2023-01-14T11:12:09Z</time>
      </trkpt>
      <trkpt lat="42.6880200" lon="-0.4915940">
        <ele>1557.4</ele>
        <time>2023-01-14T11:12:10Z</time>
      </trkpt>
      <trkpt lat="42.6879850" lon="-0.4915630">
        <ele>1557.4</ele>
        <time>2023-01-14T11:12:11Z</time>
      </trkpt>
      <trkpt lat="42.6879530" lon="-0.4915300">
        <ele>1557.6</ele>
        <time>2023-01-14T11:12:12Z</time>
      </trkpt>
      <trkpt lat="42.6879230" lon="-0.4914910">
        <ele>1558.0</ele>
        <time>2023-01-14T11:12:13Z</time>
      </trkpt>
      <trkpt lat="42.6878920" lon="-0.4914520">
        <ele>1558.4</ele>
        <time>2023-01-14T11:12:14Z</time>
      </trkpt>
      <trkpt lat="42.6878620" lon="-0.4914080">
        <ele>1558.8</ele>
        <time>2023-01-14T11:12:15Z</time>
      </trkpt>
      <trkpt lat="42.6878370" lon="-0.4913630">
        <ele>1559.0</ele>
        <time>2023-01-14T11:12:16Z</time>
      </trkpt>
      <trkpt lat="42.6878130" lon="-0.4913170">
        <ele>1559.2</ele>
        <time>2023-01-14T11:12:17Z</time>
      </trkpt>
      <trkpt lat="42.6877930" lon="-0.4912640">
        <ele>1559.4</ele>
        <time>2023-01-14T11:12:18Z</time>
      </trkpt>
      <trkpt lat="42.6877760" lon="-0.4912100">
        <ele>1559.8</ele>
        <time>2023-01-14T11:12:19Z</time>
      </trkpt>
      <trkpt lat="42.6877610" lon="-0.4911540">
        <ele>1560.0</ele>
        <time>2023-01-14T11:12:20Z</time>
      </trkpt>
      <trkpt lat="42.6877480" lon="-0.4910990">
        <ele>1560.6</ele>
        <time>2023-01-14T11:12:21Z</time>
      </trkpt>
      <trkpt lat="42.6877330" lon="-0.4910410">
        <ele>1560.8</ele>
        <time>2023-01-14T11:12:22Z</time>
      </trkpt>
      <trkpt lat="42.6877180" lon="-0.4909860">
        <ele>1560.8</ele>
        <time>2023-01-14T11:12:23Z</time>
      </trkpt>
      <trkpt lat="42.6877080" lon="-0.4909280">
        <ele>1561.0</ele>
        <time>2023-01-14T11:12:24Z</time>
      </trkpt>
      <trkpt lat="42.6877030" lon="-0.4908670">
        <ele>1561.0</ele>
        <time>2023-01-14T11:12:25Z</time>
      </trkpt>
      <trkpt lat="42.6877040" lon="-0.4908050">
        <ele>1561.4</ele>
        <time>2023-01-14T11:12:26Z</time>
      </trkpt>
      <trkpt lat="42.6877040" lon="-0.4907420">
        <ele>1561.6</ele>
        <time>2023-01-14T11:12:27Z</time>
      </trkpt>
      <trkpt lat="42.6877060" lon="-0.4906770">
        <ele>1561.6</ele>
        <time>2023-01-14T11:12:28Z</time>
      </trkpt>
      <trkpt lat="42.6877110" lon="-0.4906090">
        <ele>1561.6</ele>
        <time>2023-01-14T11:12:29Z</time>
      </trkpt>
      <trkpt lat="42.6877190" lon="-0.4905400">
        <ele>1561.6</ele>
        <time>2023-01-14T11:12:30Z</time>
      </trkpt>
      <trkpt lat="42.6877230" lon="-0.4904700">
        <ele>1561.6</ele>
        <time>2023-01-14T11:12:31Z</time>
      </trkpt>
      <trkpt lat="42.6877260" lon="-0.4904020">
        <ele>1561.8</ele>
        <time>2023-01-14T11:12:32Z</time>
      </trkpt>
      <trkpt lat="42.6877290" lon="-0.4903320">
        <ele>1562.2</ele>
        <time>2023-01-14T11:12:33Z</time>
      </trkpt>
      <trkpt lat="42.6877300" lon="-0.4902610">
        <ele>1562.4</ele>
        <time>2023-01-14T11:12:34Z</time>
      </trkpt>
      <trkpt lat="42.6877290" lon="-0.4901900">
        <ele>1562.4</ele>
        <time>2023-01-14T11:12:35Z</time>
      </trkpt>
      <trkpt lat="42.6877280" lon="-0.4901190">
        <ele>1562.6</ele>
        <time>2023-01-14T11:12:36Z</time>
      </trkpt>
      <trkpt lat="42.6877230" lon="-0.4900500">
        <ele>1562.6</ele>
        <time>2023-01-14T11:12:37Z</time>
      </trkpt>
      <trkpt lat="42.6877170" lon="-0.4899810">
        <ele>1562.8</ele>
        <time>2023-01-14T11:12:38Z</time>
      </trkpt>
      <trkpt lat="42.6877060" lon="-0.4899120">
        <ele>1563.0</ele>
        <time>2023-01-14T11:12:39Z</time>
      </trkpt>
      <trkpt lat="42.6876930" lon="-0.4898450">
        <ele>1562.8</ele>
        <time>2023-01-14T11:12:40Z</time>
      </trkpt>
      <trkpt lat="42.6876780" lon="-0.4897780">
        <ele>1562.8</ele>
        <time>2023-01-14T11:12:41Z</time>
      </trkpt>
      <trkpt lat="42.6876570" lon="-0.4897130">
        <ele>1563.0</ele>
        <time>2023-01-14T11:12:42Z</time>
      </trkpt>
      <trkpt lat="42.6876350" lon="-0.4896530">
        <ele>1563.0</ele>
        <time>2023-01-14T11:12:43Z</time>
      </trkpt>
      <trkpt lat="42.6876080" lon="-0.4895970">
        <ele>1563.2</ele>
        <time>2023-01-14T11:12:44Z</time>
      </trkpt>
      <trkpt lat="42.6875790" lon="-0.4895440">
        <ele>1563.2</ele>
        <time>2023-01-14T11:12:45Z</time>
      </trkpt>
      <trkpt lat="42.6875490" lon="-0.4894960">
        <ele>1563.4</ele>
        <time>2023-01-14T11:12:46Z</time>
      </trkpt>
      <trkpt lat="42.6875200" lon="-0.4894490">
        <ele>1563.6</ele>
        <time>2023-01-14T11:12:47Z</time>
      </trkpt>
      <trkpt lat="42.6874910" lon="-0.4894040">
        <ele>1564.0</ele>
        <time>2023-01-14T11:12:48Z</time>
      </trkpt>
      <trkpt lat="42.6874640" lon="-0.4893640">
        <ele>1564.4</ele>
        <time>2023-01-14T11:12:49Z</time>
      </trkpt>
      <trkpt lat="42.6874400" lon="-0.4893240">
        <ele>1564.6</ele>
        <time>2023-01-14T11:12:50Z</time>
      </trkpt>
      <trkpt lat="42.6874250" lon="-0.4892860">
        <ele>1565.0</ele>
        <time>2023-01-14T11:12:51Z</time>
      </trkpt>
      <trkpt lat="42.6874170" lon="-0.4892430">
        <ele>1565.6</ele>
        <time>2023-01-14T11:12:52Z</time>
      </trkpt>
      <trkpt lat="42.6874220" lon="-0.4892020">
        <ele>1566.0</ele>
        <time>2023-01-14T11:12:53Z</time>
      </trkpt>
      <trkpt lat="42.6874360" lon="-0.4891640">
        <ele>1566.4</ele>
        <time>2023-01-14T11:12:54Z</time>
      </trkpt>
      <trkpt lat="42.6874590" lon="-0.4891300">
        <ele>1566.8</ele>
        <time>2023-01-14T11:12:55Z</time>
      </trkpt>
      <trkpt lat="42.6874890" lon="-0.4891060">
        <ele>1567.4</ele>
        <time>2023-01-14T11:12:56Z</time>
      </trkpt>
      <trkpt lat="42.6875210" lon="-0.4891020">
        <ele>1567.6</ele>
        <time>2023-01-14T11:12:57Z</time>
      </trkpt>
      <trkpt lat="42.6875530" lon="-0.4891220">
        <ele>1567.8</ele>
        <time>2023-01-14T11:12:58Z</time>
      </trkpt>
      <trkpt lat="42.6875810" lon="-0.4891510">
        <ele>1567.8</ele>
        <time>2023-01-14T11:12:59Z</time>
      </trkpt>
      <trkpt lat="42.6876090" lon="-0.4891880">
        <ele>1568.0</ele>
        <time>2023-01-14T11:13:00Z</time>
      </trkpt>
      <trkpt lat="42.6876340" lon="-0.4892290">
        <ele>1568.2</ele>
        <time>2023-01-14T11:13:01Z</time>
      </trkpt>
      <trkpt lat="42.6876570" lon="-0.4892730">
        <ele>1568.6</ele>
        <time>2023-01-14T11:13:02Z</time>
      </trkpt>
      <trkpt lat="42.6876780" lon="-0.4893220">
        <ele>1569.0</ele>
        <time>2023-01-14T11:13:03Z</time>
      </trkpt>
      <trkpt lat="42.6876980" lon="-0.4893740">
        <ele>1569.4</ele>
        <time>2023-01-14T11:13:04Z</time>
      </trkpt>
      <trkpt lat="42.6877190" lon="-0.4894230">
        <ele>1569.6</ele>
        <time>2023-01-14T11:13:05Z</time>
      </trkpt>
      <trkpt lat="42.6877410" lon="-0.4894680">
        <ele>1569.8</ele>
        <time>2023-01-14T11:13:06Z</time>
      </trkpt>
      <trkpt lat="42.6877640" lon="-0.4895140">
        <ele>1570.4</ele>
        <time>2023-01-14T11:13:07Z</time>
      </trkpt>
      <trkpt lat="42.6877860" lon="-0.4895620">
        <ele>1570.8</ele>
        <time>2023-01-14T11:13:08Z</time>
      </trkpt>
      <trkpt lat="42.6878110" lon="-0.4896100">
        <ele>1571.0</ele>
        <time>2023-01-14T11:13:09Z</time>
      </trkpt>
      <trkpt lat="42.6878360" lon="-0.4896560">
        <ele>1571.2</ele>
        <time>2023-01-14T11:13:10Z</time>
      </trkpt>
      <trkpt lat="42.6878620" lon="-0.4897040">
        <ele>1571.4</ele>
        <time>2023-01-14T11:13:11Z</time>
      </trkpt>
      <trkpt lat="42.6878850" lon="-0.4897530">
        <ele>1571.6</ele>
        <time>2023-01-14T11:13:12Z</time>
      </trkpt>
      <trkpt lat="42.6879090" lon="-0.4898020">
        <ele>1571.8</ele>
        <time>2023-01-14T11:13:13Z</time>
      </trkpt>
      <trkpt lat="42.6879340" lon="-0.4898490">
        <ele>1572.2</ele>
        <time>2023-01-14T11:13:14Z</time>
      </trkpt>
      <trkpt lat="42.6879610" lon="-0.4898950">
        <ele>1572.4</ele>
        <time>2023-01-14T11:13:15Z</time>
      </trkpt>
      <trkpt lat="42.6879830" lon="-0.4899440">
        <ele>1572.6</ele>
        <time>2023-01-14T11:13:16Z</time>
      </trkpt>
      <trkpt lat="42.6880030" lon="-0.4899930">
        <ele>1572.8</ele>
        <time>2023-01-14T11:13:17Z</time>
      </trkpt>
      <trkpt lat="42.6880230" lon="-0.4900430">
        <ele>1573.2</ele>
        <time>2023-01-14T11:13:18Z</time>
      </trkpt>
      <trkpt lat="42.6880390" lon="-0.4900960">
        <ele>1573.6</ele>
        <time>2023-01-14T11:13:19Z</time>
      </trkpt>
      <trkpt lat="42.6880500" lon="-0.4901500">
        <ele>1574.0</ele>
        <time>2023-01-14T11:13:20Z</time>
      </trkpt>
      <trkpt lat="42.6880590" lon="-0.4902050">
        <ele>1574.2</ele>
        <time>2023-01-14T11:13:21Z</time>
      </trkpt>
      <trkpt lat="42.6880670" lon="-0.4902590">
        <ele>1574.6</ele>
        <time>2023-01-14T11:13:22Z</time>
      </trkpt>
      <trkpt lat="42.6880730" lon="-0.4903130">
        <ele>1575.0</ele>
        <time>2023-01-14T11:13:23Z</time>
      </trkpt>
      <trkpt lat="42.6880790" lon="-0.4903660">
        <ele>1575.4</ele>
        <time>2023-01-14T11:13:24Z</time>
      </trkpt>
      <trkpt lat="42.6880850" lon="-0.4904170">
        <ele>1575.6</ele>
        <time>2023-01-14T11:13:25Z</time>
      </trkpt>
      <trkpt lat="42.6880860" lon="-0.4904680">
        <ele>1576.0</ele>
        <time>2023-01-14T11:13:26Z</time>
      </trkpt>
      <trkpt lat="42.6880810" lon="-0.4905210">
        <ele>1576.6</ele>
        <time>2023-01-14T11:13:27Z</time>
      </trkpt>
      <trkpt lat="42.6880730" lon="-0.4905730">
        <ele>1577.0</ele>
        <time>2023-01-14T11:13:28Z</time>
      </trkpt>
      <trkpt lat="42.6880630" lon="-0.4906260">
        <ele>1577.6</ele>
        <time>2023-01-14T11:13:29Z</time>
      </trkpt>
      <trkpt lat="42.6880550" lon="-0.4906770">
        <ele>1578.2</ele>
        <time>2023-01-14T11:13:30Z</time>
      </trkpt>
      <trkpt lat="42.6880530" lon="-0.4907280">
        <ele>1578.4</ele>
        <time>2023-01-14T11:13:31Z</time>
      </trkpt>
      <trkpt lat="42.6880580" lon="-0.4907820">
        <ele>1578.6</ele>
        <time>2023-01-14T11:13:32Z</time>
      </trkpt>
      <trkpt lat="42.6880670" lon="-0.4908350">
        <ele>1578.8</ele>
        <time>2023-01-14T11:13:33Z</time>
      </trkpt>
      <trkpt lat="42.6880810" lon="-0.4908850">
        <ele>1578.8</ele>
        <time>2023-01-14T11:13:34Z</time>
      </trkpt>
      <trkpt lat="42.6881020" lon="-0.4909300">
        <ele>1579.2</ele>
        <time>2023-01-14T11:13:35Z</time>
      </trkpt>
      <trkpt lat="42.6881280" lon="-0.4909730">
        <ele>1579.6</ele>
        <time>2023-01-14T11:13:36Z</time>
      </trkpt>
      <trkpt lat="42.6881560" lon="-0.4910140">
        <ele>1580.0</ele>
        <time>2023-01-14T11:13:37Z</time>
      </trkpt>
      <trkpt lat="42.6881850" lon="-0.4910550">
        <ele>1580.2</ele>
        <time>2023-01-14T11:13:38Z</time>
      </trkpt>
      <trkpt lat="42.6882170" lon="-0.4910920">
        <ele>1580.4</ele>
        <time>2023-01-14T11:13:39Z</time>
      </trkpt>
      <trkpt lat="42.6882490" lon="-0.4911300">
        <ele>1580.4</ele>
        <time>2023-01-14T11:13:40Z</time>
      </trkpt>
      <trkpt lat="42.6882820" lon="-0.4911680">
        <ele>1580.6</ele>
        <time>2023-01-14T11:13:41Z</time>
      </trkpt>
      <trkpt lat="42.6883160" lon="-0.4912030">
        <ele>1580.8</ele>
        <time>2023-01-14T11:13:42Z</time>
      </trkpt>
      <trkpt lat="42.6883490" lon="-0.4912360">
        <ele>1581.0</ele>
        <time>2023-01-14T11:13:43Z</time>
      </trkpt>
      <trkpt lat="42.6883810" lon="-0.4912660">
        <ele>1581.4</ele>
        <time>2023-01-14T11:13:44Z</time>
      </trkpt>
      <trkpt lat="42.6884140" lon="-0.4912940">
        <ele>1581.6</ele>
        <time>2023-01-14T11:13:45Z</time>
      </trkpt>
      <trkpt lat="42.6884450" lon="-0.4913210">
        <ele>1581.8</ele>
        <time>2023-01-14T11:13:46Z</time>
      </trkpt>
      <trkpt lat="42.6884780" lon="-0.4913440">
        <ele>1582.0</ele>
        <time>2023-01-14T11:13:47Z</time>
      </trkpt>
      <trkpt lat="42.6885090" lon="-0.4913660">
        <ele>1582.4</ele>
        <time>2023-01-14T11:13:48Z</time>
      </trkpt>
      <trkpt lat="42.6885400" lon="-0.4913900">
        <ele>1582.8</ele>
        <time>2023-01-14T11:13:49Z</time>
      </trkpt>
      <trkpt lat="42.6885710" lon="-0.4914110">
        <ele>1583.4</ele>
        <time>2023-01-14T11:13:50Z</time>
      </trkpt>
      <trkpt lat="42.6886010" lon="-0.4914340">
        <ele>1583.8</ele>
        <time>2023-01-14T11:13:51Z</time>
      </trkpt>
      <trkpt lat="42.6886330" lon="-0.4914560">
        <ele>1584.2</ele>
        <time>2023-01-14T11:13:52Z</time>
      </trkpt>
      <trkpt lat="42.6886640" lon="-0.4914700">
        <ele>1584.8</ele>
        <time>2023-01-14T11:13:53Z</time>
      </trkpt>
      <trkpt lat="42.6886920" lon="-0.4914820">
        <ele>1585.0</ele>
        <time>2023-01-14T11:13:54Z</time>
      </trkpt>
      <trkpt lat="42.6887230" lon="-0.4914920">
        <ele>1585.6</ele>
        <time>2023-01-14T11:13:55Z</time>
      </trkpt>
      <trkpt lat="42.6887540" lon="-0.4915030">
        <ele>1586.2</ele>
        <time>2023-01-14T11:13:56Z</time>
      </trkpt>
      <trkpt lat="42.6887860" lon="-0.4915100">
        <ele>1586.4</ele>
        <time>2023-01-14T11:13:57Z</time>
      </trkpt>
      <trkpt lat="42.6888160" lon="-0.4915060">
        <ele>1586.8</ele>
        <time>2023-01-14T11:13:58Z</time>
      </trkpt>
      <trkpt lat="42.6888390" lon="-0.4914890">
        <ele>1587.2</ele>
        <time>2023-01-14T11:13:59Z</time>
      </trkpt>
      <trkpt lat="42.6888420" lon="-0.4914580">
        <ele>1587.6</ele>
        <time>2023-01-14T11:14:00Z</time>
      </trkpt>
      <trkpt lat="42.6888360" lon="-0.4914180">
        <ele>1587.8</ele>
        <time>2023-01-14T11:14:01Z</time>
      </trkpt>
      <trkpt lat="42.6888170" lon="-0.4913810">
        <ele>1588.2</ele>
        <time>2023-01-14T11:14:02Z</time>
      </trkpt>
      <trkpt lat="42.6887900" lon="-0.4913520">
        <ele>1588.4</ele>
        <time>2023-01-14T11:14:03Z</time>
      </trkpt>
      <trkpt lat="42.6887640" lon="-0.4913260">
        <ele>1588.8</ele>
        <time>2023-01-14T11:14:04Z</time>
      </trkpt>
      <trkpt lat="42.6887380" lon="-0.4912980">
        <ele>1589.0</ele>
        <time>2023-01-14T11:14:05Z</time>
      </trkpt>
      <trkpt lat="42.6887150" lon="-0.4912670">
        <ele>1589.4</ele>
        <time>2023-01-14T11:14:06Z</time>
      </trkpt>
      <trkpt lat="42.6886900" lon="-0.4912370">
        <ele>1590.0</ele>
        <time>2023-01-14T11:14:07Z</time>
      </trkpt>
      <trkpt lat="42.6886610" lon="-0.4912110">
        <ele>1590.2</ele>
        <time>2023-01-14T11:14:08Z</time>
      </trkpt>
      <trkpt lat="42.6886350" lon="-0.4911860">
        <ele>1590.6</ele>
        <time>2023-01-14T11:14:09Z</time>
      </trkpt>
      <trkpt lat="42.6886100" lon="-0.4911560">
        <ele>1590.8</ele>
        <time>2023-01-14T11:14:10Z</time>
      </trkpt>
      <trkpt lat="42.6885860" lon="-0.4911240">
        <ele>1591.2</ele>
        <time>2023-01-14T11:14:11Z</time>
      </trkpt>
      <trkpt lat="42.6885620" lon="-0.4910960">
        <ele>1591.4</ele>
        <time>2023-01-14T11:14:12Z</time>
      </trkpt>
      <trkpt lat="42.6885360" lon="-0.4910670">
        <ele>1591.6</ele>
        <time>2023-01-14T11:14:13Z</time>
      </trkpt>
      <trkpt lat="42.6885130" lon="-0.4910390">
        <ele>1591.8</ele>
        <time>2023-01-14T11:14:14Z</time>
      </trkpt>
      <trkpt lat="42.6884980" lon="-0.4910190">
        <ele>1592.0</ele>
        <time>2023-01-14T11:14:15Z</time>
      </trkpt>
      <trkpt lat="42.6884910" lon="-0.4910090">
        <ele>1592.2</ele>
        <time>2023-01-14T11:14:16Z</time>
      </trkpt>
      <trkpt lat="42.6884890" lon="-0.4910050">
        <ele>1592.2</ele>
        <time>2023-01-14T11:14:17Z</time>
      </trkpt>
      <trkpt lat="42.6884870" lon="-0.4910060">
        <ele>1592.4</ele>
        <time>2023-01-14T11:14:18Z</time>
      </trkpt>
      <trkpt lat="42.6884880" lon="-0.4910010">
        <ele>1592.4</ele>
        <time>2023-01-14T11:14:19Z</time>
      </trkpt>
      <trkpt lat="42.6884870" lon="-0.4909910">
        <ele>1592.8</ele>
        <time>2023-01-14T11:14:20Z</time>
      </trkpt>
      <trkpt lat="42.6884870" lon="-0.4909770">
        <ele>1592.8</ele>
        <time>2023-01-14T11:14:21Z</time>
      </trkpt>
      <trkpt lat="42.6884920" lon="-0.4909590">
        <ele>1593.0</ele>
        <time>2023-01-14T11:14:22Z</time>
      </trkpt>
      <trkpt lat="42.6884980" lon="-0.4909440">
        <ele>1593.0</ele>
        <time>2023-01-14T11:14:23Z</time>
      </trkpt>
      <trkpt lat="42.6885050" lon="-0.4909340">
        <ele>1593.2</ele>
        <time>2023-01-14T11:14:24Z</time>
      </trkpt>
      <trkpt lat="42.6885110" lon="-0.4909300">
        <ele>1593.2</ele>
        <time>2023-01-14T11:14:25Z</time>
      </trkpt>
      <trkpt lat="42.6885170" lon="-0.4909280">
        <ele>1593.4</ele>
        <time>2023-01-14T11:14:26Z</time>
      </trkpt>
      <trkpt lat="42.6885230" lon="-0.4909280">
        <ele>1593.6</ele>
        <time>2023-01-14T11:14:27Z</time>
      </trkpt>
      <trkpt lat="42.6885270" lon="-0.4909300">
        <ele>1593.6</ele>
        <time>2023-01-14T11:14:28Z</time>
      </trkpt>
      <trkpt lat="42.6885330" lon="-0.4909310">
        <ele>1593.8</ele>
        <time>2023-01-14T11:14:29Z</time>
      </trkpt>
      <trkpt lat="42.6885380" lon="-0.4909320">
        <ele>1594.0</ele>
        <time>2023-01-14T11:14:30Z</time>
      </trkpt>
      <trkpt lat="42.6885440" lon="-0.4909330">
        <ele>1594.0</ele>
        <time>2023-01-14T11:14:31Z</time>
      </trkpt>
      <trkpt lat="42.6885470" lon="-0.4909340">
        <ele>1594.6</ele>
        <time>2023-01-14T11:14:32Z</time>
      </trkpt>
      <trkpt lat="42.6885520" lon="-0.4909340">
        <ele>1594.8</ele>
        <time>2023-01-14T11:14:33Z</time>
      </trkpt>
      <trkpt lat="42.6885550" lon="-0.4909290">
        <ele>1595.4</ele>
        <time>2023-01-14T11:14:34Z</time>
      </trkpt>
      <trkpt lat="42.6885540" lon="-0.4909250">
        <ele>1595.6</ele>
        <time>2023-01-14T11:14:35Z</time>
      </trkpt>
      <trkpt lat="42.6885500" lon="-0.4909200">
        <ele>1595.8</ele>
        <time>2023-01-14T11:14:36Z</time>
      </trkpt>
      <trkpt lat="42.6885470" lon="-0.4909170">
        <ele>1596.0</ele>
        <time>2023-01-14T11:14:37Z</time>
      </trkpt>
      <trkpt lat="42.6885460" lon="-0.4909130">
        <ele>1596.4</ele>
        <time>2023-01-14T11:14:38Z</time>
      </trkpt>
      <trkpt lat="42.6885430" lon="-0.4909110">
        <ele>1596.6</ele>
        <time>2023-01-14T11:14:39Z</time>
      </trkpt>
      <trkpt lat="42.6885400" lon="-0.4909140">
        <ele>1596.8</ele>
        <time>2023-01-14T11:14:40Z</time>
      </trkpt>
      <trkpt lat="42.6885380" lon="-0.4909140">
        <ele>1597.0</ele>
        <time>2023-01-14T11:14:41Z</time>
      </trkpt>
      <trkpt lat="42.6885360" lon="-0.4909100">
        <ele>1597.0</ele>
        <time>2023-01-14T11:14:42Z</time>
      </trkpt>
      <trkpt lat="42.6885400" lon="-0.4909060">
        <ele>1597.2</ele>
        <time>2023-01-14T11:14:43Z</time>
      </trkpt>
      <trkpt lat="42.6885450" lon="-0.4909080">
        <ele>1597.2</ele>
        <time>2023-01-14T11:14:44Z</time>
      </trkpt>
      <trkpt lat="42.6885500" lon="-0.4909120">
        <ele>1597.4</ele>
        <time>2023-01-14T11:14:45Z</time>
      </trkpt>
      <trkpt lat="42.6885540" lon="-0.4909190">
        <ele>1597.4</ele>
        <time>2023-01-14T11:14:46Z</time>
      </trkpt>
      <trkpt lat="42.6885570" lon="-0.4909270">
        <ele>1597.6</ele>
        <time>2023-01-14T11:14:47Z</time>
      </trkpt>
      <trkpt lat="42.6885590" lon="-0.4909290">
        <ele>1597.6</ele>
        <time>2023-01-14T11:14:48Z</time>
      </trkpt>
      <trkpt lat="42.6885610" lon="-0.4909260">
        <ele>1597.6</ele>
        <time>2023-01-14T11:14:49Z</time>
      </trkpt>
      <trkpt lat="42.6885650" lon="-0.4909200">
        <ele>1597.6</ele>
        <time>2023-01-14T11:14:50Z</time>
      </trkpt>
      <trkpt lat="42.6885680" lon="-0.4909180">
        <ele>1597.8</ele>
        <time>2023-01-14T11:14:51Z</time>
      </trkpt>
      <trkpt lat="42.6885680" lon="-0.4909170">
        <ele>1597.8</ele>
        <time>2023-01-14T11:14:52Z</time>
      </trkpt>
      <trkpt lat="42.6885680" lon="-0.4909150">
        <ele>1597.8</ele>
        <time>2023-01-14T11:14:53Z</time>
      </trkpt>
      <trkpt lat="42.6885690" lon="-0.4909150">
        <ele>1597.8</ele>
        <time>2023-01-14T11:14:54Z</time>
      </trkpt>
      <trkpt lat="42.6885680" lon="-0.4909140">
        <ele>1597.8</ele>
        <time>2023-01-14T11:14:55Z</time>
      </trkpt>
      <trkpt lat="42.6885680" lon="-0.4909140">
        <ele>1597.6</ele>
        <time>2023-01-14T11:14:56Z</time>
      </trkpt>
      <trkpt lat="42.6885690" lon="-0.4909130">
        <ele>1597.6</ele>
        <time>2023-01-14T11:14:57Z</time>
      </trkpt>
      <trkpt lat="42.6885690" lon="-0.4909130">
        <ele>1597.8</ele>
        <time>2023-01-14T11:14:58Z</time>
      </trkpt>
      <trkpt lat="42.6885690" lon="-0.4909130">
        <ele>1597.8</ele>
        <time>2023-01-14T11:14:59Z</time>
      </trkpt>
      <trkpt lat="42.6885690" lon="-0.4909130">
        <ele>1597.8</ele>
        <time>2023-01-14T11:15:00Z</time>
      </trkpt>
      <trkpt lat="42.6885690" lon="-0.4909140">
        <ele>1597.8</ele>
        <time>2023-01-14T11:15:01Z</time>
      </trkpt>
      <trkpt lat="42.6885680" lon="-0.4909180">
        <ele>1597.8</ele>
        <time>2023-01-14T11:15:02Z</time>
      </trkpt>
      <trkpt lat="42.6885730" lon="-0.4909250">
        <ele>1597.8</ele>
        <time>2023-01-14T11:15:03Z</time>
      </trkpt>
      <trkpt lat="42.6885840" lon="-0.4909340">
        <ele>1597.8</ele>
        <time>2023-01-14T11:15:04Z</time>
      </trkpt>
      <trkpt lat="42.6885950" lon="-0.4909430">
        <ele>1598.0</ele>
        <time>2023-01-14T11:15:05Z</time>
      </trkpt>
      <trkpt lat="42.6886060" lon="-0.4909480">
        <ele>1598.0</ele>
        <time>2023-01-14T11:15:06Z</time>
      </trkpt>
      <trkpt lat="42.6886140" lon="-0.4909490">
        <ele>1598.0</ele>
        <time>2023-01-14T11:15:07Z</time>
      </trkpt>
      <trkpt lat="42.6886260" lon="-0.4909490">
        <ele>1598.6</ele>
        <time>2023-01-14T11:15:08Z</time>
      </trkpt>
      <trkpt lat="42.6886420" lon="-0.4909530">
        <ele>1599.4</ele>
        <time>2023-01-14T11:15:09Z</time>
      </trkpt>
      <trkpt lat="42.6886570" lon="-0.4909580">
        <ele>1599.8</ele>
        <time>2023-01-14T11:15:10Z</time>
      </trkpt>
      <trkpt lat="42.6886700" lon="-0.4909610">
        <ele>1600.0</ele>
        <time>2023-01-14T11:15:11Z</time>
      </trkpt>
      <trkpt lat="42.6886810" lon="-0.4909650">
        <ele>1600.2</ele>
        <time>2023-01-14T11:15:12Z</time>
      </trkpt>
      <trkpt lat="42.6886940" lon="-0.4909650">
        <ele>1600.8</ele>
        <time>2023-01-14T11:15:13Z</time>
      </trkpt>
      <trkpt lat="42.6887060" lon="-0.4909640">
        <ele>1601.4</ele>
        <time>2023-01-14T11:15:14Z</time>
      </trkpt>
      <trkpt lat="42.6887210" lon="-0.4909610">
        <ele>1601.8</ele>
        <time>2023-01-14T11:15:15Z</time>
      </trkpt>
      <trkpt lat="42.6887330" lon="-0.4909630">
        <ele>1602.8</ele>
        <time>2023-01-14T11:15:16Z</time>
      </trkpt>
      <trkpt lat="42.6887450" lon="-0.4909610">
        <ele>1603.6</ele>
        <time>2023-01-14T11:15:17Z</time>
      </trkpt>
      <trkpt lat="42.6887600" lon="-0.4909590">
        <ele>1604.0</ele>
        <time>2023-01-14T11:15:18Z</time>
      </trkpt>
      <trkpt lat="42.6887760" lon="-0.4909580">
        <ele>1604.8</ele>
        <time>2023-01-14T11:15:19Z</time>
      </trkpt>
      <trkpt lat="42.6887890" lon="-0.4909610">
        <ele>1605.2</ele>
        <time>2023-01-14T11:15:20Z</time>
      </trkpt>
      <trkpt lat="42.6887960" lon="-0.4909620">
        <ele>1605.8</ele>
        <time>2023-01-14T11:15:21Z</time>
      </trkpt>
      <trkpt lat="42.6888080" lon="-0.4909640">
        <ele>1606.2</ele>
        <time>2023-01-14T11:15:22Z</time>
      </trkpt>
      <trkpt lat="42.6888270" lon="-0.4909640">
        <ele>1606.4</ele>
        <time>2023-01-14T11:15:23Z</time>
      </trkpt>
      <trkpt lat="42.6888470" lon="-0.4909680">
        <ele>1607.2</ele>
        <time>2023-01-14T11:15:24Z</time>
      </trkpt>
      <trkpt lat="42.6888700" lon="-0.4909650">
        <ele>1607.8</ele>
        <time>2023-01-14T11:15:25Z</time>
      </trkpt>
      <trkpt lat="42.6888920" lon="-0.4909660">
        <ele>1608.2</ele>
        <time>2023-01-14T11:15:26Z</time>
      </trkpt>
      <trkpt lat="42.6889090" lon="-0.4909680">
        <ele>1608.6</ele>
        <time>2023-01-14T11:15:27Z</time>
      </trkpt>
      <trkpt lat="42.6889250" lon="-0.4909660">
        <ele>1608.8</ele>
        <time>2023-01-14T11:15:28Z</time>
      </trkpt>
      <trkpt lat="42.6889410" lon="-0.4909670">
        <ele>1609.0</ele>
        <time>2023-01-14T11:15:29Z</time>
      </trkpt>
      <trkpt lat="42.6889550" lon="-0.4909700">
        <ele>1610.0</ele>
        <time>2023-01-14T11:15:30Z</time>
      </trkpt>
      <trkpt lat="42.6889680" lon="-0.4909750">
        <ele>1610.6</ele>
        <time>2023-01-14T11:15:31Z</time>
      </trkpt>
      <trkpt lat="42.6889850" lon="-0.4909770">
        <ele>1611.0</ele>
        <time>2023-01-14T11:15:32Z</time>
      </trkpt>
      <trkpt lat="42.6890000" lon="-0.4909790">
        <ele>1611.8</ele>
        <time>2023-01-14T11:15:33Z</time>
      </trkpt>
      <trkpt lat="42.6890170" lon="-0.4909830">
        <ele>1612.4</ele>
        <time>2023-01-14T11:15:34Z</time>
      </trkpt>
      <trkpt lat="42.6890320" lon="-0.4909870">
        <ele>1612.8</ele>
        <time>2023-01-14T11:15:35Z</time>
      </trkpt>
      <trkpt lat="42.6890530" lon="-0.4909860">
        <ele>1613.4</ele>
        <time>2023-01-14T11:15:36Z</time>
      </trkpt>
      <trkpt lat="42.6890700" lon="-0.4909890">
        <ele>1614.0</ele>
        <time>2023-01-14T11:15:37Z</time>
      </trkpt>
      <trkpt lat="42.6890860" lon="-0.4909930">
        <ele>1614.6</ele>
        <time>2023-01-14T11:15:38Z</time>
      </trkpt>
      <trkpt lat="42.6891080" lon="-0.4909910">
        <ele>1615.0</ele>
        <time>2023-01-14T11:15:39Z</time>
      </trkpt>
      <trkpt lat="42.6891290" lon="-0.4909930">
        <ele>1615.4</ele>
        <time>2023-01-14T11:15:40Z</time>
      </trkpt>
      <trkpt lat="42.6891470" lon="-0.4909950">
        <ele>1615.8</ele>
        <time>2023-01-14T11:15:41Z</time>
      </trkpt>
      <trkpt lat="42.6891630" lon="-0.4909950">
        <ele>1616.4</ele>
        <time>2023-01-14T11:15:42Z</time>
      </trkpt>
      <trkpt lat="42.6891800" lon="-0.4909910">
        <ele>1616.8</ele>
        <time>2023-01-14T11:15:43Z</time>
      </trkpt>
      <trkpt lat="42.6891960" lon="-0.4909820">
        <ele>1617.2</ele>
        <time>2023-01-14T11:15:44Z</time>
      </trkpt>
      <trkpt lat="42.6892120" lon="-0.4909760">
        <ele>1617.6</ele>
        <time>2023-01-14T11:15:45Z</time>
      </trkpt>
      <trkpt lat="42.6892320" lon="-0.4909700">
        <ele>1617.8</ele>
        <time>2023-01-14T11:15:46Z</time>
      </trkpt>
      <trkpt lat="42.6892480" lon="-0.4909680">
        <ele>1618.2</ele>
        <time>2023-01-14T11:15:47Z</time>
      </trkpt>
      <trkpt lat="42.6892600" lon="-0.4909630">
        <ele>1619.0</ele>
        <time>2023-01-14T11:15:48Z</time>
      </trkpt>
      <trkpt lat="42.6892690" lon="-0.4909550">
        <ele>1619.6</ele>
        <time>2023-01-14T11:15:49Z</time>
      </trkpt>
      <trkpt lat="42.6892840" lon="-0.4909480">
        <ele>1620.0</ele>
        <time>2023-01-14T11:15:50Z</time>
      </trkpt>
      <trkpt lat="42.6893010" lon="-0.4909400">
        <ele>1620.4</ele>
        <time>2023-01-14T11:15:51Z</time>
      </trkpt>
      <trkpt lat="42.6893180" lon="-0.4909300">
        <ele>1620.6</ele>
        <time>2023-01-14T11:15:52Z</time>
      </trkpt>
      <trkpt lat="42.6893320" lon="-0.4909220">
        <ele>1620.8</ele>
        <time>2023-01-14T11:15:53Z</time>
      </trkpt>
      <trkpt lat="42.6893510" lon="-0.4909090">
        <ele>1621.2</ele>
        <time>2023-01-14T11:15:54Z</time>
      </trkpt>
      <trkpt lat="42.6893760" lon="-0.4908950">
        <ele>1621.6</ele>
        <time>2023-01-14T11:15:55Z</time>
      </trkpt>
      <trkpt lat="42.6893890" lon="-0.4908870">
        <ele>1621.8</ele>
        <time>2023-01-14T11:15:56Z</time>
      </trkpt>
      <trkpt lat="42.6894060" lon="-0.4908780">
        <ele>1622.6</ele>
        <time>2023-01-14T11:15:57Z</time>
      </trkpt>
      <trkpt lat="42.6894190" lon="-0.4908650">
        <ele>1623.2</ele>
        <time>2023-01-14T11:15:58Z</time>
      </trkpt>
      <trkpt lat="42.6894280" lon="-0.4908570">
        <ele>1624.0</ele>
        <time>2023-01-14T11:15:59Z</time>
      </trkpt>
      <trkpt lat="42.6894370" lon="-0.4908470">
        <ele>1624.8</ele>
        <time>2023-01-14T11:16:00Z</time>
      </trkpt>
      <trkpt lat="42.6894410" lon="-0.4908420">
        <ele>1625.2</ele>
        <time>2023-01-14T11:16:01Z</time>
      </trkpt>
      <trkpt lat="42.6894460" lon="-0.4908420">
        <ele>1625.6</ele>
        <time>2023-01-14T11:16:02Z</time>
      </trkpt>
      <trkpt lat="42.6894490" lon="-0.4908420">
        <ele>1626.0</ele>
        <time>2023-01-14T11:16:03Z</time>
      </trkpt>
      <trkpt lat="42.6894530" lon="-0.4908390">
        <ele>1626.4</ele>
        <time>2023-01-14T11:16:04Z</time>
      </trkpt>
      <trkpt lat="42.6894580" lon="-0.4908330">
        <ele>1626.4</ele>
        <time>2023-01-14T11:16:05Z</time>
      </trkpt>
      <trkpt lat="42.6894630" lon="-0.4908280">
        <ele>1626.6</ele>
        <time>2023-01-14T11:16:06Z</time>
      </trkpt>
      <trkpt lat="42.6894740" lon="-0.4908180">
        <ele>1626.6</ele>
        <time>2023-01-14T11:16:07Z</time>
      </trkpt>
      <trkpt lat="42.6894790" lon="-0.4908150">
        <ele>1626.6</ele>
        <time>2023-01-14T11:16:08Z</time>
      </trkpt>
      <trkpt lat="42.6894840" lon="-0.4908130">
        <ele>1626.6</ele>
        <time>2023-01-14T11:16:09Z</time>
      </trkpt>
      <trkpt lat="42.6894880" lon="-0.4908120">
        <ele>1626.8</ele>
        <time>2023-01-14T11:16:10Z</time>
      </trkpt>
      <trkpt lat="42.6894960" lon="-0.4908050">
        <ele>1626.8</ele>
        <time>2023-01-14T11:16:11Z</time>
      </trkpt>
      <trkpt lat="42.6895020" lon="-0.4908020">
        <ele>1626.8</ele>
        <time>2023-01-14T11:16:12Z</time>
      </trkpt>
      <trkpt lat="42.6895110" lon="-0.4907980">
        <ele>1626.8</ele>
        <time>2023-01-14T11:16:13Z</time>
      </trkpt>
      <trkpt lat="42.6895150" lon="-0.4907970">
        <ele>1626.8</ele>
        <time>2023-01-14T11:16:14Z</time>
      </trkpt>
      <trkpt lat="42.6895220" lon="-0.4907910">
        <ele>1626.8</ele>
        <time>2023-01-14T11:16:15Z</time>
      </trkpt>
      <trkpt lat="42.6895320" lon="-0.4907810">
        <ele>1626.8</ele>
        <time>2023-01-14T11:16:16Z</time>
      </trkpt>
      <trkpt lat="42.6895430" lon="-0.4907730">
        <ele>1627.0</ele>
        <time>2023-01-14T11:16:17Z</time>
      </trkpt>
      <trkpt lat="42.6895530" lon="-0.4907660">
        <ele>1627.4</ele>
        <time>2023-01-14T11:16:18Z</time>
      </trkpt>
      <trkpt lat="42.6895630" lon="-0.4907650">
        <ele>1627.6</ele>
        <time>2023-01-14T11:16:19Z</time>
      </trkpt>
      <trkpt lat="42.6895750" lon="-0.4907590">
        <ele>1628.0</ele>
        <time>2023-01-14T11:16:20Z</time>
      </trkpt>
      <trkpt lat="42.6895870" lon="-0.4907540">
        <ele>1628.4</ele>
        <time>2023-01-14T11:16:21Z</time>
      </trkpt>
      <trkpt lat="42.6896020" lon="-0.4907470">
        <ele>1629.0</ele>
        <time>2023-01-14T11:16:22Z</time>
      </trkpt>
      <trkpt lat="42.6896160" lon="-0.4907390">
        <ele>1629.4</ele>
        <time>2023-01-14T11:16:23Z</time>
      </trkpt>
      <trkpt lat="42.6896350" lon="-0.4907290">
        <ele>1629.6</ele>
        <time>2023-01-14T11:16:24Z</time>
      </trkpt>
      <trkpt lat="42.6896580" lon="-0.4907240">
        <ele>1630.0</ele>
        <time>2023-01-14T11:16:25Z</time>
      </trkpt>
      <trkpt lat="42.6896800" lon="-0.4907170">
        <ele>1630.4</ele>
        <time>2023-01-14T11:16:26Z</time>
      </trkpt>
      <trkpt lat="42.6897030" lon="-0.4907150">
        <ele>1630.6</ele>
        <time>2023-01-14T11:16:27Z</time>
      </trkpt>
      <trkpt lat="42.6897220" lon="-0.4907160">
        <ele>1630.8</ele>
        <time>2023-01-14T11:16:28Z</time>
      </trkpt>
      <trkpt lat="42.6897390" lon="-0.4907210">
        <ele>1631.2</ele>
        <time>2023-01-14T11:16:29Z</time>
      </trkpt>
      <trkpt lat="42.6897570" lon="-0.4907290">
        <ele>1631.6</ele>
        <time>2023-01-14T11:16:30Z</time>
      </trkpt>
      <trkpt lat="42.6897730" lon="-0.4907420">
        <ele>1631.8</ele>
        <time>2023-01-14T11:16:31Z</time>
      </trkpt>
      <trkpt lat="42.6897900" lon="-0.4907570">
        <ele>1632.0</ele>
        <time>2023-01-14T11:16:32Z</time>
      </trkpt>
      <trkpt lat="42.6898050" lon="-0.4907730">
        <ele>1632.0</ele>
        <time>2023-01-14T11:16:33Z</time>
      </trkpt>
      <trkpt lat="42.6898170" lon="-0.4907930">
        <ele>1632.2</ele>
        <time>2023-01-14T11:16:34Z</time>
      </trkpt>
      <trkpt lat="42.6898280" lon="-0.4908140">
        <ele>1632.6</ele>
        <time>2023-01-14T11:16:35Z</time>
      </trkpt>
      <trkpt lat="42.6898420" lon="-0.4908280">
        <ele>1632.8</ele>
        <time>2023-01-14T11:16:36Z</time>
      </trkpt>
      <trkpt lat="42.6898590" lon="-0.4908370">
        <ele>1633.0</ele>
        <time>2023-01-14T11:16:37Z</time>
      </trkpt>
      <trkpt lat="42.6898720" lon="-0.4908450">
        <ele>1633.2</ele>
        <time>2023-01-14T11:16:38Z</time>
      </trkpt>
      <trkpt lat="42.6898860" lon="-0.4908500">
        <ele>1633.8</ele>
        <time>2023-01-14T11:16:39Z</time>
      </trkpt>
      <trkpt lat="42.6899050" lon="-0.4908540">
        <ele>1634.0</ele>
        <time>2023-01-14T11:16:40Z</time>
      </trkpt>
      <trkpt lat="42.6899240" lon="-0.4908600">
        <ele>1634.2</ele>
        <time>2023-01-14T11:16:41Z</time>
      </trkpt>
      <trkpt lat="42.6899400" lon="-0.4908670">
        <ele>1634.6</ele>
        <time>2023-01-14T11:16:42Z</time>
      </trkpt>
      <trkpt lat="42.6899570" lon="-0.4908670">
        <ele>1634.8</ele>
        <time>2023-01-14T11:16:43Z</time>
      </trkpt>
      <trkpt lat="42.6899740" lon="-0.4908680">
        <ele>1635.0</ele>
        <time>2023-01-14T11:16:44Z</time>
      </trkpt>
      <trkpt lat="42.6899870" lon="-0.4908770">
        <ele>1635.2</ele>
        <time>2023-01-14T11:16:45Z</time>
      </trkpt>
      <trkpt lat="42.6899990" lon="-0.4908820">
        <ele>1635.4</ele>
        <time>2023-01-14T11:16:46Z</time>
      </trkpt>
      <trkpt lat="42.6900120" lon="-0.4908850">
        <ele>1635.6</ele>
        <time>2023-01-14T11:16:47Z</time>
      </trkpt>
      <trkpt lat="42.6900270" lon="-0.4908860">
        <ele>1636.2</ele>
        <time>2023-01-14T11:16:48Z</time>
      </trkpt>
      <trkpt lat="42.6900390" lon="-0.4908900">
        <ele>1636.6</ele>
        <time>2023-01-14T11:16:49Z</time>
      </trkpt>
      <trkpt lat="42.6900510" lon="-0.4908920">
        <ele>1636.8</ele>
        <time>2023-01-14T11:16:50Z</time>
      </trkpt>
      <trkpt lat="42.6900620" lon="-0.4908920">
        <ele>1637.6</ele>
        <time>2023-01-14T11:16:51Z</time>
      </trkpt>
      <trkpt lat="42.6900740" lon="-0.4908940">
        <ele>1637.8</ele>
        <time>2023-01-14T11:16:52Z</time>
      </trkpt>
      <trkpt lat="42.6900890" lon="-0.4909000">
        <ele>1638.4</ele>
        <time>2023-01-14T11:16:53Z</time>
      </trkpt>
      <trkpt lat="42.6901070" lon="-0.4909020">
        <ele>1639.0</ele>
        <time>2023-01-14T11:16:54Z</time>
      </trkpt>
      <trkpt lat="42.6901230" lon="-0.4909090">
        <ele>1639.4</ele>
        <time>2023-01-14T11:16:55Z</time>
      </trkpt>
      <trkpt lat="42.6901360" lon="-0.4909210">
        <ele>1640.2</ele>
        <time>2023-01-14T11:16:56Z</time>
      </trkpt>
      <trkpt lat="42.6901480" lon="-0.4909330">
        <ele>1640.4</ele>
        <time>2023-01-14T11:16:57Z</time>
      </trkpt>
      <trkpt lat="42.6901590" lon="-0.4909420">
        <ele>1640.6</ele>
        <time>2023-01-14T11:16:58Z</time>
      </trkpt>
      <trkpt lat="42.6901710" lon="-0.4909360">
        <ele>1641.0</ele>
        <time>2023-01-14T11:16:59Z</time>
      </trkpt>
      <trkpt lat="42.6901690" lon="-0.4909250">
        <ele>1641.4</ele>
        <time>2023-01-14T11:17:00Z</time>
      </trkpt>
      <trkpt lat="42.6901660" lon="-0.4909080">
        <ele>1642.0</ele>
        <time>2023-01-14T11:17:01Z</time>
      </trkpt>
      <trkpt lat="42.6901670" lon="-0.4908880">
        <ele>1642.6</ele>
        <time>2023-01-14T11:17:02Z</time>
      </trkpt>
      <trkpt lat="42.6901680" lon="-0.4908680">
        <ele>1643.0</ele>
        <time>2023-01-14T11:17:03Z</time>
      </trkpt>
      <trkpt lat="42.6901620" lon="-0.4908540">
        <ele>1643.2</ele>
        <time>2023-01-14T11:17:04Z</time>
      </trkpt>
      <trkpt lat="42.6901470" lon="-0.4908500">
        <ele>1643.4</ele>
        <time>2023-01-14T11:17:05Z</time>
      </trkpt>
      <trkpt lat="42.6901400" lon="-0.4908390">
        <ele>1643.4</ele>
        <time>2023-01-14T11:17:06Z</time>
      </trkpt>
      <trkpt lat="42.6901260" lon="-0.4908240">
        <ele>1643.6</ele>
        <time>2023-01-14T11:17:07Z</time>
      </trkpt>
      <trkpt lat="42.6901100" lon="-0.4908040">
        <ele>1643.8</ele>
        <time>2023-01-14T11:17:08Z</time>
      </trkpt>
      <trkpt lat="42.6900970" lon="-0.4907870">
        <ele>1644.2</ele>
        <time>2023-01-14T11:17:09Z</time>
      </trkpt>
      <trkpt lat="42.6900880" lon="-0.4907780">
        <ele>1644.4</ele>
        <time>2023-01-14T11:17:10Z</time>
      </trkpt>
      <trkpt lat="42.6900820" lon="-0.4907740">
        <ele>1645.0</ele>
        <time>2023-01-14T11:17:11Z</time>
      </trkpt>
      <trkpt lat="42.6900720" lon="-0.4907610">
        <ele>1645.2</ele>
        <time>2023-01-14T11:17:12Z</time>
      </trkpt>
      <trkpt lat="42.6900590" lon="-0.4907450">
        <ele>1645.6</ele>
        <time>2023-01-14T11:17:13Z</time>
      </trkpt>
      <trkpt lat="42.6900450" lon="-0.4907260">
        <ele>1646.0</ele>
        <time>2023-01-14T11:17:14Z</time>
      </trkpt>
      <trkpt lat="42.6900270" lon="-0.4907090">
        <ele>1646.2</ele>
        <time>2023-01-14T11:17:15Z</time>
      </trkpt>
      <trkpt lat="42.6900030" lon="-0.4906920">
        <ele>1646.2</ele>
        <time>2023-01-14T11:17:16Z</time>
      </trkpt>
      <trkpt lat="42.6899800" lon="-0.4906660">
        <ele>1646.2</ele>
        <time>2023-01-14T11:17:17Z</time>
      </trkpt>
      <trkpt lat="42.6899620" lon="-0.4906310">
        <ele>1646.2</ele>
        <time>2023-01-14T11:17:18Z</time>
      </trkpt>
      <trkpt lat="42.6899450" lon="-0.4906000">
        <ele>1646.2</ele>
        <time>2023-01-14T11:17:19Z</time>
      </trkpt>
      <trkpt lat="42.6899270" lon="-0.4905700">
        <ele>1646.6</ele>
        <time>2023-01-14T11:17:20Z</time>
      </trkpt>
      <trkpt lat="42.6899080" lon="-0.4905390">
        <ele>1647.0</ele>
        <time>2023-01-14T11:17:21Z</time>
      </trkpt>
      <trkpt lat="42.6898910" lon="-0.4905030">
        <ele>1647.4</ele>
        <time>2023-01-14T11:17:22Z</time>
      </trkpt>
      <trkpt lat="42.6898730" lon="-0.4904790">
        <ele>1647.6</ele>
        <time>2023-01-14T11:17:23Z</time>
      </trkpt>
      <trkpt lat="42.6898580" lon="-0.4904550">
        <ele>1647.8</ele>
        <time>2023-01-14T11:17:24Z</time>
      </trkpt>
      <trkpt lat="42.6898420" lon="-0.4904440">
        <ele>1648.6</ele>
        <time>2023-01-14T11:17:25Z</time>
      </trkpt>
      <trkpt lat="42.6898250" lon="-0.4904310">
        <ele>1649.0</ele>
        <time>2023-01-14T11:17:26Z</time>
      </trkpt>
      <trkpt lat="42.6898090" lon="-0.4904110">
        <ele>1649.4</ele>
        <time>2023-01-14T11:17:27Z</time>
      </trkpt>
      <trkpt lat="42.6897900" lon="-0.4903960">
        <ele>1650.2</ele>
        <time>2023-01-14T11:17:28Z</time>
      </trkpt>
      <trkpt lat="42.6897710" lon="-0.4903740">
        <ele>1650.6</ele>
        <time>2023-01-14T11:17:29Z</time>
      </trkpt>
      <trkpt lat="42.6897570" lon="-0.4903610">
        <ele>1651.0</ele>
        <time>2023-01-14T11:17:30Z</time>
      </trkpt>
      <trkpt lat="42.6897440" lon="-0.4903460">
        <ele>1651.2</ele>
        <time>2023-01-14T11:17:31Z</time>
      </trkpt>
      <trkpt lat="42.6897330" lon="-0.4903340">
        <ele>1651.8</ele>
        <time>2023-01-14T11:17:32Z</time>
      </trkpt>
      <trkpt lat="42.6897180" lon="-0.4903260">
        <ele>1652.2</ele>
        <time>2023-01-14T11:17:33Z</time>
      </trkpt>
      <trkpt lat="42.6897010" lon="-0.4903140">
        <ele>1653.0</ele>
        <time>2023-01-14T11:17:34Z</time>
      </trkpt>
      <trkpt lat="42.6896870" lon="-0.4903010">
        <ele>1653.6</ele>
        <time>2023-01-14T11:17:35Z</time>
      </trkpt>
      <trkpt lat="42.6896770" lon="-0.4902860">
        <ele>1654.0</ele>
        <time>2023-01-14T11:17:36Z</time>
      </trkpt>
      <trkpt lat="42.6896670" lon="-0.4902670">
        <ele>1654.6</ele>
        <time>2023-01-14T11:17:37Z</time>
      </trkpt>
      <trkpt lat="42.6896600" lon="-0.4902510">
        <ele>1655.4</ele>
        <time>2023-01-14T11:17:38Z</time>
      </trkpt>
      <trkpt lat="42.6896530" lon="-0.4902360">
        <ele>1655.8</ele>
        <time>2023-01-14T11:17:39Z</time>
      </trkpt>
      <trkpt lat="42.6896450" lon="-0.4902200">
        <ele>1656.4</ele>
        <time>2023-01-14T11:17:40Z</time>
      </trkpt>
      <trkpt lat="42.6896370" lon="-0.4902040">
        <ele>1657.0</ele>
        <time>2023-01-14T11:17:41Z</time>
      </trkpt>
      <trkpt lat="42.6896330" lon="-0.4901820">
        <ele>1657.4</ele>
        <time>2023-01-14T11:17:42Z</time>
      </trkpt>
      <trkpt lat="42.6896290" lon="-0.4901590">
        <ele>1657.8</ele>
        <time>2023-01-14T11:17:43Z</time>
      </trkpt>
      <trkpt lat="42.6896340" lon="-0.4901440">
        <ele>1658.2</ele>
        <time>2023-01-14T11:17:44Z</time>
      </trkpt>
      <trkpt lat="42.6896380" lon="-0.4901290">
        <ele>1658.4</ele>
        <time>2023-01-14T11:17:45Z</time>
      </trkpt>
      <trkpt lat="42.6896430" lon="-0.4901270">
        <ele>1659.0</ele>
        <time>2023-01-14T11:17:46Z</time>
      </trkpt>
      <trkpt lat="42.6896530" lon="-0.4901280">
        <ele>1659.6</ele>
        <time>2023-01-14T11:17:47Z</time>
      </trkpt>
      <trkpt lat="42.6896630" lon="-0.4901250">
        <ele>1660.0</ele>
        <time>2023-01-14T11:17:48Z</time>
      </trkpt>
      <trkpt lat="42.6896740" lon="-0.4901220">
        <ele>1660.4</ele>
        <time>2023-01-14T11:17:49Z</time>
      </trkpt>
      <trkpt lat="42.6896820" lon="-0.4901170">
        <ele>1660.6</ele>
        <time>2023-01-14T11:17:50Z</time>
      </trkpt>
      <trkpt lat="42.6896920" lon="-0.4901140">
        <ele>1661.0</ele>
        <time>2023-01-14T11:17:51Z</time>
      </trkpt>
      <trkpt lat="42.6897060" lon="-0.4901110">
        <ele>1661.4</ele>
        <time>2023-01-14T11:17:52Z</time>
      </trkpt>
      <trkpt lat="42.6897180" lon="-0.4901030">
        <ele>1661.8</ele>
        <time>2023-01-14T11:17:53Z</time>
      </trkpt>
      <trkpt lat="42.6897310" lon="-0.4900950">
        <ele>1662.2</ele>
        <time>2023-01-14T11:17:54Z</time>
      </trkpt>
      <trkpt lat="42.6897460" lon="-0.4900890">
        <ele>1662.8</ele>
        <time>2023-01-14T11:17:55Z</time>
      </trkpt>
      <trkpt lat="42.6897630" lon="-0.4900810">
        <ele>1663.2</ele>
        <time>2023-01-14T11:17:56Z</time>
      </trkpt>
      <trkpt lat="42.6897820" lon="-0.4900740">
        <ele>1663.6</ele>
        <time>2023-01-14T11:17:57Z</time>
      </trkpt>
      <trkpt lat="42.6898000" lon="-0.4900680">
        <ele>1663.8</ele>
        <time>2023-01-14T11:17:58Z</time>
      </trkpt>
      <trkpt lat="42.6898170" lon="-0.4900580">
        <ele>1664.0</ele>
        <time>2023-01-14T11:17:59Z</time>
      </trkpt>
      <trkpt lat="42.6898270" lon="-0.4900550">
        <ele>1664.4</ele>
        <time>2023-01-14T11:18:00Z</time>
      </trkpt>
      <trkpt lat="42.6898390" lon="-0.4900530">
        <ele>1664.8</ele>
        <time>2023-01-14T11:18:01Z</time>
      </trkpt>
      <trkpt lat="42.6898470" lon="-0.4900580">
        <ele>1665.0</ele>
        <time>2023-01-14T11:18:02Z</time>
      </trkpt>
      <trkpt lat="42.6898640" lon="-0.4900510">
        <ele>1665.8</ele>
        <time>2023-01-14T11:18:03Z</time>
      </trkpt>
      <trkpt lat="42.6898850" lon="-0.4900400">
        <ele>1666.2</ele>
        <time>2023-01-14T11:18:04Z</time>
      </trkpt>
      <trkpt lat="42.6899090" lon="-0.4900300">
        <ele>1666.6</ele>
        <time>2023-01-14T11:18:05Z</time>
      </trkpt>
      <trkpt lat="42.6899310" lon="-0.4900190">
        <ele>1667.0</ele>
        <time>2023-01-14T11:18:06Z</time>
      </trkpt>
      <trkpt lat="42.6899510" lon="-0.4900130">
        <ele>1667.4</ele>
        <time>2023-01-14T11:18:07Z</time>
      </trkpt>
      <trkpt lat="42.6899740" lon="-0.4900090">
        <ele>1667.8</ele>
        <time>2023-01-14T11:18:08Z</time>
      </trkpt>
      <trkpt lat="42.6899940" lon="-0.4900070">
        <ele>1668.2</ele>
        <time>2023-01-14T11:18:09Z</time>
      </trkpt>
      <trkpt lat="42.6900130" lon="-0.4899990">
        <ele>1668.6</ele>
        <time>2023-01-14T11:18:10Z</time>
      </trkpt>
      <trkpt lat="42.6900330" lon="-0.4900010">
        <ele>1668.8</ele>
        <time>2023-01-14T11:18:11Z</time>
      </trkpt>
      <trkpt lat="42.6900530" lon="-0.4900070">
        <ele>1669.4</ele>
        <time>2023-01-14T11:18:12Z</time>
      </trkpt>
      <trkpt lat="42.6900730" lon="-0.4900140">
        <ele>1670.0</ele>
        <time>2023-01-14T11:18:13Z</time>
      </trkpt>
      <trkpt lat="42.6900960" lon="-0.4900170">
        <ele>1670.4</ele>
        <time>2023-01-14T11:18:14Z</time>
      </trkpt>
      <trkpt lat="42.6901190" lon="-0.4900200">
        <ele>1670.8</ele>
        <time>2023-01-14T11:18:15Z</time>
      </trkpt>
      <trkpt lat="42.6901390" lon="-0.4900190">
        <ele>1671.2</ele>
        <time>2023-01-14T11:18:16Z</time>
      </trkpt>
      <trkpt lat="42.6901550" lon="-0.4900190">
        <ele>1671.4</ele>
        <time>2023-01-14T11:18:17Z</time>
      </trkpt>
      <trkpt lat="42.6901720" lon="-0.4900230">
        <ele>1671.6</ele>
        <time>2023-01-14T11:18:18Z</time>
      </trkpt>
      <trkpt lat="42.6901910" lon="-0.4900290">
        <ele>1671.8</ele>
        <time>2023-01-14T11:18:19Z</time>
      </trkpt>
      <trkpt lat="42.6902090" lon="-0.4900330">
        <ele>1672.6</ele>
        <time>2023-01-14T11:18:20Z</time>
      </trkpt>
      <trkpt lat="42.6902260" lon="-0.4900350">
        <ele>1673.2</ele>
        <time>2023-01-14T11:18:21Z</time>
      </trkpt>
      <trkpt lat="42.6902400" lon="-0.4900430">
        <ele>1673.8</ele>
        <time>2023-01-14T11:18:22Z</time>
      </trkpt>
      <trkpt lat="42.6902540" lon="-0.4900530">
        <ele>1674.0</ele>
        <time>2023-01-14T11:18:23Z</time>
      </trkpt>
      <trkpt lat="42.6902660" lon="-0.4900690">
        <ele>1674.4</ele>
        <time>2023-01-14T11:18:24Z</time>
      </trkpt>
      <trkpt lat="42.6902820" lon="-0.4900800">
        <ele>1674.8</ele>
        <time>2023-01-14T11:18:25Z</time>
      </trkpt>
      <trkpt lat="42.6903000" lon="-0.4900870">
        <ele>1675.0</ele>
        <time>2023-01-14T11:18:26Z</time>
      </trkpt>
      <trkpt lat="42.6903210" lon="-0.4900910">
        <ele>1675.6</ele>
        <time>2023-01-14T11:18:27Z</time>
      </trkpt>
      <trkpt lat="42.6903420" lon="-0.4900910">
        <ele>1675.8</ele>
        <time>2023-01-14T11:18:28Z</time>
      </trkpt>
      <trkpt lat="42.6903630" lon="-0.4900960">
        <ele>1676.4</ele>
        <time>2023-01-14T11:18:29Z</time>
      </trkpt>
      <trkpt lat="42.6903800" lon="-0.4901060">
        <ele>1676.6</ele>
        <time>2023-01-14T11:18:30Z</time>
      </trkpt>
      <trkpt lat="42.6903970" lon="-0.4901150">
        <ele>1677.0</ele>
        <time>2023-01-14T11:18:31Z</time>
      </trkpt>
      <trkpt lat="42.6904160" lon="-0.4901230">
        <ele>1677.4</ele>
        <time>2023-01-14T11:18:32Z</time>
      </trkpt>
      <trkpt lat="42.6904370" lon="-0.4901240">
        <ele>1677.6</ele>
        <time>2023-01-14T11:18:33Z</time>
      </trkpt>
      <trkpt lat="42.6904540" lon="-0.4901310">
        <ele>1677.8</ele>
        <time>2023-01-14T11:18:34Z</time>
      </trkpt>
      <trkpt lat="42.6904700" lon="-0.4901360">
        <ele>1678.2</ele>
        <time>2023-01-14T11:18:35Z</time>
      </trkpt>
      <trkpt lat="42.6904890" lon="-0.4901480">
        <ele>1678.4</ele>
        <time>2023-01-14T11:18:36Z</time>
      </trkpt>
      <trkpt lat="42.6905090" lon="-0.4901560">
        <ele>1678.8</ele>
        <time>2023-01-14T11:18:37Z</time>
      </trkpt>
      <trkpt lat="42.6905270" lon="-0.4901640">
        <ele>1679.6</ele>
        <time>2023-01-14T11:18:38Z</time>
      </trkpt>
      <trkpt lat="42.6905440" lon="-0.4901690">
        <ele>1680.2</ele>
        <time>2023-01-14T11:18:39Z</time>
      </trkpt>
      <trkpt lat="42.6905640" lon="-0.4901770">
        <ele>1680.6</ele>
        <time>2023-01-14T11:18:40Z</time>
      </trkpt>
      <trkpt lat="42.6905790" lon="-0.4901870">
        <ele>1681.0</ele>
        <time>2023-01-14T11:18:41Z</time>
      </trkpt>
      <trkpt lat="42.6905930" lon="-0.4901940">
        <ele>1681.2</ele>
        <time>2023-01-14T11:18:42Z</time>
      </trkpt>
      <trkpt lat="42.6906060" lon="-0.4902000">
        <ele>1681.4</ele>
        <time>2023-01-14T11:18:43Z</time>
      </trkpt>
      <trkpt lat="42.6906290" lon="-0.4901920">
        <ele>1682.0</ele>
        <time>2023-01-14T11:18:44Z</time>
      </trkpt>
      <trkpt lat="42.6906560" lon="-0.4901830">
        <ele>1682.2</ele>
        <time>2023-01-14T11:18:45Z</time>
      </trkpt>
      <trkpt lat="42.6906780" lon="-0.4901760">
        <ele>1683.0</ele>
        <time>2023-01-14T11:18:46Z</time>
      </trkpt>
      <trkpt lat="42.6906980" lon="-0.4901640">
        <ele>1683.6</ele>
        <time>2023-01-14T11:18:47Z</time>
      </trkpt>
      <trkpt lat="42.6907190" lon="-0.4901520">
        <ele>1683.8</ele>
        <time>2023-01-14T11:18:48Z</time>
      </trkpt>
      <trkpt lat="42.6907380" lon="-0.4901460">
        <ele>1684.8</ele>
        <time>2023-01-14T11:18:49Z</time>
      </trkpt>
      <trkpt lat="42.6907600" lon="-0.4901380">
        <ele>1685.2</ele>
        <time>2023-01-14T11:18:50Z</time>
      </trkpt>
      <trkpt lat="42.6907820" lon="-0.4901300">
        <ele>1685.6</ele>
        <time>2023-01-14T11:18:51Z</time>
      </trkpt>
      <trkpt lat="42.6908080" lon="-0.4901180">
        <ele>1686.0</ele>
        <time>2023-01-14T11:18:52Z</time>
      </trkpt>
      <trkpt lat="42.6908320" lon="-0.4901040">
        <ele>1686.4</ele>
        <time>2023-01-14T11:18:53Z</time>
      </trkpt>
      <trkpt lat="42.6908540" lon="-0.4900900">
        <ele>1687.0</ele>
        <time>2023-01-14T11:18:54Z</time>
      </trkpt>
      <trkpt lat="42.6908810" lon="-0.4900770">
        <ele>1687.6</ele>
        <time>2023-01-14T11:18:55Z</time>
      </trkpt>
      <trkpt lat="42.6909040" lon="-0.4900640">
        <ele>1688.2</ele>
        <time>2023-01-14T11:18:56Z</time>
      </trkpt>
      <trkpt lat="42.6909270" lon="-0.4900480">
        <ele>1688.4</ele>
        <time>2023-01-14T11:18:57Z</time>
      </trkpt>
      <trkpt lat="42.6909490" lon="-0.4900300">
        <ele>1688.6</ele>
        <time>2023-01-14T11:18:58Z</time>
      </trkpt>
      <trkpt lat="42.6909700" lon="-0.4900160">
        <ele>1688.8</ele>
        <time>2023-01-14T11:18:59Z</time>
      </trkpt>
      <trkpt lat="42.6909880" lon="-0.4900010">
        <ele>1689.0</ele>
        <time>2023-01-14T11:19:00Z</time>
      </trkpt>
      <trkpt lat="42.6910060" lon="-0.4899820">
        <ele>1689.2</ele>
        <time>2023-01-14T11:19:01Z</time>
      </trkpt>
      <trkpt lat="42.6910280" lon="-0.4899610">
        <ele>1689.6</ele>
        <time>2023-01-14T11:19:02Z</time>
      </trkpt>
      <trkpt lat="42.6910480" lon="-0.4899400">
        <ele>1689.8</ele>
        <time>2023-01-14T11:19:03Z</time>
      </trkpt>
      <trkpt lat="42.6910680" lon="-0.4899190">
        <ele>1690.4</ele>
        <time>2023-01-14T11:19:04Z</time>
      </trkpt>
      <trkpt lat="42.6910880" lon="-0.4898940">
        <ele>1691.0</ele>
        <time>2023-01-14T11:19:05Z</time>
      </trkpt>
      <trkpt lat="42.6911120" lon="-0.4898660">
        <ele>1691.4</ele>
        <time>2023-01-14T11:19:06Z</time>
      </trkpt>
      <trkpt lat="42.6911400" lon="-0.4898390">
        <ele>1691.8</ele>
        <time>2023-01-14T11:19:07Z</time>
      </trkpt>
      <trkpt lat="42.6911680" lon="-0.4898170">
        <ele>1692.0</ele>
        <time>2023-01-14T11:19:08Z</time>
      </trkpt>
      <trkpt lat="42.6911950" lon="-0.4898010">
        <ele>1692.0</ele>
        <time>2023-01-14T11:19:09Z</time>
      </trkpt>
      <trkpt lat="42.6912220" lon="-0.4897790">
        <ele>1692.4</ele>
        <time>2023-01-14T11:19:10Z</time>
      </trkpt>
      <trkpt lat="42.6912480" lon="-0.4897540">
        <ele>1692.4</ele>
        <time>2023-01-14T11:19:11Z</time>
      </trkpt>
      <trkpt lat="42.6912730" lon="-0.4897280">
        <ele>1692.8</ele>
        <time>2023-01-14T11:19:12Z</time>
      </trkpt>
      <trkpt lat="42.6912950" lon="-0.4897100">
        <ele>1693.0</ele>
        <time>2023-01-14T11:19:13Z</time>
      </trkpt>
      <trkpt lat="42.6913120" lon="-0.4896920">
        <ele>1693.0</ele>
        <time>2023-01-14T11:19:14Z</time>
      </trkpt>
      <trkpt lat="42.6913210" lon="-0.4896830">
        <ele>1693.4</ele>
        <time>2023-01-14T11:19:15Z</time>
      </trkpt>
      <trkpt lat="42.6913340" lon="-0.4896700">
        <ele>1693.6</ele>
        <time>2023-01-14T11:19:16Z</time>
      </trkpt>
      <trkpt lat="42.6913500" lon="-0.4896510">
        <ele>1693.8</ele>
        <time>2023-01-14T11:19:17Z</time>
      </trkpt>
      <trkpt lat="42.6913660" lon="-0.4896330">
        <ele>1694.0</ele>
        <time>2023-01-14T11:19:18Z</time>
      </trkpt>
      <trkpt lat="42.6913810" lon="-0.4896140">
        <ele>1694.2</ele>
        <time>2023-01-14T11:19:19Z</time>
      </trkpt>
      <trkpt lat="42.6914020" lon="-0.4895890">
        <ele>1694.2</ele>
        <time>2023-01-14T11:19:20Z</time>
      </trkpt>
      <trkpt lat="42.6914250" lon="-0.4895610">
        <ele>1694.8</ele>
        <time>2023-01-14T11:19:21Z</time>
      </trkpt>
      <trkpt lat="42.6914490" lon="-0.4895340">
        <ele>1695.2</ele>
        <time>2023-01-14T11:19:22Z</time>
      </trkpt>
      <trkpt lat="42.6914740" lon="-0.4895090">
        <ele>1695.6</ele>
        <time>2023-01-14T11:19:23Z</time>
      </trkpt>
      <trkpt lat="42.6915000" lon="-0.4894840">
        <ele>1696.0</ele>
        <time>2023-01-14T11:19:24Z</time>
      </trkpt>
      <trkpt lat="42.6915240" lon="-0.4894600">
        <ele>1696.4</ele>
        <time>2023-01-14T11:19:25Z</time>
      </trkpt>
      <trkpt lat="42.6915480" lon="-0.4894340">
        <ele>1697.0</ele>
        <time>2023-01-14T11:19:26Z</time>
      </trkpt>
      <trkpt lat="42.6915720" lon="-0.4894020">
        <ele>1697.4</ele>
        <time>2023-01-14T11:19:27Z</time>
      </trkpt>
      <trkpt lat="42.6915950" lon="-0.4893710">
        <ele>1697.8</ele>
        <time>2023-01-14T11:19:28Z</time>
      </trkpt>
      <trkpt lat="42.6916140" lon="-0.4893440">
        <ele>1698.0</ele>
        <time>2023-01-14T11:19:29Z</time>
      </trkpt>
      <trkpt lat="42.6916370" lon="-0.4893190">
        <ele>1698.4</ele>
        <time>2023-01-14T11:19:30Z</time>
      </trkpt>
      <trkpt lat="42.6916640" lon="-0.4892860">
        <ele>1698.8</ele>
        <time>2023-01-14T11:19:31Z</time>
      </trkpt>
      <trkpt lat="42.6916870" lon="-0.4892600">
        <ele>1699.0</ele>
        <time>2023-01-14T11:19:32Z</time>
      </trkpt>
      <trkpt lat="42.6917100" lon="-0.4892400">
        <ele>1699.2</ele>
        <time>2023-01-14T11:19:33Z</time>
      </trkpt>
      <trkpt lat="42.6917270" lon="-0.4892240">
        <ele>1699.6</ele>
        <time>2023-01-14T11:19:34Z</time>
      </trkpt>
      <trkpt lat="42.6917510" lon="-0.4892050">
        <ele>1699.8</ele>
        <time>2023-01-14T11:19:35Z</time>
      </trkpt>
      <trkpt lat="42.6917790" lon="-0.4891770">
        <ele>1700.0</ele>
        <time>2023-01-14T11:19:36Z</time>
      </trkpt>
      <trkpt lat="42.6918070" lon="-0.4891540">
        <ele>1700.2</ele>
        <time>2023-01-14T11:19:37Z</time>
      </trkpt>
      <trkpt lat="42.6918310" lon="-0.4891380">
        <ele>1700.6</ele>
        <time>2023-01-14T11:19:38Z</time>
      </trkpt>
      <trkpt lat="42.6918500" lon="-0.4891270">
        <ele>1701.0</ele>
        <time>2023-01-14T11:19:39Z</time>
      </trkpt>
      <trkpt lat="42.6918670" lon="-0.4891290">
        <ele>1701.6</ele>
        <time>2023-01-14T11:19:40Z</time>
      </trkpt>
      <trkpt lat="42.6918890" lon="-0.4891190">
        <ele>1702.2</ele>
        <time>2023-01-14T11:19:41Z</time>
      </trkpt>
      <trkpt lat="42.6919090" lon="-0.4891000">
        <ele>1702.8</ele>
        <time>2023-01-14T11:19:42Z</time>
      </trkpt>
      <trkpt lat="42.6919310" lon="-0.4890770">
        <ele>1703.6</ele>
        <time>2023-01-14T11:19:43Z</time>
      </trkpt>
      <trkpt lat="42.6919490" lon="-0.4890560">
        <ele>1704.2</ele>
        <time>2023-01-14T11:19:44Z</time>
      </trkpt>
      <trkpt lat="42.6919600" lon="-0.4890400">
        <ele>1704.6</ele>
        <time>2023-01-14T11:19:45Z</time>
      </trkpt>
      <trkpt lat="42.6919740" lon="-0.4890190">
        <ele>1705.0</ele>
        <time>2023-01-14T11:19:46Z</time>
      </trkpt>
      <trkpt lat="42.6919960" lon="-0.4889880">
        <ele>1705.4</ele>
        <time>2023-01-14T11:19:47Z</time>
      </trkpt>
      <trkpt lat="42.6920140" lon="-0.4889600">
        <ele>1705.6</ele>
        <time>2023-01-14T11:19:48Z</time>
      </trkpt>
      <trkpt lat="42.6920360" lon="-0.4889290">
        <ele>1705.8</ele>
        <time>2023-01-14T11:19:49Z</time>
      </trkpt>
      <trkpt lat="42.6920650" lon="-0.4888960">
        <ele>1706.0</ele>
        <time>2023-01-14T11:19:50Z</time>
      </trkpt>
      <trkpt lat="42.6920920" lon="-0.4888630">
        <ele>1706.0</ele>
        <time>2023-01-14T11:19:51Z</time>
      </trkpt>
      <trkpt lat="42.6921140" lon="-0.4888280">
        <ele>1706.4</ele>
        <time>2023-01-14T11:19:52Z</time>
      </trkpt>
      <trkpt lat="42.6921300" lon="-0.4887910">
        <ele>1706.6</ele>
        <time>2023-01-14T11:19:53Z</time>
      </trkpt>
      <trkpt lat="42.6921510" lon="-0.4887530">
        <ele>1706.8</ele>
        <time>2023-01-14T11:19:54Z</time>
      </trkpt>
      <trkpt lat="42.6921760" lon="-0.4887190">
        <ele>1707.2</ele>
        <time>2023-01-14T11:19:55Z</time>
      </trkpt>
      <trkpt lat="42.6922010" lon="-0.4886900">
        <ele>1707.4</ele>
        <time>2023-01-14T11:19:56Z</time>
      </trkpt>
      <trkpt lat="42.6922270" lon="-0.4886600">
        <ele>1708.0</ele>
        <time>2023-01-14T11:19:57Z</time>
      </trkpt>
      <trkpt lat="42.6922610" lon="-0.4886350">
        <ele>1708.2</ele>
        <time>2023-01-14T11:19:58Z</time>
      </trkpt>
      <trkpt lat="42.6922940" lon="-0.4886130">
        <ele>1708.4</ele>
        <time>2023-01-14T11:19:59Z</time>
      </trkpt>
      <trkpt lat="42.6923270" lon="-0.4885940">
        <ele>1708.6</ele>
        <time>2023-01-14T11:20:00Z</time>
      </trkpt>
      <trkpt lat="42.6923650" lon="-0.4885740">
        <ele>1708.8</ele>
        <time>2023-01-14T11:20:01Z</time>
      </trkpt>
      <trkpt lat="42.6924020" lon="-0.4885510">
        <ele>1708.8</ele>
        <time>2023-01-14T11:20:02Z</time>
      </trkpt>
      <trkpt lat="42.6924370" lon="-0.4885210">
        <ele>1708.8</ele>
        <time>2023-01-14T11:20:03Z</time>
      </trkpt>
      <trkpt lat="42.6924700" lon="-0.4884910">
        <ele>1709.0</ele>
        <time>2023-01-14T11:20:04Z</time>
      </trkpt>
      <trkpt lat="42.6924990" lon="-0.4884700">
        <ele>1709.0</ele>
        <time>2023-01-14T11:20:05Z</time>
      </trkpt>
      <trkpt lat="42.6925270" lon="-0.4884510">
        <ele>1709.0</ele>
        <time>2023-01-14T11:20:06Z</time>
      </trkpt>
      <trkpt lat="42.6925550" lon="-0.4884340">
        <ele>1709.0</ele>
        <time>2023-01-14T11:20:07Z</time>
      </trkpt>
      <trkpt lat="42.6925820" lon="-0.4884150">
        <ele>1709.0</ele>
        <time>2023-01-14T11:20:08Z</time>
      </trkpt>
      <trkpt lat="42.6926030" lon="-0.4884010">
        <ele>1709.0</ele>
        <time>2023-01-14T11:20:09Z</time>
      </trkpt>
      <trkpt lat="42.6926230" lon="-0.4883900">
        <ele>1709.4</ele>
        <time>2023-01-14T11:20:10Z</time>
      </trkpt>
      <trkpt lat="42.6926380" lon="-0.4883870">
        <ele>1710.0</ele>
        <time>2023-01-14T11:20:11Z</time>
      </trkpt>
      <trkpt lat="42.6926530" lon="-0.4883770">
        <ele>1710.4</ele>
        <time>2023-01-14T11:20:12Z</time>
      </trkpt>
      <trkpt lat="42.6926730" lon="-0.4883650">
        <ele>1711.0</ele>
        <time>2023-01-14T11:20:13Z</time>
      </trkpt>
      <trkpt lat="42.6926970" lon="-0.4883600">
        <ele>1711.4</ele>
        <time>2023-01-14T11:20:14Z</time>
      </trkpt>
      <trkpt lat="42.6927200" lon="-0.4883560">
        <ele>1712.0</ele>
        <time>2023-01-14T11:20:15Z</time>
      </trkpt>
      <trkpt lat="42.6927430" lon="-0.4883510">
        <ele>1712.8</ele>
        <time>2023-01-14T11:20:16Z</time>
      </trkpt>
      <trkpt lat="42.6927690" lon="-0.4883430">
        <ele>1713.4</ele>
        <time>2023-01-14T11:20:17Z</time>
      </trkpt>
      <trkpt lat="42.6927950" lon="-0.4883380">
        <ele>1713.6</ele>
        <time>2023-01-14T11:20:18Z</time>
      </trkpt>
      <trkpt lat="42.6928190" lon="-0.4883380">
        <ele>1713.8</ele>
        <time>2023-01-14T11:20:19Z</time>
      </trkpt>
      <trkpt lat="42.6928450" lon="-0.4883430">
        <ele>1714.0</ele>
        <time>2023-01-14T11:20:20Z</time>
      </trkpt>
      <trkpt lat="42.6928730" lon="-0.4883510">
        <ele>1714.6</ele>
        <time>2023-01-14T11:20:21Z</time>
      </trkpt>
      <trkpt lat="42.6929020" lon="-0.4883570">
        <ele>1715.0</ele>
        <time>2023-01-14T11:20:22Z</time>
      </trkpt>
      <trkpt lat="42.6929290" lon="-0.4883660">
        <ele>1715.6</ele>
        <time>2023-01-14T11:20:23Z</time>
      </trkpt>
      <trkpt lat="42.6929550" lon="-0.4883820">
        <ele>1716.0</ele>
        <time>2023-01-14T11:20:24Z</time>
      </trkpt>
      <trkpt lat="42.6929850" lon="-0.4883940">
        <ele>1716.4</ele>
        <time>2023-01-14T11:20:25Z</time>
      </trkpt>
      <trkpt lat="42.6930140" lon="-0.4884030">
        <ele>1716.8</ele>
        <time>2023-01-14T11:20:26Z</time>
      </trkpt>
      <trkpt lat="42.6930410" lon="-0.4884070">
        <ele>1717.0</ele>
        <time>2023-01-14T11:20:27Z</time>
      </trkpt>
      <trkpt lat="42.6930660" lon="-0.4884050">
        <ele>1717.8</ele>
        <time>2023-01-14T11:20:28Z</time>
      </trkpt>
      <trkpt lat="42.6930900" lon="-0.4883960">
        <ele>1718.2</ele>
        <time>2023-01-14T11:20:29Z</time>
      </trkpt>
      <trkpt lat="42.6931130" lon="-0.4883800">
        <ele>1718.6</ele>
        <time>2023-01-14T11:20:30Z</time>
      </trkpt>
      <trkpt lat="42.6931330" lon="-0.4883630">
        <ele>1718.8</ele>
        <time>2023-01-14T11:20:31Z</time>
      </trkpt>
      <trkpt lat="42.6931510" lon="-0.4883470">
        <ele>1719.4</ele>
        <time>2023-01-14T11:20:32Z</time>
      </trkpt>
      <trkpt lat="42.6931710" lon="-0.4883310">
        <ele>1719.6</ele>
        <time>2023-01-14T11:20:33Z</time>
      </trkpt>
      <trkpt lat="42.6931900" lon="-0.4883150">
        <ele>1720.0</ele>
        <time>2023-01-14T11:20:34Z</time>
      </trkpt>
      <trkpt lat="42.6932080" lon="-0.4882970">
        <ele>1720.4</ele>
        <time>2023-01-14T11:20:35Z</time>
      </trkpt>
      <trkpt lat="42.6932280" lon="-0.4882770">
        <ele>1720.8</ele>
        <time>2023-01-14T11:20:36Z</time>
      </trkpt>
      <trkpt lat="42.6932510" lon="-0.4882590">
        <ele>1721.4</ele>
        <time>2023-01-14T11:20:37Z</time>
      </trkpt>
      <trkpt lat="42.6932740" lon="-0.4882430">
        <ele>1721.8</ele>
        <time>2023-01-14T11:20:38Z</time>
      </trkpt>
      <trkpt lat="42.6932970" lon="-0.4882270">
        <ele>1722.0</ele>
        <time>2023-01-14T11:20:39Z</time>
      </trkpt>
      <trkpt lat="42.6933200" lon="-0.4882130">
        <ele>1722.4</ele>
        <time>2023-01-14T11:20:40Z</time>
      </trkpt>
      <trkpt lat="42.6933440" lon="-0.4881990">
        <ele>1722.8</ele>
        <time>2023-01-14T11:20:41Z</time>
      </trkpt>
      <trkpt lat="42.6933640" lon="-0.4881880">
        <ele>1723.4</ele>
        <time>2023-01-14T11:20:42Z</time>
      </trkpt>
      <trkpt lat="42.6933820" lon="-0.4881750">
        <ele>1723.8</ele>
        <time>2023-01-14T11:20:43Z</time>
      </trkpt>
      <trkpt lat="42.6934020" lon="-0.4881580">
        <ele>1724.2</ele>
        <time>2023-01-14T11:20:44Z</time>
      </trkpt>
      <trkpt lat="42.6934230" lon="-0.4881390">
        <ele>1724.6</ele>
        <time>2023-01-14T11:20:45Z</time>
      </trkpt>
      <trkpt lat="42.6934440" lon="-0.4881190">
        <ele>1724.8</ele>
        <time>2023-01-14T11:20:46Z</time>
      </trkpt>
      <trkpt lat="42.6934630" lon="-0.4881000">
        <ele>1725.2</ele>
        <time>2023-01-14T11:20:47Z</time>
      </trkpt>
      <trkpt lat="42.6934790" lon="-0.4880790">
        <ele>1725.8</ele>
        <time>2023-01-14T11:20:48Z</time>
      </trkpt>
      <trkpt lat="42.6934950" lon="-0.4880570">
        <ele>1726.6</ele>
        <time>2023-01-14T11:20:49Z</time>
      </trkpt>
      <trkpt lat="42.6935100" lon="-0.4880350">
        <ele>1727.2</ele>
        <time>2023-01-14T11:20:50Z</time>
      </trkpt>
      <trkpt lat="42.6935220" lon="-0.4880100">
        <ele>1727.6</ele>
        <time>2023-01-14T11:20:51Z</time>
      </trkpt>
      <trkpt lat="42.6935340" lon="-0.4879830">
        <ele>1728.2</ele>
        <time>2023-01-14T11:20:52Z</time>
      </trkpt>
      <trkpt lat="42.6935430" lon="-0.4879540">
        <ele>1728.8</ele>
        <time>2023-01-14T11:20:53Z</time>
      </trkpt>
      <trkpt lat="42.6935510" lon="-0.4879220">
        <ele>1729.0</ele>
        <time>2023-01-14T11:20:54Z</time>
      </trkpt>
      <trkpt lat="42.6935610" lon="-0.4878910">
        <ele>1729.4</ele>
        <time>2023-01-14T11:20:55Z</time>
      </trkpt>
      <trkpt lat="42.6935700" lon="-0.4878620">
        <ele>1730.0</ele>
        <time>2023-01-14T11:20:56Z</time>
      </trkpt>
      <trkpt lat="42.6935790" lon="-0.4878320">
        <ele>1730.2</ele>
        <time>2023-01-14T11:20:57Z</time>
      </trkpt>
      <trkpt lat="42.6935890" lon="-0.4877990">
        <ele>1730.4</ele>
        <time>2023-01-14T11:20:58Z</time>
      </trkpt>
      <trkpt lat="42.6935980" lon="-0.4877690">
        <ele>1730.8</ele>
        <time>2023-01-14T11:20:59Z</time>
      </trkpt>
      <trkpt lat="42.6936010" lon="-0.4877400">
        <ele>1731.6</ele>
        <time>2023-01-14T11:21:00Z</time>
      </trkpt>
      <trkpt lat="42.6936030" lon="-0.4877050">
        <ele>1732.0</ele>
        <time>2023-01-14T11:21:01Z</time>
      </trkpt>
      <trkpt lat="42.6936080" lon="-0.4876660">
        <ele>1732.4</ele>
        <time>2023-01-14T11:21:02Z</time>
      </trkpt>
      <trkpt lat="42.6936180" lon="-0.4876260">
        <ele>1732.6</ele>
        <time>2023-01-14T11:21:03Z</time>
      </trkpt>
      <trkpt lat="42.6936280" lon="-0.4875900">
        <ele>1733.0</ele>
        <time>2023-01-14T11:21:04Z</time>
      </trkpt>
      <trkpt lat="42.6936380" lon="-0.4875570">
        <ele>1733.0</ele>
        <time>2023-01-14T11:21:05Z</time>
      </trkpt>
      <trkpt lat="42.6936440" lon="-0.4875260">
        <ele>1733.4</ele>
        <time>2023-01-14T11:21:06Z</time>
      </trkpt>
      <trkpt lat="42.6936470" lon="-0.4875010">
        <ele>1733.8</ele>
        <time>2023-01-14T11:21:07Z</time>
      </trkpt>
      <trkpt lat="42.6936470" lon="-0.4874720">
        <ele>1734.2</ele>
        <time>2023-01-14T11:21:08Z</time>
      </trkpt>
      <trkpt lat="42.6936480" lon="-0.4874350">
        <ele>1734.4</ele>
        <time>2023-01-14T11:21:09Z</time>
      </trkpt>
      <trkpt lat="42.6936500" lon="-0.4873990">
        <ele>1734.6</ele>
        <time>2023-01-14T11:21:10Z</time>
      </trkpt>
      <trkpt lat="42.6936530" lon="-0.4873650">
        <ele>1734.8</ele>
        <time>2023-01-14T11:21:11Z</time>
      </trkpt>
      <trkpt lat="42.6936580" lon="-0.4873320">
        <ele>1735.4</ele>
        <time>2023-01-14T11:21:12Z</time>
      </trkpt>
      <trkpt lat="42.6936640" lon="-0.4873000">
        <ele>1736.2</ele>
        <time>2023-01-14T11:21:13Z</time>
      </trkpt>
      <trkpt lat="42.6936690" lon="-0.4872670">
        <ele>1736.6</ele>
        <time>2023-01-14T11:21:14Z</time>
      </trkpt>
      <trkpt lat="42.6936750" lon="-0.4872340">
        <ele>1737.2</ele>
        <time>2023-01-14T11:21:15Z</time>
      </trkpt>
      <trkpt lat="42.6936800" lon="-0.4872010">
        <ele>1737.6</ele>
        <time>2023-01-14T11:21:16Z</time>
      </trkpt>
      <trkpt lat="42.6936800" lon="-0.4871690">
        <ele>1738.0</ele>
        <time>2023-01-14T11:21:17Z</time>
      </trkpt>
      <trkpt lat="42.6936800" lon="-0.4871370">
        <ele>1738.4</ele>
        <time>2023-01-14T11:21:18Z</time>
      </trkpt>
      <trkpt lat="42.6936780" lon="-0.4871040">
        <ele>1738.8</ele>
        <time>2023-01-14T11:21:19Z</time>
      </trkpt>
      <trkpt lat="42.6936740" lon="-0.4870740">
        <ele>1739.6</ele>
        <time>2023-01-14T11:21:20Z</time>
      </trkpt>
      <trkpt lat="42.6936700" lon="-0.4870430">
        <ele>1740.0</ele>
        <time>2023-01-14T11:21:21Z</time>
      </trkpt>
      <trkpt lat="42.6936650" lon="-0.4870120">
        <ele>1740.8</ele>
        <time>2023-01-14T11:21:22Z</time>
      </trkpt>
      <trkpt lat="42.6936650" lon="-0.4869820">
        <ele>1741.4</ele>
        <time>2023-01-14T11:21:23Z</time>
      </trkpt>
      <trkpt lat="42.6936720" lon="-0.4869530">
        <ele>1741.6</ele>
        <time>2023-01-14T11:21:24Z</time>
      </trkpt>
      <trkpt lat="42.6936810" lon="-0.4869220">
        <ele>1742.2</ele>
        <time>2023-01-14T11:21:25Z</time>
      </trkpt>
      <trkpt lat="42.6936890" lon="-0.4868920">
        <ele>1742.8</ele>
        <time>2023-01-14T11:21:26Z</time>
      </trkpt>
      <trkpt lat="42.6936950" lon="-0.4868610">
        <ele>1743.2</ele>
        <time>2023-01-14T11:21:27Z</time>
      </trkpt>
      <trkpt lat="42.6937010" lon="-0.4868290">
        <ele>1743.8</ele>
        <time>2023-01-14T11:21:28Z</time>
      </trkpt>
      <trkpt lat="42.6937110" lon="-0.4867980">
        <ele>1744.4</ele>
        <time>2023-01-14T11:21:29Z</time>
      </trkpt>
      <trkpt lat="42.6937260" lon="-0.4867720">
        <ele>1744.6</ele>
        <time>2023-01-14T11:21:30Z</time>
      </trkpt>
      <trkpt lat="42.6937450" lon="-0.4867550">
        <ele>1744.8</ele>
        <time>2023-01-14T11:21:31Z</time>
      </trkpt>
      <trkpt lat="42.6937660" lon="-0.4867500">
        <ele>1745.2</ele>
        <time>2023-01-14T11:21:32Z</time>
      </trkpt>
      <trkpt lat="42.6937890" lon="-0.4867610">
        <ele>1746.0</ele>
        <time>2023-01-14T11:21:33Z</time>
      </trkpt>
      <trkpt lat="42.6938130" lon="-0.4867890">
        <ele>1746.4</ele>
        <time>2023-01-14T11:21:34Z</time>
      </trkpt>
      <trkpt lat="42.6938380" lon="-0.4868340">
        <ele>1746.6</ele>
        <time>2023-01-14T11:21:35Z</time>
      </trkpt>
      <trkpt lat="42.6938630" lon="-0.4868900">
        <ele>1746.8</ele>
        <time>2023-01-14T11:21:36Z</time>
      </trkpt>
      <trkpt lat="42.6938880" lon="-0.4869520">
        <ele>1746.6</ele>
        <time>2023-01-14T11:21:37Z</time>
      </trkpt>
      <trkpt lat="42.6939150" lon="-0.4870170">
        <ele>1746.6</ele>
        <time>2023-01-14T11:21:38Z</time>
      </trkpt>
      <trkpt lat="42.6939410" lon="-0.4870860">
        <ele>1746.6</ele>
        <time>2023-01-14T11:21:39Z</time>
      </trkpt>
      <trkpt lat="42.6939670" lon="-0.4871560">
        <ele>1746.4</ele>
        <time>2023-01-14T11:21:40Z</time>
      </trkpt>
      <trkpt lat="42.6939930" lon="-0.4872270">
        <ele>1746.6</ele>
        <time>2023-01-14T11:21:41Z</time>
      </trkpt>
      <trkpt lat="42.6940170" lon="-0.4872980">
        <ele>1746.4</ele>
        <time>2023-01-14T11:21:42Z</time>
      </trkpt>
      <trkpt lat="42.6940380" lon="-0.4873710">
        <ele>1746.4</ele>
        <time>2023-01-14T11:21:43Z</time>
      </trkpt>
      <trkpt lat="42.6940550" lon="-0.4874460">
        <ele>1746.2</ele>
        <time>2023-01-14T11:21:44Z</time>
      </trkpt>
      <trkpt lat="42.6940670" lon="-0.4875230">
        <ele>1746.0</ele>
        <time>2023-01-14T11:21:45Z</time>
      </trkpt>
      <trkpt lat="42.6940760" lon="-0.4875950">
        <ele>1746.0</ele>
        <time>2023-01-14T11:21:46Z</time>
      </trkpt>
      <trkpt lat="42.6940820" lon="-0.4876670">
        <ele>1746.0</ele>
        <time>2023-01-14T11:21:47Z</time>
      </trkpt>
      <trkpt lat="42.6940840" lon="-0.4877380">
        <ele>1746.0</ele>
        <time>2023-01-14T11:21:48Z</time>
      </trkpt>
      <trkpt lat="42.6940820" lon="-0.4878040">
        <ele>1746.0</ele>
        <time>2023-01-14T11:21:49Z</time>
      </trkpt>
      <trkpt lat="42.6940750" lon="-0.4878660">
        <ele>1746.4</ele>
        <time>2023-01-14T11:21:50Z</time>
      </trkpt>
      <trkpt lat="42.6940620" lon="-0.4879220">
        <ele>1746.8</ele>
        <time>2023-01-14T11:21:51Z</time>
      </trkpt>
      <trkpt lat="42.6940510" lon="-0.4879740">
        <ele>1747.0</ele>
        <time>2023-01-14T11:21:52Z</time>
      </trkpt>
      <trkpt lat="42.6940420" lon="-0.4880260">
        <ele>1747.2</ele>
        <time>2023-01-14T11:21:53Z</time>
      </trkpt>
      <trkpt lat="42.6940280" lon="-0.4880760">
        <ele>1747.4</ele>
        <time>2023-01-14T11:21:54Z</time>
      </trkpt>
      <trkpt lat="42.6940090" lon="-0.4881240">
        <ele>1747.6</ele>
        <time>2023-01-14T11:21:55Z</time>
      </trkpt>
      <trkpt lat="42.6939870" lon="-0.4881710">
        <ele>1748.2</ele>
        <time>2023-01-14T11:21:56Z</time>
      </trkpt>
      <trkpt lat="42.6939610" lon="-0.4882170">
        <ele>1748.4</ele>
        <time>2023-01-14T11:21:57Z</time>
      </trkpt>
      <trkpt lat="42.6939360" lon="-0.4882650">
        <ele>1748.8</ele>
        <time>2023-01-14T11:21:58Z</time>
      </trkpt>
      <trkpt lat="42.6939130" lon="-0.4883140">
        <ele>1749.2</ele>
        <time>2023-01-14T11:21:59Z</time>
      </trkpt>
      <trkpt lat="42.6938940" lon="-0.4883620">
        <ele>1749.4</ele>
        <time>2023-01-14T11:22:00Z</time>
      </trkpt>
      <trkpt lat="42.6938790" lon="-0.4884150">
        <ele>1749.8</ele>
        <time>2023-01-14T11:22:01Z</time>
      </trkpt>
      <trkpt lat="42.6938690" lon="-0.4884720">
        <ele>1750.0</ele>
        <time>2023-01-14T11:22:02Z</time>
      </trkpt>
      <trkpt lat="42.6938600" lon="-0.4885280">
        <ele>1750.2</ele>
        <time>2023-01-14T11:22:03Z</time>
      </trkpt>
      <trkpt lat="42.6938500" lon="-0.4885800">
        <ele>1750.2</ele>
        <time>2023-01-14T11:22:04Z</time>
      </trkpt>
      <trkpt lat="42.6938400" lon="-0.4886290">
        <ele>1750.2</ele>
        <time>2023-01-14T11:22:05Z</time>
      </trkpt>
      <trkpt lat="42.6938290" lon="-0.4886760">
        <ele>1750.6</ele>
        <time>2023-01-14T11:22:06Z</time>
      </trkpt>
      <trkpt lat="42.6938120" lon="-0.4887270">
        <ele>1750.6</ele>
        <time>2023-01-14T11:22:07Z</time>
      </trkpt>
      <trkpt lat="42.6937900" lon="-0.4887800">
        <ele>1750.6</ele>
        <time>2023-01-14T11:22:08Z</time>
      </trkpt>
      <trkpt lat="42.6937610" lon="-0.4888310">
        <ele>1750.6</ele>
        <time>2023-01-14T11:22:09Z</time>
      </trkpt>
      <trkpt lat="42.6937420" lon="-0.4888780">
        <ele>1750.8</ele>
        <time>2023-01-14T11:22:10Z</time>
      </trkpt>
      <trkpt lat="42.6937260" lon="-0.4889270">
        <ele>1750.8</ele>
        <time>2023-01-14T11:22:11Z</time>
      </trkpt>
      <trkpt lat="42.6937120" lon="-0.4889750">
        <ele>1750.8</ele>
        <time>2023-01-14T11:22:12Z</time>
      </trkpt>
      <trkpt lat="42.6936950" lon="-0.4890310">
        <ele>1751.0</ele>
        <time>2023-01-14T11:22:13Z</time>
      </trkpt>
      <trkpt lat="42.6936760" lon="-0.4890880">
        <ele>1751.2</ele>
        <time>2023-01-14T11:22:14Z</time>
      </trkpt>
      <trkpt lat="42.6936590" lon="-0.4891370">
        <ele>1751.4</ele>
        <time>2023-01-14T11:22:15Z</time>
      </trkpt>
      <trkpt lat="42.6936410" lon="-0.4891880">
        <ele>1751.6</ele>
        <time>2023-01-14T11:22:16Z</time>
      </trkpt>
      <trkpt lat="42.6936240" lon="-0.4892390">
        <ele>1752.2</ele>
        <time>2023-01-14T11:22:17Z</time>
      </trkpt>
      <trkpt lat="42.6936090" lon="-0.4892870">
        <ele>1753.0</ele>
        <time>2023-01-14T11:22:18Z</time>
      </trkpt>
      <trkpt lat="42.6935910" lon="-0.4893410">
        <ele>1753.6</ele>
        <time>2023-01-14T11:22:19Z</time>
      </trkpt>
      <trkpt lat="42.6935710" lon="-0.4893960">
        <ele>1754.0</ele>
        <time>2023-01-14T11:22:20Z</time>
      </trkpt>
      <trkpt lat="42.6935530" lon="-0.4894460">
        <ele>1754.4</ele>
        <time>2023-01-14T11:22:21Z</time>
      </trkpt>
      <trkpt lat="42.6935360" lon="-0.4894950">
        <ele>1755.0</ele>
        <time>2023-01-14T11:22:22Z</time>
      </trkpt>
      <trkpt lat="42.6935190" lon="-0.4895520">
        <ele>1755.4</ele>
        <time>2023-01-14T11:22:23Z</time>
      </trkpt>
      <trkpt lat="42.6934990" lon="-0.4896090">
        <ele>1756.0</ele>
        <time>2023-01-14T11:22:24Z</time>
      </trkpt>
      <trkpt lat="42.6934790" lon="-0.4896630">
        <ele>1756.6</ele>
        <time>2023-01-14T11:22:25Z</time>
      </trkpt>
      <trkpt lat="42.6934620" lon="-0.4897130">
        <ele>1757.0</ele>
        <time>2023-01-14T11:22:26Z</time>
      </trkpt>
      <trkpt lat="42.6934460" lon="-0.4897610">
        <ele>1757.4</ele>
        <time>2023-01-14T11:22:27Z</time>
      </trkpt>
      <trkpt lat="42.6934350" lon="-0.4898050">
        <ele>1757.6</ele>
        <time>2023-01-14T11:22:28Z</time>
      </trkpt>
      <trkpt lat="42.6934200" lon="-0.4898500">
        <ele>1758.2</ele>
        <time>2023-01-14T11:22:29Z</time>
      </trkpt>
      <trkpt lat="42.6934010" lon="-0.4898990">
        <ele>1758.6</ele>
        <time>2023-01-14T11:22:30Z</time>
      </trkpt>
      <trkpt lat="42.6933850" lon="-0.4899510">
        <ele>1759.4</ele>
        <time>2023-01-14T11:22:31Z</time>
      </trkpt>
      <trkpt lat="42.6933700" lon="-0.4900050">
        <ele>1759.8</ele>
        <time>2023-01-14T11:22:32Z</time>
      </trkpt>
      <trkpt lat="42.6933570" lon="-0.4900510">
        <ele>1760.0</ele>
        <time>2023-01-14T11:22:33Z</time>
      </trkpt>
      <trkpt lat="42.6933440" lon="-0.4901010">
        <ele>1760.4</ele>
        <time>2023-01-14T11:22:34Z</time>
      </trkpt>
      <trkpt lat="42.6933320" lon="-0.4901470">
        <ele>1761.0</ele>
        <time>2023-01-14T11:22:35Z</time>
      </trkpt>
      <trkpt lat="42.6933220" lon="-0.4901930">
        <ele>1761.2</ele>
        <time>2023-01-14T11:22:36Z</time>
      </trkpt>
      <trkpt lat="42.6933150" lon="-0.4902420">
        <ele>1761.4</ele>
        <time>2023-01-14T11:22:37Z</time>
      </trkpt>
      <trkpt lat="42.6933160" lon="-0.4902840">
        <ele>1761.6</ele>
        <time>2023-01-14T11:22:38Z</time>
      </trkpt>
      <trkpt lat="42.6933220" lon="-0.4903130">
        <ele>1762.0</ele>
        <time>2023-01-14T11:22:39Z</time>
      </trkpt>
      <trkpt lat="42.6933230" lon="-0.4903340">
        <ele>1762.2</ele>
        <time>2023-01-14T11:22:40Z</time>
      </trkpt>
      <trkpt lat="42.6933220" lon="-0.4903430">
        <ele>1762.2</ele>
        <time>2023-01-14T11:22:41Z</time>
      </trkpt>
      <trkpt lat="42.6933210" lon="-0.4903450">
        <ele>1762.4</ele>
        <time>2023-01-14T11:22:42Z</time>
      </trkpt>
      <trkpt lat="42.6933190" lon="-0.4903480">
        <ele>1762.6</ele>
        <time>2023-01-14T11:22:43Z</time>
      </trkpt>
      <trkpt lat="42.6933190" lon="-0.4903510">
        <ele>1762.6</ele>
        <time>2023-01-14T11:22:44Z</time>
      </trkpt>
      <trkpt lat="42.6933190" lon="-0.4903520">
        <ele>1762.6</ele>
        <time>2023-01-14T11:22:45Z</time>
      </trkpt>
      <trkpt lat="42.6933190" lon="-0.4903530">
        <ele>1762.4</ele>
        <time>2023-01-14T11:22:46Z</time>
      </trkpt>
      <trkpt lat="42.6933190" lon="-0.4903540">
        <ele>1762.4</ele>
        <time>2023-01-14T11:22:47Z</time>
      </trkpt>
      <trkpt lat="42.6933190" lon="-0.4903550">
        <ele>1762.6</ele>
        <time>2023-01-14T11:22:48Z</time>
      </trkpt>
      <trkpt lat="42.6933190" lon="-0.4903560">
        <ele>1762.6</ele>
        <time>2023-01-14T11:22:49Z</time>
      </trkpt>
      <trkpt lat="42.6933200" lon="-0.4903560">
        <ele>1762.6</ele>
        <time>2023-01-14T11:22:50Z</time>
      </trkpt>
      <trkpt lat="42.6933200" lon="-0.4903570">
        <ele>1762.6</ele>
        <time>2023-01-14T11:22:51Z</time>
      </trkpt>
      <trkpt lat="42.6933200" lon="-0.4903570">
        <ele>1762.6</ele>
        <time>2023-01-14T11:22:52Z</time>
      </trkpt>
      <trkpt lat="42.6933200" lon="-0.4903570">
        <ele>1762.8</ele>
        <time>2023-01-14T11:22:53Z</time>
      </trkpt>
      <trkpt lat="42.6933210" lon="-0.4903580">
        <ele>1762.8</ele>
        <time>2023-01-14T11:22:54Z</time>
      </trkpt>
      <trkpt lat="42.6933210" lon="-0.4903580">
        <ele>1762.8</ele>
        <time>2023-01-14T11:22:55Z</time>
      </trkpt>
      <trkpt lat="42.6933210" lon="-0.4903580">
        <ele>1762.8</ele>
        <time>2023-01-14T11:22:56Z</time>
      </trkpt>
      <trkpt lat="42.6933210" lon="-0.4903580">
        <ele>1762.8</ele>
        <time>2023-01-14T11:22:57Z</time>
      </trkpt>
      <trkpt lat="42.6933210" lon="-0.4903590">
        <ele>1762.8</ele>
        <time>2023-01-14T11:22:58Z</time>
      </trkpt>
      <trkpt lat="42.6933210" lon="-0.4903590">
        <ele>1762.8</ele>
        <time>2023-01-14T11:22:59Z</time>
      </trkpt>
      <trkpt lat="42.6933210" lon="-0.4903590">
        <ele>1762.6</ele>
        <time>2023-01-14T11:23:00Z</time>
      </trkpt>
      <trkpt lat="42.6933210" lon="-0.4903590">
        <ele>1762.6</ele>
        <time>2023-01-14T11:23:01Z</time>
      </trkpt>
      <trkpt lat="42.6933200" lon="-0.4903590">
        <ele>1762.6</ele>
        <time>2023-01-14T11:23:02Z</time>
      </trkpt>
      <trkpt lat="42.6933200" lon="-0.4903590">
        <ele>1762.6</ele>
        <time>2023-01-14T11:23:03Z</time>
      </trkpt>
      <trkpt lat="42.6933200" lon="-0.4903590">
        <ele>1762.6</ele>
        <time>2023-01-14T11:23:04Z</time>
      </trkpt>
      <trkpt lat="42.6933200" lon="-0.4903590">
        <ele>1762.6</ele>
        <time>2023-01-14T11:23:05Z</time>
      </trkpt>
      <trkpt lat="42.6933200" lon="-0.4903590">
        <ele>1762.6</ele>
        <time>2023-01-14T11:23:06Z</time>
      </trkpt>
      <trkpt lat="42.6933200" lon="-0.4903590">
        <ele>1762.6</ele>
        <time>2023-01-14T11:23:07Z</time>
      </trkpt>
      <trkpt lat="42.6933200" lon="-0.4903590">
        <ele>1762.8</ele>
        <time>2023-01-14T11:23:08Z</time>
      </trkpt>
      <trkpt lat="42.6933200" lon="-0.4903600">
        <ele>1762.6</ele>
        <time>2023-01-14T11:23:09Z</time>
      </trkpt>
      <trkpt lat="42.6933190" lon="-0.4903600">
        <ele>1762.8</ele>
        <time>2023-01-14T11:23:10Z</time>
      </trkpt>
      <trkpt lat="42.6933190" lon="-0.4903600">
        <ele>1762.8</ele>
        <time>2023-01-14T11:23:11Z</time>
      </trkpt>
      <trkpt lat="42.6933190" lon="-0.4903600">
        <ele>1762.8</ele>
        <time>2023-01-14T11:23:12Z</time>
      </trkpt>
      <trkpt lat="42.6933190" lon="-0.4903600">
        <ele>1762.8</ele>
        <time>2023-01-14T11:23:13Z</time>
      </trkpt>
      <trkpt lat="42.6933190" lon="-0.4903600">
        <ele>1762.8</ele>
        <time>2023-01-14T11:23:14Z</time>
      </trkpt>
      <trkpt lat="42.6933190" lon="-0.4903600">
        <ele>1762.8</ele>
        <time>2023-01-14T11:23:15Z</time>
      </trkpt>
      <trkpt lat="42.6933180" lon="-0.4903590">
        <ele>1762.8</ele>
        <time>2023-01-14T11:23:16Z</time>
      </trkpt>
      <trkpt lat="42.6933180" lon="-0.4903590">
        <ele>1763.0</ele>
        <time>2023-01-14T11:23:17Z</time>
      </trkpt>
      <trkpt lat="42.6933180" lon="-0.4903590">
        <ele>1763.0</ele>
        <time>2023-01-14T11:23:18Z</time>
      </trkpt>
      <trkpt lat="42.6933180" lon="-0.4903590">
        <ele>1763.0</ele>
        <time>2023-01-14T11:23:19Z</time>
      </trkpt>
      <trkpt lat="42.6933180" lon="-0.4903590">
        <ele>1763.0</ele>
        <time>2023-01-14T11:23:20Z</time>
      </trkpt>
      <trkpt lat="42.6933180" lon="-0.4903590">
        <ele>1763.0</ele>
        <time>2023-01-14T11:23:21Z</time>
      </trkpt>
      <trkpt lat="42.6933180" lon="-0.4903590">
        <ele>1763.0</ele>
        <time>2023-01-14T11:23:22Z</time>
      </trkpt>
      <trkpt lat="42.6933170" lon="-0.4903590">
        <ele>1762.8</ele>
        <time>2023-01-14T11:23:23Z</time>
      </trkpt>
      <trkpt lat="42.6933170" lon="-0.4903600">
        <ele>1762.8</ele>
        <time>2023-01-14T11:23:24Z</time>
      </trkpt>
      <trkpt lat="42.6933160" lon="-0.4903610">
        <ele>1762.6</ele>
        <time>2023-01-14T11:23:25Z</time>
      </trkpt>
      <trkpt lat="42.6933160" lon="-0.4903610">
        <ele>1762.6</ele>
        <time>2023-01-14T11:23:26Z</time>
      </trkpt>
      <trkpt lat="42.6933160" lon="-0.4903620">
        <ele>1762.6</ele>
        <time>2023-01-14T11:23:27Z</time>
      </trkpt>
      <trkpt lat="42.6933160" lon="-0.4903620">
        <ele>1762.6</ele>
        <time>2023-01-14T11:23:28Z</time>
      </trkpt>
      <trkpt lat="42.6933160" lon="-0.4903630">
        <ele>1762.4</ele>
        <time>2023-01-14T11:23:29Z</time>
      </trkpt>
      <trkpt lat="42.6933150" lon="-0.4903640">
        <ele>1762.4</ele>
        <time>2023-01-14T11:23:30Z</time>
      </trkpt>
      <trkpt lat="42.6933150" lon="-0.4903640">
        <ele>1762.4</ele>
        <time>2023-01-14T11:23:31Z</time>
      </trkpt>
      <trkpt lat="42.6933150" lon="-0.4903640">
        <ele>1762.2</ele>
        <time>2023-01-14T11:23:32Z</time>
      </trkpt>
      <trkpt lat="42.6933160" lon="-0.4903650">
        <ele>1762.2</ele>
        <time>2023-01-14T11:23:33Z</time>
      </trkpt>
      <trkpt lat="42.6933160" lon="-0.4903650">
        <ele>1762.2</ele>
        <time>2023-01-14T11:23:34Z</time>
      </trkpt>
      <trkpt lat="42.6933150" lon="-0.4903650">
        <ele>1762.2</ele>
        <time>2023-01-14T11:23:35Z</time>
      </trkpt>
      <trkpt lat="42.6933150" lon="-0.4903660">
        <ele>1762.2</ele>
        <time>2023-01-14T11:23:36Z</time>
      </trkpt>
      <trkpt lat="42.6933150" lon="-0.4903660">
        <ele>1762.2</ele>
        <time>2023-01-14T11:23:37Z</time>
      </trkpt>
      <trkpt lat="42.6933150" lon="-0.4903670">
        <ele>1762.2</ele>
        <time>2023-01-14T11:23:38Z</time>
      </trkpt>
      <trkpt lat="42.6933150" lon="-0.4903670">
        <ele>1762.0</ele>
        <time>2023-01-14T11:23:39Z</time>
      </trkpt>
      <trkpt lat="42.6933150" lon="-0.4903670">
        <ele>1762.0</ele>
        <time>2023-01-14T11:23:40Z</time>
      </trkpt>
      <trkpt lat="42.6933150" lon="-0.4903680">
        <ele>1762.0</ele>
        <time>2023-01-14T11:23:41Z</time>
      </trkpt>
      <trkpt lat="42.6933150" lon="-0.4903680">
        <ele>1762.0</ele>
        <time>2023-01-14T11:23:42Z</time>
      </trkpt>
      <trkpt lat="42.6933150" lon="-0.4903680">
        <ele>1761.8</ele>
        <time>2023-01-14T11:23:43Z</time>
      </trkpt>
      <trkpt lat="42.6933150" lon="-0.4903680">
        <ele>1762.0</ele>
        <time>2023-01-14T11:23:44Z</time>
      </trkpt>
      <trkpt lat="42.6933150" lon="-0.4903680">
        <ele>1762.0</ele>
        <time>2023-01-14T11:23:45Z</time>
      </trkpt>
      <trkpt lat="42.6933150" lon="-0.4903680">
        <ele>1762.0</ele>
        <time>2023-01-14T11:23:46Z</time>
      </trkpt>
      <trkpt lat="42.6933150" lon="-0.4903680">
        <ele>1762.0</ele>
        <time>2023-01-14T11:23:47Z</time>
      </trkpt>
      <trkpt lat="42.6933150" lon="-0.4903680">
        <ele>1762.0</ele>
        <time>2023-01-14T11:23:48Z</time>
      </trkpt>
      <trkpt lat="42.6933150" lon="-0.4903690">
        <ele>1762.0</ele>
        <time>2023-01-14T11:23:49Z</time>
      </trkpt>
      <trkpt lat="42.6933150" lon="-0.4903690">
        <ele>1762.0</ele>
        <time>2023-01-14T11:23:50Z</time>
      </trkpt>
      <trkpt lat="42.6933140" lon="-0.4903690">
        <ele>1762.0</ele>
        <time>2023-01-14T11:23:51Z</time>
      </trkpt>
      <trkpt lat="42.6933140" lon="-0.4903690">
        <ele>1762.0</ele>
        <time>2023-01-14T11:23:52Z</time>
      </trkpt>
      <trkpt lat="42.6933140" lon="-0.4903690">
        <ele>1761.8</ele>
        <time>2023-01-14T11:23:53Z</time>
      </trkpt>
      <trkpt lat="42.6933140" lon="-0.4903690">
        <ele>1761.8</ele>
        <time>2023-01-14T11:23:54Z</time>
      </trkpt>
      <trkpt lat="42.6933130" lon="-0.4903700">
        <ele>1762.0</ele>
        <time>2023-01-14T11:23:55Z</time>
      </trkpt>
      <trkpt lat="42.6933130" lon="-0.4903700">
        <ele>1761.8</ele>
        <time>2023-01-14T11:23:56Z</time>
      </trkpt>
      <trkpt lat="42.6933130" lon="-0.4903710">
        <ele>1761.6</ele>
        <time>2023-01-14T11:23:57Z</time>
      </trkpt>
      <trkpt lat="42.6933130" lon="-0.4903700">
        <ele>1761.4</ele>
        <time>2023-01-14T11:23:58Z</time>
      </trkpt>
      <trkpt lat="42.6933130" lon="-0.4903700">
        <ele>1761.4</ele>
        <time>2023-01-14T11:23:59Z</time>
      </trkpt>
      <trkpt lat="42.6933130" lon="-0.4903700">
        <ele>1761.4</ele>
        <time>2023-01-14T11:24:00Z</time>
      </trkpt>
      <trkpt lat="42.6933130" lon="-0.4903700">
        <ele>1761.4</ele>
        <time>2023-01-14T11:24:01Z</time>
      </trkpt>
      <trkpt lat="42.6933130" lon="-0.4903700">
        <ele>1761.4</ele>
        <time>2023-01-14T11:24:02Z</time>
      </trkpt>
      <trkpt lat="42.6933130" lon="-0.4903710">
        <ele>1761.4</ele>
        <time>2023-01-14T11:24:03Z</time>
      </trkpt>
      <trkpt lat="42.6933140" lon="-0.4903710">
        <ele>1761.4</ele>
        <time>2023-01-14T11:24:04Z</time>
      </trkpt>
      <trkpt lat="42.6933140" lon="-0.4903720">
        <ele>1761.4</ele>
        <time>2023-01-14T11:24:05Z</time>
      </trkpt>
      <trkpt lat="42.6933140" lon="-0.4903720">
        <ele>1761.4</ele>
        <time>2023-01-14T11:24:06Z</time>
      </trkpt>
      <trkpt lat="42.6933140" lon="-0.4903710">
        <ele>1761.4</ele>
        <time>2023-01-14T11:24:07Z</time>
      </trkpt>
      <trkpt lat="42.6933140" lon="-0.4903720">
        <ele>1761.2</ele>
        <time>2023-01-14T11:24:08Z</time>
      </trkpt>
      <trkpt lat="42.6933140" lon="-0.4903720">
        <ele>1761.2</ele>
        <time>2023-01-14T11:24:09Z</time>
      </trkpt>
      <trkpt lat="42.6933140" lon="-0.4903720">
        <ele>1761.0</ele>
        <time>2023-01-14T11:24:10Z</time>
      </trkpt>
      <trkpt lat="42.6933140" lon="-0.4903720">
        <ele>1761.0</ele>
        <time>2023-01-14T11:24:11Z</time>
      </trkpt>
      <trkpt lat="42.6933140" lon="-0.4903730">
        <ele>1760.8</ele>
        <time>2023-01-14T11:24:12Z</time>
      </trkpt>
      <trkpt lat="42.6933130" lon="-0.4903740">
        <ele>1760.8</ele>
        <time>2023-01-14T11:24:13Z</time>
      </trkpt>
      <trkpt lat="42.6933130" lon="-0.4903740">
        <ele>1760.8</ele>
        <time>2023-01-14T11:24:14Z</time>
      </trkpt>
      <trkpt lat="42.6933130" lon="-0.4903750">
        <ele>1760.8</ele>
        <time>2023-01-14T11:24:15Z</time>
      </trkpt>
      <trkpt lat="42.6933120" lon="-0.4903750">
        <ele>1760.8</ele>
        <time>2023-01-14T11:24:16Z</time>
      </trkpt>
      <trkpt lat="42.6933120" lon="-0.4903750">
        <ele>1760.8</ele>
        <time>2023-01-14T11:24:17Z</time>
      </trkpt>
      <trkpt lat="42.6933120" lon="-0.4903750">
        <ele>1760.8</ele>
        <time>2023-01-14T11:24:18Z</time>
      </trkpt>
      <trkpt lat="42.6933110" lon="-0.4903750">
        <ele>1760.6</ele>
        <time>2023-01-14T11:24:19Z</time>
      </trkpt>
      <trkpt lat="42.6933110" lon="-0.4903750">
        <ele>1760.6</ele>
        <time>2023-01-14T11:24:20Z</time>
      </trkpt>
      <trkpt lat="42.6933110" lon="-0.4903750">
        <ele>1760.6</ele>
        <time>2023-01-14T11:24:21Z</time>
      </trkpt>
      <trkpt lat="42.6933100" lon="-0.4903750">
        <ele>1760.4</ele>
        <time>2023-01-14T11:24:22Z</time>
      </trkpt>
      <trkpt lat="42.6933100" lon="-0.4903740">
        <ele>1760.2</ele>
        <time>2023-01-14T11:24:23Z</time>
      </trkpt>
      <trkpt lat="42.6933100" lon="-0.4903740">
        <ele>1760.2</ele>
        <time>2023-01-14T11:24:24Z</time>
      </trkpt>
      <trkpt lat="42.6933100" lon="-0.4903740">
        <ele>1760.0</ele>
        <time>2023-01-14T11:24:25Z</time>
      </trkpt>
      <trkpt lat="42.6933100" lon="-0.4903740">
        <ele>1760.0</ele>
        <time>2023-01-14T11:24:26Z</time>
      </trkpt>
      <trkpt lat="42.6933100" lon="-0.4903740">
        <ele>1760.0</ele>
        <time>2023-01-14T11:24:27Z</time>
      </trkpt>
      <trkpt lat="42.6933100" lon="-0.4903740">
        <ele>1760.0</ele>
        <time>2023-01-14T11:24:28Z</time>
      </trkpt>
      <trkpt lat="42.6933090" lon="-0.4903730">
        <ele>1760.0</ele>
        <time>2023-01-14T11:24:29Z</time>
      </trkpt>
      <trkpt lat="42.6933090" lon="-0.4903730">
        <ele>1760.0</ele>
        <time>2023-01-14T11:24:30Z</time>
      </trkpt>
      <trkpt lat="42.6933090" lon="-0.4903730">
        <ele>1759.8</ele>
        <time>2023-01-14T11:24:31Z</time>
      </trkpt>
      <trkpt lat="42.6933090" lon="-0.4903730">
        <ele>1759.8</ele>
        <time>2023-01-14T11:24:32Z</time>
      </trkpt>
      <trkpt lat="42.6933090" lon="-0.4903730">
        <ele>1759.8</ele>
        <time>2023-01-14T11:24:33Z</time>
      </trkpt>
      <trkpt lat="42.6933090" lon="-0.4903730">
        <ele>1759.8</ele>
        <time>2023-01-14T11:24:34Z</time>
      </trkpt>
      <trkpt lat="42.6933080" lon="-0.4903730">
        <ele>1760.0</ele>
        <time>2023-01-14T11:24:35Z</time>
      </trkpt>
      <trkpt lat="42.6933080" lon="-0.4903730">
        <ele>1760.0</ele>
        <time>2023-01-14T11:24:36Z</time>
      </trkpt>
      <trkpt lat="42.6933080" lon="-0.4903730">
        <ele>1759.8</ele>
        <time>2023-01-14T11:24:37Z</time>
      </trkpt>
      <trkpt lat="42.6933080" lon="-0.4903730">
        <ele>1759.8</ele>
        <time>2023-01-14T11:24:38Z</time>
      </trkpt>
      <trkpt lat="42.6933080" lon="-0.4903730">
        <ele>1759.8</ele>
        <time>2023-01-14T11:24:39Z</time>
      </trkpt>
      <trkpt lat="42.6933080" lon="-0.4903720">
        <ele>1760.0</ele>
        <time>2023-01-14T11:24:40Z</time>
      </trkpt>
      <trkpt lat="42.6933080" lon="-0.4903720">
        <ele>1760.0</ele>
        <time>2023-01-14T11:24:41Z</time>
      </trkpt>
      <trkpt lat="42.6933080" lon="-0.4903720">
        <ele>1759.8</ele>
        <time>2023-01-14T11:24:42Z</time>
      </trkpt>
      <trkpt lat="42.6933080" lon="-0.4903720">
        <ele>1759.6</ele>
        <time>2023-01-14T11:24:43Z</time>
      </trkpt>
      <trkpt lat="42.6933080" lon="-0.4903720">
        <ele>1759.6</ele>
        <time>2023-01-14T11:24:44Z</time>
      </trkpt>
      <trkpt lat="42.6933070" lon="-0.4903720">
        <ele>1759.4</ele>
        <time>2023-01-14T11:24:45Z</time>
      </trkpt>
      <trkpt lat="42.6933070" lon="-0.4903710">
        <ele>1759.4</ele>
        <time>2023-01-14T11:24:46Z</time>
      </trkpt>
      <trkpt lat="42.6933070" lon="-0.4903710">
        <ele>1759.4</ele>
        <time>2023-01-14T11:24:47Z</time>
      </trkpt>
      <trkpt lat="42.6933070" lon="-0.4903710">
        <ele>1759.4</ele>
        <time>2023-01-14T11:24:48Z</time>
      </trkpt>
      <trkpt lat="42.6933070" lon="-0.4903710">
        <ele>1759.4</ele>
        <time>2023-01-14T11:24:49Z</time>
      </trkpt>
      <trkpt lat="42.6933070" lon="-0.4903710">
        <ele>1759.2</ele>
        <time>2023-01-14T11:24:50Z</time>
      </trkpt>
      <trkpt lat="42.6933080" lon="-0.4903710">
        <ele>1759.2</ele>
        <time>2023-01-14T11:24:51Z</time>
      </trkpt>
      <trkpt lat="42.6933080" lon="-0.4903710">
        <ele>1759.2</ele>
        <time>2023-01-14T11:24:52Z</time>
      </trkpt>
      <trkpt lat="42.6933080" lon="-0.4903710">
        <ele>1759.2</ele>
        <time>2023-01-14T11:24:53Z</time>
      </trkpt>
      <trkpt lat="42.6933080" lon="-0.4903710">
        <ele>1759.2</ele>
        <time>2023-01-14T11:24:54Z</time>
      </trkpt>
      <trkpt lat="42.6933080" lon="-0.4903710">
        <ele>1759.2</ele>
        <time>2023-01-14T11:24:55Z</time>
      </trkpt>
      <trkpt lat="42.6933080" lon="-0.4903700">
        <ele>1759.2</ele>
        <time>2023-01-14T11:24:56Z</time>
      </trkpt>
      <trkpt lat="42.6933080" lon="-0.4903700">
        <ele>1759.2</ele>
        <time>2023-01-14T11:24:57Z</time>
      </trkpt>
      <trkpt lat="42.6933080" lon="-0.4903710">
        <ele>1759.2</ele>
        <time>2023-01-14T11:24:58Z</time>
      </trkpt>
      <trkpt lat="42.6933080" lon="-0.4903700">
        <ele>1759.2</ele>
        <time>2023-01-14T11:24:59Z</time>
      </trkpt>
      <trkpt lat="42.6933080" lon="-0.4903710">
        <ele>1759.2</ele>
        <time>2023-01-14T11:25:00Z</time>
      </trkpt>
      <trkpt lat="42.6933080" lon="-0.4903710">
        <ele>1759.2</ele>
        <time>2023-01-14T11:25:01Z</time>
      </trkpt>
      <trkpt lat="42.6933080" lon="-0.4903710">
        <ele>1759.2</ele>
        <time>2023-01-14T11:25:02Z</time>
      </trkpt>
      <trkpt lat="42.6933080" lon="-0.4903720">
        <ele>1759.2</ele>
        <time>2023-01-14T11:25:03Z</time>
      </trkpt>
      <trkpt lat="42.6933080" lon="-0.4903720">
        <ele>1759.2</ele>
        <time>2023-01-14T11:25:04Z</time>
      </trkpt>
      <trkpt lat="42.6933080" lon="-0.4903720">
        <ele>1759.2</ele>
        <time>2023-01-14T11:25:05Z</time>
      </trkpt>
      <trkpt lat="42.6933080" lon="-0.4903720">
        <ele>1759.2</ele>
        <time>2023-01-14T11:25:06Z</time>
      </trkpt>
      <trkpt lat="42.6933090" lon="-0.4903720">
        <ele>1759.0</ele>
        <time>2023-01-14T11:25:07Z</time>
      </trkpt>
      <trkpt lat="42.6933090" lon="-0.4903730">
        <ele>1758.8</ele>
        <time>2023-01-14T11:25:08Z</time>
      </trkpt>
      <trkpt lat="42.6933090" lon="-0.4903730">
        <ele>1758.8</ele>
        <time>2023-01-14T11:25:09Z</time>
      </trkpt>
      <trkpt lat="42.6933090" lon="-0.4903730">
        <ele>1758.6</ele>
        <time>2023-01-14T11:25:10Z</time>
      </trkpt>
      <trkpt lat="42.6933090" lon="-0.4903740">
        <ele>1758.6</ele>
        <time>2023-01-14T11:25:11Z</time>
      </trkpt>
      <trkpt lat="42.6933090" lon="-0.4903740">
        <ele>1758.6</ele>
        <time>2023-01-14T11:25:12Z</time>
      </trkpt>
      <trkpt lat="42.6933090" lon="-0.4903750">
        <ele>1758.4</ele>
        <time>2023-01-14T11:25:13Z</time>
      </trkpt>
      <trkpt lat="42.6933100" lon="-0.4903750">
        <ele>1758.4</ele>
        <time>2023-01-14T11:25:14Z</time>
      </trkpt>
      <trkpt lat="42.6933100" lon="-0.4903760">
        <ele>1758.4</ele>
        <time>2023-01-14T11:25:15Z</time>
      </trkpt>
      <trkpt lat="42.6933100" lon="-0.4903760">
        <ele>1758.2</ele>
        <time>2023-01-14T11:25:16Z</time>
      </trkpt>
      <trkpt lat="42.6933100" lon="-0.4903760">
        <ele>1758.2</ele>
        <time>2023-01-14T11:25:17Z</time>
      </trkpt>
      <trkpt lat="42.6933100" lon="-0.4903770">
        <ele>1758.2</ele>
        <time>2023-01-14T11:25:18Z</time>
      </trkpt>
      <trkpt lat="42.6933100" lon="-0.4903770">
        <ele>1758.2</ele>
        <time>2023-01-14T11:25:19Z</time>
      </trkpt>
      <trkpt lat="42.6933100" lon="-0.4903770">
        <ele>1758.2</ele>
        <time>2023-01-14T11:25:20Z</time>
      </trkpt>
      <trkpt lat="42.6933100" lon="-0.4903780">
        <ele>1758.2</ele>
        <time>2023-01-14T11:25:21Z</time>
      </trkpt>
      <trkpt lat="42.6933100" lon="-0.4903780">
        <ele>1758.0</ele>
        <time>2023-01-14T11:25:22Z</time>
      </trkpt>
      <trkpt lat="42.6933100" lon="-0.4903780">
        <ele>1757.8</ele>
        <time>2023-01-14T11:25:23Z</time>
      </trkpt>
      <trkpt lat="42.6933100" lon="-0.4903780">
        <ele>1757.8</ele>
        <time>2023-01-14T11:25:24Z</time>
      </trkpt>
      <trkpt lat="42.6933100" lon="-0.4903790">
        <ele>1757.8</ele>
        <time>2023-01-14T11:25:25Z</time>
      </trkpt>
      <trkpt lat="42.6933100" lon="-0.4903800">
        <ele>1757.8</ele>
        <time>2023-01-14T11:25:26Z</time>
      </trkpt>
      <trkpt lat="42.6933100" lon="-0.4903800">
        <ele>1757.6</ele>
        <time>2023-01-14T11:25:27Z</time>
      </trkpt>
      <trkpt lat="42.6933100" lon="-0.4903800">
        <ele>1757.4</ele>
        <time>2023-01-14T11:25:28Z</time>
      </trkpt>
      <trkpt lat="42.6933100" lon="-0.4903800">
        <ele>1757.2</ele>
        <time>2023-01-14T11:25:29Z</time>
      </trkpt>
      <trkpt lat="42.6933100" lon="-0.4903800">
        <ele>1757.2</ele>
        <time>2023-01-14T11:25:30Z</time>
      </trkpt>
      <trkpt lat="42.6933100" lon="-0.4903800">
        <ele>1757.2</ele>
        <time>2023-01-14T11:25:31Z</time>
      </trkpt>
      <trkpt lat="42.6933100" lon="-0.4903800">
        <ele>1757.2</ele>
        <time>2023-01-14T11:25:32Z</time>
      </trkpt>
      <trkpt lat="42.6933090" lon="-0.4903800">
        <ele>1757.2</ele>
        <time>2023-01-14T11:25:33Z</time>
      </trkpt>
      <trkpt lat="42.6933090" lon="-0.4903800">
        <ele>1757.2</ele>
        <time>2023-01-14T11:25:34Z</time>
      </trkpt>
      <trkpt lat="42.6933090" lon="-0.4903800">
        <ele>1757.2</ele>
        <time>2023-01-14T11:25:35Z</time>
      </trkpt>
      <trkpt lat="42.6933090" lon="-0.4903800">
        <ele>1757.2</ele>
        <time>2023-01-14T11:25:36Z</time>
      </trkpt>
      <trkpt lat="42.6933080" lon="-0.4903790">
        <ele>1757.2</ele>
        <time>2023-01-14T11:25:37Z</time>
      </trkpt>
      <trkpt lat="42.6933080" lon="-0.4903790">
        <ele>1757.0</ele>
        <time>2023-01-14T11:25:38Z</time>
      </trkpt>
      <trkpt lat="42.6933080" lon="-0.4903790">
        <ele>1756.8</ele>
        <time>2023-01-14T11:25:39Z</time>
      </trkpt>
      <trkpt lat="42.6933070" lon="-0.4903790">
        <ele>1757.0</ele>
        <time>2023-01-14T11:25:40Z</time>
      </trkpt>
      <trkpt lat="42.6933070" lon="-0.4903790">
        <ele>1756.8</ele>
        <time>2023-01-14T11:25:41Z</time>
      </trkpt>
      <trkpt lat="42.6933070" lon="-0.4903790">
        <ele>1756.8</ele>
        <time>2023-01-14T11:25:42Z</time>
      </trkpt>
      <trkpt lat="42.6933070" lon="-0.4903790">
        <ele>1756.8</ele>
        <time>2023-01-14T11:25:43Z</time>
      </trkpt>
      <trkpt lat="42.6933070" lon="-0.4903790">
        <ele>1756.8</ele>
        <time>2023-01-14T11:25:44Z</time>
      </trkpt>
      <trkpt lat="42.6933070" lon="-0.4903790">
        <ele>1756.8</ele>
        <time>2023-01-14T11:25:45Z</time>
      </trkpt>
      <trkpt lat="42.6933070" lon="-0.4903790">
        <ele>1756.8</ele>
        <time>2023-01-14T11:25:46Z</time>
      </trkpt>
      <trkpt lat="42.6933070" lon="-0.4903790">
        <ele>1756.6</ele>
        <time>2023-01-14T11:25:47Z</time>
      </trkpt>
      <trkpt lat="42.6933060" lon="-0.4903790">
        <ele>1756.6</ele>
        <time>2023-01-14T11:25:48Z</time>
      </trkpt>
      <trkpt lat="42.6933060" lon="-0.4903790">
        <ele>1756.6</ele>
        <time>2023-01-14T11:25:49Z</time>
      </trkpt>
      <trkpt lat="42.6933060" lon="-0.4903790">
        <ele>1756.6</ele>
        <time>2023-01-14T11:25:50Z</time>
      </trkpt>
      <trkpt lat="42.6933060" lon="-0.4903790">
        <ele>1756.4</ele>
        <time>2023-01-14T11:25:51Z</time>
      </trkpt>
      <trkpt lat="42.6933050" lon="-0.4903780">
        <ele>1756.2</ele>
        <time>2023-01-14T11:25:52Z</time>
      </trkpt>
      <trkpt lat="42.6933050" lon="-0.4903780">
        <ele>1756.2</ele>
        <time>2023-01-14T11:25:53Z</time>
      </trkpt>
      <trkpt lat="42.6933050" lon="-0.4903780">
        <ele>1756.2</ele>
        <time>2023-01-14T11:25:54Z</time>
      </trkpt>
      <trkpt lat="42.6933050" lon="-0.4903770">
        <ele>1756.2</ele>
        <time>2023-01-14T11:25:55Z</time>
      </trkpt>
      <trkpt lat="42.6933050" lon="-0.4903770">
        <ele>1756.2</ele>
        <time>2023-01-14T11:25:56Z</time>
      </trkpt>
      <trkpt lat="42.6933050" lon="-0.4903770">
        <ele>1756.0</ele>
        <time>2023-01-14T11:25:57Z</time>
      </trkpt>
      <trkpt lat="42.6933040" lon="-0.4903760">
        <ele>1756.2</ele>
        <time>2023-01-14T11:25:58Z</time>
      </trkpt>
      <trkpt lat="42.6933040" lon="-0.4903760">
        <ele>1756.2</ele>
        <time>2023-01-14T11:25:59Z</time>
      </trkpt>
      <trkpt lat="42.6933040" lon="-0.4903760">
        <ele>1756.2</ele>
        <time>2023-01-14T11:26:00Z</time>
      </trkpt>
      <trkpt lat="42.6933040" lon="-0.4903760">
        <ele>1756.4</ele>
        <time>2023-01-14T11:26:01Z</time>
      </trkpt>
      <trkpt lat="42.6933040" lon="-0.4903760">
        <ele>1756.4</ele>
        <time>2023-01-14T11:26:02Z</time>
      </trkpt>
      <trkpt lat="42.6933040" lon="-0.4903750">
        <ele>1756.6</ele>
        <time>2023-01-14T11:26:03Z</time>
      </trkpt>
      <trkpt lat="42.6933040" lon="-0.4903750">
        <ele>1756.6</ele>
        <time>2023-01-14T11:26:04Z</time>
      </trkpt>
      <trkpt lat="42.6933040" lon="-0.4903740">
        <ele>1756.6</ele>
        <time>2023-01-14T11:26:05Z</time>
      </trkpt>
      <trkpt lat="42.6933030" lon="-0.4903740">
        <ele>1756.6</ele>
        <time>2023-01-14T11:26:06Z</time>
      </trkpt>
      <trkpt lat="42.6933030" lon="-0.4903740">
        <ele>1756.4</ele>
        <time>2023-01-14T11:26:07Z</time>
      </trkpt>
      <trkpt lat="42.6933030" lon="-0.4903740">
        <ele>1756.4</ele>
        <time>2023-01-14T11:26:08Z</time>
      </trkpt>
      <trkpt lat="42.6933020" lon="-0.4903740">
        <ele>1756.4</ele>
        <time>2023-01-14T11:26:09Z</time>
      </trkpt>
      <trkpt lat="42.6933020" lon="-0.4903740">
        <ele>1756.4</ele>
        <time>2023-01-14T11:26:10Z</time>
      </trkpt>
      <trkpt lat="42.6933020" lon="-0.4903740">
        <ele>1756.2</ele>
        <time>2023-01-14T11:26:11Z</time>
      </trkpt>
      <trkpt lat="42.6933020" lon="-0.4903750">
        <ele>1756.2</ele>
        <time>2023-01-14T11:26:12Z</time>
      </trkpt>
      <trkpt lat="42.6933020" lon="-0.4903750">
        <ele>1756.2</ele>
        <time>2023-01-14T11:26:13Z</time>
      </trkpt>
      <trkpt lat="42.6933020" lon="-0.4903750">
        <ele>1756.2</ele>
        <time>2023-01-14T11:26:14Z</time>
      </trkpt>
      <trkpt lat="42.6933010" lon="-0.4903750">
        <ele>1756.2</ele>
        <time>2023-01-14T11:26:15Z</time>
      </trkpt>
      <trkpt lat="42.6933010" lon="-0.4903750">
        <ele>1756.0</ele>
        <time>2023-01-14T11:26:16Z</time>
      </trkpt>
      <trkpt lat="42.6933010" lon="-0.4903750">
        <ele>1756.0</ele>
        <time>2023-01-14T11:26:17Z</time>
      </trkpt>
      <trkpt lat="42.6933010" lon="-0.4903750">
        <ele>1756.2</ele>
        <time>2023-01-14T11:26:18Z</time>
      </trkpt>
      <trkpt lat="42.6933020" lon="-0.4903750">
        <ele>1756.2</ele>
        <time>2023-01-14T11:26:19Z</time>
      </trkpt>
      <trkpt lat="42.6933020" lon="-0.4903750">
        <ele>1756.0</ele>
        <time>2023-01-14T11:26:20Z</time>
      </trkpt>
      <trkpt lat="42.6933020" lon="-0.4903760">
        <ele>1756.2</ele>
        <time>2023-01-14T11:26:21Z</time>
      </trkpt>
      <trkpt lat="42.6933020" lon="-0.4903750">
        <ele>1756.4</ele>
        <time>2023-01-14T11:26:22Z</time>
      </trkpt>
      <trkpt lat="42.6933020" lon="-0.4903750">
        <ele>1756.4</ele>
        <time>2023-01-14T11:26:23Z</time>
      </trkpt>
      <trkpt lat="42.6933020" lon="-0.4903750">
        <ele>1756.4</ele>
        <time>2023-01-14T11:26:24Z</time>
      </trkpt>
      <trkpt lat="42.6933030" lon="-0.4903750">
        <ele>1756.4</ele>
        <time>2023-01-14T11:26:25Z</time>
      </trkpt>
      <trkpt lat="42.6933030" lon="-0.4903750">
        <ele>1756.4</ele>
        <time>2023-01-14T11:26:26Z</time>
      </trkpt>
      <trkpt lat="42.6933030" lon="-0.4903750">
        <ele>1756.4</ele>
        <time>2023-01-14T11:26:27Z</time>
      </trkpt>
      <trkpt lat="42.6933030" lon="-0.4903750">
        <ele>1756.4</ele>
        <time>2023-01-14T11:26:28Z</time>
      </trkpt>
      <trkpt lat="42.6933030" lon="-0.4903750">
        <ele>1756.4</ele>
        <time>2023-01-14T11:26:29Z</time>
      </trkpt>
      <trkpt lat="42.6933030" lon="-0.4903760">
        <ele>1756.0</ele>
        <time>2023-01-14T11:26:30Z</time>
      </trkpt>
      <trkpt lat="42.6933030" lon="-0.4903760">
        <ele>1756.0</ele>
        <time>2023-01-14T11:26:31Z</time>
      </trkpt>
      <trkpt lat="42.6933030" lon="-0.4903760">
        <ele>1755.8</ele>
        <time>2023-01-14T11:26:32Z</time>
      </trkpt>
      <trkpt lat="42.6933040" lon="-0.4903760">
        <ele>1755.8</ele>
        <time>2023-01-14T11:26:33Z</time>
      </trkpt>
      <trkpt lat="42.6933040" lon="-0.4903770">
        <ele>1755.8</ele>
        <time>2023-01-14T11:26:34Z</time>
      </trkpt>
      <trkpt lat="42.6933040" lon="-0.4903770">
        <ele>1755.8</ele>
        <time>2023-01-14T11:26:35Z</time>
      </trkpt>
      <trkpt lat="42.6933040" lon="-0.4903770">
        <ele>1756.0</ele>
        <time>2023-01-14T11:26:36Z</time>
      </trkpt>
      <trkpt lat="42.6933040" lon="-0.4903780">
        <ele>1756.0</ele>
        <time>2023-01-14T11:26:37Z</time>
      </trkpt>
      <trkpt lat="42.6933040" lon="-0.4903780">
        <ele>1756.0</ele>
        <time>2023-01-14T11:26:38Z</time>
      </trkpt>
      <trkpt lat="42.6933040" lon="-0.4903790">
        <ele>1756.0</ele>
        <time>2023-01-14T11:26:39Z</time>
      </trkpt>
      <trkpt lat="42.6933040" lon="-0.4903790">
        <ele>1755.8</ele>
        <time>2023-01-14T11:26:40Z</time>
      </trkpt>
      <trkpt lat="42.6933040" lon="-0.4903790">
        <ele>1755.8</ele>
        <time>2023-01-14T11:26:41Z</time>
      </trkpt>
      <trkpt lat="42.6933040" lon="-0.4903790">
        <ele>1755.8</ele>
        <time>2023-01-14T11:26:42Z</time>
      </trkpt>
      <trkpt lat="42.6933040" lon="-0.4903800">
        <ele>1755.8</ele>
        <time>2023-01-14T11:26:43Z</time>
      </trkpt>
      <trkpt lat="42.6933040" lon="-0.4903800">
        <ele>1755.6</ele>
        <time>2023-01-14T11:26:44Z</time>
      </trkpt>
      <trkpt lat="42.6933040" lon="-0.4903810">
        <ele>1755.6</ele>
        <time>2023-01-14T11:26:45Z</time>
      </trkpt>
      <trkpt lat="42.6933040" lon="-0.4903820">
        <ele>1756.4</ele>
        <time>2023-01-14T11:26:46Z</time>
      </trkpt>
      <trkpt lat="42.6933040" lon="-0.4903820">
        <ele>1756.4</ele>
        <time>2023-01-14T11:26:47Z</time>
      </trkpt>
      <trkpt lat="42.6933040" lon="-0.4903820">
        <ele>1756.4</ele>
        <time>2023-01-14T11:26:48Z</time>
      </trkpt>
      <trkpt lat="42.6933040" lon="-0.4903830">
        <ele>1756.4</ele>
        <time>2023-01-14T11:26:49Z</time>
      </trkpt>
      <trkpt lat="42.6933040" lon="-0.4903830">
        <ele>1756.4</ele>
        <time>2023-01-14T11:26:50Z</time>
      </trkpt>
      <trkpt lat="42.6933040" lon="-0.4903830">
        <ele>1756.4</ele>
        <time>2023-01-14T11:26:51Z</time>
      </trkpt>
      <trkpt lat="42.6933040" lon="-0.4903830">
        <ele>1756.4</ele>
        <time>2023-01-14T11:26:52Z</time>
      </trkpt>
      <trkpt lat="42.6933040" lon="-0.4903830">
        <ele>1756.4</ele>
        <time>2023-01-14T11:26:53Z</time>
      </trkpt>
      <trkpt lat="42.6933040" lon="-0.4903830">
        <ele>1756.4</ele>
        <time>2023-01-14T11:26:54Z</time>
      </trkpt>
      <trkpt lat="42.6933040" lon="-0.4903830">
        <ele>1756.4</ele>
        <time>2023-01-14T11:26:55Z</time>
      </trkpt>
      <trkpt lat="42.6933040" lon="-0.4903830">
        <ele>1756.4</ele>
        <time>2023-01-14T11:26:56Z</time>
      </trkpt>
      <trkpt lat="42.6933030" lon="-0.4903830">
        <ele>1756.4</ele>
        <time>2023-01-14T11:26:57Z</time>
      </trkpt>
      <trkpt lat="42.6933030" lon="-0.4903830">
        <ele>1756.4</ele>
        <time>2023-01-14T11:26:58Z</time>
      </trkpt>
      <trkpt lat="42.6933030" lon="-0.4903830">
        <ele>1756.4</ele>
        <time>2023-01-14T11:26:59Z</time>
      </trkpt>
      <trkpt lat="42.6933030" lon="-0.4903830">
        <ele>1756.4</ele>
        <time>2023-01-14T11:27:00Z</time>
      </trkpt>
      <trkpt lat="42.6933030" lon="-0.4903830">
        <ele>1756.4</ele>
        <time>2023-01-14T11:27:01Z</time>
      </trkpt>
      <trkpt lat="42.6933030" lon="-0.4903830">
        <ele>1756.4</ele>
        <time>2023-01-14T11:27:02Z</time>
      </trkpt>
      <trkpt lat="42.6933030" lon="-0.4903830">
        <ele>1756.4</ele>
        <time>2023-01-14T11:27:03Z</time>
      </trkpt>
      <trkpt lat="42.6933030" lon="-0.4903830">
        <ele>1756.4</ele>
        <time>2023-01-14T11:27:04Z</time>
      </trkpt>
      <trkpt lat="42.6933030" lon="-0.4903830">
        <ele>1756.4</ele>
        <time>2023-01-14T11:27:05Z</time>
      </trkpt>
      <trkpt lat="42.6933030" lon="-0.4903830">
        <ele>1756.4</ele>
        <time>2023-01-14T11:27:06Z</time>
      </trkpt>
      <trkpt lat="42.6933030" lon="-0.4903830">
        <ele>1756.4</ele>
        <time>2023-01-14T11:27:07Z</time>
      </trkpt>
      <trkpt lat="42.6933030" lon="-0.4903830">
        <ele>1756.4</ele>
        <time>2023-01-14T11:27:08Z</time>
      </trkpt>
      <trkpt lat="42.6933030" lon="-0.4903830">
        <ele>1756.4</ele>
        <time>2023-01-14T11:27:09Z</time>
      </trkpt>
      <trkpt lat="42.6933030" lon="-0.4903830">
        <ele>1756.4</ele>
        <time>2023-01-14T11:27:10Z</time>
      </trkpt>
      <trkpt lat="42.6933030" lon="-0.4903820">
        <ele>1756.4</ele>
        <time>2023-01-14T11:27:11Z</time>
      </trkpt>
      <trkpt lat="42.6933030" lon="-0.4903820">
        <ele>1756.4</ele>
        <time>2023-01-14T11:27:12Z</time>
      </trkpt>
      <trkpt lat="42.6933040" lon="-0.4903810">
        <ele>1756.4</ele>
        <time>2023-01-14T11:27:13Z</time>
      </trkpt>
      <trkpt lat="42.6933040" lon="-0.4903810">
        <ele>1756.4</ele>
        <time>2023-01-14T11:27:14Z</time>
      </trkpt>
      <trkpt lat="42.6933040" lon="-0.4903810">
        <ele>1756.4</ele>
        <time>2023-01-14T11:27:15Z</time>
      </trkpt>
      <trkpt lat="42.6933040" lon="-0.4903820">
        <ele>1756.4</ele>
        <time>2023-01-14T11:27:16Z</time>
      </trkpt>
      <trkpt lat="42.6933040" lon="-0.4903820">
        <ele>1756.4</ele>
        <time>2023-01-14T11:27:17Z</time>
      </trkpt>
      <trkpt lat="42.6933040" lon="-0.4903810">
        <ele>1756.4</ele>
        <time>2023-01-14T11:27:18Z</time>
      </trkpt>
      <trkpt lat="42.6933040" lon="-0.4903820">
        <ele>1756.4</ele>
        <time>2023-01-14T11:27:19Z</time>
      </trkpt>
      <trkpt lat="42.6933040" lon="-0.4903820">
        <ele>1756.4</ele>
        <time>2023-01-14T11:27:20Z</time>
      </trkpt>
      <trkpt lat="42.6933040" lon="-0.4903820">
        <ele>1756.4</ele>
        <time>2023-01-14T11:27:21Z</time>
      </trkpt>
      <trkpt lat="42.6933040" lon="-0.4903830">
        <ele>1756.4</ele>
        <time>2023-01-14T11:27:22Z</time>
      </trkpt>
      <trkpt lat="42.6933030" lon="-0.4903830">
        <ele>1756.4</ele>
        <time>2023-01-14T11:27:23Z</time>
      </trkpt>
      <trkpt lat="42.6933030" lon="-0.4903830">
        <ele>1756.4</ele>
        <time>2023-01-14T11:27:24Z</time>
      </trkpt>
      <trkpt lat="42.6933030" lon="-0.4903830">
        <ele>1756.4</ele>
        <time>2023-01-14T11:27:25Z</time>
      </trkpt>
      <trkpt lat="42.6933010" lon="-0.4903880">
        <ele>1756.4</ele>
        <time>2023-01-14T11:27:26Z</time>
      </trkpt>
      <trkpt lat="42.6932980" lon="-0.4903910">
        <ele>1756.4</ele>
        <time>2023-01-14T11:27:27Z</time>
      </trkpt>
      <trkpt lat="42.6932980" lon="-0.4903930">
        <ele>1756.4</ele>
        <time>2023-01-14T11:27:28Z</time>
      </trkpt>
      <trkpt lat="42.6932940" lon="-0.4903980">
        <ele>1756.4</ele>
        <time>2023-01-14T11:27:29Z</time>
      </trkpt>
      <trkpt lat="42.6932850" lon="-0.4904110">
        <ele>1756.4</ele>
        <time>2023-01-14T11:27:30Z</time>
      </trkpt>
      <trkpt lat="42.6932740" lon="-0.4904340">
        <ele>1756.4</ele>
        <time>2023-01-14T11:27:31Z</time>
      </trkpt>
      <trkpt lat="42.6932600" lon="-0.4904670">
        <ele>1756.4</ele>
        <time>2023-01-14T11:27:32Z</time>
      </trkpt>
      <trkpt lat="42.6932410" lon="-0.4905010">
        <ele>1756.4</ele>
        <time>2023-01-14T11:27:33Z</time>
      </trkpt>
      <trkpt lat="42.6932070" lon="-0.4905350">
        <ele>1756.4</ele>
        <time>2023-01-14T11:27:34Z</time>
      </trkpt>
      <trkpt lat="42.6931590" lon="-0.4905740">
        <ele>1756.2</ele>
        <time>2023-01-14T11:27:35Z</time>
      </trkpt>
      <trkpt lat="42.6931110" lon="-0.4906200">
        <ele>1755.6</ele>
        <time>2023-01-14T11:27:36Z</time>
      </trkpt>
      <trkpt lat="42.6930600" lon="-0.4906780">
        <ele>1755.2</ele>
        <time>2023-01-14T11:27:37Z</time>
      </trkpt>
      <trkpt lat="42.6930090" lon="-0.4907310">
        <ele>1753.8</ele>
        <time>2023-01-14T11:27:38Z</time>
      </trkpt>
      <trkpt lat="42.6929550" lon="-0.4907750">
        <ele>1752.8</ele>
        <time>2023-01-14T11:27:39Z</time>
      </trkpt>
      <trkpt lat="42.6928910" lon="-0.4908240">
        <ele>1751.2</ele>
        <time>2023-01-14T11:27:40Z</time>
      </trkpt>
      <trkpt lat="42.6928280" lon="-0.4908730">
        <ele>1750.2</ele>
        <time>2023-01-14T11:27:41Z</time>
      </trkpt>
      <trkpt lat="42.6927660" lon="-0.4909240">
        <ele>1749.2</ele>
        <time>2023-01-14T11:27:42Z</time>
      </trkpt>
      <trkpt lat="42.6927100" lon="-0.4909770">
        <ele>1748.0</ele>
        <time>2023-01-14T11:27:43Z</time>
      </trkpt>
      <trkpt lat="42.6926620" lon="-0.4910200">
        <ele>1746.6</ele>
        <time>2023-01-14T11:27:44Z</time>
      </trkpt>
      <trkpt lat="42.6926220" lon="-0.4910570">
        <ele>1745.4</ele>
        <time>2023-01-14T11:27:45Z</time>
      </trkpt>
      <trkpt lat="42.6925780" lon="-0.4911060">
        <ele>1744.6</ele>
        <time>2023-01-14T11:27:46Z</time>
      </trkpt>
      <trkpt lat="42.6925280" lon="-0.4911660">
        <ele>1744.0</ele>
        <time>2023-01-14T11:27:47Z</time>
      </trkpt>
      <trkpt lat="42.6924820" lon="-0.4912220">
        <ele>1743.2</ele>
        <time>2023-01-14T11:27:48Z</time>
      </trkpt>
      <trkpt lat="42.6924400" lon="-0.4912840">
        <ele>1741.4</ele>
        <time>2023-01-14T11:27:49Z</time>
      </trkpt>
      <trkpt lat="42.6923920" lon="-0.4913520">
        <ele>1739.6</ele>
        <time>2023-01-14T11:27:50Z</time>
      </trkpt>
      <trkpt lat="42.6923360" lon="-0.4914140">
        <ele>1737.4</ele>
        <time>2023-01-14T11:27:51Z</time>
      </trkpt>
      <trkpt lat="42.6922760" lon="-0.4914780">
        <ele>1735.6</ele>
        <time>2023-01-14T11:27:52Z</time>
      </trkpt>
      <trkpt lat="42.6922160" lon="-0.4915450">
        <ele>1733.0</ele>
        <time>2023-01-14T11:27:53Z</time>
      </trkpt>
      <trkpt lat="42.6921550" lon="-0.4916100">
        <ele>1730.8</ele>
        <time>2023-01-14T11:27:54Z</time>
      </trkpt>
      <trkpt lat="42.6921060" lon="-0.4916860">
        <ele>1729.4</ele>
        <time>2023-01-14T11:27:55Z</time>
      </trkpt>
      <trkpt lat="42.6920720" lon="-0.4917720">
        <ele>1727.6</ele>
        <time>2023-01-14T11:27:56Z</time>
      </trkpt>
      <trkpt lat="42.6920430" lon="-0.4918610">
        <ele>1726.2</ele>
        <time>2023-01-14T11:27:57Z</time>
      </trkpt>
      <trkpt lat="42.6920240" lon="-0.4919430">
        <ele>1724.6</ele>
        <time>2023-01-14T11:27:58Z</time>
      </trkpt>
      <trkpt lat="42.6920140" lon="-0.4920120">
        <ele>1722.2</ele>
        <time>2023-01-14T11:27:59Z</time>
      </trkpt>
      <trkpt lat="42.6920020" lon="-0.4920710">
        <ele>1719.6</ele>
        <time>2023-01-14T11:28:00Z</time>
      </trkpt>
      <trkpt lat="42.6919810" lon="-0.4921170">
        <ele>1716.8</ele>
        <time>2023-01-14T11:28:01Z</time>
      </trkpt>
      <trkpt lat="42.6919550" lon="-0.4921420">
        <ele>1715.0</ele>
        <time>2023-01-14T11:28:02Z</time>
      </trkpt>
      <trkpt lat="42.6919240" lon="-0.4921470">
        <ele>1713.4</ele>
        <time>2023-01-14T11:28:03Z</time>
      </trkpt>
      <trkpt lat="42.6918900" lon="-0.4921340">
        <ele>1712.4</ele>
        <time>2023-01-14T11:28:04Z</time>
      </trkpt>
      <trkpt lat="42.6918510" lon="-0.4921120">
        <ele>1711.6</ele>
        <time>2023-01-14T11:28:05Z</time>
      </trkpt>
      <trkpt lat="42.6917990" lon="-0.4920820">
        <ele>1710.4</ele>
        <time>2023-01-14T11:28:06Z</time>
      </trkpt>
      <trkpt lat="42.6917540" lon="-0.4920610">
        <ele>1709.8</ele>
        <time>2023-01-14T11:28:07Z</time>
      </trkpt>
      <trkpt lat="42.6917230" lon="-0.4920550">
        <ele>1709.4</ele>
        <time>2023-01-14T11:28:08Z</time>
      </trkpt>
      <trkpt lat="42.6916910" lon="-0.4920670">
        <ele>1708.2</ele>
        <time>2023-01-14T11:28:09Z</time>
      </trkpt>
      <trkpt lat="42.6916580" lon="-0.4920680">
        <ele>1707.2</ele>
        <time>2023-01-14T11:28:10Z</time>
      </trkpt>
      <trkpt lat="42.6916270" lon="-0.4920530">
        <ele>1705.4</ele>
        <time>2023-01-14T11:28:11Z</time>
      </trkpt>
      <trkpt lat="42.6916060" lon="-0.4920220">
        <ele>1703.8</ele>
        <time>2023-01-14T11:28:12Z</time>
      </trkpt>
      <trkpt lat="42.6915880" lon="-0.4919820">
        <ele>1702.4</ele>
        <time>2023-01-14T11:28:13Z</time>
      </trkpt>
      <trkpt lat="42.6915640" lon="-0.4919450">
        <ele>1700.6</ele>
        <time>2023-01-14T11:28:14Z</time>
      </trkpt>
      <trkpt lat="42.6915390" lon="-0.4919400">
        <ele>1699.6</ele>
        <time>2023-01-14T11:28:15Z</time>
      </trkpt>
      <trkpt lat="42.6915210" lon="-0.4919550">
        <ele>1698.8</ele>
        <time>2023-01-14T11:28:16Z</time>
      </trkpt>
      <trkpt lat="42.6915110" lon="-0.4919660">
        <ele>1697.8</ele>
        <time>2023-01-14T11:28:17Z</time>
      </trkpt>
      <trkpt lat="42.6914970" lon="-0.4919640">
        <ele>1696.6</ele>
        <time>2023-01-14T11:28:18Z</time>
      </trkpt>
      <trkpt lat="42.6914810" lon="-0.4919740">
        <ele>1695.8</ele>
        <time>2023-01-14T11:28:19Z</time>
      </trkpt>
      <trkpt lat="42.6914590" lon="-0.4920000">
        <ele>1695.4</ele>
        <time>2023-01-14T11:28:20Z</time>
      </trkpt>
      <trkpt lat="42.6914320" lon="-0.4920350">
        <ele>1694.4</ele>
        <time>2023-01-14T11:28:21Z</time>
      </trkpt>
      <trkpt lat="42.6914000" lon="-0.4920600">
        <ele>1693.8</ele>
        <time>2023-01-14T11:28:22Z</time>
      </trkpt>
      <trkpt lat="42.6913630" lon="-0.4920760">
        <ele>1692.6</ele>
        <time>2023-01-14T11:28:23Z</time>
      </trkpt>
      <trkpt lat="42.6913290" lon="-0.4920890">
        <ele>1691.0</ele>
        <time>2023-01-14T11:28:24Z</time>
      </trkpt>
      <trkpt lat="42.6912930" lon="-0.4921150">
        <ele>1689.8</ele>
        <time>2023-01-14T11:28:25Z</time>
      </trkpt>
      <trkpt lat="42.6912690" lon="-0.4921470">
        <ele>1689.2</ele>
        <time>2023-01-14T11:28:26Z</time>
      </trkpt>
      <trkpt lat="42.6912470" lon="-0.4921910">
        <ele>1687.6</ele>
        <time>2023-01-14T11:28:27Z</time>
      </trkpt>
      <trkpt lat="42.6912250" lon="-0.4922140">
        <ele>1686.2</ele>
        <time>2023-01-14T11:28:28Z</time>
      </trkpt>
      <trkpt lat="42.6911970" lon="-0.4922150">
        <ele>1685.2</ele>
        <time>2023-01-14T11:28:29Z</time>
      </trkpt>
      <trkpt lat="42.6911750" lon="-0.4922300">
        <ele>1684.4</ele>
        <time>2023-01-14T11:28:30Z</time>
      </trkpt>
      <trkpt lat="42.6911540" lon="-0.4922670">
        <ele>1682.6</ele>
        <time>2023-01-14T11:28:31Z</time>
      </trkpt>
      <trkpt lat="42.6911250" lon="-0.4923000">
        <ele>1681.4</ele>
        <time>2023-01-14T11:28:32Z</time>
      </trkpt>
      <trkpt lat="42.6910920" lon="-0.4923130">
        <ele>1680.8</ele>
        <time>2023-01-14T11:28:33Z</time>
      </trkpt>
      <trkpt lat="42.6910560" lon="-0.4923160">
        <ele>1680.0</ele>
        <time>2023-01-14T11:28:34Z</time>
      </trkpt>
      <trkpt lat="42.6910360" lon="-0.4923230">
        <ele>1678.8</ele>
        <time>2023-01-14T11:28:35Z</time>
      </trkpt>
      <trkpt lat="42.6910170" lon="-0.4923440">
        <ele>1678.0</ele>
        <time>2023-01-14T11:28:36Z</time>
      </trkpt>
      <trkpt lat="42.6909890" lon="-0.4923660">
        <ele>1677.0</ele>
        <time>2023-01-14T11:28:37Z</time>
      </trkpt>
      <trkpt lat="42.6909580" lon="-0.4923780">
        <ele>1675.4</ele>
        <time>2023-01-14T11:28:38Z</time>
      </trkpt>
      <trkpt lat="42.6909300" lon="-0.4923890">
        <ele>1674.0</ele>
        <time>2023-01-14T11:28:39Z</time>
      </trkpt>
      <trkpt lat="42.6909100" lon="-0.4924070">
        <ele>1672.8</ele>
        <time>2023-01-14T11:28:40Z</time>
      </trkpt>
      <trkpt lat="42.6908940" lon="-0.4924290">
        <ele>1671.6</ele>
        <time>2023-01-14T11:28:41Z</time>
      </trkpt>
      <trkpt lat="42.6908690" lon="-0.4924530">
        <ele>1670.8</ele>
        <time>2023-01-14T11:28:42Z</time>
      </trkpt>
      <trkpt lat="42.6908470" lon="-0.4924640">
        <ele>1669.6</ele>
        <time>2023-01-14T11:28:43Z</time>
      </trkpt>
      <trkpt lat="42.6908200" lon="-0.4924680">
        <ele>1668.8</ele>
        <time>2023-01-14T11:28:44Z</time>
      </trkpt>
      <trkpt lat="42.6907930" lon="-0.4924640">
        <ele>1668.0</ele>
        <time>2023-01-14T11:28:45Z</time>
      </trkpt>
      <trkpt lat="42.6907640" lon="-0.4924610">
        <ele>1666.8</ele>
        <time>2023-01-14T11:28:46Z</time>
      </trkpt>
      <trkpt lat="42.6907260" lon="-0.4924590">
        <ele>1666.0</ele>
        <time>2023-01-14T11:28:47Z</time>
      </trkpt>
      <trkpt lat="42.6906910" lon="-0.4924740">
        <ele>1665.0</ele>
        <time>2023-01-14T11:28:48Z</time>
      </trkpt>
      <trkpt lat="42.6906570" lon="-0.4925120">
        <ele>1663.2</ele>
        <time>2023-01-14T11:28:49Z</time>
      </trkpt>
      <trkpt lat="42.6906170" lon="-0.4925380">
        <ele>1662.0</ele>
        <time>2023-01-14T11:28:50Z</time>
      </trkpt>
      <trkpt lat="42.6905780" lon="-0.4925460">
        <ele>1661.0</ele>
        <time>2023-01-14T11:28:51Z</time>
      </trkpt>
      <trkpt lat="42.6905390" lon="-0.4925500">
        <ele>1660.2</ele>
        <time>2023-01-14T11:28:52Z</time>
      </trkpt>
      <trkpt lat="42.6905140" lon="-0.4925700">
        <ele>1658.6</ele>
        <time>2023-01-14T11:28:53Z</time>
      </trkpt>
      <trkpt lat="42.6904820" lon="-0.4926170">
        <ele>1657.2</ele>
        <time>2023-01-14T11:28:54Z</time>
      </trkpt>
      <trkpt lat="42.6904540" lon="-0.4926450">
        <ele>1655.8</ele>
        <time>2023-01-14T11:28:55Z</time>
      </trkpt>
      <trkpt lat="42.6904160" lon="-0.4926700">
        <ele>1654.6</ele>
        <time>2023-01-14T11:28:56Z</time>
      </trkpt>
      <trkpt lat="42.6903790" lon="-0.4926870">
        <ele>1653.6</ele>
        <time>2023-01-14T11:28:57Z</time>
      </trkpt>
      <trkpt lat="42.6903440" lon="-0.4926950">
        <ele>1653.0</ele>
        <time>2023-01-14T11:28:58Z</time>
      </trkpt>
      <trkpt lat="42.6902940" lon="-0.4926980">
        <ele>1650.8</ele>
        <time>2023-01-14T11:28:59Z</time>
      </trkpt>
      <trkpt lat="42.6902570" lon="-0.4927120">
        <ele>1649.6</ele>
        <time>2023-01-14T11:29:00Z</time>
      </trkpt>
      <trkpt lat="42.6902140" lon="-0.4927170">
        <ele>1648.4</ele>
        <time>2023-01-14T11:29:01Z</time>
      </trkpt>
      <trkpt lat="42.6901760" lon="-0.4927330">
        <ele>1646.4</ele>
        <time>2023-01-14T11:29:02Z</time>
      </trkpt>
      <trkpt lat="42.6901280" lon="-0.4927550">
        <ele>1644.6</ele>
        <time>2023-01-14T11:29:03Z</time>
      </trkpt>
      <trkpt lat="42.6900800" lon="-0.4927660">
        <ele>1642.6</ele>
        <time>2023-01-14T11:29:04Z</time>
      </trkpt>
      <trkpt lat="42.6900350" lon="-0.4927900">
        <ele>1640.8</ele>
        <time>2023-01-14T11:29:05Z</time>
      </trkpt>
      <trkpt lat="42.6900030" lon="-0.4928090">
        <ele>1639.8</ele>
        <time>2023-01-14T11:29:06Z</time>
      </trkpt>
      <trkpt lat="42.6899720" lon="-0.4928330">
        <ele>1637.8</ele>
        <time>2023-01-14T11:29:07Z</time>
      </trkpt>
      <trkpt lat="42.6899390" lon="-0.4928560">
        <ele>1636.6</ele>
        <time>2023-01-14T11:29:08Z</time>
      </trkpt>
      <trkpt lat="42.6899050" lon="-0.4928570">
        <ele>1635.2</ele>
        <time>2023-01-14T11:29:09Z</time>
      </trkpt>
      <trkpt lat="42.6898770" lon="-0.4928670">
        <ele>1634.6</ele>
        <time>2023-01-14T11:29:10Z</time>
      </trkpt>
      <trkpt lat="42.6898490" lon="-0.4928740">
        <ele>1634.0</ele>
        <time>2023-01-14T11:29:11Z</time>
      </trkpt>
      <trkpt lat="42.6898190" lon="-0.4928720">
        <ele>1633.2</ele>
        <time>2023-01-14T11:29:12Z</time>
      </trkpt>
      <trkpt lat="42.6897850" lon="-0.4928740">
        <ele>1632.4</ele>
        <time>2023-01-14T11:29:13Z</time>
      </trkpt>
      <trkpt lat="42.6897450" lon="-0.4928620">
        <ele>1631.4</ele>
        <time>2023-01-14T11:29:14Z</time>
      </trkpt>
      <trkpt lat="42.6897280" lon="-0.4928680">
        <ele>1630.0</ele>
        <time>2023-01-14T11:29:15Z</time>
      </trkpt>
      <trkpt lat="42.6897060" lon="-0.4929050">
        <ele>1628.6</ele>
        <time>2023-01-14T11:29:16Z</time>
      </trkpt>
      <trkpt lat="42.6896720" lon="-0.4929440">
        <ele>1627.0</ele>
        <time>2023-01-14T11:29:17Z</time>
      </trkpt>
      <trkpt lat="42.6896280" lon="-0.4929740">
        <ele>1626.0</ele>
        <time>2023-01-14T11:29:18Z</time>
      </trkpt>
      <trkpt lat="42.6895730" lon="-0.4930020">
        <ele>1623.8</ele>
        <time>2023-01-14T11:29:19Z</time>
      </trkpt>
      <trkpt lat="42.6895260" lon="-0.4930160">
        <ele>1622.6</ele>
        <time>2023-01-14T11:29:20Z</time>
      </trkpt>
      <trkpt lat="42.6894820" lon="-0.4930170">
        <ele>1621.2</ele>
        <time>2023-01-14T11:29:21Z</time>
      </trkpt>
      <trkpt lat="42.6894350" lon="-0.4930090">
        <ele>1619.0</ele>
        <time>2023-01-14T11:29:22Z</time>
      </trkpt>
      <trkpt lat="42.6893990" lon="-0.4929890">
        <ele>1617.0</ele>
        <time>2023-01-14T11:29:23Z</time>
      </trkpt>
      <trkpt lat="42.6893650" lon="-0.4929790">
        <ele>1615.6</ele>
        <time>2023-01-14T11:29:24Z</time>
      </trkpt>
      <trkpt lat="42.6893270" lon="-0.4929680">
        <ele>1614.0</ele>
        <time>2023-01-14T11:29:25Z</time>
      </trkpt>
      <trkpt lat="42.6892970" lon="-0.4929570">
        <ele>1613.2</ele>
        <time>2023-01-14T11:29:26Z</time>
      </trkpt>
      <trkpt lat="42.6892770" lon="-0.4929530">
        <ele>1612.0</ele>
        <time>2023-01-14T11:29:27Z</time>
      </trkpt>
      <trkpt lat="42.6892620" lon="-0.4929590">
        <ele>1610.8</ele>
        <time>2023-01-14T11:29:28Z</time>
      </trkpt>
      <trkpt lat="42.6892460" lon="-0.4929780">
        <ele>1609.4</ele>
        <time>2023-01-14T11:29:29Z</time>
      </trkpt>
      <trkpt lat="42.6892290" lon="-0.4930050">
        <ele>1608.4</ele>
        <time>2023-01-14T11:29:30Z</time>
      </trkpt>
      <trkpt lat="42.6892120" lon="-0.4930330">
        <ele>1607.6</ele>
        <time>2023-01-14T11:29:31Z</time>
      </trkpt>
      <trkpt lat="42.6892030" lon="-0.4930650">
        <ele>1607.0</ele>
        <time>2023-01-14T11:29:32Z</time>
      </trkpt>
      <trkpt lat="42.6891880" lon="-0.4930900">
        <ele>1605.6</ele>
        <time>2023-01-14T11:29:33Z</time>
      </trkpt>
      <trkpt lat="42.6891700" lon="-0.4931120">
        <ele>1604.2</ele>
        <time>2023-01-14T11:29:34Z</time>
      </trkpt>
      <trkpt lat="42.6891540" lon="-0.4931440">
        <ele>1602.8</ele>
        <time>2023-01-14T11:29:35Z</time>
      </trkpt>
      <trkpt lat="42.6891500" lon="-0.4931870">
        <ele>1601.0</ele>
        <time>2023-01-14T11:29:36Z</time>
      </trkpt>
      <trkpt lat="42.6891640" lon="-0.4932370">
        <ele>1599.4</ele>
        <time>2023-01-14T11:29:37Z</time>
      </trkpt>
      <trkpt lat="42.6891790" lon="-0.4932910">
        <ele>1598.0</ele>
        <time>2023-01-14T11:29:38Z</time>
      </trkpt>
      <trkpt lat="42.6891900" lon="-0.4933350">
        <ele>1596.4</ele>
        <time>2023-01-14T11:29:39Z</time>
      </trkpt>
      <trkpt lat="42.6891870" lon="-0.4933840">
        <ele>1595.0</ele>
        <time>2023-01-14T11:29:40Z</time>
      </trkpt>
      <trkpt lat="42.6891770" lon="-0.4934180">
        <ele>1594.2</ele>
        <time>2023-01-14T11:29:41Z</time>
      </trkpt>
      <trkpt lat="42.6891580" lon="-0.4934330">
        <ele>1592.8</ele>
        <time>2023-01-14T11:29:42Z</time>
      </trkpt>
      <trkpt lat="42.6891300" lon="-0.4934380">
        <ele>1591.6</ele>
        <time>2023-01-14T11:29:43Z</time>
      </trkpt>
      <trkpt lat="42.6891040" lon="-0.4934340">
        <ele>1590.8</ele>
        <time>2023-01-14T11:29:44Z</time>
      </trkpt>
      <trkpt lat="42.6890710" lon="-0.4934420">
        <ele>1590.2</ele>
        <time>2023-01-14T11:29:45Z</time>
      </trkpt>
      <trkpt lat="42.6890450" lon="-0.4934350">
        <ele>1589.2</ele>
        <time>2023-01-14T11:29:46Z</time>
      </trkpt>
      <trkpt lat="42.6890110" lon="-0.4934350">
        <ele>1588.6</ele>
        <time>2023-01-14T11:29:47Z</time>
      </trkpt>
      <trkpt lat="42.6889770" lon="-0.4934330">
        <ele>1588.0</ele>
        <time>2023-01-14T11:29:48Z</time>
      </trkpt>
      <trkpt lat="42.6889390" lon="-0.4934230">
        <ele>1587.4</ele>
        <time>2023-01-14T11:29:49Z</time>
      </trkpt>
      <trkpt lat="42.6889080" lon="-0.4934050">
        <ele>1586.8</ele>
        <time>2023-01-14T11:29:50Z</time>
      </trkpt>
      <trkpt lat="42.6888780" lon="-0.4933900">
        <ele>1586.2</ele>
        <time>2023-01-14T11:29:51Z</time>
      </trkpt>
      <trkpt lat="42.6888480" lon="-0.4933840">
        <ele>1585.4</ele>
        <time>2023-01-14T11:29:52Z</time>
      </trkpt>
      <trkpt lat="42.6888170" lon="-0.4933760">
        <ele>1584.4</ele>
        <time>2023-01-14T11:29:53Z</time>
      </trkpt>
      <trkpt lat="42.6887780" lon="-0.4933650">
        <ele>1583.6</ele>
        <time>2023-01-14T11:29:54Z</time>
      </trkpt>
      <trkpt lat="42.6887390" lon="-0.4933520">
        <ele>1583.0</ele>
        <time>2023-01-14T11:29:55Z</time>
      </trkpt>
      <trkpt lat="42.6886990" lon="-0.4933340">
        <ele>1582.6</ele>
        <time>2023-01-14T11:29:56Z</time>
      </trkpt>
      <trkpt lat="42.6886650" lon="-0.4933070">
        <ele>1582.2</ele>
        <time>2023-01-14T11:29:57Z</time>
      </trkpt>
      <trkpt lat="42.6886380" lon="-0.4932780">
        <ele>1582.0</ele>
        <time>2023-01-14T11:29:58Z</time>
      </trkpt>
      <trkpt lat="42.6886150" lon="-0.4932520">
        <ele>1581.8</ele>
        <time>2023-01-14T11:29:59Z</time>
      </trkpt>
      <trkpt lat="42.6886030" lon="-0.4932220">
        <ele>1581.8</ele>
        <time>2023-01-14T11:30:00Z</time>
      </trkpt>
      <trkpt lat="42.6885980" lon="-0.4931950">
        <ele>1581.6</ele>
        <time>2023-01-14T11:30:01Z</time>
      </trkpt>
      <trkpt lat="42.6885900" lon="-0.4931670">
        <ele>1581.6</ele>
        <time>2023-01-14T11:30:02Z</time>
      </trkpt>
      <trkpt lat="42.6885820" lon="-0.4931470">
        <ele>1581.6</ele>
        <time>2023-01-14T11:30:03Z</time>
      </trkpt>
      <trkpt lat="42.6885670" lon="-0.4931330">
        <ele>1581.6</ele>
        <time>2023-01-14T11:30:04Z</time>
      </trkpt>
      <trkpt lat="42.6885520" lon="-0.4931350">
        <ele>1581.6</ele>
        <time>2023-01-14T11:30:05Z</time>
      </trkpt>
      <trkpt lat="42.6885300" lon="-0.4931450">
        <ele>1581.2</ele>
        <time>2023-01-14T11:30:06Z</time>
      </trkpt>
      <trkpt lat="42.6885060" lon="-0.4931500">
        <ele>1581.2</ele>
        <time>2023-01-14T11:30:07Z</time>
      </trkpt>
      <trkpt lat="42.6884800" lon="-0.4931550">
        <ele>1580.2</ele>
        <time>2023-01-14T11:30:08Z</time>
      </trkpt>
      <trkpt lat="42.6884610" lon="-0.4931650">
        <ele>1579.0</ele>
        <time>2023-01-14T11:30:09Z</time>
      </trkpt>
      <trkpt lat="42.6884520" lon="-0.4931820">
        <ele>1577.6</ele>
        <time>2023-01-14T11:30:10Z</time>
      </trkpt>
      <trkpt lat="42.6884430" lon="-0.4932020">
        <ele>1577.0</ele>
        <time>2023-01-14T11:30:11Z</time>
      </trkpt>
      <trkpt lat="42.6884190" lon="-0.4932140">
        <ele>1576.0</ele>
        <time>2023-01-14T11:30:12Z</time>
      </trkpt>
      <trkpt lat="42.6883980" lon="-0.4932190">
        <ele>1575.0</ele>
        <time>2023-01-14T11:30:13Z</time>
      </trkpt>
      <trkpt lat="42.6883660" lon="-0.4932300">
        <ele>1573.6</ele>
        <time>2023-01-14T11:30:14Z</time>
      </trkpt>
      <trkpt lat="42.6883380" lon="-0.4932450">
        <ele>1572.6</ele>
        <time>2023-01-14T11:30:15Z</time>
      </trkpt>
      <trkpt lat="42.6883210" lon="-0.4932630">
        <ele>1571.2</ele>
        <time>2023-01-14T11:30:16Z</time>
      </trkpt>
      <trkpt lat="42.6882990" lon="-0.4932650">
        <ele>1569.6</ele>
        <time>2023-01-14T11:30:17Z</time>
      </trkpt>
      <trkpt lat="42.6882810" lon="-0.4932530">
        <ele>1568.0</ele>
        <time>2023-01-14T11:30:18Z</time>
      </trkpt>
      <trkpt lat="42.6882600" lon="-0.4932230">
        <ele>1566.8</ele>
        <time>2023-01-14T11:30:19Z</time>
      </trkpt>
      <trkpt lat="42.6882350" lon="-0.4931860">
        <ele>1565.8</ele>
        <time>2023-01-14T11:30:20Z</time>
      </trkpt>
      <trkpt lat="42.6882020" lon="-0.4931730">
        <ele>1565.2</ele>
        <time>2023-01-14T11:30:21Z</time>
      </trkpt>
      <trkpt lat="42.6881610" lon="-0.4931860">
        <ele>1564.8</ele>
        <time>2023-01-14T11:30:22Z</time>
      </trkpt>
      <trkpt lat="42.6881200" lon="-0.4932120">
        <ele>1564.2</ele>
        <time>2023-01-14T11:30:23Z</time>
      </trkpt>
      <trkpt lat="42.6880850" lon="-0.4932410">
        <ele>1563.0</ele>
        <time>2023-01-14T11:30:24Z</time>
      </trkpt>
      <trkpt lat="42.6880630" lon="-0.4932650">
        <ele>1561.6</ele>
        <time>2023-01-14T11:30:25Z</time>
      </trkpt>
      <trkpt lat="42.6880490" lon="-0.4932950">
        <ele>1560.4</ele>
        <time>2023-01-14T11:30:26Z</time>
      </trkpt>
      <trkpt lat="42.6880390" lon="-0.4933270">
        <ele>1559.0</ele>
        <time>2023-01-14T11:30:27Z</time>
      </trkpt>
      <trkpt lat="42.6880330" lon="-0.4933610">
        <ele>1558.4</ele>
        <time>2023-01-14T11:30:28Z</time>
      </trkpt>
      <trkpt lat="42.6880350" lon="-0.4933950">
        <ele>1557.4</ele>
        <time>2023-01-14T11:30:29Z</time>
      </trkpt>
      <trkpt lat="42.6880390" lon="-0.4934270">
        <ele>1556.0</ele>
        <time>2023-01-14T11:30:30Z</time>
      </trkpt>
      <trkpt lat="42.6880420" lon="-0.4934440">
        <ele>1555.2</ele>
        <time>2023-01-14T11:30:31Z</time>
      </trkpt>
      <trkpt lat="42.6880440" lon="-0.4934560">
        <ele>1554.6</ele>
        <time>2023-01-14T11:30:32Z</time>
      </trkpt>
      <trkpt lat="42.6880560" lon="-0.4934570">
        <ele>1554.0</ele>
        <time>2023-01-14T11:30:33Z</time>
      </trkpt>
      <trkpt lat="42.6880720" lon="-0.4934670">
        <ele>1553.6</ele>
        <time>2023-01-14T11:30:34Z</time>
      </trkpt>
      <trkpt lat="42.6880900" lon="-0.4934710">
        <ele>1553.2</ele>
        <time>2023-01-14T11:30:35Z</time>
      </trkpt>
      <trkpt lat="42.6881070" lon="-0.4934850">
        <ele>1552.8</ele>
        <time>2023-01-14T11:30:36Z</time>
      </trkpt>
      <trkpt lat="42.6881160" lon="-0.4935000">
        <ele>1551.4</ele>
        <time>2023-01-14T11:30:37Z</time>
      </trkpt>
      <trkpt lat="42.6881060" lon="-0.4935250">
        <ele>1550.4</ele>
        <time>2023-01-14T11:30:38Z</time>
      </trkpt>
      <trkpt lat="42.6880860" lon="-0.4935500">
        <ele>1549.8</ele>
        <time>2023-01-14T11:30:39Z</time>
      </trkpt>
      <trkpt lat="42.6880620" lon="-0.4935720">
        <ele>1549.2</ele>
        <time>2023-01-14T11:30:40Z</time>
      </trkpt>
      <trkpt lat="42.6880360" lon="-0.4935890">
        <ele>1547.2</ele>
        <time>2023-01-14T11:30:41Z</time>
      </trkpt>
      <trkpt lat="42.6880090" lon="-0.4936030">
        <ele>1546.2</ele>
        <time>2023-01-14T11:30:42Z</time>
      </trkpt>
      <trkpt lat="42.6879790" lon="-0.4936050">
        <ele>1545.2</ele>
        <time>2023-01-14T11:30:43Z</time>
      </trkpt>
      <trkpt lat="42.6879440" lon="-0.4936110">
        <ele>1544.4</ele>
        <time>2023-01-14T11:30:44Z</time>
      </trkpt>
      <trkpt lat="42.6879180" lon="-0.4936220">
        <ele>1543.6</ele>
        <time>2023-01-14T11:30:45Z</time>
      </trkpt>
      <trkpt lat="42.6878930" lon="-0.4936360">
        <ele>1543.0</ele>
        <time>2023-01-14T11:30:46Z</time>
      </trkpt>
      <trkpt lat="42.6878720" lon="-0.4936520">
        <ele>1542.2</ele>
        <time>2023-01-14T11:30:47Z</time>
      </trkpt>
      <trkpt lat="42.6878510" lon="-0.4936940">
        <ele>1541.6</ele>
        <time>2023-01-14T11:30:48Z</time>
      </trkpt>
      <trkpt lat="42.6878200" lon="-0.4937420">
        <ele>1541.2</ele>
        <time>2023-01-14T11:30:49Z</time>
      </trkpt>
      <trkpt lat="42.6877870" lon="-0.4937820">
        <ele>1540.2</ele>
        <time>2023-01-14T11:30:50Z</time>
      </trkpt>
      <trkpt lat="42.6877610" lon="-0.4938060">
        <ele>1539.6</ele>
        <time>2023-01-14T11:30:51Z</time>
      </trkpt>
      <trkpt lat="42.6877280" lon="-0.4938270">
        <ele>1539.0</ele>
        <time>2023-01-14T11:30:52Z</time>
      </trkpt>
      <trkpt lat="42.6876960" lon="-0.4938510">
        <ele>1538.6</ele>
        <time>2023-01-14T11:30:53Z</time>
      </trkpt>
      <trkpt lat="42.6876670" lon="-0.4938790">
        <ele>1537.8</ele>
        <time>2023-01-14T11:30:54Z</time>
      </trkpt>
      <trkpt lat="42.6876310" lon="-0.4939060">
        <ele>1537.4</ele>
        <time>2023-01-14T11:30:55Z</time>
      </trkpt>
      <trkpt lat="42.6875780" lon="-0.4939320">
        <ele>1537.2</ele>
        <time>2023-01-14T11:30:56Z</time>
      </trkpt>
      <trkpt lat="42.6875210" lon="-0.4939450">
        <ele>1536.6</ele>
        <time>2023-01-14T11:30:57Z</time>
      </trkpt>
      <trkpt lat="42.6874740" lon="-0.4939440">
        <ele>1535.4</ele>
        <time>2023-01-14T11:30:58Z</time>
      </trkpt>
      <trkpt lat="42.6874310" lon="-0.4939530">
        <ele>1534.2</ele>
        <time>2023-01-14T11:30:59Z</time>
      </trkpt>
      <trkpt lat="42.6873990" lon="-0.4939680">
        <ele>1533.4</ele>
        <time>2023-01-14T11:31:00Z</time>
      </trkpt>
      <trkpt lat="42.6873730" lon="-0.4939840">
        <ele>1532.8</ele>
        <time>2023-01-14T11:31:01Z</time>
      </trkpt>
      <trkpt lat="42.6873590" lon="-0.4939920">
        <ele>1532.6</ele>
        <time>2023-01-14T11:31:02Z</time>
      </trkpt>
      <trkpt lat="42.6873530" lon="-0.4939930">
        <ele>1532.4</ele>
        <time>2023-01-14T11:31:03Z</time>
      </trkpt>
      <trkpt lat="42.6873500" lon="-0.4939960">
        <ele>1532.0</ele>
        <time>2023-01-14T11:31:04Z</time>
      </trkpt>
      <trkpt lat="42.6873480" lon="-0.4940000">
        <ele>1532.0</ele>
        <time>2023-01-14T11:31:05Z</time>
      </trkpt>
      <trkpt lat="42.6873460" lon="-0.4940030">
        <ele>1531.8</ele>
        <time>2023-01-14T11:31:06Z</time>
      </trkpt>
      <trkpt lat="42.6873450" lon="-0.4940030">
        <ele>1532.0</ele>
        <time>2023-01-14T11:31:07Z</time>
      </trkpt>
      <trkpt lat="42.6873450" lon="-0.4940030">
        <ele>1532.0</ele>
        <time>2023-01-14T11:31:08Z</time>
      </trkpt>
      <trkpt lat="42.6873440" lon="-0.4940030">
        <ele>1532.0</ele>
        <time>2023-01-14T11:31:09Z</time>
      </trkpt>
      <trkpt lat="42.6873440" lon="-0.4940030">
        <ele>1531.8</ele>
        <time>2023-01-14T11:31:10Z</time>
      </trkpt>
      <trkpt lat="42.6873430" lon="-0.4940030">
        <ele>1531.8</ele>
        <time>2023-01-14T11:31:11Z</time>
      </trkpt>
      <trkpt lat="42.6873430" lon="-0.4940030">
        <ele>1532.0</ele>
        <time>2023-01-14T11:31:12Z</time>
      </trkpt>
      <trkpt lat="42.6873430" lon="-0.4940030">
        <ele>1532.0</ele>
        <time>2023-01-14T11:31:13Z</time>
      </trkpt>
      <trkpt lat="42.6873420" lon="-0.4940030">
        <ele>1531.8</ele>
        <time>2023-01-14T11:31:14Z</time>
      </trkpt>
      <trkpt lat="42.6873420" lon="-0.4940030">
        <ele>1531.8</ele>
        <time>2023-01-14T11:31:15Z</time>
      </trkpt>
      <trkpt lat="42.6873420" lon="-0.4940030">
        <ele>1531.6</ele>
        <time>2023-01-14T11:31:16Z</time>
      </trkpt>
      <trkpt lat="42.6873410" lon="-0.4940040">
        <ele>1531.6</ele>
        <time>2023-01-14T11:31:17Z</time>
      </trkpt>
      <trkpt lat="42.6873410" lon="-0.4940050">
        <ele>1531.6</ele>
        <time>2023-01-14T11:31:18Z</time>
      </trkpt>
      <trkpt lat="42.6873400" lon="-0.4940050">
        <ele>1531.6</ele>
        <time>2023-01-14T11:31:19Z</time>
      </trkpt>
      <trkpt lat="42.6873400" lon="-0.4940050">
        <ele>1531.6</ele>
        <time>2023-01-14T11:31:20Z</time>
      </trkpt>
      <trkpt lat="42.6873400" lon="-0.4940050">
        <ele>1531.6</ele>
        <time>2023-01-14T11:31:21Z</time>
      </trkpt>
      <trkpt lat="42.6873400" lon="-0.4940060">
        <ele>1531.6</ele>
        <time>2023-01-14T11:31:22Z</time>
      </trkpt>
      <trkpt lat="42.6873400" lon="-0.4940060">
        <ele>1531.6</ele>
        <time>2023-01-14T11:31:23Z</time>
      </trkpt>
      <trkpt lat="42.6873400" lon="-0.4940060">
        <ele>1531.6</ele>
        <time>2023-01-14T11:31:24Z</time>
      </trkpt>
      <trkpt lat="42.6873390" lon="-0.4940060">
        <ele>1531.6</ele>
        <time>2023-01-14T11:31:25Z</time>
      </trkpt>
      <trkpt lat="42.6873390" lon="-0.4940060">
        <ele>1531.6</ele>
        <time>2023-01-14T11:31:26Z</time>
      </trkpt>
      <trkpt lat="42.6873390" lon="-0.4940060">
        <ele>1531.6</ele>
        <time>2023-01-14T11:31:27Z</time>
      </trkpt>
      <trkpt lat="42.6873390" lon="-0.4940070">
        <ele>1531.8</ele>
        <time>2023-01-14T11:31:28Z</time>
      </trkpt>
      <trkpt lat="42.6873390" lon="-0.4940070">
        <ele>1531.8</ele>
        <time>2023-01-14T11:31:29Z</time>
      </trkpt>
      <trkpt lat="42.6873390" lon="-0.4940070">
        <ele>1531.8</ele>
        <time>2023-01-14T11:31:30Z</time>
      </trkpt>
      <trkpt lat="42.6873390" lon="-0.4940080">
        <ele>1531.8</ele>
        <time>2023-01-14T11:31:31Z</time>
      </trkpt>
      <trkpt lat="42.6873380" lon="-0.4940080">
        <ele>1531.8</ele>
        <time>2023-01-14T11:31:32Z</time>
      </trkpt>
      <trkpt lat="42.6873380" lon="-0.4940080">
        <ele>1531.8</ele>
        <time>2023-01-14T11:31:33Z</time>
      </trkpt>
      <trkpt lat="42.6873380" lon="-0.4940090">
        <ele>1531.8</ele>
        <time>2023-01-14T11:31:34Z</time>
      </trkpt>
      <trkpt lat="42.6873370" lon="-0.4940100">
        <ele>1531.8</ele>
        <time>2023-01-14T11:31:35Z</time>
      </trkpt>
      <trkpt lat="42.6873370" lon="-0.4940110">
        <ele>1531.8</ele>
        <time>2023-01-14T11:31:36Z</time>
      </trkpt>
      <trkpt lat="42.6873360" lon="-0.4940120">
        <ele>1531.8</ele>
        <time>2023-01-14T11:31:37Z</time>
      </trkpt>
      <trkpt lat="42.6873350" lon="-0.4940130">
        <ele>1531.8</ele>
        <time>2023-01-14T11:31:38Z</time>
      </trkpt>
      <trkpt lat="42.6873350" lon="-0.4940130">
        <ele>1531.8</ele>
        <time>2023-01-14T11:31:39Z</time>
      </trkpt>
      <trkpt lat="42.6873350" lon="-0.4940140">
        <ele>1531.8</ele>
        <time>2023-01-14T11:31:40Z</time>
      </trkpt>
      <trkpt lat="42.6873340" lon="-0.4940150">
        <ele>1531.8</ele>
        <time>2023-01-14T11:31:41Z</time>
      </trkpt>
      <trkpt lat="42.6873340" lon="-0.4940150">
        <ele>1531.8</ele>
        <time>2023-01-14T11:31:42Z</time>
      </trkpt>
      <trkpt lat="42.6873330" lon="-0.4940160">
        <ele>1531.8</ele>
        <time>2023-01-14T11:31:43Z</time>
      </trkpt>
      <trkpt lat="42.6873330" lon="-0.4940170">
        <ele>1531.8</ele>
        <time>2023-01-14T11:31:44Z</time>
      </trkpt>
      <trkpt lat="42.6873320" lon="-0.4940180">
        <ele>1531.8</ele>
        <time>2023-01-14T11:31:45Z</time>
      </trkpt>
      <trkpt lat="42.6873320" lon="-0.4940180">
        <ele>1531.8</ele>
        <time>2023-01-14T11:31:46Z</time>
      </trkpt>
      <trkpt lat="42.6873320" lon="-0.4940180">
        <ele>1531.8</ele>
        <time>2023-01-14T11:31:47Z</time>
      </trkpt>
      <trkpt lat="42.6873320" lon="-0.4940190">
        <ele>1531.8</ele>
        <time>2023-01-14T11:31:48Z</time>
      </trkpt>
      <trkpt lat="42.6873320" lon="-0.4940190">
        <ele>1531.8</ele>
        <time>2023-01-14T11:31:49Z</time>
      </trkpt>
      <trkpt lat="42.6873320" lon="-0.4940190">
        <ele>1531.8</ele>
        <time>2023-01-14T11:31:50Z</time>
      </trkpt>
      <trkpt lat="42.6873320" lon="-0.4940190">
        <ele>1531.8</ele>
        <time>2023-01-14T11:31:51Z</time>
      </trkpt>
      <trkpt lat="42.6873320" lon="-0.4940190">
        <ele>1531.8</ele>
        <time>2023-01-14T11:31:52Z</time>
      </trkpt>
      <trkpt lat="42.6873320" lon="-0.4940200">
        <ele>1531.8</ele>
        <time>2023-01-14T11:31:53Z</time>
      </trkpt>
      <trkpt lat="42.6873320" lon="-0.4940200">
        <ele>1532.0</ele>
        <time>2023-01-14T11:31:54Z</time>
      </trkpt>
      <trkpt lat="42.6873310" lon="-0.4940200">
        <ele>1532.2</ele>
        <time>2023-01-14T11:31:55Z</time>
      </trkpt>
      <trkpt lat="42.6873310" lon="-0.4940200">
        <ele>1532.4</ele>
        <time>2023-01-14T11:31:56Z</time>
      </trkpt>
      <trkpt lat="42.6873310" lon="-0.4940200">
        <ele>1532.4</ele>
        <time>2023-01-14T11:31:57Z</time>
      </trkpt>
      <trkpt lat="42.6873310" lon="-0.4940200">
        <ele>1532.2</ele>
        <time>2023-01-14T11:31:58Z</time>
      </trkpt>
      <trkpt lat="42.6873300" lon="-0.4940200">
        <ele>1532.0</ele>
        <time>2023-01-14T11:31:59Z</time>
      </trkpt>
      <trkpt lat="42.6873300" lon="-0.4940200">
        <ele>1532.0</ele>
        <time>2023-01-14T11:32:00Z</time>
      </trkpt>
      <trkpt lat="42.6873300" lon="-0.4940200">
        <ele>1532.0</ele>
        <time>2023-01-14T11:32:01Z</time>
      </trkpt>
      <trkpt lat="42.6873290" lon="-0.4940200">
        <ele>1531.8</ele>
        <time>2023-01-14T11:32:02Z</time>
      </trkpt>
      <trkpt lat="42.6873290" lon="-0.4940200">
        <ele>1531.8</ele>
        <time>2023-01-14T11:32:03Z</time>
      </trkpt>
      <trkpt lat="42.6873290" lon="-0.4940210">
        <ele>1531.8</ele>
        <time>2023-01-14T11:32:04Z</time>
      </trkpt>
      <trkpt lat="42.6873280" lon="-0.4940220">
        <ele>1531.8</ele>
        <time>2023-01-14T11:32:05Z</time>
      </trkpt>
      <trkpt lat="42.6873280" lon="-0.4940220">
        <ele>1531.8</ele>
        <time>2023-01-14T11:32:06Z</time>
      </trkpt>
      <trkpt lat="42.6873270" lon="-0.4940230">
        <ele>1531.6</ele>
        <time>2023-01-14T11:32:07Z</time>
      </trkpt>
      <trkpt lat="42.6873270" lon="-0.4940230">
        <ele>1531.6</ele>
        <time>2023-01-14T11:32:08Z</time>
      </trkpt>
      <trkpt lat="42.6873270" lon="-0.4940240">
        <ele>1531.6</ele>
        <time>2023-01-14T11:32:09Z</time>
      </trkpt>
      <trkpt lat="42.6873260" lon="-0.4940240">
        <ele>1531.6</ele>
        <time>2023-01-14T11:32:10Z</time>
      </trkpt>
      <trkpt lat="42.6873260" lon="-0.4940250">
        <ele>1531.8</ele>
        <time>2023-01-14T11:32:11Z</time>
      </trkpt>
      <trkpt lat="42.6873250" lon="-0.4940250">
        <ele>1531.8</ele>
        <time>2023-01-14T11:32:12Z</time>
      </trkpt>
      <trkpt lat="42.6873250" lon="-0.4940260">
        <ele>1531.8</ele>
        <time>2023-01-14T11:32:13Z</time>
      </trkpt>
      <trkpt lat="42.6873250" lon="-0.4940260">
        <ele>1531.8</ele>
        <time>2023-01-14T11:32:14Z</time>
      </trkpt>
      <trkpt lat="42.6873250" lon="-0.4940260">
        <ele>1531.8</ele>
        <time>2023-01-14T11:32:15Z</time>
      </trkpt>
      <trkpt lat="42.6873250" lon="-0.4940260">
        <ele>1531.8</ele>
        <time>2023-01-14T11:32:16Z</time>
      </trkpt>
      <trkpt lat="42.6873250" lon="-0.4940270">
        <ele>1532.0</ele>
        <time>2023-01-14T11:32:17Z</time>
      </trkpt>
      <trkpt lat="42.6873250" lon="-0.4940260">
        <ele>1532.0</ele>
        <time>2023-01-14T11:32:18Z</time>
      </trkpt>
      <trkpt lat="42.6873250" lon="-0.4940260">
        <ele>1532.2</ele>
        <time>2023-01-14T11:32:19Z</time>
      </trkpt>
      <trkpt lat="42.6873250" lon="-0.4940260">
        <ele>1532.2</ele>
        <time>2023-01-14T11:32:20Z</time>
      </trkpt>
      <trkpt lat="42.6873250" lon="-0.4940260">
        <ele>1532.2</ele>
        <time>2023-01-14T11:32:21Z</time>
      </trkpt>
      <trkpt lat="42.6873250" lon="-0.4940260">
        <ele>1532.2</ele>
        <time>2023-01-14T11:32:22Z</time>
      </trkpt>
      <trkpt lat="42.6873240" lon="-0.4940260">
        <ele>1532.2</ele>
        <time>2023-01-14T11:32:23Z</time>
      </trkpt>
      <trkpt lat="42.6873240" lon="-0.4940270">
        <ele>1532.0</ele>
        <time>2023-01-14T11:32:24Z</time>
      </trkpt>
      <trkpt lat="42.6873240" lon="-0.4940270">
        <ele>1532.0</ele>
        <time>2023-01-14T11:32:25Z</time>
      </trkpt>
      <trkpt lat="42.6873230" lon="-0.4940270">
        <ele>1532.0</ele>
        <time>2023-01-14T11:32:26Z</time>
      </trkpt>
      <trkpt lat="42.6873230" lon="-0.4940270">
        <ele>1532.0</ele>
        <time>2023-01-14T11:32:27Z</time>
      </trkpt>
      <trkpt lat="42.6873230" lon="-0.4940280">
        <ele>1532.0</ele>
        <time>2023-01-14T11:32:28Z</time>
      </trkpt>
      <trkpt lat="42.6873230" lon="-0.4940280">
        <ele>1532.0</ele>
        <time>2023-01-14T11:32:29Z</time>
      </trkpt>
      <trkpt lat="42.6873230" lon="-0.4940280">
        <ele>1532.0</ele>
        <time>2023-01-14T11:32:30Z</time>
      </trkpt>
      <trkpt lat="42.6873230" lon="-0.4940290">
        <ele>1531.8</ele>
        <time>2023-01-14T11:32:31Z</time>
      </trkpt>
      <trkpt lat="42.6873230" lon="-0.4940290">
        <ele>1531.8</ele>
        <time>2023-01-14T11:32:32Z</time>
      </trkpt>
      <trkpt lat="42.6873220" lon="-0.4940290">
        <ele>1531.8</ele>
        <time>2023-01-14T11:32:33Z</time>
      </trkpt>
      <trkpt lat="42.6873220" lon="-0.4940290">
        <ele>1531.8</ele>
        <time>2023-01-14T11:32:34Z</time>
      </trkpt>
      <trkpt lat="42.6873220" lon="-0.4940290">
        <ele>1531.8</ele>
        <time>2023-01-14T11:32:35Z</time>
      </trkpt>
      <trkpt lat="42.6873220" lon="-0.4940290">
        <ele>1531.8</ele>
        <time>2023-01-14T11:32:36Z</time>
      </trkpt>
      <trkpt lat="42.6873220" lon="-0.4940290">
        <ele>1531.8</ele>
        <time>2023-01-14T11:32:37Z</time>
      </trkpt>
      <trkpt lat="42.6873220" lon="-0.4940290">
        <ele>1531.8</ele>
        <time>2023-01-14T11:32:38Z</time>
      </trkpt>
      <trkpt lat="42.6873220" lon="-0.4940290">
        <ele>1531.8</ele>
        <time>2023-01-14T11:32:39Z</time>
      </trkpt>
      <trkpt lat="42.6873220" lon="-0.4940300">
        <ele>1531.8</ele>
        <time>2023-01-14T11:32:40Z</time>
      </trkpt>
      <trkpt lat="42.6873220" lon="-0.4940300">
        <ele>1531.8</ele>
        <time>2023-01-14T11:32:41Z</time>
      </trkpt>
      <trkpt lat="42.6873210" lon="-0.4940300">
        <ele>1531.8</ele>
        <time>2023-01-14T11:32:42Z</time>
      </trkpt>
      <trkpt lat="42.6873210" lon="-0.4940300">
        <ele>1531.8</ele>
        <time>2023-01-14T11:32:43Z</time>
      </trkpt>
      <trkpt lat="42.6873210" lon="-0.4940310">
        <ele>1531.8</ele>
        <time>2023-01-14T11:32:44Z</time>
      </trkpt>
      <trkpt lat="42.6873210" lon="-0.4940310">
        <ele>1531.6</ele>
        <time>2023-01-14T11:32:45Z</time>
      </trkpt>
      <trkpt lat="42.6873210" lon="-0.4940310">
        <ele>1531.6</ele>
        <time>2023-01-14T11:32:46Z</time>
      </trkpt>
      <trkpt lat="42.6873210" lon="-0.4940310">
        <ele>1531.8</ele>
        <time>2023-01-14T11:32:47Z</time>
      </trkpt>
      <trkpt lat="42.6873210" lon="-0.4940310">
        <ele>1531.6</ele>
        <time>2023-01-14T11:32:48Z</time>
      </trkpt>
      <trkpt lat="42.6873210" lon="-0.4940310">
        <ele>1531.8</ele>
        <time>2023-01-14T11:32:49Z</time>
      </trkpt>
      <trkpt lat="42.6873210" lon="-0.4940310">
        <ele>1531.6</ele>
        <time>2023-01-14T11:32:50Z</time>
      </trkpt>
      <trkpt lat="42.6873210" lon="-0.4940320">
        <ele>1531.6</ele>
        <time>2023-01-14T11:32:51Z</time>
      </trkpt>
      <trkpt lat="42.6873210" lon="-0.4940320">
        <ele>1531.6</ele>
        <time>2023-01-14T11:32:52Z</time>
      </trkpt>
      <trkpt lat="42.6873210" lon="-0.4940320">
        <ele>1531.6</ele>
        <time>2023-01-14T11:32:53Z</time>
      </trkpt>
      <trkpt lat="42.6873210" lon="-0.4940320">
        <ele>1531.6</ele>
        <time>2023-01-14T11:32:54Z</time>
      </trkpt>
      <trkpt lat="42.6873210" lon="-0.4940320">
        <ele>1531.6</ele>
        <time>2023-01-14T11:32:55Z</time>
      </trkpt>
      <trkpt lat="42.6873210" lon="-0.4940330">
        <ele>1531.6</ele>
        <time>2023-01-14T11:32:56Z</time>
      </trkpt>
      <trkpt lat="42.6873210" lon="-0.4940330">
        <ele>1531.6</ele>
        <time>2023-01-14T11:32:57Z</time>
      </trkpt>
      <trkpt lat="42.6873220" lon="-0.4940330">
        <ele>1531.6</ele>
        <time>2023-01-14T11:32:58Z</time>
      </trkpt>
      <trkpt lat="42.6873220" lon="-0.4940330">
        <ele>1531.4</ele>
        <time>2023-01-14T11:32:59Z</time>
      </trkpt>
      <trkpt lat="42.6873220" lon="-0.4940330">
        <ele>1531.4</ele>
        <time>2023-01-14T11:33:00Z</time>
      </trkpt>
      <trkpt lat="42.6873220" lon="-0.4940330">
        <ele>1531.4</ele>
        <time>2023-01-14T11:33:01Z</time>
      </trkpt>
      <trkpt lat="42.6873230" lon="-0.4940330">
        <ele>1531.4</ele>
        <time>2023-01-14T11:33:02Z</time>
      </trkpt>
      <trkpt lat="42.6873230" lon="-0.4940330">
        <ele>1531.4</ele>
        <time>2023-01-14T11:33:03Z</time>
      </trkpt>
      <trkpt lat="42.6873230" lon="-0.4940330">
        <ele>1531.4</ele>
        <time>2023-01-14T11:33:04Z</time>
      </trkpt>
      <trkpt lat="42.6873230" lon="-0.4940340">
        <ele>1531.4</ele>
        <time>2023-01-14T11:33:05Z</time>
      </trkpt>
      <trkpt lat="42.6873230" lon="-0.4940340">
        <ele>1531.4</ele>
        <time>2023-01-14T11:33:06Z</time>
      </trkpt>
      <trkpt lat="42.6873230" lon="-0.4940340">
        <ele>1531.6</ele>
        <time>2023-01-14T11:33:07Z</time>
      </trkpt>
      <trkpt lat="42.6873230" lon="-0.4940340">
        <ele>1531.6</ele>
        <time>2023-01-14T11:33:08Z</time>
      </trkpt>
      <trkpt lat="42.6873240" lon="-0.4940350">
        <ele>1531.6</ele>
        <time>2023-01-14T11:33:09Z</time>
      </trkpt>
      <trkpt lat="42.6873240" lon="-0.4940350">
        <ele>1531.6</ele>
        <time>2023-01-14T11:33:10Z</time>
      </trkpt>
      <trkpt lat="42.6873240" lon="-0.4940350">
        <ele>1531.4</ele>
        <time>2023-01-14T11:33:11Z</time>
      </trkpt>
      <trkpt lat="42.6873240" lon="-0.4940360">
        <ele>1531.4</ele>
        <time>2023-01-14T11:33:12Z</time>
      </trkpt>
      <trkpt lat="42.6873240" lon="-0.4940360">
        <ele>1531.6</ele>
        <time>2023-01-14T11:33:13Z</time>
      </trkpt>
      <trkpt lat="42.6873240" lon="-0.4940360">
        <ele>1531.6</ele>
        <time>2023-01-14T11:33:14Z</time>
      </trkpt>
      <trkpt lat="42.6873240" lon="-0.4940360">
        <ele>1531.6</ele>
        <time>2023-01-14T11:33:15Z</time>
      </trkpt>
      <trkpt lat="42.6873240" lon="-0.4940360">
        <ele>1531.6</ele>
        <time>2023-01-14T11:33:16Z</time>
      </trkpt>
      <trkpt lat="42.6873240" lon="-0.4940370">
        <ele>1531.8</ele>
        <time>2023-01-14T11:33:17Z</time>
      </trkpt>
      <trkpt lat="42.6873230" lon="-0.4940370">
        <ele>1531.8</ele>
        <time>2023-01-14T11:33:18Z</time>
      </trkpt>
      <trkpt lat="42.6873230" lon="-0.4940360">
        <ele>1531.8</ele>
        <time>2023-01-14T11:33:19Z</time>
      </trkpt>
      <trkpt lat="42.6873230" lon="-0.4940360">
        <ele>1531.8</ele>
        <time>2023-01-14T11:33:20Z</time>
      </trkpt>
      <trkpt lat="42.6873230" lon="-0.4940360">
        <ele>1531.8</ele>
        <time>2023-01-14T11:33:21Z</time>
      </trkpt>
      <trkpt lat="42.6873230" lon="-0.4940360">
        <ele>1531.8</ele>
        <time>2023-01-14T11:33:22Z</time>
      </trkpt>
      <trkpt lat="42.6873230" lon="-0.4940360">
        <ele>1531.8</ele>
        <time>2023-01-14T11:33:23Z</time>
      </trkpt>
      <trkpt lat="42.6873230" lon="-0.4940350">
        <ele>1531.6</ele>
        <time>2023-01-14T11:33:24Z</time>
      </trkpt>
      <trkpt lat="42.6873230" lon="-0.4940350">
        <ele>1531.8</ele>
        <time>2023-01-14T11:33:25Z</time>
      </trkpt>
      <trkpt lat="42.6873230" lon="-0.4940350">
        <ele>1531.6</ele>
        <time>2023-01-14T11:33:26Z</time>
      </trkpt>
      <trkpt lat="42.6873230" lon="-0.4940350">
        <ele>1531.6</ele>
        <time>2023-01-14T11:33:27Z</time>
      </trkpt>
      <trkpt lat="42.6873230" lon="-0.4940350">
        <ele>1531.6</ele>
        <time>2023-01-14T11:33:28Z</time>
      </trkpt>
      <trkpt lat="42.6873220" lon="-0.4940350">
        <ele>1531.6</ele>
        <time>2023-01-14T11:33:29Z</time>
      </trkpt>
      <trkpt lat="42.6873220" lon="-0.4940340">
        <ele>1531.6</ele>
        <time>2023-01-14T11:33:30Z</time>
      </trkpt>
      <trkpt lat="42.6873220" lon="-0.4940340">
        <ele>1531.6</ele>
        <time>2023-01-14T11:33:31Z</time>
      </trkpt>
      <trkpt lat="42.6873220" lon="-0.4940340">
        <ele>1531.6</ele>
        <time>2023-01-14T11:33:32Z</time>
      </trkpt>
      <trkpt lat="42.6873220" lon="-0.4940340">
        <ele>1531.6</ele>
        <time>2023-01-14T11:33:33Z</time>
      </trkpt>
      <trkpt lat="42.6873220" lon="-0.4940340">
        <ele>1531.8</ele>
        <time>2023-01-14T11:33:34Z</time>
      </trkpt>
      <trkpt lat="42.6873220" lon="-0.4940340">
        <ele>1531.8</ele>
        <time>2023-01-14T11:33:35Z</time>
      </trkpt>
      <trkpt lat="42.6873220" lon="-0.4940340">
        <ele>1531.8</ele>
        <time>2023-01-14T11:33:36Z</time>
      </trkpt>
      <trkpt lat="42.6873210" lon="-0.4940340">
        <ele>1531.8</ele>
        <time>2023-01-14T11:33:37Z</time>
      </trkpt>
      <trkpt lat="42.6873210" lon="-0.4940340">
        <ele>1531.8</ele>
        <time>2023-01-14T11:33:38Z</time>
      </trkpt>
      <trkpt lat="42.6873210" lon="-0.4940340">
        <ele>1531.8</ele>
        <time>2023-01-14T11:33:39Z</time>
      </trkpt>
      <trkpt lat="42.6873210" lon="-0.4940350">
        <ele>1532.0</ele>
        <time>2023-01-14T11:33:40Z</time>
      </trkpt>
      <trkpt lat="42.6873220" lon="-0.4940350">
        <ele>1532.0</ele>
        <time>2023-01-14T11:33:41Z</time>
      </trkpt>
      <trkpt lat="42.6873210" lon="-0.4940350">
        <ele>1532.0</ele>
        <time>2023-01-14T11:33:42Z</time>
      </trkpt>
      <trkpt lat="42.6873210" lon="-0.4940350">
        <ele>1531.8</ele>
        <time>2023-01-14T11:33:43Z</time>
      </trkpt>
      <trkpt lat="42.6873210" lon="-0.4940360">
        <ele>1531.8</ele>
        <time>2023-01-14T11:33:44Z</time>
      </trkpt>
      <trkpt lat="42.6873210" lon="-0.4940360">
        <ele>1531.8</ele>
        <time>2023-01-14T11:33:45Z</time>
      </trkpt>
      <trkpt lat="42.6873210" lon="-0.4940370">
        <ele>1531.6</ele>
        <time>2023-01-14T11:33:46Z</time>
      </trkpt>
      <trkpt lat="42.6873210" lon="-0.4940370">
        <ele>1531.4</ele>
        <time>2023-01-14T11:33:47Z</time>
      </trkpt>
      <trkpt lat="42.6873210" lon="-0.4940380">
        <ele>1531.4</ele>
        <time>2023-01-14T11:33:48Z</time>
      </trkpt>
      <trkpt lat="42.6873210" lon="-0.4940380">
        <ele>1531.6</ele>
        <time>2023-01-14T11:33:49Z</time>
      </trkpt>
      <trkpt lat="42.6873200" lon="-0.4940390">
        <ele>1531.6</ele>
        <time>2023-01-14T11:33:50Z</time>
      </trkpt>
      <trkpt lat="42.6873200" lon="-0.4940390">
        <ele>1531.6</ele>
        <time>2023-01-14T11:33:51Z</time>
      </trkpt>
      <trkpt lat="42.6873200" lon="-0.4940390">
        <ele>1531.6</ele>
        <time>2023-01-14T11:33:52Z</time>
      </trkpt>
      <trkpt lat="42.6873190" lon="-0.4940400">
        <ele>1531.6</ele>
        <time>2023-01-14T11:33:53Z</time>
      </trkpt>
      <trkpt lat="42.6873190" lon="-0.4940400">
        <ele>1531.6</ele>
        <time>2023-01-14T11:33:54Z</time>
      </trkpt>
      <trkpt lat="42.6873190" lon="-0.4940410">
        <ele>1531.8</ele>
        <time>2023-01-14T11:33:55Z</time>
      </trkpt>
      <trkpt lat="42.6873180" lon="-0.4940410">
        <ele>1531.6</ele>
        <time>2023-01-14T11:33:56Z</time>
      </trkpt>
      <trkpt lat="42.6873170" lon="-0.4940420">
        <ele>1531.6</ele>
        <time>2023-01-14T11:33:57Z</time>
      </trkpt>
      <trkpt lat="42.6873170" lon="-0.4940420">
        <ele>1531.6</ele>
        <time>2023-01-14T11:33:58Z</time>
      </trkpt>
      <trkpt lat="42.6873160" lon="-0.4940420">
        <ele>1531.8</ele>
        <time>2023-01-14T11:33:59Z</time>
      </trkpt>
      <trkpt lat="42.6873160" lon="-0.4940430">
        <ele>1532.0</ele>
        <time>2023-01-14T11:34:00Z</time>
      </trkpt>
      <trkpt lat="42.6873150" lon="-0.4940430">
        <ele>1532.0</ele>
        <time>2023-01-14T11:34:01Z</time>
      </trkpt>
      <trkpt lat="42.6873150" lon="-0.4940430">
        <ele>1532.0</ele>
        <time>2023-01-14T11:34:02Z</time>
      </trkpt>
      <trkpt lat="42.6873150" lon="-0.4940440">
        <ele>1532.0</ele>
        <time>2023-01-14T11:34:03Z</time>
      </trkpt>
      <trkpt lat="42.6873140" lon="-0.4940440">
        <ele>1532.0</ele>
        <time>2023-01-14T11:34:04Z</time>
      </trkpt>
      <trkpt lat="42.6873140" lon="-0.4940440">
        <ele>1532.0</ele>
        <time>2023-01-14T11:34:05Z</time>
      </trkpt>
      <trkpt lat="42.6873140" lon="-0.4940440">
        <ele>1531.8</ele>
        <time>2023-01-14T11:34:06Z</time>
      </trkpt>
      <trkpt lat="42.6873140" lon="-0.4940440">
        <ele>1531.6</ele>
        <time>2023-01-14T11:34:07Z</time>
      </trkpt>
      <trkpt lat="42.6873130" lon="-0.4940440">
        <ele>1531.6</ele>
        <time>2023-01-14T11:34:08Z</time>
      </trkpt>
      <trkpt lat="42.6873130" lon="-0.4940440">
        <ele>1531.4</ele>
        <time>2023-01-14T11:34:09Z</time>
      </trkpt>
      <trkpt lat="42.6873130" lon="-0.4940450">
        <ele>1531.4</ele>
        <time>2023-01-14T11:34:10Z</time>
      </trkpt>
      <trkpt lat="42.6873130" lon="-0.4940450">
        <ele>1531.4</ele>
        <time>2023-01-14T11:34:11Z</time>
      </trkpt>
      <trkpt lat="42.6873130" lon="-0.4940450">
        <ele>1531.4</ele>
        <time>2023-01-14T11:34:12Z</time>
      </trkpt>
      <trkpt lat="42.6873130" lon="-0.4940450">
        <ele>1531.6</ele>
        <time>2023-01-14T11:34:13Z</time>
      </trkpt>
      <trkpt lat="42.6873120" lon="-0.4940450">
        <ele>1531.8</ele>
        <time>2023-01-14T11:34:14Z</time>
      </trkpt>
      <trkpt lat="42.6873120" lon="-0.4940450">
        <ele>1531.8</ele>
        <time>2023-01-14T11:34:15Z</time>
      </trkpt>
      <trkpt lat="42.6873120" lon="-0.4940460">
        <ele>1531.8</ele>
        <time>2023-01-14T11:34:16Z</time>
      </trkpt>
      <trkpt lat="42.6873120" lon="-0.4940460">
        <ele>1531.6</ele>
        <time>2023-01-14T11:34:17Z</time>
      </trkpt>
      <trkpt lat="42.6873120" lon="-0.4940460">
        <ele>1531.6</ele>
        <time>2023-01-14T11:34:18Z</time>
      </trkpt>
      <trkpt lat="42.6873120" lon="-0.4940460">
        <ele>1531.6</ele>
        <time>2023-01-14T11:34:19Z</time>
      </trkpt>
      <trkpt lat="42.6873120" lon="-0.4940470">
        <ele>1531.6</ele>
        <time>2023-01-14T11:34:20Z</time>
      </trkpt>
      <trkpt lat="42.6873120" lon="-0.4940470">
        <ele>1531.6</ele>
        <time>2023-01-14T11:34:21Z</time>
      </trkpt>
      <trkpt lat="42.6873120" lon="-0.4940470">
        <ele>1531.6</ele>
        <time>2023-01-14T11:34:22Z</time>
      </trkpt>
      <trkpt lat="42.6873120" lon="-0.4940470">
        <ele>1531.6</ele>
        <time>2023-01-14T11:34:23Z</time>
      </trkpt>
      <trkpt lat="42.6873120" lon="-0.4940480">
        <ele>1531.6</ele>
        <time>2023-01-14T11:34:24Z</time>
      </trkpt>
      <trkpt lat="42.6873120" lon="-0.4940480">
        <ele>1531.4</ele>
        <time>2023-01-14T11:34:25Z</time>
      </trkpt>
      <trkpt lat="42.6873120" lon="-0.4940480">
        <ele>1531.4</ele>
        <time>2023-01-14T11:34:26Z</time>
      </trkpt>
      <trkpt lat="42.6873120" lon="-0.4940480">
        <ele>1531.2</ele>
        <time>2023-01-14T11:34:27Z</time>
      </trkpt>
      <trkpt lat="42.6873130" lon="-0.4940480">
        <ele>1531.2</ele>
        <time>2023-01-14T11:34:28Z</time>
      </trkpt>
      <trkpt lat="42.6873130" lon="-0.4940480">
        <ele>1531.2</ele>
        <time>2023-01-14T11:34:29Z</time>
      </trkpt>
      <trkpt lat="42.6873130" lon="-0.4940470">
        <ele>1531.2</ele>
        <time>2023-01-14T11:34:30Z</time>
      </trkpt>
      <trkpt lat="42.6873130" lon="-0.4940470">
        <ele>1531.2</ele>
        <time>2023-01-14T11:34:31Z</time>
      </trkpt>
      <trkpt lat="42.6873130" lon="-0.4940470">
        <ele>1531.2</ele>
        <time>2023-01-14T11:34:32Z</time>
      </trkpt>
      <trkpt lat="42.6873130" lon="-0.4940470">
        <ele>1531.4</ele>
        <time>2023-01-14T11:34:33Z</time>
      </trkpt>
      <trkpt lat="42.6873130" lon="-0.4940470">
        <ele>1531.4</ele>
        <time>2023-01-14T11:34:34Z</time>
      </trkpt>
      <trkpt lat="42.6873130" lon="-0.4940470">
        <ele>1531.4</ele>
        <time>2023-01-14T11:34:35Z</time>
      </trkpt>
      <trkpt lat="42.6873130" lon="-0.4940470">
        <ele>1531.4</ele>
        <time>2023-01-14T11:34:36Z</time>
      </trkpt>
      <trkpt lat="42.6873130" lon="-0.4940470">
        <ele>1531.4</ele>
        <time>2023-01-14T11:34:37Z</time>
      </trkpt>
      <trkpt lat="42.6873130" lon="-0.4940460">
        <ele>1531.4</ele>
        <time>2023-01-14T11:34:38Z</time>
      </trkpt>
      <trkpt lat="42.6873130" lon="-0.4940460">
        <ele>1531.4</ele>
        <time>2023-01-14T11:34:39Z</time>
      </trkpt>
      <trkpt lat="42.6873130" lon="-0.4940450">
        <ele>1531.4</ele>
        <time>2023-01-14T11:34:40Z</time>
      </trkpt>
      <trkpt lat="42.6873140" lon="-0.4940450">
        <ele>1531.2</ele>
        <time>2023-01-14T11:34:41Z</time>
      </trkpt>
      <trkpt lat="42.6873140" lon="-0.4940450">
        <ele>1531.2</ele>
        <time>2023-01-14T11:34:42Z</time>
      </trkpt>
      <trkpt lat="42.6873140" lon="-0.4940440">
        <ele>1531.2</ele>
        <time>2023-01-14T11:34:43Z</time>
      </trkpt>
      <trkpt lat="42.6873150" lon="-0.4940430">
        <ele>1531.4</ele>
        <time>2023-01-14T11:34:44Z</time>
      </trkpt>
      <trkpt lat="42.6873150" lon="-0.4940430">
        <ele>1531.4</ele>
        <time>2023-01-14T11:34:45Z</time>
      </trkpt>
      <trkpt lat="42.6873150" lon="-0.4940430">
        <ele>1531.4</ele>
        <time>2023-01-14T11:34:46Z</time>
      </trkpt>
      <trkpt lat="42.6873160" lon="-0.4940430">
        <ele>1531.4</ele>
        <time>2023-01-14T11:34:47Z</time>
      </trkpt>
      <trkpt lat="42.6873160" lon="-0.4940420">
        <ele>1531.6</ele>
        <time>2023-01-14T11:34:48Z</time>
      </trkpt>
      <trkpt lat="42.6873170" lon="-0.4940420">
        <ele>1531.4</ele>
        <time>2023-01-14T11:34:49Z</time>
      </trkpt>
      <trkpt lat="42.6873170" lon="-0.4940420">
        <ele>1531.4</ele>
        <time>2023-01-14T11:34:50Z</time>
      </trkpt>
      <trkpt lat="42.6873170" lon="-0.4940420">
        <ele>1531.4</ele>
        <time>2023-01-14T11:34:51Z</time>
      </trkpt>
      <trkpt lat="42.6873170" lon="-0.4940410">
        <ele>1531.4</ele>
        <time>2023-01-14T11:34:52Z</time>
      </trkpt>
      <trkpt lat="42.6873170" lon="-0.4940410">
        <ele>1531.4</ele>
        <time>2023-01-14T11:34:53Z</time>
      </trkpt>
      <trkpt lat="42.6873170" lon="-0.4940410">
        <ele>1531.2</ele>
        <time>2023-01-14T11:34:54Z</time>
      </trkpt>
      <trkpt lat="42.6873170" lon="-0.4940410">
        <ele>1531.2</ele>
        <time>2023-01-14T11:34:55Z</time>
      </trkpt>
      <trkpt lat="42.6873170" lon="-0.4940410">
        <ele>1531.4</ele>
        <time>2023-01-14T11:34:56Z</time>
      </trkpt>
      <trkpt lat="42.6873170" lon="-0.4940410">
        <ele>1531.4</ele>
        <time>2023-01-14T11:34:57Z</time>
      </trkpt>
      <trkpt lat="42.6873170" lon="-0.4940410">
        <ele>1531.4</ele>
        <time>2023-01-14T11:34:58Z</time>
      </trkpt>
      <trkpt lat="42.6873170" lon="-0.4940410">
        <ele>1531.2</ele>
        <time>2023-01-14T11:34:59Z</time>
      </trkpt>
      <trkpt lat="42.6873170" lon="-0.4940410">
        <ele>1531.2</ele>
        <time>2023-01-14T11:35:00Z</time>
      </trkpt>
      <trkpt lat="42.6873170" lon="-0.4940420">
        <ele>1531.2</ele>
        <time>2023-01-14T11:35:01Z</time>
      </trkpt>
      <trkpt lat="42.6873170" lon="-0.4940410">
        <ele>1531.2</ele>
        <time>2023-01-14T11:35:02Z</time>
      </trkpt>
      <trkpt lat="42.6873170" lon="-0.4940420">
        <ele>1531.2</ele>
        <time>2023-01-14T11:35:03Z</time>
      </trkpt>
      <trkpt lat="42.6873160" lon="-0.4940450">
        <ele>1531.2</ele>
        <time>2023-01-14T11:35:04Z</time>
      </trkpt>
      <trkpt lat="42.6873160" lon="-0.4940450">
        <ele>1531.4</ele>
        <time>2023-01-14T11:35:05Z</time>
      </trkpt>
      <trkpt lat="42.6873160" lon="-0.4940460">
        <ele>1531.6</ele>
        <time>2023-01-14T11:35:06Z</time>
      </trkpt>
      <trkpt lat="42.6873160" lon="-0.4940460">
        <ele>1531.4</ele>
        <time>2023-01-14T11:35:07Z</time>
      </trkpt>
      <trkpt lat="42.6873160" lon="-0.4940460">
        <ele>1531.4</ele>
        <time>2023-01-14T11:35:08Z</time>
      </trkpt>
      <trkpt lat="42.6873160" lon="-0.4940470">
        <ele>1531.4</ele>
        <time>2023-01-14T11:35:09Z</time>
      </trkpt>
      <trkpt lat="42.6873160" lon="-0.4940470">
        <ele>1531.4</ele>
        <time>2023-01-14T11:35:10Z</time>
      </trkpt>
      <trkpt lat="42.6873160" lon="-0.4940480">
        <ele>1531.4</ele>
        <time>2023-01-14T11:35:11Z</time>
      </trkpt>
      <trkpt lat="42.6873160" lon="-0.4940480">
        <ele>1531.4</ele>
        <time>2023-01-14T11:35:12Z</time>
      </trkpt>
      <trkpt lat="42.6873160" lon="-0.4940480">
        <ele>1531.4</ele>
        <time>2023-01-14T11:35:13Z</time>
      </trkpt>
      <trkpt lat="42.6873160" lon="-0.4940480">
        <ele>1531.4</ele>
        <time>2023-01-14T11:35:14Z</time>
      </trkpt>
      <trkpt lat="42.6873160" lon="-0.4940480">
        <ele>1531.4</ele>
        <time>2023-01-14T11:35:15Z</time>
      </trkpt>
      <trkpt lat="42.6873160" lon="-0.4940480">
        <ele>1531.4</ele>
        <time>2023-01-14T11:35:16Z</time>
      </trkpt>
      <trkpt lat="42.6873160" lon="-0.4940480">
        <ele>1531.4</ele>
        <time>2023-01-14T11:35:17Z</time>
      </trkpt>
      <trkpt lat="42.6873160" lon="-0.4940480">
        <ele>1531.4</ele>
        <time>2023-01-14T11:35:18Z</time>
      </trkpt>
      <trkpt lat="42.6873160" lon="-0.4940480">
        <ele>1531.4</ele>
        <time>2023-01-14T11:35:19Z</time>
      </trkpt>
      <trkpt lat="42.6873160" lon="-0.4940480">
        <ele>1531.4</ele>
        <time>2023-01-14T11:35:20Z</time>
      </trkpt>
      <trkpt lat="42.6873160" lon="-0.4940490">
        <ele>1531.4</ele>
        <time>2023-01-14T11:35:21Z</time>
      </trkpt>
      <trkpt lat="42.6873160" lon="-0.4940490">
        <ele>1531.4</ele>
        <time>2023-01-14T11:35:22Z</time>
      </trkpt>
      <trkpt lat="42.6873160" lon="-0.4940490">
        <ele>1531.4</ele>
        <time>2023-01-14T11:35:23Z</time>
      </trkpt>
      <trkpt lat="42.6873160" lon="-0.4940490">
        <ele>1531.4</ele>
        <time>2023-01-14T11:35:24Z</time>
      </trkpt>
      <trkpt lat="42.6873170" lon="-0.4940490">
        <ele>1531.4</ele>
        <time>2023-01-14T11:35:25Z</time>
      </trkpt>
      <trkpt lat="42.6873170" lon="-0.4940490">
        <ele>1531.4</ele>
        <time>2023-01-14T11:35:26Z</time>
      </trkpt>
      <trkpt lat="42.6873170" lon="-0.4940490">
        <ele>1531.4</ele>
        <time>2023-01-14T11:35:27Z</time>
      </trkpt>
      <trkpt lat="42.6873170" lon="-0.4940490">
        <ele>1531.4</ele>
        <time>2023-01-14T11:35:28Z</time>
      </trkpt>
      <trkpt lat="42.6873170" lon="-0.4940490">
        <ele>1531.4</ele>
        <time>2023-01-14T11:35:29Z</time>
      </trkpt>
      <trkpt lat="42.6873170" lon="-0.4940490">
        <ele>1531.4</ele>
        <time>2023-01-14T11:35:30Z</time>
      </trkpt>
      <trkpt lat="42.6873170" lon="-0.4940490">
        <ele>1531.4</ele>
        <time>2023-01-14T11:35:31Z</time>
      </trkpt>
      <trkpt lat="42.6873170" lon="-0.4940490">
        <ele>1531.4</ele>
        <time>2023-01-14T11:35:32Z</time>
      </trkpt>
      <trkpt lat="42.6873180" lon="-0.4940490">
        <ele>1531.4</ele>
        <time>2023-01-14T11:35:33Z</time>
      </trkpt>
      <trkpt lat="42.6873180" lon="-0.4940490">
        <ele>1531.4</ele>
        <time>2023-01-14T11:35:34Z</time>
      </trkpt>
      <trkpt lat="42.6873180" lon="-0.4940490">
        <ele>1531.4</ele>
        <time>2023-01-14T11:35:35Z</time>
      </trkpt>
      <trkpt lat="42.6873180" lon="-0.4940480">
        <ele>1531.4</ele>
        <time>2023-01-14T11:35:36Z</time>
      </trkpt>
      <trkpt lat="42.6873180" lon="-0.4940480">
        <ele>1531.4</ele>
        <time>2023-01-14T11:35:37Z</time>
      </trkpt>
      <trkpt lat="42.6873180" lon="-0.4940480">
        <ele>1531.4</ele>
        <time>2023-01-14T11:35:38Z</time>
      </trkpt>
      <trkpt lat="42.6873180" lon="-0.4940480">
        <ele>1531.4</ele>
        <time>2023-01-14T11:35:39Z</time>
      </trkpt>
      <trkpt lat="42.6873180" lon="-0.4940480">
        <ele>1531.4</ele>
        <time>2023-01-14T11:35:40Z</time>
      </trkpt>
      <trkpt lat="42.6873180" lon="-0.4940480">
        <ele>1531.4</ele>
        <time>2023-01-14T11:35:41Z</time>
      </trkpt>
      <trkpt lat="42.6873170" lon="-0.4940480">
        <ele>1531.4</ele>
        <time>2023-01-14T11:35:42Z</time>
      </trkpt>
      <trkpt lat="42.6873170" lon="-0.4940480">
        <ele>1531.4</ele>
        <time>2023-01-14T11:35:43Z</time>
      </trkpt>
      <trkpt lat="42.6873170" lon="-0.4940480">
        <ele>1531.4</ele>
        <time>2023-01-14T11:35:44Z</time>
      </trkpt>
      <trkpt lat="42.6873170" lon="-0.4940480">
        <ele>1531.4</ele>
        <time>2023-01-14T11:35:45Z</time>
      </trkpt>
      <trkpt lat="42.6873170" lon="-0.4940490">
        <ele>1531.4</ele>
        <time>2023-01-14T11:35:46Z</time>
      </trkpt>
      <trkpt lat="42.6873170" lon="-0.4940490">
        <ele>1531.4</ele>
        <time>2023-01-14T11:35:47Z</time>
      </trkpt>
      <trkpt lat="42.6873170" lon="-0.4940490">
        <ele>1531.4</ele>
        <time>2023-01-14T11:35:48Z</time>
      </trkpt>
      <trkpt lat="42.6873160" lon="-0.4940490">
        <ele>1531.4</ele>
        <time>2023-01-14T11:35:49Z</time>
      </trkpt>
      <trkpt lat="42.6873160" lon="-0.4940490">
        <ele>1531.4</ele>
        <time>2023-01-14T11:35:50Z</time>
      </trkpt>
      <trkpt lat="42.6873160" lon="-0.4940490">
        <ele>1531.4</ele>
        <time>2023-01-14T11:35:51Z</time>
      </trkpt>
      <trkpt lat="42.6873160" lon="-0.4940490">
        <ele>1531.4</ele>
        <time>2023-01-14T11:35:52Z</time>
      </trkpt>
      <trkpt lat="42.6873150" lon="-0.4940490">
        <ele>1531.4</ele>
        <time>2023-01-14T11:35:53Z</time>
      </trkpt>
      <trkpt lat="42.6873150" lon="-0.4940480">
        <ele>1531.4</ele>
        <time>2023-01-14T11:35:54Z</time>
      </trkpt>
      <trkpt lat="42.6873150" lon="-0.4940480">
        <ele>1531.4</ele>
        <time>2023-01-14T11:35:55Z</time>
      </trkpt>
      <trkpt lat="42.6873080" lon="-0.4940620">
        <ele>1531.4</ele>
        <time>2023-01-14T11:35:56Z</time>
      </trkpt>
      <trkpt lat="42.6872960" lon="-0.4940850">
        <ele>1531.4</ele>
        <time>2023-01-14T11:35:57Z</time>
      </trkpt>
      <trkpt lat="42.6872820" lon="-0.4941110">
        <ele>1531.4</ele>
        <time>2023-01-14T11:35:58Z</time>
      </trkpt>
      <trkpt lat="42.6872650" lon="-0.4941380">
        <ele>1531.4</ele>
        <time>2023-01-14T11:35:59Z</time>
      </trkpt>
      <trkpt lat="42.6872400" lon="-0.4941590">
        <ele>1531.4</ele>
        <time>2023-01-14T11:36:00Z</time>
      </trkpt>
      <trkpt lat="42.6872110" lon="-0.4941670">
        <ele>1531.2</ele>
        <time>2023-01-14T11:36:01Z</time>
      </trkpt>
      <trkpt lat="42.6871880" lon="-0.4941610">
        <ele>1531.2</ele>
        <time>2023-01-14T11:36:02Z</time>
      </trkpt>
      <trkpt lat="42.6871770" lon="-0.4941450">
        <ele>1531.0</ele>
        <time>2023-01-14T11:36:03Z</time>
      </trkpt>
      <trkpt lat="42.6871710" lon="-0.4941300">
        <ele>1531.0</ele>
        <time>2023-01-14T11:36:04Z</time>
      </trkpt>
      <trkpt lat="42.6871600" lon="-0.4941150">
        <ele>1530.8</ele>
        <time>2023-01-14T11:36:05Z</time>
      </trkpt>
      <trkpt lat="42.6871440" lon="-0.4941080">
        <ele>1530.0</ele>
        <time>2023-01-14T11:36:06Z</time>
      </trkpt>
      <trkpt lat="42.6871260" lon="-0.4941200">
        <ele>1529.2</ele>
        <time>2023-01-14T11:36:07Z</time>
      </trkpt>
      <trkpt lat="42.6871050" lon="-0.4941320">
        <ele>1528.4</ele>
        <time>2023-01-14T11:36:08Z</time>
      </trkpt>
      <trkpt lat="42.6870800" lon="-0.4941300">
        <ele>1527.4</ele>
        <time>2023-01-14T11:36:09Z</time>
      </trkpt>
      <trkpt lat="42.6870520" lon="-0.4941240">
        <ele>1526.2</ele>
        <time>2023-01-14T11:36:10Z</time>
      </trkpt>
      <trkpt lat="42.6870280" lon="-0.4941070">
        <ele>1525.0</ele>
        <time>2023-01-14T11:36:11Z</time>
      </trkpt>
      <trkpt lat="42.6870060" lon="-0.4940990">
        <ele>1523.6</ele>
        <time>2023-01-14T11:36:12Z</time>
      </trkpt>
      <trkpt lat="42.6870030" lon="-0.4941120">
        <ele>1522.6</ele>
        <time>2023-01-14T11:36:13Z</time>
      </trkpt>
      <trkpt lat="42.6870010" lon="-0.4941370">
        <ele>1521.2</ele>
        <time>2023-01-14T11:36:14Z</time>
      </trkpt>
      <trkpt lat="42.6869830" lon="-0.4941740">
        <ele>1520.2</ele>
        <time>2023-01-14T11:36:15Z</time>
      </trkpt>
      <trkpt lat="42.6869610" lon="-0.4942080">
        <ele>1519.2</ele>
        <time>2023-01-14T11:36:16Z</time>
      </trkpt>
      <trkpt lat="42.6869310" lon="-0.4942400">
        <ele>1518.2</ele>
        <time>2023-01-14T11:36:17Z</time>
      </trkpt>
      <trkpt lat="42.6868940" lon="-0.4942640">
        <ele>1517.0</ele>
        <time>2023-01-14T11:36:18Z</time>
      </trkpt>
      <trkpt lat="42.6868580" lon="-0.4942980">
        <ele>1515.6</ele>
        <time>2023-01-14T11:36:19Z</time>
      </trkpt>
      <trkpt lat="42.6868210" lon="-0.4943360">
        <ele>1515.0</ele>
        <time>2023-01-14T11:36:20Z</time>
      </trkpt>
      <trkpt lat="42.6867790" lon="-0.4943690">
        <ele>1514.0</ele>
        <time>2023-01-14T11:36:21Z</time>
      </trkpt>
      <trkpt lat="42.6867390" lon="-0.4943910">
        <ele>1512.4</ele>
        <time>2023-01-14T11:36:22Z</time>
      </trkpt>
      <trkpt lat="42.6867150" lon="-0.4944230">
        <ele>1510.8</ele>
        <time>2023-01-14T11:36:23Z</time>
      </trkpt>
      <trkpt lat="42.6866980" lon="-0.4944640">
        <ele>1509.2</ele>
        <time>2023-01-14T11:36:24Z</time>
      </trkpt>
      <trkpt lat="42.6866770" lon="-0.4945120">
        <ele>1508.0</ele>
        <time>2023-01-14T11:36:25Z</time>
      </trkpt>
      <trkpt lat="42.6866610" lon="-0.4945830">
        <ele>1505.6</ele>
        <time>2023-01-14T11:36:26Z</time>
      </trkpt>
      <trkpt lat="42.6866500" lon="-0.4946460">
        <ele>1504.0</ele>
        <time>2023-01-14T11:36:27Z</time>
      </trkpt>
      <trkpt lat="42.6866370" lon="-0.4947140">
        <ele>1502.8</ele>
        <time>2023-01-14T11:36:28Z</time>
      </trkpt>
      <trkpt lat="42.6866210" lon="-0.4947550">
        <ele>1501.8</ele>
        <time>2023-01-14T11:36:29Z</time>
      </trkpt>
      <trkpt lat="42.6865950" lon="-0.4947820">
        <ele>1501.2</ele>
        <time>2023-01-14T11:36:30Z</time>
      </trkpt>
      <trkpt lat="42.6865630" lon="-0.4948020">
        <ele>1500.6</ele>
        <time>2023-01-14T11:36:31Z</time>
      </trkpt>
      <trkpt lat="42.6865320" lon="-0.4948090">
        <ele>1500.4</ele>
        <time>2023-01-14T11:36:32Z</time>
      </trkpt>
      <trkpt lat="42.6865030" lon="-0.4948120">
        <ele>1500.2</ele>
        <time>2023-01-14T11:36:33Z</time>
      </trkpt>
      <trkpt lat="42.6864630" lon="-0.4948130">
        <ele>1500.0</ele>
        <time>2023-01-14T11:36:34Z</time>
      </trkpt>
      <trkpt lat="42.6864270" lon="-0.4948060">
        <ele>1499.2</ele>
        <time>2023-01-14T11:36:35Z</time>
      </trkpt>
      <trkpt lat="42.6863810" lon="-0.4947890">
        <ele>1498.2</ele>
        <time>2023-01-14T11:36:36Z</time>
      </trkpt>
      <trkpt lat="42.6863210" lon="-0.4947830">
        <ele>1497.4</ele>
        <time>2023-01-14T11:36:37Z</time>
      </trkpt>
      <trkpt lat="42.6862740" lon="-0.4947990">
        <ele>1496.2</ele>
        <time>2023-01-14T11:36:38Z</time>
      </trkpt>
      <trkpt lat="42.6862180" lon="-0.4947930">
        <ele>1495.2</ele>
        <time>2023-01-14T11:36:39Z</time>
      </trkpt>
      <trkpt lat="42.6861660" lon="-0.4947820">
        <ele>1494.4</ele>
        <time>2023-01-14T11:36:40Z</time>
      </trkpt>
      <trkpt lat="42.6861040" lon="-0.4947600">
        <ele>1494.0</ele>
        <time>2023-01-14T11:36:41Z</time>
      </trkpt>
      <trkpt lat="42.6860280" lon="-0.4947390">
        <ele>1493.2</ele>
        <time>2023-01-14T11:36:42Z</time>
      </trkpt>
      <trkpt lat="42.6859490" lon="-0.4947250">
        <ele>1492.8</ele>
        <time>2023-01-14T11:36:43Z</time>
      </trkpt>
      <trkpt lat="42.6858700" lon="-0.4947120">
        <ele>1491.4</ele>
        <time>2023-01-14T11:36:44Z</time>
      </trkpt>
      <trkpt lat="42.6857890" lon="-0.4947140">
        <ele>1490.4</ele>
        <time>2023-01-14T11:36:45Z</time>
      </trkpt>
      <trkpt lat="42.6857130" lon="-0.4947520">
        <ele>1489.2</ele>
        <time>2023-01-14T11:36:46Z</time>
      </trkpt>
      <trkpt lat="42.6856610" lon="-0.4948010">
        <ele>1487.0</ele>
        <time>2023-01-14T11:36:47Z</time>
      </trkpt>
      <trkpt lat="42.6856140" lon="-0.4948680">
        <ele>1485.2</ele>
        <time>2023-01-14T11:36:48Z</time>
      </trkpt>
      <trkpt lat="42.6855770" lon="-0.4949330">
        <ele>1484.4</ele>
        <time>2023-01-14T11:36:49Z</time>
      </trkpt>
      <trkpt lat="42.6855450" lon="-0.4949920">
        <ele>1481.8</ele>
        <time>2023-01-14T11:36:50Z</time>
      </trkpt>
      <trkpt lat="42.6855160" lon="-0.4950430">
        <ele>1480.2</ele>
        <time>2023-01-14T11:36:51Z</time>
      </trkpt>
      <trkpt lat="42.6854880" lon="-0.4950900">
        <ele>1478.6</ele>
        <time>2023-01-14T11:36:52Z</time>
      </trkpt>
      <trkpt lat="42.6854710" lon="-0.4951330">
        <ele>1477.0</ele>
        <time>2023-01-14T11:36:53Z</time>
      </trkpt>
      <trkpt lat="42.6854510" lon="-0.4951820">
        <ele>1474.8</ele>
        <time>2023-01-14T11:36:54Z</time>
      </trkpt>
      <trkpt lat="42.6854280" lon="-0.4952260">
        <ele>1473.6</ele>
        <time>2023-01-14T11:36:55Z</time>
      </trkpt>
      <trkpt lat="42.6854050" lon="-0.4952770">
        <ele>1472.8</ele>
        <time>2023-01-14T11:36:56Z</time>
      </trkpt>
      <trkpt lat="42.6853720" lon="-0.4953070">
        <ele>1471.2</ele>
        <time>2023-01-14T11:36:57Z</time>
      </trkpt>
      <trkpt lat="42.6853570" lon="-0.4953150">
        <ele>1470.4</ele>
        <time>2023-01-14T11:36:58Z</time>
      </trkpt>
      <trkpt lat="42.6853390" lon="-0.4953180">
        <ele>1469.6</ele>
        <time>2023-01-14T11:36:59Z</time>
      </trkpt>
      <trkpt lat="42.6853310" lon="-0.4953030">
        <ele>1468.0</ele>
        <time>2023-01-14T11:37:00Z</time>
      </trkpt>
      <trkpt lat="42.6853190" lon="-0.4952770">
        <ele>1467.0</ele>
        <time>2023-01-14T11:37:01Z</time>
      </trkpt>
      <trkpt lat="42.6853040" lon="-0.4952520">
        <ele>1466.4</ele>
        <time>2023-01-14T11:37:02Z</time>
      </trkpt>
      <trkpt lat="42.6852960" lon="-0.4952180">
        <ele>1465.6</ele>
        <time>2023-01-14T11:37:03Z</time>
      </trkpt>
      <trkpt lat="42.6852840" lon="-0.4951830">
        <ele>1464.4</ele>
        <time>2023-01-14T11:37:04Z</time>
      </trkpt>
      <trkpt lat="42.6852690" lon="-0.4951430">
        <ele>1463.6</ele>
        <time>2023-01-14T11:37:05Z</time>
      </trkpt>
      <trkpt lat="42.6852350" lon="-0.4950910">
        <ele>1462.0</ele>
        <time>2023-01-14T11:37:06Z</time>
      </trkpt>
      <trkpt lat="42.6852150" lon="-0.4950680">
        <ele>1461.0</ele>
        <time>2023-01-14T11:37:07Z</time>
      </trkpt>
      <trkpt lat="42.6852020" lon="-0.4950680">
        <ele>1459.6</ele>
        <time>2023-01-14T11:37:08Z</time>
      </trkpt>
      <trkpt lat="42.6851860" lon="-0.4950810">
        <ele>1458.8</ele>
        <time>2023-01-14T11:37:09Z</time>
      </trkpt>
      <trkpt lat="42.6851740" lon="-0.4951140">
        <ele>1458.0</ele>
        <time>2023-01-14T11:37:10Z</time>
      </trkpt>
      <trkpt lat="42.6851570" lon="-0.4951550">
        <ele>1457.0</ele>
        <time>2023-01-14T11:37:11Z</time>
      </trkpt>
      <trkpt lat="42.6851340" lon="-0.4951780">
        <ele>1455.6</ele>
        <time>2023-01-14T11:37:12Z</time>
      </trkpt>
      <trkpt lat="42.6851110" lon="-0.4951880">
        <ele>1454.8</ele>
        <time>2023-01-14T11:37:13Z</time>
      </trkpt>
      <trkpt lat="42.6850900" lon="-0.4951880">
        <ele>1453.0</ele>
        <time>2023-01-14T11:37:14Z</time>
      </trkpt>
      <trkpt lat="42.6850730" lon="-0.4951630">
        <ele>1452.0</ele>
        <time>2023-01-14T11:37:15Z</time>
      </trkpt>
      <trkpt lat="42.6850550" lon="-0.4951350">
        <ele>1451.4</ele>
        <time>2023-01-14T11:37:16Z</time>
      </trkpt>
      <trkpt lat="42.6850410" lon="-0.4951230">
        <ele>1450.8</ele>
        <time>2023-01-14T11:37:17Z</time>
      </trkpt>
      <trkpt lat="42.6850290" lon="-0.4951290">
        <ele>1450.0</ele>
        <time>2023-01-14T11:37:18Z</time>
      </trkpt>
      <trkpt lat="42.6850130" lon="-0.4951490">
        <ele>1449.0</ele>
        <time>2023-01-14T11:37:19Z</time>
      </trkpt>
      <trkpt lat="42.6849940" lon="-0.4951880">
        <ele>1448.4</ele>
        <time>2023-01-14T11:37:20Z</time>
      </trkpt>
      <trkpt lat="42.6849840" lon="-0.4952300">
        <ele>1447.8</ele>
        <time>2023-01-14T11:37:21Z</time>
      </trkpt>
      <trkpt lat="42.6849780" lon="-0.4952810">
        <ele>1446.8</ele>
        <time>2023-01-14T11:37:22Z</time>
      </trkpt>
      <trkpt lat="42.6849580" lon="-0.4953440">
        <ele>1446.0</ele>
        <time>2023-01-14T11:37:23Z</time>
      </trkpt>
      <trkpt lat="42.6849460" lon="-0.4954000">
        <ele>1445.0</ele>
        <time>2023-01-14T11:37:24Z</time>
      </trkpt>
      <trkpt lat="42.6849260" lon="-0.4954450">
        <ele>1443.2</ele>
        <time>2023-01-14T11:37:25Z</time>
      </trkpt>
      <trkpt lat="42.6848980" lon="-0.4954620">
        <ele>1442.0</ele>
        <time>2023-01-14T11:37:26Z</time>
      </trkpt>
      <trkpt lat="42.6848620" lon="-0.4954610">
        <ele>1440.8</ele>
        <time>2023-01-14T11:37:27Z</time>
      </trkpt>
      <trkpt lat="42.6848350" lon="-0.4954650">
        <ele>1439.4</ele>
        <time>2023-01-14T11:37:28Z</time>
      </trkpt>
      <trkpt lat="42.6848230" lon="-0.4954850">
        <ele>1438.2</ele>
        <time>2023-01-14T11:37:29Z</time>
      </trkpt>
      <trkpt lat="42.6848180" lon="-0.4955090">
        <ele>1437.4</ele>
        <time>2023-01-14T11:37:30Z</time>
      </trkpt>
      <trkpt lat="42.6848220" lon="-0.4955280">
        <ele>1436.2</ele>
        <time>2023-01-14T11:37:31Z</time>
      </trkpt>
      <trkpt lat="42.6848070" lon="-0.4955630">
        <ele>1435.0</ele>
        <time>2023-01-14T11:37:32Z</time>
      </trkpt>
      <trkpt lat="42.6847790" lon="-0.4956270">
        <ele>1434.2</ele>
        <time>2023-01-14T11:37:33Z</time>
      </trkpt>
      <trkpt lat="42.6847450" lon="-0.4956420">
        <ele>1433.6</ele>
        <time>2023-01-14T11:37:34Z</time>
      </trkpt>
      <trkpt lat="42.6847000" lon="-0.4956380">
        <ele>1433.2</ele>
        <time>2023-01-14T11:37:35Z</time>
      </trkpt>
      <trkpt lat="42.6846630" lon="-0.4956460">
        <ele>1432.8</ele>
        <time>2023-01-14T11:37:36Z</time>
      </trkpt>
      <trkpt lat="42.6846370" lon="-0.4956700">
        <ele>1431.8</ele>
        <time>2023-01-14T11:37:37Z</time>
      </trkpt>
      <trkpt lat="42.6846220" lon="-0.4956940">
        <ele>1430.8</ele>
        <time>2023-01-14T11:37:38Z</time>
      </trkpt>
      <trkpt lat="42.6846040" lon="-0.4957240">
        <ele>1429.8</ele>
        <time>2023-01-14T11:37:39Z</time>
      </trkpt>
      <trkpt lat="42.6845860" lon="-0.4957530">
        <ele>1429.2</ele>
        <time>2023-01-14T11:37:40Z</time>
      </trkpt>
      <trkpt lat="42.6845690" lon="-0.4957840">
        <ele>1428.2</ele>
        <time>2023-01-14T11:37:41Z</time>
      </trkpt>
      <trkpt lat="42.6845490" lon="-0.4958030">
        <ele>1427.0</ele>
        <time>2023-01-14T11:37:42Z</time>
      </trkpt>
      <trkpt lat="42.6845330" lon="-0.4958310">
        <ele>1425.6</ele>
        <time>2023-01-14T11:37:43Z</time>
      </trkpt>
      <trkpt lat="42.6845170" lon="-0.4958660">
        <ele>1424.8</ele>
        <time>2023-01-14T11:37:44Z</time>
      </trkpt>
      <trkpt lat="42.6845050" lon="-0.4959100">
        <ele>1424.2</ele>
        <time>2023-01-14T11:37:45Z</time>
      </trkpt>
      <trkpt lat="42.6844980" lon="-0.4959500">
        <ele>1423.8</ele>
        <time>2023-01-14T11:37:46Z</time>
      </trkpt>
      <trkpt lat="42.6844900" lon="-0.4959850">
        <ele>1423.4</ele>
        <time>2023-01-14T11:37:47Z</time>
      </trkpt>
      <trkpt lat="42.6844850" lon="-0.4960280">
        <ele>1422.2</ele>
        <time>2023-01-14T11:37:48Z</time>
      </trkpt>
      <trkpt lat="42.6844720" lon="-0.4961100">
        <ele>1421.4</ele>
        <time>2023-01-14T11:37:49Z</time>
      </trkpt>
      <trkpt lat="42.6844550" lon="-0.4961520">
        <ele>1420.6</ele>
        <time>2023-01-14T11:37:50Z</time>
      </trkpt>
      <trkpt lat="42.6844400" lon="-0.4962080">
        <ele>1420.2</ele>
        <time>2023-01-14T11:37:51Z</time>
      </trkpt>
      <trkpt lat="42.6844330" lon="-0.4962470">
        <ele>1420.0</ele>
        <time>2023-01-14T11:37:52Z</time>
      </trkpt>
      <trkpt lat="42.6844140" lon="-0.4963410">
        <ele>1419.2</ele>
        <time>2023-01-14T11:37:53Z</time>
      </trkpt>
      <trkpt lat="42.6843840" lon="-0.4964080">
        <ele>1418.0</ele>
        <time>2023-01-14T11:37:54Z</time>
      </trkpt>
      <trkpt lat="42.6843470" lon="-0.4964430">
        <ele>1417.4</ele>
        <time>2023-01-14T11:37:55Z</time>
      </trkpt>
      <trkpt lat="42.6843060" lon="-0.4965150">
        <ele>1416.8</ele>
        <time>2023-01-14T11:37:56Z</time>
      </trkpt>
      <trkpt lat="42.6842700" lon="-0.4965630">
        <ele>1416.2</ele>
        <time>2023-01-14T11:37:57Z</time>
      </trkpt>
      <trkpt lat="42.6842350" lon="-0.4966180">
        <ele>1415.0</ele>
        <time>2023-01-14T11:37:58Z</time>
      </trkpt>
      <trkpt lat="42.6841950" lon="-0.4966700">
        <ele>1414.2</ele>
        <time>2023-01-14T11:37:59Z</time>
      </trkpt>
      <trkpt lat="42.6841570" lon="-0.4967520">
        <ele>1413.2</ele>
        <time>2023-01-14T11:38:00Z</time>
      </trkpt>
      <trkpt lat="42.6841130" lon="-0.4968420">
        <ele>1411.4</ele>
        <time>2023-01-14T11:38:01Z</time>
      </trkpt>
      <trkpt lat="42.6840720" lon="-0.4969260">
        <ele>1410.2</ele>
        <time>2023-01-14T11:38:02Z</time>
      </trkpt>
      <trkpt lat="42.6840300" lon="-0.4969630">
        <ele>1409.4</ele>
        <time>2023-01-14T11:38:03Z</time>
      </trkpt>
      <trkpt lat="42.6839800" lon="-0.4969740">
        <ele>1407.6</ele>
        <time>2023-01-14T11:38:04Z</time>
      </trkpt>
      <trkpt lat="42.6839230" lon="-0.4969660">
        <ele>1406.6</ele>
        <time>2023-01-14T11:38:05Z</time>
      </trkpt>
      <trkpt lat="42.6838850" lon="-0.4969430">
        <ele>1406.2</ele>
        <time>2023-01-14T11:38:06Z</time>
      </trkpt>
      <trkpt lat="42.6838450" lon="-0.4969370">
        <ele>1405.2</ele>
        <time>2023-01-14T11:38:07Z</time>
      </trkpt>
      <trkpt lat="42.6838140" lon="-0.4969320">
        <ele>1404.0</ele>
        <time>2023-01-14T11:38:08Z</time>
      </trkpt>
      <trkpt lat="42.6837920" lon="-0.4969310">
        <ele>1403.4</ele>
        <time>2023-01-14T11:38:09Z</time>
      </trkpt>
      <trkpt lat="42.6837610" lon="-0.4969320">
        <ele>1402.4</ele>
        <time>2023-01-14T11:38:10Z</time>
      </trkpt>
      <trkpt lat="42.6837330" lon="-0.4969500">
        <ele>1402.0</ele>
        <time>2023-01-14T11:38:11Z</time>
      </trkpt>
      <trkpt lat="42.6836980" lon="-0.4969780">
        <ele>1400.2</ele>
        <time>2023-01-14T11:38:12Z</time>
      </trkpt>
      <trkpt lat="42.6836630" lon="-0.4970120">
        <ele>1399.2</ele>
        <time>2023-01-14T11:38:13Z</time>
      </trkpt>
      <trkpt lat="42.6836400" lon="-0.4970530">
        <ele>1398.2</ele>
        <time>2023-01-14T11:38:14Z</time>
      </trkpt>
      <trkpt lat="42.6836200" lon="-0.4970820">
        <ele>1397.0</ele>
        <time>2023-01-14T11:38:15Z</time>
      </trkpt>
      <trkpt lat="42.6835970" lon="-0.4971110">
        <ele>1395.6</ele>
        <time>2023-01-14T11:38:16Z</time>
      </trkpt>
      <trkpt lat="42.6835650" lon="-0.4971080">
        <ele>1394.8</ele>
        <time>2023-01-14T11:38:17Z</time>
      </trkpt>
      <trkpt lat="42.6835320" lon="-0.4971220">
        <ele>1393.6</ele>
        <time>2023-01-14T11:38:18Z</time>
      </trkpt>
      <trkpt lat="42.6834940" lon="-0.4971540">
        <ele>1392.8</ele>
        <time>2023-01-14T11:38:19Z</time>
      </trkpt>
      <trkpt lat="42.6834620" lon="-0.4972020">
        <ele>1391.6</ele>
        <time>2023-01-14T11:38:20Z</time>
      </trkpt>
      <trkpt lat="42.6834340" lon="-0.4972600">
        <ele>1390.8</ele>
        <time>2023-01-14T11:38:21Z</time>
      </trkpt>
      <trkpt lat="42.6834180" lon="-0.4973220">
        <ele>1389.6</ele>
        <time>2023-01-14T11:38:22Z</time>
      </trkpt>
      <trkpt lat="42.6834020" lon="-0.4973690">
        <ele>1388.6</ele>
        <time>2023-01-14T11:38:23Z</time>
      </trkpt>
      <trkpt lat="42.6833850" lon="-0.4973970">
        <ele>1387.4</ele>
        <time>2023-01-14T11:38:24Z</time>
      </trkpt>
      <trkpt lat="42.6833630" lon="-0.4974030">
        <ele>1386.8</ele>
        <time>2023-01-14T11:38:25Z</time>
      </trkpt>
      <trkpt lat="42.6833390" lon="-0.4973980">
        <ele>1386.0</ele>
        <time>2023-01-14T11:38:26Z</time>
      </trkpt>
      <trkpt lat="42.6833160" lon="-0.4974110">
        <ele>1385.6</ele>
        <time>2023-01-14T11:38:27Z</time>
      </trkpt>
      <trkpt lat="42.6832970" lon="-0.4974320">
        <ele>1384.6</ele>
        <time>2023-01-14T11:38:28Z</time>
      </trkpt>
      <trkpt lat="42.6832810" lon="-0.4974630">
        <ele>1383.4</ele>
        <time>2023-01-14T11:38:29Z</time>
      </trkpt>
      <trkpt lat="42.6832620" lon="-0.4974950">
        <ele>1382.0</ele>
        <time>2023-01-14T11:38:30Z</time>
      </trkpt>
      <trkpt lat="42.6832430" lon="-0.4975060">
        <ele>1380.8</ele>
        <time>2023-01-14T11:38:31Z</time>
      </trkpt>
      <trkpt lat="42.6832280" lon="-0.4975020">
        <ele>1380.2</ele>
        <time>2023-01-14T11:38:32Z</time>
      </trkpt>
      <trkpt lat="42.6832090" lon="-0.4974940">
        <ele>1379.6</ele>
        <time>2023-01-14T11:38:33Z</time>
      </trkpt>
      <trkpt lat="42.6831800" lon="-0.4974830">
        <ele>1378.4</ele>
        <time>2023-01-14T11:38:34Z</time>
      </trkpt>
      <trkpt lat="42.6831580" lon="-0.4974970">
        <ele>1377.8</ele>
        <time>2023-01-14T11:38:35Z</time>
      </trkpt>
      <trkpt lat="42.6831430" lon="-0.4975320">
        <ele>1376.8</ele>
        <time>2023-01-14T11:38:36Z</time>
      </trkpt>
      <trkpt lat="42.6831270" lon="-0.4975800">
        <ele>1376.0</ele>
        <time>2023-01-14T11:38:37Z</time>
      </trkpt>
      <trkpt lat="42.6831080" lon="-0.4976190">
        <ele>1375.2</ele>
        <time>2023-01-14T11:38:38Z</time>
      </trkpt>
      <trkpt lat="42.6830870" lon="-0.4976510">
        <ele>1374.4</ele>
        <time>2023-01-14T11:38:39Z</time>
      </trkpt>
      <trkpt lat="42.6830640" lon="-0.4976770">
        <ele>1373.6</ele>
        <time>2023-01-14T11:38:40Z</time>
      </trkpt>
      <trkpt lat="42.6830440" lon="-0.4977000">
        <ele>1372.8</ele>
        <time>2023-01-14T11:38:41Z</time>
      </trkpt>
      <trkpt lat="42.6830240" lon="-0.4977270">
        <ele>1371.6</ele>
        <time>2023-01-14T11:38:42Z</time>
      </trkpt>
      <trkpt lat="42.6829950" lon="-0.4977570">
        <ele>1370.4</ele>
        <time>2023-01-14T11:38:43Z</time>
      </trkpt>
      <trkpt lat="42.6829600" lon="-0.4977800">
        <ele>1369.0</ele>
        <time>2023-01-14T11:38:44Z</time>
      </trkpt>
      <trkpt lat="42.6829240" lon="-0.4977890">
        <ele>1367.8</ele>
        <time>2023-01-14T11:38:45Z</time>
      </trkpt>
      <trkpt lat="42.6828870" lon="-0.4978010">
        <ele>1366.2</ele>
        <time>2023-01-14T11:38:46Z</time>
      </trkpt>
      <trkpt lat="42.6828560" lon="-0.4977930">
        <ele>1365.4</ele>
        <time>2023-01-14T11:38:47Z</time>
      </trkpt>
      <trkpt lat="42.6828310" lon="-0.4977820">
        <ele>1364.2</ele>
        <time>2023-01-14T11:38:48Z</time>
      </trkpt>
      <trkpt lat="42.6828140" lon="-0.4977920">
        <ele>1363.0</ele>
        <time>2023-01-14T11:38:49Z</time>
      </trkpt>
      <trkpt lat="42.6828050" lon="-0.4978130">
        <ele>1361.2</ele>
        <time>2023-01-14T11:38:50Z</time>
      </trkpt>
      <trkpt lat="42.6827980" lon="-0.4978470">
        <ele>1360.2</ele>
        <time>2023-01-14T11:38:51Z</time>
      </trkpt>
      <trkpt lat="42.6827960" lon="-0.4978840">
        <ele>1359.4</ele>
        <time>2023-01-14T11:38:52Z</time>
      </trkpt>
      <trkpt lat="42.6827870" lon="-0.4979180">
        <ele>1358.8</ele>
        <time>2023-01-14T11:38:53Z</time>
      </trkpt>
      <trkpt lat="42.6827600" lon="-0.4979490">
        <ele>1358.4</ele>
        <time>2023-01-14T11:38:54Z</time>
      </trkpt>
      <trkpt lat="42.6827240" lon="-0.4979740">
        <ele>1357.6</ele>
        <time>2023-01-14T11:38:55Z</time>
      </trkpt>
      <trkpt lat="42.6826870" lon="-0.4980030">
        <ele>1356.4</ele>
        <time>2023-01-14T11:38:56Z</time>
      </trkpt>
      <trkpt lat="42.6826560" lon="-0.4980390">
        <ele>1355.2</ele>
        <time>2023-01-14T11:38:57Z</time>
      </trkpt>
      <trkpt lat="42.6826420" lon="-0.4980860">
        <ele>1354.0</ele>
        <time>2023-01-14T11:38:58Z</time>
      </trkpt>
      <trkpt lat="42.6826350" lon="-0.4981370">
        <ele>1352.6</ele>
        <time>2023-01-14T11:38:59Z</time>
      </trkpt>
      <trkpt lat="42.6826190" lon="-0.4981720">
        <ele>1351.4</ele>
        <time>2023-01-14T11:39:00Z</time>
      </trkpt>
      <trkpt lat="42.6825920" lon="-0.4981910">
        <ele>1349.8</ele>
        <time>2023-01-14T11:39:01Z</time>
      </trkpt>
      <trkpt lat="42.6825610" lon="-0.4981950">
        <ele>1348.8</ele>
        <time>2023-01-14T11:39:02Z</time>
      </trkpt>
      <trkpt lat="42.6825360" lon="-0.4982080">
        <ele>1347.8</ele>
        <time>2023-01-14T11:39:03Z</time>
      </trkpt>
      <trkpt lat="42.6825110" lon="-0.4982220">
        <ele>1346.8</ele>
        <time>2023-01-14T11:39:04Z</time>
      </trkpt>
      <trkpt lat="42.6824820" lon="-0.4982230">
        <ele>1345.8</ele>
        <time>2023-01-14T11:39:05Z</time>
      </trkpt>
      <trkpt lat="42.6824520" lon="-0.4982350">
        <ele>1344.4</ele>
        <time>2023-01-14T11:39:06Z</time>
      </trkpt>
      <trkpt lat="42.6824330" lon="-0.4982570">
        <ele>1343.6</ele>
        <time>2023-01-14T11:39:07Z</time>
      </trkpt>
      <trkpt lat="42.6824100" lon="-0.4982950">
        <ele>1343.2</ele>
        <time>2023-01-14T11:39:08Z</time>
      </trkpt>
      <trkpt lat="42.6823920" lon="-0.4983310">
        <ele>1342.6</ele>
        <time>2023-01-14T11:39:09Z</time>
      </trkpt>
      <trkpt lat="42.6823770" lon="-0.4983640">
        <ele>1342.2</ele>
        <time>2023-01-14T11:39:10Z</time>
      </trkpt>
      <trkpt lat="42.6823590" lon="-0.4984030">
        <ele>1341.6</ele>
        <time>2023-01-14T11:39:11Z</time>
      </trkpt>
      <trkpt lat="42.6823450" lon="-0.4984480">
        <ele>1341.0</ele>
        <time>2023-01-14T11:39:12Z</time>
      </trkpt>
      <trkpt lat="42.6823380" lon="-0.4985010">
        <ele>1340.6</ele>
        <time>2023-01-14T11:39:13Z</time>
      </trkpt>
      <trkpt lat="42.6823380" lon="-0.4985670">
        <ele>1339.8</ele>
        <time>2023-01-14T11:39:14Z</time>
      </trkpt>
      <trkpt lat="42.6823260" lon="-0.4986350">
        <ele>1339.2</ele>
        <time>2023-01-14T11:39:15Z</time>
      </trkpt>
      <trkpt lat="42.6823090" lon="-0.4987180">
        <ele>1338.2</ele>
        <time>2023-01-14T11:39:16Z</time>
      </trkpt>
      <trkpt lat="42.6822910" lon="-0.4988170">
        <ele>1337.0</ele>
        <time>2023-01-14T11:39:17Z</time>
      </trkpt>
      <trkpt lat="42.6822700" lon="-0.4989270">
        <ele>1336.0</ele>
        <time>2023-01-14T11:39:18Z</time>
      </trkpt>
      <trkpt lat="42.6822370" lon="-0.4990430">
        <ele>1335.0</ele>
        <time>2023-01-14T11:39:19Z</time>
      </trkpt>
      <trkpt lat="42.6821940" lon="-0.4991600">
        <ele>1334.0</ele>
        <time>2023-01-14T11:39:20Z</time>
      </trkpt>
      <trkpt lat="42.6821660" lon="-0.4992650">
        <ele>1332.4</ele>
        <time>2023-01-14T11:39:21Z</time>
      </trkpt>
      <trkpt lat="42.6821250" lon="-0.4993720">
        <ele>1330.8</ele>
        <time>2023-01-14T11:39:22Z</time>
      </trkpt>
      <trkpt lat="42.6820930" lon="-0.4994680">
        <ele>1329.4</ele>
        <time>2023-01-14T11:39:23Z</time>
      </trkpt>
      <trkpt lat="42.6820660" lon="-0.4995750">
        <ele>1328.6</ele>
        <time>2023-01-14T11:39:24Z</time>
      </trkpt>
      <trkpt lat="42.6820460" lon="-0.4996990">
        <ele>1328.0</ele>
        <time>2023-01-14T11:39:25Z</time>
      </trkpt>
      <trkpt lat="42.6820530" lon="-0.4997480">
        <ele>1325.8</ele>
        <time>2023-01-14T11:39:26Z</time>
      </trkpt>
      <trkpt lat="42.6820590" lon="-0.4997960">
        <ele>1324.6</ele>
        <time>2023-01-14T11:39:27Z</time>
      </trkpt>
      <trkpt lat="42.6820870" lon="-0.4998880">
        <ele>1323.8</ele>
        <time>2023-01-14T11:39:28Z</time>
      </trkpt>
      <trkpt lat="42.6821060" lon="-0.5000000">
        <ele>1322.6</ele>
        <time>2023-01-14T11:39:29Z</time>
      </trkpt>
      <trkpt lat="42.6821260" lon="-0.5001140">
        <ele>1321.8</ele>
        <time>2023-01-14T11:39:30Z</time>
      </trkpt>
      <trkpt lat="42.6821440" lon="-0.5002120">
        <ele>1321.4</ele>
        <time>2023-01-14T11:39:31Z</time>
      </trkpt>
      <trkpt lat="42.6821630" lon="-0.5002990">
        <ele>1321.2</ele>
        <time>2023-01-14T11:39:32Z</time>
      </trkpt>
      <trkpt lat="42.6821820" lon="-0.5004020">
        <ele>1320.2</ele>
        <time>2023-01-14T11:39:33Z</time>
      </trkpt>
      <trkpt lat="42.6821920" lon="-0.5005220">
        <ele>1319.6</ele>
        <time>2023-01-14T11:39:34Z</time>
      </trkpt>
      <trkpt lat="42.6821940" lon="-0.5006460">
        <ele>1318.8</ele>
        <time>2023-01-14T11:39:35Z</time>
      </trkpt>
      <trkpt lat="42.6821970" lon="-0.5007530">
        <ele>1318.0</ele>
        <time>2023-01-14T11:39:36Z</time>
      </trkpt>
      <trkpt lat="42.6821980" lon="-0.5008630">
        <ele>1317.4</ele>
        <time>2023-01-14T11:39:37Z</time>
      </trkpt>
      <trkpt lat="42.6822060" lon="-0.5009710">
        <ele>1316.8</ele>
        <time>2023-01-14T11:39:38Z</time>
      </trkpt>
      <trkpt lat="42.6822250" lon="-0.5010680">
        <ele>1315.4</ele>
        <time>2023-01-14T11:39:39Z</time>
      </trkpt>
      <trkpt lat="42.6822420" lon="-0.5011470">
        <ele>1314.4</ele>
        <time>2023-01-14T11:39:40Z</time>
      </trkpt>
      <trkpt lat="42.6822430" lon="-0.5011950">
        <ele>1312.6</ele>
        <time>2023-01-14T11:39:41Z</time>
      </trkpt>
      <trkpt lat="42.6822310" lon="-0.5012240">
        <ele>1311.4</ele>
        <time>2023-01-14T11:39:42Z</time>
      </trkpt>
      <trkpt lat="42.6822060" lon="-0.5012360">
        <ele>1310.6</ele>
        <time>2023-01-14T11:39:43Z</time>
      </trkpt>
      <trkpt lat="42.6821750" lon="-0.5012240">
        <ele>1310.0</ele>
        <time>2023-01-14T11:39:44Z</time>
      </trkpt>
      <trkpt lat="42.6821500" lon="-0.5011960">
        <ele>1309.8</ele>
        <time>2023-01-14T11:39:45Z</time>
      </trkpt>
      <trkpt lat="42.6821330" lon="-0.5011680">
        <ele>1309.6</ele>
        <time>2023-01-14T11:39:46Z</time>
      </trkpt>
      <trkpt lat="42.6821130" lon="-0.5011160">
        <ele>1309.4</ele>
        <time>2023-01-14T11:39:47Z</time>
      </trkpt>
      <trkpt lat="42.6821130" lon="-0.5011160">
        <ele>1309.2</ele>
        <time>2023-01-14T11:39:48Z</time>
      </trkpt>
      <trkpt lat="42.6821100" lon="-0.5010970">
        <ele>1309.4</ele>
        <time>2023-01-14T11:39:49Z</time>
      </trkpt>
      <trkpt lat="42.6821030" lon="-0.5010590">
        <ele>1309.4</ele>
        <time>2023-01-14T11:39:50Z</time>
      </trkpt>
      <trkpt lat="42.6821030" lon="-0.5010590">
        <ele>1309.6</ele>
        <time>2023-01-14T11:39:51Z</time>
      </trkpt>
      <trkpt lat="42.6820980" lon="-0.5010400">
        <ele>1309.6</ele>
        <time>2023-01-14T11:39:52Z</time>
      </trkpt>
      <trkpt lat="42.6820910" lon="-0.5010210">
        <ele>1309.4</ele>
        <time>2023-01-14T11:39:53Z</time>
      </trkpt>
      <trkpt lat="42.6820880" lon="-0.5010120">
        <ele>1309.6</ele>
        <time>2023-01-14T11:39:54Z</time>
      </trkpt>
      <trkpt lat="42.6820850" lon="-0.5010060">
        <ele>1309.4</ele>
        <time>2023-01-14T11:39:55Z</time>
      </trkpt>
      <trkpt lat="42.6820850" lon="-0.5010060">
        <ele>1309.4</ele>
        <time>2023-01-14T11:39:56Z</time>
      </trkpt>
      <trkpt lat="42.6820800" lon="-0.5010020">
        <ele>1309.6</ele>
        <time>2023-01-14T11:39:57Z</time>
      </trkpt>
      <trkpt lat="42.6820800" lon="-0.5010020">
        <ele>1309.6</ele>
        <time>2023-01-14T11:39:58Z</time>
      </trkpt>
      <trkpt lat="42.6820790" lon="-0.5010020">
        <ele>1309.6</ele>
        <time>2023-01-14T11:39:59Z</time>
      </trkpt>
      <trkpt lat="42.6820780" lon="-0.5010030">
        <ele>1309.6</ele>
        <time>2023-01-14T11:40:00Z</time>
      </trkpt>
      <trkpt lat="42.6820770" lon="-0.5010030">
        <ele>1309.8</ele>
        <time>2023-01-14T11:40:01Z</time>
      </trkpt>
      <trkpt lat="42.6820770" lon="-0.5010030">
        <ele>1309.8</ele>
        <time>2023-01-14T11:40:02Z</time>
      </trkpt>
      <trkpt lat="42.6820770" lon="-0.5010030">
        <ele>1309.8</ele>
        <time>2023-01-14T11:40:03Z</time>
      </trkpt>
      <trkpt lat="42.6820760" lon="-0.5010030">
        <ele>1309.4</ele>
        <time>2023-01-14T11:40:04Z</time>
      </trkpt>
      <trkpt lat="42.6820760" lon="-0.5010030">
        <ele>1309.4</ele>
        <time>2023-01-14T11:40:05Z</time>
      </trkpt>
      <trkpt lat="42.6820750" lon="-0.5010030">
        <ele>1309.2</ele>
        <time>2023-01-14T11:40:06Z</time>
      </trkpt>
      <trkpt lat="42.6820750" lon="-0.5010030">
        <ele>1309.2</ele>
        <time>2023-01-14T11:40:07Z</time>
      </trkpt>
      <trkpt lat="42.6820740" lon="-0.5010030">
        <ele>1309.2</ele>
        <time>2023-01-14T11:40:08Z</time>
      </trkpt>
      <trkpt lat="42.6820730" lon="-0.5010030">
        <ele>1309.2</ele>
        <time>2023-01-14T11:40:09Z</time>
      </trkpt>
      <trkpt lat="42.6820730" lon="-0.5010030">
        <ele>1309.4</ele>
        <time>2023-01-14T11:40:10Z</time>
      </trkpt>
      <trkpt lat="42.6820730" lon="-0.5010020">
        <ele>1309.4</ele>
        <time>2023-01-14T11:40:11Z</time>
      </trkpt>
      <trkpt lat="42.6820730" lon="-0.5010020">
        <ele>1309.4</ele>
        <time>2023-01-14T11:40:12Z</time>
      </trkpt>
      <trkpt lat="42.6820730" lon="-0.5010020">
        <ele>1309.4</ele>
        <time>2023-01-14T11:40:13Z</time>
      </trkpt>
      <trkpt lat="42.6820720" lon="-0.5010030">
        <ele>1309.2</ele>
        <time>2023-01-14T11:40:14Z</time>
      </trkpt>
      <trkpt lat="42.6820710" lon="-0.5010040">
        <ele>1309.4</ele>
        <time>2023-01-14T11:40:15Z</time>
      </trkpt>
      <trkpt lat="42.6820710" lon="-0.5010040">
        <ele>1309.4</ele>
        <time>2023-01-14T11:40:16Z</time>
      </trkpt>
      <trkpt lat="42.6820710" lon="-0.5010020">
        <ele>1309.2</ele>
        <time>2023-01-14T11:40:17Z</time>
      </trkpt>
      <trkpt lat="42.6820700" lon="-0.5010020">
        <ele>1309.2</ele>
        <time>2023-01-14T11:40:18Z</time>
      </trkpt>
      <trkpt lat="42.6820700" lon="-0.5010020">
        <ele>1309.2</ele>
        <time>2023-01-14T11:40:19Z</time>
      </trkpt>
      <trkpt lat="42.6820700" lon="-0.5010020">
        <ele>1309.2</ele>
        <time>2023-01-14T11:40:20Z</time>
      </trkpt>
      <trkpt lat="42.6820690" lon="-0.5010020">
        <ele>1309.2</ele>
        <time>2023-01-14T11:40:21Z</time>
      </trkpt>
      <trkpt lat="42.6820690" lon="-0.5010020">
        <ele>1309.0</ele>
        <time>2023-01-14T11:40:22Z</time>
      </trkpt>
      <trkpt lat="42.6820690" lon="-0.5010020">
        <ele>1308.6</ele>
        <time>2023-01-14T11:40:23Z</time>
      </trkpt>
      <trkpt lat="42.6820690" lon="-0.5010020">
        <ele>1308.6</ele>
        <time>2023-01-14T11:40:24Z</time>
      </trkpt>
      <trkpt lat="42.6820680" lon="-0.5010020">
        <ele>1308.4</ele>
        <time>2023-01-14T11:40:25Z</time>
      </trkpt>
      <trkpt lat="42.6820680" lon="-0.5010020">
        <ele>1308.2</ele>
        <time>2023-01-14T11:40:26Z</time>
      </trkpt>
      <trkpt lat="42.6820680" lon="-0.5010020">
        <ele>1308.2</ele>
        <time>2023-01-14T11:40:27Z</time>
      </trkpt>
      <trkpt lat="42.6820670" lon="-0.5010020">
        <ele>1308.2</ele>
        <time>2023-01-14T11:40:28Z</time>
      </trkpt>
      <trkpt lat="42.6820670" lon="-0.5010020">
        <ele>1308.2</ele>
        <time>2023-01-14T11:40:29Z</time>
      </trkpt>
      <trkpt lat="42.6820670" lon="-0.5010020">
        <ele>1308.2</ele>
        <time>2023-01-14T11:40:30Z</time>
      </trkpt>
      <trkpt lat="42.6820660" lon="-0.5010020">
        <ele>1308.2</ele>
        <time>2023-01-14T11:40:31Z</time>
      </trkpt>
      <trkpt lat="42.6820660" lon="-0.5010020">
        <ele>1308.2</ele>
        <time>2023-01-14T11:40:32Z</time>
      </trkpt>
      <trkpt lat="42.6820660" lon="-0.5010020">
        <ele>1308.2</ele>
        <time>2023-01-14T11:40:33Z</time>
      </trkpt>
      <trkpt lat="42.6820660" lon="-0.5010020">
        <ele>1308.2</ele>
        <time>2023-01-14T11:40:34Z</time>
      </trkpt>
      <trkpt lat="42.6820660" lon="-0.5010030">
        <ele>1308.2</ele>
        <time>2023-01-14T11:40:35Z</time>
      </trkpt>
      <trkpt lat="42.6820660" lon="-0.5010030">
        <ele>1308.0</ele>
        <time>2023-01-14T11:40:36Z</time>
      </trkpt>
      <trkpt lat="42.6820660" lon="-0.5010040">
        <ele>1308.0</ele>
        <time>2023-01-14T11:40:37Z</time>
      </trkpt>
      <trkpt lat="42.6820660" lon="-0.5010040">
        <ele>1308.0</ele>
        <time>2023-01-14T11:40:38Z</time>
      </trkpt>
      <trkpt lat="42.6820660" lon="-0.5010040">
        <ele>1308.0</ele>
        <time>2023-01-14T11:40:39Z</time>
      </trkpt>
      <trkpt lat="42.6820660" lon="-0.5010040">
        <ele>1307.8</ele>
        <time>2023-01-14T11:40:40Z</time>
      </trkpt>
      <trkpt lat="42.6820660" lon="-0.5010040">
        <ele>1307.8</ele>
        <time>2023-01-14T11:40:41Z</time>
      </trkpt>
      <trkpt lat="42.6820660" lon="-0.5010040">
        <ele>1307.8</ele>
        <time>2023-01-14T11:40:42Z</time>
      </trkpt>
      <trkpt lat="42.6820660" lon="-0.5010040">
        <ele>1307.6</ele>
        <time>2023-01-14T11:40:43Z</time>
      </trkpt>
      <trkpt lat="42.6820660" lon="-0.5010040">
        <ele>1307.6</ele>
        <time>2023-01-14T11:40:44Z</time>
      </trkpt>
      <trkpt lat="42.6820660" lon="-0.5010040">
        <ele>1307.6</ele>
        <time>2023-01-14T11:40:45Z</time>
      </trkpt>
      <trkpt lat="42.6820660" lon="-0.5010040">
        <ele>1307.6</ele>
        <time>2023-01-14T11:40:46Z</time>
      </trkpt>
      <trkpt lat="42.6820660" lon="-0.5010040">
        <ele>1307.4</ele>
        <time>2023-01-14T11:40:47Z</time>
      </trkpt>
      <trkpt lat="42.6820660" lon="-0.5010040">
        <ele>1307.4</ele>
        <time>2023-01-14T11:40:48Z</time>
      </trkpt>
      <trkpt lat="42.6820660" lon="-0.5010030">
        <ele>1307.4</ele>
        <time>2023-01-14T11:40:49Z</time>
      </trkpt>
      <trkpt lat="42.6820660" lon="-0.5010030">
        <ele>1307.4</ele>
        <time>2023-01-14T11:40:50Z</time>
      </trkpt>
      <trkpt lat="42.6820660" lon="-0.5010030">
        <ele>1307.4</ele>
        <time>2023-01-14T11:40:51Z</time>
      </trkpt>
      <trkpt lat="42.6820660" lon="-0.5010020">
        <ele>1307.6</ele>
        <time>2023-01-14T11:40:52Z</time>
      </trkpt>
      <trkpt lat="42.6820660" lon="-0.5010020">
        <ele>1307.4</ele>
        <time>2023-01-14T11:40:53Z</time>
      </trkpt>
      <trkpt lat="42.6820650" lon="-0.5010020">
        <ele>1307.4</ele>
        <time>2023-01-14T11:40:54Z</time>
      </trkpt>
      <trkpt lat="42.6820650" lon="-0.5010020">
        <ele>1307.2</ele>
        <time>2023-01-14T11:40:55Z</time>
      </trkpt>
      <trkpt lat="42.6820650" lon="-0.5010030">
        <ele>1307.2</ele>
        <time>2023-01-14T11:40:56Z</time>
      </trkpt>
      <trkpt lat="42.6820650" lon="-0.5010030">
        <ele>1307.0</ele>
        <time>2023-01-14T11:40:57Z</time>
      </trkpt>
      <trkpt lat="42.6820650" lon="-0.5010030">
        <ele>1307.0</ele>
        <time>2023-01-14T11:40:58Z</time>
      </trkpt>
      <trkpt lat="42.6820650" lon="-0.5010030">
        <ele>1307.0</ele>
        <time>2023-01-14T11:40:59Z</time>
      </trkpt>
      <trkpt lat="42.6820650" lon="-0.5010030">
        <ele>1307.0</ele>
        <time>2023-01-14T11:41:00Z</time>
      </trkpt>
      <trkpt lat="42.6820650" lon="-0.5010040">
        <ele>1307.0</ele>
        <time>2023-01-14T11:41:01Z</time>
      </trkpt>
      <trkpt lat="42.6820650" lon="-0.5010040">
        <ele>1307.0</ele>
        <time>2023-01-14T11:41:02Z</time>
      </trkpt>
      <trkpt lat="42.6820650" lon="-0.5010060">
        <ele>1307.0</ele>
        <time>2023-01-14T11:41:03Z</time>
      </trkpt>
      <trkpt lat="42.6820650" lon="-0.5010080">
        <ele>1307.0</ele>
        <time>2023-01-14T11:41:04Z</time>
      </trkpt>
      <trkpt lat="42.6820650" lon="-0.5010090">
        <ele>1307.0</ele>
        <time>2023-01-14T11:41:05Z</time>
      </trkpt>
      <trkpt lat="42.6820640" lon="-0.5010100">
        <ele>1307.0</ele>
        <time>2023-01-14T11:41:06Z</time>
      </trkpt>
      <trkpt lat="42.6820640" lon="-0.5010100">
        <ele>1306.8</ele>
        <time>2023-01-14T11:41:07Z</time>
      </trkpt>
      <trkpt lat="42.6820640" lon="-0.5010110">
        <ele>1306.8</ele>
        <time>2023-01-14T11:41:08Z</time>
      </trkpt>
      <trkpt lat="42.6820630" lon="-0.5010120">
        <ele>1306.8</ele>
        <time>2023-01-14T11:41:09Z</time>
      </trkpt>
      <trkpt lat="42.6820620" lon="-0.5010120">
        <ele>1306.8</ele>
        <time>2023-01-14T11:41:10Z</time>
      </trkpt>
      <trkpt lat="42.6820620" lon="-0.5010120">
        <ele>1306.8</ele>
        <time>2023-01-14T11:41:11Z</time>
      </trkpt>
      <trkpt lat="42.6820620" lon="-0.5010120">
        <ele>1306.8</ele>
        <time>2023-01-14T11:41:12Z</time>
      </trkpt>
      <trkpt lat="42.6820610" lon="-0.5010120">
        <ele>1306.6</ele>
        <time>2023-01-14T11:41:13Z</time>
      </trkpt>
      <trkpt lat="42.6820610" lon="-0.5010120">
        <ele>1306.6</ele>
        <time>2023-01-14T11:41:14Z</time>
      </trkpt>
      <trkpt lat="42.6820600" lon="-0.5010120">
        <ele>1306.8</ele>
        <time>2023-01-14T11:41:15Z</time>
      </trkpt>
      <trkpt lat="42.6820600" lon="-0.5010120">
        <ele>1306.6</ele>
        <time>2023-01-14T11:41:16Z</time>
      </trkpt>
      <trkpt lat="42.6820590" lon="-0.5010120">
        <ele>1306.6</ele>
        <time>2023-01-14T11:41:17Z</time>
      </trkpt>
      <trkpt lat="42.6820590" lon="-0.5010120">
        <ele>1306.6</ele>
        <time>2023-01-14T11:41:18Z</time>
      </trkpt>
      <trkpt lat="42.6820590" lon="-0.5010120">
        <ele>1306.6</ele>
        <time>2023-01-14T11:41:19Z</time>
      </trkpt>
      <trkpt lat="42.6820580" lon="-0.5010110">
        <ele>1306.8</ele>
        <time>2023-01-14T11:41:20Z</time>
      </trkpt>
      <trkpt lat="42.6820580" lon="-0.5010110">
        <ele>1306.8</ele>
        <time>2023-01-14T11:41:21Z</time>
      </trkpt>
      <trkpt lat="42.6820580" lon="-0.5010110">
        <ele>1306.6</ele>
        <time>2023-01-14T11:41:22Z</time>
      </trkpt>
      <trkpt lat="42.6820580" lon="-0.5010110">
        <ele>1306.8</ele>
        <time>2023-01-14T11:41:23Z</time>
      </trkpt>
      <trkpt lat="42.6820570" lon="-0.5010120">
        <ele>1306.8</ele>
        <time>2023-01-14T11:41:24Z</time>
      </trkpt>
      <trkpt lat="42.6820570" lon="-0.5010120">
        <ele>1306.8</ele>
        <time>2023-01-14T11:41:25Z</time>
      </trkpt>
      <trkpt lat="42.6820570" lon="-0.5010130">
        <ele>1306.8</ele>
        <time>2023-01-14T11:41:26Z</time>
      </trkpt>
      <trkpt lat="42.6820560" lon="-0.5010140">
        <ele>1306.8</ele>
        <time>2023-01-14T11:41:27Z</time>
      </trkpt>
      <trkpt lat="42.6820560" lon="-0.5010150">
        <ele>1306.8</ele>
        <time>2023-01-14T11:41:28Z</time>
      </trkpt>
      <trkpt lat="42.6820560" lon="-0.5010150">
        <ele>1307.0</ele>
        <time>2023-01-14T11:41:29Z</time>
      </trkpt>
      <trkpt lat="42.6820560" lon="-0.5010150">
        <ele>1307.0</ele>
        <time>2023-01-14T11:41:30Z</time>
      </trkpt>
      <trkpt lat="42.6820560" lon="-0.5010170">
        <ele>1307.0</ele>
        <time>2023-01-14T11:41:31Z</time>
      </trkpt>
      <trkpt lat="42.6820560" lon="-0.5010170">
        <ele>1307.2</ele>
        <time>2023-01-14T11:41:32Z</time>
      </trkpt>
      <trkpt lat="42.6820550" lon="-0.5010180">
        <ele>1307.2</ele>
        <time>2023-01-14T11:41:33Z</time>
      </trkpt>
      <trkpt lat="42.6820550" lon="-0.5010180">
        <ele>1307.2</ele>
        <time>2023-01-14T11:41:34Z</time>
      </trkpt>
      <trkpt lat="42.6820550" lon="-0.5010180">
        <ele>1307.2</ele>
        <time>2023-01-14T11:41:35Z</time>
      </trkpt>
      <trkpt lat="42.6820550" lon="-0.5010190">
        <ele>1307.2</ele>
        <time>2023-01-14T11:41:36Z</time>
      </trkpt>
      <trkpt lat="42.6820550" lon="-0.5010190">
        <ele>1307.2</ele>
        <time>2023-01-14T11:41:37Z</time>
      </trkpt>
      <trkpt lat="42.6820550" lon="-0.5010190">
        <ele>1307.0</ele>
        <time>2023-01-14T11:41:38Z</time>
      </trkpt>
      <trkpt lat="42.6820550" lon="-0.5010190">
        <ele>1307.0</ele>
        <time>2023-01-14T11:41:39Z</time>
      </trkpt>
      <trkpt lat="42.6820550" lon="-0.5010200">
        <ele>1307.0</ele>
        <time>2023-01-14T11:41:40Z</time>
      </trkpt>
      <trkpt lat="42.6820550" lon="-0.5010200">
        <ele>1306.8</ele>
        <time>2023-01-14T11:41:41Z</time>
      </trkpt>
      <trkpt lat="42.6820540" lon="-0.5010210">
        <ele>1306.8</ele>
        <time>2023-01-14T11:41:42Z</time>
      </trkpt>
      <trkpt lat="42.6820540" lon="-0.5010210">
        <ele>1306.8</ele>
        <time>2023-01-14T11:41:43Z</time>
      </trkpt>
      <trkpt lat="42.6820530" lon="-0.5010210">
        <ele>1306.8</ele>
        <time>2023-01-14T11:41:44Z</time>
      </trkpt>
      <trkpt lat="42.6820530" lon="-0.5010210">
        <ele>1306.8</ele>
        <time>2023-01-14T11:41:45Z</time>
      </trkpt>
      <trkpt lat="42.6820520" lon="-0.5010210">
        <ele>1306.8</ele>
        <time>2023-01-14T11:41:46Z</time>
      </trkpt>
      <trkpt lat="42.6820520" lon="-0.5010210">
        <ele>1307.0</ele>
        <time>2023-01-14T11:41:47Z</time>
      </trkpt>
      <trkpt lat="42.6820520" lon="-0.5010210">
        <ele>1307.0</ele>
        <time>2023-01-14T11:41:48Z</time>
      </trkpt>
      <trkpt lat="42.6820520" lon="-0.5010210">
        <ele>1307.0</ele>
        <time>2023-01-14T11:41:49Z</time>
      </trkpt>
      <trkpt lat="42.6820520" lon="-0.5010200">
        <ele>1307.0</ele>
        <time>2023-01-14T11:41:50Z</time>
      </trkpt>
      <trkpt lat="42.6820520" lon="-0.5010200">
        <ele>1307.2</ele>
        <time>2023-01-14T11:41:51Z</time>
      </trkpt>
      <trkpt lat="42.6820520" lon="-0.5010200">
        <ele>1307.0</ele>
        <time>2023-01-14T11:41:52Z</time>
      </trkpt>
      <trkpt lat="42.6820520" lon="-0.5010190">
        <ele>1307.0</ele>
        <time>2023-01-14T11:41:53Z</time>
      </trkpt>
      <trkpt lat="42.6820520" lon="-0.5010190">
        <ele>1307.0</ele>
        <time>2023-01-14T11:41:54Z</time>
      </trkpt>
      <trkpt lat="42.6820520" lon="-0.5010180">
        <ele>1307.0</ele>
        <time>2023-01-14T11:41:55Z</time>
      </trkpt>
      <trkpt lat="42.6820520" lon="-0.5010180">
        <ele>1307.0</ele>
        <time>2023-01-14T11:41:56Z</time>
      </trkpt>
      <trkpt lat="42.6820520" lon="-0.5010170">
        <ele>1307.0</ele>
        <time>2023-01-14T11:41:57Z</time>
      </trkpt>
      <trkpt lat="42.6820520" lon="-0.5010170">
        <ele>1307.2</ele>
        <time>2023-01-14T11:41:58Z</time>
      </trkpt>
      <trkpt lat="42.6820520" lon="-0.5010160">
        <ele>1307.2</ele>
        <time>2023-01-14T11:41:59Z</time>
      </trkpt>
      <trkpt lat="42.6820530" lon="-0.5010160">
        <ele>1307.2</ele>
        <time>2023-01-14T11:42:00Z</time>
      </trkpt>
      <trkpt lat="42.6820530" lon="-0.5010150">
        <ele>1307.4</ele>
        <time>2023-01-14T11:42:01Z</time>
      </trkpt>
      <trkpt lat="42.6820530" lon="-0.5010150">
        <ele>1307.2</ele>
        <time>2023-01-14T11:42:02Z</time>
      </trkpt>
      <trkpt lat="42.6820530" lon="-0.5010140">
        <ele>1307.2</ele>
        <time>2023-01-14T11:42:03Z</time>
      </trkpt>
      <trkpt lat="42.6820530" lon="-0.5010140">
        <ele>1307.0</ele>
        <time>2023-01-14T11:42:04Z</time>
      </trkpt>
      <trkpt lat="42.6820530" lon="-0.5010130">
        <ele>1307.0</ele>
        <time>2023-01-14T11:42:05Z</time>
      </trkpt>
      <trkpt lat="42.6820530" lon="-0.5010130">
        <ele>1307.0</ele>
        <time>2023-01-14T11:42:06Z</time>
      </trkpt>
      <trkpt lat="42.6820530" lon="-0.5010120">
        <ele>1307.2</ele>
        <time>2023-01-14T11:42:07Z</time>
      </trkpt>
      <trkpt lat="42.6820540" lon="-0.5010120">
        <ele>1307.2</ele>
        <time>2023-01-14T11:42:08Z</time>
      </trkpt>
      <trkpt lat="42.6820540" lon="-0.5010110">
        <ele>1307.4</ele>
        <time>2023-01-14T11:42:09Z</time>
      </trkpt>
      <trkpt lat="42.6820540" lon="-0.5010110">
        <ele>1307.6</ele>
        <time>2023-01-14T11:42:10Z</time>
      </trkpt>
      <trkpt lat="42.6820540" lon="-0.5010100">
        <ele>1307.8</ele>
        <time>2023-01-14T11:42:11Z</time>
      </trkpt>
      <trkpt lat="42.6820540" lon="-0.5010100">
        <ele>1307.8</ele>
        <time>2023-01-14T11:42:12Z</time>
      </trkpt>
      <trkpt lat="42.6820540" lon="-0.5010090">
        <ele>1307.8</ele>
        <time>2023-01-14T11:42:13Z</time>
      </trkpt>
      <trkpt lat="42.6820540" lon="-0.5010090">
        <ele>1307.8</ele>
        <time>2023-01-14T11:42:14Z</time>
      </trkpt>
      <trkpt lat="42.6820550" lon="-0.5010090">
        <ele>1307.6</ele>
        <time>2023-01-14T11:42:15Z</time>
      </trkpt>
      <trkpt lat="42.6820540" lon="-0.5010080">
        <ele>1307.6</ele>
        <time>2023-01-14T11:42:16Z</time>
      </trkpt>
      <trkpt lat="42.6820540" lon="-0.5010080">
        <ele>1307.4</ele>
        <time>2023-01-14T11:42:17Z</time>
      </trkpt>
      <trkpt lat="42.6820540" lon="-0.5010080">
        <ele>1307.4</ele>
        <time>2023-01-14T11:42:18Z</time>
      </trkpt>
      <trkpt lat="42.6820540" lon="-0.5010070">
        <ele>1307.6</ele>
        <time>2023-01-14T11:42:19Z</time>
      </trkpt>
      <trkpt lat="42.6820540" lon="-0.5010070">
        <ele>1307.6</ele>
        <time>2023-01-14T11:42:20Z</time>
      </trkpt>
      <trkpt lat="42.6820550" lon="-0.5010060">
        <ele>1307.6</ele>
        <time>2023-01-14T11:42:21Z</time>
      </trkpt>
      <trkpt lat="42.6820550" lon="-0.5010060">
        <ele>1307.6</ele>
        <time>2023-01-14T11:42:22Z</time>
      </trkpt>
      <trkpt lat="42.6820550" lon="-0.5010060">
        <ele>1307.8</ele>
        <time>2023-01-14T11:42:23Z</time>
      </trkpt>
      <trkpt lat="42.6820550" lon="-0.5010060">
        <ele>1307.6</ele>
        <time>2023-01-14T11:42:24Z</time>
      </trkpt>
      <trkpt lat="42.6820550" lon="-0.5010060">
        <ele>1307.6</ele>
        <time>2023-01-14T11:42:25Z</time>
      </trkpt>
      <trkpt lat="42.6820550" lon="-0.5010060">
        <ele>1307.6</ele>
        <time>2023-01-14T11:42:26Z</time>
      </trkpt>
      <trkpt lat="42.6820560" lon="-0.5010060">
        <ele>1307.6</ele>
        <time>2023-01-14T11:42:27Z</time>
      </trkpt>
      <trkpt lat="42.6820560" lon="-0.5010060">
        <ele>1307.6</ele>
        <time>2023-01-14T11:42:28Z</time>
      </trkpt>
      <trkpt lat="42.6820560" lon="-0.5010060">
        <ele>1307.6</ele>
        <time>2023-01-14T11:42:29Z</time>
      </trkpt>
      <trkpt lat="42.6820560" lon="-0.5010070">
        <ele>1307.4</ele>
        <time>2023-01-14T11:42:30Z</time>
      </trkpt>
      <trkpt lat="42.6820560" lon="-0.5010070">
        <ele>1307.4</ele>
        <time>2023-01-14T11:42:31Z</time>
      </trkpt>
      <trkpt lat="42.6820560" lon="-0.5010070">
        <ele>1307.4</ele>
        <time>2023-01-14T11:42:32Z</time>
      </trkpt>
      <trkpt lat="42.6820560" lon="-0.5010080">
        <ele>1307.4</ele>
        <time>2023-01-14T11:42:33Z</time>
      </trkpt>
      <trkpt lat="42.6820560" lon="-0.5010080">
        <ele>1307.4</ele>
        <time>2023-01-14T11:42:34Z</time>
      </trkpt>
      <trkpt lat="42.6820560" lon="-0.5010080">
        <ele>1307.4</ele>
        <time>2023-01-14T11:42:35Z</time>
      </trkpt>
      <trkpt lat="42.6820560" lon="-0.5010080">
        <ele>1307.4</ele>
        <time>2023-01-14T11:42:36Z</time>
      </trkpt>
      <trkpt lat="42.6820560" lon="-0.5010090">
        <ele>1307.4</ele>
        <time>2023-01-14T11:42:37Z</time>
      </trkpt>
      <trkpt lat="42.6820570" lon="-0.5010090">
        <ele>1307.6</ele>
        <time>2023-01-14T11:42:38Z</time>
      </trkpt>
      <trkpt lat="42.6820570" lon="-0.5010090">
        <ele>1307.6</ele>
        <time>2023-01-14T11:42:39Z</time>
      </trkpt>
      <trkpt lat="42.6820570" lon="-0.5010100">
        <ele>1307.6</ele>
        <time>2023-01-14T11:42:40Z</time>
      </trkpt>
      <trkpt lat="42.6820570" lon="-0.5010100">
        <ele>1307.6</ele>
        <time>2023-01-14T11:42:41Z</time>
      </trkpt>
      <trkpt lat="42.6820580" lon="-0.5010110">
        <ele>1307.4</ele>
        <time>2023-01-14T11:42:42Z</time>
      </trkpt>
      <trkpt lat="42.6820580" lon="-0.5010110">
        <ele>1307.4</ele>
        <time>2023-01-14T11:42:43Z</time>
      </trkpt>
      <trkpt lat="42.6820580" lon="-0.5010120">
        <ele>1307.4</ele>
        <time>2023-01-14T11:42:44Z</time>
      </trkpt>
      <trkpt lat="42.6820580" lon="-0.5010120">
        <ele>1307.4</ele>
        <time>2023-01-14T11:42:45Z</time>
      </trkpt>
      <trkpt lat="42.6820580" lon="-0.5010130">
        <ele>1307.4</ele>
        <time>2023-01-14T11:42:46Z</time>
      </trkpt>
      <trkpt lat="42.6820590" lon="-0.5010130">
        <ele>1307.4</ele>
        <time>2023-01-14T11:42:47Z</time>
      </trkpt>
      <trkpt lat="42.6820590" lon="-0.5010130">
        <ele>1307.4</ele>
        <time>2023-01-14T11:42:48Z</time>
      </trkpt>
      <trkpt lat="42.6820590" lon="-0.5010140">
        <ele>1307.6</ele>
        <time>2023-01-14T11:42:49Z</time>
      </trkpt>
      <trkpt lat="42.6820590" lon="-0.5010150">
        <ele>1307.6</ele>
        <time>2023-01-14T11:42:50Z</time>
      </trkpt>
      <trkpt lat="42.6820590" lon="-0.5010150">
        <ele>1307.6</ele>
        <time>2023-01-14T11:42:51Z</time>
      </trkpt>
      <trkpt lat="42.6820590" lon="-0.5010150">
        <ele>1307.6</ele>
        <time>2023-01-14T11:42:52Z</time>
      </trkpt>
      <trkpt lat="42.6820590" lon="-0.5010150">
        <ele>1307.6</ele>
        <time>2023-01-14T11:42:53Z</time>
      </trkpt>
      <trkpt lat="42.6820590" lon="-0.5010160">
        <ele>1307.6</ele>
        <time>2023-01-14T11:42:54Z</time>
      </trkpt>
      <trkpt lat="42.6820590" lon="-0.5010160">
        <ele>1307.6</ele>
        <time>2023-01-14T11:42:55Z</time>
      </trkpt>
      <trkpt lat="42.6820600" lon="-0.5010160">
        <ele>1307.4</ele>
        <time>2023-01-14T11:42:56Z</time>
      </trkpt>
      <trkpt lat="42.6820590" lon="-0.5010170">
        <ele>1307.4</ele>
        <time>2023-01-14T11:42:57Z</time>
      </trkpt>
      <trkpt lat="42.6820600" lon="-0.5010180">
        <ele>1306.8</ele>
        <time>2023-01-14T11:42:58Z</time>
      </trkpt>
      <trkpt lat="42.6820600" lon="-0.5010180">
        <ele>1306.8</ele>
        <time>2023-01-14T11:42:59Z</time>
      </trkpt>
      <trkpt lat="42.6820600" lon="-0.5010190">
        <ele>1306.8</ele>
        <time>2023-01-14T11:43:00Z</time>
      </trkpt>
      <trkpt lat="42.6820600" lon="-0.5010190">
        <ele>1306.8</ele>
        <time>2023-01-14T11:43:01Z</time>
      </trkpt>
      <trkpt lat="42.6820600" lon="-0.5010200">
        <ele>1306.8</ele>
        <time>2023-01-14T11:43:02Z</time>
      </trkpt>
      <trkpt lat="42.6820590" lon="-0.5010210">
        <ele>1306.8</ele>
        <time>2023-01-14T11:43:03Z</time>
      </trkpt>
      <trkpt lat="42.6820590" lon="-0.5010210">
        <ele>1306.8</ele>
        <time>2023-01-14T11:43:04Z</time>
      </trkpt>
      <trkpt lat="42.6820590" lon="-0.5010220">
        <ele>1306.8</ele>
        <time>2023-01-14T11:43:05Z</time>
      </trkpt>
      <trkpt lat="42.6820580" lon="-0.5010220">
        <ele>1306.8</ele>
        <time>2023-01-14T11:43:06Z</time>
      </trkpt>
      <trkpt lat="42.6820570" lon="-0.5010230">
        <ele>1306.8</ele>
        <time>2023-01-14T11:43:07Z</time>
      </trkpt>
      <trkpt lat="42.6820570" lon="-0.5010230">
        <ele>1306.8</ele>
        <time>2023-01-14T11:43:08Z</time>
      </trkpt>
      <trkpt lat="42.6820570" lon="-0.5010240">
        <ele>1306.8</ele>
        <time>2023-01-14T11:43:09Z</time>
      </trkpt>
      <trkpt lat="42.6820570" lon="-0.5010240">
        <ele>1306.8</ele>
        <time>2023-01-14T11:43:10Z</time>
      </trkpt>
      <trkpt lat="42.6820570" lon="-0.5010240">
        <ele>1306.8</ele>
        <time>2023-01-14T11:43:11Z</time>
      </trkpt>
      <trkpt lat="42.6820570" lon="-0.5010250">
        <ele>1306.8</ele>
        <time>2023-01-14T11:43:12Z</time>
      </trkpt>
      <trkpt lat="42.6820570" lon="-0.5010250">
        <ele>1306.8</ele>
        <time>2023-01-14T11:43:13Z</time>
      </trkpt>
      <trkpt lat="42.6820560" lon="-0.5010250">
        <ele>1306.8</ele>
        <time>2023-01-14T11:43:14Z</time>
      </trkpt>
      <trkpt lat="42.6820570" lon="-0.5010250">
        <ele>1306.8</ele>
        <time>2023-01-14T11:43:15Z</time>
      </trkpt>
      <trkpt lat="42.6820570" lon="-0.5010250">
        <ele>1306.8</ele>
        <time>2023-01-14T11:43:16Z</time>
      </trkpt>
      <trkpt lat="42.6820560" lon="-0.5010250">
        <ele>1306.8</ele>
        <time>2023-01-14T11:43:17Z</time>
      </trkpt>
      <trkpt lat="42.6820560" lon="-0.5010250">
        <ele>1306.8</ele>
        <time>2023-01-14T11:43:18Z</time>
      </trkpt>
      <trkpt lat="42.6820550" lon="-0.5010240">
        <ele>1306.8</ele>
        <time>2023-01-14T11:43:19Z</time>
      </trkpt>
      <trkpt lat="42.6820540" lon="-0.5010210">
        <ele>1306.8</ele>
        <time>2023-01-14T11:43:20Z</time>
      </trkpt>
      <trkpt lat="42.6820530" lon="-0.5010210">
        <ele>1306.8</ele>
        <time>2023-01-14T11:43:21Z</time>
      </trkpt>
      <trkpt lat="42.6820530" lon="-0.5010210">
        <ele>1306.8</ele>
        <time>2023-01-14T11:43:22Z</time>
      </trkpt>
      <trkpt lat="42.6820530" lon="-0.5010210">
        <ele>1306.8</ele>
        <time>2023-01-14T11:43:23Z</time>
      </trkpt>
      <trkpt lat="42.6820530" lon="-0.5010220">
        <ele>1306.8</ele>
        <time>2023-01-14T11:43:24Z</time>
      </trkpt>
      <trkpt lat="42.6820530" lon="-0.5010220">
        <ele>1306.8</ele>
        <time>2023-01-14T11:43:25Z</time>
      </trkpt>
      <trkpt lat="42.6820530" lon="-0.5010220">
        <ele>1306.8</ele>
        <time>2023-01-14T11:43:26Z</time>
      </trkpt>
      <trkpt lat="42.6820530" lon="-0.5010220">
        <ele>1306.8</ele>
        <time>2023-01-14T11:43:27Z</time>
      </trkpt>
      <trkpt lat="42.6820540" lon="-0.5010230">
        <ele>1306.8</ele>
        <time>2023-01-14T11:43:28Z</time>
      </trkpt>
      <trkpt lat="42.6820540" lon="-0.5010230">
        <ele>1306.8</ele>
        <time>2023-01-14T11:43:29Z</time>
      </trkpt>
      <trkpt lat="42.6820540" lon="-0.5010230">
        <ele>1306.8</ele>
        <time>2023-01-14T11:43:30Z</time>
      </trkpt>
      <trkpt lat="42.6820540" lon="-0.5010230">
        <ele>1306.8</ele>
        <time>2023-01-14T11:43:31Z</time>
      </trkpt>
      <trkpt lat="42.6820540" lon="-0.5010230">
        <ele>1306.8</ele>
        <time>2023-01-14T11:43:32Z</time>
      </trkpt>
      <trkpt lat="42.6820540" lon="-0.5010240">
        <ele>1306.8</ele>
        <time>2023-01-14T11:43:33Z</time>
      </trkpt>
      <trkpt lat="42.6820540" lon="-0.5010240">
        <ele>1306.8</ele>
        <time>2023-01-14T11:43:34Z</time>
      </trkpt>
      <trkpt lat="42.6820540" lon="-0.5010240">
        <ele>1306.8</ele>
        <time>2023-01-14T11:43:35Z</time>
      </trkpt>
      <trkpt lat="42.6820540" lon="-0.5010240">
        <ele>1306.8</ele>
        <time>2023-01-14T11:43:36Z</time>
      </trkpt>
      <trkpt lat="42.6820540" lon="-0.5010240">
        <ele>1306.8</ele>
        <time>2023-01-14T11:43:37Z</time>
      </trkpt>
      <trkpt lat="42.6820540" lon="-0.5010250">
        <ele>1306.8</ele>
        <time>2023-01-14T11:43:38Z</time>
      </trkpt>
      <trkpt lat="42.6820540" lon="-0.5010250">
        <ele>1306.8</ele>
        <time>2023-01-14T11:43:39Z</time>
      </trkpt>
      <trkpt lat="42.6820540" lon="-0.5010250">
        <ele>1306.8</ele>
        <time>2023-01-14T11:43:40Z</time>
      </trkpt>
      <trkpt lat="42.6820520" lon="-0.5010200">
        <ele>1306.8</ele>
        <time>2023-01-14T11:43:41Z</time>
      </trkpt>
      <trkpt lat="42.6820480" lon="-0.5010090">
        <ele>1306.8</ele>
        <time>2023-01-14T11:43:42Z</time>
      </trkpt>
      <trkpt lat="42.6820450" lon="-0.5009970">
        <ele>1306.8</ele>
        <time>2023-01-14T11:43:43Z</time>
      </trkpt>
      <trkpt lat="42.6820400" lon="-0.5009670">
        <ele>1306.8</ele>
        <time>2023-01-14T11:43:44Z</time>
      </trkpt>
      <trkpt lat="42.6820360" lon="-0.5009470">
        <ele>1306.8</ele>
        <time>2023-01-14T11:43:45Z</time>
      </trkpt>
      <trkpt lat="42.6820360" lon="-0.5009470">
        <ele>1307.6</ele>
        <time>2023-01-14T11:43:46Z</time>
      </trkpt>
      <trkpt lat="42.6820300" lon="-0.5009250">
        <ele>1308.0</ele>
        <time>2023-01-14T11:43:47Z</time>
      </trkpt>
      <trkpt lat="42.6820210" lon="-0.5009020">
        <ele>1308.4</ele>
        <time>2023-01-14T11:43:48Z</time>
      </trkpt>
      <trkpt lat="42.6820100" lon="-0.5008780">
        <ele>1308.6</ele>
        <time>2023-01-14T11:43:49Z</time>
      </trkpt>
      <trkpt lat="42.6819980" lon="-0.5008540">
        <ele>1308.6</ele>
        <time>2023-01-14T11:43:50Z</time>
      </trkpt>
      <trkpt lat="42.6819840" lon="-0.5008330">
        <ele>1308.6</ele>
        <time>2023-01-14T11:43:51Z</time>
      </trkpt>
      <trkpt lat="42.6819680" lon="-0.5008130">
        <ele>1308.8</ele>
        <time>2023-01-14T11:43:52Z</time>
      </trkpt>
      <trkpt lat="42.6819520" lon="-0.5007970">
        <ele>1309.0</ele>
        <time>2023-01-14T11:43:53Z</time>
      </trkpt>
      <trkpt lat="42.6819360" lon="-0.5007860">
        <ele>1309.2</ele>
        <time>2023-01-14T11:43:54Z</time>
      </trkpt>
      <trkpt lat="42.6819190" lon="-0.5007760">
        <ele>1309.2</ele>
        <time>2023-01-14T11:43:55Z</time>
      </trkpt>
      <trkpt lat="42.6819010" lon="-0.5007680">
        <ele>1309.4</ele>
        <time>2023-01-14T11:43:56Z</time>
      </trkpt>
      <trkpt lat="42.6818820" lon="-0.5007610">
        <ele>1309.6</ele>
        <time>2023-01-14T11:43:57Z</time>
      </trkpt>
      <trkpt lat="42.6818610" lon="-0.5007510">
        <ele>1310.0</ele>
        <time>2023-01-14T11:43:58Z</time>
      </trkpt>
      <trkpt lat="42.6818390" lon="-0.5007400">
        <ele>1310.2</ele>
        <time>2023-01-14T11:43:59Z</time>
      </trkpt>
      <trkpt lat="42.6818140" lon="-0.5007280">
        <ele>1310.2</ele>
        <time>2023-01-14T11:44:00Z</time>
      </trkpt>
      <trkpt lat="42.6817870" lon="-0.5007150">
        <ele>1310.2</ele>
        <time>2023-01-14T11:44:01Z</time>
      </trkpt>
      <trkpt lat="42.6817590" lon="-0.5007000">
        <ele>1310.2</ele>
        <time>2023-01-14T11:44:02Z</time>
      </trkpt>
      <trkpt lat="42.6817280" lon="-0.5006840">
        <ele>1309.8</ele>
        <time>2023-01-14T11:44:03Z</time>
      </trkpt>
      <trkpt lat="42.6816930" lon="-0.5006660">
        <ele>1309.8</ele>
        <time>2023-01-14T11:44:04Z</time>
      </trkpt>
      <trkpt lat="42.6816560" lon="-0.5006480">
        <ele>1309.6</ele>
        <time>2023-01-14T11:44:05Z</time>
      </trkpt>
      <trkpt lat="42.6816180" lon="-0.5006290">
        <ele>1309.6</ele>
        <time>2023-01-14T11:44:06Z</time>
      </trkpt>
      <trkpt lat="42.6815830" lon="-0.5006110">
        <ele>1309.6</ele>
        <time>2023-01-14T11:44:07Z</time>
      </trkpt>
      <trkpt lat="42.6815500" lon="-0.5005970">
        <ele>1309.6</ele>
        <time>2023-01-14T11:44:08Z</time>
      </trkpt>
      <trkpt lat="42.6815190" lon="-0.5005820">
        <ele>1309.6</ele>
        <time>2023-01-14T11:44:09Z</time>
      </trkpt>
      <trkpt lat="42.6814880" lon="-0.5005650">
        <ele>1309.6</ele>
        <time>2023-01-14T11:44:10Z</time>
      </trkpt>
      <trkpt lat="42.6814600" lon="-0.5005520">
        <ele>1309.8</ele>
        <time>2023-01-14T11:44:11Z</time>
      </trkpt>
      <trkpt lat="42.6814330" lon="-0.5005390">
        <ele>1310.2</ele>
        <time>2023-01-14T11:44:12Z</time>
      </trkpt>
      <trkpt lat="42.6814050" lon="-0.5005250">
        <ele>1310.4</ele>
        <time>2023-01-14T11:44:13Z</time>
      </trkpt>
      <trkpt lat="42.6813770" lon="-0.5005170">
        <ele>1310.4</ele>
        <time>2023-01-14T11:44:14Z</time>
      </trkpt>
      <trkpt lat="42.6813480" lon="-0.5005170">
        <ele>1310.6</ele>
        <time>2023-01-14T11:44:15Z</time>
      </trkpt>
      <trkpt lat="42.6813190" lon="-0.5005310">
        <ele>1310.6</ele>
        <time>2023-01-14T11:44:16Z</time>
      </trkpt>
      <trkpt lat="42.6812940" lon="-0.5005510">
        <ele>1310.8</ele>
        <time>2023-01-14T11:44:17Z</time>
      </trkpt>
      <trkpt lat="42.6812680" lon="-0.5005760">
        <ele>1310.8</ele>
        <time>2023-01-14T11:44:18Z</time>
      </trkpt>
      <trkpt lat="42.6812430" lon="-0.5005990">
        <ele>1310.8</ele>
        <time>2023-01-14T11:44:19Z</time>
      </trkpt>
      <trkpt lat="42.6811870" lon="-0.5006570">
        <ele>1310.8</ele>
        <time>2023-01-14T11:44:20Z</time>
      </trkpt>
      <trkpt lat="42.6811740" lon="-0.5006770">
        <ele>1310.6</ele>
        <time>2023-01-14T11:44:21Z</time>
      </trkpt>
      <trkpt lat="42.6811610" lon="-0.5006970">
        <ele>1310.6</ele>
        <time>2023-01-14T11:44:22Z</time>
      </trkpt>
      <trkpt lat="42.6811360" lon="-0.5007470">
        <ele>1310.6</ele>
        <time>2023-01-14T11:44:23Z</time>
      </trkpt>
      <trkpt lat="42.6811090" lon="-0.5008000">
        <ele>1310.4</ele>
        <time>2023-01-14T11:44:24Z</time>
      </trkpt>
      <trkpt lat="42.6810850" lon="-0.5008570">
        <ele>1309.4</ele>
        <time>2023-01-14T11:44:25Z</time>
      </trkpt>
      <trkpt lat="42.6810670" lon="-0.5009250">
        <ele>1308.6</ele>
        <time>2023-01-14T11:44:26Z</time>
      </trkpt>
      <trkpt lat="42.6810600" lon="-0.5010030">
        <ele>1308.0</ele>
        <time>2023-01-14T11:44:27Z</time>
      </trkpt>
      <trkpt lat="42.6810620" lon="-0.5010880">
        <ele>1307.2</ele>
        <time>2023-01-14T11:44:28Z</time>
      </trkpt>
      <trkpt lat="42.6810680" lon="-0.5011760">
        <ele>1306.8</ele>
        <time>2023-01-14T11:44:29Z</time>
      </trkpt>
      <trkpt lat="42.6810780" lon="-0.5012650">
        <ele>1306.4</ele>
        <time>2023-01-14T11:44:30Z</time>
      </trkpt>
      <trkpt lat="42.6810900" lon="-0.5013560">
        <ele>1306.2</ele>
        <time>2023-01-14T11:44:31Z</time>
      </trkpt>
      <trkpt lat="42.6811020" lon="-0.5014500">
        <ele>1305.6</ele>
        <time>2023-01-14T11:44:32Z</time>
      </trkpt>
      <trkpt lat="42.6811170" lon="-0.5015460">
        <ele>1304.8</ele>
        <time>2023-01-14T11:44:33Z</time>
      </trkpt>
      <trkpt lat="42.6811390" lon="-0.5016440">
        <ele>1304.0</ele>
        <time>2023-01-14T11:44:34Z</time>
      </trkpt>
      <trkpt lat="42.6811670" lon="-0.5017470">
        <ele>1302.8</ele>
        <time>2023-01-14T11:44:35Z</time>
      </trkpt>
      <trkpt lat="42.6811880" lon="-0.5018530">
        <ele>1302.0</ele>
        <time>2023-01-14T11:44:36Z</time>
      </trkpt>
      <trkpt lat="42.6811890" lon="-0.5019630">
        <ele>1301.4</ele>
        <time>2023-01-14T11:44:37Z</time>
      </trkpt>
      <trkpt lat="42.6811740" lon="-0.5020690">
        <ele>1301.0</ele>
        <time>2023-01-14T11:44:38Z</time>
      </trkpt>
      <trkpt lat="42.6811260" lon="-0.5022720">
        <ele>1299.8</ele>
        <time>2023-01-14T11:44:39Z</time>
      </trkpt>
      <trkpt lat="42.6811200" lon="-0.5023260">
        <ele>1299.0</ele>
        <time>2023-01-14T11:44:40Z</time>
      </trkpt>
      <trkpt lat="42.6811130" lon="-0.5023810">
        <ele>1298.0</ele>
        <time>2023-01-14T11:44:41Z</time>
      </trkpt>
      <trkpt lat="42.6811090" lon="-0.5024970">
        <ele>1296.4</ele>
        <time>2023-01-14T11:44:42Z</time>
      </trkpt>
      <trkpt lat="42.6811130" lon="-0.5026170">
        <ele>1295.4</ele>
        <time>2023-01-14T11:44:43Z</time>
      </trkpt>
      <trkpt lat="42.6811210" lon="-0.5027400">
        <ele>1294.4</ele>
        <time>2023-01-14T11:44:44Z</time>
      </trkpt>
      <trkpt lat="42.6811330" lon="-0.5028670">
        <ele>1293.4</ele>
        <time>2023-01-14T11:44:45Z</time>
      </trkpt>
      <trkpt lat="42.6811470" lon="-0.5029910">
        <ele>1292.4</ele>
        <time>2023-01-14T11:44:46Z</time>
      </trkpt>
      <trkpt lat="42.6811650" lon="-0.5031200">
        <ele>1291.6</ele>
        <time>2023-01-14T11:44:47Z</time>
      </trkpt>
      <trkpt lat="42.6811810" lon="-0.5032510">
        <ele>1291.2</ele>
        <time>2023-01-14T11:44:48Z</time>
      </trkpt>
      <trkpt lat="42.6811950" lon="-0.5033850">
        <ele>1290.6</ele>
        <time>2023-01-14T11:44:49Z</time>
      </trkpt>
      <trkpt lat="42.6812150" lon="-0.5035190">
        <ele>1289.6</ele>
        <time>2023-01-14T11:44:50Z</time>
      </trkpt>
      <trkpt lat="42.6812320" lon="-0.5036490">
        <ele>1289.0</ele>
        <time>2023-01-14T11:44:51Z</time>
      </trkpt>
      <trkpt lat="42.6812450" lon="-0.5037790">
        <ele>1288.8</ele>
        <time>2023-01-14T11:44:52Z</time>
      </trkpt>
      <trkpt lat="42.6812520" lon="-0.5039100">
        <ele>1287.8</ele>
        <time>2023-01-14T11:44:53Z</time>
      </trkpt>
      <trkpt lat="42.6812530" lon="-0.5040350">
        <ele>1286.8</ele>
        <time>2023-01-14T11:44:54Z</time>
      </trkpt>
      <trkpt lat="42.6812360" lon="-0.5042780">
        <ele>1285.8</ele>
        <time>2023-01-14T11:44:55Z</time>
      </trkpt>
      <trkpt lat="42.6812150" lon="-0.5044020">
        <ele>1285.2</ele>
        <time>2023-01-14T11:44:56Z</time>
      </trkpt>
      <trkpt lat="42.6812020" lon="-0.5044600">
        <ele>1284.8</ele>
        <time>2023-01-14T11:44:57Z</time>
      </trkpt>
      <trkpt lat="42.6811890" lon="-0.5045190">
        <ele>1284.6</ele>
        <time>2023-01-14T11:44:58Z</time>
      </trkpt>
      <trkpt lat="42.6811610" lon="-0.5046300">
        <ele>1283.8</ele>
        <time>2023-01-14T11:44:59Z</time>
      </trkpt>
      <trkpt lat="42.6810950" lon="-0.5048310">
        <ele>1283.2</ele>
        <time>2023-01-14T11:45:00Z</time>
      </trkpt>
      <trkpt lat="42.6810780" lon="-0.5049230">
        <ele>1282.8</ele>
        <time>2023-01-14T11:45:01Z</time>
      </trkpt>
      <trkpt lat="42.6810720" lon="-0.5049650">
        <ele>1282.4</ele>
        <time>2023-01-14T11:45:02Z</time>
      </trkpt>
      <trkpt lat="42.6810660" lon="-0.5050070">
        <ele>1282.2</ele>
        <time>2023-01-14T11:45:03Z</time>
      </trkpt>
      <trkpt lat="42.6810520" lon="-0.5050880">
        <ele>1281.6</ele>
        <time>2023-01-14T11:45:04Z</time>
      </trkpt>
      <trkpt lat="42.6810400" lon="-0.5051690">
        <ele>1281.2</ele>
        <time>2023-01-14T11:45:05Z</time>
      </trkpt>
      <trkpt lat="42.6810290" lon="-0.5052400">
        <ele>1281.0</ele>
        <time>2023-01-14T11:45:06Z</time>
      </trkpt>
      <trkpt lat="42.6810150" lon="-0.5053070">
        <ele>1280.8</ele>
        <time>2023-01-14T11:45:07Z</time>
      </trkpt>
      <trkpt lat="42.6810030" lon="-0.5053610">
        <ele>1280.8</ele>
        <time>2023-01-14T11:45:08Z</time>
      </trkpt>
      <trkpt lat="42.6809920" lon="-0.5054140">
        <ele>1280.6</ele>
        <time>2023-01-14T11:45:09Z</time>
      </trkpt>
      <trkpt lat="42.6809840" lon="-0.5054620">
        <ele>1280.6</ele>
        <time>2023-01-14T11:45:10Z</time>
      </trkpt>
      <trkpt lat="42.6809730" lon="-0.5055110">
        <ele>1280.6</ele>
        <time>2023-01-14T11:45:11Z</time>
      </trkpt>
      <trkpt lat="42.6809610" lon="-0.5055620">
        <ele>1280.6</ele>
        <time>2023-01-14T11:45:12Z</time>
      </trkpt>
      <trkpt lat="42.6809460" lon="-0.5056130">
        <ele>1280.6</ele>
        <time>2023-01-14T11:45:13Z</time>
      </trkpt>
      <trkpt lat="42.6809060" lon="-0.5056970">
        <ele>1280.6</ele>
        <time>2023-01-14T11:45:14Z</time>
      </trkpt>
      <trkpt lat="42.6809060" lon="-0.5056970">
        <ele>1280.6</ele>
        <time>2023-01-14T11:45:15Z</time>
      </trkpt>
      <trkpt lat="42.6808900" lon="-0.5057300">
        <ele>1280.6</ele>
        <time>2023-01-14T11:45:16Z</time>
      </trkpt>
      <trkpt lat="42.6808790" lon="-0.5057590">
        <ele>1280.6</ele>
        <time>2023-01-14T11:45:17Z</time>
      </trkpt>
      <trkpt lat="42.6808650" lon="-0.5057870">
        <ele>1280.6</ele>
        <time>2023-01-14T11:45:18Z</time>
      </trkpt>
      <trkpt lat="42.6808590" lon="-0.5058070">
        <ele>1280.8</ele>
        <time>2023-01-14T11:45:19Z</time>
      </trkpt>
      <trkpt lat="42.6808500" lon="-0.5058270">
        <ele>1280.8</ele>
        <time>2023-01-14T11:45:20Z</time>
      </trkpt>
      <trkpt lat="42.6808330" lon="-0.5058740">
        <ele>1281.0</ele>
        <time>2023-01-14T11:45:21Z</time>
      </trkpt>
      <trkpt lat="42.6808330" lon="-0.5058740">
        <ele>1281.0</ele>
        <time>2023-01-14T11:45:22Z</time>
      </trkpt>
      <trkpt lat="42.6808250" lon="-0.5058940">
        <ele>1281.2</ele>
        <time>2023-01-14T11:45:23Z</time>
      </trkpt>
      <trkpt lat="42.6808250" lon="-0.5059120">
        <ele>1281.2</ele>
        <time>2023-01-14T11:45:24Z</time>
      </trkpt>
      <trkpt lat="42.6808270" lon="-0.5059310">
        <ele>1281.2</ele>
        <time>2023-01-14T11:45:25Z</time>
      </trkpt>
      <trkpt lat="42.6808230" lon="-0.5059540">
        <ele>1281.2</ele>
        <time>2023-01-14T11:45:26Z</time>
      </trkpt>
      <trkpt lat="42.6808080" lon="-0.5060130">
        <ele>1281.2</ele>
        <time>2023-01-14T11:45:27Z</time>
      </trkpt>
      <trkpt lat="42.6807910" lon="-0.5060680">
        <ele>1281.2</ele>
        <time>2023-01-14T11:45:28Z</time>
      </trkpt>
      <trkpt lat="42.6807910" lon="-0.5060680">
        <ele>1281.4</ele>
        <time>2023-01-14T11:45:29Z</time>
      </trkpt>
      <trkpt lat="42.6807770" lon="-0.5061020">
        <ele>1281.8</ele>
        <time>2023-01-14T11:45:30Z</time>
      </trkpt>
      <trkpt lat="42.6807660" lon="-0.5061440">
        <ele>1282.0</ele>
        <time>2023-01-14T11:45:31Z</time>
      </trkpt>
      <trkpt lat="42.6807550" lon="-0.5061900">
        <ele>1282.0</ele>
        <time>2023-01-14T11:45:32Z</time>
      </trkpt>
      <trkpt lat="42.6807400" lon="-0.5062490">
        <ele>1282.0</ele>
        <time>2023-01-14T11:45:33Z</time>
      </trkpt>
      <trkpt lat="42.6807320" lon="-0.5063060">
        <ele>1282.0</ele>
        <time>2023-01-14T11:45:34Z</time>
      </trkpt>
      <trkpt lat="42.6807320" lon="-0.5063510">
        <ele>1282.0</ele>
        <time>2023-01-14T11:45:35Z</time>
      </trkpt>
      <trkpt lat="42.6807310" lon="-0.5063970">
        <ele>1282.0</ele>
        <time>2023-01-14T11:45:36Z</time>
      </trkpt>
      <trkpt lat="42.6807280" lon="-0.5064560">
        <ele>1282.0</ele>
        <time>2023-01-14T11:45:37Z</time>
      </trkpt>
      <trkpt lat="42.6807240" lon="-0.5065140">
        <ele>1282.0</ele>
        <time>2023-01-14T11:45:38Z</time>
      </trkpt>
      <trkpt lat="42.6807250" lon="-0.5065750">
        <ele>1282.2</ele>
        <time>2023-01-14T11:45:39Z</time>
      </trkpt>
      <trkpt lat="42.6807300" lon="-0.5066310">
        <ele>1282.2</ele>
        <time>2023-01-14T11:45:40Z</time>
      </trkpt>
      <trkpt lat="42.6807280" lon="-0.5066930">
        <ele>1282.2</ele>
        <time>2023-01-14T11:45:41Z</time>
      </trkpt>
      <trkpt lat="42.6807270" lon="-0.5067550">
        <ele>1282.2</ele>
        <time>2023-01-14T11:45:42Z</time>
      </trkpt>
      <trkpt lat="42.6807290" lon="-0.5068130">
        <ele>1282.2</ele>
        <time>2023-01-14T11:45:43Z</time>
      </trkpt>
      <trkpt lat="42.6807290" lon="-0.5068680">
        <ele>1282.2</ele>
        <time>2023-01-14T11:45:44Z</time>
      </trkpt>
      <trkpt lat="42.6807210" lon="-0.5069220">
        <ele>1282.2</ele>
        <time>2023-01-14T11:45:45Z</time>
      </trkpt>
      <trkpt lat="42.6807160" lon="-0.5069760">
        <ele>1282.0</ele>
        <time>2023-01-14T11:45:46Z</time>
      </trkpt>
      <trkpt lat="42.6807160" lon="-0.5070240">
        <ele>1282.0</ele>
        <time>2023-01-14T11:45:47Z</time>
      </trkpt>
      <trkpt lat="42.6807210" lon="-0.5070740">
        <ele>1282.0</ele>
        <time>2023-01-14T11:45:48Z</time>
      </trkpt>
      <trkpt lat="42.6807250" lon="-0.5071240">
        <ele>1282.0</ele>
        <time>2023-01-14T11:45:49Z</time>
      </trkpt>
      <trkpt lat="42.6807340" lon="-0.5071640">
        <ele>1282.0</ele>
        <time>2023-01-14T11:45:50Z</time>
      </trkpt>
      <trkpt lat="42.6807290" lon="-0.5071990">
        <ele>1282.0</ele>
        <time>2023-01-14T11:45:51Z</time>
      </trkpt>
      <trkpt lat="42.6807230" lon="-0.5072480">
        <ele>1282.0</ele>
        <time>2023-01-14T11:45:52Z</time>
      </trkpt>
      <trkpt lat="42.6807220" lon="-0.5073490">
        <ele>1282.0</ele>
        <time>2023-01-14T11:45:53Z</time>
      </trkpt>
      <trkpt lat="42.6807220" lon="-0.5073740">
        <ele>1282.0</ele>
        <time>2023-01-14T11:45:54Z</time>
      </trkpt>
      <trkpt lat="42.6807210" lon="-0.5074000">
        <ele>1282.0</ele>
        <time>2023-01-14T11:45:55Z</time>
      </trkpt>
      <trkpt lat="42.6807150" lon="-0.5074530">
        <ele>1282.0</ele>
        <time>2023-01-14T11:45:56Z</time>
      </trkpt>
      <trkpt lat="42.6807060" lon="-0.5074900">
        <ele>1282.0</ele>
        <time>2023-01-14T11:45:57Z</time>
      </trkpt>
      <trkpt lat="42.6807080" lon="-0.5075310">
        <ele>1281.8</ele>
        <time>2023-01-14T11:45:58Z</time>
      </trkpt>
      <trkpt lat="42.6807180" lon="-0.5075730">
        <ele>1281.8</ele>
        <time>2023-01-14T11:45:59Z</time>
      </trkpt>
      <trkpt lat="42.6807220" lon="-0.5076190">
        <ele>1281.8</ele>
        <time>2023-01-14T11:46:00Z</time>
      </trkpt>
      <trkpt lat="42.6807240" lon="-0.5076650">
        <ele>1281.8</ele>
        <time>2023-01-14T11:46:01Z</time>
      </trkpt>
      <trkpt lat="42.6807270" lon="-0.5077100">
        <ele>1281.8</ele>
        <time>2023-01-14T11:46:02Z</time>
      </trkpt>
      <trkpt lat="42.6807360" lon="-0.5078100">
        <ele>1281.8</ele>
        <time>2023-01-14T11:46:03Z</time>
      </trkpt>
      <trkpt lat="42.6807470" lon="-0.5078480">
        <ele>1281.8</ele>
        <time>2023-01-14T11:46:04Z</time>
      </trkpt>
      <trkpt lat="42.6807590" lon="-0.5079010">
        <ele>1281.8</ele>
        <time>2023-01-14T11:46:05Z</time>
      </trkpt>
      <trkpt lat="42.6807700" lon="-0.5079590">
        <ele>1281.8</ele>
        <time>2023-01-14T11:46:06Z</time>
      </trkpt>
      <trkpt lat="42.6807820" lon="-0.5080110">
        <ele>1281.6</ele>
        <time>2023-01-14T11:46:07Z</time>
      </trkpt>
      <trkpt lat="42.6807930" lon="-0.5080620">
        <ele>1281.6</ele>
        <time>2023-01-14T11:46:08Z</time>
      </trkpt>
      <trkpt lat="42.6808090" lon="-0.5081150">
        <ele>1281.6</ele>
        <time>2023-01-14T11:46:09Z</time>
      </trkpt>
      <trkpt lat="42.6808150" lon="-0.5081790">
        <ele>1281.6</ele>
        <time>2023-01-14T11:46:10Z</time>
      </trkpt>
      <trkpt lat="42.6808210" lon="-0.5082300">
        <ele>1281.6</ele>
        <time>2023-01-14T11:46:11Z</time>
      </trkpt>
      <trkpt lat="42.6808270" lon="-0.5082780">
        <ele>1281.6</ele>
        <time>2023-01-14T11:46:12Z</time>
      </trkpt>
      <trkpt lat="42.6808350" lon="-0.5083230">
        <ele>1281.8</ele>
        <time>2023-01-14T11:46:13Z</time>
      </trkpt>
      <trkpt lat="42.6808450" lon="-0.5083670">
        <ele>1281.8</ele>
        <time>2023-01-14T11:46:14Z</time>
      </trkpt>
      <trkpt lat="42.6808550" lon="-0.5084140">
        <ele>1281.8</ele>
        <time>2023-01-14T11:46:15Z</time>
      </trkpt>
      <trkpt lat="42.6808680" lon="-0.5084590">
        <ele>1282.0</ele>
        <time>2023-01-14T11:46:16Z</time>
      </trkpt>
      <trkpt lat="42.6808810" lon="-0.5085010">
        <ele>1282.0</ele>
        <time>2023-01-14T11:46:17Z</time>
      </trkpt>
      <trkpt lat="42.6808930" lon="-0.5085480">
        <ele>1281.8</ele>
        <time>2023-01-14T11:46:18Z</time>
      </trkpt>
      <trkpt lat="42.6809050" lon="-0.5085890">
        <ele>1281.6</ele>
        <time>2023-01-14T11:46:19Z</time>
      </trkpt>
      <trkpt lat="42.6809160" lon="-0.5086390">
        <ele>1281.6</ele>
        <time>2023-01-14T11:46:20Z</time>
      </trkpt>
      <trkpt lat="42.6809190" lon="-0.5086920">
        <ele>1281.4</ele>
        <time>2023-01-14T11:46:21Z</time>
      </trkpt>
      <trkpt lat="42.6809170" lon="-0.5087470">
        <ele>1281.2</ele>
        <time>2023-01-14T11:46:22Z</time>
      </trkpt>
      <trkpt lat="42.6809160" lon="-0.5088020">
        <ele>1281.0</ele>
        <time>2023-01-14T11:46:23Z</time>
      </trkpt>
      <trkpt lat="42.6809160" lon="-0.5088610">
        <ele>1281.0</ele>
        <time>2023-01-14T11:46:24Z</time>
      </trkpt>
      <trkpt lat="42.6809240" lon="-0.5089210">
        <ele>1280.6</ele>
        <time>2023-01-14T11:46:25Z</time>
      </trkpt>
      <trkpt lat="42.6809310" lon="-0.5089840">
        <ele>1280.6</ele>
        <time>2023-01-14T11:46:26Z</time>
      </trkpt>
      <trkpt lat="42.6809450" lon="-0.5090450">
        <ele>1280.4</ele>
        <time>2023-01-14T11:46:27Z</time>
      </trkpt>
      <trkpt lat="42.6809530" lon="-0.5091070">
        <ele>1280.0</ele>
        <time>2023-01-14T11:46:28Z</time>
      </trkpt>
      <trkpt lat="42.6809600" lon="-0.5091700">
        <ele>1279.8</ele>
        <time>2023-01-14T11:46:29Z</time>
      </trkpt>
      <trkpt lat="42.6809780" lon="-0.5092440">
        <ele>1279.4</ele>
        <time>2023-01-14T11:46:30Z</time>
      </trkpt>
      <trkpt lat="42.6809910" lon="-0.5093190">
        <ele>1279.2</ele>
        <time>2023-01-14T11:46:31Z</time>
      </trkpt>
      <trkpt lat="42.6810180" lon="-0.5093940">
        <ele>1279.0</ele>
        <time>2023-01-14T11:46:32Z</time>
      </trkpt>
      <trkpt lat="42.6810390" lon="-0.5094840">
        <ele>1278.6</ele>
        <time>2023-01-14T11:46:33Z</time>
      </trkpt>
      <trkpt lat="42.6810630" lon="-0.5095820">
        <ele>1278.2</ele>
        <time>2023-01-14T11:46:34Z</time>
      </trkpt>
      <trkpt lat="42.6810910" lon="-0.5096770">
        <ele>1277.6</ele>
        <time>2023-01-14T11:46:35Z</time>
      </trkpt>
      <trkpt lat="42.6811200" lon="-0.5097690">
        <ele>1277.2</ele>
        <time>2023-01-14T11:46:36Z</time>
      </trkpt>
      <trkpt lat="42.6811520" lon="-0.5098580">
        <ele>1276.6</ele>
        <time>2023-01-14T11:46:37Z</time>
      </trkpt>
      <trkpt lat="42.6811950" lon="-0.5099440">
        <ele>1276.4</ele>
        <time>2023-01-14T11:46:38Z</time>
      </trkpt>
      <trkpt lat="42.6812440" lon="-0.5100490">
        <ele>1276.2</ele>
        <time>2023-01-14T11:46:39Z</time>
      </trkpt>
      <trkpt lat="42.6812910" lon="-0.5101660">
        <ele>1276.0</ele>
        <time>2023-01-14T11:46:40Z</time>
      </trkpt>
      <trkpt lat="42.6813400" lon="-0.5102800">
        <ele>1275.8</ele>
        <time>2023-01-14T11:46:41Z</time>
      </trkpt>
      <trkpt lat="42.6813810" lon="-0.5104120">
        <ele>1275.8</ele>
        <time>2023-01-14T11:46:42Z</time>
      </trkpt>
      <trkpt lat="42.6814010" lon="-0.5105630">
        <ele>1275.6</ele>
        <time>2023-01-14T11:46:43Z</time>
      </trkpt>
      <trkpt lat="42.6814100" lon="-0.5107140">
        <ele>1275.6</ele>
        <time>2023-01-14T11:46:44Z</time>
      </trkpt>
      <trkpt lat="42.6814190" lon="-0.5108590">
        <ele>1275.4</ele>
        <time>2023-01-14T11:46:45Z</time>
      </trkpt>
      <trkpt lat="42.6814230" lon="-0.5109830">
        <ele>1275.2</ele>
        <time>2023-01-14T11:46:46Z</time>
      </trkpt>
      <trkpt lat="42.6814310" lon="-0.5110870">
        <ele>1274.0</ele>
        <time>2023-01-14T11:46:47Z</time>
      </trkpt>
      <trkpt lat="42.6814480" lon="-0.5111770">
        <ele>1272.2</ele>
        <time>2023-01-14T11:46:48Z</time>
      </trkpt>
      <trkpt lat="42.6814750" lon="-0.5112560">
        <ele>1271.2</ele>
        <time>2023-01-14T11:46:49Z</time>
      </trkpt>
      <trkpt lat="42.6815050" lon="-0.5113360">
        <ele>1269.6</ele>
        <time>2023-01-14T11:46:50Z</time>
      </trkpt>
      <trkpt lat="42.6815330" lon="-0.5114160">
        <ele>1268.0</ele>
        <time>2023-01-14T11:46:51Z</time>
      </trkpt>
      <trkpt lat="42.6815890" lon="-0.5115180">
        <ele>1267.0</ele>
        <time>2023-01-14T11:46:52Z</time>
      </trkpt>
      <trkpt lat="42.6816370" lon="-0.5116120">
        <ele>1266.4</ele>
        <time>2023-01-14T11:46:53Z</time>
      </trkpt>
      <trkpt lat="42.6816710" lon="-0.5117120">
        <ele>1266.0</ele>
        <time>2023-01-14T11:46:54Z</time>
      </trkpt>
      <trkpt lat="42.6817010" lon="-0.5118490">
        <ele>1265.8</ele>
        <time>2023-01-14T11:46:55Z</time>
      </trkpt>
      <trkpt lat="42.6817190" lon="-0.5119810">
        <ele>1265.0</ele>
        <time>2023-01-14T11:46:56Z</time>
      </trkpt>
      <trkpt lat="42.6817340" lon="-0.5121060">
        <ele>1264.2</ele>
        <time>2023-01-14T11:46:57Z</time>
      </trkpt>
      <trkpt lat="42.6817500" lon="-0.5122210">
        <ele>1263.8</ele>
        <time>2023-01-14T11:46:58Z</time>
      </trkpt>
      <trkpt lat="42.6817790" lon="-0.5123340">
        <ele>1263.0</ele>
        <time>2023-01-14T11:46:59Z</time>
      </trkpt>
      <trkpt lat="42.6818260" lon="-0.5124460">
        <ele>1262.4</ele>
        <time>2023-01-14T11:47:00Z</time>
      </trkpt>
      <trkpt lat="42.6818600" lon="-0.5125580">
        <ele>1262.0</ele>
        <time>2023-01-14T11:47:01Z</time>
      </trkpt>
      <trkpt lat="42.6818940" lon="-0.5126650">
        <ele>1261.8</ele>
        <time>2023-01-14T11:47:02Z</time>
      </trkpt>
      <trkpt lat="42.6819180" lon="-0.5127820">
        <ele>1261.6</ele>
        <time>2023-01-14T11:47:03Z</time>
      </trkpt>
      <trkpt lat="42.6819570" lon="-0.5128920">
        <ele>1261.4</ele>
        <time>2023-01-14T11:47:04Z</time>
      </trkpt>
      <trkpt lat="42.6819850" lon="-0.5130000">
        <ele>1260.6</ele>
        <time>2023-01-14T11:47:05Z</time>
      </trkpt>
      <trkpt lat="42.6820080" lon="-0.5131110">
        <ele>1259.0</ele>
        <time>2023-01-14T11:47:06Z</time>
      </trkpt>
      <trkpt lat="42.6820390" lon="-0.5132230">
        <ele>1257.6</ele>
        <time>2023-01-14T11:47:07Z</time>
      </trkpt>
      <trkpt lat="42.6820760" lon="-0.5133310">
        <ele>1256.0</ele>
        <time>2023-01-14T11:47:08Z</time>
      </trkpt>
      <trkpt lat="42.6821040" lon="-0.5134350">
        <ele>1255.2</ele>
        <time>2023-01-14T11:47:09Z</time>
      </trkpt>
      <trkpt lat="42.6821350" lon="-0.5135460">
        <ele>1253.6</ele>
        <time>2023-01-14T11:47:10Z</time>
      </trkpt>
      <trkpt lat="42.6821600" lon="-0.5136700">
        <ele>1252.0</ele>
        <time>2023-01-14T11:47:11Z</time>
      </trkpt>
      <trkpt lat="42.6821880" lon="-0.5137890">
        <ele>1250.6</ele>
        <time>2023-01-14T11:47:12Z</time>
      </trkpt>
      <trkpt lat="42.6822040" lon="-0.5138990">
        <ele>1249.4</ele>
        <time>2023-01-14T11:47:13Z</time>
      </trkpt>
      <trkpt lat="42.6822060" lon="-0.5139930">
        <ele>1247.4</ele>
        <time>2023-01-14T11:47:14Z</time>
      </trkpt>
      <trkpt lat="42.6822050" lon="-0.5140780">
        <ele>1245.8</ele>
        <time>2023-01-14T11:47:15Z</time>
      </trkpt>
      <trkpt lat="42.6822010" lon="-0.5141640">
        <ele>1244.6</ele>
        <time>2023-01-14T11:47:16Z</time>
      </trkpt>
      <trkpt lat="42.6821920" lon="-0.5142470">
        <ele>1243.4</ele>
        <time>2023-01-14T11:47:17Z</time>
      </trkpt>
      <trkpt lat="42.6821850" lon="-0.5143280">
        <ele>1242.6</ele>
        <time>2023-01-14T11:47:18Z</time>
      </trkpt>
      <trkpt lat="42.6821800" lon="-0.5144100">
        <ele>1241.4</ele>
        <time>2023-01-14T11:47:19Z</time>
      </trkpt>
      <trkpt lat="42.6821590" lon="-0.5145060">
        <ele>1239.6</ele>
        <time>2023-01-14T11:47:20Z</time>
      </trkpt>
      <trkpt lat="42.6821280" lon="-0.5146140">
        <ele>1238.6</ele>
        <time>2023-01-14T11:47:21Z</time>
      </trkpt>
      <trkpt lat="42.6821080" lon="-0.5147010">
        <ele>1237.4</ele>
        <time>2023-01-14T11:47:22Z</time>
      </trkpt>
      <trkpt lat="42.6820790" lon="-0.5148140">
        <ele>1236.0</ele>
        <time>2023-01-14T11:47:23Z</time>
      </trkpt>
      <trkpt lat="42.6820570" lon="-0.5149080">
        <ele>1234.8</ele>
        <time>2023-01-14T11:47:24Z</time>
      </trkpt>
      <trkpt lat="42.6820340" lon="-0.5150040">
        <ele>1233.8</ele>
        <time>2023-01-14T11:47:25Z</time>
      </trkpt>
      <trkpt lat="42.6820090" lon="-0.5151100">
        <ele>1233.2</ele>
        <time>2023-01-14T11:47:26Z</time>
      </trkpt>
      <trkpt lat="42.6819770" lon="-0.5152130">
        <ele>1232.2</ele>
        <time>2023-01-14T11:47:27Z</time>
      </trkpt>
      <trkpt lat="42.6819370" lon="-0.5153230">
        <ele>1231.6</ele>
        <time>2023-01-14T11:47:28Z</time>
      </trkpt>
      <trkpt lat="42.6819010" lon="-0.5154250">
        <ele>1230.8</ele>
        <time>2023-01-14T11:47:29Z</time>
      </trkpt>
      <trkpt lat="42.6818840" lon="-0.5155200">
        <ele>1229.8</ele>
        <time>2023-01-14T11:47:30Z</time>
      </trkpt>
      <trkpt lat="42.6818570" lon="-0.5156120">
        <ele>1229.0</ele>
        <time>2023-01-14T11:47:31Z</time>
      </trkpt>
      <trkpt lat="42.6818210" lon="-0.5156880">
        <ele>1228.4</ele>
        <time>2023-01-14T11:47:32Z</time>
      </trkpt>
      <trkpt lat="42.6817640" lon="-0.5157840">
        <ele>1227.2</ele>
        <time>2023-01-14T11:47:33Z</time>
      </trkpt>
      <trkpt lat="42.6817080" lon="-0.5158820">
        <ele>1226.6</ele>
        <time>2023-01-14T11:47:34Z</time>
      </trkpt>
      <trkpt lat="42.6816570" lon="-0.5159840">
        <ele>1226.2</ele>
        <time>2023-01-14T11:47:35Z</time>
      </trkpt>
      <trkpt lat="42.6816060" lon="-0.5160970">
        <ele>1225.6</ele>
        <time>2023-01-14T11:47:36Z</time>
      </trkpt>
      <trkpt lat="42.6815620" lon="-0.5162110">
        <ele>1225.2</ele>
        <time>2023-01-14T11:47:37Z</time>
      </trkpt>
      <trkpt lat="42.6815280" lon="-0.5163230">
        <ele>1224.8</ele>
        <time>2023-01-14T11:47:38Z</time>
      </trkpt>
      <trkpt lat="42.6815170" lon="-0.5164310">
        <ele>1223.2</ele>
        <time>2023-01-14T11:47:39Z</time>
      </trkpt>
      <trkpt lat="42.6815080" lon="-0.5165430">
        <ele>1222.2</ele>
        <time>2023-01-14T11:47:40Z</time>
      </trkpt>
      <trkpt lat="42.6814960" lon="-0.5166480">
        <ele>1221.4</ele>
        <time>2023-01-14T11:47:41Z</time>
      </trkpt>
      <trkpt lat="42.6814920" lon="-0.5167430">
        <ele>1220.8</ele>
        <time>2023-01-14T11:47:42Z</time>
      </trkpt>
      <trkpt lat="42.6814740" lon="-0.5168270">
        <ele>1220.0</ele>
        <time>2023-01-14T11:47:43Z</time>
      </trkpt>
      <trkpt lat="42.6814540" lon="-0.5169120">
        <ele>1219.2</ele>
        <time>2023-01-14T11:47:44Z</time>
      </trkpt>
      <trkpt lat="42.6814450" lon="-0.5169870">
        <ele>1217.8</ele>
        <time>2023-01-14T11:47:45Z</time>
      </trkpt>
      <trkpt lat="42.6814260" lon="-0.5170550">
        <ele>1217.0</ele>
        <time>2023-01-14T11:47:46Z</time>
      </trkpt>
      <trkpt lat="42.6813990" lon="-0.5171190">
        <ele>1216.8</ele>
        <time>2023-01-14T11:47:47Z</time>
      </trkpt>
      <trkpt lat="42.6813750" lon="-0.5171650">
        <ele>1216.6</ele>
        <time>2023-01-14T11:47:48Z</time>
      </trkpt>
      <trkpt lat="42.6813460" lon="-0.5172230">
        <ele>1216.4</ele>
        <time>2023-01-14T11:47:49Z</time>
      </trkpt>
      <trkpt lat="42.6813200" lon="-0.5172860">
        <ele>1216.4</ele>
        <time>2023-01-14T11:47:50Z</time>
      </trkpt>
      <trkpt lat="42.6812900" lon="-0.5173510">
        <ele>1216.2</ele>
        <time>2023-01-14T11:47:51Z</time>
      </trkpt>
      <trkpt lat="42.6812600" lon="-0.5174160">
        <ele>1216.0</ele>
        <time>2023-01-14T11:47:52Z</time>
      </trkpt>
      <trkpt lat="42.6812510" lon="-0.5174790">
        <ele>1215.8</ele>
        <time>2023-01-14T11:47:53Z</time>
      </trkpt>
      <trkpt lat="42.6812520" lon="-0.5175560">
        <ele>1214.6</ele>
        <time>2023-01-14T11:47:54Z</time>
      </trkpt>
      <trkpt lat="42.6812490" lon="-0.5176410">
        <ele>1213.8</ele>
        <time>2023-01-14T11:47:55Z</time>
      </trkpt>
      <trkpt lat="42.6812490" lon="-0.5177390">
        <ele>1212.8</ele>
        <time>2023-01-14T11:47:56Z</time>
      </trkpt>
      <trkpt lat="42.6812530" lon="-0.5178440">
        <ele>1211.8</ele>
        <time>2023-01-14T11:47:57Z</time>
      </trkpt>
      <trkpt lat="42.6812470" lon="-0.5179510">
        <ele>1211.4</ele>
        <time>2023-01-14T11:47:58Z</time>
      </trkpt>
      <trkpt lat="42.6812370" lon="-0.5180570">
        <ele>1211.0</ele>
        <time>2023-01-14T11:47:59Z</time>
      </trkpt>
      <trkpt lat="42.6812270" lon="-0.5181660">
        <ele>1210.6</ele>
        <time>2023-01-14T11:48:00Z</time>
      </trkpt>
      <trkpt lat="42.6812220" lon="-0.5182710">
        <ele>1209.2</ele>
        <time>2023-01-14T11:48:01Z</time>
      </trkpt>
      <trkpt lat="42.6812210" lon="-0.5183680">
        <ele>1208.4</ele>
        <time>2023-01-14T11:48:02Z</time>
      </trkpt>
      <trkpt lat="42.6812160" lon="-0.5184700">
        <ele>1207.8</ele>
        <time>2023-01-14T11:48:03Z</time>
      </trkpt>
      <trkpt lat="42.6812030" lon="-0.5185710">
        <ele>1207.4</ele>
        <time>2023-01-14T11:48:04Z</time>
      </trkpt>
      <trkpt lat="42.6811960" lon="-0.5186730">
        <ele>1206.8</ele>
        <time>2023-01-14T11:48:05Z</time>
      </trkpt>
      <trkpt lat="42.6811920" lon="-0.5187910">
        <ele>1206.4</ele>
        <time>2023-01-14T11:48:06Z</time>
      </trkpt>
      <trkpt lat="42.6811900" lon="-0.5189100">
        <ele>1206.2</ele>
        <time>2023-01-14T11:48:07Z</time>
      </trkpt>
      <trkpt lat="42.6811850" lon="-0.5190200">
        <ele>1204.4</ele>
        <time>2023-01-14T11:48:08Z</time>
      </trkpt>
      <trkpt lat="42.6811750" lon="-0.5191200">
        <ele>1203.2</ele>
        <time>2023-01-14T11:48:09Z</time>
      </trkpt>
      <trkpt lat="42.6811700" lon="-0.5192110">
        <ele>1202.6</ele>
        <time>2023-01-14T11:48:10Z</time>
      </trkpt>
      <trkpt lat="42.6811700" lon="-0.5192820">
        <ele>1201.6</ele>
        <time>2023-01-14T11:48:11Z</time>
      </trkpt>
      <trkpt lat="42.6811650" lon="-0.5193620">
        <ele>1201.2</ele>
        <time>2023-01-14T11:48:12Z</time>
      </trkpt>
      <trkpt lat="42.6811610" lon="-0.5194330">
        <ele>1200.8</ele>
        <time>2023-01-14T11:48:13Z</time>
      </trkpt>
      <trkpt lat="42.6811540" lon="-0.5194850">
        <ele>1200.8</ele>
        <time>2023-01-14T11:48:14Z</time>
      </trkpt>
      <trkpt lat="42.6811590" lon="-0.5195250">
        <ele>1200.8</ele>
        <time>2023-01-14T11:48:15Z</time>
      </trkpt>
      <trkpt lat="42.6811520" lon="-0.5195630">
        <ele>1201.0</ele>
        <time>2023-01-14T11:48:16Z</time>
      </trkpt>
      <trkpt lat="42.6811500" lon="-0.5195980">
        <ele>1201.2</ele>
        <time>2023-01-14T11:48:17Z</time>
      </trkpt>
      <trkpt lat="42.6811580" lon="-0.5196410">
        <ele>1201.4</ele>
        <time>2023-01-14T11:48:18Z</time>
      </trkpt>
      <trkpt lat="42.6811540" lon="-0.5197020">
        <ele>1201.4</ele>
        <time>2023-01-14T11:48:19Z</time>
      </trkpt>
      <trkpt lat="42.6811610" lon="-0.5197920">
        <ele>1201.2</ele>
        <time>2023-01-14T11:48:20Z</time>
      </trkpt>
      <trkpt lat="42.6811550" lon="-0.5198920">
        <ele>1201.2</ele>
        <time>2023-01-14T11:48:21Z</time>
      </trkpt>
      <trkpt lat="42.6811490" lon="-0.5199720">
        <ele>1200.2</ele>
        <time>2023-01-14T11:48:22Z</time>
      </trkpt>
      <trkpt lat="42.6811430" lon="-0.5200330">
        <ele>1199.2</ele>
        <time>2023-01-14T11:48:23Z</time>
      </trkpt>
      <trkpt lat="42.6811310" lon="-0.5200880">
        <ele>1197.2</ele>
        <time>2023-01-14T11:48:24Z</time>
      </trkpt>
      <trkpt lat="42.6811260" lon="-0.5201450">
        <ele>1196.2</ele>
        <time>2023-01-14T11:48:25Z</time>
      </trkpt>
      <trkpt lat="42.6811140" lon="-0.5202020">
        <ele>1193.8</ele>
        <time>2023-01-14T11:48:26Z</time>
      </trkpt>
      <trkpt lat="42.6810930" lon="-0.5202670">
        <ele>1192.4</ele>
        <time>2023-01-14T11:48:27Z</time>
      </trkpt>
      <trkpt lat="42.6810790" lon="-0.5203290">
        <ele>1191.4</ele>
        <time>2023-01-14T11:48:28Z</time>
      </trkpt>
      <trkpt lat="42.6810730" lon="-0.5203930">
        <ele>1189.4</ele>
        <time>2023-01-14T11:48:29Z</time>
      </trkpt>
      <trkpt lat="42.6810780" lon="-0.5204520">
        <ele>1188.2</ele>
        <time>2023-01-14T11:48:30Z</time>
      </trkpt>
      <trkpt lat="42.6810710" lon="-0.5205210">
        <ele>1187.0</ele>
        <time>2023-01-14T11:48:31Z</time>
      </trkpt>
      <trkpt lat="42.6810670" lon="-0.5205980">
        <ele>1185.8</ele>
        <time>2023-01-14T11:48:32Z</time>
      </trkpt>
      <trkpt lat="42.6810530" lon="-0.5206690">
        <ele>1184.6</ele>
        <time>2023-01-14T11:48:33Z</time>
      </trkpt>
      <trkpt lat="42.6810370" lon="-0.5207700">
        <ele>1183.8</ele>
        <time>2023-01-14T11:48:34Z</time>
      </trkpt>
      <trkpt lat="42.6810310" lon="-0.5208600">
        <ele>1182.8</ele>
        <time>2023-01-14T11:48:35Z</time>
      </trkpt>
      <trkpt lat="42.6810180" lon="-0.5209410">
        <ele>1181.2</ele>
        <time>2023-01-14T11:48:36Z</time>
      </trkpt>
      <trkpt lat="42.6810010" lon="-0.5210200">
        <ele>1180.0</ele>
        <time>2023-01-14T11:48:37Z</time>
      </trkpt>
      <trkpt lat="42.6809880" lon="-0.5211010">
        <ele>1179.2</ele>
        <time>2023-01-14T11:48:38Z</time>
      </trkpt>
      <trkpt lat="42.6809690" lon="-0.5211980">
        <ele>1177.6</ele>
        <time>2023-01-14T11:48:39Z</time>
      </trkpt>
      <trkpt lat="42.6809420" lon="-0.5212900">
        <ele>1176.0</ele>
        <time>2023-01-14T11:48:40Z</time>
      </trkpt>
      <trkpt lat="42.6809050" lon="-0.5213810">
        <ele>1175.2</ele>
        <time>2023-01-14T11:48:41Z</time>
      </trkpt>
      <trkpt lat="42.6808650" lon="-0.5214590">
        <ele>1174.4</ele>
        <time>2023-01-14T11:48:42Z</time>
      </trkpt>
      <trkpt lat="42.6808300" lon="-0.5215270">
        <ele>1173.6</ele>
        <time>2023-01-14T11:48:43Z</time>
      </trkpt>
      <trkpt lat="42.6807940" lon="-0.5215940">
        <ele>1173.0</ele>
        <time>2023-01-14T11:48:44Z</time>
      </trkpt>
      <trkpt lat="42.6807610" lon="-0.5216600">
        <ele>1172.8</ele>
        <time>2023-01-14T11:48:45Z</time>
      </trkpt>
      <trkpt lat="42.6807230" lon="-0.5217410">
        <ele>1172.4</ele>
        <time>2023-01-14T11:48:46Z</time>
      </trkpt>
      <trkpt lat="42.6806860" lon="-0.5218300">
        <ele>1172.2</ele>
        <time>2023-01-14T11:48:47Z</time>
      </trkpt>
      <trkpt lat="42.6806490" lon="-0.5219150">
        <ele>1171.2</ele>
        <time>2023-01-14T11:48:48Z</time>
      </trkpt>
      <trkpt lat="42.6806140" lon="-0.5220140">
        <ele>1170.8</ele>
        <time>2023-01-14T11:48:49Z</time>
      </trkpt>
      <trkpt lat="42.6805760" lon="-0.5221280">
        <ele>1169.8</ele>
        <time>2023-01-14T11:48:50Z</time>
      </trkpt>
      <trkpt lat="42.6805410" lon="-0.5222290">
        <ele>1168.2</ele>
        <time>2023-01-14T11:48:51Z</time>
      </trkpt>
      <trkpt lat="42.6804990" lon="-0.5223550">
        <ele>1167.4</ele>
        <time>2023-01-14T11:48:52Z</time>
      </trkpt>
      <trkpt lat="42.6804530" lon="-0.5224870">
        <ele>1166.2</ele>
        <time>2023-01-14T11:48:53Z</time>
      </trkpt>
      <trkpt lat="42.6804100" lon="-0.5225870">
        <ele>1165.2</ele>
        <time>2023-01-14T11:48:54Z</time>
      </trkpt>
      <trkpt lat="42.6803730" lon="-0.5226540">
        <ele>1164.4</ele>
        <time>2023-01-14T11:48:55Z</time>
      </trkpt>
      <trkpt lat="42.6803120" lon="-0.5227520">
        <ele>1163.0</ele>
        <time>2023-01-14T11:48:56Z</time>
      </trkpt>
      <trkpt lat="42.6802530" lon="-0.5228420">
        <ele>1162.4</ele>
        <time>2023-01-14T11:48:57Z</time>
      </trkpt>
      <trkpt lat="42.6801890" lon="-0.5228990">
        <ele>1161.0</ele>
        <time>2023-01-14T11:48:58Z</time>
      </trkpt>
      <trkpt lat="42.6801330" lon="-0.5229340">
        <ele>1159.2</ele>
        <time>2023-01-14T11:48:59Z</time>
      </trkpt>
      <trkpt lat="42.6800710" lon="-0.5229920">
        <ele>1157.8</ele>
        <time>2023-01-14T11:49:00Z</time>
      </trkpt>
      <trkpt lat="42.6800170" lon="-0.5230520">
        <ele>1156.6</ele>
        <time>2023-01-14T11:49:01Z</time>
      </trkpt>
      <trkpt lat="42.6799660" lon="-0.5230940">
        <ele>1155.2</ele>
        <time>2023-01-14T11:49:02Z</time>
      </trkpt>
      <trkpt lat="42.6799220" lon="-0.5231260">
        <ele>1154.4</ele>
        <time>2023-01-14T11:49:03Z</time>
      </trkpt>
      <trkpt lat="42.6798930" lon="-0.5231490">
        <ele>1153.4</ele>
        <time>2023-01-14T11:49:04Z</time>
      </trkpt>
      <trkpt lat="42.6798880" lon="-0.5231620">
        <ele>1152.4</ele>
        <time>2023-01-14T11:49:05Z</time>
      </trkpt>
      <trkpt lat="42.6798960" lon="-0.5231580">
        <ele>1151.0</ele>
        <time>2023-01-14T11:49:06Z</time>
      </trkpt>
      <trkpt lat="42.6799030" lon="-0.5231530">
        <ele>1150.2</ele>
        <time>2023-01-14T11:49:07Z</time>
      </trkpt>
      <trkpt lat="42.6799220" lon="-0.5231240">
        <ele>1149.4</ele>
        <time>2023-01-14T11:49:08Z</time>
      </trkpt>
      <trkpt lat="42.6799450" lon="-0.5231060">
        <ele>1148.8</ele>
        <time>2023-01-14T11:49:09Z</time>
      </trkpt>
      <trkpt lat="42.6799690" lon="-0.5230840">
        <ele>1148.4</ele>
        <time>2023-01-14T11:49:10Z</time>
      </trkpt>
      <trkpt lat="42.6800070" lon="-0.5230780">
        <ele>1148.0</ele>
        <time>2023-01-14T11:49:11Z</time>
      </trkpt>
      <trkpt lat="42.6800550" lon="-0.5230650">
        <ele>1147.2</ele>
        <time>2023-01-14T11:49:12Z</time>
      </trkpt>
      <trkpt lat="42.6801260" lon="-0.5230740">
        <ele>1146.6</ele>
        <time>2023-01-14T11:49:13Z</time>
      </trkpt>
      <trkpt lat="42.6801670" lon="-0.5230660">
        <ele>1145.4</ele>
        <time>2023-01-14T11:49:14Z</time>
      </trkpt>
      <trkpt lat="42.6801900" lon="-0.5230750">
        <ele>1144.6</ele>
        <time>2023-01-14T11:49:15Z</time>
      </trkpt>
      <trkpt lat="42.6802050" lon="-0.5231040">
        <ele>1143.8</ele>
        <time>2023-01-14T11:49:16Z</time>
      </trkpt>
      <trkpt lat="42.6801920" lon="-0.5231390">
        <ele>1142.2</ele>
        <time>2023-01-14T11:49:17Z</time>
      </trkpt>
      <trkpt lat="42.6801700" lon="-0.5231740">
        <ele>1141.2</ele>
        <time>2023-01-14T11:49:18Z</time>
      </trkpt>
      <trkpt lat="42.6801440" lon="-0.5232080">
        <ele>1140.8</ele>
        <time>2023-01-14T11:49:19Z</time>
      </trkpt>
      <trkpt lat="42.6801030" lon="-0.5232490">
        <ele>1140.4</ele>
        <time>2023-01-14T11:49:20Z</time>
      </trkpt>
      <trkpt lat="42.6800630" lon="-0.5232990">
        <ele>1139.4</ele>
        <time>2023-01-14T11:49:21Z</time>
      </trkpt>
      <trkpt lat="42.6800220" lon="-0.5233420">
        <ele>1138.4</ele>
        <time>2023-01-14T11:49:22Z</time>
      </trkpt>
      <trkpt lat="42.6799830" lon="-0.5233640">
        <ele>1137.8</ele>
        <time>2023-01-14T11:49:23Z</time>
      </trkpt>
      <trkpt lat="42.6799370" lon="-0.5233910">
        <ele>1137.4</ele>
        <time>2023-01-14T11:49:24Z</time>
      </trkpt>
      <trkpt lat="42.6799160" lon="-0.5233990">
        <ele>1136.6</ele>
        <time>2023-01-14T11:49:25Z</time>
      </trkpt>
      <trkpt lat="42.6799300" lon="-0.5234150">
        <ele>1135.8</ele>
        <time>2023-01-14T11:49:26Z</time>
      </trkpt>
      <trkpt lat="42.6799440" lon="-0.5234250">
        <ele>1134.8</ele>
        <time>2023-01-14T11:49:27Z</time>
      </trkpt>
      <trkpt lat="42.6799770" lon="-0.5234160">
        <ele>1134.2</ele>
        <time>2023-01-14T11:49:28Z</time>
      </trkpt>
      <trkpt lat="42.6800100" lon="-0.5234010">
        <ele>1133.2</ele>
        <time>2023-01-14T11:49:29Z</time>
      </trkpt>
      <trkpt lat="42.6800440" lon="-0.5233720">
        <ele>1132.6</ele>
        <time>2023-01-14T11:49:30Z</time>
      </trkpt>
      <trkpt lat="42.6800810" lon="-0.5233440">
        <ele>1131.4</ele>
        <time>2023-01-14T11:49:31Z</time>
      </trkpt>
      <trkpt lat="42.6801330" lon="-0.5233420">
        <ele>1130.4</ele>
        <time>2023-01-14T11:49:32Z</time>
      </trkpt>
      <trkpt lat="42.6801860" lon="-0.5233300">
        <ele>1129.8</ele>
        <time>2023-01-14T11:49:33Z</time>
      </trkpt>
      <trkpt lat="42.6802260" lon="-0.5233180">
        <ele>1128.8</ele>
        <time>2023-01-14T11:49:34Z</time>
      </trkpt>
      <trkpt lat="42.6802510" lon="-0.5233290">
        <ele>1127.4</ele>
        <time>2023-01-14T11:49:35Z</time>
      </trkpt>
      <trkpt lat="42.6802680" lon="-0.5233510">
        <ele>1126.2</ele>
        <time>2023-01-14T11:49:36Z</time>
      </trkpt>
      <trkpt lat="42.6802700" lon="-0.5233560">
        <ele>1125.4</ele>
        <time>2023-01-14T11:49:37Z</time>
      </trkpt>
      <trkpt lat="42.6802560" lon="-0.5233800">
        <ele>1124.8</ele>
        <time>2023-01-14T11:49:38Z</time>
      </trkpt>
      <trkpt lat="42.6802330" lon="-0.5234040">
        <ele>1124.4</ele>
        <time>2023-01-14T11:49:39Z</time>
      </trkpt>
      <trkpt lat="42.6802030" lon="-0.5234230">
        <ele>1124.0</ele>
        <time>2023-01-14T11:49:40Z</time>
      </trkpt>
      <trkpt lat="42.6801660" lon="-0.5234610">
        <ele>1123.2</ele>
        <time>2023-01-14T11:49:41Z</time>
      </trkpt>
      <trkpt lat="42.6801300" lon="-0.5235250">
        <ele>1122.6</ele>
        <time>2023-01-14T11:49:42Z</time>
      </trkpt>
      <trkpt lat="42.6800800" lon="-0.5235820">
        <ele>1122.2</ele>
        <time>2023-01-14T11:49:43Z</time>
      </trkpt>
      <trkpt lat="42.6800210" lon="-0.5236440">
        <ele>1120.8</ele>
        <time>2023-01-14T11:49:44Z</time>
      </trkpt>
      <trkpt lat="42.6799650" lon="-0.5237110">
        <ele>1120.2</ele>
        <time>2023-01-14T11:49:45Z</time>
      </trkpt>
      <trkpt lat="42.6799060" lon="-0.5237680">
        <ele>1119.2</ele>
        <time>2023-01-14T11:49:46Z</time>
      </trkpt>
      <trkpt lat="42.6798490" lon="-0.5238200">
        <ele>1118.2</ele>
        <time>2023-01-14T11:49:47Z</time>
      </trkpt>
      <trkpt lat="42.6798040" lon="-0.5238870">
        <ele>1117.2</ele>
        <time>2023-01-14T11:49:48Z</time>
      </trkpt>
      <trkpt lat="42.6797510" lon="-0.5239460">
        <ele>1115.8</ele>
        <time>2023-01-14T11:49:49Z</time>
      </trkpt>
      <trkpt lat="42.6797060" lon="-0.5239850">
        <ele>1114.2</ele>
        <time>2023-01-14T11:49:50Z</time>
      </trkpt>
      <trkpt lat="42.6796870" lon="-0.5240030">
        <ele>1112.6</ele>
        <time>2023-01-14T11:49:51Z</time>
      </trkpt>
      <trkpt lat="42.6796990" lon="-0.5240170">
        <ele>1111.4</ele>
        <time>2023-01-14T11:49:52Z</time>
      </trkpt>
      <trkpt lat="42.6797200" lon="-0.5240210">
        <ele>1110.4</ele>
        <time>2023-01-14T11:49:53Z</time>
      </trkpt>
      <trkpt lat="42.6797490" lon="-0.5240200">
        <ele>1109.8</ele>
        <time>2023-01-14T11:49:54Z</time>
      </trkpt>
      <trkpt lat="42.6797850" lon="-0.5240120">
        <ele>1109.2</ele>
        <time>2023-01-14T11:49:55Z</time>
      </trkpt>
      <trkpt lat="42.6798300" lon="-0.5240080">
        <ele>1108.0</ele>
        <time>2023-01-14T11:49:56Z</time>
      </trkpt>
      <trkpt lat="42.6798840" lon="-0.5239940">
        <ele>1107.2</ele>
        <time>2023-01-14T11:49:57Z</time>
      </trkpt>
      <trkpt lat="42.6799320" lon="-0.5239700">
        <ele>1106.6</ele>
        <time>2023-01-14T11:49:58Z</time>
      </trkpt>
      <trkpt lat="42.6799780" lon="-0.5239350">
        <ele>1106.0</ele>
        <time>2023-01-14T11:49:59Z</time>
      </trkpt>
      <trkpt lat="42.6800210" lon="-0.5239110">
        <ele>1105.4</ele>
        <time>2023-01-14T11:50:00Z</time>
      </trkpt>
      <trkpt lat="42.6800520" lon="-0.5238930">
        <ele>1104.4</ele>
        <time>2023-01-14T11:50:01Z</time>
      </trkpt>
      <trkpt lat="42.6800700" lon="-0.5238860">
        <ele>1103.8</ele>
        <time>2023-01-14T11:50:02Z</time>
      </trkpt>
      <trkpt lat="42.6800830" lon="-0.5238910">
        <ele>1102.4</ele>
        <time>2023-01-14T11:50:03Z</time>
      </trkpt>
      <trkpt lat="42.6800920" lon="-0.5238930">
        <ele>1101.6</ele>
        <time>2023-01-14T11:50:04Z</time>
      </trkpt>
      <trkpt lat="42.6801080" lon="-0.5238960">
        <ele>1101.0</ele>
        <time>2023-01-14T11:50:05Z</time>
      </trkpt>
      <trkpt lat="42.6801230" lon="-0.5238980">
        <ele>1100.6</ele>
        <time>2023-01-14T11:50:06Z</time>
      </trkpt>
      <trkpt lat="42.6801570" lon="-0.5239190">
        <ele>1100.2</ele>
        <time>2023-01-14T11:50:07Z</time>
      </trkpt>
      <trkpt lat="42.6801790" lon="-0.5239620">
        <ele>1100.2</ele>
        <time>2023-01-14T11:50:08Z</time>
      </trkpt>
      <trkpt lat="42.6801760" lon="-0.5239990">
        <ele>1099.8</ele>
        <time>2023-01-14T11:50:09Z</time>
      </trkpt>
      <trkpt lat="42.6801600" lon="-0.5240450">
        <ele>1099.2</ele>
        <time>2023-01-14T11:50:10Z</time>
      </trkpt>
      <trkpt lat="42.6801300" lon="-0.5240860">
        <ele>1098.8</ele>
        <time>2023-01-14T11:50:11Z</time>
      </trkpt>
      <trkpt lat="42.6800870" lon="-0.5241250">
        <ele>1098.4</ele>
        <time>2023-01-14T11:50:12Z</time>
      </trkpt>
      <trkpt lat="42.6800350" lon="-0.5241710">
        <ele>1097.6</ele>
        <time>2023-01-14T11:50:13Z</time>
      </trkpt>
      <trkpt lat="42.6799790" lon="-0.5242140">
        <ele>1096.8</ele>
        <time>2023-01-14T11:50:14Z</time>
      </trkpt>
      <trkpt lat="42.6799140" lon="-0.5242570">
        <ele>1095.8</ele>
        <time>2023-01-14T11:50:15Z</time>
      </trkpt>
      <trkpt lat="42.6798490" lon="-0.5242980">
        <ele>1095.2</ele>
        <time>2023-01-14T11:50:16Z</time>
      </trkpt>
      <trkpt lat="42.6797950" lon="-0.5243320">
        <ele>1094.0</ele>
        <time>2023-01-14T11:50:17Z</time>
      </trkpt>
      <trkpt lat="42.6797750" lon="-0.5243500">
        <ele>1092.6</ele>
        <time>2023-01-14T11:50:18Z</time>
      </trkpt>
      <trkpt lat="42.6797770" lon="-0.5243690">
        <ele>1091.6</ele>
        <time>2023-01-14T11:50:19Z</time>
      </trkpt>
      <trkpt lat="42.6797960" lon="-0.5243650">
        <ele>1090.4</ele>
        <time>2023-01-14T11:50:20Z</time>
      </trkpt>
      <trkpt lat="42.6798150" lon="-0.5243900">
        <ele>1089.8</ele>
        <time>2023-01-14T11:50:21Z</time>
      </trkpt>
      <trkpt lat="42.6798090" lon="-0.5244200">
        <ele>1089.0</ele>
        <time>2023-01-14T11:50:22Z</time>
      </trkpt>
      <trkpt lat="42.6797900" lon="-0.5244150">
        <ele>1088.0</ele>
        <time>2023-01-14T11:50:23Z</time>
      </trkpt>
      <trkpt lat="42.6797480" lon="-0.5244420">
        <ele>1087.4</ele>
        <time>2023-01-14T11:50:24Z</time>
      </trkpt>
      <trkpt lat="42.6796990" lon="-0.5244690">
        <ele>1086.6</ele>
        <time>2023-01-14T11:50:25Z</time>
      </trkpt>
      <trkpt lat="42.6796660" lon="-0.5245100">
        <ele>1085.4</ele>
        <time>2023-01-14T11:50:26Z</time>
      </trkpt>
      <trkpt lat="42.6796740" lon="-0.5245280">
        <ele>1083.8</ele>
        <time>2023-01-14T11:50:27Z</time>
      </trkpt>
      <trkpt lat="42.6797040" lon="-0.5245370">
        <ele>1082.2</ele>
        <time>2023-01-14T11:50:28Z</time>
      </trkpt>
      <trkpt lat="42.6797280" lon="-0.5245330">
        <ele>1081.0</ele>
        <time>2023-01-14T11:50:29Z</time>
      </trkpt>
      <trkpt lat="42.6797490" lon="-0.5245210">
        <ele>1079.8</ele>
        <time>2023-01-14T11:50:30Z</time>
      </trkpt>
      <trkpt lat="42.6797670" lon="-0.5245230">
        <ele>1079.2</ele>
        <time>2023-01-14T11:50:31Z</time>
      </trkpt>
      <trkpt lat="42.6797670" lon="-0.5245420">
        <ele>1078.2</ele>
        <time>2023-01-14T11:50:32Z</time>
      </trkpt>
      <trkpt lat="42.6797470" lon="-0.5245720">
        <ele>1077.2</ele>
        <time>2023-01-14T11:50:33Z</time>
      </trkpt>
      <trkpt lat="42.6797190" lon="-0.5246130">
        <ele>1076.6</ele>
        <time>2023-01-14T11:50:34Z</time>
      </trkpt>
      <trkpt lat="42.6796940" lon="-0.5246590">
        <ele>1075.8</ele>
        <time>2023-01-14T11:50:35Z</time>
      </trkpt>
      <trkpt lat="42.6796580" lon="-0.5247080">
        <ele>1074.4</ele>
        <time>2023-01-14T11:50:36Z</time>
      </trkpt>
      <trkpt lat="42.6796150" lon="-0.5247600">
        <ele>1072.8</ele>
        <time>2023-01-14T11:50:37Z</time>
      </trkpt>
      <trkpt lat="42.6795670" lon="-0.5248180">
        <ele>1071.4</ele>
        <time>2023-01-14T11:50:38Z</time>
      </trkpt>
      <trkpt lat="42.6795240" lon="-0.5248790">
        <ele>1070.6</ele>
        <time>2023-01-14T11:50:39Z</time>
      </trkpt>
      <trkpt lat="42.6794810" lon="-0.5249410">
        <ele>1069.2</ele>
        <time>2023-01-14T11:50:40Z</time>
      </trkpt>
      <trkpt lat="42.6794380" lon="-0.5249900">
        <ele>1067.0</ele>
        <time>2023-01-14T11:50:41Z</time>
      </trkpt>
      <trkpt lat="42.6793790" lon="-0.5250540">
        <ele>1066.0</ele>
        <time>2023-01-14T11:50:42Z</time>
      </trkpt>
      <trkpt lat="42.6793220" lon="-0.5251120">
        <ele>1065.4</ele>
        <time>2023-01-14T11:50:43Z</time>
      </trkpt>
      <trkpt lat="42.6792740" lon="-0.5251700">
        <ele>1064.2</ele>
        <time>2023-01-14T11:50:44Z</time>
      </trkpt>
      <trkpt lat="42.6792340" lon="-0.5252420">
        <ele>1062.6</ele>
        <time>2023-01-14T11:50:45Z</time>
      </trkpt>
      <trkpt lat="42.6791960" lon="-0.5253200">
        <ele>1061.6</ele>
        <time>2023-01-14T11:50:46Z</time>
      </trkpt>
      <trkpt lat="42.6791640" lon="-0.5253990">
        <ele>1060.0</ele>
        <time>2023-01-14T11:50:47Z</time>
      </trkpt>
      <trkpt lat="42.6791410" lon="-0.5254930">
        <ele>1059.0</ele>
        <time>2023-01-14T11:50:48Z</time>
      </trkpt>
      <trkpt lat="42.6791190" lon="-0.5255790">
        <ele>1057.6</ele>
        <time>2023-01-14T11:50:49Z</time>
      </trkpt>
      <trkpt lat="42.6790970" lon="-0.5256570">
        <ele>1056.0</ele>
        <time>2023-01-14T11:50:50Z</time>
      </trkpt>
      <trkpt lat="42.6790720" lon="-0.5257300">
        <ele>1054.2</ele>
        <time>2023-01-14T11:50:51Z</time>
      </trkpt>
      <trkpt lat="42.6790500" lon="-0.5257840">
        <ele>1052.6</ele>
        <time>2023-01-14T11:50:52Z</time>
      </trkpt>
      <trkpt lat="42.6790230" lon="-0.5258450">
        <ele>1051.2</ele>
        <time>2023-01-14T11:50:53Z</time>
      </trkpt>
      <trkpt lat="42.6790010" lon="-0.5259070">
        <ele>1049.4</ele>
        <time>2023-01-14T11:50:54Z</time>
      </trkpt>
      <trkpt lat="42.6789820" lon="-0.5259640">
        <ele>1047.0</ele>
        <time>2023-01-14T11:50:55Z</time>
      </trkpt>
      <trkpt lat="42.6789510" lon="-0.5260140">
        <ele>1045.6</ele>
        <time>2023-01-14T11:50:56Z</time>
      </trkpt>
      <trkpt lat="42.6789120" lon="-0.5260590">
        <ele>1044.6</ele>
        <time>2023-01-14T11:50:57Z</time>
      </trkpt>
      <trkpt lat="42.6788740" lon="-0.5260940">
        <ele>1043.2</ele>
        <time>2023-01-14T11:50:58Z</time>
      </trkpt>
      <trkpt lat="42.6788460" lon="-0.5261320">
        <ele>1042.2</ele>
        <time>2023-01-14T11:50:59Z</time>
      </trkpt>
      <trkpt lat="42.6788270" lon="-0.5261730">
        <ele>1041.6</ele>
        <time>2023-01-14T11:51:00Z</time>
      </trkpt>
      <trkpt lat="42.6788330" lon="-0.5261960">
        <ele>1040.6</ele>
        <time>2023-01-14T11:51:01Z</time>
      </trkpt>
      <trkpt lat="42.6788530" lon="-0.5262060">
        <ele>1039.8</ele>
        <time>2023-01-14T11:51:02Z</time>
      </trkpt>
      <trkpt lat="42.6788810" lon="-0.5262230">
        <ele>1039.2</ele>
        <time>2023-01-14T11:51:03Z</time>
      </trkpt>
      <trkpt lat="42.6789130" lon="-0.5262320">
        <ele>1038.6</ele>
        <time>2023-01-14T11:51:04Z</time>
      </trkpt>
      <trkpt lat="42.6789390" lon="-0.5262300">
        <ele>1038.0</ele>
        <time>2023-01-14T11:51:05Z</time>
      </trkpt>
      <trkpt lat="42.6789540" lon="-0.5262350">
        <ele>1037.8</ele>
        <time>2023-01-14T11:51:06Z</time>
      </trkpt>
      <trkpt lat="42.6789660" lon="-0.5262350">
        <ele>1037.4</ele>
        <time>2023-01-14T11:51:07Z</time>
      </trkpt>
      <trkpt lat="42.6789770" lon="-0.5262440">
        <ele>1036.6</ele>
        <time>2023-01-14T11:51:08Z</time>
      </trkpt>
      <trkpt lat="42.6789810" lon="-0.5262690">
        <ele>1035.4</ele>
        <time>2023-01-14T11:51:09Z</time>
      </trkpt>
      <trkpt lat="42.6789700" lon="-0.5263020">
        <ele>1034.6</ele>
        <time>2023-01-14T11:51:10Z</time>
      </trkpt>
      <trkpt lat="42.6789460" lon="-0.5263450">
        <ele>1033.8</ele>
        <time>2023-01-14T11:51:11Z</time>
      </trkpt>
      <trkpt lat="42.6789150" lon="-0.5263880">
        <ele>1033.4</ele>
        <time>2023-01-14T11:51:12Z</time>
      </trkpt>
      <trkpt lat="42.6788860" lon="-0.5264310">
        <ele>1032.4</ele>
        <time>2023-01-14T11:51:13Z</time>
      </trkpt>
      <trkpt lat="42.6788770" lon="-0.5264690">
        <ele>1031.4</ele>
        <time>2023-01-14T11:51:14Z</time>
      </trkpt>
      <trkpt lat="42.6788920" lon="-0.5264870">
        <ele>1030.2</ele>
        <time>2023-01-14T11:51:15Z</time>
      </trkpt>
      <trkpt lat="42.6789160" lon="-0.5265020">
        <ele>1029.2</ele>
        <time>2023-01-14T11:51:16Z</time>
      </trkpt>
      <trkpt lat="42.6789420" lon="-0.5265170">
        <ele>1028.6</ele>
        <time>2023-01-14T11:51:17Z</time>
      </trkpt>
      <trkpt lat="42.6789650" lon="-0.5265260">
        <ele>1027.6</ele>
        <time>2023-01-14T11:51:18Z</time>
      </trkpt>
      <trkpt lat="42.6789840" lon="-0.5265420">
        <ele>1026.6</ele>
        <time>2023-01-14T11:51:19Z</time>
      </trkpt>
      <trkpt lat="42.6789860" lon="-0.5265710">
        <ele>1026.0</ele>
        <time>2023-01-14T11:51:20Z</time>
      </trkpt>
      <trkpt lat="42.6789790" lon="-0.5266120">
        <ele>1025.2</ele>
        <time>2023-01-14T11:51:21Z</time>
      </trkpt>
      <trkpt lat="42.6789700" lon="-0.5266610">
        <ele>1024.6</ele>
        <time>2023-01-14T11:51:22Z</time>
      </trkpt>
      <trkpt lat="42.6789610" lon="-0.5267160">
        <ele>1023.6</ele>
        <time>2023-01-14T11:51:23Z</time>
      </trkpt>
      <trkpt lat="42.6789520" lon="-0.5267700">
        <ele>1023.0</ele>
        <time>2023-01-14T11:51:24Z</time>
      </trkpt>
      <trkpt lat="42.6789470" lon="-0.5268220">
        <ele>1022.2</ele>
        <time>2023-01-14T11:51:25Z</time>
      </trkpt>
      <trkpt lat="42.6789450" lon="-0.5268850">
        <ele>1021.4</ele>
        <time>2023-01-14T11:51:26Z</time>
      </trkpt>
      <trkpt lat="42.6789460" lon="-0.5269400">
        <ele>1020.6</ele>
        <time>2023-01-14T11:51:27Z</time>
      </trkpt>
      <trkpt lat="42.6789460" lon="-0.5269960">
        <ele>1019.6</ele>
        <time>2023-01-14T11:51:28Z</time>
      </trkpt>
      <trkpt lat="42.6789510" lon="-0.5270440">
        <ele>1019.0</ele>
        <time>2023-01-14T11:51:29Z</time>
      </trkpt>
      <trkpt lat="42.6789700" lon="-0.5270780">
        <ele>1017.8</ele>
        <time>2023-01-14T11:51:30Z</time>
      </trkpt>
      <trkpt lat="42.6789900" lon="-0.5271290">
        <ele>1016.8</ele>
        <time>2023-01-14T11:51:31Z</time>
      </trkpt>
      <trkpt lat="42.6790050" lon="-0.5271910">
        <ele>1016.0</ele>
        <time>2023-01-14T11:51:32Z</time>
      </trkpt>
      <trkpt lat="42.6790160" lon="-0.5272720">
        <ele>1015.0</ele>
        <time>2023-01-14T11:51:33Z</time>
      </trkpt>
      <trkpt lat="42.6790290" lon="-0.5273620">
        <ele>1013.2</ele>
        <time>2023-01-14T11:51:34Z</time>
      </trkpt>
      <trkpt lat="42.6790420" lon="-0.5274430">
        <ele>1012.0</ele>
        <time>2023-01-14T11:51:35Z</time>
      </trkpt>
      <trkpt lat="42.6790560" lon="-0.5275100">
        <ele>1010.2</ele>
        <time>2023-01-14T11:51:36Z</time>
      </trkpt>
      <trkpt lat="42.6790680" lon="-0.5275640">
        <ele>1009.2</ele>
        <time>2023-01-14T11:51:37Z</time>
      </trkpt>
      <trkpt lat="42.6790780" lon="-0.5276090">
        <ele>1008.4</ele>
        <time>2023-01-14T11:51:38Z</time>
      </trkpt>
      <trkpt lat="42.6790840" lon="-0.5276340">
        <ele>1007.8</ele>
        <time>2023-01-14T11:51:39Z</time>
      </trkpt>
      <trkpt lat="42.6790870" lon="-0.5276440">
        <ele>1006.8</ele>
        <time>2023-01-14T11:51:40Z</time>
      </trkpt>
      <trkpt lat="42.6790880" lon="-0.5276470">
        <ele>1006.2</ele>
        <time>2023-01-14T11:51:41Z</time>
      </trkpt>
      <trkpt lat="42.6790880" lon="-0.5276490">
        <ele>1006.0</ele>
        <time>2023-01-14T11:51:42Z</time>
      </trkpt>
      <trkpt lat="42.6790880" lon="-0.5276520">
        <ele>1005.8</ele>
        <time>2023-01-14T11:51:43Z</time>
      </trkpt>
      <trkpt lat="42.6790900" lon="-0.5276570">
        <ele>1005.8</ele>
        <time>2023-01-14T11:51:44Z</time>
      </trkpt>
      <trkpt lat="42.6790900" lon="-0.5276630">
        <ele>1005.6</ele>
        <time>2023-01-14T11:51:45Z</time>
      </trkpt>
      <trkpt lat="42.6790890" lon="-0.5276650">
        <ele>1005.6</ele>
        <time>2023-01-14T11:51:46Z</time>
      </trkpt>
      <trkpt lat="42.6790900" lon="-0.5276660">
        <ele>1005.6</ele>
        <time>2023-01-14T11:51:47Z</time>
      </trkpt>
      <trkpt lat="42.6790900" lon="-0.5276670">
        <ele>1005.4</ele>
        <time>2023-01-14T11:51:48Z</time>
      </trkpt>
      <trkpt lat="42.6790900" lon="-0.5276670">
        <ele>1005.4</ele>
        <time>2023-01-14T11:51:49Z</time>
      </trkpt>
      <trkpt lat="42.6790890" lon="-0.5276680">
        <ele>1005.6</ele>
        <time>2023-01-14T11:51:50Z</time>
      </trkpt>
      <trkpt lat="42.6790880" lon="-0.5276680">
        <ele>1005.6</ele>
        <time>2023-01-14T11:51:51Z</time>
      </trkpt>
      <trkpt lat="42.6790870" lon="-0.5276680">
        <ele>1005.4</ele>
        <time>2023-01-14T11:51:52Z</time>
      </trkpt>
      <trkpt lat="42.6790870" lon="-0.5276680">
        <ele>1005.4</ele>
        <time>2023-01-14T11:51:53Z</time>
      </trkpt>
      <trkpt lat="42.6790860" lon="-0.5276680">
        <ele>1005.4</ele>
        <time>2023-01-14T11:51:54Z</time>
      </trkpt>
      <trkpt lat="42.6790850" lon="-0.5276680">
        <ele>1005.4</ele>
        <time>2023-01-14T11:51:55Z</time>
      </trkpt>
      <trkpt lat="42.6790860" lon="-0.5276680">
        <ele>1005.4</ele>
        <time>2023-01-14T11:51:56Z</time>
      </trkpt>
      <trkpt lat="42.6790860" lon="-0.5276680">
        <ele>1005.2</ele>
        <time>2023-01-14T11:51:57Z</time>
      </trkpt>
      <trkpt lat="42.6790860" lon="-0.5276680">
        <ele>1005.2</ele>
        <time>2023-01-14T11:51:58Z</time>
      </trkpt>
      <trkpt lat="42.6790850" lon="-0.5276670">
        <ele>1005.2</ele>
        <time>2023-01-14T11:51:59Z</time>
      </trkpt>
      <trkpt lat="42.6790850" lon="-0.5276670">
        <ele>1005.2</ele>
        <time>2023-01-14T11:52:00Z</time>
      </trkpt>
      <trkpt lat="42.6790850" lon="-0.5276650">
        <ele>1005.2</ele>
        <time>2023-01-14T11:52:01Z</time>
      </trkpt>
      <trkpt lat="42.6790840" lon="-0.5276640">
        <ele>1005.2</ele>
        <time>2023-01-14T11:52:02Z</time>
      </trkpt>
      <trkpt lat="42.6790840" lon="-0.5276640">
        <ele>1005.2</ele>
        <time>2023-01-14T11:52:03Z</time>
      </trkpt>
      <trkpt lat="42.6790840" lon="-0.5276640">
        <ele>1005.0</ele>
        <time>2023-01-14T11:52:04Z</time>
      </trkpt>
      <trkpt lat="42.6790850" lon="-0.5276640">
        <ele>1005.2</ele>
        <time>2023-01-14T11:52:05Z</time>
      </trkpt>
      <trkpt lat="42.6790860" lon="-0.5276640">
        <ele>1005.2</ele>
        <time>2023-01-14T11:52:06Z</time>
      </trkpt>
      <trkpt lat="42.6790860" lon="-0.5276640">
        <ele>1005.2</ele>
        <time>2023-01-14T11:52:07Z</time>
      </trkpt>
      <trkpt lat="42.6790860" lon="-0.5276650">
        <ele>1005.0</ele>
        <time>2023-01-14T11:52:08Z</time>
      </trkpt>
      <trkpt lat="42.6790860" lon="-0.5276650">
        <ele>1005.0</ele>
        <time>2023-01-14T11:52:09Z</time>
      </trkpt>
      <trkpt lat="42.6790870" lon="-0.5276650">
        <ele>1005.0</ele>
        <time>2023-01-14T11:52:10Z</time>
      </trkpt>
      <trkpt lat="42.6790870" lon="-0.5276660">
        <ele>1005.0</ele>
        <time>2023-01-14T11:52:11Z</time>
      </trkpt>
      <trkpt lat="42.6790860" lon="-0.5276660">
        <ele>1005.0</ele>
        <time>2023-01-14T11:52:12Z</time>
      </trkpt>
      <trkpt lat="42.6790850" lon="-0.5276660">
        <ele>1004.8</ele>
        <time>2023-01-14T11:52:13Z</time>
      </trkpt>
      <trkpt lat="42.6790840" lon="-0.5276660">
        <ele>1004.8</ele>
        <time>2023-01-14T11:52:14Z</time>
      </trkpt>
      <trkpt lat="42.6790840" lon="-0.5276670">
        <ele>1004.8</ele>
        <time>2023-01-14T11:52:15Z</time>
      </trkpt>
      <trkpt lat="42.6790830" lon="-0.5276670">
        <ele>1004.8</ele>
        <time>2023-01-14T11:52:16Z</time>
      </trkpt>
      <trkpt lat="42.6790830" lon="-0.5276680">
        <ele>1004.6</ele>
        <time>2023-01-14T11:52:17Z</time>
      </trkpt>
      <trkpt lat="42.6790830" lon="-0.5276680">
        <ele>1004.6</ele>
        <time>2023-01-14T11:52:18Z</time>
      </trkpt>
      <trkpt lat="42.6790830" lon="-0.5276680">
        <ele>1004.6</ele>
        <time>2023-01-14T11:52:19Z</time>
      </trkpt>
      <trkpt lat="42.6790830" lon="-0.5276690">
        <ele>1004.6</ele>
        <time>2023-01-14T11:52:20Z</time>
      </trkpt>
      <trkpt lat="42.6790830" lon="-0.5276690">
        <ele>1004.6</ele>
        <time>2023-01-14T11:52:21Z</time>
      </trkpt>
      <trkpt lat="42.6790830" lon="-0.5276690">
        <ele>1004.6</ele>
        <time>2023-01-14T11:52:22Z</time>
      </trkpt>
      <trkpt lat="42.6790830" lon="-0.5276700">
        <ele>1004.8</ele>
        <time>2023-01-14T11:52:23Z</time>
      </trkpt>
      <trkpt lat="42.6790820" lon="-0.5276700">
        <ele>1005.0</ele>
        <time>2023-01-14T11:52:24Z</time>
      </trkpt>
      <trkpt lat="42.6790820" lon="-0.5276700">
        <ele>1005.2</ele>
        <time>2023-01-14T11:52:25Z</time>
      </trkpt>
      <trkpt lat="42.6790830" lon="-0.5276700">
        <ele>1005.4</ele>
        <time>2023-01-14T11:52:26Z</time>
      </trkpt>
      <trkpt lat="42.6790830" lon="-0.5276690">
        <ele>1005.6</ele>
        <time>2023-01-14T11:52:27Z</time>
      </trkpt>
      <trkpt lat="42.6790830" lon="-0.5276700">
        <ele>1005.8</ele>
        <time>2023-01-14T11:52:28Z</time>
      </trkpt>
      <trkpt lat="42.6790830" lon="-0.5276700">
        <ele>1005.8</ele>
        <time>2023-01-14T11:52:29Z</time>
      </trkpt>
      <trkpt lat="42.6790830" lon="-0.5276700">
        <ele>1005.8</ele>
        <time>2023-01-14T11:52:30Z</time>
      </trkpt>
      <trkpt lat="42.6790830" lon="-0.5276700">
        <ele>1005.8</ele>
        <time>2023-01-14T11:52:31Z</time>
      </trkpt>
      <trkpt lat="42.6790830" lon="-0.5276700">
        <ele>1005.6</ele>
        <time>2023-01-14T11:52:32Z</time>
      </trkpt>
      <trkpt lat="42.6790820" lon="-0.5276710">
        <ele>1005.4</ele>
        <time>2023-01-14T11:52:33Z</time>
      </trkpt>
      <trkpt lat="42.6790810" lon="-0.5276720">
        <ele>1005.2</ele>
        <time>2023-01-14T11:52:34Z</time>
      </trkpt>
      <trkpt lat="42.6790810" lon="-0.5276730">
        <ele>1005.0</ele>
        <time>2023-01-14T11:52:35Z</time>
      </trkpt>
      <trkpt lat="42.6790820" lon="-0.5276750">
        <ele>1005.0</ele>
        <time>2023-01-14T11:52:36Z</time>
      </trkpt>
      <trkpt lat="42.6790880" lon="-0.5276800">
        <ele>1005.0</ele>
        <time>2023-01-14T11:52:37Z</time>
      </trkpt>
      <trkpt lat="42.6790970" lon="-0.5276970">
        <ele>1005.0</ele>
        <time>2023-01-14T11:52:38Z</time>
      </trkpt>
      <trkpt lat="42.6791070" lon="-0.5277190">
        <ele>1004.8</ele>
        <time>2023-01-14T11:52:39Z</time>
      </trkpt>
      <trkpt lat="42.6791080" lon="-0.5277430">
        <ele>1004.8</ele>
        <time>2023-01-14T11:52:40Z</time>
      </trkpt>
      <trkpt lat="42.6790960" lon="-0.5277610">
        <ele>1004.8</ele>
        <time>2023-01-14T11:52:41Z</time>
      </trkpt>
      <trkpt lat="42.6790820" lon="-0.5277590">
        <ele>1004.6</ele>
        <time>2023-01-14T11:52:42Z</time>
      </trkpt>
      <trkpt lat="42.6790750" lon="-0.5277440">
        <ele>1004.4</ele>
        <time>2023-01-14T11:52:43Z</time>
      </trkpt>
      <trkpt lat="42.6790750" lon="-0.5277280">
        <ele>1004.4</ele>
        <time>2023-01-14T11:52:44Z</time>
      </trkpt>
      <trkpt lat="42.6790750" lon="-0.5277140">
        <ele>1004.4</ele>
        <time>2023-01-14T11:52:45Z</time>
      </trkpt>
      <trkpt lat="42.6790700" lon="-0.5277020">
        <ele>1004.4</ele>
        <time>2023-01-14T11:52:46Z</time>
      </trkpt>
      <trkpt lat="42.6790640" lon="-0.5276920">
        <ele>1004.8</ele>
        <time>2023-01-14T11:52:47Z</time>
      </trkpt>
      <trkpt lat="42.6790630" lon="-0.5276780">
        <ele>1005.0</ele>
        <time>2023-01-14T11:52:48Z</time>
      </trkpt>
      <trkpt lat="42.6790680" lon="-0.5276680">
        <ele>1005.0</ele>
        <time>2023-01-14T11:52:49Z</time>
      </trkpt>
      <trkpt lat="42.6790690" lon="-0.5276640">
        <ele>1005.0</ele>
        <time>2023-01-14T11:52:50Z</time>
      </trkpt>
      <trkpt lat="42.6790650" lon="-0.5276560">
        <ele>1005.4</ele>
        <time>2023-01-14T11:52:51Z</time>
      </trkpt>
      <trkpt lat="42.6790640" lon="-0.5276510">
        <ele>1005.8</ele>
        <time>2023-01-14T11:52:52Z</time>
      </trkpt>
      <trkpt lat="42.6790630" lon="-0.5276370">
        <ele>1006.0</ele>
        <time>2023-01-14T11:52:53Z</time>
      </trkpt>
      <trkpt lat="42.6790650" lon="-0.5276220">
        <ele>1006.2</ele>
        <time>2023-01-14T11:52:54Z</time>
      </trkpt>
      <trkpt lat="42.6790710" lon="-0.5276080">
        <ele>1006.4</ele>
        <time>2023-01-14T11:52:55Z</time>
      </trkpt>
      <trkpt lat="42.6790820" lon="-0.5276020">
        <ele>1006.8</ele>
        <time>2023-01-14T11:52:56Z</time>
      </trkpt>
      <trkpt lat="42.6790890" lon="-0.5276110">
        <ele>1007.0</ele>
        <time>2023-01-14T11:52:57Z</time>
      </trkpt>
      <trkpt lat="42.6790900" lon="-0.5276240">
        <ele>1007.0</ele>
        <time>2023-01-14T11:52:58Z</time>
      </trkpt>
      <trkpt lat="42.6790890" lon="-0.5276300">
        <ele>1007.2</ele>
        <time>2023-01-14T11:52:59Z</time>
      </trkpt>
      <trkpt lat="42.6790890" lon="-0.5276310">
        <ele>1006.2</ele>
        <time>2023-01-14T11:53:00Z</time>
      </trkpt>
      <trkpt lat="42.6790890" lon="-0.5276310">
        <ele>1006.2</ele>
        <time>2023-01-14T11:53:01Z</time>
      </trkpt>
      <trkpt lat="42.6790870" lon="-0.5276300">
        <ele>1006.2</ele>
        <time>2023-01-14T11:53:02Z</time>
      </trkpt>
      <trkpt lat="42.6790860" lon="-0.5276310">
        <ele>1006.2</ele>
        <time>2023-01-14T11:53:03Z</time>
      </trkpt>
      <trkpt lat="42.6790860" lon="-0.5276300">
        <ele>1006.2</ele>
        <time>2023-01-14T11:53:04Z</time>
      </trkpt>
      <trkpt lat="42.6790850" lon="-0.5276300">
        <ele>1006.2</ele>
        <time>2023-01-14T11:53:05Z</time>
      </trkpt>
      <trkpt lat="42.6790850" lon="-0.5276290">
        <ele>1006.2</ele>
        <time>2023-01-14T11:53:06Z</time>
      </trkpt>
      <trkpt lat="42.6790850" lon="-0.5276290">
        <ele>1006.2</ele>
        <time>2023-01-14T11:53:07Z</time>
      </trkpt>
      <trkpt lat="42.6790850" lon="-0.5276280">
        <ele>1006.2</ele>
        <time>2023-01-14T11:53:08Z</time>
      </trkpt>
      <trkpt lat="42.6790850" lon="-0.5276280">
        <ele>1006.2</ele>
        <time>2023-01-14T11:53:09Z</time>
      </trkpt>
      <trkpt lat="42.6790860" lon="-0.5276280">
        <ele>1006.2</ele>
        <time>2023-01-14T11:53:10Z</time>
      </trkpt>
      <trkpt lat="42.6790860" lon="-0.5276280">
        <ele>1006.2</ele>
        <time>2023-01-14T11:53:11Z</time>
      </trkpt>
      <trkpt lat="42.6790860" lon="-0.5276280">
        <ele>1006.2</ele>
        <time>2023-01-14T11:53:12Z</time>
      </trkpt>
      <trkpt lat="42.6790860" lon="-0.5276280">
        <ele>1006.2</ele>
        <time>2023-01-14T11:53:13Z</time>
      </trkpt>
      <trkpt lat="42.6790860" lon="-0.5276280">
        <ele>1006.2</ele>
        <time>2023-01-14T11:53:14Z</time>
      </trkpt>
      <trkpt lat="42.6790860" lon="-0.5276270">
        <ele>1006.2</ele>
        <time>2023-01-14T11:53:15Z</time>
      </trkpt>
      <trkpt lat="42.6790860" lon="-0.5276260">
        <ele>1006.2</ele>
        <time>2023-01-14T11:53:16Z</time>
      </trkpt>
      <trkpt lat="42.6790860" lon="-0.5276260">
        <ele>1006.2</ele>
        <time>2023-01-14T11:53:17Z</time>
      </trkpt>
      <trkpt lat="42.6790860" lon="-0.5276250">
        <ele>1006.2</ele>
        <time>2023-01-14T11:53:18Z</time>
      </trkpt>
      <trkpt lat="42.6790870" lon="-0.5276250">
        <ele>1006.2</ele>
        <time>2023-01-14T11:53:19Z</time>
      </trkpt>
      <trkpt lat="42.6790870" lon="-0.5276260">
        <ele>1006.2</ele>
        <time>2023-01-14T11:53:20Z</time>
      </trkpt>
      <trkpt lat="42.6790870" lon="-0.5276260">
        <ele>1006.2</ele>
        <time>2023-01-14T11:53:21Z</time>
      </trkpt>
      <trkpt lat="42.6790870" lon="-0.5276260">
        <ele>1006.2</ele>
        <time>2023-01-14T11:53:22Z</time>
      </trkpt>
      <trkpt lat="42.6790860" lon="-0.5276260">
        <ele>1006.2</ele>
        <time>2023-01-14T11:53:23Z</time>
      </trkpt>
      <trkpt lat="42.6790870" lon="-0.5276260">
        <ele>1006.2</ele>
        <time>2023-01-14T11:53:24Z</time>
      </trkpt>
      <trkpt lat="42.6790870" lon="-0.5276260">
        <ele>1006.2</ele>
        <time>2023-01-14T11:53:25Z</time>
      </trkpt>
      <trkpt lat="42.6790870" lon="-0.5276270">
        <ele>1006.2</ele>
        <time>2023-01-14T11:53:26Z</time>
      </trkpt>
      <trkpt lat="42.6790870" lon="-0.5276270">
        <ele>1006.2</ele>
        <time>2023-01-14T11:53:27Z</time>
      </trkpt>
      <trkpt lat="42.6790870" lon="-0.5276270">
        <ele>1006.2</ele>
        <time>2023-01-14T11:53:28Z</time>
      </trkpt>
      <trkpt lat="42.6790860" lon="-0.5276270">
        <ele>1006.2</ele>
        <time>2023-01-14T11:53:29Z</time>
      </trkpt>
      <trkpt lat="42.6790860" lon="-0.5276270">
        <ele>1006.2</ele>
        <time>2023-01-14T11:53:30Z</time>
      </trkpt>
      <trkpt lat="42.6790860" lon="-0.5276270">
        <ele>1006.2</ele>
        <time>2023-01-14T11:53:31Z</time>
      </trkpt>
      <trkpt lat="42.6790850" lon="-0.5276270">
        <ele>1006.2</ele>
        <time>2023-01-14T11:53:32Z</time>
      </trkpt>
      <trkpt lat="42.6790850" lon="-0.5276270">
        <ele>1006.2</ele>
        <time>2023-01-14T11:53:33Z</time>
      </trkpt>
      <trkpt lat="42.6790850" lon="-0.5276270">
        <ele>1006.2</ele>
        <time>2023-01-14T11:53:34Z</time>
      </trkpt>
      <trkpt lat="42.6790850" lon="-0.5276270">
        <ele>1006.2</ele>
        <time>2023-01-14T11:53:35Z</time>
      </trkpt>
      <trkpt lat="42.6790850" lon="-0.5276270">
        <ele>1006.2</ele>
        <time>2023-01-14T11:53:36Z</time>
      </trkpt>
      <trkpt lat="42.6790850" lon="-0.5276270">
        <ele>1006.2</ele>
        <time>2023-01-14T11:53:37Z</time>
      </trkpt>
      <trkpt lat="42.6790850" lon="-0.5276270">
        <ele>1006.2</ele>
        <time>2023-01-14T11:53:38Z</time>
      </trkpt>
      <trkpt lat="42.6790850" lon="-0.5276270">
        <ele>1006.2</ele>
        <time>2023-01-14T11:53:39Z</time>
      </trkpt>
      <trkpt lat="42.6790850" lon="-0.5276270">
        <ele>1006.2</ele>
        <time>2023-01-14T11:53:40Z</time>
      </trkpt>
      <trkpt lat="42.6790860" lon="-0.5276270">
        <ele>1006.2</ele>
        <time>2023-01-14T11:53:41Z</time>
      </trkpt>
      <trkpt lat="42.6790850" lon="-0.5276370">
        <ele>1006.2</ele>
        <time>2023-01-14T11:53:42Z</time>
      </trkpt>
      <trkpt lat="42.6790850" lon="-0.5276490">
        <ele>1006.2</ele>
        <time>2023-01-14T11:53:43Z</time>
      </trkpt>
      <trkpt lat="42.6790850" lon="-0.5276610">
        <ele>1006.2</ele>
        <time>2023-01-14T11:53:44Z</time>
      </trkpt>
      <trkpt lat="42.6790860" lon="-0.5276680">
        <ele>1006.2</ele>
        <time>2023-01-14T11:53:45Z</time>
      </trkpt>
      <trkpt lat="42.6790860" lon="-0.5276680">
        <ele>1006.2</ele>
        <time>2023-01-14T11:53:46Z</time>
      </trkpt>
      <trkpt lat="42.6790850" lon="-0.5276680">
        <ele>1006.2</ele>
        <time>2023-01-14T11:53:47Z</time>
      </trkpt>
      <trkpt lat="42.6790850" lon="-0.5276680">
        <ele>1006.2</ele>
        <time>2023-01-14T11:53:48Z</time>
      </trkpt>
      <trkpt lat="42.6790850" lon="-0.5276680">
        <ele>1006.2</ele>
        <time>2023-01-14T11:53:49Z</time>
      </trkpt>
      <trkpt lat="42.6790860" lon="-0.5276690">
        <ele>1006.2</ele>
        <time>2023-01-14T11:53:50Z</time>
      </trkpt>
      <trkpt lat="42.6790860" lon="-0.5276680">
        <ele>1006.0</ele>
        <time>2023-01-14T11:53:51Z</time>
      </trkpt>
      <trkpt lat="42.6790870" lon="-0.5276680">
        <ele>1006.2</ele>
        <time>2023-01-14T11:53:52Z</time>
      </trkpt>
      <trkpt lat="42.6790870" lon="-0.5276680">
        <ele>1006.2</ele>
        <time>2023-01-14T11:53:53Z</time>
      </trkpt>
      <trkpt lat="42.6790870" lon="-0.5276670">
        <ele>1006.2</ele>
        <time>2023-01-14T11:53:54Z</time>
      </trkpt>
      <trkpt lat="42.6790860" lon="-0.5276660">
        <ele>1006.2</ele>
        <time>2023-01-14T11:53:55Z</time>
      </trkpt>
      <trkpt lat="42.6790860" lon="-0.5276650">
        <ele>1006.2</ele>
        <time>2023-01-14T11:53:56Z</time>
      </trkpt>
      <trkpt lat="42.6790870" lon="-0.5276640">
        <ele>1006.2</ele>
        <time>2023-01-14T11:53:57Z</time>
      </trkpt>
      <trkpt lat="42.6790870" lon="-0.5276640">
        <ele>1006.2</ele>
        <time>2023-01-14T11:53:58Z</time>
      </trkpt>
      <trkpt lat="42.6790850" lon="-0.5276640">
        <ele>1006.4</ele>
        <time>2023-01-14T11:53:59Z</time>
      </trkpt>
      <trkpt lat="42.6790840" lon="-0.5276650">
        <ele>1006.4</ele>
        <time>2023-01-14T11:54:00Z</time>
      </trkpt>
      <trkpt lat="42.6790840" lon="-0.5276650">
        <ele>1006.6</ele>
        <time>2023-01-14T11:54:01Z</time>
      </trkpt>
      <trkpt lat="42.6790840" lon="-0.5276660">
        <ele>1006.6</ele>
        <time>2023-01-14T11:54:02Z</time>
      </trkpt>
      <trkpt lat="42.6790850" lon="-0.5276650">
        <ele>1006.6</ele>
        <time>2023-01-14T11:54:03Z</time>
      </trkpt>
      <trkpt lat="42.6790850" lon="-0.5276630">
        <ele>1006.8</ele>
        <time>2023-01-14T11:54:04Z</time>
      </trkpt>
      <trkpt lat="42.6790850" lon="-0.5276630">
        <ele>1006.8</ele>
        <time>2023-01-14T11:54:05Z</time>
      </trkpt>
      <trkpt lat="42.6790860" lon="-0.5276640">
        <ele>1006.8</ele>
        <time>2023-01-14T11:54:06Z</time>
      </trkpt>
      <trkpt lat="42.6790870" lon="-0.5276640">
        <ele>1006.8</ele>
        <time>2023-01-14T11:54:07Z</time>
      </trkpt>
      <trkpt lat="42.6790860" lon="-0.5276630">
        <ele>1006.8</ele>
        <time>2023-01-14T11:54:08Z</time>
      </trkpt>
      <trkpt lat="42.6790850" lon="-0.5276630">
        <ele>1006.8</ele>
        <time>2023-01-14T11:54:09Z</time>
      </trkpt>
      <trkpt lat="42.6790850" lon="-0.5276630">
        <ele>1006.8</ele>
        <time>2023-01-14T11:54:10Z</time>
      </trkpt>
      <trkpt lat="42.6790840" lon="-0.5276630">
        <ele>1006.8</ele>
        <time>2023-01-14T11:54:11Z</time>
      </trkpt>
      <trkpt lat="42.6790840" lon="-0.5276630">
        <ele>1006.8</ele>
        <time>2023-01-14T11:54:12Z</time>
      </trkpt>
      <trkpt lat="42.6790840" lon="-0.5276630">
        <ele>1006.8</ele>
        <time>2023-01-14T11:54:13Z</time>
      </trkpt>
      <trkpt lat="42.6790830" lon="-0.5276640">
        <ele>1006.6</ele>
        <time>2023-01-14T11:54:14Z</time>
      </trkpt>
      <trkpt lat="42.6790830" lon="-0.5276640">
        <ele>1006.8</ele>
        <time>2023-01-14T11:54:15Z</time>
      </trkpt>
      <trkpt lat="42.6790840" lon="-0.5276650">
        <ele>1006.8</ele>
        <time>2023-01-14T11:54:16Z</time>
      </trkpt>
      <trkpt lat="42.6790840" lon="-0.5276650">
        <ele>1006.8</ele>
        <time>2023-01-14T11:54:17Z</time>
      </trkpt>
      <trkpt lat="42.6790840" lon="-0.5276650">
        <ele>1006.6</ele>
        <time>2023-01-14T11:54:18Z</time>
      </trkpt>
      <trkpt lat="42.6790840" lon="-0.5276660">
        <ele>1006.8</ele>
        <time>2023-01-14T11:54:19Z</time>
      </trkpt>
      <trkpt lat="42.6790850" lon="-0.5276660">
        <ele>1006.8</ele>
        <time>2023-01-14T11:54:20Z</time>
      </trkpt>
      <trkpt lat="42.6790850" lon="-0.5276660">
        <ele>1006.8</ele>
        <time>2023-01-14T11:54:21Z</time>
      </trkpt>
      <trkpt lat="42.6790850" lon="-0.5276660">
        <ele>1006.8</ele>
        <time>2023-01-14T11:54:22Z</time>
      </trkpt>
      <trkpt lat="42.6790860" lon="-0.5276660">
        <ele>1006.8</ele>
        <time>2023-01-14T11:54:23Z</time>
      </trkpt>
      <trkpt lat="42.6790860" lon="-0.5276670">
        <ele>1006.6</ele>
        <time>2023-01-14T11:54:24Z</time>
      </trkpt>
      <trkpt lat="42.6790860" lon="-0.5276670">
        <ele>1006.6</ele>
        <time>2023-01-14T11:54:25Z</time>
      </trkpt>
      <trkpt lat="42.6790860" lon="-0.5276670">
        <ele>1006.6</ele>
        <time>2023-01-14T11:54:26Z</time>
      </trkpt>
      <trkpt lat="42.6790860" lon="-0.5276670">
        <ele>1006.6</ele>
        <time>2023-01-14T11:54:27Z</time>
      </trkpt>
      <trkpt lat="42.6790860" lon="-0.5276680">
        <ele>1006.6</ele>
        <time>2023-01-14T11:54:28Z</time>
      </trkpt>
      <trkpt lat="42.6790870" lon="-0.5276680">
        <ele>1006.6</ele>
        <time>2023-01-14T11:54:29Z</time>
      </trkpt>
      <trkpt lat="42.6790870" lon="-0.5276680">
        <ele>1006.6</ele>
        <time>2023-01-14T11:54:30Z</time>
      </trkpt>
      <trkpt lat="42.6790870" lon="-0.5276680">
        <ele>1006.6</ele>
        <time>2023-01-14T11:54:31Z</time>
      </trkpt>
      <trkpt lat="42.6790880" lon="-0.5276690">
        <ele>1006.6</ele>
        <time>2023-01-14T11:54:32Z</time>
      </trkpt>
      <trkpt lat="42.6790950" lon="-0.5276760">
        <ele>1006.6</ele>
        <time>2023-01-14T11:54:33Z</time>
      </trkpt>
      <trkpt lat="42.6791060" lon="-0.5276720">
        <ele>1006.6</ele>
        <time>2023-01-14T11:54:34Z</time>
      </trkpt>
      <trkpt lat="42.6791100" lon="-0.5276630">
        <ele>1006.6</ele>
        <time>2023-01-14T11:54:35Z</time>
      </trkpt>
      <trkpt lat="42.6791060" lon="-0.5276520">
        <ele>1006.8</ele>
        <time>2023-01-14T11:54:36Z</time>
      </trkpt>
      <trkpt lat="42.6790990" lon="-0.5276410">
        <ele>1006.8</ele>
        <time>2023-01-14T11:54:37Z</time>
      </trkpt>
      <trkpt lat="42.6790910" lon="-0.5276290">
        <ele>1006.8</ele>
        <time>2023-01-14T11:54:38Z</time>
      </trkpt>
      <trkpt lat="42.6790880" lon="-0.5276120">
        <ele>1007.0</ele>
        <time>2023-01-14T11:54:39Z</time>
      </trkpt>
      <trkpt lat="42.6790880" lon="-0.5275920">
        <ele>1007.2</ele>
        <time>2023-01-14T11:54:40Z</time>
      </trkpt>
      <trkpt lat="42.6790900" lon="-0.5275690">
        <ele>1007.4</ele>
        <time>2023-01-14T11:54:41Z</time>
      </trkpt>
      <trkpt lat="42.6790880" lon="-0.5275480">
        <ele>1007.6</ele>
        <time>2023-01-14T11:54:42Z</time>
      </trkpt>
      <trkpt lat="42.6790810" lon="-0.5275280">
        <ele>1007.8</ele>
        <time>2023-01-14T11:54:43Z</time>
      </trkpt>
      <trkpt lat="42.6790710" lon="-0.5275140">
        <ele>1008.2</ele>
        <time>2023-01-14T11:54:44Z</time>
      </trkpt>
      <trkpt lat="42.6790620" lon="-0.5275000">
        <ele>1008.4</ele>
        <time>2023-01-14T11:54:45Z</time>
      </trkpt>
      <trkpt lat="42.6790530" lon="-0.5274840">
        <ele>1008.6</ele>
        <time>2023-01-14T11:54:46Z</time>
      </trkpt>
      <trkpt lat="42.6790490" lon="-0.5274650">
        <ele>1008.8</ele>
        <time>2023-01-14T11:54:47Z</time>
      </trkpt>
      <trkpt lat="42.6790520" lon="-0.5274440">
        <ele>1008.8</ele>
        <time>2023-01-14T11:54:48Z</time>
      </trkpt>
      <trkpt lat="42.6790550" lon="-0.5274260">
        <ele>1009.2</ele>
        <time>2023-01-14T11:54:49Z</time>
      </trkpt>
      <trkpt lat="42.6790520" lon="-0.5274120">
        <ele>1009.2</ele>
        <time>2023-01-14T11:54:50Z</time>
      </trkpt>
      <trkpt lat="42.6790400" lon="-0.5274100">
        <ele>1009.4</ele>
        <time>2023-01-14T11:54:51Z</time>
      </trkpt>
      <trkpt lat="42.6790270" lon="-0.5274230">
        <ele>1009.4</ele>
        <time>2023-01-14T11:54:52Z</time>
      </trkpt>
      <trkpt lat="42.6790240" lon="-0.5274450">
        <ele>1009.6</ele>
        <time>2023-01-14T11:54:53Z</time>
      </trkpt>
      <trkpt lat="42.6790300" lon="-0.5274720">
        <ele>1009.6</ele>
        <time>2023-01-14T11:54:54Z</time>
      </trkpt>
      <trkpt lat="42.6790380" lon="-0.5275010">
        <ele>1009.6</ele>
        <time>2023-01-14T11:54:55Z</time>
      </trkpt>
      <trkpt lat="42.6790470" lon="-0.5275320">
        <ele>1009.2</ele>
        <time>2023-01-14T11:54:56Z</time>
      </trkpt>
      <trkpt lat="42.6790560" lon="-0.5275590">
        <ele>1008.8</ele>
        <time>2023-01-14T11:54:57Z</time>
      </trkpt>
      <trkpt lat="42.6790620" lon="-0.5275830">
        <ele>1008.6</ele>
        <time>2023-01-14T11:54:58Z</time>
      </trkpt>
      <trkpt lat="42.6790670" lon="-0.5276040">
        <ele>1008.2</ele>
        <time>2023-01-14T11:54:59Z</time>
      </trkpt>
      <trkpt lat="42.6790680" lon="-0.5276170">
        <ele>1007.8</ele>
        <time>2023-01-14T11:55:00Z</time>
      </trkpt>
      <trkpt lat="42.6790650" lon="-0.5276190">
        <ele>1007.6</ele>
        <time>2023-01-14T11:55:01Z</time>
      </trkpt>
      <trkpt lat="42.6790630" lon="-0.5276180">
        <ele>1007.4</ele>
        <time>2023-01-14T11:55:02Z</time>
      </trkpt>
      <trkpt lat="42.6790610" lon="-0.5276170">
        <ele>1007.2</ele>
        <time>2023-01-14T11:55:03Z</time>
      </trkpt>
      <trkpt lat="42.6790590" lon="-0.5276160">
        <ele>1007.0</ele>
        <time>2023-01-14T11:55:04Z</time>
      </trkpt>
      <trkpt lat="42.6790600" lon="-0.5276160">
        <ele>1007.0</ele>
        <time>2023-01-14T11:55:05Z</time>
      </trkpt>
      <trkpt lat="42.6790600" lon="-0.5276160">
        <ele>1007.0</ele>
        <time>2023-01-14T11:55:06Z</time>
      </trkpt>
      <trkpt lat="42.6790610" lon="-0.5276160">
        <ele>1007.0</ele>
        <time>2023-01-14T11:55:07Z</time>
      </trkpt>
      <trkpt lat="42.6790610" lon="-0.5276160">
        <ele>1007.0</ele>
        <time>2023-01-14T11:55:08Z</time>
      </trkpt>
      <trkpt lat="42.6790610" lon="-0.5276160">
        <ele>1007.2</ele>
        <time>2023-01-14T11:55:09Z</time>
      </trkpt>
      <trkpt lat="42.6790610" lon="-0.5276160">
        <ele>1007.2</ele>
        <time>2023-01-14T11:55:10Z</time>
      </trkpt>
      <trkpt lat="42.6790610" lon="-0.5276160">
        <ele>1007.2</ele>
        <time>2023-01-14T11:55:11Z</time>
      </trkpt>
      <trkpt lat="42.6790600" lon="-0.5276160">
        <ele>1007.2</ele>
        <time>2023-01-14T11:55:12Z</time>
      </trkpt>
      <trkpt lat="42.6790600" lon="-0.5276160">
        <ele>1007.4</ele>
        <time>2023-01-14T11:55:13Z</time>
      </trkpt>
      <trkpt lat="42.6790600" lon="-0.5276150">
        <ele>1007.4</ele>
        <time>2023-01-14T11:55:14Z</time>
      </trkpt>
      <trkpt lat="42.6790590" lon="-0.5276150">
        <ele>1007.2</ele>
        <time>2023-01-14T11:55:15Z</time>
      </trkpt>
      <trkpt lat="42.6790590" lon="-0.5276150">
        <ele>1007.2</ele>
        <time>2023-01-14T11:55:16Z</time>
      </trkpt>
      <trkpt lat="42.6790580" lon="-0.5276150">
        <ele>1007.2</ele>
        <time>2023-01-14T11:55:17Z</time>
      </trkpt>
      <trkpt lat="42.6790580" lon="-0.5276140">
        <ele>1007.2</ele>
        <time>2023-01-14T11:55:18Z</time>
      </trkpt>
      <trkpt lat="42.6790580" lon="-0.5276140">
        <ele>1007.2</ele>
        <time>2023-01-14T11:55:19Z</time>
      </trkpt>
      <trkpt lat="42.6790570" lon="-0.5276130">
        <ele>1007.2</ele>
        <time>2023-01-14T11:55:20Z</time>
      </trkpt>
      <trkpt lat="42.6790570" lon="-0.5276130">
        <ele>1007.2</ele>
        <time>2023-01-14T11:55:21Z</time>
      </trkpt>
      <trkpt lat="42.6790570" lon="-0.5276130">
        <ele>1007.2</ele>
        <time>2023-01-14T11:55:22Z</time>
      </trkpt>
      <trkpt lat="42.6790570" lon="-0.5276130">
        <ele>1007.2</ele>
        <time>2023-01-14T11:55:23Z</time>
      </trkpt>
      <trkpt lat="42.6790560" lon="-0.5276130">
        <ele>1007.2</ele>
        <time>2023-01-14T11:55:24Z</time>
      </trkpt>
      <trkpt lat="42.6790560" lon="-0.5276130">
        <ele>1007.2</ele>
        <time>2023-01-14T11:55:25Z</time>
      </trkpt>
      <trkpt lat="42.6790570" lon="-0.5276140">
        <ele>1007.2</ele>
        <time>2023-01-14T11:55:26Z</time>
      </trkpt>
      <trkpt lat="42.6790570" lon="-0.5276140">
        <ele>1007.2</ele>
        <time>2023-01-14T11:55:27Z</time>
      </trkpt>
      <trkpt lat="42.6790570" lon="-0.5276140">
        <ele>1007.2</ele>
        <time>2023-01-14T11:55:28Z</time>
      </trkpt>
      <trkpt lat="42.6790570" lon="-0.5276140">
        <ele>1007.4</ele>
        <time>2023-01-14T11:55:29Z</time>
      </trkpt>
      <trkpt lat="42.6790570" lon="-0.5276150">
        <ele>1007.4</ele>
        <time>2023-01-14T11:55:30Z</time>
      </trkpt>
      <trkpt lat="42.6790580" lon="-0.5276150">
        <ele>1007.2</ele>
        <time>2023-01-14T11:55:31Z</time>
      </trkpt>
      <trkpt lat="42.6790580" lon="-0.5276150">
        <ele>1007.2</ele>
        <time>2023-01-14T11:55:32Z</time>
      </trkpt>
      <trkpt lat="42.6790580" lon="-0.5276150">
        <ele>1007.2</ele>
        <time>2023-01-14T11:55:33Z</time>
      </trkpt>
      <trkpt lat="42.6790590" lon="-0.5276160">
        <ele>1007.2</ele>
        <time>2023-01-14T11:55:34Z</time>
      </trkpt>
      <trkpt lat="42.6790590" lon="-0.5276160">
        <ele>1007.4</ele>
        <time>2023-01-14T11:55:35Z</time>
      </trkpt>
      <trkpt lat="42.6790590" lon="-0.5276160">
        <ele>1007.4</ele>
        <time>2023-01-14T11:55:36Z</time>
      </trkpt>
      <trkpt lat="42.6790590" lon="-0.5276160">
        <ele>1007.4</ele>
        <time>2023-01-14T11:55:37Z</time>
      </trkpt>
      <trkpt lat="42.6790590" lon="-0.5276170">
        <ele>1007.4</ele>
        <time>2023-01-14T11:55:38Z</time>
      </trkpt>
      <trkpt lat="42.6790600" lon="-0.5276170">
        <ele>1007.4</ele>
        <time>2023-01-14T11:55:39Z</time>
      </trkpt>
      <trkpt lat="42.6790600" lon="-0.5276170">
        <ele>1007.4</ele>
        <time>2023-01-14T11:55:40Z</time>
      </trkpt>
      <trkpt lat="42.6790600" lon="-0.5276170">
        <ele>1007.6</ele>
        <time>2023-01-14T11:55:41Z</time>
      </trkpt>
      <trkpt lat="42.6790600" lon="-0.5276180">
        <ele>1007.6</ele>
        <time>2023-01-14T11:55:42Z</time>
      </trkpt>
      <trkpt lat="42.6790610" lon="-0.5276180">
        <ele>1007.6</ele>
        <time>2023-01-14T11:55:43Z</time>
      </trkpt>
      <trkpt lat="42.6790610" lon="-0.5276180">
        <ele>1007.6</ele>
        <time>2023-01-14T11:55:44Z</time>
      </trkpt>
      <trkpt lat="42.6790610" lon="-0.5276180">
        <ele>1007.6</ele>
        <time>2023-01-14T11:55:45Z</time>
      </trkpt>
      <trkpt lat="42.6790610" lon="-0.5276180">
        <ele>1007.6</ele>
        <time>2023-01-14T11:55:46Z</time>
      </trkpt>
      <trkpt lat="42.6790610" lon="-0.5276180">
        <ele>1007.6</ele>
        <time>2023-01-14T11:55:47Z</time>
      </trkpt>
      <trkpt lat="42.6790600" lon="-0.5276180">
        <ele>1007.6</ele>
        <time>2023-01-14T11:55:48Z</time>
      </trkpt>
      <trkpt lat="42.6790600" lon="-0.5276180">
        <ele>1007.6</ele>
        <time>2023-01-14T11:55:49Z</time>
      </trkpt>
      <trkpt lat="42.6790600" lon="-0.5276180">
        <ele>1007.6</ele>
        <time>2023-01-14T11:55:50Z</time>
      </trkpt>
      <trkpt lat="42.6790600" lon="-0.5276180">
        <ele>1007.6</ele>
        <time>2023-01-14T11:55:51Z</time>
      </trkpt>
      <trkpt lat="42.6790600" lon="-0.5276170">
        <ele>1007.8</ele>
        <time>2023-01-14T11:55:52Z</time>
      </trkpt>
      <trkpt lat="42.6790600" lon="-0.5276170">
        <ele>1007.8</ele>
        <time>2023-01-14T11:55:53Z</time>
      </trkpt>
      <trkpt lat="42.6790600" lon="-0.5276160">
        <ele>1007.8</ele>
        <time>2023-01-14T11:55:54Z</time>
      </trkpt>
      <trkpt lat="42.6790600" lon="-0.5276160">
        <ele>1007.8</ele>
        <time>2023-01-14T11:55:55Z</time>
      </trkpt>
      <trkpt lat="42.6790600" lon="-0.5276160">
        <ele>1007.6</ele>
        <time>2023-01-14T11:55:56Z</time>
      </trkpt>
      <trkpt lat="42.6790600" lon="-0.5276160">
        <ele>1007.6</ele>
        <time>2023-01-14T11:55:57Z</time>
      </trkpt>
      <trkpt lat="42.6790600" lon="-0.5276160">
        <ele>1007.6</ele>
        <time>2023-01-14T11:55:58Z</time>
      </trkpt>
      <trkpt lat="42.6790600" lon="-0.5276150">
        <ele>1007.8</ele>
        <time>2023-01-14T11:55:59Z</time>
      </trkpt>
      <trkpt lat="42.6790600" lon="-0.5276150">
        <ele>1007.6</ele>
        <time>2023-01-14T11:56:00Z</time>
      </trkpt>
      <trkpt lat="42.6790600" lon="-0.5276150">
        <ele>1007.8</ele>
        <time>2023-01-14T11:56:01Z</time>
      </trkpt>
      <trkpt lat="42.6790600" lon="-0.5276150">
        <ele>1007.8</ele>
        <time>2023-01-14T11:56:02Z</time>
      </trkpt>
      <trkpt lat="42.6790600" lon="-0.5276150">
        <ele>1007.8</ele>
        <time>2023-01-14T11:56:03Z</time>
      </trkpt>
      <trkpt lat="42.6790600" lon="-0.5276150">
        <ele>1007.8</ele>
        <time>2023-01-14T11:56:04Z</time>
      </trkpt>
      <trkpt lat="42.6790600" lon="-0.5276150">
        <ele>1007.8</ele>
        <time>2023-01-14T11:56:05Z</time>
      </trkpt>
      <trkpt lat="42.6790600" lon="-0.5276150">
        <ele>1007.8</ele>
        <time>2023-01-14T11:56:06Z</time>
      </trkpt>
      <trkpt lat="42.6790600" lon="-0.5276150">
        <ele>1007.8</ele>
        <time>2023-01-14T11:56:07Z</time>
      </trkpt>
      <trkpt lat="42.6790600" lon="-0.5276140">
        <ele>1007.8</ele>
        <time>2023-01-14T11:56:08Z</time>
      </trkpt>
      <trkpt lat="42.6790600" lon="-0.5276140">
        <ele>1007.8</ele>
        <time>2023-01-14T11:56:09Z</time>
      </trkpt>
      <trkpt lat="42.6790610" lon="-0.5276140">
        <ele>1007.8</ele>
        <time>2023-01-14T11:56:10Z</time>
      </trkpt>
      <trkpt lat="42.6790610" lon="-0.5276140">
        <ele>1007.6</ele>
        <time>2023-01-14T11:56:11Z</time>
      </trkpt>
      <trkpt lat="42.6790610" lon="-0.5276140">
        <ele>1007.8</ele>
        <time>2023-01-14T11:56:12Z</time>
      </trkpt>
      <trkpt lat="42.6790610" lon="-0.5276140">
        <ele>1007.8</ele>
        <time>2023-01-14T11:56:13Z</time>
      </trkpt>
      <trkpt lat="42.6790610" lon="-0.5276140">
        <ele>1007.8</ele>
        <time>2023-01-14T11:56:14Z</time>
      </trkpt>
      <trkpt lat="42.6790610" lon="-0.5276140">
        <ele>1007.8</ele>
        <time>2023-01-14T11:56:15Z</time>
      </trkpt>
      <trkpt lat="42.6790620" lon="-0.5276140">
        <ele>1007.8</ele>
        <time>2023-01-14T11:56:16Z</time>
      </trkpt>
      <trkpt lat="42.6790620" lon="-0.5276140">
        <ele>1007.8</ele>
        <time>2023-01-14T11:56:17Z</time>
      </trkpt>
      <trkpt lat="42.6790620" lon="-0.5276140">
        <ele>1008.0</ele>
        <time>2023-01-14T11:56:18Z</time>
      </trkpt>
      <trkpt lat="42.6790620" lon="-0.5276150">
        <ele>1008.0</ele>
        <time>2023-01-14T11:56:19Z</time>
      </trkpt>
      <trkpt lat="42.6790620" lon="-0.5276150">
        <ele>1008.0</ele>
        <time>2023-01-14T11:56:20Z</time>
      </trkpt>
      <trkpt lat="42.6790620" lon="-0.5276150">
        <ele>1008.0</ele>
        <time>2023-01-14T11:56:21Z</time>
      </trkpt>
      <trkpt lat="42.6790620" lon="-0.5276160">
        <ele>1008.0</ele>
        <time>2023-01-14T11:56:22Z</time>
      </trkpt>
      <trkpt lat="42.6790620" lon="-0.5276160">
        <ele>1008.2</ele>
        <time>2023-01-14T11:56:23Z</time>
      </trkpt>
      <trkpt lat="42.6790620" lon="-0.5276160">
        <ele>1008.2</ele>
        <time>2023-01-14T11:56:24Z</time>
      </trkpt>
      <trkpt lat="42.6790630" lon="-0.5276160">
        <ele>1008.2</ele>
        <time>2023-01-14T11:56:25Z</time>
      </trkpt>
      <trkpt lat="42.6790630" lon="-0.5276160">
        <ele>1008.2</ele>
        <time>2023-01-14T11:56:26Z</time>
      </trkpt>
      <trkpt lat="42.6790640" lon="-0.5276160">
        <ele>1008.2</ele>
        <time>2023-01-14T11:56:27Z</time>
      </trkpt>
      <trkpt lat="42.6790640" lon="-0.5276160">
        <ele>1008.2</ele>
        <time>2023-01-14T11:56:28Z</time>
      </trkpt>
      <trkpt lat="42.6790650" lon="-0.5276160">
        <ele>1008.2</ele>
        <time>2023-01-14T11:56:29Z</time>
      </trkpt>
      <trkpt lat="42.6790650" lon="-0.5276170">
        <ele>1008.2</ele>
        <time>2023-01-14T11:56:30Z</time>
      </trkpt>
      <trkpt lat="42.6790660" lon="-0.5276170">
        <ele>1008.2</ele>
        <time>2023-01-14T11:56:31Z</time>
      </trkpt>
      <trkpt lat="42.6790660" lon="-0.5276180">
        <ele>1008.2</ele>
        <time>2023-01-14T11:56:32Z</time>
      </trkpt>
      <trkpt lat="42.6790660" lon="-0.5276180">
        <ele>1008.2</ele>
        <time>2023-01-14T11:56:33Z</time>
      </trkpt>
      <trkpt lat="42.6790660" lon="-0.5276180">
        <ele>1008.2</ele>
        <time>2023-01-14T11:56:34Z</time>
      </trkpt>
      <trkpt lat="42.6790660" lon="-0.5276180">
        <ele>1008.2</ele>
        <time>2023-01-14T11:56:35Z</time>
      </trkpt>
      <trkpt lat="42.6790660" lon="-0.5276180">
        <ele>1008.2</ele>
        <time>2023-01-14T11:56:36Z</time>
      </trkpt>
      <trkpt lat="42.6790670" lon="-0.5276180">
        <ele>1008.2</ele>
        <time>2023-01-14T11:56:37Z</time>
      </trkpt>
      <trkpt lat="42.6790670" lon="-0.5276180">
        <ele>1008.2</ele>
        <time>2023-01-14T11:56:38Z</time>
      </trkpt>
      <trkpt lat="42.6790670" lon="-0.5276180">
        <ele>1008.2</ele>
        <time>2023-01-14T11:56:39Z</time>
      </trkpt>
      <trkpt lat="42.6790670" lon="-0.5276170">
        <ele>1008.2</ele>
        <time>2023-01-14T11:56:40Z</time>
      </trkpt>
      <trkpt lat="42.6790670" lon="-0.5276170">
        <ele>1008.4</ele>
        <time>2023-01-14T11:56:41Z</time>
      </trkpt>
      <trkpt lat="42.6790670" lon="-0.5276170">
        <ele>1008.2</ele>
        <time>2023-01-14T11:56:42Z</time>
      </trkpt>
      <trkpt lat="42.6790670" lon="-0.5276160">
        <ele>1008.0</ele>
        <time>2023-01-14T11:56:43Z</time>
      </trkpt>
      <trkpt lat="42.6790670" lon="-0.5276160">
        <ele>1008.0</ele>
        <time>2023-01-14T11:56:44Z</time>
      </trkpt>
      <trkpt lat="42.6790680" lon="-0.5276150">
        <ele>1008.0</ele>
        <time>2023-01-14T11:56:45Z</time>
      </trkpt>
      <trkpt lat="42.6790680" lon="-0.5276150">
        <ele>1008.2</ele>
        <time>2023-01-14T11:56:46Z</time>
      </trkpt>
      <trkpt lat="42.6790680" lon="-0.5276150">
        <ele>1008.2</ele>
        <time>2023-01-14T11:56:47Z</time>
      </trkpt>
      <trkpt lat="42.6790680" lon="-0.5276140">
        <ele>1008.2</ele>
        <time>2023-01-14T11:56:48Z</time>
      </trkpt>
      <trkpt lat="42.6790690" lon="-0.5276140">
        <ele>1008.2</ele>
        <time>2023-01-14T11:56:49Z</time>
      </trkpt>
      <trkpt lat="42.6790690" lon="-0.5276130">
        <ele>1008.2</ele>
        <time>2023-01-14T11:56:50Z</time>
      </trkpt>
      <trkpt lat="42.6790680" lon="-0.5276130">
        <ele>1008.2</ele>
        <time>2023-01-14T11:56:51Z</time>
      </trkpt>
      <trkpt lat="42.6790680" lon="-0.5276130">
        <ele>1008.2</ele>
        <time>2023-01-14T11:56:52Z</time>
      </trkpt>
      <trkpt lat="42.6790680" lon="-0.5276130">
        <ele>1008.2</ele>
        <time>2023-01-14T11:56:53Z</time>
      </trkpt>
      <trkpt lat="42.6790680" lon="-0.5276120">
        <ele>1008.2</ele>
        <time>2023-01-14T11:56:54Z</time>
      </trkpt>
      <trkpt lat="42.6790680" lon="-0.5276120">
        <ele>1008.0</ele>
        <time>2023-01-14T11:56:55Z</time>
      </trkpt>
      <trkpt lat="42.6790670" lon="-0.5276120">
        <ele>1008.0</ele>
        <time>2023-01-14T11:56:56Z</time>
      </trkpt>
      <trkpt lat="42.6790670" lon="-0.5276110">
        <ele>1008.0</ele>
        <time>2023-01-14T11:56:57Z</time>
      </trkpt>
      <trkpt lat="42.6790670" lon="-0.5276110">
        <ele>1008.0</ele>
        <time>2023-01-14T11:56:58Z</time>
      </trkpt>
      <trkpt lat="42.6790670" lon="-0.5276110">
        <ele>1008.0</ele>
        <time>2023-01-14T11:56:59Z</time>
      </trkpt>
      <trkpt lat="42.6790670" lon="-0.5276110">
        <ele>1008.0</ele>
        <time>2023-01-14T11:57:00Z</time>
      </trkpt>
      <trkpt lat="42.6790670" lon="-0.5276110">
        <ele>1007.8</ele>
        <time>2023-01-14T11:57:01Z</time>
      </trkpt>
      <trkpt lat="42.6790680" lon="-0.5276110">
        <ele>1008.0</ele>
        <time>2023-01-14T11:57:02Z</time>
      </trkpt>
      <trkpt lat="42.6790680" lon="-0.5276110">
        <ele>1008.0</ele>
        <time>2023-01-14T11:57:03Z</time>
      </trkpt>
      <trkpt lat="42.6790680" lon="-0.5276110">
        <ele>1007.4</ele>
        <time>2023-01-14T11:57:04Z</time>
      </trkpt>
      <trkpt lat="42.6790680" lon="-0.5276110">
        <ele>1007.4</ele>
        <time>2023-01-14T11:57:05Z</time>
      </trkpt>
      <trkpt lat="42.6790680" lon="-0.5276110">
        <ele>1007.4</ele>
        <time>2023-01-14T11:57:06Z</time>
      </trkpt>
      <trkpt lat="42.6790680" lon="-0.5276110">
        <ele>1007.4</ele>
        <time>2023-01-14T11:57:07Z</time>
      </trkpt>
      <trkpt lat="42.6790680" lon="-0.5276110">
        <ele>1007.4</ele>
        <time>2023-01-14T11:57:08Z</time>
      </trkpt>
      <trkpt lat="42.6790680" lon="-0.5276110">
        <ele>1007.4</ele>
        <time>2023-01-14T11:57:09Z</time>
      </trkpt>
      <trkpt lat="42.6790690" lon="-0.5276110">
        <ele>1007.4</ele>
        <time>2023-01-14T11:57:10Z</time>
      </trkpt>
      <trkpt lat="42.6790690" lon="-0.5276110">
        <ele>1007.4</ele>
        <time>2023-01-14T11:57:11Z</time>
      </trkpt>
      <trkpt lat="42.6790690" lon="-0.5276110">
        <ele>1007.4</ele>
        <time>2023-01-14T11:57:12Z</time>
      </trkpt>
      <trkpt lat="42.6790690" lon="-0.5276110">
        <ele>1007.4</ele>
        <time>2023-01-14T11:57:13Z</time>
      </trkpt>
      <trkpt lat="42.6790690" lon="-0.5276110">
        <ele>1007.4</ele>
        <time>2023-01-14T11:57:14Z</time>
      </trkpt>
      <trkpt lat="42.6790700" lon="-0.5276110">
        <ele>1007.4</ele>
        <time>2023-01-14T11:57:15Z</time>
      </trkpt>
      <trkpt lat="42.6790700" lon="-0.5276110">
        <ele>1007.4</ele>
        <time>2023-01-14T11:57:16Z</time>
      </trkpt>
      <trkpt lat="42.6790750" lon="-0.5276190">
        <ele>1007.4</ele>
        <time>2023-01-14T11:57:17Z</time>
      </trkpt>
      <trkpt lat="42.6790820" lon="-0.5276340">
        <ele>1007.4</ele>
        <time>2023-01-14T11:57:18Z</time>
      </trkpt>
      <trkpt lat="42.6790850" lon="-0.5276540">
        <ele>1007.4</ele>
        <time>2023-01-14T11:57:19Z</time>
      </trkpt>
      <trkpt lat="42.6790930" lon="-0.5276730">
        <ele>1007.4</ele>
        <time>2023-01-14T11:57:20Z</time>
      </trkpt>
      <trkpt lat="42.6791100" lon="-0.5276890">
        <ele>1007.4</ele>
        <time>2023-01-14T11:57:21Z</time>
      </trkpt>
      <trkpt lat="42.6791190" lon="-0.5277080">
        <ele>1007.4</ele>
        <time>2023-01-14T11:57:22Z</time>
      </trkpt>
      <trkpt lat="42.6791210" lon="-0.5277360">
        <ele>1007.4</ele>
        <time>2023-01-14T11:57:23Z</time>
      </trkpt>
      <trkpt lat="42.6791220" lon="-0.5277660">
        <ele>1007.4</ele>
        <time>2023-01-14T11:57:24Z</time>
      </trkpt>
      <trkpt lat="42.6791210" lon="-0.5277910">
        <ele>1007.2</ele>
        <time>2023-01-14T11:57:25Z</time>
      </trkpt>
      <trkpt lat="42.6791200" lon="-0.5278000">
        <ele>1007.0</ele>
        <time>2023-01-14T11:57:26Z</time>
      </trkpt>
      <trkpt lat="42.6791180" lon="-0.5278030">
        <ele>1006.8</ele>
        <time>2023-01-14T11:57:27Z</time>
      </trkpt>
      <trkpt lat="42.6791180" lon="-0.5278040">
        <ele>1006.8</ele>
        <time>2023-01-14T11:57:28Z</time>
      </trkpt>
      <trkpt lat="42.6791170" lon="-0.5278060">
        <ele>1006.8</ele>
        <time>2023-01-14T11:57:29Z</time>
      </trkpt>
      <trkpt lat="42.6791170" lon="-0.5278070">
        <ele>1006.8</ele>
        <time>2023-01-14T11:57:30Z</time>
      </trkpt>
      <trkpt lat="42.6791170" lon="-0.5278070">
        <ele>1006.6</ele>
        <time>2023-01-14T11:57:31Z</time>
      </trkpt>
      <trkpt lat="42.6791170" lon="-0.5278080">
        <ele>1006.6</ele>
        <time>2023-01-14T11:57:32Z</time>
      </trkpt>
      <trkpt lat="42.6791170" lon="-0.5278080">
        <ele>1006.6</ele>
        <time>2023-01-14T11:57:33Z</time>
      </trkpt>
      <trkpt lat="42.6791170" lon="-0.5278080">
        <ele>1006.6</ele>
        <time>2023-01-14T11:57:34Z</time>
      </trkpt>
      <trkpt lat="42.6791170" lon="-0.5278090">
        <ele>1006.6</ele>
        <time>2023-01-14T11:57:35Z</time>
      </trkpt>
      <trkpt lat="42.6791170" lon="-0.5278090">
        <ele>1006.6</ele>
        <time>2023-01-14T11:57:36Z</time>
      </trkpt>
      <trkpt lat="42.6791170" lon="-0.5278090">
        <ele>1006.6</ele>
        <time>2023-01-14T11:57:37Z</time>
      </trkpt>
      <trkpt lat="42.6791170" lon="-0.5278100">
        <ele>1006.6</ele>
        <time>2023-01-14T11:57:38Z</time>
      </trkpt>
      <trkpt lat="42.6791170" lon="-0.5278100">
        <ele>1006.8</ele>
        <time>2023-01-14T11:57:39Z</time>
      </trkpt>
      <trkpt lat="42.6791170" lon="-0.5278100">
        <ele>1006.8</ele>
        <time>2023-01-14T11:57:40Z</time>
      </trkpt>
      <trkpt lat="42.6791170" lon="-0.5278100">
        <ele>1006.8</ele>
        <time>2023-01-14T11:57:41Z</time>
      </trkpt>
      <trkpt lat="42.6791170" lon="-0.5278110">
        <ele>1006.8</ele>
        <time>2023-01-14T11:57:42Z</time>
      </trkpt>
      <trkpt lat="42.6791170" lon="-0.5278110">
        <ele>1006.8</ele>
        <time>2023-01-14T11:57:43Z</time>
      </trkpt>
      <trkpt lat="42.6791170" lon="-0.5278110">
        <ele>1006.8</ele>
        <time>2023-01-14T11:57:44Z</time>
      </trkpt>
      <trkpt lat="42.6791170" lon="-0.5278120">
        <ele>1007.0</ele>
        <time>2023-01-14T11:57:45Z</time>
      </trkpt>
      <trkpt lat="42.6791160" lon="-0.5278120">
        <ele>1007.0</ele>
        <time>2023-01-14T11:57:46Z</time>
      </trkpt>
      <trkpt lat="42.6791160" lon="-0.5278120">
        <ele>1007.0</ele>
        <time>2023-01-14T11:57:47Z</time>
      </trkpt>
      <trkpt lat="42.6791160" lon="-0.5278130">
        <ele>1007.2</ele>
        <time>2023-01-14T11:57:48Z</time>
      </trkpt>
      <trkpt lat="42.6791160" lon="-0.5278130">
        <ele>1007.2</ele>
        <time>2023-01-14T11:57:49Z</time>
      </trkpt>
      <trkpt lat="42.6791150" lon="-0.5278130">
        <ele>1007.4</ele>
        <time>2023-01-14T11:57:50Z</time>
      </trkpt>
      <trkpt lat="42.6791150" lon="-0.5278130">
        <ele>1007.4</ele>
        <time>2023-01-14T11:57:51Z</time>
      </trkpt>
      <trkpt lat="42.6791150" lon="-0.5278140">
        <ele>1007.4</ele>
        <time>2023-01-14T11:57:52Z</time>
      </trkpt>
      <trkpt lat="42.6791140" lon="-0.5278140">
        <ele>1007.4</ele>
        <time>2023-01-14T11:57:53Z</time>
      </trkpt>
      <trkpt lat="42.6791140" lon="-0.5278140">
        <ele>1007.4</ele>
        <time>2023-01-14T11:57:54Z</time>
      </trkpt>
      <trkpt lat="42.6791140" lon="-0.5278140">
        <ele>1007.4</ele>
        <time>2023-01-14T11:57:55Z</time>
      </trkpt>
      <trkpt lat="42.6791130" lon="-0.5278140">
        <ele>1007.4</ele>
        <time>2023-01-14T11:57:56Z</time>
      </trkpt>
      <trkpt lat="42.6791130" lon="-0.5278140">
        <ele>1007.4</ele>
        <time>2023-01-14T11:57:57Z</time>
      </trkpt>
      <trkpt lat="42.6791130" lon="-0.5278150">
        <ele>1007.4</ele>
        <time>2023-01-14T11:57:58Z</time>
      </trkpt>
      <trkpt lat="42.6791130" lon="-0.5278150">
        <ele>1007.4</ele>
        <time>2023-01-14T11:57:59Z</time>
      </trkpt>
      <trkpt lat="42.6791120" lon="-0.5278150">
        <ele>1007.4</ele>
        <time>2023-01-14T11:58:00Z</time>
      </trkpt>
      <trkpt lat="42.6791120" lon="-0.5278150">
        <ele>1007.4</ele>
        <time>2023-01-14T11:58:01Z</time>
      </trkpt>
      <trkpt lat="42.6791120" lon="-0.5278150">
        <ele>1007.4</ele>
        <time>2023-01-14T11:58:02Z</time>
      </trkpt>
      <trkpt lat="42.6791120" lon="-0.5278150">
        <ele>1007.4</ele>
        <time>2023-01-14T11:58:03Z</time>
      </trkpt>
      <trkpt lat="42.6791110" lon="-0.5278150">
        <ele>1007.4</ele>
        <time>2023-01-14T11:58:04Z</time>
      </trkpt>
      <trkpt lat="42.6791110" lon="-0.5278150">
        <ele>1007.4</ele>
        <time>2023-01-14T11:58:05Z</time>
      </trkpt>
      <trkpt lat="42.6791110" lon="-0.5278150">
        <ele>1007.4</ele>
        <time>2023-01-14T11:58:06Z</time>
      </trkpt>
      <trkpt lat="42.6791110" lon="-0.5278150">
        <ele>1007.4</ele>
        <time>2023-01-14T11:58:07Z</time>
      </trkpt>
      <trkpt lat="42.6791110" lon="-0.5278160">
        <ele>1007.4</ele>
        <time>2023-01-14T11:58:08Z</time>
      </trkpt>
      <trkpt lat="42.6791110" lon="-0.5278160">
        <ele>1007.4</ele>
        <time>2023-01-14T11:58:09Z</time>
      </trkpt>
      <trkpt lat="42.6791100" lon="-0.5278170">
        <ele>1007.6</ele>
        <time>2023-01-14T11:58:10Z</time>
      </trkpt>
      <trkpt lat="42.6791100" lon="-0.5278180">
        <ele>1007.4</ele>
        <time>2023-01-14T11:58:11Z</time>
      </trkpt>
      <trkpt lat="42.6791090" lon="-0.5278190">
        <ele>1007.4</ele>
        <time>2023-01-14T11:58:12Z</time>
      </trkpt>
      <trkpt lat="42.6791080" lon="-0.5278190">
        <ele>1007.4</ele>
        <time>2023-01-14T11:58:13Z</time>
      </trkpt>
      <trkpt lat="42.6791080" lon="-0.5278190">
        <ele>1007.4</ele>
        <time>2023-01-14T11:58:14Z</time>
      </trkpt>
      <trkpt lat="42.6791070" lon="-0.5278190">
        <ele>1007.4</ele>
        <time>2023-01-14T11:58:15Z</time>
      </trkpt>
      <trkpt lat="42.6791070" lon="-0.5278200">
        <ele>1007.4</ele>
        <time>2023-01-14T11:58:16Z</time>
      </trkpt>
      <trkpt lat="42.6791070" lon="-0.5278220">
        <ele>1007.4</ele>
        <time>2023-01-14T11:58:17Z</time>
      </trkpt>
      <trkpt lat="42.6791070" lon="-0.5278360">
        <ele>1007.4</ele>
        <time>2023-01-14T11:58:18Z</time>
      </trkpt>
      <trkpt lat="42.6791080" lon="-0.5278640">
        <ele>1007.4</ele>
        <time>2023-01-14T11:58:19Z</time>
      </trkpt>
      <trkpt lat="42.6791110" lon="-0.5279010">
        <ele>1007.4</ele>
        <time>2023-01-14T11:58:20Z</time>
      </trkpt>
      <trkpt lat="42.6791140" lon="-0.5279430">
        <ele>1007.2</ele>
        <time>2023-01-14T11:58:21Z</time>
      </trkpt>
      <trkpt lat="42.6791150" lon="-0.5279890">
        <ele>1007.0</ele>
        <time>2023-01-14T11:58:22Z</time>
      </trkpt>
      <trkpt lat="42.6791110" lon="-0.5280380">
        <ele>1006.8</ele>
        <time>2023-01-14T11:58:23Z</time>
      </trkpt>
      <trkpt lat="42.6791010" lon="-0.5280890">
        <ele>1006.6</ele>
        <time>2023-01-14T11:58:24Z</time>
      </trkpt>
      <trkpt lat="42.6790830" lon="-0.5281410">
        <ele>1006.4</ele>
        <time>2023-01-14T11:58:25Z</time>
      </trkpt>
      <trkpt lat="42.6790570" lon="-0.5281870">
        <ele>1006.2</ele>
        <time>2023-01-14T11:58:26Z</time>
      </trkpt>
      <trkpt lat="42.6790270" lon="-0.5282310">
        <ele>1006.0</ele>
        <time>2023-01-14T11:58:27Z</time>
      </trkpt>
      <trkpt lat="42.6789950" lon="-0.5282770">
        <ele>1005.6</ele>
        <time>2023-01-14T11:58:28Z</time>
      </trkpt>
      <trkpt lat="42.6789640" lon="-0.5283240">
        <ele>1005.6</ele>
        <time>2023-01-14T11:58:29Z</time>
      </trkpt>
      <trkpt lat="42.6789330" lon="-0.5283710">
        <ele>1005.2</ele>
        <time>2023-01-14T11:58:30Z</time>
      </trkpt>
      <trkpt lat="42.6789020" lon="-0.5284170">
        <ele>1004.8</ele>
        <time>2023-01-14T11:58:31Z</time>
      </trkpt>
      <trkpt lat="42.6788710" lon="-0.5284590">
        <ele>1004.6</ele>
        <time>2023-01-14T11:58:32Z</time>
      </trkpt>
      <trkpt lat="42.6788380" lon="-0.5285020">
        <ele>1004.4</ele>
        <time>2023-01-14T11:58:33Z</time>
      </trkpt>
      <trkpt lat="42.6788050" lon="-0.5285450">
        <ele>1004.2</ele>
        <time>2023-01-14T11:58:34Z</time>
      </trkpt>
      <trkpt lat="42.6787710" lon="-0.5285860">
        <ele>1004.0</ele>
        <time>2023-01-14T11:58:35Z</time>
      </trkpt>
      <trkpt lat="42.6787340" lon="-0.5286220">
        <ele>1003.8</ele>
        <time>2023-01-14T11:58:36Z</time>
      </trkpt>
      <trkpt lat="42.6786980" lon="-0.5286560">
        <ele>1003.8</ele>
        <time>2023-01-14T11:58:37Z</time>
      </trkpt>
      <trkpt lat="42.6786640" lon="-0.5286920">
        <ele>1003.8</ele>
        <time>2023-01-14T11:58:38Z</time>
      </trkpt>
      <trkpt lat="42.6786300" lon="-0.5287290">
        <ele>1003.8</ele>
        <time>2023-01-14T11:58:39Z</time>
      </trkpt>
      <trkpt lat="42.6785980" lon="-0.5287670">
        <ele>1003.6</ele>
        <time>2023-01-14T11:58:40Z</time>
      </trkpt>
      <trkpt lat="42.6785690" lon="-0.5288080">
        <ele>1003.6</ele>
        <time>2023-01-14T11:58:41Z</time>
      </trkpt>
      <trkpt lat="42.6785390" lon="-0.5288480">
        <ele>1003.4</ele>
        <time>2023-01-14T11:58:42Z</time>
      </trkpt>
      <trkpt lat="42.6785100" lon="-0.5288860">
        <ele>1003.4</ele>
        <time>2023-01-14T11:58:43Z</time>
      </trkpt>
      <trkpt lat="42.6784800" lon="-0.5289210">
        <ele>1003.2</ele>
        <time>2023-01-14T11:58:44Z</time>
      </trkpt>
      <trkpt lat="42.6784500" lon="-0.5289580">
        <ele>1003.0</ele>
        <time>2023-01-14T11:58:45Z</time>
      </trkpt>
      <trkpt lat="42.6784240" lon="-0.5290000">
        <ele>1002.8</ele>
        <time>2023-01-14T11:58:46Z</time>
      </trkpt>
      <trkpt lat="42.6784000" lon="-0.5290500">
        <ele>1002.8</ele>
        <time>2023-01-14T11:58:47Z</time>
      </trkpt>
      <trkpt lat="42.6783760" lon="-0.5291040">
        <ele>1002.6</ele>
        <time>2023-01-14T11:58:48Z</time>
      </trkpt>
      <trkpt lat="42.6783500" lon="-0.5291590">
        <ele>1002.4</ele>
        <time>2023-01-14T11:58:49Z</time>
      </trkpt>
      <trkpt lat="42.6783200" lon="-0.5292130">
        <ele>1002.4</ele>
        <time>2023-01-14T11:58:50Z</time>
      </trkpt>
      <trkpt lat="42.6782900" lon="-0.5292650">
        <ele>1002.2</ele>
        <time>2023-01-14T11:58:51Z</time>
      </trkpt>
      <trkpt lat="42.6782600" lon="-0.5293150">
        <ele>1002.0</ele>
        <time>2023-01-14T11:58:52Z</time>
      </trkpt>
      <trkpt lat="42.6782310" lon="-0.5293630">
        <ele>1001.8</ele>
        <time>2023-01-14T11:58:53Z</time>
      </trkpt>
      <trkpt lat="42.6782030" lon="-0.5294130">
        <ele>1001.6</ele>
        <time>2023-01-14T11:58:54Z</time>
      </trkpt>
      <trkpt lat="42.6781770" lon="-0.5294680">
        <ele>1001.4</ele>
        <time>2023-01-14T11:58:55Z</time>
      </trkpt>
      <trkpt lat="42.6781540" lon="-0.5295260">
        <ele>1001.0</ele>
        <time>2023-01-14T11:58:56Z</time>
      </trkpt>
      <trkpt lat="42.6781380" lon="-0.5295850">
        <ele>1000.6</ele>
        <time>2023-01-14T11:58:57Z</time>
      </trkpt>
      <trkpt lat="42.6781290" lon="-0.5296440">
        <ele>1000.0</ele>
        <time>2023-01-14T11:58:58Z</time>
      </trkpt>
      <trkpt lat="42.6781230" lon="-0.5297000">
        <ele>999.8</ele>
        <time>2023-01-14T11:58:59Z</time>
      </trkpt>
      <trkpt lat="42.6781180" lon="-0.5297540">
        <ele>999.6</ele>
        <time>2023-01-14T11:59:00Z</time>
      </trkpt>
      <trkpt lat="42.6781210" lon="-0.5298060">
        <ele>999.4</ele>
        <time>2023-01-14T11:59:01Z</time>
      </trkpt>
      <trkpt lat="42.6781330" lon="-0.5298530">
        <ele>999.2</ele>
        <time>2023-01-14T11:59:02Z</time>
      </trkpt>
      <trkpt lat="42.6781520" lon="-0.5298940">
        <ele>999.2</ele>
        <time>2023-01-14T11:59:03Z</time>
      </trkpt>
      <trkpt lat="42.6781780" lon="-0.5299280">
        <ele>999.2</ele>
        <time>2023-01-14T11:59:04Z</time>
      </trkpt>
      <trkpt lat="42.6782030" lon="-0.5299570">
        <ele>999.0</ele>
        <time>2023-01-14T11:59:05Z</time>
      </trkpt>
      <trkpt lat="42.6782270" lon="-0.5299820">
        <ele>999.2</ele>
        <time>2023-01-14T11:59:06Z</time>
      </trkpt>
      <trkpt lat="42.6782510" lon="-0.5300000">
        <ele>999.2</ele>
        <time>2023-01-14T11:59:07Z</time>
      </trkpt>
      <trkpt lat="42.6782740" lon="-0.5300210">
        <ele>999.2</ele>
        <time>2023-01-14T11:59:08Z</time>
      </trkpt>
      <trkpt lat="42.6783020" lon="-0.5300430">
        <ele>999.2</ele>
        <time>2023-01-14T11:59:09Z</time>
      </trkpt>
      <trkpt lat="42.6783300" lon="-0.5300620">
        <ele>999.4</ele>
        <time>2023-01-14T11:59:10Z</time>
      </trkpt>
      <trkpt lat="42.6783600" lon="-0.5300790">
        <ele>999.6</ele>
        <time>2023-01-14T11:59:11Z</time>
      </trkpt>
      <trkpt lat="42.6783870" lon="-0.5300980">
        <ele>999.6</ele>
        <time>2023-01-14T11:59:12Z</time>
      </trkpt>
      <trkpt lat="42.6784030" lon="-0.5301170">
        <ele>999.8</ele>
        <time>2023-01-14T11:59:13Z</time>
      </trkpt>
      <trkpt lat="42.6784190" lon="-0.5301420">
        <ele>1000.0</ele>
        <time>2023-01-14T11:59:14Z</time>
      </trkpt>
      <trkpt lat="42.6784360" lon="-0.5301670">
        <ele>1000.2</ele>
        <time>2023-01-14T11:59:15Z</time>
      </trkpt>
      <trkpt lat="42.6784550" lon="-0.5301970">
        <ele>1000.4</ele>
        <time>2023-01-14T11:59:16Z</time>
      </trkpt>
      <trkpt lat="42.6784730" lon="-0.5302320">
        <ele>1000.6</ele>
        <time>2023-01-14T11:59:17Z</time>
      </trkpt>
      <trkpt lat="42.6784930" lon="-0.5302680">
        <ele>1000.6</ele>
        <time>2023-01-14T11:59:18Z</time>
      </trkpt>
      <trkpt lat="42.6785140" lon="-0.5303060">
        <ele>1000.6</ele>
        <time>2023-01-14T11:59:19Z</time>
      </trkpt>
      <trkpt lat="42.6785330" lon="-0.5303450">
        <ele>1000.6</ele>
        <time>2023-01-14T11:59:20Z</time>
      </trkpt>
      <trkpt lat="42.6785510" lon="-0.5303840">
        <ele>1000.6</ele>
        <time>2023-01-14T11:59:21Z</time>
      </trkpt>
      <trkpt lat="42.6785690" lon="-0.5304240">
        <ele>1000.6</ele>
        <time>2023-01-14T11:59:22Z</time>
      </trkpt>
      <trkpt lat="42.6785820" lon="-0.5304630">
        <ele>1000.6</ele>
        <time>2023-01-14T11:59:23Z</time>
      </trkpt>
      <trkpt lat="42.6785940" lon="-0.5304990">
        <ele>1000.6</ele>
        <time>2023-01-14T11:59:24Z</time>
      </trkpt>
      <trkpt lat="42.6786030" lon="-0.5305330">
        <ele>1000.6</ele>
        <time>2023-01-14T11:59:25Z</time>
      </trkpt>
      <trkpt lat="42.6786170" lon="-0.5305770">
        <ele>1000.6</ele>
        <time>2023-01-14T11:59:26Z</time>
      </trkpt>
      <trkpt lat="42.6786340" lon="-0.5306170">
        <ele>1000.4</ele>
        <time>2023-01-14T11:59:27Z</time>
      </trkpt>
      <trkpt lat="42.6786550" lon="-0.5306560">
        <ele>1000.4</ele>
        <time>2023-01-14T11:59:28Z</time>
      </trkpt>
      <trkpt lat="42.6786740" lon="-0.5306910">
        <ele>1000.6</ele>
        <time>2023-01-14T11:59:29Z</time>
      </trkpt>
      <trkpt lat="42.6786920" lon="-0.5307320">
        <ele>1000.6</ele>
        <time>2023-01-14T11:59:30Z</time>
      </trkpt>
      <trkpt lat="42.6787070" lon="-0.5307790">
        <ele>1000.6</ele>
        <time>2023-01-14T11:59:31Z</time>
      </trkpt>
      <trkpt lat="42.6787190" lon="-0.5308300">
        <ele>1000.6</ele>
        <time>2023-01-14T11:59:32Z</time>
      </trkpt>
      <trkpt lat="42.6787190" lon="-0.5308870">
        <ele>1000.4</ele>
        <time>2023-01-14T11:59:33Z</time>
      </trkpt>
      <trkpt lat="42.6787200" lon="-0.5309370">
        <ele>1000.2</ele>
        <time>2023-01-14T11:59:34Z</time>
      </trkpt>
      <trkpt lat="42.6787310" lon="-0.5309740">
        <ele>1000.2</ele>
        <time>2023-01-14T11:59:35Z</time>
      </trkpt>
      <trkpt lat="42.6787470" lon="-0.5310070">
        <ele>1000.0</ele>
        <time>2023-01-14T11:59:36Z</time>
      </trkpt>
      <trkpt lat="42.6787620" lon="-0.5310410">
        <ele>1000.0</ele>
        <time>2023-01-14T11:59:37Z</time>
      </trkpt>
      <trkpt lat="42.6787760" lon="-0.5310810">
        <ele>1000.0</ele>
        <time>2023-01-14T11:59:38Z</time>
      </trkpt>
      <trkpt lat="42.6787860" lon="-0.5311250">
        <ele>999.8</ele>
        <time>2023-01-14T11:59:39Z</time>
      </trkpt>
      <trkpt lat="42.6787910" lon="-0.5311690">
        <ele>999.8</ele>
        <time>2023-01-14T11:59:40Z</time>
      </trkpt>
      <trkpt lat="42.6787920" lon="-0.5312000">
        <ele>999.8</ele>
        <time>2023-01-14T11:59:41Z</time>
      </trkpt>
      <trkpt lat="42.6787990" lon="-0.5312340">
        <ele>999.8</ele>
        <time>2023-01-14T11:59:42Z</time>
      </trkpt>
      <trkpt lat="42.6788110" lon="-0.5312740">
        <ele>999.8</ele>
        <time>2023-01-14T11:59:43Z</time>
      </trkpt>
      <trkpt lat="42.6788180" lon="-0.5313190">
        <ele>999.6</ele>
        <time>2023-01-14T11:59:44Z</time>
      </trkpt>
      <trkpt lat="42.6788140" lon="-0.5313630">
        <ele>999.6</ele>
        <time>2023-01-14T11:59:45Z</time>
      </trkpt>
      <trkpt lat="42.6787970" lon="-0.5314000">
        <ele>999.6</ele>
        <time>2023-01-14T11:59:46Z</time>
      </trkpt>
      <trkpt lat="42.6787710" lon="-0.5314310">
        <ele>999.6</ele>
        <time>2023-01-14T11:59:47Z</time>
      </trkpt>
      <trkpt lat="42.6787380" lon="-0.5314620">
        <ele>999.6</ele>
        <time>2023-01-14T11:59:48Z</time>
      </trkpt>
      <trkpt lat="42.6787070" lon="-0.5314920">
        <ele>999.8</ele>
        <time>2023-01-14T11:59:49Z</time>
      </trkpt>
      <trkpt lat="42.6786760" lon="-0.5315170">
        <ele>1000.0</ele>
        <time>2023-01-14T11:59:50Z</time>
      </trkpt>
      <trkpt lat="42.6786480" lon="-0.5315470">
        <ele>1000.0</ele>
        <time>2023-01-14T11:59:51Z</time>
      </trkpt>
      <trkpt lat="42.6786290" lon="-0.5315830">
        <ele>1000.0</ele>
        <time>2023-01-14T11:59:52Z</time>
      </trkpt>
      <trkpt lat="42.6786230" lon="-0.5316160">
        <ele>1000.0</ele>
        <time>2023-01-14T11:59:53Z</time>
      </trkpt>
      <trkpt lat="42.6786280" lon="-0.5316450">
        <ele>1000.0</ele>
        <time>2023-01-14T11:59:54Z</time>
      </trkpt>
      <trkpt lat="42.6786430" lon="-0.5316870">
        <ele>1000.0</ele>
        <time>2023-01-14T11:59:55Z</time>
      </trkpt>
      <trkpt lat="42.6786660" lon="-0.5317400">
        <ele>999.8</ele>
        <time>2023-01-14T11:59:56Z</time>
      </trkpt>
      <trkpt lat="42.6786900" lon="-0.5317960">
        <ele>999.8</ele>
        <time>2023-01-14T11:59:57Z</time>
      </trkpt>
      <trkpt lat="42.6787060" lon="-0.5318520">
        <ele>999.8</ele>
        <time>2023-01-14T11:59:58Z</time>
      </trkpt>
      <trkpt lat="42.6787180" lon="-0.5319130">
        <ele>999.6</ele>
        <time>2023-01-14T11:59:59Z</time>
      </trkpt>
      <trkpt lat="42.6787280" lon="-0.5319780">
        <ele>999.4</ele>
        <time>2023-01-14T12:00:00Z</time>
      </trkpt>
      <trkpt lat="42.6787350" lon="-0.5320410">
        <ele>999.6</ele>
        <time>2023-01-14T12:00:01Z</time>
      </trkpt>
      <trkpt lat="42.6787370" lon="-0.5321080">
        <ele>999.6</ele>
        <time>2023-01-14T12:00:02Z</time>
      </trkpt>
      <trkpt lat="42.6787400" lon="-0.5321720">
        <ele>999.6</ele>
        <time>2023-01-14T12:00:03Z</time>
      </trkpt>
      <trkpt lat="42.6787450" lon="-0.5322400">
        <ele>999.6</ele>
        <time>2023-01-14T12:00:04Z</time>
      </trkpt>
      <trkpt lat="42.6787450" lon="-0.5323090">
        <ele>999.6</ele>
        <time>2023-01-14T12:00:05Z</time>
      </trkpt>
      <trkpt lat="42.6787430" lon="-0.5323790">
        <ele>999.6</ele>
        <time>2023-01-14T12:00:06Z</time>
      </trkpt>
      <trkpt lat="42.6787360" lon="-0.5324480">
        <ele>999.6</ele>
        <time>2023-01-14T12:00:07Z</time>
      </trkpt>
      <trkpt lat="42.6787270" lon="-0.5325160">
        <ele>999.4</ele>
        <time>2023-01-14T12:00:08Z</time>
      </trkpt>
      <trkpt lat="42.6787160" lon="-0.5325820">
        <ele>999.4</ele>
        <time>2023-01-14T12:00:09Z</time>
      </trkpt>
      <trkpt lat="42.6787050" lon="-0.5326490">
        <ele>999.4</ele>
        <time>2023-01-14T12:00:10Z</time>
      </trkpt>
      <trkpt lat="42.6786910" lon="-0.5327150">
        <ele>999.2</ele>
        <time>2023-01-14T12:00:11Z</time>
      </trkpt>
      <trkpt lat="42.6786770" lon="-0.5327800">
        <ele>999.2</ele>
        <time>2023-01-14T12:00:12Z</time>
      </trkpt>
      <trkpt lat="42.6786660" lon="-0.5328460">
        <ele>999.2</ele>
        <time>2023-01-14T12:00:13Z</time>
      </trkpt>
      <trkpt lat="42.6786570" lon="-0.5329140">
        <ele>999.2</ele>
        <time>2023-01-14T12:00:14Z</time>
      </trkpt>
      <trkpt lat="42.6786500" lon="-0.5329840">
        <ele>999.0</ele>
        <time>2023-01-14T12:00:15Z</time>
      </trkpt>
      <trkpt lat="42.6786440" lon="-0.5330540">
        <ele>999.0</ele>
        <time>2023-01-14T12:00:16Z</time>
      </trkpt>
      <trkpt lat="42.6786430" lon="-0.5331220">
        <ele>999.0</ele>
        <time>2023-01-14T12:00:17Z</time>
      </trkpt>
      <trkpt lat="42.6786470" lon="-0.5331910">
        <ele>999.0</ele>
        <time>2023-01-14T12:00:18Z</time>
      </trkpt>
      <trkpt lat="42.6786570" lon="-0.5332570">
        <ele>999.0</ele>
        <time>2023-01-14T12:00:19Z</time>
      </trkpt>
      <trkpt lat="42.6786720" lon="-0.5333230">
        <ele>999.0</ele>
        <time>2023-01-14T12:00:20Z</time>
      </trkpt>
      <trkpt lat="42.6786890" lon="-0.5333880">
        <ele>999.0</ele>
        <time>2023-01-14T12:00:21Z</time>
      </trkpt>
      <trkpt lat="42.6787050" lon="-0.5334530">
        <ele>999.0</ele>
        <time>2023-01-14T12:00:22Z</time>
      </trkpt>
      <trkpt lat="42.6787190" lon="-0.5335190">
        <ele>999.0</ele>
        <time>2023-01-14T12:00:23Z</time>
      </trkpt>
      <trkpt lat="42.6787340" lon="-0.5335870">
        <ele>999.0</ele>
        <time>2023-01-14T12:00:24Z</time>
      </trkpt>
      <trkpt lat="42.6787490" lon="-0.5336550">
        <ele>999.0</ele>
        <time>2023-01-14T12:00:25Z</time>
      </trkpt>
      <trkpt lat="42.6787670" lon="-0.5337210">
        <ele>999.0</ele>
        <time>2023-01-14T12:00:26Z</time>
      </trkpt>
      <trkpt lat="42.6787940" lon="-0.5337790">
        <ele>999.2</ele>
        <time>2023-01-14T12:00:27Z</time>
      </trkpt>
      <trkpt lat="42.6788320" lon="-0.5338140">
        <ele>999.2</ele>
        <time>2023-01-14T12:00:28Z</time>
      </trkpt>
      <trkpt lat="42.6788780" lon="-0.5338270">
        <ele>999.2</ele>
        <time>2023-01-14T12:00:29Z</time>
      </trkpt>
      <trkpt lat="42.6789240" lon="-0.5338290">
        <ele>999.4</ele>
        <time>2023-01-14T12:00:30Z</time>
      </trkpt>
      <trkpt lat="42.6789660" lon="-0.5338250">
        <ele>999.6</ele>
        <time>2023-01-14T12:00:31Z</time>
      </trkpt>
      <trkpt lat="42.6790080" lon="-0.5338200">
        <ele>999.6</ele>
        <time>2023-01-14T12:00:32Z</time>
      </trkpt>
      <trkpt lat="42.6790510" lon="-0.5338190">
        <ele>999.8</ele>
        <time>2023-01-14T12:00:33Z</time>
      </trkpt>
      <trkpt lat="42.6790940" lon="-0.5338170">
        <ele>1000.0</ele>
        <time>2023-01-14T12:00:34Z</time>
      </trkpt>
      <trkpt lat="42.6791360" lon="-0.5338110">
        <ele>1000.0</ele>
        <time>2023-01-14T12:00:35Z</time>
      </trkpt>
      <trkpt lat="42.6791780" lon="-0.5338040">
        <ele>1000.0</ele>
        <time>2023-01-14T12:00:36Z</time>
      </trkpt>
      <trkpt lat="42.6792200" lon="-0.5337980">
        <ele>1000.0</ele>
        <time>2023-01-14T12:00:37Z</time>
      </trkpt>
      <trkpt lat="42.6792610" lon="-0.5337920">
        <ele>1000.0</ele>
        <time>2023-01-14T12:00:38Z</time>
      </trkpt>
      <trkpt lat="42.6793010" lon="-0.5337870">
        <ele>1000.0</ele>
        <time>2023-01-14T12:00:39Z</time>
      </trkpt>
      <trkpt lat="42.6793400" lon="-0.5337830">
        <ele>1000.2</ele>
        <time>2023-01-14T12:00:40Z</time>
      </trkpt>
      <trkpt lat="42.6793800" lon="-0.5337800">
        <ele>1000.2</ele>
        <time>2023-01-14T12:00:41Z</time>
      </trkpt>
      <trkpt lat="42.6794180" lon="-0.5337780">
        <ele>1000.2</ele>
        <time>2023-01-14T12:00:42Z</time>
      </trkpt>
      <trkpt lat="42.6794560" lon="-0.5337770">
        <ele>1000.2</ele>
        <time>2023-01-14T12:00:43Z</time>
      </trkpt>
      <trkpt lat="42.6794920" lon="-0.5337750">
        <ele>1000.4</ele>
        <time>2023-01-14T12:00:44Z</time>
      </trkpt>
      <trkpt lat="42.6795280" lon="-0.5337720">
        <ele>1000.4</ele>
        <time>2023-01-14T12:00:45Z</time>
      </trkpt>
      <trkpt lat="42.6795640" lon="-0.5337690">
        <ele>1000.6</ele>
        <time>2023-01-14T12:00:46Z</time>
      </trkpt>
      <trkpt lat="42.6796000" lon="-0.5337640">
        <ele>1000.8</ele>
        <time>2023-01-14T12:00:47Z</time>
      </trkpt>
      <trkpt lat="42.6796330" lon="-0.5337570">
        <ele>1000.8</ele>
        <time>2023-01-14T12:00:48Z</time>
      </trkpt>
      <trkpt lat="42.6796640" lon="-0.5337510">
        <ele>1000.8</ele>
        <time>2023-01-14T12:00:49Z</time>
      </trkpt>
      <trkpt lat="42.6796900" lon="-0.5337550">
        <ele>1001.0</ele>
        <time>2023-01-14T12:00:50Z</time>
      </trkpt>
      <trkpt lat="42.6797070" lon="-0.5337760">
        <ele>1001.0</ele>
        <time>2023-01-14T12:00:51Z</time>
      </trkpt>
      <trkpt lat="42.6797120" lon="-0.5338040">
        <ele>1000.8</ele>
        <time>2023-01-14T12:00:52Z</time>
      </trkpt>
      <trkpt lat="42.6797020" lon="-0.5338250">
        <ele>1001.0</ele>
        <time>2023-01-14T12:00:53Z</time>
      </trkpt>
      <trkpt lat="42.6796880" lon="-0.5338320">
        <ele>1001.0</ele>
        <time>2023-01-14T12:00:54Z</time>
      </trkpt>
      <trkpt lat="42.6796740" lon="-0.5338390">
        <ele>1001.2</ele>
        <time>2023-01-14T12:00:55Z</time>
      </trkpt>
      <trkpt lat="42.6796620" lon="-0.5338490">
        <ele>1001.2</ele>
        <time>2023-01-14T12:00:56Z</time>
      </trkpt>
      <trkpt lat="42.6796470" lon="-0.5338590">
        <ele>1001.4</ele>
        <time>2023-01-14T12:00:57Z</time>
      </trkpt>
      <trkpt lat="42.6796290" lon="-0.5338640">
        <ele>1001.6</ele>
        <time>2023-01-14T12:00:58Z</time>
      </trkpt>
      <trkpt lat="42.6796090" lon="-0.5338680">
        <ele>1001.8</ele>
        <time>2023-01-14T12:00:59Z</time>
      </trkpt>
      <trkpt lat="42.6795920" lon="-0.5338710">
        <ele>1002.0</ele>
        <time>2023-01-14T12:01:00Z</time>
      </trkpt>
      <trkpt lat="42.6795850" lon="-0.5338780">
        <ele>1002.0</ele>
        <time>2023-01-14T12:01:01Z</time>
      </trkpt>
      <trkpt lat="42.6795890" lon="-0.5338810">
        <ele>1002.2</ele>
        <time>2023-01-14T12:01:02Z</time>
      </trkpt>
      <trkpt lat="42.6795950" lon="-0.5338820">
        <ele>1002.2</ele>
        <time>2023-01-14T12:01:03Z</time>
      </trkpt>
      <trkpt lat="42.6795960" lon="-0.5338820">
        <ele>1002.4</ele>
        <time>2023-01-14T12:01:04Z</time>
      </trkpt>
      <trkpt lat="42.6795950" lon="-0.5338810">
        <ele>1002.4</ele>
        <time>2023-01-14T12:01:05Z</time>
      </trkpt>
      <trkpt lat="42.6795950" lon="-0.5338810">
        <ele>1002.4</ele>
        <time>2023-01-14T12:01:06Z</time>
      </trkpt>
      <trkpt lat="42.6795960" lon="-0.5338830">
        <ele>1002.4</ele>
        <time>2023-01-14T12:01:07Z</time>
      </trkpt>
      <trkpt lat="42.6796050" lon="-0.5338840">
        <ele>1002.4</ele>
        <time>2023-01-14T12:01:08Z</time>
      </trkpt>
      <trkpt lat="42.6796190" lon="-0.5338810">
        <ele>1002.4</ele>
        <time>2023-01-14T12:01:09Z</time>
      </trkpt>
      <trkpt lat="42.6796360" lon="-0.5338760">
        <ele>1002.6</ele>
        <time>2023-01-14T12:01:10Z</time>
      </trkpt>
      <trkpt lat="42.6796560" lon="-0.5338700">
        <ele>1002.6</ele>
        <time>2023-01-14T12:01:11Z</time>
      </trkpt>
      <trkpt lat="42.6796750" lon="-0.5338640">
        <ele>1002.6</ele>
        <time>2023-01-14T12:01:12Z</time>
      </trkpt>
      <trkpt lat="42.6796930" lon="-0.5338590">
        <ele>1002.8</ele>
        <time>2023-01-14T12:01:13Z</time>
      </trkpt>
      <trkpt lat="42.6797100" lon="-0.5338570">
        <ele>1003.2</ele>
        <time>2023-01-14T12:01:14Z</time>
      </trkpt>
      <trkpt lat="42.6797280" lon="-0.5338540">
        <ele>1003.2</ele>
        <time>2023-01-14T12:01:15Z</time>
      </trkpt>
      <trkpt lat="42.6797460" lon="-0.5338540">
        <ele>1003.4</ele>
        <time>2023-01-14T12:01:16Z</time>
      </trkpt>
      <trkpt lat="42.6797620" lon="-0.5338570">
        <ele>1003.4</ele>
        <time>2023-01-14T12:01:17Z</time>
      </trkpt>
      <trkpt lat="42.6797770" lon="-0.5338650">
        <ele>1003.6</ele>
        <time>2023-01-14T12:01:18Z</time>
      </trkpt>
      <trkpt lat="42.6797880" lon="-0.5338790">
        <ele>1003.6</ele>
        <time>2023-01-14T12:01:19Z</time>
      </trkpt>
      <trkpt lat="42.6797940" lon="-0.5338960">
        <ele>1003.8</ele>
        <time>2023-01-14T12:01:20Z</time>
      </trkpt>
      <trkpt lat="42.6797990" lon="-0.5339110">
        <ele>1004.0</ele>
        <time>2023-01-14T12:01:21Z</time>
      </trkpt>
      <trkpt lat="42.6798050" lon="-0.5339240">
        <ele>1004.0</ele>
        <time>2023-01-14T12:01:22Z</time>
      </trkpt>
      <trkpt lat="42.6798110" lon="-0.5339380">
        <ele>1004.0</ele>
        <time>2023-01-14T12:01:23Z</time>
      </trkpt>
      <trkpt lat="42.6798140" lon="-0.5339540">
        <ele>1004.0</ele>
        <time>2023-01-14T12:01:24Z</time>
      </trkpt>
      <trkpt lat="42.6798160" lon="-0.5339710">
        <ele>1004.0</ele>
        <time>2023-01-14T12:01:25Z</time>
      </trkpt>
      <trkpt lat="42.6798200" lon="-0.5339910">
        <ele>1004.2</ele>
        <time>2023-01-14T12:01:26Z</time>
      </trkpt>
      <trkpt lat="42.6798250" lon="-0.5340130">
        <ele>1004.2</ele>
        <time>2023-01-14T12:01:27Z</time>
      </trkpt>
      <trkpt lat="42.6798320" lon="-0.5340370">
        <ele>1004.2</ele>
        <time>2023-01-14T12:01:28Z</time>
      </trkpt>
      <trkpt lat="42.6798390" lon="-0.5340610">
        <ele>1004.2</ele>
        <time>2023-01-14T12:01:29Z</time>
      </trkpt>
      <trkpt lat="42.6798470" lon="-0.5340850">
        <ele>1004.4</ele>
        <time>2023-01-14T12:01:30Z</time>
      </trkpt>
      <trkpt lat="42.6798550" lon="-0.5341100">
        <ele>1004.4</ele>
        <time>2023-01-14T12:01:31Z</time>
      </trkpt>
      <trkpt lat="42.6798630" lon="-0.5341400">
        <ele>1004.6</ele>
        <time>2023-01-14T12:01:32Z</time>
      </trkpt>
      <trkpt lat="42.6798700" lon="-0.5341700">
        <ele>1004.6</ele>
        <time>2023-01-14T12:01:33Z</time>
      </trkpt>
      <trkpt lat="42.6798780" lon="-0.5342000">
        <ele>1004.6</ele>
        <time>2023-01-14T12:01:34Z</time>
      </trkpt>
      <trkpt lat="42.6798850" lon="-0.5342270">
        <ele>1004.6</ele>
        <time>2023-01-14T12:01:35Z</time>
      </trkpt>
      <trkpt lat="42.6798930" lon="-0.5342520">
        <ele>1004.6</ele>
        <time>2023-01-14T12:01:36Z</time>
      </trkpt>
      <trkpt lat="42.6799000" lon="-0.5342780">
        <ele>1004.8</ele>
        <time>2023-01-14T12:01:37Z</time>
      </trkpt>
      <trkpt lat="42.6799060" lon="-0.5343030">
        <ele>1004.8</ele>
        <time>2023-01-14T12:01:38Z</time>
      </trkpt>
      <trkpt lat="42.6799030" lon="-0.5343240">
        <ele>1004.8</ele>
        <time>2023-01-14T12:01:39Z</time>
      </trkpt>
      <trkpt lat="42.6798870" lon="-0.5343370">
        <ele>1004.6</ele>
        <time>2023-01-14T12:01:40Z</time>
      </trkpt>
      <trkpt lat="42.6798680" lon="-0.5343500">
        <ele>1004.6</ele>
        <time>2023-01-14T12:01:41Z</time>
      </trkpt>
      <trkpt lat="42.6798470" lon="-0.5343650">
        <ele>1004.4</ele>
        <time>2023-01-14T12:01:42Z</time>
      </trkpt>
      <trkpt lat="42.6798250" lon="-0.5343800">
        <ele>1004.4</ele>
        <time>2023-01-14T12:01:43Z</time>
      </trkpt>
      <trkpt lat="42.6798030" lon="-0.5343950">
        <ele>1004.4</ele>
        <time>2023-01-14T12:01:44Z</time>
      </trkpt>
      <trkpt lat="42.6797830" lon="-0.5344070">
        <ele>1004.0</ele>
        <time>2023-01-14T12:01:45Z</time>
      </trkpt>
      <trkpt lat="42.6797680" lon="-0.5344170">
        <ele>1003.8</ele>
        <time>2023-01-14T12:01:46Z</time>
      </trkpt>
      <trkpt lat="42.6797600" lon="-0.5344280">
        <ele>1003.6</ele>
        <time>2023-01-14T12:01:47Z</time>
      </trkpt>
      <trkpt lat="42.6797630" lon="-0.5344370">
        <ele>1003.4</ele>
        <time>2023-01-14T12:01:48Z</time>
      </trkpt>
      <trkpt lat="42.6797720" lon="-0.5344330">
        <ele>1003.2</ele>
        <time>2023-01-14T12:01:49Z</time>
      </trkpt>
      <trkpt lat="42.6797840" lon="-0.5344240">
        <ele>1003.2</ele>
        <time>2023-01-14T12:01:50Z</time>
      </trkpt>
      <trkpt lat="42.6798000" lon="-0.5344140">
        <ele>1003.0</ele>
        <time>2023-01-14T12:01:51Z</time>
      </trkpt>
      <trkpt lat="42.6798180" lon="-0.5344020">
        <ele>1003.0</ele>
        <time>2023-01-14T12:01:52Z</time>
      </trkpt>
      <trkpt lat="42.6798360" lon="-0.5343850">
        <ele>1003.0</ele>
        <time>2023-01-14T12:01:53Z</time>
      </trkpt>
      <trkpt lat="42.6798560" lon="-0.5343700">
        <ele>1002.8</ele>
        <time>2023-01-14T12:01:54Z</time>
      </trkpt>
      <trkpt lat="42.6798760" lon="-0.5343700">
        <ele>1002.6</ele>
        <time>2023-01-14T12:01:55Z</time>
      </trkpt>
      <trkpt lat="42.6798930" lon="-0.5343820">
        <ele>1002.6</ele>
        <time>2023-01-14T12:01:56Z</time>
      </trkpt>
      <trkpt lat="42.6799080" lon="-0.5343990">
        <ele>1002.4</ele>
        <time>2023-01-14T12:01:57Z</time>
      </trkpt>
      <trkpt lat="42.6799220" lon="-0.5344210">
        <ele>1002.4</ele>
        <time>2023-01-14T12:01:58Z</time>
      </trkpt>
      <trkpt lat="42.6799310" lon="-0.5344490">
        <ele>1002.4</ele>
        <time>2023-01-14T12:01:59Z</time>
      </trkpt>
      <trkpt lat="42.6799400" lon="-0.5344820">
        <ele>1002.2</ele>
        <time>2023-01-14T12:02:00Z</time>
      </trkpt>
      <trkpt lat="42.6799470" lon="-0.5345180">
        <ele>1002.4</ele>
        <time>2023-01-14T12:02:01Z</time>
      </trkpt>
      <trkpt lat="42.6799560" lon="-0.5345570">
        <ele>1002.4</ele>
        <time>2023-01-14T12:02:02Z</time>
      </trkpt>
      <trkpt lat="42.6799660" lon="-0.5345960">
        <ele>1002.4</ele>
        <time>2023-01-14T12:02:03Z</time>
      </trkpt>
      <trkpt lat="42.6799770" lon="-0.5346360">
        <ele>1002.4</ele>
        <time>2023-01-14T12:02:04Z</time>
      </trkpt>
      <trkpt lat="42.6799870" lon="-0.5346780">
        <ele>1002.6</ele>
        <time>2023-01-14T12:02:05Z</time>
      </trkpt>
      <trkpt lat="42.6799970" lon="-0.5347180">
        <ele>1002.6</ele>
        <time>2023-01-14T12:02:06Z</time>
      </trkpt>
      <trkpt lat="42.6800040" lon="-0.5347590">
        <ele>1002.6</ele>
        <time>2023-01-14T12:02:07Z</time>
      </trkpt>
      <trkpt lat="42.6800120" lon="-0.5347990">
        <ele>1002.4</ele>
        <time>2023-01-14T12:02:08Z</time>
      </trkpt>
      <trkpt lat="42.6800210" lon="-0.5348370">
        <ele>1002.4</ele>
        <time>2023-01-14T12:02:09Z</time>
      </trkpt>
      <trkpt lat="42.6800290" lon="-0.5348750">
        <ele>1002.4</ele>
        <time>2023-01-14T12:02:10Z</time>
      </trkpt>
      <trkpt lat="42.6800370" lon="-0.5349120">
        <ele>1002.4</ele>
        <time>2023-01-14T12:02:11Z</time>
      </trkpt>
      <trkpt lat="42.6800470" lon="-0.5349510">
        <ele>1002.4</ele>
        <time>2023-01-14T12:02:12Z</time>
      </trkpt>
      <trkpt lat="42.6800610" lon="-0.5349840">
        <ele>1002.4</ele>
        <time>2023-01-14T12:02:13Z</time>
      </trkpt>
      <trkpt lat="42.6800790" lon="-0.5350130">
        <ele>1002.6</ele>
        <time>2023-01-14T12:02:14Z</time>
      </trkpt>
      <trkpt lat="42.6800970" lon="-0.5350410">
        <ele>1002.6</ele>
        <time>2023-01-14T12:02:15Z</time>
      </trkpt>
      <trkpt lat="42.6801170" lon="-0.5350690">
        <ele>1002.6</ele>
        <time>2023-01-14T12:02:16Z</time>
      </trkpt>
      <trkpt lat="42.6801380" lon="-0.5350970">
        <ele>1002.6</ele>
        <time>2023-01-14T12:02:17Z</time>
      </trkpt>
      <trkpt lat="42.6801590" lon="-0.5351260">
        <ele>1002.6</ele>
        <time>2023-01-14T12:02:18Z</time>
      </trkpt>
      <trkpt lat="42.6801810" lon="-0.5351520">
        <ele>1002.6</ele>
        <time>2023-01-14T12:02:19Z</time>
      </trkpt>
      <trkpt lat="42.6802040" lon="-0.5351750">
        <ele>1002.8</ele>
        <time>2023-01-14T12:02:20Z</time>
      </trkpt>
      <trkpt lat="42.6802270" lon="-0.5351930">
        <ele>1002.8</ele>
        <time>2023-01-14T12:02:21Z</time>
      </trkpt>
      <trkpt lat="42.6802480" lon="-0.5352040">
        <ele>1002.8</ele>
        <time>2023-01-14T12:02:22Z</time>
      </trkpt>
      <trkpt lat="42.6802690" lon="-0.5352050">
        <ele>1002.8</ele>
        <time>2023-01-14T12:02:23Z</time>
      </trkpt>
      <trkpt lat="42.6802900" lon="-0.5352000">
        <ele>1002.8</ele>
        <time>2023-01-14T12:02:24Z</time>
      </trkpt>
      <trkpt lat="42.6803160" lon="-0.5351930">
        <ele>1003.0</ele>
        <time>2023-01-14T12:02:25Z</time>
      </trkpt>
      <trkpt lat="42.6803420" lon="-0.5351870">
        <ele>1003.0</ele>
        <time>2023-01-14T12:02:26Z</time>
      </trkpt>
      <trkpt lat="42.6803680" lon="-0.5351820">
        <ele>1003.0</ele>
        <time>2023-01-14T12:02:27Z</time>
      </trkpt>
      <trkpt lat="42.6803950" lon="-0.5351750">
        <ele>1003.0</ele>
        <time>2023-01-14T12:02:28Z</time>
      </trkpt>
      <trkpt lat="42.6804200" lon="-0.5351690">
        <ele>1003.0</ele>
        <time>2023-01-14T12:02:29Z</time>
      </trkpt>
      <trkpt lat="42.6804410" lon="-0.5351580">
        <ele>1003.2</ele>
        <time>2023-01-14T12:02:30Z</time>
      </trkpt>
      <trkpt lat="42.6804610" lon="-0.5351490">
        <ele>1003.4</ele>
        <time>2023-01-14T12:02:31Z</time>
      </trkpt>
      <trkpt lat="42.6804850" lon="-0.5351450">
        <ele>1003.4</ele>
        <time>2023-01-14T12:02:32Z</time>
      </trkpt>
      <trkpt lat="42.6805120" lon="-0.5351450">
        <ele>1003.4</ele>
        <time>2023-01-14T12:02:33Z</time>
      </trkpt>
      <trkpt lat="42.6805350" lon="-0.5351450">
        <ele>1003.4</ele>
        <time>2023-01-14T12:02:34Z</time>
      </trkpt>
      <trkpt lat="42.6805600" lon="-0.5351420">
        <ele>1003.4</ele>
        <time>2023-01-14T12:02:35Z</time>
      </trkpt>
      <trkpt lat="42.6805900" lon="-0.5351360">
        <ele>1003.4</ele>
        <time>2023-01-14T12:02:36Z</time>
      </trkpt>
      <trkpt lat="42.6806210" lon="-0.5351290">
        <ele>1003.4</ele>
        <time>2023-01-14T12:02:37Z</time>
      </trkpt>
      <trkpt lat="42.6806500" lon="-0.5351190">
        <ele>1003.4</ele>
        <time>2023-01-14T12:02:38Z</time>
      </trkpt>
      <trkpt lat="42.6806790" lon="-0.5351110">
        <ele>1003.4</ele>
        <time>2023-01-14T12:02:39Z</time>
      </trkpt>
      <trkpt lat="42.6807080" lon="-0.5351050">
        <ele>1003.4</ele>
        <time>2023-01-14T12:02:40Z</time>
      </trkpt>
      <trkpt lat="42.6807370" lon="-0.5351040">
        <ele>1003.4</ele>
        <time>2023-01-14T12:02:41Z</time>
      </trkpt>
      <trkpt lat="42.6807640" lon="-0.5351000">
        <ele>1003.6</ele>
        <time>2023-01-14T12:02:42Z</time>
      </trkpt>
      <trkpt lat="42.6807900" lon="-0.5350950">
        <ele>1003.6</ele>
        <time>2023-01-14T12:02:43Z</time>
      </trkpt>
      <trkpt lat="42.6808150" lon="-0.5350930">
        <ele>1003.4</ele>
        <time>2023-01-14T12:02:44Z</time>
      </trkpt>
      <trkpt lat="42.6808340" lon="-0.5350990">
        <ele>1003.4</ele>
        <time>2023-01-14T12:02:45Z</time>
      </trkpt>
      <trkpt lat="42.6808400" lon="-0.5351160">
        <ele>1003.4</ele>
        <time>2023-01-14T12:02:46Z</time>
      </trkpt>
      <trkpt lat="42.6808440" lon="-0.5351380">
        <ele>1003.4</ele>
        <time>2023-01-14T12:02:47Z</time>
      </trkpt>
      <trkpt lat="42.6808500" lon="-0.5351650">
        <ele>1003.4</ele>
        <time>2023-01-14T12:02:48Z</time>
      </trkpt>
      <trkpt lat="42.6808560" lon="-0.5351920">
        <ele>1003.4</ele>
        <time>2023-01-14T12:02:49Z</time>
      </trkpt>
      <trkpt lat="42.6808590" lon="-0.5352180">
        <ele>1003.4</ele>
        <time>2023-01-14T12:02:50Z</time>
      </trkpt>
      <trkpt lat="42.6808540" lon="-0.5352390">
        <ele>1003.2</ele>
        <time>2023-01-14T12:02:51Z</time>
      </trkpt>
      <trkpt lat="42.6808360" lon="-0.5352510">
        <ele>1003.2</ele>
        <time>2023-01-14T12:02:52Z</time>
      </trkpt>
      <trkpt lat="42.6808170" lon="-0.5352590">
        <ele>1003.4</ele>
        <time>2023-01-14T12:02:53Z</time>
      </trkpt>
      <trkpt lat="42.6807990" lon="-0.5352680">
        <ele>1003.4</ele>
        <time>2023-01-14T12:02:54Z</time>
      </trkpt>
      <trkpt lat="42.6807870" lon="-0.5352840">
        <ele>1003.4</ele>
        <time>2023-01-14T12:02:55Z</time>
      </trkpt>
      <trkpt lat="42.6807770" lon="-0.5353030">
        <ele>1003.6</ele>
        <time>2023-01-14T12:02:56Z</time>
      </trkpt>
      <trkpt lat="42.6807670" lon="-0.5353190">
        <ele>1004.0</ele>
        <time>2023-01-14T12:02:57Z</time>
      </trkpt>
      <trkpt lat="42.6807570" lon="-0.5353350">
        <ele>1004.2</ele>
        <time>2023-01-14T12:02:58Z</time>
      </trkpt>
      <trkpt lat="42.6807500" lon="-0.5353500">
        <ele>1004.4</ele>
        <time>2023-01-14T12:02:59Z</time>
      </trkpt>
      <trkpt lat="42.6807420" lon="-0.5353650">
        <ele>1004.6</ele>
        <time>2023-01-14T12:03:00Z</time>
      </trkpt>
      <trkpt lat="42.6807350" lon="-0.5353810">
        <ele>1004.8</ele>
        <time>2023-01-14T12:03:01Z</time>
      </trkpt>
      <trkpt lat="42.6807280" lon="-0.5353980">
        <ele>1004.8</ele>
        <time>2023-01-14T12:03:02Z</time>
      </trkpt>
      <trkpt lat="42.6807200" lon="-0.5354170">
        <ele>1005.2</ele>
        <time>2023-01-14T12:03:03Z</time>
      </trkpt>
      <trkpt lat="42.6807160" lon="-0.5354390">
        <ele>1005.2</ele>
        <time>2023-01-14T12:03:04Z</time>
      </trkpt>
      <trkpt lat="42.6807170" lon="-0.5354640">
        <ele>1005.4</ele>
        <time>2023-01-14T12:03:05Z</time>
      </trkpt>
      <trkpt lat="42.6807240" lon="-0.5354880">
        <ele>1005.4</ele>
        <time>2023-01-14T12:03:06Z</time>
      </trkpt>
      <trkpt lat="42.6807330" lon="-0.5355050">
        <ele>1005.6</ele>
        <time>2023-01-14T12:03:07Z</time>
      </trkpt>
      <trkpt lat="42.6807440" lon="-0.5355110">
        <ele>1006.0</ele>
        <time>2023-01-14T12:03:08Z</time>
      </trkpt>
      <trkpt lat="42.6807530" lon="-0.5355060">
        <ele>1006.2</ele>
        <time>2023-01-14T12:03:09Z</time>
      </trkpt>
      <trkpt lat="42.6807600" lon="-0.5354900">
        <ele>1006.2</ele>
        <time>2023-01-14T12:03:10Z</time>
      </trkpt>
      <trkpt lat="42.6807610" lon="-0.5354650">
        <ele>1006.2</ele>
        <time>2023-01-14T12:03:11Z</time>
      </trkpt>
      <trkpt lat="42.6807620" lon="-0.5354390">
        <ele>1006.0</ele>
        <time>2023-01-14T12:03:12Z</time>
      </trkpt>
      <trkpt lat="42.6807640" lon="-0.5354090">
        <ele>1006.0</ele>
        <time>2023-01-14T12:03:13Z</time>
      </trkpt>
      <trkpt lat="42.6807620" lon="-0.5353840">
        <ele>1005.8</ele>
        <time>2023-01-14T12:03:14Z</time>
      </trkpt>
      <trkpt lat="42.6807570" lon="-0.5353710">
        <ele>1005.6</ele>
        <time>2023-01-14T12:03:15Z</time>
      </trkpt>
      <trkpt lat="42.6807520" lon="-0.5353560">
        <ele>1005.4</ele>
        <time>2023-01-14T12:03:16Z</time>
      </trkpt>
      <trkpt lat="42.6807560" lon="-0.5353410">
        <ele>1005.4</ele>
        <time>2023-01-14T12:03:17Z</time>
      </trkpt>
      <trkpt lat="42.6807660" lon="-0.5353320">
        <ele>1005.2</ele>
        <time>2023-01-14T12:03:18Z</time>
      </trkpt>
      <trkpt lat="42.6807770" lon="-0.5353350">
        <ele>1005.0</ele>
        <time>2023-01-14T12:03:19Z</time>
      </trkpt>
      <trkpt lat="42.6807830" lon="-0.5353490">
        <ele>1005.0</ele>
        <time>2023-01-14T12:03:20Z</time>
      </trkpt>
      <trkpt lat="42.6807800" lon="-0.5353650">
        <ele>1004.8</ele>
        <time>2023-01-14T12:03:21Z</time>
      </trkpt>
      <trkpt lat="42.6807710" lon="-0.5353720">
        <ele>1004.8</ele>
        <time>2023-01-14T12:03:22Z</time>
      </trkpt>
      <trkpt lat="42.6807600" lon="-0.5353770">
        <ele>1004.6</ele>
        <time>2023-01-14T12:03:23Z</time>
      </trkpt>
      <trkpt lat="42.6807510" lon="-0.5353870">
        <ele>1004.6</ele>
        <time>2023-01-14T12:03:24Z</time>
      </trkpt>
      <trkpt lat="42.6807430" lon="-0.5353980">
        <ele>1004.6</ele>
        <time>2023-01-14T12:03:25Z</time>
      </trkpt>
      <trkpt lat="42.6807320" lon="-0.5354060">
        <ele>1004.8</ele>
        <time>2023-01-14T12:03:26Z</time>
      </trkpt>
      <trkpt lat="42.6807230" lon="-0.5354150">
        <ele>1004.8</ele>
        <time>2023-01-14T12:03:27Z</time>
      </trkpt>
      <trkpt lat="42.6807230" lon="-0.5354260">
        <ele>1004.8</ele>
        <time>2023-01-14T12:03:28Z</time>
      </trkpt>
      <trkpt lat="42.6807280" lon="-0.5354290">
        <ele>1004.8</ele>
        <time>2023-01-14T12:03:29Z</time>
      </trkpt>
      <trkpt lat="42.6807350" lon="-0.5354310">
        <ele>1005.0</ele>
        <time>2023-01-14T12:03:30Z</time>
      </trkpt>
      <trkpt lat="42.6807370" lon="-0.5354290">
        <ele>1005.0</ele>
        <time>2023-01-14T12:03:31Z</time>
      </trkpt>
      <trkpt lat="42.6807370" lon="-0.5354280">
        <ele>1005.0</ele>
        <time>2023-01-14T12:03:32Z</time>
      </trkpt>
      <trkpt lat="42.6807370" lon="-0.5354270">
        <ele>1005.0</ele>
        <time>2023-01-14T12:03:33Z</time>
      </trkpt>
      <trkpt lat="42.6807370" lon="-0.5354270">
        <ele>1005.0</ele>
        <time>2023-01-14T12:03:34Z</time>
      </trkpt>
      <trkpt lat="42.6807370" lon="-0.5354270">
        <ele>1005.0</ele>
        <time>2023-01-14T12:03:35Z</time>
      </trkpt>
      <trkpt lat="42.6807370" lon="-0.5354280">
        <ele>1005.0</ele>
        <time>2023-01-14T12:03:36Z</time>
      </trkpt>
      <trkpt lat="42.6807360" lon="-0.5354270">
        <ele>1005.0</ele>
        <time>2023-01-14T12:03:37Z</time>
      </trkpt>
      <trkpt lat="42.6807360" lon="-0.5354280">
        <ele>1005.0</ele>
        <time>2023-01-14T12:03:38Z</time>
      </trkpt>
      <trkpt lat="42.6807360" lon="-0.5354280">
        <ele>1005.0</ele>
        <time>2023-01-14T12:03:39Z</time>
      </trkpt>
      <trkpt lat="42.6807360" lon="-0.5354280">
        <ele>1005.0</ele>
        <time>2023-01-14T12:03:40Z</time>
      </trkpt>
      <trkpt lat="42.6807350" lon="-0.5354280">
        <ele>1005.0</ele>
        <time>2023-01-14T12:03:41Z</time>
      </trkpt>
      <trkpt lat="42.6807350" lon="-0.5354270">
        <ele>1005.0</ele>
        <time>2023-01-14T12:03:42Z</time>
      </trkpt>
      <trkpt lat="42.6807350" lon="-0.5354290">
        <ele>1005.0</ele>
        <time>2023-01-14T12:03:43Z</time>
      </trkpt>
      <trkpt lat="42.6807380" lon="-0.5354370">
        <ele>1005.0</ele>
        <time>2023-01-14T12:03:44Z</time>
      </trkpt>
      <trkpt lat="42.6807430" lon="-0.5354500">
        <ele>1005.2</ele>
        <time>2023-01-14T12:03:45Z</time>
      </trkpt>
      <trkpt lat="42.6807460" lon="-0.5354670">
        <ele>1005.2</ele>
        <time>2023-01-14T12:03:46Z</time>
      </trkpt>
      <trkpt lat="42.6807500" lon="-0.5354930">
        <ele>1005.4</ele>
        <time>2023-01-14T12:03:47Z</time>
      </trkpt>
      <trkpt lat="42.6807570" lon="-0.5355210">
        <ele>1005.4</ele>
        <time>2023-01-14T12:03:48Z</time>
      </trkpt>
      <trkpt lat="42.6807650" lon="-0.5355480">
        <ele>1005.6</ele>
        <time>2023-01-14T12:03:49Z</time>
      </trkpt>
      <trkpt lat="42.6807720" lon="-0.5355740">
        <ele>1005.8</ele>
        <time>2023-01-14T12:03:50Z</time>
      </trkpt>
      <trkpt lat="42.6807830" lon="-0.5356010">
        <ele>1006.0</ele>
        <time>2023-01-14T12:03:51Z</time>
      </trkpt>
      <trkpt lat="42.6807950" lon="-0.5356320">
        <ele>1006.2</ele>
        <time>2023-01-14T12:03:52Z</time>
      </trkpt>
      <trkpt lat="42.6808110" lon="-0.5356620">
        <ele>1006.4</ele>
        <time>2023-01-14T12:03:53Z</time>
      </trkpt>
      <trkpt lat="42.6808290" lon="-0.5356920">
        <ele>1006.4</ele>
        <time>2023-01-14T12:03:54Z</time>
      </trkpt>
      <trkpt lat="42.6808480" lon="-0.5357190">
        <ele>1007.0</ele>
        <time>2023-01-14T12:03:55Z</time>
      </trkpt>
      <trkpt lat="42.6808680" lon="-0.5357430">
        <ele>1007.2</ele>
        <time>2023-01-14T12:03:56Z</time>
      </trkpt>
      <trkpt lat="42.6808880" lon="-0.5357690">
        <ele>1007.4</ele>
        <time>2023-01-14T12:03:57Z</time>
      </trkpt>
      <trkpt lat="42.6809070" lon="-0.5357950">
        <ele>1007.6</ele>
        <time>2023-01-14T12:03:58Z</time>
      </trkpt>
      <trkpt lat="42.6809240" lon="-0.5358250">
        <ele>1007.8</ele>
        <time>2023-01-14T12:03:59Z</time>
      </trkpt>
      <trkpt lat="42.6809390" lon="-0.5358560">
        <ele>1007.8</ele>
        <time>2023-01-14T12:04:00Z</time>
      </trkpt>
      <trkpt lat="42.6809530" lon="-0.5358890">
        <ele>1008.0</ele>
        <time>2023-01-14T12:04:01Z</time>
      </trkpt>
      <trkpt lat="42.6809680" lon="-0.5359250">
        <ele>1008.4</ele>
        <time>2023-01-14T12:04:02Z</time>
      </trkpt>
      <trkpt lat="42.6809820" lon="-0.5359600">
        <ele>1008.6</ele>
        <time>2023-01-14T12:04:03Z</time>
      </trkpt>
      <trkpt lat="42.6809970" lon="-0.5359950">
        <ele>1008.8</ele>
        <time>2023-01-14T12:04:04Z</time>
      </trkpt>
      <trkpt lat="42.6810090" lon="-0.5360300">
        <ele>1009.0</ele>
        <time>2023-01-14T12:04:05Z</time>
      </trkpt>
      <trkpt lat="42.6810210" lon="-0.5360630">
        <ele>1009.2</ele>
        <time>2023-01-14T12:04:06Z</time>
      </trkpt>
      <trkpt lat="42.6810350" lon="-0.5360910">
        <ele>1009.4</ele>
        <time>2023-01-14T12:04:07Z</time>
      </trkpt>
      <trkpt lat="42.6810520" lon="-0.5361030">
        <ele>1009.6</ele>
        <time>2023-01-14T12:04:08Z</time>
      </trkpt>
      <trkpt lat="42.6810700" lon="-0.5361010">
        <ele>1010.2</ele>
        <time>2023-01-14T12:04:09Z</time>
      </trkpt>
      <trkpt lat="42.6810870" lon="-0.5360900">
        <ele>1010.4</ele>
        <time>2023-01-14T12:04:10Z</time>
      </trkpt>
      <trkpt lat="42.6810970" lon="-0.5360920">
        <ele>1010.6</ele>
        <time>2023-01-14T12:04:11Z</time>
      </trkpt>
      <trkpt lat="42.6811170" lon="-0.5360790">
        <ele>1010.6</ele>
        <time>2023-01-14T12:04:12Z</time>
      </trkpt>
      <trkpt lat="42.6811390" lon="-0.5360600">
        <ele>1010.6</ele>
        <time>2023-01-14T12:04:13Z</time>
      </trkpt>
      <trkpt lat="42.6811620" lon="-0.5360320">
        <ele>1010.6</ele>
        <time>2023-01-14T12:04:14Z</time>
      </trkpt>
      <trkpt lat="42.6811860" lon="-0.5359970">
        <ele>1010.6</ele>
        <time>2023-01-14T12:04:15Z</time>
      </trkpt>
      <trkpt lat="42.6812120" lon="-0.5359580">
        <ele>1010.4</ele>
        <time>2023-01-14T12:04:16Z</time>
      </trkpt>
      <trkpt lat="42.6812450" lon="-0.5359270">
        <ele>1010.4</ele>
        <time>2023-01-14T12:04:17Z</time>
      </trkpt>
      <trkpt lat="42.6812810" lon="-0.5359090">
        <ele>1010.0</ele>
        <time>2023-01-14T12:04:18Z</time>
      </trkpt>
      <trkpt lat="42.6813170" lon="-0.5358940">
        <ele>1010.0</ele>
        <time>2023-01-14T12:04:19Z</time>
      </trkpt>
      <trkpt lat="42.6813520" lon="-0.5358780">
        <ele>1009.8</ele>
        <time>2023-01-14T12:04:20Z</time>
      </trkpt>
      <trkpt lat="42.6813810" lon="-0.5358610">
        <ele>1009.8</ele>
        <time>2023-01-14T12:04:21Z</time>
      </trkpt>
      <trkpt lat="42.6814110" lon="-0.5358430">
        <ele>1009.8</ele>
        <time>2023-01-14T12:04:22Z</time>
      </trkpt>
      <trkpt lat="42.6814400" lon="-0.5358260">
        <ele>1009.6</ele>
        <time>2023-01-14T12:04:23Z</time>
      </trkpt>
      <trkpt lat="42.6814700" lon="-0.5358110">
        <ele>1009.6</ele>
        <time>2023-01-14T12:04:24Z</time>
      </trkpt>
      <trkpt lat="42.6814960" lon="-0.5357960">
        <ele>1009.6</ele>
        <time>2023-01-14T12:04:25Z</time>
      </trkpt>
      <trkpt lat="42.6815090" lon="-0.5357750">
        <ele>1009.6</ele>
        <time>2023-01-14T12:04:26Z</time>
      </trkpt>
      <trkpt lat="42.6815130" lon="-0.5357470">
        <ele>1009.6</ele>
        <time>2023-01-14T12:04:27Z</time>
      </trkpt>
      <trkpt lat="42.6815160" lon="-0.5357240">
        <ele>1009.6</ele>
        <time>2023-01-14T12:04:28Z</time>
      </trkpt>
      <trkpt lat="42.6815240" lon="-0.5357100">
        <ele>1009.6</ele>
        <time>2023-01-14T12:04:29Z</time>
      </trkpt>
      <trkpt lat="42.6815320" lon="-0.5357020">
        <ele>1009.8</ele>
        <time>2023-01-14T12:04:30Z</time>
      </trkpt>
      <trkpt lat="42.6815360" lon="-0.5357010">
        <ele>1009.8</ele>
        <time>2023-01-14T12:04:31Z</time>
      </trkpt>
      <trkpt lat="42.6815360" lon="-0.5357010">
        <ele>1009.6</ele>
        <time>2023-01-14T12:04:32Z</time>
      </trkpt>
      <trkpt lat="42.6815370" lon="-0.5357000">
        <ele>1009.6</ele>
        <time>2023-01-14T12:04:33Z</time>
      </trkpt>
      <trkpt lat="42.6815370" lon="-0.5357010">
        <ele>1009.6</ele>
        <time>2023-01-14T12:04:34Z</time>
      </trkpt>
      <trkpt lat="42.6815360" lon="-0.5357010">
        <ele>1009.6</ele>
        <time>2023-01-14T12:04:35Z</time>
      </trkpt>
      <trkpt lat="42.6815370" lon="-0.5357010">
        <ele>1009.6</ele>
        <time>2023-01-14T12:04:36Z</time>
      </trkpt>
      <trkpt lat="42.6815370" lon="-0.5357010">
        <ele>1009.8</ele>
        <time>2023-01-14T12:04:37Z</time>
      </trkpt>
      <trkpt lat="42.6815370" lon="-0.5357020">
        <ele>1009.8</ele>
        <time>2023-01-14T12:04:38Z</time>
      </trkpt>
      <trkpt lat="42.6815380" lon="-0.5357020">
        <ele>1009.8</ele>
        <time>2023-01-14T12:04:39Z</time>
      </trkpt>
    </trkseg>
  </trk>
</gpx>
